<?xml version='1.0' encoding='UTF-8'?><gpx version="1.1" creator="JPX - https://github.com/jenetics/jpx" xmlns="http://www.topografix.com/GPX/1/1"><trk><trkseg><trkpt lat="43.50499996329678" lon="10.617920146074065"><ele>318.0</ele><time>2026-04-18T06:05:19Z</time></trkpt><trkpt lat="43.504960911351084" lon="10.617996064392509"><ele>318.0</ele><time>2026-04-18T06:05:21Z</time></trkpt><trkpt lat="43.50488811771461" lon="10.618068435921847"><ele>318.0</ele><time>2026-04-18T06:05:24Z</time></trkpt><trkpt lat="43.50484168579767" lon="10.618009638824281"><ele>318.0</ele><time>2026-04-18T06:05:28Z</time></trkpt><trkpt lat="43.50479789216824" lon="10.618095559919968"><ele>318.0</ele><time>2026-04-18T06:05:52.999Z</time></trkpt><trkpt lat="43.504795643430455" lon="10.618211730079178"><ele>318.0</ele><time>2026-04-18T06:05:55.999Z</time></trkpt><trkpt lat="43.50481055517598" lon="10.618341592124374"><ele>318.0</ele><time>2026-04-18T06:05:58.999Z</time></trkpt><trkpt lat="43.504834212543074" lon="10.618429845704084"><ele>318.0</ele><time>2026-04-18T06:06:00.999Z</time></trkpt><trkpt lat="43.50486106599023" lon="10.618551818678917"><ele>318.0</ele><time>2026-04-18T06:06:02.999Z</time></trkpt><trkpt lat="43.504862727241694" lon="10.618669875645816"><ele>318.0</ele><time>2026-04-18T06:06:04.999Z</time></trkpt><trkpt lat="43.50482827008312" lon="10.618779756146395"><ele>318.0</ele><time>2026-04-18T06:06:06.999Z</time></trkpt><trkpt lat="43.50476282819952" lon="10.618877909094515"><ele>318.0</ele><time>2026-04-18T06:06:08.999Z</time></trkpt><trkpt lat="43.504675354652974" lon="10.618953320131576"><ele>318.4</ele><time>2026-04-18T06:06:10.999Z</time></trkpt><trkpt lat="43.50457917053769" lon="10.619041229235178"><ele>318.8</ele><time>2026-04-18T06:06:12.999Z</time></trkpt><trkpt lat="43.5044894857501" lon="10.619120505265826"><ele>319.2</ele><time>2026-04-18T06:06:14.999Z</time></trkpt><trkpt lat="43.50442776247345" lon="10.619228426272834"><ele>319.6</ele><time>2026-04-18T06:06:16.999Z</time></trkpt><trkpt lat="43.50436955523238" lon="10.619326652904698"><ele>320.0</ele><time>2026-04-18T06:06:18.999Z</time></trkpt><trkpt lat="43.50432549461154" lon="10.619422936737545"><ele>318.5</ele><time>2026-04-18T06:06:21.999Z</time></trkpt><trkpt lat="43.50431663796859" lon="10.61951052176959"><ele>317.0</ele><time>2026-04-18T06:06:23.999Z</time></trkpt><trkpt lat="43.504350860743784" lon="10.619600576596735"><ele>315.5</ele><time>2026-04-18T06:06:25.999Z</time></trkpt><trkpt lat="43.50437159023027" lon="10.619704306320108"><ele>314.0</ele><time>2026-04-18T06:06:27.999Z</time></trkpt><trkpt lat="43.50441038259096" lon="10.619807430807452"><ele>312.5</ele><time>2026-04-18T06:06:29.999Z</time></trkpt><trkpt lat="43.50445263057058" lon="10.6199028478334"><ele>311.0</ele><time>2026-04-18T06:06:31.999Z</time></trkpt><trkpt lat="43.50449256530728" lon="10.620003800330675"><ele>311.0</ele><time>2026-04-18T06:06:33.999Z</time></trkpt><trkpt lat="43.50453789045032" lon="10.62008878191512"><ele>311.0</ele><time>2026-04-18T06:06:35.999Z</time></trkpt><trkpt lat="43.50458430193152" lon="10.620156036848622"><ele>311.0</ele><time>2026-04-18T06:06:37.999Z</time></trkpt><trkpt lat="43.50464378758863" lon="10.6202042380214"><ele>311.0</ele><time>2026-04-18T06:06:39.999Z</time></trkpt><trkpt lat="43.504694967866264" lon="10.620303651913"><ele>311.0</ele><time>2026-04-18T06:06:42.999Z</time></trkpt><trkpt lat="43.50472908517948" lon="10.62040587107938"><ele>311.0</ele><time>2026-04-18T06:06:45.999Z</time></trkpt><trkpt lat="43.50478086103536" lon="10.620496105926636"><ele>309.83333333333337</ele><time>2026-04-18T06:06:48.999Z</time></trkpt><trkpt lat="43.5048331770822" lon="10.620572232377267"><ele>308.6666666666667</ele><time>2026-04-18T06:06:50.999Z</time></trkpt><trkpt lat="43.50489167868791" lon="10.620664077745957"><ele>307.5</ele><time>2026-04-18T06:06:52.999Z</time></trkpt><trkpt lat="43.504934201061054" lon="10.620740353530193"><ele>306.3333333333333</ele><time>2026-04-18T06:06:54.999Z</time></trkpt><trkpt lat="43.504976889504356" lon="10.6208146906776"><ele>305.16666666666663</ele><time>2026-04-18T06:06:56.999Z</time></trkpt><trkpt lat="43.505006411940435" lon="10.620901667858023"><ele>304.0</ele><time>2026-04-18T06:06:58.999Z</time></trkpt><trkpt lat="43.505037538798064" lon="10.621001504947028"><ele>304.0</ele><time>2026-04-18T06:07:01.999Z</time></trkpt><trkpt lat="43.505064975851674" lon="10.621084900941542"><ele>304.0</ele><time>2026-04-18T06:07:04.999Z</time></trkpt><trkpt lat="43.505108748037046" lon="10.621171556357485"><ele>304.0</ele><time>2026-04-18T06:07:09.999Z</time></trkpt><trkpt lat="43.505151537181746" lon="10.621246223114108"><ele>304.0</ele><time>2026-04-18T06:07:56.999Z</time></trkpt><trkpt lat="43.50511030886882" lon="10.621166494606689"><ele>304.0</ele><time>2026-04-18T06:14:22Z</time></trkpt><trkpt lat="43.50505522152964" lon="10.62103498108267"><ele>304.0</ele><time>2026-04-18T06:14:48Z</time></trkpt><trkpt lat="43.50505234013762" lon="10.62092740648185"><ele>304.0</ele><time>2026-04-18T06:14:50Z</time></trkpt><trkpt lat="43.50499584979963" lon="10.620847433684741"><ele>304.0</ele><time>2026-04-18T06:15:11.001Z</time></trkpt><trkpt lat="43.50495431386347" lon="10.620774906913418"><ele>304.0</ele><time>2026-04-18T06:15:12.001Z</time></trkpt><trkpt lat="43.50490082665041" lon="10.620665532273007"><ele>304.0</ele><time>2026-04-18T06:15:14.001Z</time></trkpt><trkpt lat="43.504845884562094" lon="10.620590358296603"><ele>304.0</ele><time>2026-04-18T06:15:16.001Z</time></trkpt><trkpt lat="43.504785201370225" lon="10.620524767906424"><ele>304.0</ele><time>2026-04-18T06:15:18Z</time></trkpt></trkseg><trkseg><trkpt lat="43.5047055907396" lon="10.620406239916871"><ele>304.8333333333333</ele><time>2026-04-18T06:43:14Z</time></trkpt><trkpt lat="43.504670477115575" lon="10.620314343460452"><ele>305.66666666666663</ele><time>2026-04-18T06:45:41Z</time></trkpt><trkpt lat="43.50463458464791" lon="10.620238653575258"><ele>306.5</ele><time>2026-04-18T06:47:16Z</time></trkpt><trkpt lat="43.50468690166087" lon="10.620157445949962"><ele>307.3333333333333</ele><time>2026-04-18T06:48:50Z</time></trkpt><trkpt lat="43.50476137202531" lon="10.620087424334242"><ele>308.1666666666667</ele><time>2026-04-18T06:49:50.001Z</time></trkpt><trkpt lat="43.5048130775354" lon="10.620027365966148"><ele>309.0</ele><time>2026-04-18T06:49:51.001Z</time></trkpt><trkpt lat="43.5048824557738" lon="10.619947033917553"><ele>309.0</ele><time>2026-04-18T06:49:52.001Z</time></trkpt><trkpt lat="43.5049449505095" lon="10.619883548190591"><ele>309.0</ele><time>2026-04-18T06:49:53.001Z</time></trkpt><trkpt lat="43.50506519836403" lon="10.619777185058123"><ele>309.0</ele><time>2026-04-18T06:49:55.001Z</time></trkpt><trkpt lat="43.50508393284715" lon="10.619666170232485"><ele>309.0</ele><time>2026-04-18T06:49:56.001Z</time></trkpt><trkpt lat="43.505116753463156" lon="10.619573176008657"><ele>309.0</ele><time>2026-04-18T06:49:57.001Z</time></trkpt><trkpt lat="43.50517355141887" lon="10.619429317139941"><ele>309.59999999999997</ele><time>2026-04-18T06:49:59.001Z</time></trkpt><trkpt lat="43.505239355122264" lon="10.619330185094222"><ele>310.2</ele><time>2026-04-18T06:50:01.001Z</time></trkpt><trkpt lat="43.50531019379401" lon="10.619348959404304"><ele>310.79999999999995</ele><time>2026-04-18T06:50:02.001Z</time></trkpt><trkpt lat="43.50539059799725" lon="10.61939657576227"><ele>311.4</ele><time>2026-04-18T06:50:03.001Z</time></trkpt><trkpt lat="43.505496874055055" lon="10.619408685080051"><ele>312.0</ele><time>2026-04-18T06:50:04.001Z</time></trkpt><trkpt lat="43.505617977834625" lon="10.619456700154458"><ele>309.6</ele><time>2026-04-18T06:50:05.001Z</time></trkpt><trkpt lat="43.505715759138255" lon="10.619499175969286"><ele>307.2</ele><time>2026-04-18T06:50:06.001Z</time></trkpt><trkpt lat="43.505813165051386" lon="10.619476057519691"><ele>304.8</ele><time>2026-04-18T06:50:07.001Z</time></trkpt><trkpt lat="43.50590897863514" lon="10.619451591115821"><ele>302.4</ele><time>2026-04-18T06:50:08.001Z</time></trkpt><trkpt lat="43.50599825861799" lon="10.619405212730218"><ele>300.0</ele><time>2026-04-18T06:50:09.001Z</time></trkpt><trkpt lat="43.50609588005879" lon="10.619391368771307"><ele>300.0</ele><time>2026-04-18T06:50:10.001Z</time></trkpt><trkpt lat="43.506199993239164" lon="10.619359054000135"><ele>300.0</ele><time>2026-04-18T06:50:11.001Z</time></trkpt><trkpt lat="43.50629020312302" lon="10.619338009217056"><ele>300.0</ele><time>2026-04-18T06:50:12.001Z</time></trkpt><trkpt lat="43.506376922145364" lon="10.619342114254227"><ele>300.0</ele><time>2026-04-18T06:50:13.001Z</time></trkpt><trkpt lat="43.5064663233428" lon="10.619351844198691"><ele>300.0</ele><time>2026-04-18T06:50:14.001Z</time></trkpt><trkpt lat="43.50655078515599" lon="10.619357174325195"><ele>298.1666666666667</ele><time>2026-04-18T06:50:15.001Z</time></trkpt><trkpt lat="43.506633115309185" lon="10.619339179931103"><ele>296.3333333333333</ele><time>2026-04-18T06:50:16.001Z</time></trkpt><trkpt lat="43.50671300296136" lon="10.619306678706735"><ele>294.5</ele><time>2026-04-18T06:50:17.001Z</time></trkpt><trkpt lat="43.50679509502761" lon="10.619272529495285"><ele>292.66666666666663</ele><time>2026-04-18T06:50:18.001Z</time></trkpt><trkpt lat="43.50687020437099" lon="10.619236724886415"><ele>290.8333333333333</ele><time>2026-04-18T06:50:19.001Z</time></trkpt><trkpt lat="43.50693991383697" lon="10.619181973350585"><ele>289.0</ele><time>2026-04-18T06:50:20.001Z</time></trkpt><trkpt lat="43.50701068810297" lon="10.619060829728827"><ele>287.0</ele><time>2026-04-18T06:50:21.001Z</time></trkpt><trkpt lat="43.507101466263286" lon="10.618953126332329"><ele>285.0</ele><time>2026-04-18T06:50:22.001Z</time></trkpt><trkpt lat="43.50719079821519" lon="10.618871350878567"><ele>283.0</ele><time>2026-04-18T06:50:23.001Z</time></trkpt><trkpt lat="43.50727099395065" lon="10.618823187681476"><ele>281.0</ele><time>2026-04-18T06:50:24.001Z</time></trkpt><trkpt lat="43.50734761868233" lon="10.618794907502615"><ele>279.0</ele><time>2026-04-18T06:50:25.001Z</time></trkpt><trkpt lat="43.507432685346586" lon="10.618772941608498"><ele>279.0</ele><time>2026-04-18T06:50:26.001Z</time></trkpt><trkpt lat="43.507502373128965" lon="10.618749537749292"><ele>279.0</ele><time>2026-04-18T06:50:27.001Z</time></trkpt><trkpt lat="43.50756585087982" lon="10.618685136317673"><ele>279.0</ele><time>2026-04-18T06:50:28.001Z</time></trkpt><trkpt lat="43.50762004364233" lon="10.618631476281264"><ele>279.0</ele><time>2026-04-18T06:50:29.001Z</time></trkpt><trkpt lat="43.507676287247484" lon="10.618571042959571"><ele>279.0</ele><time>2026-04-18T06:50:30.001Z</time></trkpt><trkpt lat="43.50775042620882" lon="10.618515367765847"><ele>279.0</ele><time>2026-04-18T06:50:31.001Z</time></trkpt><trkpt lat="43.507809397965616" lon="10.618437239203203"><ele>279.0</ele><time>2026-04-18T06:50:32.001Z</time></trkpt><trkpt lat="43.50787426124525" lon="10.618333274354763"><ele>279.0</ele><time>2026-04-18T06:50:33.001Z</time></trkpt><trkpt lat="43.507939691928804" lon="10.6182093176548"><ele>279.0</ele><time>2026-04-18T06:50:34.001Z</time></trkpt><trkpt lat="43.5080015693441" lon="10.618070979084587"><ele>279.0</ele><time>2026-04-18T06:50:35.001Z</time></trkpt><trkpt lat="43.5080410751548" lon="10.61792239005831"><ele>279.0</ele><time>2026-04-18T06:50:36.001Z</time></trkpt><trkpt lat="43.508088749615744" lon="10.617805882604088"><ele>280.4285714285714</ele><time>2026-04-18T06:50:37.001Z</time></trkpt><trkpt lat="43.50812376145565" lon="10.617715409378237"><ele>281.85714285714283</ele><time>2026-04-18T06:50:38.001Z</time></trkpt><trkpt lat="43.50815933037629" lon="10.617641693272759"><ele>283.2857142857143</ele><time>2026-04-18T06:50:39.001Z</time></trkpt><trkpt lat="43.508185139800936" lon="10.617545930301521"><ele>284.71428571428567</ele><time>2026-04-18T06:50:40.001Z</time></trkpt><trkpt lat="43.5082295059401" lon="10.617443402835399"><ele>286.1428571428571</ele><time>2026-04-18T06:50:41.001Z</time></trkpt><trkpt lat="43.508267061452386" lon="10.617343064636119"><ele>287.57142857142856</ele><time>2026-04-18T06:50:42.001Z</time></trkpt><trkpt lat="43.508291988658655" lon="10.617263161163292"><ele>289.0</ele><time>2026-04-18T06:50:43Z</time></trkpt><trkpt lat="43.50832793442162" lon="10.617178869656032"><ele>289.0</ele><time>2026-04-18T06:50:44Z</time></trkpt><trkpt lat="43.50838214067256" lon="10.617070611588638"><ele>289.0</ele><time>2026-04-18T06:50:45Z</time></trkpt><trkpt lat="43.50847492970769" lon="10.616946963051443"><ele>289.0</ele><time>2026-04-18T06:50:46Z</time></trkpt><trkpt lat="43.50858126821642" lon="10.61681339222069"><ele>289.0</ele><time>2026-04-18T06:50:47Z</time></trkpt><trkpt lat="43.508689086378574" lon="10.61669307607112"><ele>289.5</ele><time>2026-04-18T06:50:48Z</time></trkpt><trkpt lat="43.50877047095038" lon="10.616596514599003"><ele>290.0</ele><time>2026-04-18T06:50:49Z</time></trkpt><trkpt lat="43.50884499509896" lon="10.61650423077018"><ele>290.5</ele><time>2026-04-18T06:50:50Z</time></trkpt><trkpt lat="43.50890034376918" lon="10.616432220936954"><ele>291.0</ele><time>2026-04-18T06:50:51Z</time></trkpt><trkpt lat="43.508973532617006" lon="10.61637899974099"><ele>291.5</ele><time>2026-04-18T06:50:53Z</time></trkpt><trkpt lat="43.50904317685811" lon="10.61638772784999"><ele>292.0</ele><time>2026-04-18T06:51:12Z</time></trkpt><trkpt lat="43.50911054638696" lon="10.616587925613745"><ele>292.0</ele><time>2026-04-18T06:51:14Z</time></trkpt><trkpt lat="43.50914366258679" lon="10.616662318229078"><ele>292.0</ele><time>2026-04-18T06:51:15Z</time></trkpt><trkpt lat="43.50919309492149" lon="10.616757302281519"><ele>292.0</ele><time>2026-04-18T06:51:16Z</time></trkpt><trkpt lat="43.5092541689082" lon="10.616864157507484"><ele>292.0</ele><time>2026-04-18T06:51:17Z</time></trkpt><trkpt lat="43.50932330727771" lon="10.616979025912606"><ele>292.0</ele><time>2026-04-18T06:51:18Z</time></trkpt><trkpt lat="43.50938847988555" lon="10.617114187599945"><ele>291.0</ele><time>2026-04-18T06:51:19Z</time></trkpt><trkpt lat="43.50946138473401" lon="10.617240807858556"><ele>290.0</ele><time>2026-04-18T06:51:20Z</time></trkpt><trkpt lat="43.5095295232323" lon="10.617348050999839"><ele>289.0</ele><time>2026-04-18T06:51:21Z</time></trkpt><trkpt lat="43.50959055464872" lon="10.617461174288987"><ele>288.0</ele><time>2026-04-18T06:51:22Z</time></trkpt><trkpt lat="43.509648393861646" lon="10.61755991169781"><ele>287.0</ele><time>2026-04-18T06:51:23Z</time></trkpt><trkpt lat="43.50970168275733" lon="10.617665859210868"><ele>286.8</ele><time>2026-04-18T06:51:24Z</time></trkpt><trkpt lat="43.5097554140745" lon="10.617778728638434"><ele>286.6</ele><time>2026-04-18T06:51:25Z</time></trkpt><trkpt lat="43.50980615523311" lon="10.617890376286708"><ele>286.40000000000003</ele><time>2026-04-18T06:51:26Z</time></trkpt><trkpt lat="43.50984142340836" lon="10.617996649660538"><ele>286.2</ele><time>2026-04-18T06:51:27Z</time></trkpt><trkpt lat="43.50988311295891" lon="10.618132888601783"><ele>286.0</ele><time>2026-04-18T06:51:29Z</time></trkpt><trkpt lat="43.50991763610148" lon="10.618239035793081"><ele>285.40000000000003</ele><time>2026-04-18T06:51:31Z</time></trkpt><trkpt lat="43.50996929201317" lon="10.618407244165532"><ele>284.8</ele><time>2026-04-18T06:51:33Z</time></trkpt><trkpt lat="43.51001281440415" lon="10.618517224712999"><ele>284.20000000000005</ele><time>2026-04-18T06:51:34Z</time></trkpt><trkpt lat="43.51008341446123" lon="10.61859710413291"><ele>283.6</ele><time>2026-04-18T06:51:35Z</time></trkpt><trkpt lat="43.510169208295785" lon="10.618617458280347"><ele>283.0</ele><time>2026-04-18T06:51:36Z</time></trkpt><trkpt lat="43.51024196453752" lon="10.618579557055698"><ele>283.0</ele><time>2026-04-18T06:51:37Z</time></trkpt><trkpt lat="43.5103268377107" lon="10.618518126969555"><ele>283.0</ele><time>2026-04-18T06:51:38Z</time></trkpt><trkpt lat="43.51041247600683" lon="10.618438148321143"><ele>283.0</ele><time>2026-04-18T06:51:39Z</time></trkpt><trkpt lat="43.51051069985925" lon="10.618347513104734"><ele>283.0</ele><time>2026-04-18T06:51:40Z</time></trkpt><trkpt lat="43.510615132603725" lon="10.618267763142935"><ele>283.0</ele><time>2026-04-18T06:51:41Z</time></trkpt><trkpt lat="43.510721676817575" lon="10.618205454873879"><ele>280.5</ele><time>2026-04-18T06:51:42Z</time></trkpt><trkpt lat="43.51084771817578" lon="10.618199312261515"><ele>278.0</ele><time>2026-04-18T06:51:43Z</time></trkpt><trkpt lat="43.51099158528614" lon="10.618218280485106"><ele>275.5</ele><time>2026-04-18T06:51:44Z</time></trkpt><trkpt lat="43.51114884110883" lon="10.61824885135519"><ele>273.0</ele><time>2026-04-18T06:51:45Z</time></trkpt><trkpt lat="43.5112964390996" lon="10.618277544703432"><ele>270.75</ele><time>2026-04-18T06:51:46Z</time></trkpt><trkpt lat="43.511426197173535" lon="10.618306492641956"><ele>268.5</ele><time>2026-04-18T06:51:47Z</time></trkpt><trkpt lat="43.51153938522117" lon="10.618336572886705"><ele>266.25</ele><time>2026-04-18T06:51:48Z</time></trkpt><trkpt lat="43.51164742273419" lon="10.618365182057488"><ele>264.0</ele><time>2026-04-18T06:51:49Z</time></trkpt><trkpt lat="43.51176196286801" lon="10.618425117445202"><ele>264.0</ele><time>2026-04-18T06:51:50Z</time></trkpt><trkpt lat="43.511868914294645" lon="10.61851139467893"><ele>264.0</ele><time>2026-04-18T06:51:51Z</time></trkpt><trkpt lat="43.51196642242313" lon="10.618607324573883"><ele>264.0</ele><time>2026-04-18T06:51:52Z</time></trkpt><trkpt lat="43.51204145741172" lon="10.618678536587673"><ele>264.0</ele><time>2026-04-18T06:51:53Z</time></trkpt><trkpt lat="43.51210849731498" lon="10.618739968410756"><ele>264.0</ele><time>2026-04-18T06:51:54Z</time></trkpt><trkpt lat="43.512197979246345" lon="10.61879671849039"><ele>261.75</ele><time>2026-04-18T06:51:55Z</time></trkpt><trkpt lat="43.5122994394546" lon="10.618879392665722"><ele>259.5</ele><time>2026-04-18T06:51:56Z</time></trkpt><trkpt lat="43.51242488532298" lon="10.618943622068077"><ele>257.25</ele><time>2026-04-18T06:51:57Z</time></trkpt><trkpt lat="43.51256851410407" lon="10.618998629050902"><ele>255.0</ele><time>2026-04-18T06:51:58Z</time></trkpt><trkpt lat="43.51271850473055" lon="10.619091119873895"><ele>255.0</ele><time>2026-04-18T06:51:59Z</time></trkpt><trkpt lat="43.512886697886834" lon="10.619172149646417"><ele>255.0</ele><time>2026-04-18T06:52:00Z</time></trkpt><trkpt lat="43.51305071311751" lon="10.619228931570648"><ele>255.0</ele><time>2026-04-18T06:52:01.001Z</time></trkpt><trkpt lat="43.5132026840483" lon="10.619307213124932"><ele>252.0</ele><time>2026-04-18T06:52:02.001Z</time></trkpt><trkpt lat="43.51335656282619" lon="10.61939115760827"><ele>249.0</ele><time>2026-04-18T06:52:03.001Z</time></trkpt><trkpt lat="43.51350531596081" lon="10.619456977793881"><ele>246.0</ele><time>2026-04-18T06:52:04.001Z</time></trkpt><trkpt lat="43.513646717663434" lon="10.619519216965433"><ele>244.0</ele><time>2026-04-18T06:52:05.001Z</time></trkpt><trkpt lat="43.513771108798544" lon="10.61957479139061"><ele>242.00000000000003</ele><time>2026-04-18T06:52:06.001Z</time></trkpt><trkpt lat="43.5138636622342" lon="10.619618681065605"><ele>240.00000000000003</ele><time>2026-04-18T06:52:07.001Z</time></trkpt><trkpt lat="43.51394225954966" lon="10.619660216700206"><ele>238.0</ele><time>2026-04-18T06:52:08.001Z</time></trkpt><trkpt lat="43.51401459409239" lon="10.619719186215697"><ele>236.0</ele><time>2026-04-18T06:52:09.001Z</time></trkpt><trkpt lat="43.514071303450294" lon="10.619813052248947"><ele>236.0</ele><time>2026-04-18T06:52:10.001Z</time></trkpt><trkpt lat="43.514110420211765" lon="10.619939733150765"><ele>236.00000000000003</ele><time>2026-04-18T06:52:11.001Z</time></trkpt><trkpt lat="43.51408554936998" lon="10.620078528708953"><ele>236.00000000000003</ele><time>2026-04-18T06:52:12.001Z</time></trkpt><trkpt lat="43.514031719385805" lon="10.620202825215038"><ele>236.0</ele><time>2026-04-18T06:52:13.001Z</time></trkpt><trkpt lat="43.513965152169504" lon="10.620354626672292"><ele>236.0</ele><time>2026-04-18T06:52:14.001Z</time></trkpt><trkpt lat="43.513870293775796" lon="10.620496244392719"><ele>235.5</ele><time>2026-04-18T06:52:15.001Z</time></trkpt><trkpt lat="43.513761529042725" lon="10.62064617581589"><ele>235.0</ele><time>2026-04-18T06:52:16.001Z</time></trkpt><trkpt lat="43.5136622076019" lon="10.620779385743216"><ele>234.5</ele><time>2026-04-18T06:52:17.001Z</time></trkpt><trkpt lat="43.513572519056474" lon="10.620900479121662"><ele>234.0</ele><time>2026-04-18T06:52:18.001Z</time></trkpt><trkpt lat="43.51351016063334" lon="10.621006272929781"><ele>234.0</ele><time>2026-04-18T06:52:19.001Z</time></trkpt><trkpt lat="43.51345270239944" lon="10.621106035325111"><ele>233.99999999999997</ele><time>2026-04-18T06:52:20.001Z</time></trkpt><trkpt lat="43.5134322767541" lon="10.621230128062916"><ele>233.99999999999997</ele><time>2026-04-18T06:52:21.001Z</time></trkpt><trkpt lat="43.51342610421805" lon="10.621353021908524"><ele>234.0</ele><time>2026-04-18T06:52:22.001Z</time></trkpt><trkpt lat="43.513497563699815" lon="10.621463552979815"><ele>234.0</ele><time>2026-04-18T06:52:23.001Z</time></trkpt><trkpt lat="43.51358231671717" lon="10.621559600221373"><ele>231.33333333333331</ele><time>2026-04-18T06:52:24.001Z</time></trkpt><trkpt lat="43.51370852244619" lon="10.62162882346414"><ele>228.66666666666666</ele><time>2026-04-18T06:52:25.001Z</time></trkpt><trkpt lat="43.513861007405225" lon="10.621667370864218"><ele>226.0</ele><time>2026-04-18T06:52:26.001Z</time></trkpt><trkpt lat="43.51402129856654" lon="10.621704641608249"><ele>225.0</ele><time>2026-04-18T06:52:27.001Z</time></trkpt><trkpt lat="43.51417792969984" lon="10.62180846429435"><ele>224.0</ele><time>2026-04-18T06:52:28.001Z</time></trkpt><trkpt lat="43.51433879571694" lon="10.621915653545505"><ele>223.0</ele><time>2026-04-18T06:52:29.001Z</time></trkpt><trkpt lat="43.514493886837734" lon="10.622028465667725"><ele>220.0</ele><time>2026-04-18T06:52:30.001Z</time></trkpt><trkpt lat="43.51467374928849" lon="10.622105463787344"><ele>217.0</ele><time>2026-04-18T06:52:31.001Z</time></trkpt><trkpt lat="43.514863052361626" lon="10.622153973737952"><ele>214.0</ele><time>2026-04-18T06:52:32.001Z</time></trkpt><trkpt lat="43.51505404064853" lon="10.622187823185966"><ele>214.0</ele><time>2026-04-18T06:52:33.001Z</time></trkpt><trkpt lat="43.51523803428088" lon="10.622212080212265"><ele>214.0</ele><time>2026-04-18T06:52:34.001Z</time></trkpt><trkpt lat="43.51540896402235" lon="10.622218563280889"><ele>214.0</ele><time>2026-04-18T06:52:35.001Z</time></trkpt><trkpt lat="43.515566411172216" lon="10.622208766705375"><ele>212.5</ele><time>2026-04-18T06:52:36.001Z</time></trkpt><trkpt lat="43.51571772648201" lon="10.622207907429782"><ele>211.0</ele><time>2026-04-18T06:52:37.001Z</time></trkpt><trkpt lat="43.515864681870134" lon="10.62221554292285"><ele>209.5</ele><time>2026-04-18T06:52:38.001Z</time></trkpt><trkpt lat="43.51600481735039" lon="10.622232085159359"><ele>208.0</ele><time>2026-04-18T06:52:39.001Z</time></trkpt><trkpt lat="43.51613917304599" lon="10.622264877571592"><ele>206.75</ele><time>2026-04-18T06:52:40.001Z</time></trkpt><trkpt lat="43.516272958621144" lon="10.622324656483713"><ele>205.5</ele><time>2026-04-18T06:52:41.001Z</time></trkpt><trkpt lat="43.51639105706961" lon="10.622443897509942"><ele>204.25</ele><time>2026-04-18T06:52:42.001Z</time></trkpt><trkpt lat="43.51649357513665" lon="10.622553261752728"><ele>203.0</ele><time>2026-04-18T06:52:43.001Z</time></trkpt><trkpt lat="43.51657811567438" lon="10.622640283734727"><ele>203.0</ele><time>2026-04-18T06:52:44.001Z</time></trkpt><trkpt lat="43.51665065708806" lon="10.622747891392184"><ele>203.0</ele><time>2026-04-18T06:52:45.001Z</time></trkpt><trkpt lat="43.51671497583104" lon="10.622887716616356"><ele>203.0</ele><time>2026-04-18T06:52:46.001Z</time></trkpt><trkpt lat="43.51677927987571" lon="10.623037193921654"><ele>203.0</ele><time>2026-04-18T06:52:47.001Z</time></trkpt><trkpt lat="43.51682784115531" lon="10.623189466154939"><ele>202.75</ele><time>2026-04-18T06:52:48.001Z</time></trkpt><trkpt lat="43.51686977144085" lon="10.623351584648486"><ele>202.5</ele><time>2026-04-18T06:52:48.999Z</time></trkpt><trkpt lat="43.51690897848231" lon="10.623513508694852"><ele>202.25</ele><time>2026-04-18T06:52:49.999Z</time></trkpt><trkpt lat="43.5169479892189" lon="10.623670268059001"><ele>202.0</ele><time>2026-04-18T06:52:50.999Z</time></trkpt><trkpt lat="43.51698736728147" lon="10.623815152262983"><ele>201.8</ele><time>2026-04-18T06:52:51.999Z</time></trkpt><trkpt lat="43.517037994139365" lon="10.623941447226748"><ele>201.6</ele><time>2026-04-18T06:52:52.999Z</time></trkpt><trkpt lat="43.51711236334859" lon="10.624034410083171"><ele>201.4</ele><time>2026-04-18T06:52:53.999Z</time></trkpt><trkpt lat="43.51721320680657" lon="10.624088788532687"><ele>201.20000000000002</ele><time>2026-04-18T06:52:54.999Z</time></trkpt><trkpt lat="43.5173118980739" lon="10.62413072018362"><ele>201.0</ele><time>2026-04-18T06:52:55.999Z</time></trkpt><trkpt lat="43.51741622190513" lon="10.624163621733675"><ele>198.75</ele><time>2026-04-18T06:52:56.999Z</time></trkpt><trkpt lat="43.51752767224473" lon="10.62419456503646"><ele>196.5</ele><time>2026-04-18T06:52:57.999Z</time></trkpt><trkpt lat="43.517649964253174" lon="10.624220645138285"><ele>194.25</ele><time>2026-04-18T06:52:58.999Z</time></trkpt><trkpt lat="43.51776502571049" lon="10.624247431271783"><ele>192.0</ele><time>2026-04-18T06:52:59.999Z</time></trkpt><trkpt lat="43.51788353407637" lon="10.62427928876179"><ele>188.0</ele><time>2026-04-18T06:53:00.999Z</time></trkpt><trkpt lat="43.51802343992112" lon="10.624308096426656"><ele>184.0</ele><time>2026-04-18T06:53:01.999Z</time></trkpt><trkpt lat="43.51817907968064" lon="10.624343224188149"><ele>180.0</ele><time>2026-04-18T06:53:02.999Z</time></trkpt><trkpt lat="43.51835933188232" lon="10.624410318370938"><ele>180.0</ele><time>2026-04-18T06:53:03.999Z</time></trkpt><trkpt lat="43.5185497760273" lon="10.624457159015764"><ele>180.0</ele><time>2026-04-18T06:53:04.999Z</time></trkpt><trkpt lat="43.51874455894104" lon="10.624507050534271"><ele>180.0</ele><time>2026-04-18T06:53:05.999Z</time></trkpt><trkpt lat="43.51892320313518" lon="10.624547331740187"><ele>178.0</ele><time>2026-04-18T06:53:06.999Z</time></trkpt><trkpt lat="43.5190657518914" lon="10.62458377987993"><ele>176.0</ele><time>2026-04-18T06:53:07.999Z</time></trkpt><trkpt lat="43.51918381623228" lon="10.624619984999438"><ele>174.0</ele><time>2026-04-18T06:53:08.999Z</time></trkpt><trkpt lat="43.519327872168006" lon="10.624675225405715"><ele>172.0</ele><time>2026-04-18T06:53:10.999Z</time></trkpt><trkpt lat="43.51941275344823" lon="10.624716751581671"><ele>172.0</ele><time>2026-04-18T06:53:12.999Z</time></trkpt><trkpt lat="43.519502915607895" lon="10.62475272016648"><ele>172.0</ele><time>2026-04-18T06:53:15.999Z</time></trkpt><trkpt lat="43.51956549813042" lon="10.624772861376545"><ele>172.0</ele><time>2026-04-18T06:53:16.999Z</time></trkpt><trkpt lat="43.51964033130919" lon="10.62482431660386"><ele>172.0</ele><time>2026-04-18T06:53:17.999Z</time></trkpt><trkpt lat="43.51972492367087" lon="10.62490366871528"><ele>172.0</ele><time>2026-04-18T06:53:18.999Z</time></trkpt><trkpt lat="43.51981822706864" lon="10.624997618738647"><ele>170.25</ele><time>2026-04-18T06:53:19.999Z</time></trkpt><trkpt lat="43.51992157440818" lon="10.62509209009255"><ele>168.5</ele><time>2026-04-18T06:53:20.999Z</time></trkpt><trkpt lat="43.520021650808445" lon="10.62517976539852"><ele>166.75</ele><time>2026-04-18T06:53:22Z</time></trkpt><trkpt lat="43.52012249489295" lon="10.625263329024213"><ele>165.0</ele><time>2026-04-18T06:53:23Z</time></trkpt><trkpt lat="43.52022863841159" lon="10.6253493314547"><ele>164.8</ele><time>2026-04-18T06:53:24Z</time></trkpt><trkpt lat="43.520332918838164" lon="10.625425677350002"><ele>164.6</ele><time>2026-04-18T06:53:25Z</time></trkpt><trkpt lat="43.52042274785215" lon="10.625487940006295"><ele>164.39999999999998</ele><time>2026-04-18T06:53:26Z</time></trkpt><trkpt lat="43.520498274163266" lon="10.625551703474342"><ele>164.2</ele><time>2026-04-18T06:53:27Z</time></trkpt><trkpt lat="43.52055649055829" lon="10.62563567532024"><ele>164.0</ele><time>2026-04-18T06:53:28Z</time></trkpt><trkpt lat="43.52060784298553" lon="10.625749989958218"><ele>164.0</ele><time>2026-04-18T06:53:29Z</time></trkpt><trkpt lat="43.52064536461036" lon="10.62588681846574"><ele>164.0</ele><time>2026-04-18T06:53:30Z</time></trkpt><trkpt lat="43.52068838334535" lon="10.626039602533504"><ele>164.0</ele><time>2026-04-18T06:53:31Z</time></trkpt><trkpt lat="43.520740386042014" lon="10.626181161409066"><ele>164.0</ele><time>2026-04-18T06:53:32Z</time></trkpt><trkpt lat="43.52080291528569" lon="10.626279733137288"><ele>164.0</ele><time>2026-04-18T06:53:33Z</time></trkpt><trkpt lat="43.52087456862447" lon="10.626335258248629"><ele>164.0</ele><time>2026-04-18T06:53:34Z</time></trkpt><trkpt lat="43.52096554497962" lon="10.626383291292782"><ele>164.0</ele><time>2026-04-18T06:53:35Z</time></trkpt><trkpt lat="43.52106294926451" lon="10.626433237964324"><ele>164.0</ele><time>2026-04-18T06:53:36Z</time></trkpt><trkpt lat="43.52116427538442" lon="10.626492180128045"><ele>164.0</ele><time>2026-04-18T06:53:37Z</time></trkpt><trkpt lat="43.52125276144797" lon="10.626548937578086"><ele>164.0</ele><time>2026-04-18T06:53:38Z</time></trkpt><trkpt lat="43.52134684538983" lon="10.626612863587196"><ele>163.25</ele><time>2026-04-18T06:53:39Z</time></trkpt><trkpt lat="43.521453914441665" lon="10.626685924996535"><ele>162.5</ele><time>2026-04-18T06:53:40Z</time></trkpt><trkpt lat="43.521574943843234" lon="10.626755282672775"><ele>161.75</ele><time>2026-04-18T06:53:41Z</time></trkpt><trkpt lat="43.5216955739247" lon="10.626821890413579"><ele>161.0</ele><time>2026-04-18T06:53:42Z</time></trkpt><trkpt lat="43.52180429501067" lon="10.626879975103607"><ele>161.0</ele><time>2026-04-18T06:53:43Z</time></trkpt><trkpt lat="43.5219165920641" lon="10.62692849444305"><ele>161.0</ele><time>2026-04-18T06:53:44Z</time></trkpt><trkpt lat="43.52205050730012" lon="10.626971916876968"><ele>161.0</ele><time>2026-04-18T06:53:45Z</time></trkpt><trkpt lat="43.52220208460978" lon="10.627020473433536"><ele>161.0</ele><time>2026-04-18T06:53:46Z</time></trkpt><trkpt lat="43.52236467922343" lon="10.627073974050372"><ele>159.66666666666666</ele><time>2026-04-18T06:53:47Z</time></trkpt><trkpt lat="43.522525984910885" lon="10.627124506234036"><ele>158.33333333333334</ele><time>2026-04-18T06:53:48Z</time></trkpt><trkpt lat="43.52267551892733" lon="10.627166167035673"><ele>157.0</ele><time>2026-04-18T06:53:49Z</time></trkpt><trkpt lat="43.5228191546878" lon="10.627207550822183"><ele>155.25</ele><time>2026-04-18T06:53:50Z</time></trkpt><trkpt lat="43.52295060572581" lon="10.627245357851214"><ele>153.5</ele><time>2026-04-18T06:53:51Z</time></trkpt><trkpt lat="43.523061377720936" lon="10.627283580371026"><ele>151.75</ele><time>2026-04-18T06:53:52Z</time></trkpt><trkpt lat="43.52316649369998" lon="10.627328008474791"><ele>150.0</ele><time>2026-04-18T06:53:53Z</time></trkpt><trkpt lat="43.523262782790106" lon="10.627415487267347"><ele>150.0</ele><time>2026-04-18T06:53:54Z</time></trkpt><trkpt lat="43.523357022152" lon="10.627541364603784"><ele>150.0</ele><time>2026-04-18T06:53:55Z</time></trkpt><trkpt lat="43.52343776034746" lon="10.627676342946463"><ele>150.0</ele><time>2026-04-18T06:53:56Z</time></trkpt><trkpt lat="43.52353288204388" lon="10.627763875502744"><ele>150.0</ele><time>2026-04-18T06:53:57Z</time></trkpt><trkpt lat="43.52364328523567" lon="10.627798741430123"><ele>148.8</ele><time>2026-04-18T06:53:58Z</time></trkpt><trkpt lat="43.523754584264076" lon="10.627795285007918"><ele>147.6</ele><time>2026-04-18T06:53:59Z</time></trkpt><trkpt lat="43.52386055680872" lon="10.62777887778027"><ele>146.4</ele><time>2026-04-18T06:54:00Z</time></trkpt><trkpt lat="43.52395629789749" lon="10.627781816578677"><ele>145.2</ele><time>2026-04-18T06:54:01Z</time></trkpt><trkpt lat="43.52403839514109" lon="10.627791914315564"><ele>144.0</ele><time>2026-04-18T06:54:02Z</time></trkpt><trkpt lat="43.524106247321114" lon="10.627821050204087"><ele>144.0</ele><time>2026-04-18T06:54:03Z</time></trkpt><trkpt lat="43.52419127277832" lon="10.627808230104803"><ele>144.0</ele><time>2026-04-18T06:54:05Z</time></trkpt><trkpt lat="43.5242751885311" lon="10.62781682897253"><ele>144.0</ele><time>2026-04-18T06:54:07Z</time></trkpt><trkpt lat="43.52435256208062" lon="10.627810483910725"><ele>144.0</ele><time>2026-04-18T06:54:09Z</time></trkpt><trkpt lat="43.524450875466314" lon="10.627802421668724"><ele>144.0</ele><time>2026-04-18T06:54:10Z</time></trkpt><trkpt lat="43.52455992375416" lon="10.627793479120996"><ele>143.2</ele><time>2026-04-18T06:54:11Z</time></trkpt><trkpt lat="43.52465222511808" lon="10.627545388709438"><ele>142.4</ele><time>2026-04-18T06:54:12Z</time></trkpt><trkpt lat="43.52473370954011" lon="10.627530951624681"><ele>141.6</ele><time>2026-04-18T06:54:13Z</time></trkpt><trkpt lat="43.524808039927755" lon="10.62752548288237"><ele>140.8</ele><time>2026-04-18T06:54:14Z</time></trkpt><trkpt lat="43.52487667167605" lon="10.627522396008864"><ele>140.0</ele><time>2026-04-18T06:54:15Z</time></trkpt><trkpt lat="43.5249506316134" lon="10.62751309901253"><ele>140.0</ele><time>2026-04-18T06:54:16Z</time></trkpt><trkpt lat="43.5250374675084" lon="10.627494018074364"><ele>140.0</ele><time>2026-04-18T06:54:17Z</time></trkpt><trkpt lat="43.52512676290591" lon="10.627458887855523"><ele>140.0</ele><time>2026-04-18T06:54:18Z</time></trkpt><trkpt lat="43.52521990426151" lon="10.627423287264174"><ele>140.0</ele><time>2026-04-18T06:54:19Z</time></trkpt><trkpt lat="43.52531425562398" lon="10.62737915150861"><ele>140.0</ele><time>2026-04-18T06:54:20Z</time></trkpt><trkpt lat="43.52538863948277" lon="10.627324453401833"><ele>140.0</ele><time>2026-04-18T06:54:21Z</time></trkpt><trkpt lat="43.52547475920982" lon="10.627268626471249"><ele>140.0</ele><time>2026-04-18T06:54:22Z</time></trkpt><trkpt lat="43.52556786518767" lon="10.62722314993949"><ele>140.0</ele><time>2026-04-18T06:54:23Z</time></trkpt><trkpt lat="43.5256502804234" lon="10.62716701160125"><ele>140.0</ele><time>2026-04-18T06:54:24.001Z</time></trkpt><trkpt lat="43.52574332703546" lon="10.627093767158584"><ele>140.0</ele><time>2026-04-18T06:54:25.001Z</time></trkpt><trkpt lat="43.525834968104064" lon="10.627028241934799"><ele>140.0</ele><time>2026-04-18T06:54:26.001Z</time></trkpt><trkpt lat="43.5259128188839" lon="10.626988747159661"><ele>140.0</ele><time>2026-04-18T06:54:27.001Z</time></trkpt><trkpt lat="43.52599079758501" lon="10.626960987230978"><ele>140.0</ele><time>2026-04-18T06:54:28.001Z</time></trkpt><trkpt lat="43.52607604679648" lon="10.62695321658535"><ele>140.0</ele><time>2026-04-18T06:54:29.001Z</time></trkpt><trkpt lat="43.526167198079776" lon="10.626923599231976"><ele>140.0</ele><time>2026-04-18T06:54:30.001Z</time></trkpt><trkpt lat="43.52625081007418" lon="10.626893904390322"><ele>140.0</ele><time>2026-04-18T06:54:31.001Z</time></trkpt><trkpt lat="43.526331276029296" lon="10.626862908757817"><ele>139.42857142857142</ele><time>2026-04-18T06:54:32.001Z</time></trkpt><trkpt lat="43.52640522257149" lon="10.626844917450464"><ele>138.85714285714286</ele><time>2026-04-18T06:54:33.001Z</time></trkpt><trkpt lat="43.526477477911136" lon="10.62683510101201"><ele>138.28571428571428</ele><time>2026-04-18T06:54:34.001Z</time></trkpt><trkpt lat="43.52653593369864" lon="10.626802413256815"><ele>137.71428571428572</ele><time>2026-04-18T06:54:35.001Z</time></trkpt><trkpt lat="43.526609121579995" lon="10.626777344603028"><ele>137.14285714285714</ele><time>2026-04-18T06:54:36.001Z</time></trkpt><trkpt lat="43.52668110856241" lon="10.626773896272498"><ele>136.57142857142856</ele><time>2026-04-18T06:54:37.001Z</time></trkpt><trkpt lat="43.52676179583772" lon="10.626775016141115"><ele>136.0</ele><time>2026-04-18T06:54:38.001Z</time></trkpt><trkpt lat="43.52684192178353" lon="10.626754365523361"><ele>136.0</ele><time>2026-04-18T06:54:39.001Z</time></trkpt><trkpt lat="43.52692840788353" lon="10.626720409815263"><ele>136.0</ele><time>2026-04-18T06:54:40.001Z</time></trkpt><trkpt lat="43.527008942313024" lon="10.626682785120034"><ele>136.0</ele><time>2026-04-18T06:54:41.001Z</time></trkpt><trkpt lat="43.52707657782497" lon="10.62663125697038"><ele>136.0</ele><time>2026-04-18T06:54:42.001Z</time></trkpt><trkpt lat="43.52714325889582" lon="10.626561456161335"><ele>136.0</ele><time>2026-04-18T06:54:43.001Z</time></trkpt><trkpt lat="43.527208193438035" lon="10.626485215220598"><ele>136.0</ele><time>2026-04-18T06:54:44.001Z</time></trkpt><trkpt lat="43.527258423950386" lon="10.62641427804746"><ele>134.99999999999997</ele><time>2026-04-18T06:54:45.001Z</time></trkpt><trkpt lat="43.52731147536921" lon="10.626352320869461"><ele>134.0</ele><time>2026-04-18T06:54:46.001Z</time></trkpt><trkpt lat="43.527379599713456" lon="10.626299900202744"><ele>133.0</ele><time>2026-04-18T06:54:47.001Z</time></trkpt><trkpt lat="43.527452200518894" lon="10.62627468702167"><ele>132.0</ele><time>2026-04-18T06:54:48.001Z</time></trkpt><trkpt lat="43.527522649832356" lon="10.62626898970593"><ele>131.0</ele><time>2026-04-18T06:54:49.001Z</time></trkpt><trkpt lat="43.52759151037838" lon="10.626268025252845"><ele>129.99999999999997</ele><time>2026-04-18T06:54:50.001Z</time></trkpt><trkpt lat="43.52765525509192" lon="10.626277637026837"><ele>129.0</ele><time>2026-04-18T06:54:51.001Z</time></trkpt><trkpt lat="43.52778882072693" lon="10.62628023716868"><ele>129.0</ele><time>2026-04-18T06:54:53.001Z</time></trkpt><trkpt lat="43.52786482306173" lon="10.626274907610517"><ele>129.0</ele><time>2026-04-18T06:54:54.001Z</time></trkpt><trkpt lat="43.527940960509824" lon="10.626285297652892"><ele>129.0</ele><time>2026-04-18T06:54:54.999Z</time></trkpt><trkpt lat="43.52802584273905" lon="10.626296148030935"><ele>129.0</ele><time>2026-04-18T06:54:55.999Z</time></trkpt><trkpt lat="43.52812298209754" lon="10.626286334608528"><ele>129.0</ele><time>2026-04-18T06:54:56.999Z</time></trkpt><trkpt lat="43.52820431139476" lon="10.62626985413725"><ele>129.0</ele><time>2026-04-18T06:54:57.999Z</time></trkpt><trkpt lat="43.52828457988454" lon="10.626250419143062"><ele>128.16666666666666</ele><time>2026-04-18T06:54:58.999Z</time></trkpt><trkpt lat="43.52836086610226" lon="10.626247455806906"><ele>127.33333333333334</ele><time>2026-04-18T06:54:59.999Z</time></trkpt><trkpt lat="43.528445081110036" lon="10.626265183674649"><ele>126.5</ele><time>2026-04-18T06:55:00.999Z</time></trkpt><trkpt lat="43.52852729289261" lon="10.626303351193952"><ele>125.66666666666667</ele><time>2026-04-18T06:55:01.999Z</time></trkpt><trkpt lat="43.52860666770056" lon="10.626339487548853"><ele>124.83333333333334</ele><time>2026-04-18T06:55:02.999Z</time></trkpt><trkpt lat="43.528687850364186" lon="10.626371663705648"><ele>124.0</ele><time>2026-04-18T06:55:03.999Z</time></trkpt><trkpt lat="43.52877465885335" lon="10.626401499488729"><ele>124.00000000000001</ele><time>2026-04-18T06:55:04.999Z</time></trkpt><trkpt lat="43.5288693410326" lon="10.6264119888984"><ele>124.0</ele><time>2026-04-18T06:55:05.999Z</time></trkpt><trkpt lat="43.52895787118354" lon="10.62641994259269"><ele>124.0</ele><time>2026-04-18T06:55:06.999Z</time></trkpt><trkpt lat="43.52902985104235" lon="10.62638872797653"><ele>124.0</ele><time>2026-04-18T06:55:07.999Z</time></trkpt><trkpt lat="43.529097258963155" lon="10.626354406196471"><ele>124.00000000000001</ele><time>2026-04-18T06:55:08.999Z</time></trkpt><trkpt lat="43.52916534889051" lon="10.62630977501448"><ele>124.0</ele><time>2026-04-18T06:55:09.999Z</time></trkpt><trkpt lat="43.52923525016894" lon="10.626270459597892"><ele>124.00000000000001</ele><time>2026-04-18T06:55:10.999Z</time></trkpt><trkpt lat="43.52930670286953" lon="10.62623048387856"><ele>124.0</ele><time>2026-04-18T06:55:11.999Z</time></trkpt><trkpt lat="43.52938338110835" lon="10.626220241873035"><ele>124.0</ele><time>2026-04-18T06:55:12.999Z</time></trkpt><trkpt lat="43.52946628374997" lon="10.6262369017482"><ele>124.0</ele><time>2026-04-18T06:55:13.999Z</time></trkpt><trkpt lat="43.52955605756332" lon="10.626239809346302"><ele>124.00000000000001</ele><time>2026-04-18T06:55:14.999Z</time></trkpt><trkpt lat="43.52964955785039" lon="10.62622188262444"><ele>124.0</ele><time>2026-04-18T06:55:15.999Z</time></trkpt><trkpt lat="43.52974031267225" lon="10.62618891255203"><ele>122.80000000000001</ele><time>2026-04-18T06:55:16.999Z</time></trkpt><trkpt lat="43.5298426723714" lon="10.62615352908409"><ele>121.60000000000001</ele><time>2026-04-18T06:55:17.999Z</time></trkpt><trkpt lat="43.52993222839331" lon="10.626120662440684"><ele>120.4</ele><time>2026-04-18T06:55:18.999Z</time></trkpt><trkpt lat="43.53001188748718" lon="10.626094415303593"><ele>119.2</ele><time>2026-04-18T06:55:20Z</time></trkpt><trkpt lat="43.53012463528731" lon="10.626072855042782"><ele>118.0</ele><time>2026-04-18T06:55:22Z</time></trkpt><trkpt lat="43.53025388925467" lon="10.626097122027515"><ele>117.83333333333334</ele><time>2026-04-18T06:55:24Z</time></trkpt><trkpt lat="43.53032873239836" lon="10.626107614504692"><ele>117.66666666666667</ele><time>2026-04-18T06:55:25Z</time></trkpt><trkpt lat="43.530411629577195" lon="10.626106054043408"><ele>117.5</ele><time>2026-04-18T06:55:26Z</time></trkpt><trkpt lat="43.53048854027049" lon="10.626117039194952"><ele>117.33333333333334</ele><time>2026-04-18T06:55:27Z</time></trkpt><trkpt lat="43.53056375931434" lon="10.626129028356983"><ele>117.16666666666667</ele><time>2026-04-18T06:55:28Z</time></trkpt><trkpt lat="43.53063792812564" lon="10.626141801502506"><ele>117.0</ele><time>2026-04-18T06:55:29Z</time></trkpt><trkpt lat="43.530758501151645" lon="10.62616476596313"><ele>117.0</ele><time>2026-04-18T06:55:31Z</time></trkpt><trkpt lat="43.53083274070609" lon="10.626166592167488"><ele>117.0</ele><time>2026-04-18T06:55:32Z</time></trkpt><trkpt lat="43.53090671966419" lon="10.62616841593854"><ele>117.0</ele><time>2026-04-18T06:55:33Z</time></trkpt><trkpt lat="43.530984248793985" lon="10.626174249492287"><ele>117.0</ele><time>2026-04-18T06:55:34Z</time></trkpt><trkpt lat="43.53105891831922" lon="10.626182133831655"><ele>117.0</ele><time>2026-04-18T06:55:35Z</time></trkpt><trkpt lat="43.53113106368142" lon="10.62619820972505"><ele>117.0</ele><time>2026-04-18T06:55:36Z</time></trkpt><trkpt lat="43.531209325346296" lon="10.62622773439598"><ele>118.33333333333333</ele><time>2026-04-18T06:55:37Z</time></trkpt><trkpt lat="43.53128969256242" lon="10.62625864435999"><ele>119.66666666666666</ele><time>2026-04-18T06:55:38Z</time></trkpt><trkpt lat="43.531370530058744" lon="10.626280438706816"><ele>121.0</ele><time>2026-04-18T06:55:39Z</time></trkpt><trkpt lat="43.531445633859285" lon="10.62629701295562"><ele>122.33333333333333</ele><time>2026-04-18T06:55:40Z</time></trkpt><trkpt lat="43.53152834999232" lon="10.626306751852026"><ele>123.66666666666666</ele><time>2026-04-18T06:55:41Z</time></trkpt><trkpt lat="43.53161519756651" lon="10.626319593468807"><ele>125.0</ele><time>2026-04-18T06:55:42Z</time></trkpt><trkpt lat="43.53171874162148" lon="10.626328101095075"><ele>125.0</ele><time>2026-04-18T06:55:43Z</time></trkpt><trkpt lat="43.531813016072014" lon="10.626342573262797"><ele>125.0</ele><time>2026-04-18T06:55:44Z</time></trkpt><trkpt lat="43.5318899219537" lon="10.626369333099735"><ele>125.0</ele><time>2026-04-18T06:55:45Z</time></trkpt><trkpt lat="43.531969013397365" lon="10.6264039727489"><ele>125.0</ele><time>2026-04-18T06:55:46Z</time></trkpt><trkpt lat="43.532046832973435" lon="10.626440444723414"><ele>125.0</ele><time>2026-04-18T06:55:47Z</time></trkpt><trkpt lat="43.532161163626654" lon="10.626490242808012"><ele>124.99999999999999</ele><time>2026-04-18T06:55:49Z</time></trkpt><trkpt lat="43.532278178872254" lon="10.626519248582499"><ele>125.0</ele><time>2026-04-18T06:55:51Z</time></trkpt><trkpt lat="43.532352925787805" lon="10.626554828764645"><ele>125.0</ele><time>2026-04-18T06:55:53Z</time></trkpt><trkpt lat="43.532426450855745" lon="10.62659688397602"><ele>125.0</ele><time>2026-04-18T06:55:57Z</time></trkpt><trkpt lat="43.532473212418985" lon="10.626701837968852"><ele>124.99999999999999</ele><time>2026-04-18T06:56:00Z</time></trkpt><trkpt lat="43.532532458145454" lon="10.626743516204202"><ele>125.0</ele><time>2026-04-18T06:56:09.001Z</time></trkpt><trkpt lat="43.532580672276225" lon="10.626799666059869"><ele>124.99999999999999</ele><time>2026-04-18T06:56:12.001Z</time></trkpt><trkpt lat="43.53264536522177" lon="10.6268571395515"><ele>125.0</ele><time>2026-04-18T06:56:14.001Z</time></trkpt><trkpt lat="43.532716341781224" lon="10.626874403292906"><ele>125.0</ele><time>2026-04-18T06:56:17.001Z</time></trkpt><trkpt lat="43.532782382191726" lon="10.626890756809658"><ele>125.0</ele><time>2026-04-18T06:56:20.001Z</time></trkpt><trkpt lat="43.53285004366457" lon="10.626907276779542"><ele>124.99999999999999</ele><time>2026-04-18T06:56:23.001Z</time></trkpt><trkpt lat="43.53293209206784" lon="10.626917668749824"><ele>125.0</ele><time>2026-04-18T06:56:28.001Z</time></trkpt><trkpt lat="43.53301287128738" lon="10.626953254545356"><ele>124.2</ele><time>2026-04-18T06:56:30.001Z</time></trkpt><trkpt lat="43.53310107114782" lon="10.626970866175457"><ele>123.4</ele><time>2026-04-18T06:56:32.001Z</time></trkpt><trkpt lat="43.533217149845775" lon="10.626966375798768"><ele>122.6</ele><time>2026-04-18T06:56:34.001Z</time></trkpt><trkpt lat="43.533327931670435" lon="10.626961543981915"><ele>121.8</ele><time>2026-04-18T06:56:36.001Z</time></trkpt><trkpt lat="43.533427926934635" lon="10.626956131912122"><ele>121.0</ele><time>2026-04-18T06:56:38.001Z</time></trkpt><trkpt lat="43.53351860503817" lon="10.626937360769412"><ele>121.0</ele><time>2026-04-18T06:56:40.001Z</time></trkpt><trkpt lat="43.53362641455051" lon="10.626851849600959"><ele>121.0</ele><time>2026-04-18T06:56:42.001Z</time></trkpt><trkpt lat="43.53368422424438" lon="10.62680118862487"><ele>121.0</ele><time>2026-04-18T06:56:43.001Z</time></trkpt><trkpt lat="43.53374714358088" lon="10.626747774250179"><ele>121.0</ele><time>2026-04-18T06:56:44.001Z</time></trkpt><trkpt lat="43.53386035353287" lon="10.626674187058304"><ele>121.0</ele><time>2026-04-18T06:56:46.001Z</time></trkpt><trkpt lat="43.53391832648608" lon="10.62664022939115"><ele>121.4</ele><time>2026-04-18T06:56:47.001Z</time></trkpt><trkpt lat="43.53402588153985" lon="10.626542424602846"><ele>121.8</ele><time>2026-04-18T06:56:49.001Z</time></trkpt><trkpt lat="43.534075300843504" lon="10.626473728914146"><ele>122.20000000000002</ele><time>2026-04-18T06:56:50.001Z</time></trkpt><trkpt lat="43.53411832733403" lon="10.626405751388287"><ele>122.60000000000001</ele><time>2026-04-18T06:56:51.001Z</time></trkpt><trkpt lat="43.53418912093146" lon="10.626278294149396"><ele>123.0</ele><time>2026-04-18T06:56:53.001Z</time></trkpt><trkpt lat="43.53426176809103" lon="10.626158707531927"><ele>122.5</ele><time>2026-04-18T06:56:55.001Z</time></trkpt><trkpt lat="43.53432685714643" lon="10.626029306670494"><ele>122.0</ele><time>2026-04-18T06:56:57.001Z</time></trkpt><trkpt lat="43.534367307768335" lon="10.625946557379786"><ele>121.5</ele><time>2026-04-18T06:56:58.001Z</time></trkpt><trkpt lat="43.53440846074811" lon="10.62587087507221"><ele>121.0</ele><time>2026-04-18T06:56:59.001Z</time></trkpt><trkpt lat="43.53444823927509" lon="10.625798448236349"><ele>120.5</ele><time>2026-04-18T06:57:00.001Z</time></trkpt><trkpt lat="43.53448658069835" lon="10.625725228778888"><ele>120.0</ele><time>2026-04-18T06:57:01Z</time></trkpt><trkpt lat="43.534536441850534" lon="10.625666983573169"><ele>119.28571428571429</ele><time>2026-04-18T06:57:02Z</time></trkpt><trkpt lat="43.53459379421099" lon="10.625608215676223"><ele>118.57142857142856</ele><time>2026-04-18T06:57:03Z</time></trkpt><trkpt lat="43.53464953798587" lon="10.62556605657071"><ele>117.85714285714285</ele><time>2026-04-18T06:57:04Z</time></trkpt><trkpt lat="43.53475711390434" lon="10.625494906835273"><ele>117.14285714285714</ele><time>2026-04-18T06:57:06Z</time></trkpt><trkpt lat="43.53481563745497" lon="10.625461807823806"><ele>116.42857142857142</ele><time>2026-04-18T06:57:07Z</time></trkpt><trkpt lat="43.53487619968534" lon="10.625431554662374"><ele>115.7142857142857</ele><time>2026-04-18T06:57:08Z</time></trkpt><trkpt lat="43.53493582568468" lon="10.625389539577132"><ele>114.99999999999999</ele><time>2026-04-18T06:57:09Z</time></trkpt><trkpt lat="43.534994287531205" lon="10.625346498864284"><ele>114.99999999999999</ele><time>2026-04-18T06:57:10Z</time></trkpt><trkpt lat="43.53505584943136" lon="10.625314400274583"><ele>115.0</ele><time>2026-04-18T06:57:11Z</time></trkpt><trkpt lat="43.535117020808975" lon="10.625270860167653"><ele>114.99999999999999</ele><time>2026-04-18T06:57:12Z</time></trkpt><trkpt lat="43.53517657340498" lon="10.625229122682706"><ele>114.99999999999999</ele><time>2026-04-18T06:57:13Z</time></trkpt><trkpt lat="43.535236685080605" lon="10.625186951286487"><ele>115.0</ele><time>2026-04-18T06:57:14Z</time></trkpt><trkpt lat="43.53529990129227" lon="10.625138253482408"><ele>114.99999999999999</ele><time>2026-04-18T06:57:15Z</time></trkpt><trkpt lat="43.53536573093149" lon="10.625092216171883"><ele>114.99999999999999</ele><time>2026-04-18T06:57:16Z</time></trkpt><trkpt lat="43.53542326238413" lon="10.625056713135494"><ele>113.8</ele><time>2026-04-18T06:57:17Z</time></trkpt><trkpt lat="43.53553897201451" lon="10.624990949334478"><ele>112.6</ele><time>2026-04-18T06:57:19Z</time></trkpt><trkpt lat="43.53565358801698" lon="10.624947766498167"><ele>111.4</ele><time>2026-04-18T06:57:21Z</time></trkpt><trkpt lat="43.53576690187612" lon="10.624910610237775"><ele>110.2</ele><time>2026-04-18T06:57:23Z</time></trkpt><trkpt lat="43.5358329940467" lon="10.624886214795715"><ele>109.0</ele><time>2026-04-18T06:57:24Z</time></trkpt><trkpt lat="43.53590927745579" lon="10.62487153661924"><ele>109.00000000000001</ele><time>2026-04-18T06:57:25Z</time></trkpt><trkpt lat="43.53597563380283" lon="10.624871479695425"><ele>109.0</ele><time>2026-04-18T06:57:26Z</time></trkpt><trkpt lat="43.53604076929676" lon="10.624894705110284"><ele>109.0</ele><time>2026-04-18T06:57:27Z</time></trkpt><trkpt lat="43.53609856419259" lon="10.624929761436535"><ele>109.0</ele><time>2026-04-18T06:57:28Z</time></trkpt><trkpt lat="43.53621731575587" lon="10.624977612413838"><ele>109.00000000000001</ele><time>2026-04-18T06:57:30Z</time></trkpt><trkpt lat="43.53628348039458" lon="10.624985158468032"><ele>109.0</ele><time>2026-04-18T06:57:31Z</time></trkpt><trkpt lat="43.53634828293273" lon="10.625004419810077"><ele>108.16666666666667</ele><time>2026-04-18T06:57:32Z</time></trkpt><trkpt lat="43.53642398597485" lon="10.625013459958558"><ele>107.33333333333334</ele><time>2026-04-18T06:57:33Z</time></trkpt><trkpt lat="43.53649905899067" lon="10.625020708264664"><ele>106.5</ele><time>2026-04-18T06:57:34Z</time></trkpt><trkpt lat="43.536573224732386" lon="10.62502952285592"><ele>105.66666666666666</ele><time>2026-04-18T06:57:35Z</time></trkpt><trkpt lat="43.53663786639528" lon="10.625039553894057"><ele>104.83333333333333</ele><time>2026-04-18T06:57:36Z</time></trkpt><trkpt lat="43.53676438987479" lon="10.625077265958039"><ele>104.0</ele><time>2026-04-18T06:57:38Z</time></trkpt><trkpt lat="43.53682988908531" lon="10.625104773510692"><ele>104.0</ele><time>2026-04-18T06:57:39Z</time></trkpt><trkpt lat="43.536948301086596" lon="10.625148016665484"><ele>104.0</ele><time>2026-04-18T06:57:41Z</time></trkpt><trkpt lat="43.53706216402206" lon="10.625178023348838"><ele>104.0</ele><time>2026-04-18T06:57:43Z</time></trkpt><trkpt lat="43.53712496400598" lon="10.625189569192685"><ele>104.0</ele><time>2026-04-18T06:57:44Z</time></trkpt><trkpt lat="43.537233560141836" lon="10.625233867656664"><ele>104.0</ele><time>2026-04-18T06:57:46Z</time></trkpt><trkpt lat="43.53735968498776" lon="10.62525511901751"><ele>103.16666666666666</ele><time>2026-04-18T06:57:48Z</time></trkpt><trkpt lat="43.53743193283564" lon="10.625278591067477"><ele>102.33333333333333</ele><time>2026-04-18T06:57:49Z</time></trkpt><trkpt lat="43.53750026189839" lon="10.625304480288932"><ele>101.5</ele><time>2026-04-18T06:57:50.001Z</time></trkpt><trkpt lat="43.537606348726015" lon="10.625347270685955"><ele>100.66666666666666</ele><time>2026-04-18T06:57:52.001Z</time></trkpt><trkpt lat="43.53767394701499" lon="10.625385766646952"><ele>99.83333333333333</ele><time>2026-04-18T06:57:54.001Z</time></trkpt><trkpt lat="43.537760909186" lon="10.625420531800282"><ele>99.0</ele><time>2026-04-18T06:57:56.001Z</time></trkpt><trkpt lat="43.53783984938599" lon="10.625465043833223"><ele>99.33333333333333</ele><time>2026-04-18T06:57:58.001Z</time></trkpt><trkpt lat="43.537914106605136" lon="10.625458067168918"><ele>99.66666666666666</ele><time>2026-04-18T06:58:02.001Z</time></trkpt><trkpt lat="43.53798190828455" lon="10.625457504378286"><ele>100.0</ele><time>2026-04-18T06:58:05.001Z</time></trkpt><trkpt lat="43.53808439166944" lon="10.625462341562509"><ele>100.33333333333333</ele><time>2026-04-18T06:58:07.001Z</time></trkpt><trkpt lat="43.53818241526579" lon="10.62545271613118"><ele>100.66666666666666</ele><time>2026-04-18T06:58:09.001Z</time></trkpt><trkpt lat="43.538274124770304" lon="10.6254050302079"><ele>101.0</ele><time>2026-04-18T06:58:11.001Z</time></trkpt><trkpt lat="43.53834080761026" lon="10.625347259927242"><ele>101.16666666666666</ele><time>2026-04-18T06:58:13.001Z</time></trkpt><trkpt lat="43.53840758270005" lon="10.625282051005323"><ele>101.33333333333333</ele><time>2026-04-18T06:58:15.001Z</time></trkpt><trkpt lat="43.538486038105724" lon="10.625199467371417"><ele>101.5</ele><time>2026-04-18T06:58:17.001Z</time></trkpt><trkpt lat="43.53853822408138" lon="10.625126204216185"><ele>101.66666666666666</ele><time>2026-04-18T06:58:19.001Z</time></trkpt><trkpt lat="43.53859615710558" lon="10.625047979232296"><ele>101.83333333333333</ele><time>2026-04-18T06:58:24.001Z</time></trkpt><trkpt lat="43.538653306075034" lon="10.624965439978936"><ele>102.0</ele><time>2026-04-18T06:58:26.001Z</time></trkpt><trkpt lat="43.53870285081371" lon="10.62489710355265"><ele>103.33333333333333</ele><time>2026-04-18T06:58:28.001Z</time></trkpt><trkpt lat="43.538749656583526" lon="10.624820718597032"><ele>104.66666666666666</ele><time>2026-04-18T06:58:30.001Z</time></trkpt><trkpt lat="43.53880196146498" lon="10.62473607575441"><ele>106.0</ele><time>2026-04-18T06:58:32.001Z</time></trkpt><trkpt lat="43.53886372906138" lon="10.624651326215178"><ele>107.33333333333333</ele><time>2026-04-18T06:58:34.001Z</time></trkpt><trkpt lat="43.53892902127042" lon="10.624555172949062"><ele>108.66666666666666</ele><time>2026-04-18T06:58:36.001Z</time></trkpt><trkpt lat="43.5390009670928" lon="10.624465065928193"><ele>110.0</ele><time>2026-04-18T06:58:38.001Z</time></trkpt><trkpt lat="43.53906492173664" lon="10.624393888171078"><ele>109.99999999999999</ele><time>2026-04-18T06:58:40.001Z</time></trkpt><trkpt lat="43.539120314870885" lon="10.624314693385308"><ele>110.0</ele><time>2026-04-18T06:58:44.001Z</time></trkpt><trkpt lat="43.53916483582037" lon="10.624240070487899"><ele>110.0</ele><time>2026-04-18T06:58:46.002Z</time></trkpt><trkpt lat="43.53920691832495" lon="10.624147575295257"><ele>110.0</ele><time>2026-04-18T06:58:49.002Z</time></trkpt><trkpt lat="43.53924897559834" lon="10.624082662081548"><ele>110.0</ele><time>2026-04-18T06:58:56.002Z</time></trkpt><trkpt lat="43.539277050551995" lon="10.62399753678704"><ele>109.99999999999999</ele><time>2026-04-18T06:59:02.002Z</time></trkpt><trkpt lat="43.53932423663657" lon="10.623933868391637"><ele>110.0</ele><time>2026-04-18T06:59:06.002Z</time></trkpt><trkpt lat="43.539392827430135" lon="10.62387489718758"><ele>110.0</ele><time>2026-04-18T06:59:26Z</time></trkpt><trkpt lat="43.53945753810999" lon="10.623858140527826"><ele>110.0</ele><time>2026-04-18T07:00:00.001Z</time></trkpt><trkpt lat="43.53952766409135" lon="10.623867197212872"><ele>110.0</ele><time>2026-04-18T07:00:11.001Z</time></trkpt><trkpt lat="43.539593267733025" lon="10.623932123518085"><ele>110.0</ele><time>2026-04-18T07:00:27.001Z</time></trkpt><trkpt lat="43.53967674972535" lon="10.62402383254986"><ele>110.0</ele><time>2026-04-18T07:00:29.001Z</time></trkpt><trkpt lat="43.53977857692113" lon="10.624136041817215"><ele>110.28571428571428</ele><time>2026-04-18T07:00:31.001Z</time></trkpt><trkpt lat="43.53981540165828" lon="10.624231111992959"><ele>110.57142857142857</ele><time>2026-04-18T07:00:32.001Z</time></trkpt><trkpt lat="43.53985745578395" lon="10.624302640666091"><ele>110.85714285714286</ele><time>2026-04-18T07:00:33.001Z</time></trkpt><trkpt lat="43.5399127006555" lon="10.62434965871584"><ele>111.14285714285714</ele><time>2026-04-18T07:00:34.001Z</time></trkpt><trkpt lat="43.539966028206635" lon="10.62442714169769"><ele>111.42857142857143</ele><time>2026-04-18T07:00:35.001Z</time></trkpt><trkpt lat="43.5400274317404" lon="10.6244988484925"><ele>111.71428571428571</ele><time>2026-04-18T07:00:36.001Z</time></trkpt><trkpt lat="43.54008813573774" lon="10.624560604135853"><ele>112.0</ele><time>2026-04-18T07:00:37.001Z</time></trkpt><trkpt lat="43.54014678258131" lon="10.62462488833792"><ele>112.00000000000001</ele><time>2026-04-18T07:00:38.001Z</time></trkpt><trkpt lat="43.540211954610115" lon="10.624691412875345"><ele>112.0</ele><time>2026-04-18T07:00:39.001Z</time></trkpt><trkpt lat="43.54027371545271" lon="10.62477284908841"><ele>112.0</ele><time>2026-04-18T07:00:40.001Z</time></trkpt><trkpt lat="43.540324572547526" lon="10.624848711698482"><ele>112.0</ele><time>2026-04-18T07:00:41.001Z</time></trkpt><trkpt lat="43.54036536033872" lon="10.62499797826372"><ele>112.00000000000001</ele><time>2026-04-18T07:00:43.001Z</time></trkpt><trkpt lat="43.540367042207386" lon="10.6250921898345"><ele>112.0</ele><time>2026-04-18T07:00:44.001Z</time></trkpt><trkpt lat="43.540361018711536" lon="10.625192068789376"><ele>111.00000000000001</ele><time>2026-04-18T07:00:45.002Z</time></trkpt><trkpt lat="43.54037900303793" lon="10.625346923164757"><ele>110.0</ele><time>2026-04-18T07:00:47.002Z</time></trkpt><trkpt lat="43.540411081741084" lon="10.625423026568315"><ele>109.0</ele><time>2026-04-18T07:00:48.002Z</time></trkpt><trkpt lat="43.54045522512724" lon="10.625563198354216"><ele>108.0</ele><time>2026-04-18T07:00:50.002Z</time></trkpt><trkpt lat="43.540507341141854" lon="10.625658933473188"><ele>107.00000000000001</ele><time>2026-04-18T07:00:52.002Z</time></trkpt><trkpt lat="43.540516922902306" lon="10.625751334500936"><ele>106.0</ele><time>2026-04-18T07:00:55.002Z</time></trkpt><trkpt lat="43.54050136278792" lon="10.62586245428843"><ele>106.0</ele><time>2026-04-18T07:00:58.002Z</time></trkpt><trkpt lat="43.540382194441285" lon="10.625848159027226"><ele>106.0</ele><time>2026-04-18T07:00:59.002Z</time></trkpt><trkpt lat="43.54028597864265" lon="10.625922880055354"><ele>106.0</ele><time>2026-04-18T07:01:01.002Z</time></trkpt><trkpt lat="43.540218219308215" lon="10.625978621696662"><ele>106.0</ele><time>2026-04-18T07:01:02.002Z</time></trkpt><trkpt lat="43.54016090240809" lon="10.626028521151085"><ele>106.0</ele><time>2026-04-18T07:01:03.002Z</time></trkpt><trkpt lat="43.54010721362489" lon="10.626102389282217"><ele>106.0</ele><time>2026-04-18T07:01:05.002Z</time></trkpt><trkpt lat="43.540039839088465" lon="10.626152603450743"><ele>106.0</ele><time>2026-04-18T07:01:20Z</time></trkpt><trkpt lat="43.54011628414016" lon="10.626068663270349"><ele>106.0</ele><time>2026-04-18T07:01:26Z</time></trkpt><trkpt lat="43.54017507424216" lon="10.62601574534303"><ele>106.0</ele><time>2026-04-18T07:01:27Z</time></trkpt><trkpt lat="43.54023743293788" lon="10.625962815759019"><ele>106.0</ele><time>2026-04-18T07:01:28Z</time></trkpt><trkpt lat="43.54035144638315" lon="10.625869023563672"><ele>104.0</ele><time>2026-04-18T07:01:30Z</time></trkpt><trkpt lat="43.54041012005611" lon="10.625826734007347"><ele>102.0</ele><time>2026-04-18T07:01:31Z</time></trkpt><trkpt lat="43.540476092983006" lon="10.625776118502541"><ele>100.0</ele><time>2026-04-18T07:01:33Z</time></trkpt><trkpt lat="43.540537326766604" lon="10.625733267337665"><ele>98.0</ele><time>2026-04-18T07:01:35Z</time></trkpt><trkpt lat="43.54066455728484" lon="10.625828290176226"><ele>96.0</ele><time>2026-04-18T07:01:37Z</time></trkpt><trkpt lat="43.540776925364796" lon="10.625850074061074"><ele>96.0</ele><time>2026-04-18T07:01:39Z</time></trkpt><trkpt lat="43.54085994245866" lon="10.625859043340558"><ele>96.0</ele><time>2026-04-18T07:01:41Z</time></trkpt><trkpt lat="43.540928383996444" lon="10.625869248855468"><ele>96.0</ele><time>2026-04-18T07:01:43Z</time></trkpt><trkpt lat="43.54100494905776" lon="10.625859459947538"><ele>96.0</ele><time>2026-04-18T07:01:46.001Z</time></trkpt><trkpt lat="43.54105893692503" lon="10.62580638254533"><ele>96.0</ele><time>2026-04-18T07:01:48.001Z</time></trkpt><trkpt lat="43.541123622496634" lon="10.625740457728382"><ele>96.0</ele><time>2026-04-18T07:01:50.001Z</time></trkpt><trkpt lat="43.54119851062368" lon="10.625673398774044"><ele>94.8</ele><time>2026-04-18T07:01:52.001Z</time></trkpt><trkpt lat="43.541295534310585" lon="10.625626216991462"><ele>93.6</ele><time>2026-04-18T07:01:54.001Z</time></trkpt><trkpt lat="43.54138558784608" lon="10.625601561204785"><ele>92.4</ele><time>2026-04-18T07:01:56.001Z</time></trkpt><trkpt lat="43.541482833930104" lon="10.625601510310927"><ele>91.2</ele><time>2026-04-18T07:01:58.001Z</time></trkpt><trkpt lat="43.5415963362078" lon="10.625646288111808"><ele>90.0</ele><time>2026-04-18T07:02:00.001Z</time></trkpt><trkpt lat="43.54169436718841" lon="10.625719227590453"><ele>90.0</ele><time>2026-04-18T07:02:02.001Z</time></trkpt><trkpt lat="43.54178718616873" lon="10.625796919439628"><ele>90.0</ele><time>2026-04-18T07:02:04.001Z</time></trkpt><trkpt lat="43.541853202692195" lon="10.625864439710128"><ele>90.0</ele><time>2026-04-18T07:02:06.001Z</time></trkpt><trkpt lat="43.54192491715936" lon="10.625939786806239"><ele>90.0</ele><time>2026-04-18T07:02:08.001Z</time></trkpt><trkpt lat="43.54191719957738" lon="10.626049765115665"><ele>90.0</ele><time>2026-04-18T07:02:10.001Z</time></trkpt><trkpt lat="43.541861711549316" lon="10.626170818896925"><ele>88.4</ele><time>2026-04-18T07:02:12.001Z</time></trkpt><trkpt lat="43.54179712879797" lon="10.626306088901174"><ele>86.8</ele><time>2026-04-18T07:02:14.001Z</time></trkpt><trkpt lat="43.541747476958314" lon="10.626415491982039"><ele>85.19999999999999</ele><time>2026-04-18T07:02:16.001Z</time></trkpt><trkpt lat="43.541734897277095" lon="10.626541532270343"><ele>83.6</ele><time>2026-04-18T07:02:18.001Z</time></trkpt><trkpt lat="43.54176888554828" lon="10.626659127157167"><ele>82.0</ele><time>2026-04-18T07:02:20.001Z</time></trkpt><trkpt lat="43.54180218271745" lon="10.626733249773821"><ele>82.0</ele><time>2026-04-18T07:02:21.001Z</time></trkpt><trkpt lat="43.54183627766143" lon="10.626818027559718"><ele>82.0</ele><time>2026-04-18T07:02:22.001Z</time></trkpt><trkpt lat="43.54186449997666" lon="10.626898904406092"><ele>82.0</ele><time>2026-04-18T07:02:23.001Z</time></trkpt><trkpt lat="43.541927409431075" lon="10.62707045410408"><ele>82.0</ele><time>2026-04-18T07:02:25.001Z</time></trkpt><trkpt lat="43.54196288617922" lon="10.627154879304895"><ele>82.0</ele><time>2026-04-18T07:02:26.001Z</time></trkpt><trkpt lat="43.54200411968796" lon="10.627253498343526"><ele>82.0</ele><time>2026-04-18T07:02:27.001Z</time></trkpt><trkpt lat="43.542049308023074" lon="10.627363339791774"><ele>80.16666666666666</ele><time>2026-04-18T07:02:28.001Z</time></trkpt><trkpt lat="43.5420929925848" lon="10.627467551050367"><ele>78.33333333333333</ele><time>2026-04-18T07:02:29.001Z</time></trkpt><trkpt lat="43.542134566348146" lon="10.627569973626999"><ele>76.5</ele><time>2026-04-18T07:02:30.001Z</time></trkpt><trkpt lat="43.542175597150234" lon="10.62766638565689"><ele>74.66666666666667</ele><time>2026-04-18T07:02:31.001Z</time></trkpt><trkpt lat="43.542219681580896" lon="10.627756212843378"><ele>72.83333333333334</ele><time>2026-04-18T07:02:32.001Z</time></trkpt><trkpt lat="43.542266615792165" lon="10.627849469536113"><ele>71.0</ele><time>2026-04-18T07:02:33.001Z</time></trkpt><trkpt lat="43.54230737496338" lon="10.627949961512549"><ele>69.16666666666667</ele><time>2026-04-18T07:02:34.001Z</time></trkpt><trkpt lat="43.54234614176814" lon="10.62804504157333"><ele>67.33333333333334</ele><time>2026-04-18T07:02:35.001Z</time></trkpt><trkpt lat="43.54238883317083" lon="10.628140103852497"><ele>65.5</ele><time>2026-04-18T07:02:36.001Z</time></trkpt><trkpt lat="43.54243420278724" lon="10.628238500396934"><ele>63.66666666666667</ele><time>2026-04-18T07:02:37.001Z</time></trkpt><trkpt lat="43.54247742331755" lon="10.62832751469409"><ele>61.833333333333336</ele><time>2026-04-18T07:02:38.001Z</time></trkpt><trkpt lat="43.54251934598026" lon="10.628418104841993"><ele>60.0</ele><time>2026-04-18T07:02:39.001Z</time></trkpt><trkpt lat="43.54256252844098" lon="10.628510802251583"><ele>60.0</ele><time>2026-04-18T07:02:40.001Z</time></trkpt><trkpt lat="43.54260466366757" lon="10.62857691129414"><ele>60.0</ele><time>2026-04-18T07:02:41.001Z</time></trkpt><trkpt lat="43.542670910375406" lon="10.628670503108614"><ele>60.0</ele><time>2026-04-18T07:02:43.001Z</time></trkpt><trkpt lat="43.54267267457893" lon="10.6287602071266"><ele>60.0</ele><time>2026-04-18T07:02:45.002Z</time></trkpt><trkpt lat="43.542602142156134" lon="10.628837715212631"><ele>60.0</ele><time>2026-04-18T07:02:47.002Z</time></trkpt><trkpt lat="43.54253962456844" lon="10.628912730584508"><ele>60.0</ele><time>2026-04-18T07:02:48.002Z</time></trkpt><trkpt lat="43.54247586987378" lon="10.629001343544342"><ele>59.0</ele><time>2026-04-18T07:02:49.002Z</time></trkpt><trkpt lat="43.5424173759448" lon="10.629090221294057"><ele>58.0</ele><time>2026-04-18T07:02:50.002Z</time></trkpt><trkpt lat="43.54235731995318" lon="10.629180562937872"><ele>57.0</ele><time>2026-04-18T07:02:51.002Z</time></trkpt><trkpt lat="43.54229984773337" lon="10.62925354536268"><ele>56.0</ele><time>2026-04-18T07:02:52.002Z</time></trkpt><trkpt lat="43.542233990901316" lon="10.6293345341461"><ele>55.0</ele><time>2026-04-18T07:02:53.002Z</time></trkpt><trkpt lat="43.54215265546679" lon="10.629437597018079"><ele>54.6</ele><time>2026-04-18T07:02:54.002Z</time></trkpt><trkpt lat="43.542066325922555" lon="10.629552568776912"><ele>54.2</ele><time>2026-04-18T07:02:55.002Z</time></trkpt><trkpt lat="43.54198691458614" lon="10.629656636374499"><ele>53.8</ele><time>2026-04-18T07:02:56.002Z</time></trkpt><trkpt lat="43.54192240684559" lon="10.629736397940778"><ele>53.4</ele><time>2026-04-18T07:02:57.002Z</time></trkpt><trkpt lat="43.54186595548036" lon="10.629807017665051"><ele>53.0</ele><time>2026-04-18T07:02:58.002Z</time></trkpt><trkpt lat="43.541805569228096" lon="10.62986368449679"><ele>53.0</ele><time>2026-04-18T07:02:59.002Z</time></trkpt><trkpt lat="43.54171898472534" lon="10.629951586388753"><ele>53.0</ele><time>2026-04-18T07:03:01.002Z</time></trkpt><trkpt lat="43.541664656985475" lon="10.63004221685699"><ele>53.0</ele><time>2026-04-18T07:03:03.002Z</time></trkpt><trkpt lat="43.5416085709226" lon="10.630155496962345"><ele>53.0</ele><time>2026-04-18T07:03:05.002Z</time></trkpt><trkpt lat="43.54152604499051" lon="10.630267593379271"><ele>53.0</ele><time>2026-04-18T07:03:07.002Z</time></trkpt><trkpt lat="43.54145802139445" lon="10.630399135497138"><ele>53.00000000000001</ele><time>2026-04-18T07:03:09.002Z</time></trkpt><trkpt lat="43.54141993915819" lon="10.630486589317814"><ele>53.0</ele><time>2026-04-18T07:03:10.002Z</time></trkpt><trkpt lat="43.54137595224437" lon="10.630577743434987"><ele>53.0</ele><time>2026-04-18T07:03:11.002Z</time></trkpt><trkpt lat="43.541337164316204" lon="10.630664097364026"><ele>53.0</ele><time>2026-04-18T07:03:12.002Z</time></trkpt><trkpt lat="43.54129423639659" lon="10.630758588661639"><ele>53.00000000000001</ele><time>2026-04-18T07:03:13.002Z</time></trkpt><trkpt lat="43.54124745721675" lon="10.630863643458438"><ele>53.0</ele><time>2026-04-18T07:03:14.002Z</time></trkpt><trkpt lat="43.54120190693298" lon="10.6309732219379"><ele>53.0</ele><time>2026-04-18T07:03:15.002Z</time></trkpt><trkpt lat="43.54115792651294" lon="10.631080206573108"><ele>53.0</ele><time>2026-04-18T07:03:16.002Z</time></trkpt><trkpt lat="43.54110894443562" lon="10.631190988239723"><ele>53.0</ele><time>2026-04-18T07:03:17.002Z</time></trkpt><trkpt lat="43.54106083730744" lon="10.631320302018224"><ele>53.0</ele><time>2026-04-18T07:03:18.002Z</time></trkpt><trkpt lat="43.541015267787664" lon="10.631453746797137"><ele>53.0</ele><time>2026-04-18T07:03:19Z</time></trkpt><trkpt lat="43.54096325327089" lon="10.631589818708829"><ele>53.0</ele><time>2026-04-18T07:03:20Z</time></trkpt><trkpt lat="43.540904391564105" lon="10.63172016937713"><ele>53.0</ele><time>2026-04-18T07:03:21Z</time></trkpt><trkpt lat="43.540806286456586" lon="10.63181738530625"><ele>53.0</ele><time>2026-04-18T07:03:22Z</time></trkpt><trkpt lat="43.54073544482307" lon="10.631959726619248"><ele>53.0</ele><time>2026-04-18T07:03:23Z</time></trkpt><trkpt lat="43.54067800195814" lon="10.632114809695597"><ele>53.25</ele><time>2026-04-18T07:03:24Z</time></trkpt><trkpt lat="43.540628966546514" lon="10.632268138241601"><ele>53.5</ele><time>2026-04-18T07:03:25Z</time></trkpt><trkpt lat="43.54055105825446" lon="10.632404882785641"><ele>53.75</ele><time>2026-04-18T07:03:26Z</time></trkpt><trkpt lat="43.5404681477752" lon="10.632569085770024"><ele>54.0</ele><time>2026-04-18T07:03:27Z</time></trkpt><trkpt lat="43.54038675816383" lon="10.632760295315887"><ele>55.5</ele><time>2026-04-18T07:03:28Z</time></trkpt><trkpt lat="43.54029019069678" lon="10.632945273497933"><ele>57.0</ele><time>2026-04-18T07:03:29Z</time></trkpt><trkpt lat="43.54020298628788" lon="10.633123527326093"><ele>58.5</ele><time>2026-04-18T07:03:30Z</time></trkpt><trkpt lat="43.54012752785167" lon="10.63326441479502"><ele>60.0</ele><time>2026-04-18T07:03:31Z</time></trkpt><trkpt lat="43.54006579451475" lon="10.63338523532215"><ele>60.0</ele><time>2026-04-18T07:03:32Z</time></trkpt><trkpt lat="43.54001988489511" lon="10.633515372916658"><ele>60.0</ele><time>2026-04-18T07:03:33Z</time></trkpt><trkpt lat="43.539975920045485" lon="10.633666000832203"><ele>60.0</ele><time>2026-04-18T07:03:34Z</time></trkpt><trkpt lat="43.5398914693099" lon="10.633792440067243"><ele>60.0</ele><time>2026-04-18T07:03:35Z</time></trkpt><trkpt lat="43.53980660520254" lon="10.633938960198636"><ele>58.66666666666667</ele><time>2026-04-18T07:03:36Z</time></trkpt><trkpt lat="43.539718628884046" lon="10.634118236087206"><ele>57.333333333333336</ele><time>2026-04-18T07:03:37Z</time></trkpt><trkpt lat="43.539619722304884" lon="10.634281026810527"><ele>56.0</ele><time>2026-04-18T07:03:38Z</time></trkpt><trkpt lat="43.53952189438427" lon="10.634440074389353"><ele>56.0</ele><time>2026-04-18T07:03:39Z</time></trkpt><trkpt lat="43.539431923799" lon="10.634587088941846"><ele>56.0</ele><time>2026-04-18T07:03:40Z</time></trkpt><trkpt lat="43.539360790170434" lon="10.634725755789614"><ele>56.0</ele><time>2026-04-18T07:03:41Z</time></trkpt><trkpt lat="43.5392972972172" lon="10.634845700430263"><ele>56.0</ele><time>2026-04-18T07:03:42Z</time></trkpt><trkpt lat="43.539252671255014" lon="10.634955166614004"><ele>56.00000000000001</ele><time>2026-04-18T07:03:43Z</time></trkpt><trkpt lat="43.53919953159906" lon="10.635041894184482"><ele>56.0</ele><time>2026-04-18T07:03:44Z</time></trkpt><trkpt lat="43.539139518245065" lon="10.635105887768887"><ele>56.0</ele><time>2026-04-18T07:03:45Z</time></trkpt><trkpt lat="43.539065787731474" lon="10.635129550527548"><ele>56.0</ele><time>2026-04-18T07:03:46Z</time></trkpt><trkpt lat="43.53902102054934" lon="10.635233953598345"><ele>56.00000000000001</ele><time>2026-04-18T07:03:47Z</time></trkpt><trkpt lat="43.53897024354284" lon="10.635316770810329"><ele>56.0</ele><time>2026-04-18T07:03:48Z</time></trkpt><trkpt lat="43.53891179487631" lon="10.63542318986543"><ele>56.0</ele><time>2026-04-18T07:03:49Z</time></trkpt><trkpt lat="43.53885374664463" lon="10.635521283320108"><ele>55.99999999999999</ele><time>2026-04-18T07:03:50Z</time></trkpt><trkpt lat="43.53878317075391" lon="10.635609764346277"><ele>55.99999999999999</ele><time>2026-04-18T07:03:51Z</time></trkpt><trkpt lat="43.53872536015876" lon="10.635705433419037"><ele>56.0</ele><time>2026-04-18T07:03:52Z</time></trkpt><trkpt lat="43.538669104238004" lon="10.63580222420318"><ele>56.0</ele><time>2026-04-18T07:03:53Z</time></trkpt><trkpt lat="43.538619474329316" lon="10.635901066101084"><ele>56.599999999999994</ele><time>2026-04-18T07:03:54Z</time></trkpt><trkpt lat="43.53858028810798" lon="10.635990652602477"><ele>57.199999999999996</ele><time>2026-04-18T07:03:55Z</time></trkpt><trkpt lat="43.53855556786211" lon="10.636100485704365"><ele>57.800000000000004</ele><time>2026-04-18T07:03:56Z</time></trkpt><trkpt lat="43.538533450434564" lon="10.63622723343656"><ele>58.400000000000006</ele><time>2026-04-18T07:03:57Z</time></trkpt><trkpt lat="43.53851902417985" lon="10.636369130481468"><ele>59.0</ele><time>2026-04-18T07:03:58Z</time></trkpt><trkpt lat="43.538501091318714" lon="10.636502732190692"><ele>59.00000000000001</ele><time>2026-04-18T07:03:59Z</time></trkpt><trkpt lat="43.538491631080134" lon="10.636627846831006"><ele>59.0</ele><time>2026-04-18T07:04:00Z</time></trkpt><trkpt lat="43.53846466929724" lon="10.636730495330566"><ele>59.0</ele><time>2026-04-18T07:04:01Z</time></trkpt><trkpt lat="43.53843686686384" lon="10.636824926762037"><ele>59.0</ele><time>2026-04-18T07:04:02Z</time></trkpt><trkpt lat="43.538363628645605" lon="10.636922967528616"><ele>59.00000000000001</ele><time>2026-04-18T07:04:04Z</time></trkpt><trkpt lat="43.538332331650274" lon="10.637004828299707"><ele>59.0</ele><time>2026-04-18T07:04:07Z</time></trkpt><trkpt lat="43.5384179283902" lon="10.637149213000544"><ele>58.333333333333336</ele><time>2026-04-18T07:04:08.001Z</time></trkpt><trkpt lat="43.538465151979565" lon="10.637209987896448"><ele>57.66666666666667</ele><time>2026-04-18T07:04:11.001Z</time></trkpt><trkpt lat="43.538525741338454" lon="10.63728796400836"><ele>57.0</ele><time>2026-04-18T07:04:15.001Z</time></trkpt><trkpt lat="43.538585454715374" lon="10.637364812767329"><ele>56.33333333333333</ele><time>2026-04-18T07:04:19.001Z</time></trkpt><trkpt lat="43.53864362005853" lon="10.637440046490966"><ele>55.666666666666664</ele><time>2026-04-18T07:04:23.001Z</time></trkpt><trkpt lat="43.53870308502888" lon="10.637518193578197"><ele>55.0</ele><time>2026-04-18T07:04:26.001Z</time></trkpt><trkpt lat="43.53876604959283" lon="10.637600700903047"><ele>54.2</ele><time>2026-04-18T07:04:29.001Z</time></trkpt><trkpt lat="43.53885873272053" lon="10.637720774770603"><ele>53.4</ele><time>2026-04-18T07:04:31.001Z</time></trkpt><trkpt lat="43.53892031087531" lon="10.637800551182545"><ele>52.599999999999994</ele><time>2026-04-18T07:04:32.001Z</time></trkpt><trkpt lat="43.538989632019046" lon="10.637889271553105"><ele>51.8</ele><time>2026-04-18T07:04:33.001Z</time></trkpt><trkpt lat="43.53906776405246" lon="10.637987477257226"><ele>51.0</ele><time>2026-04-18T07:04:34.001Z</time></trkpt><trkpt lat="43.539161956283785" lon="10.638102398832336"><ele>51.0</ele><time>2026-04-18T07:04:35.001Z</time></trkpt><trkpt lat="43.53925782278309" lon="10.638217289232205"><ele>51.0</ele><time>2026-04-18T07:04:36.001Z</time></trkpt><trkpt lat="43.53935674699626" lon="10.638331980080933"><ele>51.0</ele><time>2026-04-18T07:04:37.001Z</time></trkpt><trkpt lat="43.53943776984944" lon="10.638421594290602"><ele>51.0</ele><time>2026-04-18T07:04:38.001Z</time></trkpt><trkpt lat="43.53951990183741" lon="10.638482028383343"><ele>51.0</ele><time>2026-04-18T07:04:39.001Z</time></trkpt><trkpt lat="43.53959716282042" lon="10.638558454319"><ele>51.0</ele><time>2026-04-18T07:04:40.001Z</time></trkpt><trkpt lat="43.53966476781552" lon="10.638635005101696"><ele>51.0</ele><time>2026-04-18T07:04:41.001Z</time></trkpt><trkpt lat="43.53971694996218" lon="10.638699802341307"><ele>51.0</ele><time>2026-04-18T07:04:42.001Z</time></trkpt><trkpt lat="43.539770533698345" lon="10.638766260169547"><ele>51.0</ele><time>2026-04-18T07:04:43.001Z</time></trkpt><trkpt lat="43.53983294000071" lon="10.638875949012428"><ele>51.0</ele><time>2026-04-18T07:04:44.001Z</time></trkpt><trkpt lat="43.539914718469745" lon="10.639013886477787"><ele>51.66666666666667</ele><time>2026-04-18T07:04:45.001Z</time></trkpt><trkpt lat="43.540018062903876" lon="10.639160055343332"><ele>52.333333333333336</ele><time>2026-04-18T07:04:46.001Z</time></trkpt><trkpt lat="43.54014103698887" lon="10.639305896957158"><ele>53.0</ele><time>2026-04-18T07:04:47.001Z</time></trkpt><trkpt lat="43.5402597118683" lon="10.639452446928585"><ele>53.25</ele><time>2026-04-18T07:04:48.001Z</time></trkpt><trkpt lat="43.540363995419256" lon="10.639579490337518"><ele>53.5</ele><time>2026-04-18T07:04:49.001Z</time></trkpt><trkpt lat="43.540458041882" lon="10.639704368619812"><ele>53.75</ele><time>2026-04-18T07:04:50.001Z</time></trkpt><trkpt lat="43.54055083603374" lon="10.639822811137146"><ele>54.0</ele><time>2026-04-18T07:04:51.001Z</time></trkpt><trkpt lat="43.5406228324001" lon="10.639909957277393"><ele>54.400000000000006</ele><time>2026-04-18T07:04:52.001Z</time></trkpt><trkpt lat="43.540669273531435" lon="10.639969766753879"><ele>54.800000000000004</ele><time>2026-04-18T07:04:53.001Z</time></trkpt><trkpt lat="43.5407309035994" lon="10.640051924612555"><ele>55.199999999999996</ele><time>2026-04-18T07:04:55.001Z</time></trkpt><trkpt lat="43.54078346680543" lon="10.640156652819966"><ele>55.599999999999994</ele><time>2026-04-18T07:04:57.001Z</time></trkpt><trkpt lat="43.54073847500234" lon="10.640306577812481"><ele>56.0</ele><time>2026-04-18T07:04:59.001Z</time></trkpt><trkpt lat="43.540678189786945" lon="10.640425983858282"><ele>56.0</ele><time>2026-04-18T07:05:00.001Z</time></trkpt><trkpt lat="43.540617858593976" lon="10.64057899693815"><ele>56.0</ele><time>2026-04-18T07:05:01.002Z</time></trkpt><trkpt lat="43.540528983270235" lon="10.640731218375228"><ele>56.0</ele><time>2026-04-18T07:05:02.002Z</time></trkpt><trkpt lat="43.540444508725216" lon="10.640911977876486"><ele>56.0</ele><time>2026-04-18T07:05:03.002Z</time></trkpt><trkpt lat="43.54033591608233" lon="10.64110231246218"><ele>56.66666666666667</ele><time>2026-04-18T07:05:04.002Z</time></trkpt><trkpt lat="43.540218076231405" lon="10.641307087041554"><ele>57.33333333333333</ele><time>2026-04-18T07:05:05.002Z</time></trkpt><trkpt lat="43.540081385537185" lon="10.641509015138745"><ele>58.0</ele><time>2026-04-18T07:05:06.002Z</time></trkpt><trkpt lat="43.539940349535236" lon="10.64172823193868"><ele>58.0</ele><time>2026-04-18T07:05:07.002Z</time></trkpt><trkpt lat="43.539774686936134" lon="10.64196451305038"><ele>58.0</ele><time>2026-04-18T07:05:08.002Z</time></trkpt><trkpt lat="43.53963181034904" lon="10.642184938809603"><ele>58.0</ele><time>2026-04-18T07:05:09.002Z</time></trkpt><trkpt lat="43.53945603748707" lon="10.642397451384346"><ele>58.0</ele><time>2026-04-18T07:05:10.002Z</time></trkpt><trkpt lat="43.539292328543716" lon="10.642619772936484"><ele>62.666666666666664</ele><time>2026-04-18T07:05:11.002Z</time></trkpt><trkpt lat="43.539140033169616" lon="10.642828937806906"><ele>67.33333333333333</ele><time>2026-04-18T07:05:12.002Z</time></trkpt><trkpt lat="43.53900974244767" lon="10.643049584809496"><ele>72.0</ele><time>2026-04-18T07:05:13.002Z</time></trkpt><trkpt lat="43.53888002250979" lon="10.643239303111068"><ele>72.0</ele><time>2026-04-18T07:05:14.002Z</time></trkpt><trkpt lat="43.53876077714991" lon="10.643440181506774"><ele>72.0</ele><time>2026-04-18T07:05:15.002Z</time></trkpt><trkpt lat="43.53864357194339" lon="10.643660987463516"><ele>72.0</ele><time>2026-04-18T07:05:16.002Z</time></trkpt><trkpt lat="43.53853198119125" lon="10.643898704589432"><ele>72.0</ele><time>2026-04-18T07:05:17.002Z</time></trkpt><trkpt lat="43.53841828729773" lon="10.644132613966448"><ele>72.0</ele><time>2026-04-18T07:05:18.002Z</time></trkpt><trkpt lat="43.53830507305436" lon="10.644360730409158"><ele>72.0</ele><time>2026-04-18T07:05:19.002Z</time></trkpt><trkpt lat="43.53820888931566" lon="10.644580555533304"><ele>72.0</ele><time>2026-04-18T07:05:20.002Z</time></trkpt><trkpt lat="43.53811239690587" lon="10.644762056827648"><ele>72.0</ele><time>2026-04-18T07:05:21.002Z</time></trkpt><trkpt lat="43.53804138958141" lon="10.644931381100198"><ele>72.0</ele><time>2026-04-18T07:05:22.002Z</time></trkpt><trkpt lat="43.5379806591671" lon="10.645103316739249"><ele>72.0</ele><time>2026-04-18T07:05:23.002Z</time></trkpt><trkpt lat="43.53794594450932" lon="10.64529034698868"><ele>73.25</ele><time>2026-04-18T07:05:24.002Z</time></trkpt><trkpt lat="43.53790429632139" lon="10.645490636369447"><ele>74.5</ele><time>2026-04-18T07:05:25Z</time></trkpt><trkpt lat="43.53785190786959" lon="10.645685197101164"><ele>75.75</ele><time>2026-04-18T07:05:26Z</time></trkpt><trkpt lat="43.53780462091725" lon="10.645852353568968"><ele>77.0</ele><time>2026-04-18T07:05:27Z</time></trkpt><trkpt lat="43.53773821306863" lon="10.64598880114769"><ele>74.5</ele><time>2026-04-18T07:05:28Z</time></trkpt><trkpt lat="43.53765611076486" lon="10.646124099234761"><ele>72.0</ele><time>2026-04-18T07:05:29Z</time></trkpt><trkpt lat="43.53755481413451" lon="10.6462411969254"><ele>69.5</ele><time>2026-04-18T07:05:30Z</time></trkpt><trkpt lat="43.537443666813644" lon="10.646340114154256"><ele>67.0</ele><time>2026-04-18T07:05:31Z</time></trkpt><trkpt lat="43.537305313609465" lon="10.646421701614507"><ele>67.0</ele><time>2026-04-18T07:05:32Z</time></trkpt><trkpt lat="43.53716172737281" lon="10.646468541795503"><ele>67.0</ele><time>2026-04-18T07:05:33Z</time></trkpt><trkpt lat="43.537014305341735" lon="10.64651017678308"><ele>67.0</ele><time>2026-04-18T07:05:34Z</time></trkpt><trkpt lat="43.53685204731182" lon="10.646485164070947"><ele>66.66666666666666</ele><time>2026-04-18T07:05:35Z</time></trkpt><trkpt lat="43.536679238894834" lon="10.646427498717628"><ele>66.33333333333333</ele><time>2026-04-18T07:05:36Z</time></trkpt><trkpt lat="43.53650065848856" lon="10.646343534132686"><ele>66.0</ele><time>2026-04-18T07:05:37Z</time></trkpt><trkpt lat="43.536346576370775" lon="10.64626772660395"><ele>66.25</ele><time>2026-04-18T07:05:38Z</time></trkpt><trkpt lat="43.53620004454767" lon="10.646223392163243"><ele>66.5</ele><time>2026-04-18T07:05:39Z</time></trkpt><trkpt lat="43.53607453250518" lon="10.646200790411767"><ele>66.75</ele><time>2026-04-18T07:05:40Z</time></trkpt><trkpt lat="43.535948562694664" lon="10.646214914076785"><ele>67.0</ele><time>2026-04-18T07:05:41Z</time></trkpt><trkpt lat="43.53581342384885" lon="10.646258148639783"><ele>67.0</ele><time>2026-04-18T07:05:42Z</time></trkpt><trkpt lat="43.53565644528859" lon="10.646313550294767"><ele>67.0</ele><time>2026-04-18T07:05:43Z</time></trkpt><trkpt lat="43.53548181416756" lon="10.6463740428037"><ele>67.0</ele><time>2026-04-18T07:05:44Z</time></trkpt><trkpt lat="43.53529608792594" lon="10.646431569364882"><ele>66.33333333333333</ele><time>2026-04-18T07:05:45Z</time></trkpt><trkpt lat="43.535096982344" lon="10.646500827963209"><ele>65.66666666666667</ele><time>2026-04-18T07:05:46Z</time></trkpt><trkpt lat="43.534899820084355" lon="10.646572575427802"><ele>65.0</ele><time>2026-04-18T07:05:47Z</time></trkpt><trkpt lat="43.53469309175116" lon="10.646653491172087"><ele>64.0</ele><time>2026-04-18T07:05:48Z</time></trkpt><trkpt lat="43.53448595027923" lon="10.64673320643441"><ele>63.0</ele><time>2026-04-18T07:05:49Z</time></trkpt><trkpt lat="43.534280242783716" lon="10.646783404459628"><ele>62.0</ele><time>2026-04-18T07:05:50Z</time></trkpt><trkpt lat="43.53408880635612" lon="10.646844525329701"><ele>62.0</ele><time>2026-04-18T07:05:51Z</time></trkpt><trkpt lat="43.533895776418014" lon="10.646903002275202"><ele>62.0</ele><time>2026-04-18T07:05:52Z</time></trkpt><trkpt lat="43.53370203415167" lon="10.646987601397868"><ele>62.0</ele><time>2026-04-18T07:05:53Z</time></trkpt><trkpt lat="43.53349677822905" lon="10.647044044538116"><ele>63.0</ele><time>2026-04-18T07:05:54Z</time></trkpt><trkpt lat="43.53328512585294" lon="10.647092787476808"><ele>64.0</ele><time>2026-04-18T07:05:55Z</time></trkpt><trkpt lat="43.533074065991514" lon="10.647094201642279"><ele>65.0</ele><time>2026-04-18T07:05:56Z</time></trkpt><trkpt lat="43.53288425109048" lon="10.647109458859246"><ele>65.33333333333334</ele><time>2026-04-18T07:05:57Z</time></trkpt><trkpt lat="43.53270794329811" lon="10.647138529414109"><ele>65.66666666666667</ele><time>2026-04-18T07:05:58Z</time></trkpt><trkpt lat="43.53253742972967" lon="10.647148834310336"><ele>66.0</ele><time>2026-04-18T07:05:59Z</time></trkpt><trkpt lat="43.53236753952601" lon="10.647178488826293"><ele>66.0</ele><time>2026-04-18T07:06:00Z</time></trkpt><trkpt lat="43.53219583242131" lon="10.647227180307834"><ele>66.0</ele><time>2026-04-18T07:06:01Z</time></trkpt><trkpt lat="43.53202345921764" lon="10.647290812346972"><ele>66.0</ele><time>2026-04-18T07:06:02Z</time></trkpt><trkpt lat="43.53187110070711" lon="10.647368640855952"><ele>66.25</ele><time>2026-04-18T07:06:03.001Z</time></trkpt><trkpt lat="43.531739336144305" lon="10.647462067050888"><ele>66.5</ele><time>2026-04-18T07:06:04.001Z</time></trkpt><trkpt lat="43.53162801600166" lon="10.647567979950065"><ele>66.75</ele><time>2026-04-18T07:06:05.001Z</time></trkpt><trkpt lat="43.53154168149068" lon="10.647692333839004"><ele>67.0</ele><time>2026-04-18T07:06:06.001Z</time></trkpt><trkpt lat="43.531462976693625" lon="10.647852964931724"><ele>67.0</ele><time>2026-04-18T07:06:07.001Z</time></trkpt><trkpt lat="43.53137220410891" lon="10.648027009173383"><ele>67.0</ele><time>2026-04-18T07:06:08.001Z</time></trkpt><trkpt lat="43.53126200254604" lon="10.648193225522338"><ele>67.0</ele><time>2026-04-18T07:06:09.001Z</time></trkpt><trkpt lat="43.531128263951594" lon="10.648335095945988"><ele>66.33333333333333</ele><time>2026-04-18T07:06:10.001Z</time></trkpt><trkpt lat="43.53097768883809" lon="10.648469938514674"><ele>65.66666666666667</ele><time>2026-04-18T07:06:11.001Z</time></trkpt><trkpt lat="43.530817429057514" lon="10.648607652525463"><ele>65.0</ele><time>2026-04-18T07:06:12.001Z</time></trkpt><trkpt lat="43.53068594705537" lon="10.64872484950521"><ele>65.0</ele><time>2026-04-18T07:06:13.001Z</time></trkpt><trkpt lat="43.5305625383118" lon="10.64882094990907"><ele>65.0</ele><time>2026-04-18T07:06:14.001Z</time></trkpt><trkpt lat="43.53044032291227" lon="10.648888079779155"><ele>65.0</ele><time>2026-04-18T07:06:15.001Z</time></trkpt><trkpt lat="43.53031612589008" lon="10.64890594730026"><ele>65.0</ele><time>2026-04-18T07:06:16.001Z</time></trkpt><trkpt lat="43.53017871782224" lon="10.648898359475997"><ele>67.0</ele><time>2026-04-18T07:06:17.001Z</time></trkpt><trkpt lat="43.53004054208827" lon="10.648824538258985"><ele>69.0</ele><time>2026-04-18T07:06:18.001Z</time></trkpt><trkpt lat="43.52988872665221" lon="10.648761552107551"><ele>71.0</ele><time>2026-04-18T07:06:19.001Z</time></trkpt><trkpt lat="43.52974315615051" lon="10.648654849416072"><ele>70.33333333333334</ele><time>2026-04-18T07:06:20.001Z</time></trkpt><trkpt lat="43.52960302880214" lon="10.648548532454098"><ele>69.66666666666667</ele><time>2026-04-18T07:06:21.001Z</time></trkpt><trkpt lat="43.529482149372164" lon="10.648439080749393"><ele>69.0</ele><time>2026-04-18T07:06:22.001Z</time></trkpt><trkpt lat="43.52936950005296" lon="10.648308989551534"><ele>69.0</ele><time>2026-04-18T07:06:23.001Z</time></trkpt><trkpt lat="43.52924691383138" lon="10.648208984274175"><ele>69.0</ele><time>2026-04-18T07:06:24.001Z</time></trkpt><trkpt lat="43.52912981307824" lon="10.648078768920223"><ele>69.0</ele><time>2026-04-18T07:06:25.001Z</time></trkpt><trkpt lat="43.52899960740441" lon="10.647947914491189"><ele>69.0</ele><time>2026-04-18T07:06:26.001Z</time></trkpt><trkpt lat="43.52886687824721" lon="10.647819150580398"><ele>69.0</ele><time>2026-04-18T07:06:27.001Z</time></trkpt><trkpt lat="43.52873722654747" lon="10.647703948480665"><ele>69.0</ele><time>2026-04-18T07:06:28.001Z</time></trkpt><trkpt lat="43.52860194430307" lon="10.647604636836771"><ele>68.0</ele><time>2026-04-18T07:06:29.001Z</time></trkpt><trkpt lat="43.52846227813045" lon="10.647496168685182"><ele>67.0</ele><time>2026-04-18T07:06:30.001Z</time></trkpt><trkpt lat="43.52830540355934" lon="10.647436517274736"><ele>66.0</ele><time>2026-04-18T07:06:31.001Z</time></trkpt><trkpt lat="43.528151844846285" lon="10.647376049161728"><ele>66.0</ele><time>2026-04-18T07:06:32.001Z</time></trkpt><trkpt lat="43.52803550299903" lon="10.647344326149458"><ele>66.0</ele><time>2026-04-18T07:06:33.001Z</time></trkpt><trkpt lat="43.527926948163085" lon="10.647333277560218"><ele>66.0</ele><time>2026-04-18T07:06:34.001Z</time></trkpt><trkpt lat="43.52780186067799" lon="10.64732655362338"><ele>66.0</ele><time>2026-04-18T07:06:35.001Z</time></trkpt><trkpt lat="43.52766839919951" lon="10.647327720935314"><ele>66.75</ele><time>2026-04-18T07:06:36.001Z</time></trkpt><trkpt lat="43.52753587594661" lon="10.647334635320567"><ele>67.5</ele><time>2026-04-18T07:06:37.001Z</time></trkpt><trkpt lat="43.52740151682793" lon="10.647351393612794"><ele>68.25</ele><time>2026-04-18T07:06:38.001Z</time></trkpt><trkpt lat="43.52726287401726" lon="10.647373715024472"><ele>69.0</ele><time>2026-04-18T07:06:39.001Z</time></trkpt><trkpt lat="43.52713967275387" lon="10.647398151208737"><ele>68.0</ele><time>2026-04-18T07:06:40.001Z</time></trkpt><trkpt lat="43.5270157834486" lon="10.647434339258696"><ele>67.0</ele><time>2026-04-18T07:06:41.001Z</time></trkpt><trkpt lat="43.526892581300984" lon="10.647475242636224"><ele>66.0</ele><time>2026-04-18T07:06:42.001Z</time></trkpt><trkpt lat="43.5267816629748" lon="10.647522328118185"><ele>65.0</ele><time>2026-04-18T07:06:43.001Z</time></trkpt><trkpt lat="43.52666455969193" lon="10.647557784111699"><ele>65.0</ele><time>2026-04-18T07:06:44.001Z</time></trkpt><trkpt lat="43.5265540106652" lon="10.647628080345148"><ele>65.0</ele><time>2026-04-18T07:06:45.001Z</time></trkpt><trkpt lat="43.52644458668148" lon="10.647708752379527"><ele>65.0</ele><time>2026-04-18T07:06:46.001Z</time></trkpt><trkpt lat="43.5263402544512" lon="10.647791606263265"><ele>65.0</ele><time>2026-04-18T07:06:47.001Z</time></trkpt><trkpt lat="43.52625472573827" lon="10.647889467854473"><ele>64.66666666666667</ele><time>2026-04-18T07:06:48.001Z</time></trkpt><trkpt lat="43.526178998535435" lon="10.647958130303222"><ele>64.33333333333334</ele><time>2026-04-18T07:06:49.001Z</time></trkpt><trkpt lat="43.52611262078335" lon="10.648020444762814"><ele>64.0</ele><time>2026-04-18T07:06:50.001Z</time></trkpt><trkpt lat="43.526052475973934" lon="10.6480808140176"><ele>63.66666666666667</ele><time>2026-04-18T07:06:51.001Z</time></trkpt><trkpt lat="43.5259930630085" lon="10.64811922637274"><ele>63.333333333333336</ele><time>2026-04-18T07:06:52.001Z</time></trkpt><trkpt lat="43.525937668449146" lon="10.648187021649845"><ele>63.0</ele><time>2026-04-18T07:06:54.001Z</time></trkpt><trkpt lat="43.5260097423877" lon="10.648402226545391"><ele>63.0</ele><time>2026-04-18T07:06:55.001Z</time></trkpt><trkpt lat="43.52603167888125" lon="10.64851500945332"><ele>63.0</ele><time>2026-04-18T07:06:56.002Z</time></trkpt><trkpt lat="43.52605291060205" lon="10.648631907367088"><ele>63.0</ele><time>2026-04-18T07:06:57.002Z</time></trkpt><trkpt lat="43.52607204196779" lon="10.648738670650536"><ele>63.0</ele><time>2026-04-18T07:06:58.002Z</time></trkpt><trkpt lat="43.526090425468254" lon="10.648839525432754"><ele>63.0</ele><time>2026-04-18T07:06:59.002Z</time></trkpt><trkpt lat="43.526115342249945" lon="10.648984633474239"><ele>63.0</ele><time>2026-04-18T07:07:01.002Z</time></trkpt><trkpt lat="43.52612653146387" lon="10.649117806595497"><ele>64.33333333333333</ele><time>2026-04-18T07:07:03.002Z</time></trkpt><trkpt lat="43.52609166557773" lon="10.649245001619336"><ele>65.66666666666667</ele><time>2026-04-18T07:07:05.002Z</time></trkpt><trkpt lat="43.52600768323258" lon="10.649269156751073"><ele>67.0</ele><time>2026-04-18T07:07:07.002Z</time></trkpt><trkpt lat="43.525933487328636" lon="10.649230565177012"><ele>68.33333333333334</ele><time>2026-04-18T07:07:09.002Z</time></trkpt><trkpt lat="43.5258499977732" lon="10.649149254229684"><ele>69.66666666666667</ele><time>2026-04-18T07:07:11.002Z</time></trkpt><trkpt lat="43.525780940889604" lon="10.64910071285182"><ele>71.0</ele><time>2026-04-18T07:07:12.002Z</time></trkpt><trkpt lat="43.52570635682468" lon="10.649027609129382"><ele>71.0</ele><time>2026-04-18T07:07:13.002Z</time></trkpt><trkpt lat="43.525648279627795" lon="10.64897425927496"><ele>71.0</ele><time>2026-04-18T07:07:14.002Z</time></trkpt><trkpt lat="43.52558999035904" lon="10.648910046282527"><ele>71.0</ele><time>2026-04-18T07:07:15.002Z</time></trkpt><trkpt lat="43.52548567681701" lon="10.648824381231938"><ele>71.0</ele><time>2026-04-18T07:07:17.002Z</time></trkpt><trkpt lat="43.52543060139595" lon="10.648737441789361"><ele>71.0</ele><time>2026-04-18T07:07:18.002Z</time></trkpt><trkpt lat="43.5253658604366" lon="10.648649860731611"><ele>71.0</ele><time>2026-04-18T07:07:19.002Z</time></trkpt><trkpt lat="43.52531633009286" lon="10.648582856187808"><ele>69.83333333333334</ele><time>2026-04-18T07:07:20.002Z</time></trkpt><trkpt lat="43.52526343642788" lon="10.648516373456577"><ele>68.66666666666667</ele><time>2026-04-18T07:07:21.002Z</time></trkpt><trkpt lat="43.52519460648482" lon="10.648464985103374"><ele>67.5</ele><time>2026-04-18T07:07:22.002Z</time></trkpt><trkpt lat="43.5251303036799" lon="10.648434315694553"><ele>66.33333333333333</ele><time>2026-04-18T07:07:23.002Z</time></trkpt><trkpt lat="43.52505584066254" lon="10.648438120213939"><ele>65.16666666666666</ele><time>2026-04-18T07:07:24.002Z</time></trkpt><trkpt lat="43.52500083475843" lon="10.648499057496027"><ele>64.0</ele><time>2026-04-18T07:07:25.002Z</time></trkpt><trkpt lat="43.5249071203764" lon="10.648597586065724"><ele>65.0</ele><time>2026-04-18T07:07:27.002Z</time></trkpt><trkpt lat="43.524884836502956" lon="10.648701691758042"><ele>66.0</ele><time>2026-04-18T07:07:28.002Z</time></trkpt><trkpt lat="43.52490111523047" lon="10.648808984481688"><ele>67.0</ele><time>2026-04-18T07:07:29.002Z</time></trkpt><trkpt lat="43.524918950757865" lon="10.64895712394945"><ele>68.0</ele><time>2026-04-18T07:07:31.001Z</time></trkpt><trkpt lat="43.524952425000755" lon="10.649049650825452"><ele>69.0</ele><time>2026-04-18T07:07:32.001Z</time></trkpt><trkpt lat="43.524997323994086" lon="10.649164294642118"><ele>70.0</ele><time>2026-04-18T07:07:33.001Z</time></trkpt><trkpt lat="43.52505564831265" lon="10.649310492766006"><ele>70.25</ele><time>2026-04-18T07:07:34.001Z</time></trkpt><trkpt lat="43.52511897200607" lon="10.649472607480218"><ele>70.5</ele><time>2026-04-18T07:07:35.001Z</time></trkpt><trkpt lat="43.52517948645342" lon="10.649626876463635"><ele>70.75</ele><time>2026-04-18T07:07:36.001Z</time></trkpt><trkpt lat="43.52523636448747" lon="10.649767889530635"><ele>71.0</ele><time>2026-04-18T07:07:37.001Z</time></trkpt><trkpt lat="43.52528539858527" lon="10.649896759409833"><ele>71.0</ele><time>2026-04-18T07:07:38.001Z</time></trkpt><trkpt lat="43.52533087620548" lon="10.649995031366073"><ele>71.0</ele><time>2026-04-18T07:07:39.001Z</time></trkpt><trkpt lat="43.52537495234975" lon="10.650080960144168"><ele>71.0</ele><time>2026-04-18T07:07:40.001Z</time></trkpt><trkpt lat="43.5254257135392" lon="10.650150280768367"><ele>71.0</ele><time>2026-04-18T07:07:41.001Z</time></trkpt><trkpt lat="43.52549247835749" lon="10.650208467691629"><ele>71.0</ele><time>2026-04-18T07:07:42.001Z</time></trkpt><trkpt lat="43.525575069213" lon="10.650247195763455"><ele>71.0</ele><time>2026-04-18T07:07:43.001Z</time></trkpt><trkpt lat="43.52567132508165" lon="10.650279656362807"><ele>73.0</ele><time>2026-04-18T07:07:44.001Z</time></trkpt><trkpt lat="43.52577132702594" lon="10.65031102521061"><ele>75.0</ele><time>2026-04-18T07:07:45.001Z</time></trkpt><trkpt lat="43.52586468153638" lon="10.65036086934518"><ele>77.0</ele><time>2026-04-18T07:07:46.001Z</time></trkpt><trkpt lat="43.52595114633047" lon="10.650432449507234"><ele>79.0</ele><time>2026-04-18T07:07:47.001Z</time></trkpt><trkpt lat="43.52602632694602" lon="10.650509902362046"><ele>81.0</ele><time>2026-04-18T07:07:48.001Z</time></trkpt><trkpt lat="43.5260818554774" lon="10.65060504000854"><ele>81.0</ele><time>2026-04-18T07:07:49.001Z</time></trkpt><trkpt lat="43.526109710910404" lon="10.650723068666876"><ele>81.0</ele><time>2026-04-18T07:07:50.001Z</time></trkpt><trkpt lat="43.5261550035915" lon="10.65082867354696"><ele>81.0</ele><time>2026-04-18T07:07:51.001Z</time></trkpt><trkpt lat="43.52619309653437" lon="10.650975177125906"><ele>81.0</ele><time>2026-04-18T07:07:52.001Z</time></trkpt><trkpt lat="43.52627393427514" lon="10.651094438428716"><ele>81.0</ele><time>2026-04-18T07:07:53.001Z</time></trkpt><trkpt lat="43.52637703794128" lon="10.65120374402857"><ele>82.4</ele><time>2026-04-18T07:07:54.001Z</time></trkpt><trkpt lat="43.52646777592251" lon="10.651324070285632"><ele>83.8</ele><time>2026-04-18T07:07:55.001Z</time></trkpt><trkpt lat="43.52653160726098" lon="10.651436158163824"><ele>85.2</ele><time>2026-04-18T07:07:56.001Z</time></trkpt><trkpt lat="43.52657754682557" lon="10.651534455283738"><ele>86.60000000000001</ele><time>2026-04-18T07:07:57.001Z</time></trkpt><trkpt lat="43.52661976997467" lon="10.651652858447497"><ele>88.0</ele><time>2026-04-18T07:07:58.001Z</time></trkpt><trkpt lat="43.52663482128214" lon="10.651798501473232"><ele>88.0</ele><time>2026-04-18T07:07:59.001Z</time></trkpt><trkpt lat="43.52667560878161" lon="10.651954540752152"><ele>88.0</ele><time>2026-04-18T07:08:00.001Z</time></trkpt><trkpt lat="43.52668167677426" lon="10.652121634019103"><ele>88.0</ele><time>2026-04-18T07:08:01.001Z</time></trkpt><trkpt lat="43.52670142195858" lon="10.652253967292141"><ele>88.0</ele><time>2026-04-18T07:08:02.001Z</time></trkpt><trkpt lat="43.52674211841204" lon="10.652380239002602"><ele>88.0</ele><time>2026-04-18T07:08:03.001Z</time></trkpt><trkpt lat="43.526784083910826" lon="10.652520665226136"><ele>88.2</ele><time>2026-04-18T07:08:04.001Z</time></trkpt><trkpt lat="43.526842195541086" lon="10.65264973703808"><ele>88.4</ele><time>2026-04-18T07:08:05.001Z</time></trkpt><trkpt lat="43.52690581251288" lon="10.652760181090674"><ele>88.60000000000001</ele><time>2026-04-18T07:08:06.001Z</time></trkpt><trkpt lat="43.52697331674961" lon="10.652852293636839"><ele>88.80000000000001</ele><time>2026-04-18T07:08:07.001Z</time></trkpt><trkpt lat="43.527059070674824" lon="10.65293790355335"><ele>89.0</ele><time>2026-04-18T07:08:08.001Z</time></trkpt><trkpt lat="43.527149846157286" lon="10.653042660665628"><ele>90.4</ele><time>2026-04-18T07:08:09.001Z</time></trkpt><trkpt lat="43.52724967397389" lon="10.6530941186618"><ele>91.80000000000001</ele><time>2026-04-18T07:08:10.001Z</time></trkpt><trkpt lat="43.527328201315015" lon="10.653141696772677"><ele>93.19999999999999</ele><time>2026-04-18T07:08:11.001Z</time></trkpt><trkpt lat="43.52742207531234" lon="10.653174223896022"><ele>94.6</ele><time>2026-04-18T07:08:12.001Z</time></trkpt><trkpt lat="43.527519157938215" lon="10.653184550162097"><ele>96.0</ele><time>2026-04-18T07:08:13.001Z</time></trkpt><trkpt lat="43.52763230808544" lon="10.653178012928102"><ele>96.0</ele><time>2026-04-18T07:08:14.001Z</time></trkpt><trkpt lat="43.527764886800554" lon="10.65316633514554"><ele>96.0</ele><time>2026-04-18T07:08:15.001Z</time></trkpt><trkpt lat="43.527906610703496" lon="10.653133618462805"><ele>96.0</ele><time>2026-04-18T07:08:16.001Z</time></trkpt><trkpt lat="43.528024853056955" lon="10.653132781043013"><ele>96.0</ele><time>2026-04-18T07:08:17.001Z</time></trkpt><trkpt lat="43.52810776976601" lon="10.653134087908677"><ele>97.19999999999999</ele><time>2026-04-18T07:08:18.001Z</time></trkpt><trkpt lat="43.528202054548565" lon="10.65316349387362"><ele>98.39999999999999</ele><time>2026-04-18T07:08:19.001Z</time></trkpt><trkpt lat="43.528294394313036" lon="10.653238690104027"><ele>99.6</ele><time>2026-04-18T07:08:20.001Z</time></trkpt><trkpt lat="43.5283854205613" lon="10.653313475851805"><ele>100.8</ele><time>2026-04-18T07:08:21.001Z</time></trkpt><trkpt lat="43.52848632464797" lon="10.653411246990341"><ele>102.0</ele><time>2026-04-18T07:08:22.001Z</time></trkpt><trkpt lat="43.528589754342235" lon="10.65350919207161"><ele>102.0</ele><time>2026-04-18T07:08:23.001Z</time></trkpt><trkpt lat="43.52868715432126" lon="10.653602542072758"><ele>102.0</ele><time>2026-04-18T07:08:24.001Z</time></trkpt><trkpt lat="43.52879210059386" lon="10.653683304543645"><ele>102.0</ele><time>2026-04-18T07:08:25.001Z</time></trkpt><trkpt lat="43.5288819140395" lon="10.65379952812167"><ele>102.0</ele><time>2026-04-18T07:08:26.001Z</time></trkpt><trkpt lat="43.52897545230485" lon="10.653912254280023"><ele>103.5</ele><time>2026-04-18T07:08:27.001Z</time></trkpt><trkpt lat="43.529065114709255" lon="10.654038947493909"><ele>105.0</ele><time>2026-04-18T07:08:28.001Z</time></trkpt><trkpt lat="43.529154334468146" lon="10.654178998172158"><ele>106.5</ele><time>2026-04-18T07:08:29.001Z</time></trkpt><trkpt lat="43.529243344455416" lon="10.654332425662448"><ele>108.0</ele><time>2026-04-18T07:08:30.001Z</time></trkpt><trkpt lat="43.52932450410087" lon="10.654484485172395"><ele>108.0</ele><time>2026-04-18T07:08:31.001Z</time></trkpt><trkpt lat="43.52939367367388" lon="10.654622665473509"><ele>108.00000000000001</ele><time>2026-04-18T07:08:32.001Z</time></trkpt><trkpt lat="43.52945820195098" lon="10.654738164959948"><ele>108.00000000000001</ele><time>2026-04-18T07:08:33.001Z</time></trkpt><trkpt lat="43.529509026325265" lon="10.654840783137294"><ele>108.0</ele><time>2026-04-18T07:08:34.001Z</time></trkpt><trkpt lat="43.52955002376801" lon="10.654936230512698"><ele>108.0</ele><time>2026-04-18T07:08:35.001Z</time></trkpt><trkpt lat="43.52958458139492" lon="10.655054843972277"><ele>108.0</ele><time>2026-04-18T07:08:36.001Z</time></trkpt><trkpt lat="43.52960014715764" lon="10.655184957425266"><ele>108.00000000000001</ele><time>2026-04-18T07:08:37.001Z</time></trkpt><trkpt lat="43.52959232370062" lon="10.655319344726777"><ele>108.00000000000001</ele><time>2026-04-18T07:08:38.001Z</time></trkpt><trkpt lat="43.529585768180986" lon="10.65548170423116"><ele>108.0</ele><time>2026-04-18T07:08:39.001Z</time></trkpt><trkpt lat="43.529595003243315" lon="10.655632049799921"><ele>108.0</ele><time>2026-04-18T07:08:40.001Z</time></trkpt><trkpt lat="43.52962502610235" lon="10.655776674445573"><ele>109.75</ele><time>2026-04-18T07:08:41.001Z</time></trkpt><trkpt lat="43.5296794217284" lon="10.65592749688438"><ele>111.5</ele><time>2026-04-18T07:08:42.001Z</time></trkpt><trkpt lat="43.52974738197317" lon="10.656086863515714"><ele>113.25</ele><time>2026-04-18T07:08:43.001Z</time></trkpt><trkpt lat="43.52981155350005" lon="10.656228657712898"><ele>115.0</ele><time>2026-04-18T07:08:44.001Z</time></trkpt><trkpt lat="43.52985073671154" lon="10.656343541380986"><ele>116.2</ele><time>2026-04-18T07:08:45.001Z</time></trkpt><trkpt lat="43.529871180304774" lon="10.65644258698137"><ele>117.4</ele><time>2026-04-18T07:08:46.001Z</time></trkpt><trkpt lat="43.529888436296936" lon="10.656564470101602"><ele>118.6</ele><time>2026-04-18T07:08:47.001Z</time></trkpt><trkpt lat="43.529896443334216" lon="10.656707300766325"><ele>119.8</ele><time>2026-04-18T07:08:48.001Z</time></trkpt><trkpt lat="43.529893117205134" lon="10.656856738563208"><ele>121.0</ele><time>2026-04-18T07:08:49.001Z</time></trkpt><trkpt lat="43.52990896279087" lon="10.656971240458894"><ele>121.0</ele><time>2026-04-18T07:08:50.001Z</time></trkpt><trkpt lat="43.529915444023224" lon="10.657081956646817"><ele>121.0</ele><time>2026-04-18T07:08:51.001Z</time></trkpt><trkpt lat="43.529968670308364" lon="10.657200937886387"><ele>121.0</ele><time>2026-04-18T07:08:52.002Z</time></trkpt><trkpt lat="43.53005342994068" lon="10.65722562442067"><ele>121.0</ele><time>2026-04-18T07:08:53.002Z</time></trkpt><trkpt lat="43.53013210075102" lon="10.657272427175675"><ele>121.0</ele><time>2026-04-18T07:08:54.002Z</time></trkpt><trkpt lat="43.53023240228934" lon="10.657311319448045"><ele>121.0</ele><time>2026-04-18T07:08:55.002Z</time></trkpt><trkpt lat="43.53034634471516" lon="10.657361632854721"><ele>121.0</ele><time>2026-04-18T07:08:56.002Z</time></trkpt><trkpt lat="43.53046668485026" lon="10.65742070822044"><ele>121.0</ele><time>2026-04-18T07:08:57.002Z</time></trkpt><trkpt lat="43.53056931395465" lon="10.657475611144132"><ele>121.0</ele><time>2026-04-18T07:08:58.002Z</time></trkpt><trkpt lat="43.53065068177462" lon="10.657521970150528"><ele>121.0</ele><time>2026-04-18T07:08:59.002Z</time></trkpt><trkpt lat="43.530739365488664" lon="10.65755304364104"><ele>123.8</ele><time>2026-04-18T07:09:00.002Z</time></trkpt><trkpt lat="43.53084260006724" lon="10.657573196212626"><ele>126.6</ele><time>2026-04-18T07:09:01.002Z</time></trkpt><trkpt lat="43.53094268512695" lon="10.657556632642525"><ele>129.4</ele><time>2026-04-18T07:09:02.002Z</time></trkpt><trkpt lat="43.531039377740264" lon="10.657521976078229"><ele>132.2</ele><time>2026-04-18T07:09:03.002Z</time></trkpt><trkpt lat="43.53112947869983" lon="10.65746376173792"><ele>135.0</ele><time>2026-04-18T07:09:04.002Z</time></trkpt><trkpt lat="43.531219726753314" lon="10.657410145507543"><ele>136.83333333333334</ele><time>2026-04-18T07:09:05.002Z</time></trkpt><trkpt lat="43.5313100019699" lon="10.657335489395447"><ele>138.66666666666666</ele><time>2026-04-18T07:09:06.002Z</time></trkpt><trkpt lat="43.53138142705607" lon="10.657289205893848"><ele>140.5</ele><time>2026-04-18T07:09:07.002Z</time></trkpt><trkpt lat="43.531453446719865" lon="10.657272779125275"><ele>142.33333333333331</ele><time>2026-04-18T07:09:08.002Z</time></trkpt><trkpt lat="43.53152947980144" lon="10.657307817269261"><ele>144.16666666666666</ele><time>2026-04-18T07:09:09.002Z</time></trkpt><trkpt lat="43.531606349822034" lon="10.657349373411146"><ele>146.0</ele><time>2026-04-18T07:09:10.002Z</time></trkpt><trkpt lat="43.53168895071535" lon="10.657418561670516"><ele>146.0</ele><time>2026-04-18T07:09:11.002Z</time></trkpt><trkpt lat="43.531784926571845" lon="10.657504874373359"><ele>146.0</ele><time>2026-04-18T07:09:12.002Z</time></trkpt><trkpt lat="43.53189676642825" lon="10.657586267982193"><ele>146.0</ele><time>2026-04-18T07:09:13.002Z</time></trkpt><trkpt lat="43.531998906346644" lon="10.657639983893002"><ele>146.0</ele><time>2026-04-18T07:09:14.002Z</time></trkpt><trkpt lat="43.5320992129596" lon="10.657675658966705"><ele>144.83333333333331</ele><time>2026-04-18T07:09:15.002Z</time></trkpt><trkpt lat="43.5321934201615" lon="10.657698937203682"><ele>143.66666666666666</ele><time>2026-04-18T07:09:16.002Z</time></trkpt><trkpt lat="43.53229377003127" lon="10.657730945207874"><ele>142.5</ele><time>2026-04-18T07:09:17.002Z</time></trkpt><trkpt lat="43.532371877136534" lon="10.65777005852646"><ele>141.33333333333334</ele><time>2026-04-18T07:09:18.002Z</time></trkpt><trkpt lat="43.532448414520886" lon="10.657797589826773"><ele>140.16666666666669</ele><time>2026-04-18T07:09:19.002Z</time></trkpt><trkpt lat="43.53250655998082" lon="10.657836552374034"><ele>139.0</ele><time>2026-04-18T07:09:20.002Z</time></trkpt><trkpt lat="43.53254189550877" lon="10.657908801825316"><ele>141.33333333333334</ele><time>2026-04-18T07:09:21.002Z</time></trkpt><trkpt lat="43.53253932964729" lon="10.658000694106043"><ele>143.66666666666669</ele><time>2026-04-18T07:09:22.002Z</time></trkpt><trkpt lat="43.532489044446294" lon="10.658097491714523"><ele>146.0</ele><time>2026-04-18T07:09:23.002Z</time></trkpt><trkpt lat="43.53242370280653" lon="10.658161179561874"><ele>148.33333333333334</ele><time>2026-04-18T07:09:24.002Z</time></trkpt><trkpt lat="43.532343725698134" lon="10.658183464295677"><ele>150.66666666666666</ele><time>2026-04-18T07:09:25.002Z</time></trkpt><trkpt lat="43.53225709211684" lon="10.658195759250829"><ele>153.0</ele><time>2026-04-18T07:09:26.002Z</time></trkpt><trkpt lat="43.532173433353286" lon="10.658103180135464"><ele>153.0</ele><time>2026-04-18T07:09:27.002Z</time></trkpt><trkpt lat="43.532071670151325" lon="10.658052668569232"><ele>153.0</ele><time>2026-04-18T07:09:28.002Z</time></trkpt><trkpt lat="43.531992811495506" lon="10.65798799725824"><ele>153.0</ele><time>2026-04-18T07:09:29.002Z</time></trkpt><trkpt lat="43.53191921521106" lon="10.657943112978584"><ele>153.0</ele><time>2026-04-18T07:09:30.002Z</time></trkpt><trkpt lat="43.53184822307652" lon="10.657907645572687"><ele>153.0</ele><time>2026-04-18T07:09:31.002Z</time></trkpt><trkpt lat="43.531780213094514" lon="10.657892428749498"><ele>153.0</ele><time>2026-04-18T07:09:32.002Z</time></trkpt><trkpt lat="43.53165935935739" lon="10.657969129642872"><ele>154.0</ele><time>2026-04-18T07:09:34.002Z</time></trkpt><trkpt lat="43.531622039769026" lon="10.65805489024946"><ele>155.0</ele><time>2026-04-18T07:09:35.002Z</time></trkpt><trkpt lat="43.53161758171178" lon="10.658158225377601"><ele>156.0</ele><time>2026-04-18T07:09:36.002Z</time></trkpt><trkpt lat="43.531641338871125" lon="10.658256458516775"><ele>157.0</ele><time>2026-04-18T07:09:37.001Z</time></trkpt><trkpt lat="43.531690065297276" lon="10.658337707859737"><ele>158.0</ele><time>2026-04-18T07:09:38.001Z</time></trkpt><trkpt lat="43.53177094404779" lon="10.658402281350037"><ele>159.0</ele><time>2026-04-18T07:09:39.001Z</time></trkpt><trkpt lat="43.53184945569015" lon="10.65845731104628"><ele>159.0</ele><time>2026-04-18T07:09:40.001Z</time></trkpt><trkpt lat="43.5319176824103" lon="10.65851654007536"><ele>159.0</ele><time>2026-04-18T07:09:41.001Z</time></trkpt><trkpt lat="43.531976971479594" lon="10.658595179764548"><ele>159.0</ele><time>2026-04-18T07:09:42.001Z</time></trkpt><trkpt lat="43.53203641384283" lon="10.658691960009845"><ele>159.0</ele><time>2026-04-18T07:09:43.001Z</time></trkpt><trkpt lat="43.5320794023143" lon="10.65879711082021"><ele>159.0</ele><time>2026-04-18T07:09:44.001Z</time></trkpt><trkpt lat="43.532121937899255" lon="10.658910064955172"><ele>159.0</ele><time>2026-04-18T07:09:45.001Z</time></trkpt><trkpt lat="43.53217132756531" lon="10.659020244992938"><ele>159.4</ele><time>2026-04-18T07:09:46.001Z</time></trkpt><trkpt lat="43.532230326483386" lon="10.659126749010445"><ele>159.8</ele><time>2026-04-18T07:09:47.001Z</time></trkpt><trkpt lat="43.53229408608321" lon="10.659229733316359"><ele>160.20000000000002</ele><time>2026-04-18T07:09:48.001Z</time></trkpt><trkpt lat="43.53235342268622" lon="10.65933626131934"><ele>160.60000000000002</ele><time>2026-04-18T07:09:49.001Z</time></trkpt><trkpt lat="43.532413635679774" lon="10.659444672397596"><ele>161.0</ele><time>2026-04-18T07:09:50.001Z</time></trkpt><trkpt lat="43.53247726760189" lon="10.659545895573249"><ele>163.4</ele><time>2026-04-18T07:09:51.001Z</time></trkpt><trkpt lat="43.532543831248304" lon="10.659650610264647"><ele>165.8</ele><time>2026-04-18T07:09:52.001Z</time></trkpt><trkpt lat="43.53260814388516" lon="10.659755175035649"><ele>168.20000000000002</ele><time>2026-04-18T07:09:53.001Z</time></trkpt><trkpt lat="43.532666824267714" lon="10.659850826343558"><ele>170.60000000000002</ele><time>2026-04-18T07:09:54.001Z</time></trkpt><trkpt lat="43.53272571581982" lon="10.659938538372321"><ele>173.0</ele><time>2026-04-18T07:09:55.001Z</time></trkpt><trkpt lat="43.53278616787816" lon="10.66002562708297"><ele>173.0</ele><time>2026-04-18T07:09:56.001Z</time></trkpt><trkpt lat="43.5328445191105" lon="10.660118900901976"><ele>173.0</ele><time>2026-04-18T07:09:57.001Z</time></trkpt><trkpt lat="43.532909843967616" lon="10.660216694713432"><ele>173.0</ele><time>2026-04-18T07:09:58.001Z</time></trkpt><trkpt lat="43.53297637204079" lon="10.66032097362715"><ele>173.0</ele><time>2026-04-18T07:09:59.001Z</time></trkpt><trkpt lat="43.533049713329525" lon="10.66043004416532"><ele>173.0</ele><time>2026-04-18T07:10:00.001Z</time></trkpt><trkpt lat="43.5331274380684" lon="10.660541827836402"><ele>172.2</ele><time>2026-04-18T07:10:01.001Z</time></trkpt><trkpt lat="43.5332092663475" lon="10.66065851385061"><ele>171.4</ele><time>2026-04-18T07:10:02.001Z</time></trkpt><trkpt lat="43.53330101639925" lon="10.660761615400661"><ele>170.6</ele><time>2026-04-18T07:10:03.001Z</time></trkpt><trkpt lat="43.533382910096606" lon="10.660826977168805"><ele>169.79999999999998</ele><time>2026-04-18T07:10:04.001Z</time></trkpt><trkpt lat="43.53343700091593" lon="10.660877360838322"><ele>169.0</ele><time>2026-04-18T07:10:05.001Z</time></trkpt><trkpt lat="43.53351294831053" lon="10.66093540387464"><ele>169.0</ele><time>2026-04-18T07:10:07.001Z</time></trkpt><trkpt lat="43.53357145971892" lon="10.661002787214109"><ele>169.0</ele><time>2026-04-18T07:10:11.001Z</time></trkpt><trkpt lat="43.533587129743914" lon="10.66109398332954"><ele>169.0</ele><time>2026-04-18T07:10:26.001Z</time></trkpt><trkpt lat="43.53374881973049" lon="10.661126660452783"><ele>169.0</ele><time>2026-04-18T07:10:28.001Z</time></trkpt><trkpt lat="43.53383615863901" lon="10.661140127043163"><ele>169.0</ele><time>2026-04-18T07:10:29.001Z</time></trkpt><trkpt lat="43.53391963876171" lon="10.661159863486068"><ele>167.79999999999998</ele><time>2026-04-18T07:10:30.001Z</time></trkpt><trkpt lat="43.53399282729616" lon="10.661180314486176"><ele>166.6</ele><time>2026-04-18T07:10:31.001Z</time></trkpt><trkpt lat="43.53406552020482" lon="10.661191998473814"><ele>165.4</ele><time>2026-04-18T07:10:32.001Z</time></trkpt><trkpt lat="43.53413209226968" lon="10.661208252089757"><ele>164.2</ele><time>2026-04-18T07:10:33.001Z</time></trkpt><trkpt lat="43.534222935747344" lon="10.661258781347462"><ele>163.0</ele><time>2026-04-18T07:10:35.001Z</time></trkpt><trkpt lat="43.534199378446395" lon="10.66148458991391"><ele>163.0</ele><time>2026-04-18T07:10:39.001Z</time></trkpt><trkpt lat="43.534163057083234" lon="10.66158334740974"><ele>163.0</ele><time>2026-04-18T07:10:40.001Z</time></trkpt><trkpt lat="43.53410680850638" lon="10.661702345788694"><ele>163.0</ele><time>2026-04-18T07:10:41.001Z</time></trkpt><trkpt lat="43.534072172747614" lon="10.66184910077592"><ele>163.0</ele><time>2026-04-18T07:10:42.001Z</time></trkpt><trkpt lat="43.53401685013109" lon="10.66198393443601"><ele>163.0</ele><time>2026-04-18T07:10:43.001Z</time></trkpt><trkpt lat="43.533971531396496" lon="10.662122945609699"><ele>161.5</ele><time>2026-04-18T07:10:44.001Z</time></trkpt><trkpt lat="43.533923086824146" lon="10.662273054683048"><ele>160.0</ele><time>2026-04-18T07:10:45.001Z</time></trkpt><trkpt lat="43.53386394831904" lon="10.662428539852387"><ele>158.5</ele><time>2026-04-18T07:10:46.001Z</time></trkpt><trkpt lat="43.53380006370179" lon="10.662593426554809"><ele>157.0</ele><time>2026-04-18T07:10:47.001Z</time></trkpt><trkpt lat="43.533741223156916" lon="10.662767393771997"><ele>162.0</ele><time>2026-04-18T07:10:48.001Z</time></trkpt><trkpt lat="43.533686157557" lon="10.662956448256297"><ele>167.0</ele><time>2026-04-18T07:10:49.001Z</time></trkpt><trkpt lat="43.53363877497649" lon="10.663154308508693"><ele>172.0</ele><time>2026-04-18T07:10:50.001Z</time></trkpt><trkpt lat="43.53359011836114" lon="10.663361439120175"><ele>172.0</ele><time>2026-04-18T07:10:51.001Z</time></trkpt><trkpt lat="43.53354347554216" lon="10.663576736786792"><ele>172.0</ele><time>2026-04-18T07:10:52.001Z</time></trkpt><trkpt lat="43.53351187393944" lon="10.663783791563183"><ele>172.0</ele><time>2026-04-18T07:10:53.001Z</time></trkpt><trkpt lat="43.533490936622975" lon="10.66397355634335"><ele>170.25</ele><time>2026-04-18T07:10:54.001Z</time></trkpt><trkpt lat="43.53347309379916" lon="10.664150705032192"><ele>168.5</ele><time>2026-04-18T07:10:55.001Z</time></trkpt><trkpt lat="43.53345918175848" lon="10.66431611637761"><ele>166.75</ele><time>2026-04-18T07:10:56.001Z</time></trkpt><trkpt lat="43.53342764838381" lon="10.664465278139735"><ele>165.0</ele><time>2026-04-18T07:10:57.001Z</time></trkpt><trkpt lat="43.53337694776062" lon="10.664603404410904"><ele>162.5</ele><time>2026-04-18T07:10:58.001Z</time></trkpt><trkpt lat="43.533295676858465" lon="10.664729622062918"><ele>160.0</ele><time>2026-04-18T07:10:59.001Z</time></trkpt><trkpt lat="43.5331925041952" lon="10.664852256220222"><ele>157.5</ele><time>2026-04-18T07:11:00.001Z</time></trkpt><trkpt lat="43.53309135437451" lon="10.664952406425403"><ele>155.0</ele><time>2026-04-18T07:11:01.001Z</time></trkpt><trkpt lat="43.53298686054717" lon="10.665024904715615"><ele>154.5</ele><time>2026-04-18T07:11:02.001Z</time></trkpt><trkpt lat="43.53288010713976" lon="10.665059344800687"><ele>154.0</ele><time>2026-04-18T07:11:03.001Z</time></trkpt><trkpt lat="43.53275732839944" lon="10.665054780678766"><ele>153.5</ele><time>2026-04-18T07:11:04.001Z</time></trkpt><trkpt lat="43.53261711824715" lon="10.665018195635197"><ele>153.0</ele><time>2026-04-18T07:11:05.001Z</time></trkpt><trkpt lat="43.53248633390196" lon="10.66498242359562"><ele>153.0</ele><time>2026-04-18T07:11:06.001Z</time></trkpt><trkpt lat="43.5323702171314" lon="10.66498057018304"><ele>153.0</ele><time>2026-04-18T07:11:07.001Z</time></trkpt><trkpt lat="43.53227250428768" lon="10.665005881645962"><ele>153.0</ele><time>2026-04-18T07:11:08.001Z</time></trkpt><trkpt lat="43.53217853812533" lon="10.665064794912093"><ele>153.0</ele><time>2026-04-18T07:11:09.001Z</time></trkpt><trkpt lat="43.532093042329244" lon="10.665178340879287"><ele>153.0</ele><time>2026-04-18T07:11:10.001Z</time></trkpt><trkpt lat="43.53201591827248" lon="10.665337076613627"><ele>149.66666666666666</ele><time>2026-04-18T07:11:11.001Z</time></trkpt><trkpt lat="43.53193498869515" lon="10.665522397884102"><ele>146.33333333333331</ele><time>2026-04-18T07:11:12.002Z</time></trkpt><trkpt lat="43.5318457878249" lon="10.66571744471509"><ele>143.0</ele><time>2026-04-18T07:11:13.002Z</time></trkpt><trkpt lat="43.53175689260701" lon="10.665909257079864"><ele>143.0</ele><time>2026-04-18T07:11:14.002Z</time></trkpt><trkpt lat="43.531664647129254" lon="10.666095628362717"><ele>143.0</ele><time>2026-04-18T07:11:15.002Z</time></trkpt><trkpt lat="43.531573641372745" lon="10.666273336603386"><ele>143.0</ele><time>2026-04-18T07:11:16.002Z</time></trkpt><trkpt lat="43.53147498904934" lon="10.666445877709037"><ele>144.33333333333331</ele><time>2026-04-18T07:11:17.002Z</time></trkpt><trkpt lat="43.5313627067125" lon="10.666604981620768"><ele>145.66666666666666</ele><time>2026-04-18T07:11:18.002Z</time></trkpt><trkpt lat="43.53125015949092" lon="10.666766301362186"><ele>147.0</ele><time>2026-04-18T07:11:19.002Z</time></trkpt><trkpt lat="43.53114159361763" lon="10.666927280396589"><ele>150.0</ele><time>2026-04-18T07:11:20.002Z</time></trkpt><trkpt lat="43.53103703243141" lon="10.667081707526616"><ele>153.0</ele><time>2026-04-18T07:11:21.002Z</time></trkpt><trkpt lat="43.530945272106834" lon="10.667235107682291"><ele>156.0</ele><time>2026-04-18T07:11:22.002Z</time></trkpt><trkpt lat="43.53085439209149" lon="10.667370924364022"><ele>159.0</ele><time>2026-04-18T07:11:23.002Z</time></trkpt><trkpt lat="43.530759095645294" lon="10.667506416445578"><ele>159.0</ele><time>2026-04-18T07:11:24.002Z</time></trkpt><trkpt lat="43.53065011994743" lon="10.667629849961223"><ele>159.0</ele><time>2026-04-18T07:11:25.002Z</time></trkpt><trkpt lat="43.530523963343676" lon="10.667719027808586"><ele>159.0</ele><time>2026-04-18T07:11:26.002Z</time></trkpt><trkpt lat="43.53041030603142" lon="10.667822119394339"><ele>159.0</ele><time>2026-04-18T07:11:27.002Z</time></trkpt><trkpt lat="43.530315876601215" lon="10.667922767476753"><ele>160.0</ele><time>2026-04-18T07:11:28.002Z</time></trkpt><trkpt lat="43.53023164430805" lon="10.668035681445119"><ele>161.0</ele><time>2026-04-18T07:11:29.002Z</time></trkpt><trkpt lat="43.53014258503551" lon="10.668173188905705"><ele>162.0</ele><time>2026-04-18T07:11:30.002Z</time></trkpt><trkpt lat="43.53004951098967" lon="10.668317048578121"><ele>163.0</ele><time>2026-04-18T07:11:31.002Z</time></trkpt><trkpt lat="43.529951492647804" lon="10.668465685822866"><ele>162.5</ele><time>2026-04-18T07:11:32.002Z</time></trkpt><trkpt lat="43.52985280173079" lon="10.668615341846607"><ele>162.0</ele><time>2026-04-18T07:11:33.002Z</time></trkpt><trkpt lat="43.52975032734779" lon="10.668767348645703"><ele>161.5</ele><time>2026-04-18T07:11:34.002Z</time></trkpt><trkpt lat="43.52964979764931" lon="10.668910555110001"><ele>161.0</ele><time>2026-04-18T07:11:35.002Z</time></trkpt><trkpt lat="43.52954777273631" lon="10.669055935126341"><ele>161.0</ele><time>2026-04-18T07:11:36.002Z</time></trkpt><trkpt lat="43.52945229328599" lon="10.669183356719172"><ele>161.0</ele><time>2026-04-18T07:11:37.002Z</time></trkpt><trkpt lat="43.52936214150241" lon="10.669293056133425"><ele>161.0</ele><time>2026-04-18T07:11:38.002Z</time></trkpt><trkpt lat="43.529266884288745" lon="10.669397888383232"><ele>161.0</ele><time>2026-04-18T07:11:39.002Z</time></trkpt><trkpt lat="43.52916240044758" lon="10.669500330461146"><ele>161.5</ele><time>2026-04-18T07:11:40.002Z</time></trkpt><trkpt lat="43.5290626438197" lon="10.669622050728059"><ele>162.0</ele><time>2026-04-18T07:11:41.002Z</time></trkpt><trkpt lat="43.52896131442522" lon="10.669725968267707"><ele>162.5</ele><time>2026-04-18T07:11:42.002Z</time></trkpt><trkpt lat="43.5288613976124" lon="10.66983532195713"><ele>163.0</ele><time>2026-04-18T07:11:43Z</time></trkpt><trkpt lat="43.52875299770553" lon="10.669937835975267"><ele>162.5</ele><time>2026-04-18T07:11:44Z</time></trkpt><trkpt lat="43.52865672986473" lon="10.670082103888259"><ele>162.0</ele><time>2026-04-18T07:11:45Z</time></trkpt><trkpt lat="43.52854978247809" lon="10.670216442856995"><ele>161.5</ele><time>2026-04-18T07:11:46Z</time></trkpt><trkpt lat="43.528431598262" lon="10.670347448332468"><ele>161.0</ele><time>2026-04-18T07:11:47Z</time></trkpt><trkpt lat="43.528316611184515" lon="10.67049031337886"><ele>161.0</ele><time>2026-04-18T07:11:48Z</time></trkpt><trkpt lat="43.528197105939995" lon="10.670644426210552"><ele>161.0</ele><time>2026-04-18T07:11:49Z</time></trkpt><trkpt lat="43.528076270206235" lon="10.670804725344718"><ele>161.0</ele><time>2026-04-18T07:11:50Z</time></trkpt><trkpt lat="43.52795405423798" lon="10.670963299625525"><ele>162.25</ele><time>2026-04-18T07:11:51Z</time></trkpt><trkpt lat="43.527823156595865" lon="10.671098740429482"><ele>163.5</ele><time>2026-04-18T07:11:52Z</time></trkpt><trkpt lat="43.52771283178129" lon="10.671236263842184"><ele>164.75</ele><time>2026-04-18T07:11:53Z</time></trkpt><trkpt lat="43.52761459507433" lon="10.671366954449804"><ele>166.0</ele><time>2026-04-18T07:11:54Z</time></trkpt><trkpt lat="43.52752209097728" lon="10.671511048436036"><ele>166.0</ele><time>2026-04-18T07:11:55Z</time></trkpt><trkpt lat="43.5274411458055" lon="10.671672449841846"><ele>166.0</ele><time>2026-04-18T07:11:56Z</time></trkpt><trkpt lat="43.52736722343902" lon="10.6718421478263"><ele>166.0</ele><time>2026-04-18T07:11:57Z</time></trkpt><trkpt lat="43.527293844306996" lon="10.672009626956603"><ele>166.0</ele><time>2026-04-18T07:11:58Z</time></trkpt><trkpt lat="43.527222969960135" lon="10.672161802260591"><ele>167.0</ele><time>2026-04-18T07:11:59Z</time></trkpt><trkpt lat="43.52714764323307" lon="10.672283018517518"><ele>168.0</ele><time>2026-04-18T07:12:00Z</time></trkpt><trkpt lat="43.52706612345932" lon="10.672377532505385"><ele>169.0</ele><time>2026-04-18T07:12:01Z</time></trkpt><trkpt lat="43.526969753244025" lon="10.672451770654034"><ele>170.0</ele><time>2026-04-18T07:12:02Z</time></trkpt><trkpt lat="43.5268669171877" lon="10.672475987275202"><ele>171.0</ele><time>2026-04-18T07:12:03Z</time></trkpt><trkpt lat="43.52675376440576" lon="10.672477075061746"><ele>171.0</ele><time>2026-04-18T07:12:04Z</time></trkpt><trkpt lat="43.526634116590316" lon="10.67245394691832"><ele>171.0</ele><time>2026-04-18T07:12:05Z</time></trkpt><trkpt lat="43.52651268907694" lon="10.672458719961638"><ele>171.0</ele><time>2026-04-18T07:12:06Z</time></trkpt><trkpt lat="43.52639688492379" lon="10.672458965890577"><ele>171.0</ele><time>2026-04-18T07:12:07Z</time></trkpt><trkpt lat="43.52628552827956" lon="10.672492186237191"><ele>170.75</ele><time>2026-04-18T07:12:08Z</time></trkpt><trkpt lat="43.526176996377664" lon="10.672570132244882"><ele>170.5</ele><time>2026-04-18T07:12:09Z</time></trkpt><trkpt lat="43.52607864741705" lon="10.672669184732348"><ele>170.25</ele><time>2026-04-18T07:12:10Z</time></trkpt><trkpt lat="43.525985221949455" lon="10.672748106945912"><ele>170.0</ele><time>2026-04-18T07:12:11Z</time></trkpt><trkpt lat="43.52593124996842" lon="10.672860904998059"><ele>170.0</ele><time>2026-04-18T07:12:12Z</time></trkpt><trkpt lat="43.525890461362195" lon="10.672958577505012"><ele>170.0</ele><time>2026-04-18T07:12:13Z</time></trkpt><trkpt lat="43.52584977188788" lon="10.673056347799477"><ele>170.0</ele><time>2026-04-18T07:12:14Z</time></trkpt><trkpt lat="43.52582975984328" lon="10.673200425213002"><ele>170.0</ele><time>2026-04-18T07:12:15Z</time></trkpt><trkpt lat="43.52581683549853" lon="10.673364574714745"><ele>170.0</ele><time>2026-04-18T07:12:16Z</time></trkpt><trkpt lat="43.52581935814082" lon="10.673536326637418"><ele>172.0</ele><time>2026-04-18T07:12:17Z</time></trkpt><trkpt lat="43.52580504805106" lon="10.673712735296759"><ele>174.0</ele><time>2026-04-18T07:12:18Z</time></trkpt><trkpt lat="43.52578865836464" lon="10.67388355153717"><ele>176.0</ele><time>2026-04-18T07:12:19Z</time></trkpt><trkpt lat="43.525768265395" lon="10.67404187337866"><ele>178.0</ele><time>2026-04-18T07:12:20Z</time></trkpt><trkpt lat="43.52573219390739" lon="10.674184937402597"><ele>178.0</ele><time>2026-04-18T07:12:21Z</time></trkpt><trkpt lat="43.525710189806745" lon="10.67432847620829"><ele>178.0</ele><time>2026-04-18T07:12:22.001Z</time></trkpt><trkpt lat="43.525704214842335" lon="10.674471583435162"><ele>178.0</ele><time>2026-04-18T07:12:23.001Z</time></trkpt><trkpt lat="43.52568004131536" lon="10.674619938498608"><ele>178.0</ele><time>2026-04-18T07:12:24.001Z</time></trkpt><trkpt lat="43.525653486596575" lon="10.67477905846639"><ele>178.0</ele><time>2026-04-18T07:12:25.001Z</time></trkpt><trkpt lat="43.525629412205376" lon="10.674951511441051"><ele>179.25</ele><time>2026-04-18T07:12:26.001Z</time></trkpt><trkpt lat="43.52559797924503" lon="10.675127004736567"><ele>180.5</ele><time>2026-04-18T07:12:27.001Z</time></trkpt><trkpt lat="43.52557572718499" lon="10.675287450502937"><ele>181.75</ele><time>2026-04-18T07:12:28.001Z</time></trkpt><trkpt lat="43.5255442597397" lon="10.675437070813803"><ele>183.0</ele><time>2026-04-18T07:12:29.001Z</time></trkpt><trkpt lat="43.52548106227721" lon="10.675557627434983"><ele>183.0</ele><time>2026-04-18T07:12:30.001Z</time></trkpt><trkpt lat="43.52544894364984" lon="10.675681776786341"><ele>183.0</ele><time>2026-04-18T07:12:31.001Z</time></trkpt><trkpt lat="43.52539778318616" lon="10.675780849152805"><ele>183.0</ele><time>2026-04-18T07:12:32.001Z</time></trkpt><trkpt lat="43.525321385454134" lon="10.675849855573295"><ele>183.0</ele><time>2026-04-18T07:12:33.001Z</time></trkpt><trkpt lat="43.52525018779494" lon="10.675937601954097"><ele>183.0</ele><time>2026-04-18T07:12:34.001Z</time></trkpt><trkpt lat="43.525153860544805" lon="10.676037258044662"><ele>183.0</ele><time>2026-04-18T07:12:35.001Z</time></trkpt><trkpt lat="43.52506269330231" lon="10.67609865365828"><ele>183.0</ele><time>2026-04-18T07:12:36.001Z</time></trkpt><trkpt lat="43.52498916708303" lon="10.676179053866948"><ele>183.0</ele><time>2026-04-18T07:12:37.001Z</time></trkpt><trkpt lat="43.52488868737373" lon="10.676256318471337"><ele>183.0</ele><time>2026-04-18T07:12:38.001Z</time></trkpt><trkpt lat="43.524804668773704" lon="10.676351126356094"><ele>183.0</ele><time>2026-04-18T07:12:39.001Z</time></trkpt><trkpt lat="43.524728066326574" lon="10.67643114215946"><ele>182.83333333333334</ele><time>2026-04-18T07:12:40.001Z</time></trkpt><trkpt lat="43.52466553540423" lon="10.676516127913754"><ele>182.66666666666666</ele><time>2026-04-18T07:12:41.001Z</time></trkpt><trkpt lat="43.524620637220366" lon="10.676614212011362"><ele>182.5</ele><time>2026-04-18T07:12:42.001Z</time></trkpt><trkpt lat="43.524574897781505" lon="10.676715698397453"><ele>182.33333333333331</ele><time>2026-04-18T07:12:43.001Z</time></trkpt><trkpt lat="43.524546527829045" lon="10.676835213894421"><ele>182.16666666666666</ele><time>2026-04-18T07:12:44.001Z</time></trkpt><trkpt lat="43.52453015016874" lon="10.6769444929606"><ele>182.0</ele><time>2026-04-18T07:12:45.001Z</time></trkpt><trkpt lat="43.5245146423209" lon="10.677028914179878"><ele>181.5</ele><time>2026-04-18T07:12:46.001Z</time></trkpt><trkpt lat="43.52452886081582" lon="10.677169593513488"><ele>181.0</ele><time>2026-04-18T07:12:48.001Z</time></trkpt><trkpt lat="43.52459069809982" lon="10.677228438985438"><ele>180.5</ele><time>2026-04-18T07:12:49.001Z</time></trkpt><trkpt lat="43.52464181986866" lon="10.677307622759242"><ele>180.0</ele><time>2026-04-18T07:12:50.001Z</time></trkpt><trkpt lat="43.524695607173825" lon="10.67739085276888"><ele>179.5</ele><time>2026-04-18T07:12:51.001Z</time></trkpt><trkpt lat="43.52471990982974" lon="10.677483286639747"><ele>179.0</ele><time>2026-04-18T07:12:52.001Z</time></trkpt><trkpt lat="43.52474059217504" lon="10.677568752233988"><ele>178.33333333333331</ele><time>2026-04-18T07:12:53.001Z</time></trkpt><trkpt lat="43.524744368041944" lon="10.677662136079773"><ele>177.66666666666666</ele><time>2026-04-18T07:12:54.001Z</time></trkpt><trkpt lat="43.52476991032059" lon="10.677774770238933"><ele>177.0</ele><time>2026-04-18T07:12:55.001Z</time></trkpt><trkpt lat="43.52475671785079" lon="10.677901317897469"><ele>176.33333333333334</ele><time>2026-04-18T07:12:56.001Z</time></trkpt><trkpt lat="43.5247495280501" lon="10.678024763531061"><ele>175.66666666666669</ele><time>2026-04-18T07:12:57.001Z</time></trkpt><trkpt lat="43.524745794088076" lon="10.67814774853517"><ele>175.0</ele><time>2026-04-18T07:12:58.001Z</time></trkpt><trkpt lat="43.52474629649515" lon="10.67827774623715"><ele>174.4</ele><time>2026-04-18T07:12:59.001Z</time></trkpt><trkpt lat="43.524741614514696" lon="10.678411340547282"><ele>173.8</ele><time>2026-04-18T07:13:00.001Z</time></trkpt><trkpt lat="43.52477592398453" lon="10.678540262009905"><ele>173.2</ele><time>2026-04-18T07:13:01.001Z</time></trkpt><trkpt lat="43.52480760336636" lon="10.67868374659243"><ele>172.6</ele><time>2026-04-18T07:13:02.001Z</time></trkpt><trkpt lat="43.524840881585426" lon="10.678821963815942"><ele>172.0</ele><time>2026-04-18T07:13:03.001Z</time></trkpt><trkpt lat="43.52486543282825" lon="10.678941600421176"><ele>173.39999999999998</ele><time>2026-04-18T07:13:04.001Z</time></trkpt><trkpt lat="43.524854208900734" lon="10.679077006530981"><ele>174.79999999999998</ele><time>2026-04-18T07:13:05.001Z</time></trkpt><trkpt lat="43.52486166683271" lon="10.679214327166784"><ele>176.2</ele><time>2026-04-18T07:13:06.001Z</time></trkpt><trkpt lat="43.52487988933347" lon="10.679350275616752"><ele>177.6</ele><time>2026-04-18T07:13:07.001Z</time></trkpt><trkpt lat="43.524870907565244" lon="10.67948579158923"><ele>179.0</ele><time>2026-04-18T07:13:08.001Z</time></trkpt><trkpt lat="43.524856236541794" lon="10.679610264917502"><ele>179.6</ele><time>2026-04-18T07:13:09.001Z</time></trkpt><trkpt lat="43.52484452765702" lon="10.679724719714711"><ele>180.2</ele><time>2026-04-18T07:13:10.001Z</time></trkpt><trkpt lat="43.52481892339327" lon="10.679841763326124"><ele>180.79999999999998</ele><time>2026-04-18T07:13:11.001Z</time></trkpt><trkpt lat="43.52482835885421" lon="10.679968930989386"><ele>181.39999999999998</ele><time>2026-04-18T07:13:12.001Z</time></trkpt><trkpt lat="43.52485694037984" lon="10.680111905398183"><ele>182.0</ele><time>2026-04-18T07:13:13.001Z</time></trkpt><trkpt lat="43.52489529044395" lon="10.680270780963896"><ele>180.6</ele><time>2026-04-18T07:13:14.001Z</time></trkpt><trkpt lat="43.52492702160488" lon="10.68042466950254"><ele>179.2</ele><time>2026-04-18T07:13:15.001Z</time></trkpt><trkpt lat="43.524946810039545" lon="10.680563865471486"><ele>177.8</ele><time>2026-04-18T07:13:16.001Z</time></trkpt><trkpt lat="43.524953496110015" lon="10.680684389047485"><ele>176.4</ele><time>2026-04-18T07:13:17.001Z</time></trkpt><trkpt lat="43.52495402974223" lon="10.68079538671989"><ele>175.0</ele><time>2026-04-18T07:13:18.001Z</time></trkpt><trkpt lat="43.52495349414393" lon="10.680896721456598"><ele>175.0</ele><time>2026-04-18T07:13:19.001Z</time></trkpt><trkpt lat="43.524950400717145" lon="10.681041712664811"><ele>175.0</ele><time>2026-04-18T07:13:21.001Z</time></trkpt><trkpt lat="43.524945803966915" lon="10.681236950279846"><ele>175.0</ele><time>2026-04-18T07:13:23.001Z</time></trkpt><trkpt lat="43.524971917884905" lon="10.681382975214804"><ele>175.0</ele><time>2026-04-18T07:13:24.001Z</time></trkpt><trkpt lat="43.52497102881863" lon="10.681542916329091"><ele>174.25</ele><time>2026-04-18T07:13:25.001Z</time></trkpt><trkpt lat="43.52497062464634" lon="10.681713634713589"><ele>173.5</ele><time>2026-04-18T07:13:26.001Z</time></trkpt><trkpt lat="43.524969510069425" lon="10.68188003495054"><ele>172.75</ele><time>2026-04-18T07:13:27.001Z</time></trkpt><trkpt lat="43.524968788997505" lon="10.6820348781598"><ele>172.0</ele><time>2026-04-18T07:13:28.001Z</time></trkpt><trkpt lat="43.524932203790826" lon="10.682176680974738"><ele>171.66666666666669</ele><time>2026-04-18T07:13:29.001Z</time></trkpt><trkpt lat="43.52493529852744" lon="10.682302433640837"><ele>171.33333333333334</ele><time>2026-04-18T07:13:30.001Z</time></trkpt><trkpt lat="43.5249455487634" lon="10.682414089414252"><ele>171.0</ele><time>2026-04-18T07:13:31.001Z</time></trkpt><trkpt lat="43.524978331677815" lon="10.682514976057266"><ele>170.66666666666666</ele><time>2026-04-18T07:13:32.001Z</time></trkpt><trkpt lat="43.525051439384" lon="10.682570469828859"><ele>170.33333333333331</ele><time>2026-04-18T07:13:33.001Z</time></trkpt><trkpt lat="43.5251242217316" lon="10.682616103802639"><ele>170.0</ele><time>2026-04-18T07:13:34.001Z</time></trkpt><trkpt lat="43.52522195215996" lon="10.682644734806189"><ele>170.0</ele><time>2026-04-18T07:13:35.001Z</time></trkpt><trkpt lat="43.52532189717592" lon="10.682693019033907"><ele>170.0</ele><time>2026-04-18T07:13:36.001Z</time></trkpt><trkpt lat="43.52539617475434" lon="10.682747531717695"><ele>170.0</ele><time>2026-04-18T07:13:37.001Z</time></trkpt><trkpt lat="43.52546685250686" lon="10.682837972537408"><ele>170.0</ele><time>2026-04-18T07:13:38.001Z</time></trkpt><trkpt lat="43.52551572672667" lon="10.68293227481466"><ele>170.0</ele><time>2026-04-18T07:13:39.001Z</time></trkpt><trkpt lat="43.52555947860474" lon="10.683043945634509"><ele>168.8</ele><time>2026-04-18T07:13:40.001Z</time></trkpt><trkpt lat="43.52559218237011" lon="10.683133781693568"><ele>167.6</ele><time>2026-04-18T07:13:41.001Z</time></trkpt><trkpt lat="43.52563155781669" lon="10.683287335996635"><ele>166.39999999999998</ele><time>2026-04-18T07:13:43.001Z</time></trkpt><trkpt lat="43.52560966888178" lon="10.683412552099714"><ele>165.2</ele><time>2026-04-18T07:13:45.002Z</time></trkpt><trkpt lat="43.52550017757485" lon="10.683466037638048"><ele>164.0</ele><time>2026-04-18T07:13:46.002Z</time></trkpt><trkpt lat="43.52541790500605" lon="10.683531914299081"><ele>161.25</ele><time>2026-04-18T07:13:47.002Z</time></trkpt><trkpt lat="43.52531525731476" lon="10.68361512477504"><ele>158.5</ele><time>2026-04-18T07:13:48.002Z</time></trkpt><trkpt lat="43.525204130599725" lon="10.683701354081983"><ele>155.75</ele><time>2026-04-18T07:13:49Z</time></trkpt><trkpt lat="43.5250849165619" lon="10.683785869734738"><ele>153.0</ele><time>2026-04-18T07:13:50Z</time></trkpt><trkpt lat="43.524972394003065" lon="10.68386075435355"><ele>153.0</ele><time>2026-04-18T07:13:51Z</time></trkpt><trkpt lat="43.524873582316836" lon="10.683911260538864"><ele>153.0</ele><time>2026-04-18T07:13:52Z</time></trkpt><trkpt lat="43.52478458081918" lon="10.683931023762536"><ele>153.0</ele><time>2026-04-18T07:13:53Z</time></trkpt><trkpt lat="43.52470921107216" lon="10.683916323493206"><ele>153.0</ele><time>2026-04-18T07:13:54Z</time></trkpt><trkpt lat="43.52464569613007" lon="10.68385171406654"><ele>153.0</ele><time>2026-04-18T07:13:56Z</time></trkpt><trkpt lat="43.524543643832736" lon="10.683978727561776"><ele>151.4</ele><time>2026-04-18T07:13:59Z</time></trkpt><trkpt lat="43.524514322263634" lon="10.684155354561323"><ele>149.8</ele><time>2026-04-18T07:14:01Z</time></trkpt><trkpt lat="43.52450413412097" lon="10.684252322333046"><ele>148.2</ele><time>2026-04-18T07:14:02Z</time></trkpt><trkpt lat="43.5245056440695" lon="10.684343845902198"><ele>146.6</ele><time>2026-04-18T07:14:03Z</time></trkpt><trkpt lat="43.5245805882649" lon="10.684480882927383"><ele>145.0</ele><time>2026-04-18T07:14:05Z</time></trkpt><trkpt lat="43.52465645428333" lon="10.68452482992245"><ele>145.0</ele><time>2026-04-18T07:14:06Z</time></trkpt><trkpt lat="43.524767852585235" lon="10.68454974360394"><ele>145.0</ele><time>2026-04-18T07:14:07Z</time></trkpt><trkpt lat="43.52488113256322" lon="10.684578811239257"><ele>145.0</ele><time>2026-04-18T07:14:08Z</time></trkpt><trkpt lat="43.52498044087436" lon="10.684602286738118"><ele>145.0</ele><time>2026-04-18T07:14:09Z</time></trkpt><trkpt lat="43.52507277567157" lon="10.6846567229683"><ele>145.0</ele><time>2026-04-18T07:14:10Z</time></trkpt><trkpt lat="43.525162948621315" lon="10.684702488015969"><ele>145.0</ele><time>2026-04-18T07:14:11Z</time></trkpt><trkpt lat="43.525231082554306" lon="10.684788147251698"><ele>145.0</ele><time>2026-04-18T07:14:12Z</time></trkpt><trkpt lat="43.52526262880911" lon="10.684920322239309"><ele>145.0</ele><time>2026-04-18T07:14:13Z</time></trkpt><trkpt lat="43.52530275985247" lon="10.68506640267571"><ele>145.0</ele><time>2026-04-18T07:14:14Z</time></trkpt><trkpt lat="43.525334041422944" lon="10.6852451326889"><ele>145.0</ele><time>2026-04-18T07:14:15Z</time></trkpt><trkpt lat="43.52536786243047" lon="10.685433188497004"><ele>146.0</ele><time>2026-04-18T07:14:16Z</time></trkpt><trkpt lat="43.52542428759041" lon="10.685608145339902"><ele>147.0</ele><time>2026-04-18T07:14:17Z</time></trkpt><trkpt lat="43.52546867076901" lon="10.685789957842658"><ele>148.0</ele><time>2026-04-18T07:14:18Z</time></trkpt><trkpt lat="43.525512959206104" lon="10.685987432388366"><ele>149.0</ele><time>2026-04-18T07:14:19Z</time></trkpt><trkpt lat="43.52555396284199" lon="10.686200737188692"><ele>146.0</ele><time>2026-04-18T07:14:20Z</time></trkpt><trkpt lat="43.5255709234304" lon="10.686414818386808"><ele>143.0</ele><time>2026-04-18T07:14:21Z</time></trkpt><trkpt lat="43.52558201719891" lon="10.686610578190654"><ele>140.0</ele><time>2026-04-18T07:14:22Z</time></trkpt><trkpt lat="43.52557965872354" lon="10.686805707433148"><ele>137.0</ele><time>2026-04-18T07:14:23Z</time></trkpt><trkpt lat="43.52554857881224" lon="10.686983961556729"><ele>135.25</ele><time>2026-04-18T07:14:24Z</time></trkpt><trkpt lat="43.52552520727339" lon="10.687179240915171"><ele>133.5</ele><time>2026-04-18T07:14:25Z</time></trkpt><trkpt lat="43.52544445212743" lon="10.687352886677756"><ele>131.75</ele><time>2026-04-18T07:14:26Z</time></trkpt><trkpt lat="43.52538309637328" lon="10.687546794809096"><ele>130.0</ele><time>2026-04-18T07:14:27Z</time></trkpt><trkpt lat="43.5253356799577" lon="10.68774367062228"><ele>127.75</ele><time>2026-04-18T07:14:28Z</time></trkpt><trkpt lat="43.52528023076151" lon="10.687935255513814"><ele>125.5</ele><time>2026-04-18T07:14:29Z</time></trkpt><trkpt lat="43.525234574211424" lon="10.688129847999008"><ele>123.25</ele><time>2026-04-18T07:14:30Z</time></trkpt><trkpt lat="43.525197224107316" lon="10.688330202002906"><ele>121.0</ele><time>2026-04-18T07:14:31Z</time></trkpt><trkpt lat="43.52516303388276" lon="10.688531880678218"><ele>120.75</ele><time>2026-04-18T07:14:32Z</time></trkpt><trkpt lat="43.52514291628231" lon="10.688734045653426"><ele>120.5</ele><time>2026-04-18T07:14:33Z</time></trkpt><trkpt lat="43.52512443228903" lon="10.688941178755687"><ele>120.25</ele><time>2026-04-18T07:14:34Z</time></trkpt><trkpt lat="43.525084661738276" lon="10.689133938135269"><ele>120.0</ele><time>2026-04-18T07:14:35Z</time></trkpt><trkpt lat="43.52505536271244" lon="10.689319525045553"><ele>120.0</ele><time>2026-04-18T07:14:36.001Z</time></trkpt><trkpt lat="43.52504301326729" lon="10.689502628944954"><ele>120.0</ele><time>2026-04-18T07:14:37.001Z</time></trkpt><trkpt lat="43.52501191859509" lon="10.68968387133459"><ele>120.0</ele><time>2026-04-18T07:14:38.001Z</time></trkpt><trkpt lat="43.52498844044388" lon="10.689865757272909"><ele>120.0</ele><time>2026-04-18T07:14:39.001Z</time></trkpt><trkpt lat="43.52498783085387" lon="10.690058917591488"><ele>118.66666666666666</ele><time>2026-04-18T07:14:40.001Z</time></trkpt><trkpt lat="43.525003572536086" lon="10.690260366431142"><ele>117.33333333333333</ele><time>2026-04-18T07:14:41.001Z</time></trkpt><trkpt lat="43.525040853148724" lon="10.690476004937695"><ele>116.0</ele><time>2026-04-18T07:14:42.001Z</time></trkpt><trkpt lat="43.52505828781807" lon="10.69069833779345"><ele>116.0</ele><time>2026-04-18T07:14:43.001Z</time></trkpt><trkpt lat="43.525087797324275" lon="10.690931854373236"><ele>116.0</ele><time>2026-04-18T07:14:44.001Z</time></trkpt><trkpt lat="43.52511761072803" lon="10.691170533610391"><ele>116.0</ele><time>2026-04-18T07:14:45.001Z</time></trkpt><trkpt lat="43.525171442502106" lon="10.691402846049515"><ele>114.0</ele><time>2026-04-18T07:14:46.001Z</time></trkpt><trkpt lat="43.52523280085743" lon="10.691631562311173"><ele>112.0</ele><time>2026-04-18T07:14:47.001Z</time></trkpt><trkpt lat="43.525281161388214" lon="10.691849857286906"><ele>110.0</ele><time>2026-04-18T07:14:48.001Z</time></trkpt><trkpt lat="43.5253239862118" lon="10.692045871109874"><ele>109.75</ele><time>2026-04-18T07:14:49.001Z</time></trkpt><trkpt lat="43.5253511989737" lon="10.692235464891006"><ele>109.5</ele><time>2026-04-18T07:14:50.001Z</time></trkpt><trkpt lat="43.525371588674574" lon="10.692421841557065"><ele>109.25</ele><time>2026-04-18T07:14:51.001Z</time></trkpt><trkpt lat="43.52538755700659" lon="10.692610938721838"><ele>109.0</ele><time>2026-04-18T07:14:52.001Z</time></trkpt><trkpt lat="43.52539743431046" lon="10.692794576422012"><ele>109.0</ele><time>2026-04-18T07:14:53.001Z</time></trkpt><trkpt lat="43.52539884906963" lon="10.69298039878462"><ele>109.0</ele><time>2026-04-18T07:14:54.001Z</time></trkpt><trkpt lat="43.525403932479556" lon="10.693157374034685"><ele>109.0</ele><time>2026-04-18T07:14:55.001Z</time></trkpt><trkpt lat="43.5254316039997" lon="10.693319094370297"><ele>109.0</ele><time>2026-04-18T07:14:56.001Z</time></trkpt><trkpt lat="43.52546538037809" lon="10.693473542949075"><ele>108.5</ele><time>2026-04-18T07:14:57.001Z</time></trkpt><trkpt lat="43.52553364198981" lon="10.693633856562371"><ele>108.0</ele><time>2026-04-18T07:14:58.001Z</time></trkpt><trkpt lat="43.5256202817235" lon="10.693802552688075"><ele>107.5</ele><time>2026-04-18T07:14:59.001Z</time></trkpt><trkpt lat="43.52568310726594" lon="10.693974022307634"><ele>107.0</ele><time>2026-04-18T07:15:00.001Z</time></trkpt><trkpt lat="43.525753285831755" lon="10.694112474064344"><ele>107.0</ele><time>2026-04-18T07:15:01.001Z</time></trkpt><trkpt lat="43.525796278757134" lon="10.69427133604477"><ele>107.0</ele><time>2026-04-18T07:15:02.001Z</time></trkpt><trkpt lat="43.52585401871222" lon="10.694420597026314"><ele>107.0</ele><time>2026-04-18T07:15:03.001Z</time></trkpt><trkpt lat="43.525850634381456" lon="10.694595935526642"><ele>107.0</ele><time>2026-04-18T07:15:04.001Z</time></trkpt><trkpt lat="43.52586599697169" lon="10.69477979425445"><ele>106.5</ele><time>2026-04-18T07:15:05.001Z</time></trkpt><trkpt lat="43.52582269541946" lon="10.694948717823094"><ele>106.0</ele><time>2026-04-18T07:15:06.001Z</time></trkpt><trkpt lat="43.52577641804667" lon="10.695093785866753"><ele>105.5</ele><time>2026-04-18T07:15:07.001Z</time></trkpt><trkpt lat="43.52572272794557" lon="10.695232680081107"><ele>105.0</ele><time>2026-04-18T07:15:08.001Z</time></trkpt><trkpt lat="43.52564105577057" lon="10.695331079250192"><ele>104.0</ele><time>2026-04-18T07:15:09.001Z</time></trkpt><trkpt lat="43.52559199962005" lon="10.695438681593295"><ele>103.0</ele><time>2026-04-18T07:15:10.001Z</time></trkpt><trkpt lat="43.52559495209099" lon="10.695569963358006"><ele>102.0</ele><time>2026-04-18T07:15:11.001Z</time></trkpt><trkpt lat="43.5256394986185" lon="10.695717448191195"><ele>101.0</ele><time>2026-04-18T07:15:12.001Z</time></trkpt><trkpt lat="43.52569718660362" lon="10.695879844768834"><ele>100.0</ele><time>2026-04-18T07:15:13.001Z</time></trkpt><trkpt lat="43.525742971272486" lon="10.696048949382226"><ele>98.75</ele><time>2026-04-18T07:15:14.001Z</time></trkpt><trkpt lat="43.525743814816806" lon="10.696223526695528"><ele>97.5</ele><time>2026-04-18T07:15:15.001Z</time></trkpt><trkpt lat="43.52573762885903" lon="10.696398375493406"><ele>96.25</ele><time>2026-04-18T07:15:16.001Z</time></trkpt><trkpt lat="43.52571030552019" lon="10.696593531586652"><ele>95.0</ele><time>2026-04-18T07:15:17.001Z</time></trkpt><trkpt lat="43.52567976255223" lon="10.696783640652704"><ele>94.5</ele><time>2026-04-18T07:15:18.001Z</time></trkpt><trkpt lat="43.52566632232801" lon="10.696967240180001"><ele>94.0</ele><time>2026-04-18T07:15:19.001Z</time></trkpt><trkpt lat="43.525609908763556" lon="10.69712245223921"><ele>93.5</ele><time>2026-04-18T07:15:20.001Z</time></trkpt><trkpt lat="43.52554443350397" lon="10.69725996414701"><ele>93.0</ele><time>2026-04-18T07:15:21.001Z</time></trkpt><trkpt lat="43.52547618126424" lon="10.697396962516528"><ele>93.0</ele><time>2026-04-18T07:15:22.001Z</time></trkpt><trkpt lat="43.52543408987415" lon="10.697547101029487"><ele>93.0</ele><time>2026-04-18T07:15:23.001Z</time></trkpt><trkpt lat="43.52539874095825" lon="10.697689985049745"><ele>93.0</ele><time>2026-04-18T07:15:24.001Z</time></trkpt><trkpt lat="43.52539111336165" lon="10.697847714955842"><ele>93.0</ele><time>2026-04-18T07:15:25.001Z</time></trkpt><trkpt lat="43.525401294533104" lon="10.698002095938866"><ele>92.0</ele><time>2026-04-18T07:15:26.001Z</time></trkpt><trkpt lat="43.525429083678425" lon="10.698153860510072"><ele>91.0</ele><time>2026-04-18T07:15:27.001Z</time></trkpt><trkpt lat="43.52547093617331" lon="10.698320006988263"><ele>90.0</ele><time>2026-04-18T07:15:28.001Z</time></trkpt><trkpt lat="43.525508189387445" lon="10.698485555476394"><ele>89.0</ele><time>2026-04-18T07:15:29.001Z</time></trkpt><trkpt lat="43.52550546717528" lon="10.698645790322496"><ele>88.25</ele><time>2026-04-18T07:15:30.001Z</time></trkpt><trkpt lat="43.52549867889675" lon="10.698796202084853"><ele>87.5</ele><time>2026-04-18T07:15:31.001Z</time></trkpt><trkpt lat="43.52547578352472" lon="10.698963258274256"><ele>86.75</ele><time>2026-04-18T07:15:32.001Z</time></trkpt><trkpt lat="43.525426011503875" lon="10.699135273816495"><ele>86.0</ele><time>2026-04-18T07:15:33.001Z</time></trkpt><trkpt lat="43.5253620229461" lon="10.69928425856078"><ele>81.2</ele><time>2026-04-18T07:15:34.001Z</time></trkpt><trkpt lat="43.52530684643595" lon="10.699423815563959"><ele>76.39999999999999</ele><time>2026-04-18T07:15:35.001Z</time></trkpt><trkpt lat="43.5252782976117" lon="10.699550176891927"><ele>71.6</ele><time>2026-04-18T07:15:36.001Z</time></trkpt><trkpt lat="43.52527330986066" lon="10.699674763895409"><ele>66.8</ele><time>2026-04-18T07:15:37.001Z</time></trkpt><trkpt lat="43.525308100515225" lon="10.699809913064867"><ele>62.0</ele><time>2026-04-18T07:15:38.001Z</time></trkpt><trkpt lat="43.525363135016235" lon="10.699961765985556"><ele>63.0</ele><time>2026-04-18T07:15:39.001Z</time></trkpt><trkpt lat="43.525432368301715" lon="10.700124610048404"><ele>64.0</ele><time>2026-04-18T07:15:40.001Z</time></trkpt><trkpt lat="43.52548988477745" lon="10.700285681347225"><ele>65.0</ele><time>2026-04-18T07:15:41.001Z</time></trkpt><trkpt lat="43.525527564015185" lon="10.700442098268494"><ele>66.0</ele><time>2026-04-18T07:15:42.001Z</time></trkpt><trkpt lat="43.52557633167836" lon="10.70058216038609"><ele>66.0</ele><time>2026-04-18T07:15:43.001Z</time></trkpt><trkpt lat="43.52562201674198" lon="10.700718102006574"><ele>66.0</ele><time>2026-04-18T07:15:44.001Z</time></trkpt><trkpt lat="43.525675119190964" lon="10.700855783796657"><ele>66.0</ele><time>2026-04-18T07:15:45.001Z</time></trkpt><trkpt lat="43.52570734419198" lon="10.701003694800796"><ele>66.0</ele><time>2026-04-18T07:15:46.001Z</time></trkpt><trkpt lat="43.52573149658562" lon="10.701148919249437"><ele>66.0</ele><time>2026-04-18T07:15:47.001Z</time></trkpt><trkpt lat="43.52573848743017" lon="10.701294910388517"><ele>64.8</ele><time>2026-04-18T07:15:48.001Z</time></trkpt><trkpt lat="43.52574037265278" lon="10.701441762983956"><ele>63.599999999999994</ele><time>2026-04-18T07:15:49.001Z</time></trkpt><trkpt lat="43.52573876327289" lon="10.701581977276753"><ele>62.4</ele><time>2026-04-18T07:15:50.001Z</time></trkpt><trkpt lat="43.52574056291618" lon="10.701720829127263"><ele>61.2</ele><time>2026-04-18T07:15:51.001Z</time></trkpt><trkpt lat="43.52574704752352" lon="10.701852700551498"><ele>60.0</ele><time>2026-04-18T07:15:52.001Z</time></trkpt><trkpt lat="43.52575850246459" lon="10.701981097515718"><ele>59.5</ele><time>2026-04-18T07:15:53.001Z</time></trkpt><trkpt lat="43.52578524432093" lon="10.70210063761983"><ele>59.0</ele><time>2026-04-18T07:15:54.001Z</time></trkpt><trkpt lat="43.525823233534595" lon="10.702213286314052"><ele>58.5</ele><time>2026-04-18T07:15:55Z</time></trkpt><trkpt lat="43.52584912154433" lon="10.702322238563884"><ele>58.0</ele><time>2026-04-18T07:15:56Z</time></trkpt><trkpt lat="43.5258840582603" lon="10.702420950236762"><ele>57.5</ele><time>2026-04-18T07:15:57Z</time></trkpt><trkpt lat="43.52591245124772" lon="10.702510516376263"><ele>57.0</ele><time>2026-04-18T07:15:58Z</time></trkpt><trkpt lat="43.52593958318502" lon="10.702605535302675"><ele>57.0</ele><time>2026-04-18T07:16:00Z</time></trkpt><trkpt lat="43.52596468515632" lon="10.702698700909648"><ele>57.0</ele><time>2026-04-18T07:16:03Z</time></trkpt><trkpt lat="43.5261141524932" lon="10.702690818628179"><ele>57.0</ele><time>2026-04-18T07:17:50.001Z</time></trkpt><trkpt lat="43.52618169008723" lon="10.7026220495803"><ele>57.0</ele><time>2026-04-18T07:17:51.001Z</time></trkpt><trkpt lat="43.52626255267571" lon="10.702556861852413"><ele>57.0</ele><time>2026-04-18T07:17:52.001Z</time></trkpt><trkpt lat="43.52634299570556" lon="10.702490897588675"><ele>56.8</ele><time>2026-04-18T07:17:53.001Z</time></trkpt><trkpt lat="43.526432098121795" lon="10.702425212167563"><ele>56.6</ele><time>2026-04-18T07:17:54.001Z</time></trkpt><trkpt lat="43.526538928157" lon="10.702368617094983"><ele>56.39999999999999</ele><time>2026-04-18T07:17:55.001Z</time></trkpt><trkpt lat="43.526650721132434" lon="10.702330285814838"><ele>56.199999999999996</ele><time>2026-04-18T07:17:56.001Z</time></trkpt><trkpt lat="43.52676110245484" lon="10.702307516302751"><ele>56.0</ele><time>2026-04-18T07:17:57.001Z</time></trkpt><trkpt lat="43.526864220960306" lon="10.70229759360118"><ele>56.00000000000001</ele><time>2026-04-18T07:17:58.001Z</time></trkpt><trkpt lat="43.526954861147615" lon="10.702292378483124"><ele>56.0</ele><time>2026-04-18T07:17:59.001Z</time></trkpt><trkpt lat="43.527038621454295" lon="10.702290006280423"><ele>56.0</ele><time>2026-04-18T07:18:00.001Z</time></trkpt><trkpt lat="43.52710922953883" lon="10.702289957635367"><ele>56.0</ele><time>2026-04-18T07:18:01.001Z</time></trkpt><trkpt lat="43.52719979102375" lon="10.702300359539512"><ele>56.00000000000001</ele><time>2026-04-18T07:18:03.001Z</time></trkpt><trkpt lat="43.52727248015308" lon="10.702305322810716"><ele>56.0</ele><time>2026-04-18T07:20:19.001Z</time></trkpt><trkpt lat="43.5273632341316" lon="10.702270417904137"><ele>56.00000000000001</ele><time>2026-04-18T07:20:21.001Z</time></trkpt><trkpt lat="43.52744229421606" lon="10.702277788755653"><ele>56.0</ele><time>2026-04-18T07:20:22.001Z</time></trkpt><trkpt lat="43.52752614281511" lon="10.702270568006067"><ele>56.0</ele><time>2026-04-18T07:20:23.001Z</time></trkpt><trkpt lat="43.52760099290459" lon="10.702267444586948"><ele>56.0</ele><time>2026-04-18T07:20:24.001Z</time></trkpt><trkpt lat="43.52768730886219" lon="10.702268175582137"><ele>56.00000000000001</ele><time>2026-04-18T07:20:26.001Z</time></trkpt><trkpt lat="43.52776870180731" lon="10.702267390253168"><ele>56.0</ele><time>2026-04-18T07:20:28.001Z</time></trkpt><trkpt lat="43.52784116487101" lon="10.702267227460826"><ele>56.5</ele><time>2026-04-18T07:20:29.001Z</time></trkpt><trkpt lat="43.527938426116435" lon="10.70226443388007"><ele>57.0</ele><time>2026-04-18T07:20:30.001Z</time></trkpt><trkpt lat="43.528045442571894" lon="10.702260584608469"><ele>57.5</ele><time>2026-04-18T07:20:31.001Z</time></trkpt><trkpt lat="43.52816850868733" lon="10.702252692535499"><ele>58.0</ele><time>2026-04-18T07:20:32.001Z</time></trkpt><trkpt lat="43.52830700979852" lon="10.702244061370688"><ele>58.0</ele><time>2026-04-18T07:20:33.001Z</time></trkpt><trkpt lat="43.528443550426225" lon="10.702239246572306"><ele>58.0</ele><time>2026-04-18T07:20:34.001Z</time></trkpt><trkpt lat="43.52858753386997" lon="10.702234709159097"><ele>58.0</ele><time>2026-04-18T07:20:35.001Z</time></trkpt><trkpt lat="43.52874134799845" lon="10.702227998658048"><ele>58.0</ele><time>2026-04-18T07:20:36.001Z</time></trkpt><trkpt lat="43.52890232698417" lon="10.702219634481862"><ele>57.0</ele><time>2026-04-18T07:20:37.001Z</time></trkpt><trkpt lat="43.529066878567164" lon="10.702209370340093"><ele>56.0</ele><time>2026-04-18T07:20:38.001Z</time></trkpt><trkpt lat="43.52923581082215" lon="10.702199463337308"><ele>55.0</ele><time>2026-04-18T07:20:39.001Z</time></trkpt><trkpt lat="43.529413263605456" lon="10.702178673704887"><ele>54.666666666666664</ele><time>2026-04-18T07:20:40.001Z</time></trkpt><trkpt lat="43.52959663919418" lon="10.702159456163841"><ele>54.33333333333333</ele><time>2026-04-18T07:20:41.001Z</time></trkpt><trkpt lat="43.52978385819773" lon="10.702138334386103"><ele>54.0</ele><time>2026-04-18T07:20:42.001Z</time></trkpt><trkpt lat="43.52997679521712" lon="10.702114323220489"><ele>54.0</ele><time>2026-04-18T07:20:43.001Z</time></trkpt><trkpt lat="43.530169353344334" lon="10.702089867489038"><ele>54.0</ele><time>2026-04-18T07:20:44.001Z</time></trkpt><trkpt lat="43.530362275777" lon="10.702067005180908"><ele>54.0</ele><time>2026-04-18T07:20:45.001Z</time></trkpt><trkpt lat="43.5305560703076" lon="10.702040134072245"><ele>54.33333333333333</ele><time>2026-04-18T07:20:46.001Z</time></trkpt><trkpt lat="43.530750134394246" lon="10.70201311954836"><ele>54.666666666666664</ele><time>2026-04-18T07:20:47.001Z</time></trkpt><trkpt lat="43.53094402604461" lon="10.701986238535884"><ele>55.0</ele><time>2026-04-18T07:20:48.001Z</time></trkpt><trkpt lat="43.53113968409327" lon="10.701950623219163"><ele>55.0</ele><time>2026-04-18T07:20:49.001Z</time></trkpt><trkpt lat="43.53133438857612" lon="10.701913020989155"><ele>55.0</ele><time>2026-04-18T07:20:50.001Z</time></trkpt><trkpt lat="43.53152936544367" lon="10.70187221904951"><ele>55.0</ele><time>2026-04-18T07:20:51.001Z</time></trkpt><trkpt lat="43.531725231228705" lon="10.701831051780953"><ele>55.0</ele><time>2026-04-18T07:20:52.001Z</time></trkpt><trkpt lat="43.53192029914677" lon="10.701788680282158"><ele>55.0</ele><time>2026-04-18T07:20:53.001Z</time></trkpt><trkpt lat="43.532113047013986" lon="10.701752478363701"><ele>55.0</ele><time>2026-04-18T07:20:54.001Z</time></trkpt><trkpt lat="43.53230788103585" lon="10.701718202113025"><ele>55.0</ele><time>2026-04-18T07:20:55.001Z</time></trkpt><trkpt lat="43.532500822367766" lon="10.701677266539958"><ele>55.0</ele><time>2026-04-18T07:20:56.001Z</time></trkpt><trkpt lat="43.532693509484716" lon="10.701634265360857"><ele>55.0</ele><time>2026-04-18T07:20:57.001Z</time></trkpt><trkpt lat="43.532885592070095" lon="10.701596619849465"><ele>55.33333333333333</ele><time>2026-04-18T07:20:58.001Z</time></trkpt><trkpt lat="43.53307670944577" lon="10.701559213950585"><ele>55.66666666666667</ele><time>2026-04-18T07:20:59.001Z</time></trkpt><trkpt lat="43.53326631657543" lon="10.70152148574186"><ele>56.0</ele><time>2026-04-18T07:21:00.001Z</time></trkpt><trkpt lat="43.53345640068369" lon="10.701482211749653"><ele>56.0</ele><time>2026-04-18T07:21:01.001Z</time></trkpt><trkpt lat="43.533643373698126" lon="10.701443728800239"><ele>56.0</ele><time>2026-04-18T07:21:02.001Z</time></trkpt><trkpt lat="43.53381944740832" lon="10.701405728496212"><ele>56.0</ele><time>2026-04-18T07:21:03.001Z</time></trkpt><trkpt lat="43.53398484349983" lon="10.70137798622946"><ele>56.66666666666667</ele><time>2026-04-18T07:21:04.001Z</time></trkpt><trkpt lat="43.53414711253929" lon="10.701336059416976"><ele>57.33333333333333</ele><time>2026-04-18T07:21:05.001Z</time></trkpt><trkpt lat="43.53430789208847" lon="10.701302452498041"><ele>58.0</ele><time>2026-04-18T07:21:06.001Z</time></trkpt><trkpt lat="43.53446558308199" lon="10.701267324887118"><ele>57.5</ele><time>2026-04-18T07:21:07.001Z</time></trkpt><trkpt lat="43.53461457390392" lon="10.701243450390324"><ele>57.0</ele><time>2026-04-18T07:21:08.001Z</time></trkpt><trkpt lat="43.534756884883635" lon="10.701215504415993"><ele>56.5</ele><time>2026-04-18T07:21:09.001Z</time></trkpt><trkpt lat="43.5348992465096" lon="10.70118669144814"><ele>56.0</ele><time>2026-04-18T07:21:10.001Z</time></trkpt><trkpt lat="43.53504062886708" lon="10.701160804129708"><ele>56.0</ele><time>2026-04-18T07:21:11.001Z</time></trkpt><trkpt lat="43.53517423464919" lon="10.70113459874511"><ele>56.0</ele><time>2026-04-18T07:21:12.001Z</time></trkpt><trkpt lat="43.53529670673698" lon="10.701104708293187"><ele>56.0</ele><time>2026-04-18T07:21:13.001Z</time></trkpt><trkpt lat="43.53542197996147" lon="10.70107350006256"><ele>56.0</ele><time>2026-04-18T07:21:14.001Z</time></trkpt><trkpt lat="43.53553949906327" lon="10.701050037784826"><ele>56.199999999999996</ele><time>2026-04-18T07:21:15.001Z</time></trkpt><trkpt lat="43.5356483131183" lon="10.70102829498138"><ele>56.39999999999999</ele><time>2026-04-18T07:21:16.001Z</time></trkpt><trkpt lat="43.53575417759778" lon="10.701003838563846"><ele>56.6</ele><time>2026-04-18T07:21:17.001Z</time></trkpt><trkpt lat="43.53586497688912" lon="10.700976656895378"><ele>56.8</ele><time>2026-04-18T07:21:18.001Z</time></trkpt><trkpt lat="43.535977024685664" lon="10.700948103869438"><ele>57.0</ele><time>2026-04-18T07:21:19.001Z</time></trkpt><trkpt lat="43.5360913853868" lon="10.700920839204352"><ele>57.0</ele><time>2026-04-18T07:21:20.001Z</time></trkpt><trkpt lat="43.53620026550636" lon="10.700896107735714"><ele>57.0</ele><time>2026-04-18T07:21:21.001Z</time></trkpt><trkpt lat="43.536303066182704" lon="10.700873489571453"><ele>57.0</ele><time>2026-04-18T07:21:22.001Z</time></trkpt><trkpt lat="43.536415274329336" lon="10.700870214451601"><ele>57.0</ele><time>2026-04-18T07:21:23.001Z</time></trkpt><trkpt lat="43.53653763853195" lon="10.700844122344643"><ele>56.5</ele><time>2026-04-18T07:21:24.001Z</time></trkpt><trkpt lat="43.53666113325694" lon="10.700817789187024"><ele>56.0</ele><time>2026-04-18T07:21:25.001Z</time></trkpt><trkpt lat="43.5367848897591" lon="10.700769927458841"><ele>55.5</ele><time>2026-04-18T07:21:26.001Z</time></trkpt><trkpt lat="43.53690775729789" lon="10.70074301172561"><ele>55.0</ele><time>2026-04-18T07:21:27.001Z</time></trkpt><trkpt lat="43.537019941091835" lon="10.700725224839562"><ele>55.4</ele><time>2026-04-18T07:21:28.001Z</time></trkpt><trkpt lat="43.53712425374559" lon="10.700716032469272"><ele>55.8</ele><time>2026-04-18T07:21:29.001Z</time></trkpt><trkpt lat="43.53721151360607" lon="10.700698664351934"><ele>56.2</ele><time>2026-04-18T07:21:30.001Z</time></trkpt><trkpt lat="43.53728531950207" lon="10.700680595091924"><ele>56.6</ele><time>2026-04-18T07:21:31.001Z</time></trkpt><trkpt lat="43.537374450069365" lon="10.700695076381555"><ele>57.0</ele><time>2026-04-18T07:21:33.001Z</time></trkpt><trkpt lat="43.537379549754526" lon="10.700841823003383"><ele>57.0</ele><time>2026-04-18T07:21:35.001Z</time></trkpt><trkpt lat="43.537398685793015" lon="10.700978280349263"><ele>57.0</ele><time>2026-04-18T07:21:37.001Z</time></trkpt><trkpt lat="43.53741518411561" lon="10.70110134763547"><ele>57.0</ele><time>2026-04-18T07:21:40.001Z</time></trkpt><trkpt lat="43.53742740693245" lon="10.701186709729244"><ele>57.0</ele><time>2026-04-18T07:21:42.001Z</time></trkpt><trkpt lat="43.53744309980346" lon="10.701283825590346"><ele>57.0</ele><time>2026-04-18T07:21:54.001Z</time></trkpt><trkpt lat="43.53743638512719" lon="10.701171172085978"><ele>57.0</ele><time>2026-04-18T07:22:06.001Z</time></trkpt><trkpt lat="43.53741888316733" lon="10.701048896951425"><ele>57.0</ele><time>2026-04-18T07:22:08.001Z</time></trkpt><trkpt lat="43.53740256568183" lon="10.70093098239792"><ele>57.0</ele><time>2026-04-18T07:22:10.001Z</time></trkpt><trkpt lat="43.537388847853045" lon="10.70082734459765"><ele>57.0</ele><time>2026-04-18T07:22:12.001Z</time></trkpt><trkpt lat="43.537366595232584" lon="10.700735243045274"><ele>57.0</ele><time>2026-04-18T07:22:14.999Z</time></trkpt><trkpt lat="43.53772253671687" lon="10.70060045256285"><ele>57.0</ele><time>2026-04-18T07:22:19.999Z</time></trkpt><trkpt lat="43.53782747132363" lon="10.700589735342078"><ele>57.0</ele><time>2026-04-18T07:22:20.999Z</time></trkpt><trkpt lat="43.53793061752701" lon="10.70057354866119"><ele>57.0</ele><time>2026-04-18T07:22:21.999Z</time></trkpt><trkpt lat="43.53804051467388" lon="10.700558226409928"><ele>57.0</ele><time>2026-04-18T07:22:22.999Z</time></trkpt><trkpt lat="43.53814245007577" lon="10.700541193576798"><ele>57.0</ele><time>2026-04-18T07:22:23.999Z</time></trkpt><trkpt lat="43.53823647026006" lon="10.700526055525305"><ele>57.0</ele><time>2026-04-18T07:22:24.999Z</time></trkpt><trkpt lat="43.53831702655117" lon="10.700517217880606"><ele>57.0</ele><time>2026-04-18T07:22:25.999Z</time></trkpt><trkpt lat="43.538386505906644" lon="10.700508597226754"><ele>57.0</ele><time>2026-04-18T07:22:26.999Z</time></trkpt><trkpt lat="43.538493532336105" lon="10.700498934876034"><ele>57.0</ele><time>2026-04-18T07:22:28.999Z</time></trkpt><trkpt lat="43.538568418976986" lon="10.700564323506544"><ele>57.0</ele><time>2026-04-18T07:22:31.999Z</time></trkpt><trkpt lat="43.53857178124064" lon="10.700725417021964"><ele>57.0</ele><time>2026-04-18T07:22:33.999Z</time></trkpt><trkpt lat="43.53858008080655" lon="10.70082356375141"><ele>56.99999999999999</ele><time>2026-04-18T07:22:34.999Z</time></trkpt><trkpt lat="43.53859554034212" lon="10.700929102935541"><ele>57.0</ele><time>2026-04-18T07:22:36Z</time></trkpt><trkpt lat="43.53860985042308" lon="10.701034875653892"><ele>57.0</ele><time>2026-04-18T07:22:37Z</time></trkpt><trkpt lat="43.53862420349689" lon="10.701131679691477"><ele>56.99999999999999</ele><time>2026-04-18T07:22:38Z</time></trkpt><trkpt lat="43.5386400347486" lon="10.701230516355682"><ele>57.0</ele><time>2026-04-18T07:22:39Z</time></trkpt><trkpt lat="43.538657054064856" lon="10.701332689683069"><ele>57.0</ele><time>2026-04-18T07:22:40Z</time></trkpt><trkpt lat="43.53867100003398" lon="10.701449440892656"><ele>56.666666666666664</ele><time>2026-04-18T07:22:41Z</time></trkpt><trkpt lat="43.53868508955666" lon="10.70156784191084"><ele>56.33333333333333</ele><time>2026-04-18T07:22:42Z</time></trkpt><trkpt lat="43.53869689982394" lon="10.701686976915328"><ele>56.0</ele><time>2026-04-18T07:22:43Z</time></trkpt><trkpt lat="43.538708081274805" lon="10.701794757994419"><ele>55.666666666666664</ele><time>2026-04-18T07:22:44Z</time></trkpt><trkpt lat="43.53872175118754" lon="10.7019091119133"><ele>55.33333333333333</ele><time>2026-04-18T07:22:45Z</time></trkpt><trkpt lat="43.5387335440304" lon="10.702009649094098"><ele>55.0</ele><time>2026-04-18T07:22:46Z</time></trkpt><trkpt lat="43.538745207103304" lon="10.702104348261301"><ele>54.99999999999999</ele><time>2026-04-18T07:22:47Z</time></trkpt><trkpt lat="43.53875523653729" lon="10.70219619044942"><ele>55.0</ele><time>2026-04-18T07:22:48Z</time></trkpt><trkpt lat="43.53876600915402" lon="10.702286330978538"><ele>55.0</ele><time>2026-04-18T07:22:49Z</time></trkpt><trkpt lat="43.53878499972583" lon="10.702432691734783"><ele>55.0</ele><time>2026-04-18T07:22:51Z</time></trkpt><trkpt lat="43.53879610360309" lon="10.702542925430398"><ele>54.99999999999999</ele><time>2026-04-18T07:22:53Z</time></trkpt><trkpt lat="43.53877581393818" lon="10.702636866697793"><ele>55.0</ele><time>2026-04-18T07:22:55Z</time></trkpt><trkpt lat="43.53874413368217" lon="10.702731294737097"><ele>54.857142857142854</ele><time>2026-04-18T07:22:57Z</time></trkpt><trkpt lat="43.53872929352698" lon="10.702837417170214"><ele>54.714285714285715</ele><time>2026-04-18T07:22:59Z</time></trkpt><trkpt lat="43.5387422030934" lon="10.702935031938747"><ele>54.57142857142857</ele><time>2026-04-18T07:23:01Z</time></trkpt><trkpt lat="43.538727884846296" lon="10.703020596509257"><ele>54.42857142857143</ele><time>2026-04-18T07:23:03Z</time></trkpt><trkpt lat="43.53871207526749" lon="10.703146579457707"><ele>54.285714285714285</ele><time>2026-04-18T07:23:06Z</time></trkpt><trkpt lat="43.53869168920976" lon="10.703229379626057"><ele>54.14285714285714</ele><time>2026-04-18T07:23:08Z</time></trkpt><trkpt lat="43.53867664260571" lon="10.703323281482412"><ele>54.0</ele><time>2026-04-18T07:23:10Z</time></trkpt><trkpt lat="43.5386293294304" lon="10.703414151083779"><ele>53.6</ele><time>2026-04-18T07:23:12Z</time></trkpt><trkpt lat="43.53859196376532" lon="10.703522825343336"><ele>53.2</ele><time>2026-04-18T07:23:14Z</time></trkpt><trkpt lat="43.538619354787976" lon="10.703630608748954"><ele>52.800000000000004</ele><time>2026-04-18T07:23:15Z</time></trkpt><trkpt lat="43.538636666094185" lon="10.703782413206921"><ele>52.400000000000006</ele><time>2026-04-18T07:23:17Z</time></trkpt><trkpt lat="43.53863919451576" lon="10.703929834425669"><ele>52.0</ele><time>2026-04-18T07:23:19Z</time></trkpt><trkpt lat="43.53866424519484" lon="10.704090030808741"><ele>51.666666666666664</ele><time>2026-04-18T07:23:21Z</time></trkpt><trkpt lat="43.538731902388335" lon="10.704224128495355"><ele>51.33333333333333</ele><time>2026-04-18T07:23:23Z</time></trkpt><trkpt lat="43.538775240655404" lon="10.704289199308738"><ele>51.0</ele><time>2026-04-18T07:23:24Z</time></trkpt><trkpt lat="43.53883044494487" lon="10.70435476392123"><ele>50.66666666666667</ele><time>2026-04-18T07:23:25Z</time></trkpt><trkpt lat="43.53888216697577" lon="10.704413167320604"><ele>50.333333333333336</ele><time>2026-04-18T07:23:26Z</time></trkpt><trkpt lat="43.53893241629174" lon="10.704472889441774"><ele>50.0</ele><time>2026-04-18T07:23:27Z</time></trkpt><trkpt lat="43.53901770012423" lon="10.704584694818836"><ele>50.0</ele><time>2026-04-18T07:23:29Z</time></trkpt><trkpt lat="43.53907010455774" lon="10.7047217203929"><ele>50.0</ele><time>2026-04-18T07:23:31Z</time></trkpt><trkpt lat="43.539078374555636" lon="10.704876736039893"><ele>50.0</ele><time>2026-04-18T07:23:33Z</time></trkpt><trkpt lat="43.53906227318199" lon="10.705036900076411"><ele>50.0</ele><time>2026-04-18T07:23:35Z</time></trkpt><trkpt lat="43.53904811702721" lon="10.70518424708745"><ele>50.00000000000001</ele><time>2026-04-18T07:23:37Z</time></trkpt><trkpt lat="43.539042099075786" lon="10.705322597355876"><ele>50.0</ele><time>2026-04-18T07:23:39Z</time></trkpt><trkpt lat="43.53903706943893" lon="10.705426742516792"><ele>50.0</ele><time>2026-04-18T07:23:41Z</time></trkpt><trkpt lat="43.53903360236341" lon="10.705534483644481"><ele>50.0</ele><time>2026-04-18T07:23:44Z</time></trkpt><trkpt lat="43.539016882038105" lon="10.705618468257663"><ele>50.00000000000001</ele><time>2026-04-18T07:23:48Z</time></trkpt><trkpt lat="43.539020129711155" lon="10.705518289722804"><ele>50.0</ele><time>2026-04-18T07:25:28Z</time></trkpt><trkpt lat="43.53902709765327" lon="10.705397385683666"><ele>50.00000000000001</ele><time>2026-04-18T07:25:30Z</time></trkpt><trkpt lat="43.539032963067385" lon="10.705306119427567"><ele>50.0</ele><time>2026-04-18T07:25:31Z</time></trkpt><trkpt lat="43.53904655643615" lon="10.705155325894264"><ele>50.0</ele><time>2026-04-18T07:25:32Z</time></trkpt><trkpt lat="43.53907762053331" lon="10.705019543392067"><ele>50.0</ele><time>2026-04-18T07:25:33Z</time></trkpt><trkpt lat="43.53906835838243" lon="10.704924349198084"><ele>50.00000000000001</ele><time>2026-04-18T07:25:34Z</time></trkpt><trkpt lat="43.53906485771458" lon="10.704818843608118"><ele>50.0</ele><time>2026-04-18T07:25:35Z</time></trkpt><trkpt lat="43.5390597595875" lon="10.704730893169083"><ele>50.00000000000001</ele><time>2026-04-18T07:25:36Z</time></trkpt><trkpt lat="43.5390352505628" lon="10.70464804529338"><ele>50.0</ele><time>2026-04-18T07:25:37Z</time></trkpt><trkpt lat="43.53899203801016" lon="10.704565023548659"><ele>50.0</ele><time>2026-04-18T07:25:38Z</time></trkpt><trkpt lat="43.53893802952322" lon="10.704490707668613"><ele>50.0</ele><time>2026-04-18T07:25:39Z</time></trkpt><trkpt lat="43.538876595213765" lon="10.704415308260673"><ele>50.00000000000001</ele><time>2026-04-18T07:25:40Z</time></trkpt><trkpt lat="43.53880608297022" lon="10.704338027068463"><ele>50.0</ele><time>2026-04-18T07:25:41Z</time></trkpt><trkpt lat="43.53874648157326" lon="10.704263722403402"><ele>50.00000000000001</ele><time>2026-04-18T07:25:42Z</time></trkpt><trkpt lat="43.53869701504888" lon="10.704194356720361"><ele>50.0</ele><time>2026-04-18T07:25:43Z</time></trkpt><trkpt lat="43.538661470298045" lon="10.704115202567799"><ele>50.0</ele><time>2026-04-18T07:25:44Z</time></trkpt><trkpt lat="43.53864056392506" lon="10.704019495580088"><ele>50.0</ele><time>2026-04-18T07:25:45Z</time></trkpt><trkpt lat="43.53862730086085" lon="10.703918330051833"><ele>50.0</ele><time>2026-04-18T07:25:46Z</time></trkpt><trkpt lat="43.538625521636526" lon="10.703808767689818"><ele>50.00000000000001</ele><time>2026-04-18T07:25:47Z</time></trkpt><trkpt lat="43.53863080877015" lon="10.703706644625566"><ele>50.0</ele><time>2026-04-18T07:25:48Z</time></trkpt><trkpt lat="43.53861063442838" lon="10.703542041578643"><ele>50.333333333333336</ele><time>2026-04-18T07:25:50Z</time></trkpt><trkpt lat="43.538577533119444" lon="10.70345922357694"><ele>50.66666666666667</ele><time>2026-04-18T07:25:51Z</time></trkpt><trkpt lat="43.53852801658987" lon="10.703389779059842"><ele>51.0</ele><time>2026-04-18T07:25:52Z</time></trkpt><trkpt lat="43.538467950809114" lon="10.703323839686929"><ele>51.33333333333333</ele><time>2026-04-18T07:25:53Z</time></trkpt><trkpt lat="43.538397839435675" lon="10.703263434939354"><ele>51.666666666666664</ele><time>2026-04-18T07:25:54Z</time></trkpt><trkpt lat="43.53832206834465" lon="10.70319586957814"><ele>52.0</ele><time>2026-04-18T07:25:55Z</time></trkpt><trkpt lat="43.53823732896499" lon="10.703122436380985"><ele>52.0</ele><time>2026-04-18T07:25:56Z</time></trkpt><trkpt lat="43.53814731674875" lon="10.703042004094874"><ele>52.0</ele><time>2026-04-18T07:25:57Z</time></trkpt><trkpt lat="43.53808098792472" lon="10.702924187065179"><ele>52.0</ele><time>2026-04-18T07:25:58Z</time></trkpt><trkpt lat="43.53800213047626" lon="10.70285313325051"><ele>52.0</ele><time>2026-04-18T07:25:59Z</time></trkpt><trkpt lat="43.53792865479615" lon="10.702786927953682"><ele>52.0</ele><time>2026-04-18T07:26:00Z</time></trkpt><trkpt lat="43.53786460959109" lon="10.70272985105452"><ele>52.2</ele><time>2026-04-18T07:26:01Z</time></trkpt><trkpt lat="43.53780066605786" lon="10.702677788646602"><ele>52.400000000000006</ele><time>2026-04-18T07:26:02Z</time></trkpt><trkpt lat="43.537742670202434" lon="10.702628948242145"><ele>52.599999999999994</ele><time>2026-04-18T07:26:03Z</time></trkpt><trkpt lat="43.53765639056769" lon="10.702513055899239"><ele>52.8</ele><time>2026-04-18T07:26:05Z</time></trkpt><trkpt lat="43.537637009848766" lon="10.70237498360991"><ele>53.0</ele><time>2026-04-18T07:26:07Z</time></trkpt><trkpt lat="43.53761007981353" lon="10.702188477040993"><ele>53.0</ele><time>2026-04-18T07:26:09.001Z</time></trkpt><trkpt lat="43.537592648075325" lon="10.702071099701389"><ele>53.0</ele><time>2026-04-18T07:26:10.001Z</time></trkpt><trkpt lat="43.53757353113263" lon="10.701942375035228"><ele>53.0</ele><time>2026-04-18T07:26:11.001Z</time></trkpt><trkpt lat="43.53754068353662" lon="10.701813698341617"><ele>53.0</ele><time>2026-04-18T07:26:12.001Z</time></trkpt><trkpt lat="43.537533994991925" lon="10.701676156901677"><ele>53.0</ele><time>2026-04-18T07:26:13.001Z</time></trkpt><trkpt lat="43.537516132393684" lon="10.70155320935039"><ele>53.50000000000001</ele><time>2026-04-18T07:26:14.001Z</time></trkpt><trkpt lat="43.537499600799975" lon="10.701439355920046"><ele>54.0</ele><time>2026-04-18T07:26:15.001Z</time></trkpt><trkpt lat="43.53748318302756" lon="10.701326286273963"><ele>54.5</ele><time>2026-04-18T07:26:16.001Z</time></trkpt><trkpt lat="43.53746753131159" lon="10.70121849250032"><ele>55.0</ele><time>2026-04-18T07:26:17.001Z</time></trkpt><trkpt lat="43.53743731115044" lon="10.701121367204063"><ele>55.50000000000001</ele><time>2026-04-18T07:26:18.001Z</time></trkpt><trkpt lat="43.537427743289506" lon="10.701024702179085"><ele>56.0</ele><time>2026-04-18T07:26:19.001Z</time></trkpt><trkpt lat="43.537415878136855" lon="10.700934802910847"><ele>56.199999999999996</ele><time>2026-04-18T07:26:20.001Z</time></trkpt><trkpt lat="43.53739540415589" lon="10.700790629193083"><ele>56.39999999999999</ele><time>2026-04-18T07:26:22.001Z</time></trkpt><trkpt lat="43.537405669785485" lon="10.70068622618177"><ele>56.6</ele><time>2026-04-18T07:26:37Z</time></trkpt><trkpt lat="43.53749427116545" lon="10.700632754240047"><ele>56.8</ele><time>2026-04-18T07:26:39Z</time></trkpt><trkpt lat="43.53758700143517" lon="10.700634250769408"><ele>57.0</ele><time>2026-04-18T07:26:40Z</time></trkpt><trkpt lat="43.537675192412415" lon="10.70061878413657"><ele>57.0</ele><time>2026-04-18T07:26:41Z</time></trkpt><trkpt lat="43.53777337772611" lon="10.70060908298654"><ele>57.0</ele><time>2026-04-18T07:26:42Z</time></trkpt><trkpt lat="43.53787295116007" lon="10.700591477514315"><ele>57.0</ele><time>2026-04-18T07:26:43Z</time></trkpt><trkpt lat="43.53799013029745" lon="10.700571415367055"><ele>57.0</ele><time>2026-04-18T07:26:44Z</time></trkpt><trkpt lat="43.538116200179076" lon="10.700553142519071"><ele>57.0</ele><time>2026-04-18T07:26:45Z</time></trkpt><trkpt lat="43.53825959727202" lon="10.700531846213874"><ele>57.0</ele><time>2026-04-18T07:26:46Z</time></trkpt><trkpt lat="43.53840205316017" lon="10.700511500917566"><ele>57.0</ele><time>2026-04-18T07:26:47Z</time></trkpt><trkpt lat="43.538545730832304" lon="10.700494291051232"><ele>57.0</ele><time>2026-04-18T07:26:48Z</time></trkpt><trkpt lat="43.53868343411868" lon="10.700476572066282"><ele>57.0</ele><time>2026-04-18T07:26:49Z</time></trkpt><trkpt lat="43.53881323443701" lon="10.700459553689946"><ele>56.75</ele><time>2026-04-18T07:26:50Z</time></trkpt><trkpt lat="43.538941594803696" lon="10.700436815318849"><ele>56.5</ele><time>2026-04-18T07:26:51Z</time></trkpt><trkpt lat="43.53906818018705" lon="10.7004190425132"><ele>56.25</ele><time>2026-04-18T07:26:52Z</time></trkpt><trkpt lat="43.53918243964482" lon="10.700407240912774"><ele>56.0</ele><time>2026-04-18T07:26:53Z</time></trkpt><trkpt lat="43.53929089660492" lon="10.700392145624996"><ele>56.0</ele><time>2026-04-18T07:26:54Z</time></trkpt><trkpt lat="43.539404377914764" lon="10.700375415073651"><ele>55.99999999999999</ele><time>2026-04-18T07:26:55Z</time></trkpt><trkpt lat="43.53950827095103" lon="10.700362066544251"><ele>55.99999999999999</ele><time>2026-04-18T07:26:56Z</time></trkpt><trkpt lat="43.53961267582965" lon="10.700347498008949"><ele>56.0</ele><time>2026-04-18T07:26:57Z</time></trkpt><trkpt lat="43.53972698483258" lon="10.70032884139154"><ele>56.0</ele><time>2026-04-18T07:26:58Z</time></trkpt><trkpt lat="43.53984817098796" lon="10.70031580142266"><ele>56.25</ele><time>2026-04-18T07:26:59Z</time></trkpt><trkpt lat="43.53997624567403" lon="10.70030540165536"><ele>56.5</ele><time>2026-04-18T07:27:00Z</time></trkpt><trkpt lat="43.540109256433084" lon="10.70029326678975"><ele>56.75</ele><time>2026-04-18T07:27:01Z</time></trkpt><trkpt lat="43.54024270259935" lon="10.700270736655536"><ele>57.0</ele><time>2026-04-18T07:27:02Z</time></trkpt><trkpt lat="43.54037913866727" lon="10.700245566021383"><ele>57.25</ele><time>2026-04-18T07:27:03Z</time></trkpt><trkpt lat="43.54052054060751" lon="10.70022311155105"><ele>57.5</ele><time>2026-04-18T07:27:04Z</time></trkpt><trkpt lat="43.54065823445987" lon="10.700204734817756"><ele>57.75</ele><time>2026-04-18T07:27:05Z</time></trkpt><trkpt lat="43.54079269860933" lon="10.700187345550972"><ele>58.0</ele><time>2026-04-18T07:27:06Z</time></trkpt><trkpt lat="43.54092426004833" lon="10.700167530822954"><ele>58.0</ele><time>2026-04-18T07:27:07Z</time></trkpt><trkpt lat="43.54104679052075" lon="10.700152523716012"><ele>58.0</ele><time>2026-04-18T07:27:08Z</time></trkpt><trkpt lat="43.54115666349844" lon="10.700131860272691"><ele>58.0</ele><time>2026-04-18T07:27:09Z</time></trkpt><trkpt lat="43.54125655537591" lon="10.70011228814527"><ele>58.0</ele><time>2026-04-18T07:27:10Z</time></trkpt><trkpt lat="43.54135041878398" lon="10.70010349017173"><ele>58.0</ele><time>2026-04-18T07:27:11Z</time></trkpt><trkpt lat="43.54143776760823" lon="10.700100518106252"><ele>57.666666666666664</ele><time>2026-04-18T07:27:12Z</time></trkpt><trkpt lat="43.54151911459699" lon="10.700108640602096"><ele>57.33333333333333</ele><time>2026-04-18T07:27:13Z</time></trkpt><trkpt lat="43.54159118511782" lon="10.700141640601485"><ele>57.0</ele><time>2026-04-18T07:27:14Z</time></trkpt><trkpt lat="43.5416688290207" lon="10.70015333220178"><ele>56.66666666666667</ele><time>2026-04-18T07:27:15Z</time></trkpt><trkpt lat="43.541722909531394" lon="10.700224957642257"><ele>56.333333333333336</ele><time>2026-04-18T07:27:16Z</time></trkpt><trkpt lat="43.541734094353885" lon="10.700347471832647"><ele>56.0</ele><time>2026-04-18T07:27:17Z</time></trkpt><trkpt lat="43.541747817082545" lon="10.700465321135677"><ele>56.0</ele><time>2026-04-18T07:27:18Z</time></trkpt><trkpt lat="43.54176498613368" lon="10.70060653833006"><ele>56.0</ele><time>2026-04-18T07:27:19Z</time></trkpt><trkpt lat="43.54178953302373" lon="10.700763231371734"><ele>56.0</ele><time>2026-04-18T07:27:20Z</time></trkpt><trkpt lat="43.54181333040726" lon="10.700928084886039"><ele>56.0</ele><time>2026-04-18T07:27:21Z</time></trkpt><trkpt lat="43.54183210601739" lon="10.701085290567095"><ele>55.5</ele><time>2026-04-18T07:27:22Z</time></trkpt><trkpt lat="43.541855552812756" lon="10.701247073959228"><ele>55.0</ele><time>2026-04-18T07:27:23Z</time></trkpt><trkpt lat="43.541878568409764" lon="10.701410691329274"><ele>54.5</ele><time>2026-04-18T07:27:24Z</time></trkpt><trkpt lat="43.54189979831563" lon="10.701579638931172"><ele>54.0</ele><time>2026-04-18T07:27:25Z</time></trkpt><trkpt lat="43.54192531261835" lon="10.701750241817967"><ele>53.75</ele><time>2026-04-18T07:27:26Z</time></trkpt><trkpt lat="43.54195107679588" lon="10.701924834526816"><ele>53.5</ele><time>2026-04-18T07:27:27Z</time></trkpt><trkpt lat="43.54197476449679" lon="10.702106292411198"><ele>53.25</ele><time>2026-04-18T07:27:28Z</time></trkpt><trkpt lat="43.54199777544066" lon="10.702276851864688"><ele>53.0</ele><time>2026-04-18T07:27:29Z</time></trkpt><trkpt lat="43.542020857987964" lon="10.702431726559263"><ele>53.0</ele><time>2026-04-18T07:27:30Z</time></trkpt><trkpt lat="43.542040199192506" lon="10.702577828114237"><ele>53.0</ele><time>2026-04-18T07:27:31Z</time></trkpt><trkpt lat="43.54205746954753" lon="10.702725550762159"><ele>53.0</ele><time>2026-04-18T07:27:32Z</time></trkpt><trkpt lat="43.542079953893314" lon="10.70288341558546"><ele>53.0</ele><time>2026-04-18T07:27:33Z</time></trkpt><trkpt lat="43.542103686453416" lon="10.70304859153877"><ele>52.5</ele><time>2026-04-18T07:27:34Z</time></trkpt><trkpt lat="43.542126998565884" lon="10.703229518246559"><ele>52.0</ele><time>2026-04-18T07:27:35Z</time></trkpt><trkpt lat="43.54214982839334" lon="10.703415454412324"><ele>51.5</ele><time>2026-04-18T07:27:36Z</time></trkpt><trkpt lat="43.54218047538064" lon="10.703607087413285"><ele>51.0</ele><time>2026-04-18T07:27:37.001Z</time></trkpt><trkpt lat="43.54221028604335" lon="10.703806215531365"><ele>51.0</ele><time>2026-04-18T07:27:38.001Z</time></trkpt><trkpt lat="43.54223702179405" lon="10.704008717945438"><ele>51.0</ele><time>2026-04-18T07:27:39.001Z</time></trkpt><trkpt lat="43.54226146916182" lon="10.704214709835638"><ele>51.0</ele><time>2026-04-18T07:27:40.001Z</time></trkpt><trkpt lat="43.54229104995804" lon="10.704418389046284"><ele>50.5</ele><time>2026-04-18T07:27:41.001Z</time></trkpt><trkpt lat="43.54232019589966" lon="10.70462075968291"><ele>50.0</ele><time>2026-04-18T07:27:42.001Z</time></trkpt><trkpt lat="43.54234536681722" lon="10.704809078886525"><ele>49.5</ele><time>2026-04-18T07:27:43.001Z</time></trkpt><trkpt lat="43.542369387926925" lon="10.70498522046715"><ele>49.0</ele><time>2026-04-18T07:27:44.001Z</time></trkpt><trkpt lat="43.542393374596365" lon="10.705157784198438"><ele>49.25</ele><time>2026-04-18T07:27:45.001Z</time></trkpt><trkpt lat="43.542418157013316" lon="10.705336027934301"><ele>49.5</ele><time>2026-04-18T07:27:46.001Z</time></trkpt><trkpt lat="43.54243922091264" lon="10.705514335518194"><ele>49.75</ele><time>2026-04-18T07:27:47.001Z</time></trkpt><trkpt lat="43.5424631492732" lon="10.705694995917696"><ele>50.0</ele><time>2026-04-18T07:27:48.001Z</time></trkpt><trkpt lat="43.54248769330513" lon="10.705877141654328"><ele>50.0</ele><time>2026-04-18T07:27:49.001Z</time></trkpt><trkpt lat="43.54251453961269" lon="10.706067780571194"><ele>50.0</ele><time>2026-04-18T07:27:50.001Z</time></trkpt><trkpt lat="43.5425463598473" lon="10.706264940529161"><ele>50.0</ele><time>2026-04-18T07:27:51.001Z</time></trkpt><trkpt lat="43.542574242727305" lon="10.706459404967951"><ele>50.0</ele><time>2026-04-18T07:27:52.001Z</time></trkpt><trkpt lat="43.542599404548284" lon="10.70664044144539"><ele>50.25</ele><time>2026-04-18T07:27:53.001Z</time></trkpt><trkpt lat="43.54262423086655" lon="10.706823349589682"><ele>50.5</ele><time>2026-04-18T07:27:54.001Z</time></trkpt><trkpt lat="43.54264581392055" lon="10.707007299993057"><ele>50.75</ele><time>2026-04-18T07:27:55.001Z</time></trkpt><trkpt lat="43.54267184969159" lon="10.707202249154701"><ele>51.0</ele><time>2026-04-18T07:27:56.001Z</time></trkpt><trkpt lat="43.54269938215447" lon="10.707402637183543"><ele>50.33333333333333</ele><time>2026-04-18T07:27:57.001Z</time></trkpt><trkpt lat="43.54272786657744" lon="10.707604914570982"><ele>49.666666666666664</ele><time>2026-04-18T07:27:58.001Z</time></trkpt><trkpt lat="43.54275430083844" lon="10.707818318745128"><ele>49.0</ele><time>2026-04-18T07:27:59.001Z</time></trkpt><trkpt lat="43.54278169987048" lon="10.708037469530295"><ele>49.0</ele><time>2026-04-18T07:28:00.001Z</time></trkpt><trkpt lat="43.542810622019765" lon="10.708263706692978"><ele>49.0</ele><time>2026-04-18T07:28:01.001Z</time></trkpt><trkpt lat="43.54284019262763" lon="10.708490777083158"><ele>49.0</ele><time>2026-04-18T07:28:02.001Z</time></trkpt><trkpt lat="43.542871960530185" lon="10.708717197627074"><ele>49.0</ele><time>2026-04-18T07:28:03.001Z</time></trkpt><trkpt lat="43.54290549289651" lon="10.70894201502322"><ele>49.0</ele><time>2026-04-18T07:28:04.001Z</time></trkpt><trkpt lat="43.542940217453996" lon="10.709175407263183"><ele>49.0</ele><time>2026-04-18T07:28:05.001Z</time></trkpt><trkpt lat="43.54297351789036" lon="10.70941654935176"><ele>48.666666666666664</ele><time>2026-04-18T07:28:06.001Z</time></trkpt><trkpt lat="43.54300948496612" lon="10.709645979595798"><ele>48.33333333333333</ele><time>2026-04-18T07:28:07.001Z</time></trkpt><trkpt lat="43.5430251619136" lon="10.709875633558553"><ele>48.0</ele><time>2026-04-18T07:28:08.001Z</time></trkpt><trkpt lat="43.54305519274541" lon="10.710096055220983"><ele>47.0</ele><time>2026-04-18T07:28:09.001Z</time></trkpt><trkpt lat="43.54308479145462" lon="10.710313290270063"><ele>46.0</ele><time>2026-04-18T07:28:10.001Z</time></trkpt><trkpt lat="43.543114834343015" lon="10.710533785287135"><ele>45.0</ele><time>2026-04-18T07:28:11.001Z</time></trkpt><trkpt lat="43.54314378145151" lon="10.71074957793461"><ele>45.0</ele><time>2026-04-18T07:28:12.001Z</time></trkpt><trkpt lat="43.54317277923375" lon="10.710966567438195"><ele>45.0</ele><time>2026-04-18T07:28:13.001Z</time></trkpt><trkpt lat="43.54321815101472" lon="10.711181144076908"><ele>45.0</ele><time>2026-04-18T07:28:14.001Z</time></trkpt><trkpt lat="43.54324509880805" lon="10.711401082932168"><ele>44.333333333333336</ele><time>2026-04-18T07:28:15.001Z</time></trkpt><trkpt lat="43.543275276876656" lon="10.71163113356782"><ele>43.66666666666667</ele><time>2026-04-18T07:28:16.001Z</time></trkpt><trkpt lat="43.543292970490725" lon="10.711863336039555"><ele>43.0</ele><time>2026-04-18T07:28:17.001Z</time></trkpt><trkpt lat="43.54332150275098" lon="10.712073928071824"><ele>43.0</ele><time>2026-04-18T07:28:18.001Z</time></trkpt><trkpt lat="43.543362871614754" lon="10.712263004612254"><ele>43.0</ele><time>2026-04-18T07:28:19.001Z</time></trkpt><trkpt lat="43.543389185273085" lon="10.712453330419885"><ele>43.0</ele><time>2026-04-18T07:28:20.001Z</time></trkpt><trkpt lat="43.5434139322086" lon="10.712643768031493"><ele>43.0</ele><time>2026-04-18T07:28:21.001Z</time></trkpt><trkpt lat="43.543438885634146" lon="10.712834098962627"><ele>42.75</ele><time>2026-04-18T07:28:22.001Z</time></trkpt><trkpt lat="43.543466661309814" lon="10.713030786224952"><ele>42.5</ele><time>2026-04-18T07:28:23.001Z</time></trkpt><trkpt lat="43.54349242013234" lon="10.713227129846494"><ele>42.25</ele><time>2026-04-18T07:28:24.001Z</time></trkpt><trkpt lat="43.54351894282605" lon="10.71342482550057"><ele>42.0</ele><time>2026-04-18T07:28:25.001Z</time></trkpt><trkpt lat="43.54354520744097" lon="10.713624187702639"><ele>41.75</ele><time>2026-04-18T07:28:26.001Z</time></trkpt><trkpt lat="43.54357227358869" lon="10.71382569050416"><ele>41.5</ele><time>2026-04-18T07:28:27.001Z</time></trkpt><trkpt lat="43.54359729304497" lon="10.714022966565848"><ele>41.25</ele><time>2026-04-18T07:28:28.001Z</time></trkpt><trkpt lat="43.54362065369803" lon="10.714204667852664"><ele>41.0</ele><time>2026-04-18T07:28:29.001Z</time></trkpt><trkpt lat="43.543643485516306" lon="10.714367014240688"><ele>41.83333333333333</ele><time>2026-04-18T07:28:30.001Z</time></trkpt><trkpt lat="43.54366345354084" lon="10.714509776725812"><ele>42.666666666666664</ele><time>2026-04-18T07:28:30.999Z</time></trkpt><trkpt lat="43.54368228485961" lon="10.714637096799159"><ele>43.5</ele><time>2026-04-18T07:28:31.999Z</time></trkpt><trkpt lat="43.543705958310255" lon="10.714732879957442"><ele>44.333333333333336</ele><time>2026-04-18T07:28:32.999Z</time></trkpt><trkpt lat="43.54373285707362" lon="10.714817546170721"><ele>45.16666666666667</ele><time>2026-04-18T07:28:33.999Z</time></trkpt><trkpt lat="43.54376172568415" lon="10.714959604899478"><ele>46.0</ele><time>2026-04-18T07:28:35.999Z</time></trkpt><trkpt lat="43.54375849884929" lon="10.715077968673233"><ele>46.0</ele><time>2026-04-18T07:28:37.999Z</time></trkpt><trkpt lat="43.543746291353386" lon="10.715182340781563"><ele>46.0</ele><time>2026-04-18T07:28:40.999Z</time></trkpt><trkpt lat="43.54368332309837" lon="10.715131869236052"><ele>46.0</ele><time>2026-04-18T07:28:41.999Z</time></trkpt><trkpt lat="43.54365663191805" lon="10.714996671719556"><ele>46.0</ele><time>2026-04-18T07:28:43.999Z</time></trkpt><trkpt lat="43.54361818682995" lon="10.714881263264164"><ele>46.0</ele><time>2026-04-18T07:28:45.999Z</time></trkpt><trkpt lat="43.543578415127016" lon="10.714730110529294"><ele>46.0</ele><time>2026-04-18T07:28:47.999Z</time></trkpt><trkpt lat="43.543544842480784" lon="10.714624366730538"><ele>46.0</ele><time>2026-04-18T07:28:48.999Z</time></trkpt><trkpt lat="43.543500592071986" lon="10.71448945259555"><ele>46.0</ele><time>2026-04-18T07:28:49.999Z</time></trkpt><trkpt lat="43.543459373111645" lon="10.71438297532503"><ele>46.0</ele><time>2026-04-18T07:28:50.999Z</time></trkpt><trkpt lat="43.54342679680767" lon="10.714291630051274"><ele>46.0</ele><time>2026-04-18T07:28:51.999Z</time></trkpt><trkpt lat="43.5433948384962" lon="10.714200038710407"><ele>46.0</ele><time>2026-04-18T07:28:52.999Z</time></trkpt><trkpt lat="43.54333261611892" lon="10.714124085137492"><ele>45.0</ele><time>2026-04-18T07:28:53.999Z</time></trkpt><trkpt lat="43.54325754821019" lon="10.714067024527557"><ele>44.0</ele><time>2026-04-18T07:28:54.999Z</time></trkpt><trkpt lat="43.543156338239555" lon="10.714040324075329"><ele>43.0</ele><time>2026-04-18T07:28:55.999Z</time></trkpt><trkpt lat="43.54305929018748" lon="10.714030681557341"><ele>42.0</ele><time>2026-04-18T07:28:56.999Z</time></trkpt><trkpt lat="43.542963748662324" lon="10.714021671062678"><ele>41.0</ele><time>2026-04-18T07:28:57.999Z</time></trkpt><trkpt lat="43.542862207899184" lon="10.714024362833802"><ele>41.0</ele><time>2026-04-18T07:28:59Z</time></trkpt><trkpt lat="43.542747542912736" lon="10.714029337582739"><ele>41.0</ele><time>2026-04-18T07:29:00Z</time></trkpt><trkpt lat="43.54262208275289" lon="10.714056708182596"><ele>41.0</ele><time>2026-04-18T07:29:01Z</time></trkpt><trkpt lat="43.54248829417935" lon="10.714064446092538"><ele>41.0</ele><time>2026-04-18T07:29:02Z</time></trkpt><trkpt lat="43.54235336528484" lon="10.714082046010095"><ele>41.0</ele><time>2026-04-18T07:29:03Z</time></trkpt><trkpt lat="43.542219968737854" lon="10.714100953119745"><ele>41.0</ele><time>2026-04-18T07:29:04Z</time></trkpt><trkpt lat="43.54208865603425" lon="10.714124987672896"><ele>41.0</ele><time>2026-04-18T07:29:05Z</time></trkpt><trkpt lat="43.54196329613664" lon="10.714152526392542"><ele>41.0</ele><time>2026-04-18T07:29:06Z</time></trkpt><trkpt lat="43.5418478911498" lon="10.714175445622352"><ele>40.8</ele><time>2026-04-18T07:29:07Z</time></trkpt><trkpt lat="43.54174240909373" lon="10.71419952923277"><ele>40.599999999999994</ele><time>2026-04-18T07:29:08Z</time></trkpt><trkpt lat="43.54164926165926" lon="10.71423666270316"><ele>40.4</ele><time>2026-04-18T07:29:09Z</time></trkpt><trkpt lat="43.5415636811324" lon="10.714311808955047"><ele>40.2</ele><time>2026-04-18T07:29:10Z</time></trkpt><trkpt lat="43.54144683624416" lon="10.714323976723218"><ele>40.0</ele><time>2026-04-18T07:29:11Z</time></trkpt><trkpt lat="43.54134142309652" lon="10.714367872462525"><ele>40.0</ele><time>2026-04-18T07:29:12Z</time></trkpt><trkpt lat="43.54122846335781" lon="10.714383177262382"><ele>40.0</ele><time>2026-04-18T07:29:13Z</time></trkpt><trkpt lat="43.54112698852515" lon="10.714442710955959"><ele>40.0</ele><time>2026-04-18T07:29:14Z</time></trkpt><trkpt lat="43.54102097821579" lon="10.71448123534819"><ele>40.0</ele><time>2026-04-18T07:29:15Z</time></trkpt><trkpt lat="43.54091493350476" lon="10.714522127206255"><ele>40.0</ele><time>2026-04-18T07:29:16Z</time></trkpt><trkpt lat="43.54080498955451" lon="10.714534744049885"><ele>41.2</ele><time>2026-04-18T07:29:17Z</time></trkpt><trkpt lat="43.540696021659905" lon="10.714511813785956"><ele>42.4</ele><time>2026-04-18T07:29:18Z</time></trkpt><trkpt lat="43.540596567999685" lon="10.714508503703579"><ele>43.599999999999994</ele><time>2026-04-18T07:29:19Z</time></trkpt><trkpt lat="43.54049336615549" lon="10.71452433422734"><ele>44.8</ele><time>2026-04-18T07:29:20Z</time></trkpt><trkpt lat="43.54038503159338" lon="10.714537078220165"><ele>46.0</ele><time>2026-04-18T07:29:21Z</time></trkpt><trkpt lat="43.54027721133943" lon="10.714522133732734"><ele>47.0</ele><time>2026-04-18T07:29:22Z</time></trkpt><trkpt lat="43.54018815594246" lon="10.714510606586122"><ele>48.0</ele><time>2026-04-18T07:29:23Z</time></trkpt><trkpt lat="43.54011526051481" lon="10.714499514258458"><ele>49.0</ele><time>2026-04-18T07:29:24Z</time></trkpt><trkpt lat="43.54004653149619" lon="10.71448709840506"><ele>50.0</ele><time>2026-04-18T07:29:25Z</time></trkpt><trkpt lat="43.53995795392959" lon="10.714469650482839"><ele>50.99999999999999</ele><time>2026-04-18T07:29:27Z</time></trkpt><trkpt lat="43.539840123194175" lon="10.71443977497556"><ele>52.0</ele><time>2026-04-18T07:29:29Z</time></trkpt><trkpt lat="43.539768949652334" lon="10.714423551456823"><ele>52.0</ele><time>2026-04-18T07:29:30Z</time></trkpt><trkpt lat="43.53965527970304" lon="10.714418109236378"><ele>52.0</ele><time>2026-04-18T07:29:32Z</time></trkpt><trkpt lat="43.53954589494509" lon="10.714458651915555"><ele>52.0</ele><time>2026-04-18T07:29:34Z</time></trkpt><trkpt lat="43.53946629100445" lon="10.714546228192631"><ele>52.0</ele><time>2026-04-18T07:29:36Z</time></trkpt><trkpt lat="43.53941705353055" lon="10.714618606685514"><ele>52.0</ele><time>2026-04-18T07:29:37Z</time></trkpt><trkpt lat="43.53937067288079" lon="10.714701719352995"><ele>51.83333333333333</ele><time>2026-04-18T07:29:38Z</time></trkpt><trkpt lat="43.539329778135986" lon="10.714791932884507"><ele>51.666666666666664</ele><time>2026-04-18T07:29:39Z</time></trkpt><trkpt lat="43.53926134987868" lon="10.714912798466038"><ele>51.5</ele><time>2026-04-18T07:29:41Z</time></trkpt><trkpt lat="43.53919353952874" lon="10.714948609424853"><ele>51.33333333333333</ele><time>2026-04-18T07:29:43Z</time></trkpt><trkpt lat="43.53910594136258" lon="10.71485987142052"><ele>51.166666666666664</ele><time>2026-04-18T07:29:45Z</time></trkpt><trkpt lat="43.539102677725516" lon="10.714771167810719"><ele>51.0</ele><time>2026-04-18T07:29:46Z</time></trkpt><trkpt lat="43.53906186602105" lon="10.71460578868213"><ele>51.0</ele><time>2026-04-18T07:29:48Z</time></trkpt><trkpt lat="43.5390501613181" lon="10.71451175256129"><ele>51.0</ele><time>2026-04-18T07:29:49.001Z</time></trkpt><trkpt lat="43.53900142316332" lon="10.714448907099431"><ele>51.0</ele><time>2026-04-18T07:29:50.001Z</time></trkpt><trkpt lat="43.53890730258972" lon="10.714304433881365"><ele>51.0</ele><time>2026-04-18T07:29:52.001Z</time></trkpt><trkpt lat="43.538853791340635" lon="10.714210356963006"><ele>51.0</ele><time>2026-04-18T07:29:53.001Z</time></trkpt><trkpt lat="43.53879352774697" lon="10.71415284991203"><ele>51.0</ele><time>2026-04-18T07:29:54.001Z</time></trkpt><trkpt lat="43.53873705897141" lon="10.71410540417833"><ele>49.4</ele><time>2026-04-18T07:29:55.001Z</time></trkpt><trkpt lat="43.538660283792936" lon="10.71403789878811"><ele>47.8</ele><time>2026-04-18T07:29:57.001Z</time></trkpt><trkpt lat="43.538572312410885" lon="10.713966052631212"><ele>46.199999999999996</ele><time>2026-04-18T07:29:59.001Z</time></trkpt><trkpt lat="43.5384977167258" lon="10.71385471274221"><ele>44.599999999999994</ele><time>2026-04-18T07:30:01.001Z</time></trkpt><trkpt lat="43.53844657286583" lon="10.713791360045475"><ele>43.0</ele><time>2026-04-18T07:30:02.001Z</time></trkpt><trkpt lat="43.53837946115369" lon="10.713707490522511"><ele>43.0</ele><time>2026-04-18T07:30:04.001Z</time></trkpt><trkpt lat="43.538315230245736" lon="10.713611000131905"><ele>43.0</ele><time>2026-04-18T07:30:06.001Z</time></trkpt><trkpt lat="43.53829132016248" lon="10.713503453599397"><ele>43.0</ele><time>2026-04-18T07:30:08.001Z</time></trkpt><trkpt lat="43.53830505112461" lon="10.713392313557787"><ele>43.0</ele><time>2026-04-18T07:30:10.001Z</time></trkpt><trkpt lat="43.538336591605415" lon="10.713281288488913"><ele>43.0</ele><time>2026-04-18T07:30:12.001Z</time></trkpt><trkpt lat="43.53832371943109" lon="10.713190573293971"><ele>43.0</ele><time>2026-04-18T07:30:14.001Z</time></trkpt><trkpt lat="43.53826849440032" lon="10.713130794034692"><ele>42.8</ele><time>2026-04-18T07:30:15.001Z</time></trkpt><trkpt lat="43.53817513394993" lon="10.713100587324774"><ele>42.599999999999994</ele><time>2026-04-18T07:30:16.001Z</time></trkpt><trkpt lat="43.538113974924286" lon="10.713026999856428"><ele>42.400000000000006</ele><time>2026-04-18T07:30:17.001Z</time></trkpt><trkpt lat="43.538049663721" lon="10.712969560952569"><ele>42.2</ele><time>2026-04-18T07:30:18.001Z</time></trkpt><trkpt lat="43.53794127819526" lon="10.712826744025353"><ele>42.0</ele><time>2026-04-18T07:30:20.001Z</time></trkpt><trkpt lat="43.53785793915866" lon="10.712741863530885"><ele>42.0</ele><time>2026-04-18T07:30:21.001Z</time></trkpt><trkpt lat="43.5377752372196" lon="10.712675464520544"><ele>42.0</ele><time>2026-04-18T07:30:22.001Z</time></trkpt><trkpt lat="43.53770238327363" lon="10.712612456137098"><ele>42.0</ele><time>2026-04-18T07:30:23.001Z</time></trkpt><trkpt lat="43.53762751961627" lon="10.712547139666098"><ele>42.0</ele><time>2026-04-18T07:30:24.001Z</time></trkpt><trkpt lat="43.53755767579838" lon="10.71246914841735"><ele>42.0</ele><time>2026-04-18T07:30:25.001Z</time></trkpt><trkpt lat="43.53748269396131" lon="10.712394622846775"><ele>42.0</ele><time>2026-04-18T07:30:26.001Z</time></trkpt><trkpt lat="43.53739406934796" lon="10.712306897618749"><ele>42.0</ele><time>2026-04-18T07:30:27.001Z</time></trkpt><trkpt lat="43.5373081269694" lon="10.712201850511212"><ele>42.0</ele><time>2026-04-18T07:30:28.001Z</time></trkpt><trkpt lat="43.53722642155995" lon="10.712121104696221"><ele>42.0</ele><time>2026-04-18T07:30:29.001Z</time></trkpt><trkpt lat="43.53715450654994" lon="10.712050034212927"><ele>42.0</ele><time>2026-04-18T07:30:30.001Z</time></trkpt><trkpt lat="43.53707197308942" lon="10.711996341507174"><ele>42.0</ele><time>2026-04-18T07:30:31.001Z</time></trkpt><trkpt lat="43.53701134382521" lon="10.711943250669806"><ele>42.0</ele><time>2026-04-18T07:30:32.001Z</time></trkpt><trkpt lat="43.53694054247" lon="10.711892866430587"><ele>42.0</ele><time>2026-04-18T07:30:33.001Z</time></trkpt><trkpt lat="43.53687199233486" lon="10.711862317396056"><ele>42.0</ele><time>2026-04-18T07:30:34.001Z</time></trkpt><trkpt lat="43.53679744810952" lon="10.711823498806229"><ele>42.0</ele><time>2026-04-18T07:30:35.001Z</time></trkpt><trkpt lat="43.536713987897244" lon="10.71180534094453"><ele>42.0</ele><time>2026-04-18T07:30:36.001Z</time></trkpt><trkpt lat="43.536613130267895" lon="10.711783845484595"><ele>42.0</ele><time>2026-04-18T07:30:36.999Z</time></trkpt><trkpt lat="43.53651951193595" lon="10.711772093899258"><ele>42.0</ele><time>2026-04-18T07:30:37.999Z</time></trkpt><trkpt lat="43.53644850182411" lon="10.711763348174532"><ele>42.0</ele><time>2026-04-18T07:30:38.999Z</time></trkpt><trkpt lat="43.53638033239545" lon="10.711730825911953"><ele>42.0</ele><time>2026-04-18T07:30:39.999Z</time></trkpt><trkpt lat="43.53631527504774" lon="10.711743200732888"><ele>42.0</ele><time>2026-04-18T07:30:40.999Z</time></trkpt><trkpt lat="43.536248808800785" lon="10.711732091140043"><ele>42.0</ele><time>2026-04-18T07:30:41.999Z</time></trkpt><trkpt lat="43.53618844561298" lon="10.711702572616835"><ele>42.0</ele><time>2026-04-18T07:30:42.999Z</time></trkpt><trkpt lat="43.53605375090806" lon="10.711707612923385"><ele>41.833333333333336</ele><time>2026-04-18T07:30:44.999Z</time></trkpt><trkpt lat="43.535975647793556" lon="10.7116925833251"><ele>41.666666666666664</ele><time>2026-04-18T07:30:45.999Z</time></trkpt><trkpt lat="43.53590042229829" lon="10.711675319859802"><ele>41.5</ele><time>2026-04-18T07:30:46.999Z</time></trkpt><trkpt lat="43.53582999347806" lon="10.711644481518208"><ele>41.33333333333333</ele><time>2026-04-18T07:30:47.999Z</time></trkpt><trkpt lat="43.535762711508795" lon="10.711622022825107"><ele>41.166666666666664</ele><time>2026-04-18T07:30:48.999Z</time></trkpt><trkpt lat="43.53564479762296" lon="10.711591089283791"><ele>41.0</ele><time>2026-04-18T07:30:51Z</time></trkpt><trkpt lat="43.535577603914774" lon="10.711557727132787"><ele>41.0</ele><time>2026-04-18T07:30:52Z</time></trkpt><trkpt lat="43.53550365423713" lon="10.711522571057843"><ele>41.0</ele><time>2026-04-18T07:30:53Z</time></trkpt><trkpt lat="43.53538157712532" lon="10.711465115203087"><ele>41.0</ele><time>2026-04-18T07:30:55Z</time></trkpt><trkpt lat="43.53526611729158" lon="10.711411387748827"><ele>41.0</ele><time>2026-04-18T07:30:57Z</time></trkpt><trkpt lat="43.53520906146399" lon="10.711365044699793"><ele>41.0</ele><time>2026-04-18T07:30:58Z</time></trkpt><trkpt lat="43.53514867262365" lon="10.711335042217202"><ele>41.199999999999996</ele><time>2026-04-18T07:30:59Z</time></trkpt><trkpt lat="43.53504118031804" lon="10.711304151242214"><ele>41.4</ele><time>2026-04-18T07:31:01Z</time></trkpt><trkpt lat="43.53498046814295" lon="10.711249299883168"><ele>41.6</ele><time>2026-04-18T07:31:02Z</time></trkpt><trkpt lat="43.53490478152919" lon="10.711209565698708"><ele>41.8</ele><time>2026-04-18T07:31:03Z</time></trkpt><trkpt lat="43.53482233204528" lon="10.711164857559789"><ele>42.0</ele><time>2026-04-18T07:31:04Z</time></trkpt><trkpt lat="43.53473018364438" lon="10.711113718632301"><ele>42.0</ele><time>2026-04-18T07:31:05Z</time></trkpt><trkpt lat="43.534645714695266" lon="10.71106646073165"><ele>42.0</ele><time>2026-04-18T07:31:06Z</time></trkpt><trkpt lat="43.534579756404604" lon="10.711029495998446"><ele>42.0</ele><time>2026-04-18T07:31:07Z</time></trkpt><trkpt lat="43.53446930490149" lon="10.710985854837377"><ele>42.0</ele><time>2026-04-18T07:31:09Z</time></trkpt><trkpt lat="43.534411244179225" lon="10.710930602947434"><ele>42.0</ele><time>2026-04-18T07:31:10Z</time></trkpt><trkpt lat="43.534319222546856" lon="10.710854680685753"><ele>42.0</ele><time>2026-04-18T07:31:12Z</time></trkpt><trkpt lat="43.534253908015636" lon="10.710882568605149"><ele>42.0</ele><time>2026-04-18T07:31:14Z</time></trkpt><trkpt lat="43.534218231999525" lon="10.710963070673824"><ele>42.0</ele><time>2026-04-18T07:31:16Z</time></trkpt><trkpt lat="43.53417213841145" lon="10.71112419737882"><ele>42.0</ele><time>2026-04-18T07:31:18Z</time></trkpt><trkpt lat="43.53415708990747" lon="10.711243819554177"><ele>42.0</ele><time>2026-04-18T07:31:19Z</time></trkpt><trkpt lat="43.53412496143472" lon="10.711365872830585"><ele>42.0</ele><time>2026-04-18T07:31:20Z</time></trkpt><trkpt lat="43.53407805348005" lon="10.711487385017447"><ele>41.833333333333336</ele><time>2026-04-18T07:31:21Z</time></trkpt><trkpt lat="43.53404178373259" lon="10.711581427156593"><ele>41.666666666666664</ele><time>2026-04-18T07:31:22Z</time></trkpt><trkpt lat="43.53401517353343" lon="10.711676033778245"><ele>41.5</ele><time>2026-04-18T07:31:23Z</time></trkpt><trkpt lat="43.533953655095786" lon="10.711788363398139"><ele>41.33333333333333</ele><time>2026-04-18T07:31:25Z</time></trkpt><trkpt lat="43.53389867264714" lon="10.711892286603884"><ele>41.166666666666664</ele><time>2026-04-18T07:31:27Z</time></trkpt><trkpt lat="43.53385539520073" lon="10.711959223835521"><ele>41.0</ele><time>2026-04-18T07:31:28Z</time></trkpt><trkpt lat="43.53356822368277" lon="10.711875026747071"><ele>42.0</ele><time>2026-04-18T07:31:29Z</time></trkpt><trkpt lat="43.53345367713872" lon="10.711921512259341"><ele>43.0</ele><time>2026-04-18T07:31:30Z</time></trkpt><trkpt lat="43.533338162928715" lon="10.71196272345373"><ele>44.0</ele><time>2026-04-18T07:31:31Z</time></trkpt><trkpt lat="43.533221040595095" lon="10.712005530659866"><ele>45.0</ele><time>2026-04-18T07:31:32Z</time></trkpt><trkpt lat="43.53310667403578" lon="10.712054708242748"><ele>45.0</ele><time>2026-04-18T07:31:33Z</time></trkpt><trkpt lat="43.532992610084754" lon="10.712100805141157"><ele>45.0</ele><time>2026-04-18T07:31:34.001Z</time></trkpt><trkpt lat="43.53287494318686" lon="10.712139931808778"><ele>45.0</ele><time>2026-04-18T07:31:35.001Z</time></trkpt><trkpt lat="43.53274514549344" lon="10.71218998910354"><ele>45.0</ele><time>2026-04-18T07:31:36.001Z</time></trkpt><trkpt lat="43.53261258056604" lon="10.712237453621853"><ele>44.75</ele><time>2026-04-18T07:31:37.001Z</time></trkpt><trkpt lat="43.53248377717128" lon="10.712290936619164"><ele>44.5</ele><time>2026-04-18T07:31:38.001Z</time></trkpt><trkpt lat="43.53235717373163" lon="10.712344925343825"><ele>44.25</ele><time>2026-04-18T07:31:39.001Z</time></trkpt><trkpt lat="43.53223678569157" lon="10.712393494589051"><ele>44.0</ele><time>2026-04-18T07:31:40.001Z</time></trkpt><trkpt lat="43.53211243020222" lon="10.71244426853356"><ele>43.5</ele><time>2026-04-18T07:31:41.001Z</time></trkpt><trkpt lat="43.5319874425831" lon="10.712489802420498"><ele>43.0</ele><time>2026-04-18T07:31:42.001Z</time></trkpt><trkpt lat="43.531864122546196" lon="10.712534373088733"><ele>42.5</ele><time>2026-04-18T07:31:43.001Z</time></trkpt><trkpt lat="43.53174325846826" lon="10.712583830189795"><ele>42.0</ele><time>2026-04-18T07:31:44.001Z</time></trkpt><trkpt lat="43.53161952769835" lon="10.712638473455755"><ele>42.0</ele><time>2026-04-18T07:31:45.001Z</time></trkpt><trkpt lat="43.53149337281935" lon="10.712693265601864"><ele>42.0</ele><time>2026-04-18T07:31:46.001Z</time></trkpt><trkpt lat="43.531368895382826" lon="10.712749783843355"><ele>42.0</ele><time>2026-04-18T07:31:47.001Z</time></trkpt><trkpt lat="43.53125440415008" lon="10.71279250416633"><ele>42.0</ele><time>2026-04-18T07:31:48.001Z</time></trkpt><trkpt lat="43.531146431137806" lon="10.71283340782443"><ele>42.2</ele><time>2026-04-18T07:31:49.001Z</time></trkpt><trkpt lat="43.53104130156343" lon="10.712873376908568"><ele>42.400000000000006</ele><time>2026-04-18T07:31:50.001Z</time></trkpt><trkpt lat="43.53093232874621" lon="10.71291667129374"><ele>42.599999999999994</ele><time>2026-04-18T07:31:51.001Z</time></trkpt><trkpt lat="43.53082379688092" lon="10.712967886495077"><ele>42.8</ele><time>2026-04-18T07:31:52.001Z</time></trkpt><trkpt lat="43.53071841473483" lon="10.713011558013683"><ele>43.0</ele><time>2026-04-18T07:31:53.001Z</time></trkpt><trkpt lat="43.530610041485694" lon="10.713061044032125"><ele>43.0</ele><time>2026-04-18T07:31:54.001Z</time></trkpt><trkpt lat="43.53049755111721" lon="10.713111059228355"><ele>43.0</ele><time>2026-04-18T07:31:55.001Z</time></trkpt><trkpt lat="43.53038386924652" lon="10.713159721271662"><ele>43.0</ele><time>2026-04-18T07:31:56.001Z</time></trkpt><trkpt lat="43.530262984233836" lon="10.713208493150312"><ele>43.0</ele><time>2026-04-18T07:31:57.001Z</time></trkpt><trkpt lat="43.530146796295774" lon="10.713253821532112"><ele>43.25</ele><time>2026-04-18T07:31:58.001Z</time></trkpt><trkpt lat="43.53002550336364" lon="10.7133015628551"><ele>43.5</ele><time>2026-04-18T07:31:59.001Z</time></trkpt><trkpt lat="43.52990600281744" lon="10.713343028741052"><ele>43.75</ele><time>2026-04-18T07:32:00.001Z</time></trkpt><trkpt lat="43.529788675189536" lon="10.713391241195442"><ele>44.0</ele><time>2026-04-18T07:32:01.001Z</time></trkpt><trkpt lat="43.52967356279285" lon="10.713437378150653"><ele>44.0</ele><time>2026-04-18T07:32:02.001Z</time></trkpt><trkpt lat="43.52956028213298" lon="10.713481955780125"><ele>44.0</ele><time>2026-04-18T07:32:03.001Z</time></trkpt><trkpt lat="43.52944631803763" lon="10.713528750220537"><ele>44.0</ele><time>2026-04-18T07:32:04.001Z</time></trkpt><trkpt lat="43.52933162686112" lon="10.713571475378568"><ele>44.0</ele><time>2026-04-18T07:32:05.001Z</time></trkpt><trkpt lat="43.529213306116276" lon="10.71361890488923"><ele>43.800000000000004</ele><time>2026-04-18T07:32:06.001Z</time></trkpt><trkpt lat="43.529102591711116" lon="10.713662469235318"><ele>43.6</ele><time>2026-04-18T07:32:07.001Z</time></trkpt><trkpt lat="43.529002255902654" lon="10.713700995256298"><ele>43.4</ele><time>2026-04-18T07:32:08.001Z</time></trkpt><trkpt lat="43.52890094549718" lon="10.713742349444281"><ele>43.2</ele><time>2026-04-18T07:32:09.001Z</time></trkpt><trkpt lat="43.52878913579623" lon="10.713793821060797"><ele>43.0</ele><time>2026-04-18T07:32:10.001Z</time></trkpt><trkpt lat="43.52867368451134" lon="10.71383593148514"><ele>43.5</ele><time>2026-04-18T07:32:11.001Z</time></trkpt><trkpt lat="43.528557191358814" lon="10.71388047840888"><ele>44.0</ele><time>2026-04-18T07:32:12.001Z</time></trkpt><trkpt lat="43.5284270544029" lon="10.713934299008217"><ele>44.5</ele><time>2026-04-18T07:32:13.001Z</time></trkpt><trkpt lat="43.52828960111681" lon="10.713990864679973"><ele>45.0</ele><time>2026-04-18T07:32:14.001Z</time></trkpt><trkpt lat="43.52815675598494" lon="10.714042515448545"><ele>45.0</ele><time>2026-04-18T07:32:15.001Z</time></trkpt><trkpt lat="43.52802969325935" lon="10.71409682034463"><ele>45.0</ele><time>2026-04-18T07:32:16.001Z</time></trkpt><trkpt lat="43.5279081614823" lon="10.714142666268348"><ele>45.0</ele><time>2026-04-18T07:32:17.001Z</time></trkpt><trkpt lat="43.5277950755352" lon="10.714187980955959"><ele>45.0</ele><time>2026-04-18T07:32:18.001Z</time></trkpt><trkpt lat="43.527679424014174" lon="10.714234463868692"><ele>45.0</ele><time>2026-04-18T07:32:19.001Z</time></trkpt><trkpt lat="43.52756843755243" lon="10.71428103061772"><ele>45.0</ele><time>2026-04-18T07:32:20.001Z</time></trkpt><trkpt lat="43.5274579638768" lon="10.714328066763855"><ele>45.0</ele><time>2026-04-18T07:32:21.001Z</time></trkpt><trkpt lat="43.527345611234956" lon="10.714372181325603"><ele>45.0</ele><time>2026-04-18T07:32:22.001Z</time></trkpt><trkpt lat="43.5272461854657" lon="10.714412350972234"><ele>46.4</ele><time>2026-04-18T07:32:23.001Z</time></trkpt><trkpt lat="43.527148761516216" lon="10.714454834310736"><ele>47.8</ele><time>2026-04-18T07:32:24.001Z</time></trkpt><trkpt lat="43.52705853724216" lon="10.714494470737987"><ele>49.2</ele><time>2026-04-18T07:32:25.001Z</time></trkpt><trkpt lat="43.52696580998615" lon="10.71452822571166"><ele>50.6</ele><time>2026-04-18T07:32:26.001Z</time></trkpt><trkpt lat="43.52686665823157" lon="10.714568678389712"><ele>52.0</ele><time>2026-04-18T07:32:27.001Z</time></trkpt><trkpt lat="43.52677008036846" lon="10.714610093913967"><ele>51.99999999999999</ele><time>2026-04-18T07:32:28.001Z</time></trkpt><trkpt lat="43.52668126520035" lon="10.714647447039997"><ele>52.0</ele><time>2026-04-18T07:32:29.001Z</time></trkpt><trkpt lat="43.52659863891221" lon="10.714681152743468"><ele>52.0</ele><time>2026-04-18T07:32:30.001Z</time></trkpt><trkpt lat="43.526516928358284" lon="10.714716310339465"><ele>52.0</ele><time>2026-04-18T07:32:31.002Z</time></trkpt><trkpt lat="43.52643583356254" lon="10.714751183648989"><ele>51.99999999999999</ele><time>2026-04-18T07:32:32.002Z</time></trkpt><trkpt lat="43.526352871609134" lon="10.714787132978548"><ele>52.0</ele><time>2026-04-18T07:32:33.002Z</time></trkpt><trkpt lat="43.526273541061464" lon="10.714820561827343"><ele>50.8</ele><time>2026-04-18T07:32:34.002Z</time></trkpt><trkpt lat="43.526180020568525" lon="10.714858037516576"><ele>49.6</ele><time>2026-04-18T07:32:35.002Z</time></trkpt><trkpt lat="43.52607877033995" lon="10.714903943671317"><ele>48.4</ele><time>2026-04-18T07:32:36.002Z</time></trkpt><trkpt lat="43.52596635015078" lon="10.714944174728275"><ele>47.199999999999996</ele><time>2026-04-18T07:32:37.002Z</time></trkpt><trkpt lat="43.5258522930758" lon="10.714987625026218"><ele>46.0</ele><time>2026-04-18T07:32:38.002Z</time></trkpt><trkpt lat="43.52573708676557" lon="10.71503164671836"><ele>46.0</ele><time>2026-04-18T07:32:39.002Z</time></trkpt><trkpt lat="43.525621225485914" lon="10.715076161180844"><ele>46.0</ele><time>2026-04-18T07:32:40.002Z</time></trkpt><trkpt lat="43.525505187380205" lon="10.715119087500446"><ele>46.0</ele><time>2026-04-18T07:32:41.002Z</time></trkpt><trkpt lat="43.52540347995095" lon="10.715156568401579"><ele>46.0</ele><time>2026-04-18T07:32:42.002Z</time></trkpt><trkpt lat="43.525307875506996" lon="10.715193211819015"><ele>46.0</ele><time>2026-04-18T07:32:43Z</time></trkpt><trkpt lat="43.52522295476948" lon="10.715228431618176"><ele>46.285714285714285</ele><time>2026-04-18T07:32:44Z</time></trkpt><trkpt lat="43.525138162903815" lon="10.71526408014359"><ele>46.57142857142857</ele><time>2026-04-18T07:32:45Z</time></trkpt><trkpt lat="43.5250653674198" lon="10.715299814901606"><ele>46.857142857142854</ele><time>2026-04-18T07:32:46Z</time></trkpt><trkpt lat="43.52499973470692" lon="10.715328905816428"><ele>47.14285714285714</ele><time>2026-04-18T07:32:47Z</time></trkpt><trkpt lat="43.52493014931621" lon="10.715358099072501"><ele>47.42857142857143</ele><time>2026-04-18T07:32:48Z</time></trkpt><trkpt lat="43.52486180377263" lon="10.715374235059942"><ele>47.71428571428571</ele><time>2026-04-18T07:32:49Z</time></trkpt><trkpt lat="43.524796204850276" lon="10.715387045985795"><ele>48.0</ele><time>2026-04-18T07:32:50Z</time></trkpt><trkpt lat="43.524698807567916" lon="10.715453371974734"><ele>48.0</ele><time>2026-04-18T07:32:52Z</time></trkpt><trkpt lat="43.52465789698246" lon="10.71552237776769"><ele>48.0</ele><time>2026-04-18T07:32:53Z</time></trkpt><trkpt lat="43.52462247957127" lon="10.715617195195609"><ele>48.0</ele><time>2026-04-18T07:32:54Z</time></trkpt><trkpt lat="43.52460184139604" lon="10.715724455494735"><ele>48.0</ele><time>2026-04-18T07:32:55Z</time></trkpt><trkpt lat="43.5245900848776" lon="10.715821783367598"><ele>48.0</ele><time>2026-04-18T07:32:56Z</time></trkpt><trkpt lat="43.524585385411505" lon="10.715910047407815"><ele>48.0</ele><time>2026-04-18T07:32:57Z</time></trkpt><trkpt lat="43.52457670069853" lon="10.716079227463322"><ele>47.2</ele><time>2026-04-18T07:32:59Z</time></trkpt><trkpt lat="43.524576835231485" lon="10.71617997414151"><ele>46.4</ele><time>2026-04-18T07:33:00Z</time></trkpt><trkpt lat="43.52457098465052" lon="10.716302322450854"><ele>45.6</ele><time>2026-04-18T07:33:01Z</time></trkpt><trkpt lat="43.52456733684244" lon="10.71643254075005"><ele>44.800000000000004</ele><time>2026-04-18T07:33:02Z</time></trkpt><trkpt lat="43.5245538243377" lon="10.716565513508103"><ele>44.0</ele><time>2026-04-18T07:33:03Z</time></trkpt><trkpt lat="43.524530535836554" lon="10.71669441851485"><ele>44.0</ele><time>2026-04-18T07:33:04Z</time></trkpt><trkpt lat="43.52450065436698" lon="10.716821193513683"><ele>44.0</ele><time>2026-04-18T07:33:05Z</time></trkpt><trkpt lat="43.52446350382047" lon="10.716942724493553"><ele>44.0</ele><time>2026-04-18T07:33:06Z</time></trkpt><trkpt lat="43.524421324395725" lon="10.717057233852966"><ele>44.0</ele><time>2026-04-18T07:33:07Z</time></trkpt><trkpt lat="43.52437761407193" lon="10.717178937460908"><ele>44.0</ele><time>2026-04-18T07:33:08Z</time></trkpt><trkpt lat="43.524334094963145" lon="10.717298643125813"><ele>44.0</ele><time>2026-04-18T07:33:09Z</time></trkpt><trkpt lat="43.52428890375289" lon="10.717428129340945"><ele>44.0</ele><time>2026-04-18T07:33:10Z</time></trkpt><trkpt lat="43.52424751009723" lon="10.717552720922606"><ele>44.0</ele><time>2026-04-18T07:33:11Z</time></trkpt><trkpt lat="43.52420594965603" lon="10.717692938716567"><ele>44.0</ele><time>2026-04-18T07:33:12Z</time></trkpt><trkpt lat="43.52416888031273" lon="10.717828779245712"><ele>44.0</ele><time>2026-04-18T07:33:13Z</time></trkpt><trkpt lat="43.524127192460504" lon="10.717956802919508"><ele>44.6</ele><time>2026-04-18T07:33:14Z</time></trkpt><trkpt lat="43.52410214286943" lon="10.718108061195476"><ele>45.2</ele><time>2026-04-18T07:33:15Z</time></trkpt><trkpt lat="43.524067036904846" lon="10.718241262679445"><ele>45.800000000000004</ele><time>2026-04-18T07:33:16Z</time></trkpt><trkpt lat="43.52403490020194" lon="10.71837812157875"><ele>46.400000000000006</ele><time>2026-04-18T07:33:17Z</time></trkpt><trkpt lat="43.52400528466413" lon="10.718508202271448"><ele>47.0</ele><time>2026-04-18T07:33:18Z</time></trkpt><trkpt lat="43.52397046489222" lon="10.718622792504638"><ele>47.2</ele><time>2026-04-18T07:33:19Z</time></trkpt><trkpt lat="43.52393458589499" lon="10.718756466048687"><ele>47.400000000000006</ele><time>2026-04-18T07:33:20Z</time></trkpt><trkpt lat="43.52390317984931" lon="10.71888100168948"><ele>47.599999999999994</ele><time>2026-04-18T07:33:21Z</time></trkpt><trkpt lat="43.52386511180933" lon="10.719002149394607"><ele>47.8</ele><time>2026-04-18T07:33:22Z</time></trkpt><trkpt lat="43.523823426099014" lon="10.719115809464023"><ele>48.0</ele><time>2026-04-18T07:33:23Z</time></trkpt><trkpt lat="43.523789339319734" lon="10.719225132381148"><ele>48.0</ele><time>2026-04-18T07:33:24Z</time></trkpt><trkpt lat="43.523760217831125" lon="10.719333724398139"><ele>48.0</ele><time>2026-04-18T07:33:25Z</time></trkpt><trkpt lat="43.52374148358164" lon="10.719443635595388"><ele>48.0</ele><time>2026-04-18T07:33:26.001Z</time></trkpt><trkpt lat="43.5237178335724" lon="10.719554714461946"><ele>48.0</ele><time>2026-04-18T07:33:27.001Z</time></trkpt><trkpt lat="43.52369090424421" lon="10.719667642328298"><ele>48.0</ele><time>2026-04-18T07:33:28.001Z</time></trkpt><trkpt lat="43.52366007003714" lon="10.719767335476812"><ele>48.0</ele><time>2026-04-18T07:33:29.001Z</time></trkpt><trkpt lat="43.523618584344014" lon="10.719871408058282"><ele>47.599999999999994</ele><time>2026-04-18T07:33:30.001Z</time></trkpt><trkpt lat="43.523571510610616" lon="10.719985368404718"><ele>47.199999999999996</ele><time>2026-04-18T07:33:31.001Z</time></trkpt><trkpt lat="43.52351452403514" lon="10.720121587181298"><ele>46.8</ele><time>2026-04-18T07:33:32.001Z</time></trkpt><trkpt lat="43.52345714982165" lon="10.720250776834677"><ele>46.4</ele><time>2026-04-18T07:33:33.001Z</time></trkpt><trkpt lat="43.523399219830154" lon="10.720381649930115"><ele>46.0</ele><time>2026-04-18T07:33:34.001Z</time></trkpt><trkpt lat="43.52335129362945" lon="10.720528918166814"><ele>46.0</ele><time>2026-04-18T07:33:35.001Z</time></trkpt><trkpt lat="43.5233182385124" lon="10.72068556647407"><ele>46.0</ele><time>2026-04-18T07:33:36.001Z</time></trkpt><trkpt lat="43.523290833868806" lon="10.720847175013793"><ele>46.0</ele><time>2026-04-18T07:33:37.001Z</time></trkpt><trkpt lat="43.52326356362234" lon="10.721013924535493"><ele>46.0</ele><time>2026-04-18T07:33:38.001Z</time></trkpt><trkpt lat="43.523219585269665" lon="10.721179705846057"><ele>46.0</ele><time>2026-04-18T07:33:39.001Z</time></trkpt><trkpt lat="43.52316976974401" lon="10.721330121485492"><ele>46.0</ele><time>2026-04-18T07:33:40.001Z</time></trkpt><trkpt lat="43.52311818097089" lon="10.721461224698036"><ele>46.0</ele><time>2026-04-18T07:33:41.001Z</time></trkpt><trkpt lat="43.523067393054646" lon="10.721581034267071"><ele>46.0</ele><time>2026-04-18T07:33:42.001Z</time></trkpt><trkpt lat="43.52300964565322" lon="10.721697669076379"><ele>46.0</ele><time>2026-04-18T07:33:43.001Z</time></trkpt><trkpt lat="43.52296080434807" lon="10.721797660240803"><ele>46.0</ele><time>2026-04-18T07:33:44.001Z</time></trkpt><trkpt lat="43.52292097031113" lon="10.721872697372538"><ele>46.0</ele><time>2026-04-18T07:33:45.001Z</time></trkpt><trkpt lat="43.522849852922995" lon="10.721976487301799"><ele>46.0</ele><time>2026-04-18T07:33:47.001Z</time></trkpt><trkpt lat="43.52276504291584" lon="10.722125235974211"><ele>46.0</ele><time>2026-04-18T07:33:49.001Z</time></trkpt><trkpt lat="43.522708231970576" lon="10.722220132392911"><ele>46.0</ele><time>2026-04-18T07:33:50.001Z</time></trkpt><trkpt lat="43.5226533318858" lon="10.722314730113546"><ele>46.5</ele><time>2026-04-18T07:33:51.001Z</time></trkpt><trkpt lat="43.52258288746709" lon="10.722398112981393"><ele>47.0</ele><time>2026-04-18T07:33:52.001Z</time></trkpt><trkpt lat="43.522512025379456" lon="10.72247648181458"><ele>47.5</ele><time>2026-04-18T07:33:53.001Z</time></trkpt><trkpt lat="43.52245156029794" lon="10.722535089991128"><ele>48.0</ele><time>2026-04-18T07:33:54.001Z</time></trkpt><trkpt lat="43.52240174237425" lon="10.722596427916342"><ele>48.49999999999999</ele><time>2026-04-18T07:33:55.001Z</time></trkpt><trkpt lat="43.52233725834047" lon="10.722670243146265"><ele>49.0</ele><time>2026-04-18T07:33:56.001Z</time></trkpt><trkpt lat="43.52225279352967" lon="10.722744916836655"><ele>48.99999999999999</ele><time>2026-04-18T07:33:57.001Z</time></trkpt><trkpt lat="43.52217250145696" lon="10.722824723193726"><ele>49.0</ele><time>2026-04-18T07:33:58.001Z</time></trkpt><trkpt lat="43.52210106699255" lon="10.72288938548862"><ele>49.0</ele><time>2026-04-18T07:33:59.001Z</time></trkpt><trkpt lat="43.52204017149854" lon="10.722948987712249"><ele>49.0</ele><time>2026-04-18T07:34:00.001Z</time></trkpt><trkpt lat="43.521974554908034" lon="10.723010305774778"><ele>48.99999999999999</ele><time>2026-04-18T07:34:01.001Z</time></trkpt><trkpt lat="43.521908624498536" lon="10.723057085933753"><ele>49.0</ele><time>2026-04-18T07:34:02.001Z</time></trkpt><trkpt lat="43.521813641587094" lon="10.723112416272599"><ele>49.0</ele><time>2026-04-18T07:34:03.001Z</time></trkpt><trkpt lat="43.52174670295655" lon="10.723192471196333"><ele>49.0</ele><time>2026-04-18T07:34:04.001Z</time></trkpt><trkpt lat="43.52165001421455" lon="10.723285735550132"><ele>49.0</ele><time>2026-04-18T07:34:05.001Z</time></trkpt><trkpt lat="43.52156141643166" lon="10.723384797715335"><ele>49.0</ele><time>2026-04-18T07:34:06.001Z</time></trkpt><trkpt lat="43.521482395457205" lon="10.723483124817488"><ele>49.0</ele><time>2026-04-18T07:34:07.001Z</time></trkpt><trkpt lat="43.52141916194329" lon="10.723580066403228"><ele>49.0</ele><time>2026-04-18T07:34:08.001Z</time></trkpt><trkpt lat="43.521352232807324" lon="10.72367484720044"><ele>49.0</ele><time>2026-04-18T07:34:09.001Z</time></trkpt><trkpt lat="43.52128353735394" lon="10.723773172755765"><ele>49.0</ele><time>2026-04-18T07:34:10.001Z</time></trkpt><trkpt lat="43.52121962080343" lon="10.72388239587193"><ele>49.0</ele><time>2026-04-18T07:34:11.001Z</time></trkpt><trkpt lat="43.52116253448771" lon="10.72399968777543"><ele>49.0</ele><time>2026-04-18T07:34:12.001Z</time></trkpt><trkpt lat="43.52110307916628" lon="10.724122228941965"><ele>48.75</ele><time>2026-04-18T07:34:13.001Z</time></trkpt><trkpt lat="43.521029469699066" lon="10.72425695689915"><ele>48.5</ele><time>2026-04-18T07:34:14.001Z</time></trkpt><trkpt lat="43.52093792142512" lon="10.724392306716341"><ele>48.25</ele><time>2026-04-18T07:34:15.001Z</time></trkpt><trkpt lat="43.52085758747645" lon="10.724512325522486"><ele>48.0</ele><time>2026-04-18T07:34:16.001Z</time></trkpt><trkpt lat="43.52081099443889" lon="10.72460263926541"><ele>48.0</ele><time>2026-04-18T07:34:17.001Z</time></trkpt><trkpt lat="43.520775115553946" lon="10.724689194016248"><ele>48.0</ele><time>2026-04-18T07:34:18.001Z</time></trkpt><trkpt lat="43.52075868491095" lon="10.724779825905518"><ele>48.0</ele><time>2026-04-18T07:34:19.001Z</time></trkpt><trkpt lat="43.5207528045668" lon="10.724881236758549"><ele>48.0</ele><time>2026-04-18T07:34:20.001Z</time></trkpt><trkpt lat="43.52076837889098" lon="10.724994900765745"><ele>48.0</ele><time>2026-04-18T07:34:21.001Z</time></trkpt><trkpt lat="43.52078455468993" lon="10.725141893560513"><ele>48.0</ele><time>2026-04-18T07:34:22.002Z</time></trkpt><trkpt lat="43.52079096081415" lon="10.725334041064295"><ele>48.25</ele><time>2026-04-18T07:34:23.002Z</time></trkpt><trkpt lat="43.520796133151876" lon="10.725489902799223"><ele>48.5</ele><time>2026-04-18T07:34:24.002Z</time></trkpt><trkpt lat="43.520804231875054" lon="10.725624552228707"><ele>48.75</ele><time>2026-04-18T07:34:25.002Z</time></trkpt><trkpt lat="43.52083417176187" lon="10.725769854911972"><ele>49.0</ele><time>2026-04-18T07:34:26.002Z</time></trkpt><trkpt lat="43.520929175251254" lon="10.726108653839457"><ele>49.400000000000006</ele><time>2026-04-18T07:34:28.002Z</time></trkpt><trkpt lat="43.52095399382719" lon="10.726199481168766"><ele>49.8</ele><time>2026-04-18T07:34:29.002Z</time></trkpt><trkpt lat="43.52096355085806" lon="10.7263101358758"><ele>50.2</ele><time>2026-04-18T07:34:31.002Z</time></trkpt><trkpt lat="43.52085887457879" lon="10.726428467392005"><ele>50.599999999999994</ele><time>2026-04-18T07:34:33.002Z</time></trkpt><trkpt lat="43.52077124541147" lon="10.726505995192666"><ele>51.0</ele><time>2026-04-18T07:34:34.002Z</time></trkpt><trkpt lat="43.52070153892956" lon="10.726567247781794"><ele>51.0</ele><time>2026-04-18T07:34:35.002Z</time></trkpt><trkpt lat="43.520633146082815" lon="10.726605793587353"><ele>51.0</ele><time>2026-04-18T07:34:36.002Z</time></trkpt><trkpt lat="43.520545501880086" lon="10.726645783904518"><ele>51.0</ele><time>2026-04-18T07:34:37.002Z</time></trkpt><trkpt lat="43.52044215619777" lon="10.726707652920668"><ele>51.0</ele><time>2026-04-18T07:34:38.002Z</time></trkpt><trkpt lat="43.52033479002778" lon="10.726794600779005"><ele>51.0</ele><time>2026-04-18T07:34:39.002Z</time></trkpt><trkpt lat="43.52021464502741" lon="10.726904724568042"><ele>51.0</ele><time>2026-04-18T07:34:40.002Z</time></trkpt><trkpt lat="43.52009979823199" lon="10.727007541716192"><ele>51.0</ele><time>2026-04-18T07:34:41.002Z</time></trkpt><trkpt lat="43.520002641009135" lon="10.727098305393824"><ele>51.0</ele><time>2026-04-18T07:34:42.002Z</time></trkpt><trkpt lat="43.519916296776046" lon="10.727174129304386"><ele>51.0</ele><time>2026-04-18T07:34:43.002Z</time></trkpt><trkpt lat="43.51984143988203" lon="10.727230453272773"><ele>51.0</ele><time>2026-04-18T07:34:44.002Z</time></trkpt><trkpt lat="43.51977337639044" lon="10.72729458783929"><ele>51.0</ele><time>2026-04-18T07:34:45.002Z</time></trkpt><trkpt lat="43.51972244650881" lon="10.727358038789834"><ele>51.0</ele><time>2026-04-18T07:34:46.002Z</time></trkpt><trkpt lat="43.519691710347594" lon="10.727473696302436"><ele>51.0</ele><time>2026-04-18T07:34:48.002Z</time></trkpt><trkpt lat="43.519661183758494" lon="10.727636037884043"><ele>51.0</ele><time>2026-04-18T07:34:50.001Z</time></trkpt><trkpt lat="43.51963954616885" lon="10.72773868651553"><ele>51.0</ele><time>2026-04-18T07:34:51.001Z</time></trkpt><trkpt lat="43.51964765954688" lon="10.727830876740187"><ele>51.0</ele><time>2026-04-18T07:34:52.001Z</time></trkpt><trkpt lat="43.51964796152136" lon="10.72795008340083"><ele>51.714285714285715</ele><time>2026-04-18T07:34:54.001Z</time></trkpt><trkpt lat="43.51963844091796" lon="10.728040051801775"><ele>52.42857142857143</ele><time>2026-04-18T07:34:55.001Z</time></trkpt><trkpt lat="43.51962748679281" lon="10.728150095587287"><ele>53.14285714285714</ele><time>2026-04-18T07:34:56.001Z</time></trkpt><trkpt lat="43.51962218354254" lon="10.7282464379802"><ele>53.85714285714286</ele><time>2026-04-18T07:34:57.001Z</time></trkpt><trkpt lat="43.51962592593765" lon="10.72834126450485"><ele>54.57142857142857</ele><time>2026-04-18T07:34:58.001Z</time></trkpt><trkpt lat="43.51962016597205" lon="10.72844117810467"><ele>55.285714285714285</ele><time>2026-04-18T07:34:59.001Z</time></trkpt><trkpt lat="43.51961082234104" lon="10.72853304128282"><ele>56.0</ele><time>2026-04-18T07:35:00.001Z</time></trkpt><trkpt lat="43.51959458933774" lon="10.72862268847035"><ele>56.8</ele><time>2026-04-18T07:35:01.001Z</time></trkpt><trkpt lat="43.51959359386648" lon="10.72879611740307"><ele>57.599999999999994</ele><time>2026-04-18T07:35:03.001Z</time></trkpt><trkpt lat="43.519604934531415" lon="10.728896003072524"><ele>58.4</ele><time>2026-04-18T07:35:04.001Z</time></trkpt><trkpt lat="43.519626560976214" lon="10.728993065822484"><ele>59.2</ele><time>2026-04-18T07:35:05.001Z</time></trkpt><trkpt lat="43.51963557831119" lon="10.7290869736184"><ele>60.0</ele><time>2026-04-18T07:35:06.001Z</time></trkpt><trkpt lat="43.519659918876094" lon="10.729260449522767"><ele>60.0</ele><time>2026-04-18T07:35:08.001Z</time></trkpt><trkpt lat="43.519668259892" lon="10.72935274291074"><ele>60.0</ele><time>2026-04-18T07:35:09.001Z</time></trkpt><trkpt lat="43.51969234207011" lon="10.729518566068439"><ele>60.0</ele><time>2026-04-18T07:35:11.001Z</time></trkpt><trkpt lat="43.51970683545336" lon="10.729613690679379"><ele>60.0</ele><time>2026-04-18T07:35:12.001Z</time></trkpt><trkpt lat="43.51967999530167" lon="10.729786618200956"><ele>60.0</ele><time>2026-04-18T07:35:14.001Z</time></trkpt><trkpt lat="43.51963927139858" lon="10.729910596778346"><ele>59.8</ele><time>2026-04-18T07:35:16.001Z</time></trkpt><trkpt lat="43.519585461922986" lon="10.730017526993114"><ele>59.6</ele><time>2026-04-18T07:35:18.001Z</time></trkpt><trkpt lat="43.51956415721016" lon="10.730163645809107"><ele>59.400000000000006</ele><time>2026-04-18T07:35:20.001Z</time></trkpt><trkpt lat="43.51956304489087" lon="10.730294048180806"><ele>59.2</ele><time>2026-04-18T07:35:22.001Z</time></trkpt><trkpt lat="43.51959293182356" lon="10.73039942575286"><ele>59.0</ele><time>2026-04-18T07:35:24.001Z</time></trkpt><trkpt lat="43.51959840185838" lon="10.730538989523177"><ele>61.0</ele><time>2026-04-18T07:35:26.001Z</time></trkpt><trkpt lat="43.51961264733601" lon="10.730688636451283"><ele>63.0</ele><time>2026-04-18T07:35:28.001Z</time></trkpt><trkpt lat="43.51964940617925" lon="10.730828172489124"><ele>65.0</ele><time>2026-04-18T07:35:30.001Z</time></trkpt><trkpt lat="43.51965124026151" lon="10.730991529771929"><ele>67.0</ele><time>2026-04-18T07:35:32.001Z</time></trkpt><trkpt lat="43.51965348699461" lon="10.73115742135934"><ele>69.4</ele><time>2026-04-18T07:35:34.001Z</time></trkpt><trkpt lat="43.519658763483" lon="10.731289286090693"><ele>71.80000000000001</ele><time>2026-04-18T07:35:36.001Z</time></trkpt><trkpt lat="43.519688631846954" lon="10.731415024614034"><ele>74.2</ele><time>2026-04-18T07:35:38.001Z</time></trkpt><trkpt lat="43.51967962108407" lon="10.731554845061563"><ele>76.60000000000001</ele><time>2026-04-18T07:35:40.001Z</time></trkpt><trkpt lat="43.519725293127465" lon="10.73170106626898"><ele>79.0</ele><time>2026-04-18T07:35:42.001Z</time></trkpt><trkpt lat="43.519752265100344" lon="10.731798973283452"><ele>79.0</ele><time>2026-04-18T07:35:43.001Z</time></trkpt><trkpt lat="43.51978531024021" lon="10.731875350816125"><ele>79.0</ele><time>2026-04-18T07:35:44.001Z</time></trkpt><trkpt lat="43.51980463485309" lon="10.731965971697964"><ele>79.0</ele><time>2026-04-18T07:35:45.001Z</time></trkpt><trkpt lat="43.51983193996061" lon="10.732059428506153"><ele>79.0</ele><time>2026-04-18T07:35:46.001Z</time></trkpt><trkpt lat="43.519851502623844" lon="10.732145939403264"><ele>79.0</ele><time>2026-04-18T07:35:47.001Z</time></trkpt><trkpt lat="43.519863921531766" lon="10.7322327483599"><ele>79.0</ele><time>2026-04-18T07:35:48.001Z</time></trkpt><trkpt lat="43.519876869839614" lon="10.732402490731676"><ele>80.16666666666666</ele><time>2026-04-18T07:35:50.001Z</time></trkpt><trkpt lat="43.51987900589419" lon="10.73258205387773"><ele>81.33333333333333</ele><time>2026-04-18T07:35:52.001Z</time></trkpt><trkpt lat="43.519866104146644" lon="10.732670946678082"><ele>82.5</ele><time>2026-04-18T07:35:53.001Z</time></trkpt><trkpt lat="43.51984614101943" lon="10.732756750889777"><ele>83.66666666666667</ele><time>2026-04-18T07:35:54.001Z</time></trkpt><trkpt lat="43.51983912596001" lon="10.732844505652615"><ele>84.83333333333334</ele><time>2026-04-18T07:35:55.001Z</time></trkpt><trkpt lat="43.519852540415634" lon="10.73295036299486"><ele>86.0</ele><time>2026-04-18T07:35:56.001Z</time></trkpt><trkpt lat="43.5198614145808" lon="10.733066816284973"><ele>87.66666666666667</ele><time>2026-04-18T07:35:57.001Z</time></trkpt><trkpt lat="43.519877072108976" lon="10.7331653997564"><ele>89.33333333333334</ele><time>2026-04-18T07:35:58.001Z</time></trkpt><trkpt lat="43.51988200760267" lon="10.73329406512925"><ele>91.0</ele><time>2026-04-18T07:35:59.001Z</time></trkpt><trkpt lat="43.51988663124214" lon="10.733406514157817"><ele>92.66666666666667</ele><time>2026-04-18T07:36:00.001Z</time></trkpt><trkpt lat="43.51989194573585" lon="10.733527060057332"><ele>94.33333333333333</ele><time>2026-04-18T07:36:01.001Z</time></trkpt><trkpt lat="43.519885135222225" lon="10.733633532258656"><ele>96.0</ele><time>2026-04-18T07:36:02.001Z</time></trkpt><trkpt lat="43.51986023431922" lon="10.733747389948883"><ele>96.33333333333333</ele><time>2026-04-18T07:36:03.001Z</time></trkpt><trkpt lat="43.51983984801026" lon="10.733844531162676"><ele>96.66666666666666</ele><time>2026-04-18T07:36:04.001Z</time></trkpt><trkpt lat="43.51983254509516" lon="10.733960270253302"><ele>97.0</ele><time>2026-04-18T07:36:05.001Z</time></trkpt><trkpt lat="43.519825966877065" lon="10.734089271796217"><ele>97.33333333333333</ele><time>2026-04-18T07:36:06.001Z</time></trkpt><trkpt lat="43.519816938300394" lon="10.734209756091941"><ele>97.66666666666666</ele><time>2026-04-18T07:36:07.001Z</time></trkpt><trkpt lat="43.51983699222981" lon="10.73434882618963"><ele>98.0</ele><time>2026-04-18T07:36:09.001Z</time></trkpt><trkpt lat="43.51996125725486" lon="10.734433678368868"><ele>97.99999999999999</ele><time>2026-04-18T07:36:11.001Z</time></trkpt><trkpt lat="43.52003761597518" lon="10.734469103545692"><ele>98.0</ele><time>2026-04-18T07:36:12.001Z</time></trkpt><trkpt lat="43.520108609241724" lon="10.73451892450702"><ele>98.0</ele><time>2026-04-18T07:36:13.001Z</time></trkpt><trkpt lat="43.5201661530136" lon="10.734585571450445"><ele>98.0</ele><time>2026-04-18T07:36:14.001Z</time></trkpt><trkpt lat="43.520238687253716" lon="10.734650400145131"><ele>97.99999999999999</ele><time>2026-04-18T07:36:15.002Z</time></trkpt><trkpt lat="43.520318312923116" lon="10.73471309870541"><ele>98.0</ele><time>2026-04-18T07:36:16.002Z</time></trkpt><trkpt lat="43.52038048234324" lon="10.734765651510939"><ele>100.33333333333333</ele><time>2026-04-18T07:36:17.002Z</time></trkpt><trkpt lat="43.520491205034006" lon="10.734867154355948"><ele>102.66666666666666</ele><time>2026-04-18T07:36:19.002Z</time></trkpt><trkpt lat="43.52055488667424" lon="10.73492257384074"><ele>105.0</ele><time>2026-04-18T07:36:20.002Z</time></trkpt><trkpt lat="43.520610479292884" lon="10.734977311306626"><ele>107.33333333333334</ele><time>2026-04-18T07:36:21.002Z</time></trkpt><trkpt lat="43.52066146988617" lon="10.73504207155323"><ele>109.66666666666667</ele><time>2026-04-18T07:36:22.002Z</time></trkpt><trkpt lat="43.52070272524263" lon="10.735121127829792"><ele>112.0</ele><time>2026-04-18T07:36:23.002Z</time></trkpt><trkpt lat="43.5207316894332" lon="10.735214718453676"><ele>112.50000000000001</ele><time>2026-04-18T07:36:24.002Z</time></trkpt><trkpt lat="43.52074268861255" lon="10.735319906499425"><ele>113.0</ele><time>2026-04-18T07:36:25.002Z</time></trkpt><trkpt lat="43.520763141520085" lon="10.735410255384654"><ele>113.5</ele><time>2026-04-18T07:36:26.002Z</time></trkpt><trkpt lat="43.52079305483456" lon="10.735492174868737"><ele>114.0</ele><time>2026-04-18T07:36:27.002Z</time></trkpt><trkpt lat="43.520840004631225" lon="10.73556018474252"><ele>114.50000000000001</ele><time>2026-04-18T07:36:28.002Z</time></trkpt><trkpt lat="43.520894947776235" lon="10.735620635067892"><ele>115.0</ele><time>2026-04-18T07:36:29.002Z</time></trkpt><trkpt lat="43.520984659939884" lon="10.735734405912677"><ele>115.00000000000001</ele><time>2026-04-18T07:36:31.002Z</time></trkpt><trkpt lat="43.52108097021518" lon="10.735845696942727"><ele>115.0</ele><time>2026-04-18T07:36:33.002Z</time></trkpt><trkpt lat="43.521143580685425" lon="10.735897280710851"><ele>115.0</ele><time>2026-04-18T07:36:34.002Z</time></trkpt><trkpt lat="43.52124888590523" lon="10.735931979001778"><ele>115.0</ele><time>2026-04-18T07:36:36.002Z</time></trkpt><trkpt lat="43.521303876217225" lon="10.736005357079526"><ele>115.00000000000001</ele><time>2026-04-18T07:36:37.002Z</time></trkpt><trkpt lat="43.52135387473873" lon="10.736064275080475"><ele>115.0</ele><time>2026-04-18T07:36:38.002Z</time></trkpt><trkpt lat="43.52139865589729" lon="10.736131998836447"><ele>118.16666666666667</ele><time>2026-04-18T07:36:39.002Z</time></trkpt><trkpt lat="43.52145398157007" lon="10.736201692370107"><ele>121.33333333333334</ele><time>2026-04-18T07:36:40.002Z</time></trkpt><trkpt lat="43.52151644928396" lon="10.736282921884952"><ele>124.5</ele><time>2026-04-18T07:36:41.002Z</time></trkpt><trkpt lat="43.52157637136346" lon="10.736362836902147"><ele>127.66666666666666</ele><time>2026-04-18T07:36:42.002Z</time></trkpt><trkpt lat="43.52163099632494" lon="10.736430548907588"><ele>130.83333333333331</ele><time>2026-04-18T07:36:43.002Z</time></trkpt><trkpt lat="43.52170657928534" lon="10.736534931807265"><ele>134.0</ele><time>2026-04-18T07:36:45.002Z</time></trkpt><trkpt lat="43.521736122898176" lon="10.736616496969228"><ele>134.0</ele><time>2026-04-18T07:36:46.002Z</time></trkpt><trkpt lat="43.52179593864506" lon="10.736710240566147"><ele>134.0</ele><time>2026-04-18T07:36:47.002Z</time></trkpt><trkpt lat="43.52187686824705" lon="10.736820126225593"><ele>134.0</ele><time>2026-04-18T07:36:48.002Z</time></trkpt><trkpt lat="43.52195673219213" lon="10.736925246251383"><ele>134.0</ele><time>2026-04-18T07:36:49.002Z</time></trkpt><trkpt lat="43.52200799575069" lon="10.736995414733824"><ele>134.0</ele><time>2026-04-18T07:36:50.002Z</time></trkpt><trkpt lat="43.522085536776395" lon="10.737072144561333"><ele>133.6</ele><time>2026-04-18T07:36:52.002Z</time></trkpt><trkpt lat="43.52212607737632" lon="10.737154656434596"><ele>133.2</ele><time>2026-04-18T07:36:54.002Z</time></trkpt><trkpt lat="43.52209802575833" lon="10.737326594132693"><ele>132.79999999999998</ele><time>2026-04-18T07:36:56.001Z</time></trkpt><trkpt lat="43.522052820883616" lon="10.737441865139399"><ele>132.4</ele><time>2026-04-18T07:36:57.001Z</time></trkpt><trkpt lat="43.52200561236396" lon="10.737575558378834"><ele>132.0</ele><time>2026-04-18T07:36:58.001Z</time></trkpt><trkpt lat="43.521959195708305" lon="10.737720671446358"><ele>134.4</ele><time>2026-04-18T07:36:59.001Z</time></trkpt><trkpt lat="43.521898542129684" lon="10.737846639522747"><ele>136.79999999999998</ele><time>2026-04-18T07:37:00.001Z</time></trkpt><trkpt lat="43.52182876746897" lon="10.737920280520463"><ele>139.2</ele><time>2026-04-18T07:37:01.001Z</time></trkpt><trkpt lat="43.521768138055684" lon="10.737976298915854"><ele>141.6</ele><time>2026-04-18T07:37:02.001Z</time></trkpt><trkpt lat="43.52168486612289" lon="10.738062778459872"><ele>144.0</ele><time>2026-04-18T07:37:04.001Z</time></trkpt><trkpt lat="43.52170528095171" lon="10.738350172520967"><ele>144.0</ele><time>2026-04-18T07:37:06.001Z</time></trkpt><trkpt lat="43.5217443566984" lon="10.738497410687422"><ele>144.0</ele><time>2026-04-18T07:37:07Z</time></trkpt><trkpt lat="43.52177828535562" lon="10.738661698578982"><ele>144.0</ele><time>2026-04-18T07:37:08Z</time></trkpt><trkpt lat="43.52181261100443" lon="10.738831086119138"><ele>144.0</ele><time>2026-04-18T07:37:09Z</time></trkpt><trkpt lat="43.521863970637874" lon="10.738998180325943"><ele>144.0</ele><time>2026-04-18T07:37:10Z</time></trkpt><trkpt lat="43.52192254043873" lon="10.739149654768362"><ele>144.0</ele><time>2026-04-18T07:37:11Z</time></trkpt><trkpt lat="43.52197796888434" lon="10.739320193342603"><ele>144.0</ele><time>2026-04-18T07:37:12Z</time></trkpt><trkpt lat="43.52203423933669" lon="10.73948387797335"><ele>144.0</ele><time>2026-04-18T07:37:13Z</time></trkpt><trkpt lat="43.522087125968504" lon="10.73965007753598"><ele>147.0</ele><time>2026-04-18T07:37:14Z</time></trkpt><trkpt lat="43.522139955002025" lon="10.73979576837692"><ele>150.0</ele><time>2026-04-18T07:37:15Z</time></trkpt><trkpt lat="43.52218839974317" lon="10.739929539274355"><ele>153.0</ele><time>2026-04-18T07:37:16Z</time></trkpt><trkpt lat="43.52224074827356" lon="10.740069746473575"><ele>156.0</ele><time>2026-04-18T07:37:17.001Z</time></trkpt><trkpt lat="43.52229881567282" lon="10.7402144742414"><ele>157.0</ele><time>2026-04-18T07:37:18.001Z</time></trkpt><trkpt lat="43.52236678076904" lon="10.740356180765339"><ele>158.0</ele><time>2026-04-18T07:37:19.001Z</time></trkpt><trkpt lat="43.522427321968756" lon="10.740498071521841"><ele>159.0</ele><time>2026-04-18T07:37:20.001Z</time></trkpt><trkpt lat="43.52248477942706" lon="10.740636230892587"><ele>160.0</ele><time>2026-04-18T07:37:21.001Z</time></trkpt><trkpt lat="43.522538217111425" lon="10.740755003996915"><ele>160.0</ele><time>2026-04-18T07:37:22.001Z</time></trkpt><trkpt lat="43.522587036194075" lon="10.740864565973876"><ele>160.0</ele><time>2026-04-18T07:37:23.001Z</time></trkpt><trkpt lat="43.52264022804122" lon="10.740978906511971"><ele>160.0</ele><time>2026-04-18T07:37:24.001Z</time></trkpt><trkpt lat="43.52269918259283" lon="10.74109952299257"><ele>160.0</ele><time>2026-04-18T07:37:25.001Z</time></trkpt><trkpt lat="43.52276181050224" lon="10.741233169536132"><ele>160.0</ele><time>2026-04-18T07:37:26.001Z</time></trkpt><trkpt lat="43.522848701496066" lon="10.741343695822565"><ele>159.75</ele><time>2026-04-18T07:37:27.001Z</time></trkpt><trkpt lat="43.52294976197535" lon="10.741449110522378"><ele>159.5</ele><time>2026-04-18T07:37:28.001Z</time></trkpt><trkpt lat="43.523054163320886" lon="10.741530953963041"><ele>159.25</ele><time>2026-04-18T07:37:29.001Z</time></trkpt><trkpt lat="43.523148097722164" lon="10.741614098791631"><ele>159.0</ele><time>2026-04-18T07:37:30.001Z</time></trkpt><trkpt lat="43.523242179633804" lon="10.741700642501856"><ele>159.0</ele><time>2026-04-18T07:37:31.001Z</time></trkpt><trkpt lat="43.52332227664749" lon="10.741801430261035"><ele>159.0</ele><time>2026-04-18T07:37:32.001Z</time></trkpt><trkpt lat="43.523403061861245" lon="10.74187548373471"><ele>159.0</ele><time>2026-04-18T07:37:33.001Z</time></trkpt><trkpt lat="43.52348003752033" lon="10.741944045102295"><ele>159.0</ele><time>2026-04-18T07:37:34.001Z</time></trkpt><trkpt lat="43.52355103831082" lon="10.742001337453797"><ele>159.0</ele><time>2026-04-18T07:37:35.001Z</time></trkpt><trkpt lat="43.52363036829779" lon="10.7420327753964"><ele>159.75</ele><time>2026-04-18T07:37:36.001Z</time></trkpt><trkpt lat="43.523727110431274" lon="10.742059039923605"><ele>160.5</ele><time>2026-04-18T07:37:37.001Z</time></trkpt><trkpt lat="43.52384651181331" lon="10.742031442812157"><ele>161.25</ele><time>2026-04-18T07:37:38.001Z</time></trkpt><trkpt lat="43.52396682827461" lon="10.74196953629828"><ele>162.0</ele><time>2026-04-18T07:37:39.001Z</time></trkpt><trkpt lat="43.52408969848462" lon="10.74191892231409"><ele>162.6</ele><time>2026-04-18T07:37:40.001Z</time></trkpt><trkpt lat="43.52420208900254" lon="10.74187151948853"><ele>163.2</ele><time>2026-04-18T07:37:41.001Z</time></trkpt><trkpt lat="43.52430344476337" lon="10.74183026124999"><ele>163.8</ele><time>2026-04-18T07:37:42.001Z</time></trkpt><trkpt lat="43.524396577197535" lon="10.741793960925945"><ele>164.4</ele><time>2026-04-18T07:37:43.001Z</time></trkpt><trkpt lat="43.524487983442576" lon="10.74177190584393"><ele>165.0</ele><time>2026-04-18T07:37:44.001Z</time></trkpt><trkpt lat="43.52457825615929" lon="10.741772016545989"><ele>166.4</ele><time>2026-04-18T07:37:45.001Z</time></trkpt><trkpt lat="43.524685966272784" lon="10.74178551867299"><ele>167.8</ele><time>2026-04-18T07:37:46.001Z</time></trkpt><trkpt lat="43.52477653377193" lon="10.74181231079895"><ele>169.2</ele><time>2026-04-18T07:37:47.001Z</time></trkpt><trkpt lat="43.52486156635512" lon="10.741827041224001"><ele>170.6</ele><time>2026-04-18T07:37:48.001Z</time></trkpt><trkpt lat="43.524957750328106" lon="10.741826644201296"><ele>172.0</ele><time>2026-04-18T07:37:49.001Z</time></trkpt><trkpt lat="43.52506272575824" lon="10.741814434865017"><ele>172.0</ele><time>2026-04-18T07:37:50.001Z</time></trkpt><trkpt lat="43.52518724514778" lon="10.741788810957138"><ele>172.0</ele><time>2026-04-18T07:37:51.001Z</time></trkpt><trkpt lat="43.525303495008586" lon="10.741753891156389"><ele>172.0</ele><time>2026-04-18T07:37:52.001Z</time></trkpt><trkpt lat="43.52540728398085" lon="10.741702717894883"><ele>172.0</ele><time>2026-04-18T07:37:53.001Z</time></trkpt><trkpt lat="43.52550259573744" lon="10.741635943615085"><ele>171.5</ele><time>2026-04-18T07:37:54.001Z</time></trkpt><trkpt lat="43.525584050217084" lon="10.741545390426362"><ele>171.0</ele><time>2026-04-18T07:37:55.001Z</time></trkpt><trkpt lat="43.52566985129704" lon="10.741478687139132"><ele>170.5</ele><time>2026-04-18T07:37:56.001Z</time></trkpt><trkpt lat="43.52574347345245" lon="10.741417285897933"><ele>170.0</ele><time>2026-04-18T07:37:57.001Z</time></trkpt><trkpt lat="43.52579654745453" lon="10.741368899444458"><ele>169.5</ele><time>2026-04-18T07:37:58.001Z</time></trkpt><trkpt lat="43.52587196515219" lon="10.741300727760937"><ele>169.0</ele><time>2026-04-18T07:38:00.001Z</time></trkpt><trkpt lat="43.525954923670405" lon="10.74128389466024"><ele>169.0</ele><time>2026-04-18T07:38:03.001Z</time></trkpt><trkpt lat="43.52601086352331" lon="10.741415159212952"><ele>169.0</ele><time>2026-04-18T07:38:05.001Z</time></trkpt><trkpt lat="43.52604982044727" lon="10.741485031789884"><ele>169.0</ele><time>2026-04-18T07:38:06.001Z</time></trkpt><trkpt lat="43.526147435432875" lon="10.741583031986057"><ele>169.0</ele><time>2026-04-18T07:38:08.001Z</time></trkpt><trkpt lat="43.5261888819064" lon="10.7416516658336"><ele>169.0</ele><time>2026-04-18T07:38:09.001Z</time></trkpt><trkpt lat="43.52625392076171" lon="10.741708679168674"><ele>169.0</ele><time>2026-04-18T07:38:10.001Z</time></trkpt><trkpt lat="43.52631939414993" lon="10.741779791994354"><ele>169.39999999999998</ele><time>2026-04-18T07:38:11.001Z</time></trkpt><trkpt lat="43.526381881563225" lon="10.741861248673418"><ele>169.8</ele><time>2026-04-18T07:38:12.001Z</time></trkpt><trkpt lat="43.52645641707632" lon="10.741967902555201"><ele>170.2</ele><time>2026-04-18T07:38:13.001Z</time></trkpt><trkpt lat="43.52652609441826" lon="10.742070766979328"><ele>170.60000000000002</ele><time>2026-04-18T07:38:14.001Z</time></trkpt><trkpt lat="43.526595427404445" lon="10.742179025306502"><ele>171.0</ele><time>2026-04-18T07:38:15.001Z</time></trkpt><trkpt lat="43.52666017371699" lon="10.742281921865185"><ele>171.0</ele><time>2026-04-18T07:38:16.001Z</time></trkpt><trkpt lat="43.52671049771919" lon="10.742365421282084"><ele>171.0</ele><time>2026-04-18T07:38:17.001Z</time></trkpt><trkpt lat="43.526757145225886" lon="10.742437027065304"><ele>171.0</ele><time>2026-04-18T07:38:18.001Z</time></trkpt><trkpt lat="43.526815952655674" lon="10.742502670307868"><ele>171.0</ele><time>2026-04-18T07:38:19.001Z</time></trkpt><trkpt lat="43.526880340993245" lon="10.742593753654873"><ele>171.0</ele><time>2026-04-18T07:38:20.001Z</time></trkpt><trkpt lat="43.526942711616414" lon="10.742714231643136"><ele>171.0</ele><time>2026-04-18T07:38:21.001Z</time></trkpt><trkpt lat="43.52699417064458" lon="10.742851149832278"><ele>171.33333333333334</ele><time>2026-04-18T07:38:22.001Z</time></trkpt><trkpt lat="43.527022365625726" lon="10.742972628668419"><ele>171.66666666666666</ele><time>2026-04-18T07:38:23.001Z</time></trkpt><trkpt lat="43.52704343539576" lon="10.743072815361625"><ele>172.0</ele><time>2026-04-18T07:38:24.001Z</time></trkpt><trkpt lat="43.52707626515978" lon="10.743174388756453"><ele>172.33333333333331</ele><time>2026-04-18T07:38:25.001Z</time></trkpt><trkpt lat="43.527107667039054" lon="10.743268430795904"><ele>172.66666666666666</ele><time>2026-04-18T07:38:26.001Z</time></trkpt><trkpt lat="43.52714022625298" lon="10.743364084755445"><ele>173.0</ele><time>2026-04-18T07:38:27.001Z</time></trkpt><trkpt lat="43.527169577017624" lon="10.74345598924921"><ele>172.66666666666666</ele><time>2026-04-18T07:38:28.001Z</time></trkpt><trkpt lat="43.5271960629567" lon="10.743566334128827"><ele>172.33333333333331</ele><time>2026-04-18T07:38:29.001Z</time></trkpt><trkpt lat="43.527219479292356" lon="10.743676791633815"><ele>172.0</ele><time>2026-04-18T07:38:30.001Z</time></trkpt><trkpt lat="43.5272379304898" lon="10.743793591304879"><ele>171.66666666666666</ele><time>2026-04-18T07:38:31.001Z</time></trkpt><trkpt lat="43.5272657447558" lon="10.743897412027934"><ele>171.33333333333334</ele><time>2026-04-18T07:38:32.001Z</time></trkpt><trkpt lat="43.52729182504475" lon="10.743982314250557"><ele>171.0</ele><time>2026-04-18T07:38:33.001Z</time></trkpt><trkpt lat="43.52735321416224" lon="10.744109374883973"><ele>170.99999999999997</ele><time>2026-04-18T07:38:35.002Z</time></trkpt><trkpt lat="43.52740032154465" lon="10.744175453630659"><ele>171.0</ele><time>2026-04-18T07:38:36.002Z</time></trkpt><trkpt lat="43.52746066212625" lon="10.744235545101443"><ele>171.0</ele><time>2026-04-18T07:38:37.002Z</time></trkpt><trkpt lat="43.52752569051706" lon="10.744266955962532"><ele>171.0</ele><time>2026-04-18T07:38:38.002Z</time></trkpt><trkpt lat="43.52758238049015" lon="10.744308564183587"><ele>171.0</ele><time>2026-04-18T07:38:39.002Z</time></trkpt><trkpt lat="43.52766918984753" lon="10.744347331184743"><ele>170.99999999999997</ele><time>2026-04-18T07:38:40.002Z</time></trkpt><trkpt lat="43.52774354966484" lon="10.744396365005848"><ele>171.0</ele><time>2026-04-18T07:38:41.002Z</time></trkpt><trkpt lat="43.52781308038248" lon="10.744443119483677"><ele>170.28571428571428</ele><time>2026-04-18T07:38:42.002Z</time></trkpt><trkpt lat="43.527885484283395" lon="10.744494747479079"><ele>169.57142857142856</ele><time>2026-04-18T07:38:43.002Z</time></trkpt><trkpt lat="43.52795323967348" lon="10.744544363158203"><ele>168.85714285714283</ele><time>2026-04-18T07:38:44.002Z</time></trkpt><trkpt lat="43.52801159999499" lon="10.744588788740376"><ele>168.14285714285714</ele><time>2026-04-18T07:38:45.002Z</time></trkpt><trkpt lat="43.528069804254116" lon="10.744635289604078"><ele>167.42857142857144</ele><time>2026-04-18T07:38:46.002Z</time></trkpt><trkpt lat="43.528134026431516" lon="10.744678420689926"><ele>166.7142857142857</ele><time>2026-04-18T07:38:47.002Z</time></trkpt><trkpt lat="43.52818156066437" lon="10.744760278621289"><ele>166.0</ele><time>2026-04-18T07:38:48.002Z</time></trkpt><trkpt lat="43.52822540286162" lon="10.744855229866758"><ele>165.83333333333334</ele><time>2026-04-18T07:38:49.002Z</time></trkpt><trkpt lat="43.528265842672766" lon="10.744952315694041"><ele>165.66666666666669</ele><time>2026-04-18T07:38:50.002Z</time></trkpt><trkpt lat="43.52827428007992" lon="10.745056252835548"><ele>165.5</ele><time>2026-04-18T07:38:51.002Z</time></trkpt><trkpt lat="43.52832792916446" lon="10.745171159464762"><ele>165.33333333333334</ele><time>2026-04-18T07:38:53.002Z</time></trkpt><trkpt lat="43.528403113519225" lon="10.745270662386652"><ele>165.16666666666666</ele><time>2026-04-18T07:38:55.002Z</time></trkpt><trkpt lat="43.52844991357045" lon="10.745362273382897"><ele>165.0</ele><time>2026-04-18T07:38:57.002Z</time></trkpt><trkpt lat="43.52848261486247" lon="10.745437144584516"><ele>165.0</ele><time>2026-04-18T07:39:00.002Z</time></trkpt><trkpt lat="43.528636207535904" lon="10.745392573351703"><ele>165.0</ele><time>2026-04-18T07:39:13Z</time></trkpt><trkpt lat="43.52868896678651" lon="10.745321846821538"><ele>165.0</ele><time>2026-04-18T07:39:17Z</time></trkpt><trkpt lat="43.52875586025391" lon="10.74529599123043"><ele>165.0</ele><time>2026-04-18T07:39:19Z</time></trkpt><trkpt lat="43.52884356622349" lon="10.745280881767846"><ele>165.0</ele><time>2026-04-18T07:39:21Z</time></trkpt><trkpt lat="43.52892396297104" lon="10.745271213800171"><ele>165.0</ele><time>2026-04-18T07:39:23Z</time></trkpt><trkpt lat="43.52900003355688" lon="10.74526259133458"><ele>165.0</ele><time>2026-04-18T07:39:25Z</time></trkpt><trkpt lat="43.52907451389938" lon="10.745250497161969"><ele>165.0</ele><time>2026-04-18T07:39:27Z</time></trkpt><trkpt lat="43.529159822948735" lon="10.74522689239098"><ele>165.0</ele><time>2026-04-18T07:39:29Z</time></trkpt><trkpt lat="43.529235761225166" lon="10.745198860087179"><ele>165.0</ele><time>2026-04-18T07:39:31Z</time></trkpt><trkpt lat="43.529317022261765" lon="10.745174922705456"><ele>165.0</ele><time>2026-04-18T07:39:34Z</time></trkpt><trkpt lat="43.529380723266634" lon="10.745178493923627"><ele>165.0</ele><time>2026-04-18T07:39:39Z</time></trkpt><trkpt lat="43.5294829043244" lon="10.745224007346772"><ele>165.0</ele><time>2026-04-18T07:39:42Z</time></trkpt><trkpt lat="43.52954667606176" lon="10.745260861075046"><ele>165.0</ele><time>2026-04-18T07:39:43Z</time></trkpt><trkpt lat="43.52961585857652" lon="10.74529621764126"><ele>165.0</ele><time>2026-04-18T07:39:44Z</time></trkpt><trkpt lat="43.529709411012746" lon="10.74530390332724"><ele>165.0</ele><time>2026-04-18T07:39:46Z</time></trkpt><trkpt lat="43.52983087534635" lon="10.745324126231775"><ele>163.4</ele><time>2026-04-18T07:39:49Z</time></trkpt><trkpt lat="43.529920914473045" lon="10.745290112599788"><ele>161.8</ele><time>2026-04-18T07:39:50Z</time></trkpt><trkpt lat="43.53002321405108" lon="10.745234588543909"><ele>160.2</ele><time>2026-04-18T07:39:51Z</time></trkpt><trkpt lat="43.530119618197" lon="10.745170142735839"><ele>158.6</ele><time>2026-04-18T07:39:52Z</time></trkpt><trkpt lat="43.53020749067504" lon="10.745098632616383"><ele>157.0</ele><time>2026-04-18T07:39:53.001Z</time></trkpt><trkpt lat="43.53028557999724" lon="10.745015373426506"><ele>156.83333333333334</ele><time>2026-04-18T07:39:54.001Z</time></trkpt><trkpt lat="43.5303442159844" lon="10.744938715885961"><ele>156.66666666666669</ele><time>2026-04-18T07:39:55.001Z</time></trkpt><trkpt lat="43.530393871088904" lon="10.744868372792984"><ele>156.5</ele><time>2026-04-18T07:39:56.001Z</time></trkpt><trkpt lat="43.53046366255537" lon="10.744806896447416"><ele>156.33333333333334</ele><time>2026-04-18T07:39:57.001Z</time></trkpt><trkpt lat="43.53054624496015" lon="10.744780100299145"><ele>156.16666666666666</ele><time>2026-04-18T07:39:58.001Z</time></trkpt><trkpt lat="43.5306437978567" lon="10.744755127881287"><ele>156.0</ele><time>2026-04-18T07:39:59.001Z</time></trkpt><trkpt lat="43.530727554541905" lon="10.744715073836707"><ele>156.0</ele><time>2026-04-18T07:40:00.001Z</time></trkpt><trkpt lat="43.53078904293027" lon="10.744671601446875"><ele>156.0</ele><time>2026-04-18T07:40:01.001Z</time></trkpt><trkpt lat="43.530850061809936" lon="10.744586775531603"><ele>156.0</ele><time>2026-04-18T07:40:02.001Z</time></trkpt><trkpt lat="43.53089928051304" lon="10.744500032544812"><ele>156.0</ele><time>2026-04-18T07:40:03.001Z</time></trkpt><trkpt lat="43.53092530058056" lon="10.744402336898187"><ele>156.0</ele><time>2026-04-18T07:40:04.001Z</time></trkpt><trkpt lat="43.53094459912912" lon="10.744289348452936"><ele>156.0</ele><time>2026-04-18T07:40:05.001Z</time></trkpt><trkpt lat="43.5309588975569" lon="10.744152153924253"><ele>156.0</ele><time>2026-04-18T07:40:06.001Z</time></trkpt><trkpt lat="43.5309739331994" lon="10.744014343912534"><ele>156.0</ele><time>2026-04-18T07:40:07.001Z</time></trkpt><trkpt lat="43.53098018178503" lon="10.743879452566638"><ele>156.0</ele><time>2026-04-18T07:40:08.001Z</time></trkpt><trkpt lat="43.5309685139515" lon="10.743737209988176"><ele>156.0</ele><time>2026-04-18T07:40:09.001Z</time></trkpt><trkpt lat="43.5309433116075" lon="10.743580955211616"><ele>156.0</ele><time>2026-04-18T07:40:10.001Z</time></trkpt><trkpt lat="43.53091204342447" lon="10.743420101556541"><ele>157.0</ele><time>2026-04-18T07:40:11.001Z</time></trkpt><trkpt lat="43.53087408722487" lon="10.743296022146568"><ele>158.0</ele><time>2026-04-18T07:40:12.001Z</time></trkpt><trkpt lat="43.53085511318746" lon="10.743180672704074"><ele>159.0</ele><time>2026-04-18T07:40:13.001Z</time></trkpt><trkpt lat="43.530837087086454" lon="10.743062483702229"><ele>160.0</ele><time>2026-04-18T07:40:14.001Z</time></trkpt><trkpt lat="43.53084885076999" lon="10.742954639367053"><ele>161.0</ele><time>2026-04-18T07:40:15.001Z</time></trkpt><trkpt lat="43.53085885013761" lon="10.74286222633926"><ele>162.0</ele><time>2026-04-18T07:40:16.001Z</time></trkpt><trkpt lat="43.530880872909144" lon="10.742780644263874"><ele>163.0</ele><time>2026-04-18T07:40:17.001Z</time></trkpt><trkpt lat="43.53093043979625" lon="10.742624342896184"><ele>164.0</ele><time>2026-04-18T07:40:19.001Z</time></trkpt><trkpt lat="43.530973839396616" lon="10.742504192738954"><ele>165.0</ele><time>2026-04-18T07:40:21.001Z</time></trkpt><trkpt lat="43.530910335172116" lon="10.742324110136217"><ele>166.0</ele><time>2026-04-18T07:40:22.001Z</time></trkpt><trkpt lat="43.53087333178488" lon="10.742174012294935"><ele>166.0</ele><time>2026-04-18T07:40:23.001Z</time></trkpt><trkpt lat="43.53082322429663" lon="10.741987346249648"><ele>166.0</ele><time>2026-04-18T07:40:24.001Z</time></trkpt><trkpt lat="43.53077518742098" lon="10.741817902524494"><ele>166.0</ele><time>2026-04-18T07:40:25.001Z</time></trkpt><trkpt lat="43.53074839310526" lon="10.741707749133454"><ele>166.0</ele><time>2026-04-18T07:40:26.001Z</time></trkpt><trkpt lat="43.53072359065339" lon="10.741577277403723"><ele>166.33333333333334</ele><time>2026-04-18T07:40:28.001Z</time></trkpt><trkpt lat="43.53070653436103" lon="10.741468719721551"><ele>166.66666666666669</ele><time>2026-04-18T07:40:30.001Z</time></trkpt><trkpt lat="43.53070235737579" lon="10.741324920347845"><ele>167.0</ele><time>2026-04-18T07:40:32.001Z</time></trkpt><trkpt lat="43.530781943560086" lon="10.741284253338089"><ele>167.33333333333334</ele><time>2026-04-18T07:40:33.001Z</time></trkpt><trkpt lat="43.53081703472345" lon="10.741210087969883"><ele>167.66666666666666</ele><time>2026-04-18T07:40:34.001Z</time></trkpt><trkpt lat="43.53085484279145" lon="10.741126474940215"><ele>168.0</ele><time>2026-04-18T07:40:35.001Z</time></trkpt><trkpt lat="43.53089420853537" lon="10.741028130408399"><ele>168.0</ele><time>2026-04-18T07:40:36.001Z</time></trkpt><trkpt lat="43.530924076795735" lon="10.740946219697435"><ele>168.0</ele><time>2026-04-18T07:40:37.001Z</time></trkpt><trkpt lat="43.53095963486285" lon="10.740778935152962"><ele>168.0</ele><time>2026-04-18T07:40:39.001Z</time></trkpt><trkpt lat="43.530997901191604" lon="10.740684174875115"><ele>168.0</ele><time>2026-04-18T07:40:40.001Z</time></trkpt><trkpt lat="43.53101572200868" lon="10.740588680284455"><ele>168.0</ele><time>2026-04-18T07:40:41.001Z</time></trkpt><trkpt lat="43.53103801642908" lon="10.740496302069527"><ele>168.0</ele><time>2026-04-18T07:40:42.001Z</time></trkpt><trkpt lat="43.531056243577005" lon="10.740404308695812"><ele>168.0</ele><time>2026-04-18T07:40:43.001Z</time></trkpt><trkpt lat="43.531084435190905" lon="10.740313084800274"><ele>168.0</ele><time>2026-04-18T07:40:44.001Z</time></trkpt><trkpt lat="43.531103495252836" lon="10.740217041615628"><ele>168.0</ele><time>2026-04-18T07:40:45.001Z</time></trkpt><trkpt lat="43.531125894290156" lon="10.74012678117304"><ele>168.0</ele><time>2026-04-18T07:40:46.001Z</time></trkpt><trkpt lat="43.531146639564035" lon="10.74004058100338"><ele>168.0</ele><time>2026-04-18T07:40:47.001Z</time></trkpt><trkpt lat="43.53120459980109" lon="10.739894850356944"><ele>168.0</ele><time>2026-04-18T07:40:49.001Z</time></trkpt><trkpt lat="43.53125881923495" lon="10.739763372022045"><ele>166.0</ele><time>2026-04-18T07:40:51.001Z</time></trkpt><trkpt lat="43.53133031536051" lon="10.739644649002182"><ele>164.0</ele><time>2026-04-18T07:40:53.001Z</time></trkpt><trkpt lat="43.53139721300253" lon="10.739557374471886"><ele>162.0</ele><time>2026-04-18T07:40:54.001Z</time></trkpt><trkpt lat="43.531471092496155" lon="10.739465084230666"><ele>160.0</ele><time>2026-04-18T07:40:55.001Z</time></trkpt><trkpt lat="43.53154542683649" lon="10.739377044212988"><ele>158.0</ele><time>2026-04-18T07:40:56.001Z</time></trkpt><trkpt lat="43.53163150266475" lon="10.73928002403002"><ele>158.0</ele><time>2026-04-18T07:40:57.001Z</time></trkpt><trkpt lat="43.53171555540306" lon="10.739182734621881"><ele>158.0</ele><time>2026-04-18T07:40:58.001Z</time></trkpt><trkpt lat="43.53180742189507" lon="10.739102126839242"><ele>158.0</ele><time>2026-04-18T07:40:59.002Z</time></trkpt><trkpt lat="43.53188629864878" lon="10.739013199202331"><ele>158.0</ele><time>2026-04-18T07:41:00.002Z</time></trkpt><trkpt lat="43.5319756929288" lon="10.738932354180706"><ele>158.0</ele><time>2026-04-18T07:41:01.002Z</time></trkpt><trkpt lat="43.532068017532026" lon="10.73885359724036"><ele>156.8</ele><time>2026-04-18T07:41:02.002Z</time></trkpt><trkpt lat="43.532166034476404" lon="10.73877487239871"><ele>155.60000000000002</ele><time>2026-04-18T07:41:03.002Z</time></trkpt><trkpt lat="43.53226486405795" lon="10.738707278595804"><ele>154.39999999999998</ele><time>2026-04-18T07:41:04.002Z</time></trkpt><trkpt lat="43.5323713425641" lon="10.738664310444475"><ele>153.2</ele><time>2026-04-18T07:41:05.002Z</time></trkpt><trkpt lat="43.532461398077636" lon="10.738581417778125"><ele>152.0</ele><time>2026-04-18T07:41:06.002Z</time></trkpt><trkpt lat="43.53256233720848" lon="10.738526173619048"><ele>152.0</ele><time>2026-04-18T07:41:07Z</time></trkpt><trkpt lat="43.53265200990128" lon="10.738460835296818"><ele>152.0</ele><time>2026-04-18T07:41:08Z</time></trkpt><trkpt lat="43.53274253188632" lon="10.738395882029726"><ele>152.0</ele><time>2026-04-18T07:41:09Z</time></trkpt><trkpt lat="43.532829584965995" lon="10.738332484594666"><ele>152.0</ele><time>2026-04-18T07:41:10Z</time></trkpt><trkpt lat="43.53291126018196" lon="10.73824560670974"><ele>152.0</ele><time>2026-04-18T07:41:11Z</time></trkpt><trkpt lat="43.53300809886935" lon="10.738152593550712"><ele>151.2</ele><time>2026-04-18T07:41:12Z</time></trkpt><trkpt lat="43.53310866340318" lon="10.738043308763707"><ele>150.39999999999998</ele><time>2026-04-18T07:41:13Z</time></trkpt><trkpt lat="43.53320066609725" lon="10.737944698741705"><ele>149.60000000000002</ele><time>2026-04-18T07:41:14Z</time></trkpt><trkpt lat="43.53328546995172" lon="10.737874774233743"><ele>148.8</ele><time>2026-04-18T07:41:15Z</time></trkpt><trkpt lat="43.533358535928166" lon="10.737806929156067"><ele>148.0</ele><time>2026-04-18T07:41:16Z</time></trkpt><trkpt lat="43.53343590781128" lon="10.737747882686852"><ele>147.83333333333334</ele><time>2026-04-18T07:41:17Z</time></trkpt><trkpt lat="43.53351410415955" lon="10.737706325163337"><ele>147.66666666666669</ele><time>2026-04-18T07:41:18Z</time></trkpt><trkpt lat="43.533587511593055" lon="10.737678534678988"><ele>147.5</ele><time>2026-04-18T07:41:19Z</time></trkpt><trkpt lat="43.53365469882114" lon="10.73764477392047"><ele>147.33333333333334</ele><time>2026-04-18T07:41:20Z</time></trkpt><trkpt lat="43.53373266595708" lon="10.737614611405926"><ele>147.16666666666666</ele><time>2026-04-18T07:41:21Z</time></trkpt><trkpt lat="43.533805090209526" lon="10.737581925420487"><ele>147.0</ele><time>2026-04-18T07:41:22Z</time></trkpt><trkpt lat="43.53388163217633" lon="10.737543489157723"><ele>146.57142857142858</ele><time>2026-04-18T07:41:23Z</time></trkpt><trkpt lat="43.53394797589128" lon="10.737510467345777"><ele>146.14285714285714</ele><time>2026-04-18T07:41:24Z</time></trkpt><trkpt lat="43.53402258446268" lon="10.737474637045477"><ele>145.71428571428572</ele><time>2026-04-18T07:41:25Z</time></trkpt><trkpt lat="43.53408522267026" lon="10.73743669508568"><ele>145.28571428571428</ele><time>2026-04-18T07:41:26Z</time></trkpt><trkpt lat="43.534152558085246" lon="10.737403824607226"><ele>144.85714285714286</ele><time>2026-04-18T07:41:27Z</time></trkpt><trkpt lat="43.53422151019264" lon="10.73737225077475"><ele>144.42857142857144</ele><time>2026-04-18T07:41:28Z</time></trkpt><trkpt lat="43.53428537941186" lon="10.737339478191107"><ele>144.0</ele><time>2026-04-18T07:41:29Z</time></trkpt><trkpt lat="43.53434726325853" lon="10.737307156087411"><ele>144.0</ele><time>2026-04-18T07:41:30Z</time></trkpt><trkpt lat="43.53441010965223" lon="10.737275312062312"><ele>144.0</ele><time>2026-04-18T07:41:31Z</time></trkpt><trkpt lat="43.53447132110037" lon="10.737254932038361"><ele>144.0</ele><time>2026-04-18T07:41:32Z</time></trkpt><trkpt lat="43.534585739926484" lon="10.737175349608693"><ele>144.0</ele><time>2026-04-18T07:41:34Z</time></trkpt><trkpt lat="43.534672328700154" lon="10.73713248914532"><ele>144.0</ele><time>2026-04-18T07:41:35Z</time></trkpt><trkpt lat="43.53476883320706" lon="10.737105866488186"><ele>144.0</ele><time>2026-04-18T07:41:36Z</time></trkpt><trkpt lat="43.53484079297313" lon="10.73704400066659"><ele>143.16666666666666</ele><time>2026-04-18T07:41:37Z</time></trkpt><trkpt lat="43.534911493402184" lon="10.737024920856031"><ele>142.33333333333334</ele><time>2026-04-18T07:41:38Z</time></trkpt><trkpt lat="43.534970772252436" lon="10.736980663031995"><ele>141.5</ele><time>2026-04-18T07:41:39Z</time></trkpt><trkpt lat="43.53502701718382" lon="10.736933176684442"><ele>140.66666666666669</ele><time>2026-04-18T07:41:40Z</time></trkpt><trkpt lat="43.53511285806375" lon="10.736829900607724"><ele>139.83333333333334</ele><time>2026-04-18T07:41:42Z</time></trkpt><trkpt lat="43.53517501133648" lon="10.736788607140962"><ele>139.0</ele><time>2026-04-18T07:41:43Z</time></trkpt><trkpt lat="43.53524584530814" lon="10.736708706954971"><ele>138.8</ele><time>2026-04-18T07:41:44Z</time></trkpt><trkpt lat="43.53533217120175" lon="10.736626427121438"><ele>138.60000000000002</ele><time>2026-04-18T07:41:45Z</time></trkpt><trkpt lat="43.53542826599509" lon="10.7365428210354"><ele>138.4</ele><time>2026-04-18T07:41:46Z</time></trkpt><trkpt lat="43.53551256838883" lon="10.736452787857441"><ele>138.20000000000002</ele><time>2026-04-18T07:41:47Z</time></trkpt><trkpt lat="43.53559340792149" lon="10.736383707849525"><ele>138.0</ele><time>2026-04-18T07:41:48Z</time></trkpt><trkpt lat="43.535671020783965" lon="10.736312737720903"><ele>137.66666666666666</ele><time>2026-04-18T07:41:49Z</time></trkpt><trkpt lat="43.53574797633575" lon="10.73624416765091"><ele>137.33333333333334</ele><time>2026-04-18T07:41:50Z</time></trkpt><trkpt lat="43.53581229123462" lon="10.736189139864036"><ele>137.0</ele><time>2026-04-18T07:41:51Z</time></trkpt><trkpt lat="43.53587599685641" lon="10.736126594647864"><ele>136.66666666666669</ele><time>2026-04-18T07:41:52Z</time></trkpt><trkpt lat="43.535942947651485" lon="10.736065642497122"><ele>136.33333333333334</ele><time>2026-04-18T07:41:53Z</time></trkpt><trkpt lat="43.53601092886198" lon="10.736008048337068"><ele>136.0</ele><time>2026-04-18T07:41:54Z</time></trkpt><trkpt lat="43.53607377966746" lon="10.735949908383398"><ele>135.2</ele><time>2026-04-18T07:41:55Z</time></trkpt><trkpt lat="43.53613796940103" lon="10.735900250680142"><ele>134.39999999999998</ele><time>2026-04-18T07:41:56Z</time></trkpt><trkpt lat="43.536193589138705" lon="10.735844142016152"><ele>133.6</ele><time>2026-04-18T07:41:57Z</time></trkpt><trkpt lat="43.536246277923716" lon="10.735792687328097"><ele>132.79999999999998</ele><time>2026-04-18T07:41:58Z</time></trkpt><trkpt lat="43.5363425867141" lon="10.735700539180241"><ele>132.0</ele><time>2026-04-18T07:42:00Z</time></trkpt><trkpt lat="43.53644536572378" lon="10.73559724444256"><ele>130.79999999999998</ele><time>2026-04-18T07:42:02Z</time></trkpt><trkpt lat="43.536503250766394" lon="10.73553896592033"><ele>129.6</ele><time>2026-04-18T07:42:03Z</time></trkpt><trkpt lat="43.536609954184556" lon="10.735463957789943"><ele>128.39999999999998</ele><time>2026-04-18T07:42:05Z</time></trkpt><trkpt lat="43.53670744088564" lon="10.735372075425246"><ele>127.19999999999999</ele><time>2026-04-18T07:42:07.001Z</time></trkpt><trkpt lat="43.536759277974504" lon="10.735300940176527"><ele>126.0</ele><time>2026-04-18T07:42:08.001Z</time></trkpt><trkpt lat="43.536817642426286" lon="10.735243590578945"><ele>125.33333333333333</ele><time>2026-04-18T07:42:09.001Z</time></trkpt><trkpt lat="43.536881662865795" lon="10.735186681617884"><ele>124.66666666666666</ele><time>2026-04-18T07:42:10.001Z</time></trkpt><trkpt lat="43.53694668315852" lon="10.735111162185284"><ele>124.0</ele><time>2026-04-18T07:42:11.001Z</time></trkpt><trkpt lat="43.53701156073951" lon="10.73505430053075"><ele>123.33333333333333</ele><time>2026-04-18T07:42:12.001Z</time></trkpt><trkpt lat="43.537070784085415" lon="10.73499835730766"><ele>122.66666666666666</ele><time>2026-04-18T07:42:13.001Z</time></trkpt><trkpt lat="43.53713454719733" lon="10.734935568015436"><ele>122.0</ele><time>2026-04-18T07:42:14.001Z</time></trkpt><trkpt lat="43.537204541679536" lon="10.734893527265053"><ele>121.99999999999999</ele><time>2026-04-18T07:42:15.001Z</time></trkpt><trkpt lat="43.53726599135302" lon="10.73483226208394"><ele>122.0</ele><time>2026-04-18T07:42:16.001Z</time></trkpt><trkpt lat="43.537307329008726" lon="10.734765348733182"><ele>122.0</ele><time>2026-04-18T07:42:17.001Z</time></trkpt><trkpt lat="43.537408265654506" lon="10.734666050492063"><ele>122.0</ele><time>2026-04-18T07:42:19.001Z</time></trkpt><trkpt lat="43.53748338221769" lon="10.734609302917724"><ele>121.99999999999999</ele><time>2026-04-18T07:42:20.001Z</time></trkpt><trkpt lat="43.537548759170775" lon="10.73453766516268"><ele>122.0</ele><time>2026-04-18T07:42:21.001Z</time></trkpt><trkpt lat="43.537605088498154" lon="10.734472615148354"><ele>121.99999999999999</ele><time>2026-04-18T07:42:22.001Z</time></trkpt><trkpt lat="43.53765394005437" lon="10.734408672183484"><ele>122.0</ele><time>2026-04-18T07:42:23.001Z</time></trkpt><trkpt lat="43.53769972601402" lon="10.73433786969171"><ele>122.0</ele><time>2026-04-18T07:42:24.001Z</time></trkpt><trkpt lat="43.537734952471084" lon="10.73425069965478"><ele>122.0</ele><time>2026-04-18T07:42:25.001Z</time></trkpt><trkpt lat="43.53776481839625" lon="10.734148210906065"><ele>121.99999999999999</ele><time>2026-04-18T07:42:26.001Z</time></trkpt><trkpt lat="43.537785212651265" lon="10.734028411896691"><ele>122.0</ele><time>2026-04-18T07:42:27.001Z</time></trkpt><trkpt lat="43.53780030524788" lon="10.733918976986287"><ele>120.49999999999999</ele><time>2026-04-18T07:42:28.001Z</time></trkpt><trkpt lat="43.53781477138904" lon="10.733819752914988"><ele>119.0</ele><time>2026-04-18T07:42:29.001Z</time></trkpt><trkpt lat="43.53783072128047" lon="10.733704823632449"><ele>117.5</ele><time>2026-04-18T07:42:30.001Z</time></trkpt><trkpt lat="43.53784178635807" lon="10.733572280710105"><ele>116.0</ele><time>2026-04-18T07:42:31.001Z</time></trkpt><trkpt lat="43.53783622882741" lon="10.733452424848908"><ele>114.49999999999999</ele><time>2026-04-18T07:42:32.001Z</time></trkpt><trkpt lat="43.53782315769469" lon="10.73333802879035"><ele>113.0</ele><time>2026-04-18T07:42:33.001Z</time></trkpt><trkpt lat="43.53780608029546" lon="10.733221965680944"><ele>111.66666666666666</ele><time>2026-04-18T07:42:34.001Z</time></trkpt><trkpt lat="43.53778978945098" lon="10.733104438265114"><ele>110.33333333333333</ele><time>2026-04-18T07:42:35.001Z</time></trkpt><trkpt lat="43.53777470483673" lon="10.732997867326066"><ele>109.0</ele><time>2026-04-18T07:42:36.001Z</time></trkpt><trkpt lat="43.53776274481335" lon="10.732891384228699"><ele>107.66666666666666</ele><time>2026-04-18T07:42:37.001Z</time></trkpt><trkpt lat="43.53775826167559" lon="10.732783683681742"><ele>106.33333333333333</ele><time>2026-04-18T07:42:38.001Z</time></trkpt><trkpt lat="43.537756550900426" lon="10.732658101514684"><ele>105.0</ele><time>2026-04-18T07:42:39.001Z</time></trkpt><trkpt lat="43.53776194141282" lon="10.732543166303978"><ele>104.0</ele><time>2026-04-18T07:42:40.001Z</time></trkpt><trkpt lat="43.53776741298216" lon="10.732436308419855"><ele>103.0</ele><time>2026-04-18T07:42:41.001Z</time></trkpt><trkpt lat="43.53778045413467" lon="10.732326481329922"><ele>102.0</ele><time>2026-04-18T07:42:42.001Z</time></trkpt><trkpt lat="43.537798099197126" lon="10.732231209493126"><ele>101.0</ele><time>2026-04-18T07:42:43.001Z</time></trkpt><trkpt lat="43.53782555370958" lon="10.732140383871574"><ele>100.0</ele><time>2026-04-18T07:42:44.001Z</time></trkpt><trkpt lat="43.53786612323858" lon="10.732052084405415"><ele>99.0</ele><time>2026-04-18T07:42:45.001Z</time></trkpt><trkpt lat="43.5379124604651" lon="10.73195725387629"><ele>99.66666666666667</ele><time>2026-04-18T07:42:46.001Z</time></trkpt><trkpt lat="43.53795873783648" lon="10.731871023503837"><ele>100.33333333333334</ele><time>2026-04-18T07:42:47.001Z</time></trkpt><trkpt lat="43.53799804567996" lon="10.731801766076837"><ele>101.0</ele><time>2026-04-18T07:42:48.001Z</time></trkpt><trkpt lat="43.538079611664195" lon="10.731689170476153"><ele>101.66666666666667</ele><time>2026-04-18T07:42:50.001Z</time></trkpt><trkpt lat="43.53813189082173" lon="10.731635428343552"><ele>102.33333333333334</ele><time>2026-04-18T07:42:51.001Z</time></trkpt><trkpt lat="43.53819487282954" lon="10.731588789932607"><ele>103.0</ele><time>2026-04-18T07:42:52.001Z</time></trkpt><trkpt lat="43.53826223789322" lon="10.73155039479026"><ele>103.00000000000001</ele><time>2026-04-18T07:42:53.001Z</time></trkpt><trkpt lat="43.53833855649658" lon="10.731505709698332"><ele>103.0</ele><time>2026-04-18T07:42:54.001Z</time></trkpt><trkpt lat="43.53841201972488" lon="10.731455266409027"><ele>103.0</ele><time>2026-04-18T07:42:55.001Z</time></trkpt><trkpt lat="43.538476759794655" lon="10.731408150313813"><ele>103.0</ele><time>2026-04-18T07:42:56.001Z</time></trkpt><trkpt lat="43.53855174416544" lon="10.731352770324062"><ele>103.00000000000001</ele><time>2026-04-18T07:42:57.001Z</time></trkpt><trkpt lat="43.5386209515306" lon="10.731300217986767"><ele>103.0</ele><time>2026-04-18T07:42:58.001Z</time></trkpt><trkpt lat="43.53869278755223" lon="10.731244355019774"><ele>103.50000000000001</ele><time>2026-04-18T07:42:59.001Z</time></trkpt><trkpt lat="43.53876107048101" lon="10.731191100435623"><ele>104.0</ele><time>2026-04-18T07:43:00.001Z</time></trkpt><trkpt lat="43.53882431688547" lon="10.73114062872409"><ele>104.5</ele><time>2026-04-18T07:43:01.001Z</time></trkpt><trkpt lat="43.53888484573704" lon="10.731090568697015"><ele>105.0</ele><time>2026-04-18T07:43:02.001Z</time></trkpt><trkpt lat="43.53893408822493" lon="10.731020935920174"><ele>105.50000000000001</ele><time>2026-04-18T07:43:03.001Z</time></trkpt><trkpt lat="43.53899395930606" lon="10.730959628728387"><ele>106.0</ele><time>2026-04-18T07:43:04.001Z</time></trkpt><trkpt lat="43.53906776169913" lon="10.730904205425052"><ele>103.66666666666667</ele><time>2026-04-18T07:43:05.001Z</time></trkpt><trkpt lat="43.53912649062812" lon="10.73082736140367"><ele>101.33333333333334</ele><time>2026-04-18T07:43:06.001Z</time></trkpt><trkpt lat="43.539178587969616" lon="10.73074470504734"><ele>99.0</ele><time>2026-04-18T07:43:07.001Z</time></trkpt><trkpt lat="43.53923661833745" lon="10.73064559244855"><ele>96.66666666666667</ele><time>2026-04-18T07:43:08.002Z</time></trkpt><trkpt lat="43.5392874795656" lon="10.730552351334948"><ele>94.33333333333334</ele><time>2026-04-18T07:43:09.002Z</time></trkpt><trkpt lat="43.539333949549" lon="10.730466079515256"><ele>92.0</ele><time>2026-04-18T07:43:10.002Z</time></trkpt><trkpt lat="43.53938014941196" lon="10.73038030898786"><ele>92.0</ele><time>2026-04-18T07:43:11.002Z</time></trkpt><trkpt lat="43.53942662476239" lon="10.730297291444657"><ele>92.0</ele><time>2026-04-18T07:43:12.002Z</time></trkpt><trkpt lat="43.539472671140885" lon="10.730194593998279"><ele>92.0</ele><time>2026-04-18T07:43:13Z</time></trkpt><trkpt lat="43.53951904510444" lon="10.730111488445148"><ele>92.0</ele><time>2026-04-18T07:43:14Z</time></trkpt><trkpt lat="43.53958491624387" lon="10.730043906391094"><ele>92.0</ele><time>2026-04-18T07:43:15Z</time></trkpt><trkpt lat="43.539647302202646" lon="10.729972751483203"><ele>92.0</ele><time>2026-04-18T07:43:16Z</time></trkpt><trkpt lat="43.53971382459931" lon="10.729906078114093"><ele>89.66666666666667</ele><time>2026-04-18T07:43:17Z</time></trkpt><trkpt lat="43.53977949241023" lon="10.729835230194183"><ele>87.33333333333334</ele><time>2026-04-18T07:43:18Z</time></trkpt><trkpt lat="43.53986718258894" lon="10.7297898755212"><ele>85.0</ele><time>2026-04-18T07:43:19Z</time></trkpt><trkpt lat="43.53994712467723" lon="10.729744308463378"><ele>82.66666666666667</ele><time>2026-04-18T07:43:20Z</time></trkpt><trkpt lat="43.54002408224833" lon="10.729720338934943"><ele>80.33333333333333</ele><time>2026-04-18T07:43:21Z</time></trkpt><trkpt lat="43.54008901168261" lon="10.729674598963458"><ele>78.0</ele><time>2026-04-18T07:43:22Z</time></trkpt><trkpt lat="43.540154354930294" lon="10.729626446980733"><ele>78.0</ele><time>2026-04-18T07:43:23Z</time></trkpt><trkpt lat="43.54022386070167" lon="10.729580839624926"><ele>78.0</ele><time>2026-04-18T07:43:24Z</time></trkpt><trkpt lat="43.54030012535416" lon="10.729534807998087"><ele>78.0</ele><time>2026-04-18T07:43:25Z</time></trkpt><trkpt lat="43.54037529720248" lon="10.729536312370941"><ele>78.0</ele><time>2026-04-18T07:43:26Z</time></trkpt><trkpt lat="43.54044528851191" lon="10.729521020794504"><ele>78.0</ele><time>2026-04-18T07:43:27Z</time></trkpt><trkpt lat="43.540509426788645" lon="10.729488682053402"><ele>78.0</ele><time>2026-04-18T07:43:28Z</time></trkpt><trkpt lat="43.5406183025255" lon="10.729489135422442"><ele>78.0</ele><time>2026-04-18T07:43:30Z</time></trkpt><trkpt lat="43.540728090152776" lon="10.729453692486883"><ele>78.0</ele><time>2026-04-18T07:43:32Z</time></trkpt><trkpt lat="43.540832797483894" lon="10.7293335913176"><ele>78.0</ele><time>2026-04-18T07:43:34Z</time></trkpt><trkpt lat="43.540873738879924" lon="10.729259891444702"><ele>78.0</ele><time>2026-04-18T07:43:35Z</time></trkpt><trkpt lat="43.54090363395548" lon="10.72917640958844"><ele>78.0</ele><time>2026-04-18T07:43:36Z</time></trkpt><trkpt lat="43.5409337497918" lon="10.729091245050439"><ele>76.33333333333333</ele><time>2026-04-18T07:43:37Z</time></trkpt><trkpt lat="43.54096267235475" lon="10.729007922977523"><ele>74.66666666666667</ele><time>2026-04-18T07:43:38Z</time></trkpt><trkpt lat="43.54098960173957" lon="10.728925532111413"><ele>73.0</ele><time>2026-04-18T07:43:39Z</time></trkpt><trkpt lat="43.541015423898635" lon="10.728844692214937"><ele>71.33333333333334</ele><time>2026-04-18T07:43:40Z</time></trkpt><trkpt lat="43.54105920088095" lon="10.728707642027318"><ele>69.66666666666667</ele><time>2026-04-18T07:43:42Z</time></trkpt><trkpt lat="43.54108517169028" lon="10.728626152544262"><ele>68.0</ele><time>2026-04-18T07:43:43Z</time></trkpt><trkpt lat="43.54111756874507" lon="10.72852416692615"><ele>66.83333333333334</ele><time>2026-04-18T07:43:44Z</time></trkpt><trkpt lat="43.5411386208392" lon="10.728413103339362"><ele>65.66666666666667</ele><time>2026-04-18T07:43:45Z</time></trkpt><trkpt lat="43.541175885970404" lon="10.728314316875348"><ele>64.5</ele><time>2026-04-18T07:43:46Z</time></trkpt><trkpt lat="43.541205278274056" lon="10.728199243628204"><ele>63.33333333333333</ele><time>2026-04-18T07:43:47Z</time></trkpt><trkpt lat="43.54124736272457" lon="10.728084309783329"><ele>62.166666666666664</ele><time>2026-04-18T07:43:48Z</time></trkpt><trkpt lat="43.54128725677571" lon="10.72797336736482"><ele>61.0</ele><time>2026-04-18T07:43:49Z</time></trkpt><trkpt lat="43.541310012005404" lon="10.72788059968735"><ele>60.599999999999994</ele><time>2026-04-18T07:43:50Z</time></trkpt><trkpt lat="43.54133551633264" lon="10.727771305637159"><ele>60.199999999999996</ele><time>2026-04-18T07:43:51Z</time></trkpt><trkpt lat="43.5413532599468" lon="10.727630176830885"><ele>59.800000000000004</ele><time>2026-04-18T07:43:52Z</time></trkpt><trkpt lat="43.541373757693975" lon="10.727489278556266"><ele>59.400000000000006</ele><time>2026-04-18T07:43:53Z</time></trkpt><trkpt lat="43.54140810010151" lon="10.727359090486047"><ele>59.0</ele><time>2026-04-18T07:43:54Z</time></trkpt><trkpt lat="43.54143251647852" lon="10.72725647399447"><ele>59.0</ele><time>2026-04-18T07:43:55Z</time></trkpt><trkpt lat="43.54149926999985" lon="10.727125352009008"><ele>59.00000000000001</ele><time>2026-04-18T07:43:57Z</time></trkpt><trkpt lat="43.54158216036187" lon="10.727011883273088"><ele>59.00000000000001</ele><time>2026-04-18T07:43:59.001Z</time></trkpt><trkpt lat="43.54164402252427" lon="10.72692644858418"><ele>59.0</ele><time>2026-04-18T07:44:00.001Z</time></trkpt><trkpt lat="43.541718557443104" lon="10.726808542031087"><ele>59.0</ele><time>2026-04-18T07:44:01.001Z</time></trkpt><trkpt lat="43.5417985849297" lon="10.726681751730958"><ele>59.0</ele><time>2026-04-18T07:44:02.001Z</time></trkpt><trkpt lat="43.5418878496785" lon="10.726544095533871"><ele>59.0</ele><time>2026-04-18T07:44:03.001Z</time></trkpt><trkpt lat="43.541984432473036" lon="10.726401869466459"><ele>59.0</ele><time>2026-04-18T07:44:04.001Z</time></trkpt><trkpt lat="43.54207033797233" lon="10.726257933244904"><ele>59.0</ele><time>2026-04-18T07:44:05.001Z</time></trkpt><trkpt lat="43.54214936995426" lon="10.72613109587194"><ele>60.16666666666667</ele><time>2026-04-18T07:44:06.001Z</time></trkpt><trkpt lat="43.54221731054407" lon="10.726035014880454"><ele>61.333333333333336</ele><time>2026-04-18T07:44:07.001Z</time></trkpt><trkpt lat="43.542273240075374" lon="10.725955186590946"><ele>62.5</ele><time>2026-04-18T07:44:08.001Z</time></trkpt><trkpt lat="43.54232487116737" lon="10.725873898457728"><ele>63.66666666666667</ele><time>2026-04-18T07:44:09.001Z</time></trkpt><trkpt lat="43.542373035024234" lon="10.725800447810899"><ele>64.83333333333333</ele><time>2026-04-18T07:44:10.001Z</time></trkpt><trkpt lat="43.54242804478608" lon="10.725730304455016"><ele>66.0</ele><time>2026-04-18T07:44:11.001Z</time></trkpt><trkpt lat="43.54247915119229" lon="10.725671581351977"><ele>66.0</ele><time>2026-04-18T07:44:12.001Z</time></trkpt><trkpt lat="43.542546056520294" lon="10.725651647561119"><ele>66.0</ele><time>2026-04-18T07:44:14.001Z</time></trkpt><trkpt lat="43.542598803945225" lon="10.725718471616775"><ele>66.0</ele><time>2026-04-18T07:44:15.001Z</time></trkpt><trkpt lat="43.5427409856276" lon="10.725695344814616"><ele>66.0</ele><time>2026-04-18T07:44:17.001Z</time></trkpt><trkpt lat="43.54281932308758" lon="10.725630835753368"><ele>66.0</ele><time>2026-04-18T07:44:18.001Z</time></trkpt><trkpt lat="43.54286779802566" lon="10.725542999632477"><ele>69.0</ele><time>2026-04-18T07:44:19.001Z</time></trkpt><trkpt lat="43.54291123462583" lon="10.725435359579436"><ele>72.0</ele><time>2026-04-18T07:44:20.001Z</time></trkpt><trkpt lat="43.54292297626774" lon="10.725298885144118"><ele>75.0</ele><time>2026-04-18T07:44:21.001Z</time></trkpt><trkpt lat="43.54292893136977" lon="10.725169810873712"><ele>78.0</ele><time>2026-04-18T07:44:22.001Z</time></trkpt><trkpt lat="43.54294794106065" lon="10.725041569921109"><ele>81.0</ele><time>2026-04-18T07:44:23.001Z</time></trkpt><trkpt lat="43.54296597161969" lon="10.724891878110896"><ele>83.33333333333333</ele><time>2026-04-18T07:44:24.001Z</time></trkpt><trkpt lat="43.5429818692397" lon="10.72476203002592"><ele>85.66666666666667</ele><time>2026-04-18T07:44:25.001Z</time></trkpt><trkpt lat="43.54301682958209" lon="10.724689121477217"><ele>88.0</ele><time>2026-04-18T07:44:26.001Z</time></trkpt><trkpt lat="43.54307642191839" lon="10.724568712860297"><ele>90.33333333333334</ele><time>2026-04-18T07:44:28.001Z</time></trkpt><trkpt lat="43.543124196627915" lon="10.724503747290797"><ele>92.66666666666667</ele><time>2026-04-18T07:44:29.001Z</time></trkpt><trkpt lat="43.543213489010554" lon="10.724486352116942"><ele>95.0</ele><time>2026-04-18T07:44:30.001Z</time></trkpt><trkpt lat="43.54329923724101" lon="10.72441456048979"><ele>95.5</ele><time>2026-04-18T07:44:31.001Z</time></trkpt><trkpt lat="43.54338675561875" lon="10.724384193716821"><ele>96.0</ele><time>2026-04-18T07:44:32.001Z</time></trkpt><trkpt lat="43.54345214287961" lon="10.724317434010352"><ele>96.5</ele><time>2026-04-18T07:44:33.001Z</time></trkpt><trkpt lat="43.543504228953104" lon="10.724234471561326"><ele>97.0</ele><time>2026-04-18T07:44:34.001Z</time></trkpt><trkpt lat="43.54350471783895" lon="10.724097256345031"><ele>97.49999999999999</ele><time>2026-04-18T07:44:35.001Z</time></trkpt><trkpt lat="43.54354106556116" lon="10.723981048360836"><ele>98.0</ele><time>2026-04-18T07:44:36.001Z</time></trkpt><trkpt lat="43.543600497362426" lon="10.723894744267746"><ele>98.0</ele><time>2026-04-18T07:44:37.001Z</time></trkpt><trkpt lat="43.543656187382744" lon="10.723814885263584"><ele>98.0</ele><time>2026-04-18T07:44:38.001Z</time></trkpt><trkpt lat="43.54372211468527" lon="10.723729049891917"><ele>98.0</ele><time>2026-04-18T07:44:39.001Z</time></trkpt><trkpt lat="43.543806083766015" lon="10.723625207820307"><ele>98.0</ele><time>2026-04-18T07:44:40.001Z</time></trkpt><trkpt lat="43.54388802546401" lon="10.723509760881953"><ele>98.0</ele><time>2026-04-18T07:44:41.001Z</time></trkpt><trkpt lat="43.5439356540149" lon="10.723403944301324"><ele>101.16666666666666</ele><time>2026-04-18T07:44:42.001Z</time></trkpt><trkpt lat="43.54399762983826" lon="10.723330411543607"><ele>104.33333333333333</ele><time>2026-04-18T07:44:43.001Z</time></trkpt><trkpt lat="43.5440343356367" lon="10.723246187411844"><ele>107.5</ele><time>2026-04-18T07:44:44.001Z</time></trkpt><trkpt lat="43.544055924751405" lon="10.723151493016575"><ele>110.66666666666666</ele><time>2026-04-18T07:44:45.001Z</time></trkpt><trkpt lat="43.5440747851766" lon="10.722969849823695"><ele>113.83333333333333</ele><time>2026-04-18T07:44:47.001Z</time></trkpt><trkpt lat="43.54410611964777" lon="10.722858630707055"><ele>117.0</ele><time>2026-04-18T07:44:48.001Z</time></trkpt><trkpt lat="43.54415096953391" lon="10.72273312279421"><ele>118.25</ele><time>2026-04-18T07:44:49.001Z</time></trkpt><trkpt lat="43.54421375401527" lon="10.72258831316635"><ele>119.5</ele><time>2026-04-18T07:44:50.001Z</time></trkpt><trkpt lat="43.5442897223237" lon="10.722420260639323"><ele>120.75</ele><time>2026-04-18T07:44:51.001Z</time></trkpt><trkpt lat="43.544374108288665" lon="10.722269272964054"><ele>122.0</ele><time>2026-04-18T07:44:52.001Z</time></trkpt><trkpt lat="43.5444308257993" lon="10.722127111119237"><ele>121.99999999999999</ele><time>2026-04-18T07:44:53.001Z</time></trkpt><trkpt lat="43.54448937453872" lon="10.722031740205155"><ele>122.0</ele><time>2026-04-18T07:44:54.001Z</time></trkpt><trkpt lat="43.54454275256612" lon="10.72196324891954"><ele>122.0</ele><time>2026-04-18T07:44:55.001Z</time></trkpt><trkpt lat="43.54459776044703" lon="10.721899211319176"><ele>122.0</ele><time>2026-04-18T07:44:56.001Z</time></trkpt><trkpt lat="43.54465963201074" lon="10.72182997506647"><ele>121.99999999999999</ele><time>2026-04-18T07:44:57.001Z</time></trkpt><trkpt lat="43.544713356269" lon="10.72177112823136"><ele>122.0</ele><time>2026-04-18T07:44:58.001Z</time></trkpt><trkpt lat="43.54477287482955" lon="10.721706357355325"><ele>121.6</ele><time>2026-04-18T07:45:00.001Z</time></trkpt><trkpt lat="43.54485148099223" lon="10.721635826155495"><ele>121.19999999999999</ele><time>2026-04-18T07:45:02.002Z</time></trkpt><trkpt lat="43.54492118349295" lon="10.721601159287534"><ele>120.8</ele><time>2026-04-18T07:45:03.002Z</time></trkpt><trkpt lat="43.54500671833134" lon="10.721566300318061"><ele>120.4</ele><time>2026-04-18T07:45:04.002Z</time></trkpt><trkpt lat="43.54511743223087" lon="10.721521403179953"><ele>120.0</ele><time>2026-04-18T07:45:05.002Z</time></trkpt><trkpt lat="43.5452124854975" lon="10.721477726525842"><ele>120.0</ele><time>2026-04-18T07:45:06.002Z</time></trkpt><trkpt lat="43.54530085053679" lon="10.721435283252665"><ele>120.0</ele><time>2026-04-18T07:45:07.002Z</time></trkpt><trkpt lat="43.54538352713919" lon="10.721388536308929"><ele>120.0</ele><time>2026-04-18T07:45:08.002Z</time></trkpt><trkpt lat="43.54547080345385" lon="10.721365501005959"><ele>120.0</ele><time>2026-04-18T07:45:09.002Z</time></trkpt><trkpt lat="43.545550642656295" lon="10.721323565616377"><ele>120.0</ele><time>2026-04-18T07:45:10.002Z</time></trkpt><trkpt lat="43.545621418246576" lon="10.721286090854322"><ele>120.0</ele><time>2026-04-18T07:45:11.002Z</time></trkpt><trkpt lat="43.54568158512111" lon="10.721253351902035"><ele>119.4</ele><time>2026-04-18T07:45:12.002Z</time></trkpt><trkpt lat="43.54576625227814" lon="10.721184355760757"><ele>118.8</ele><time>2026-04-18T07:45:14.002Z</time></trkpt><trkpt lat="43.54580884715257" lon="10.721107657581793"><ele>118.19999999999999</ele><time>2026-04-18T07:45:17.002Z</time></trkpt><trkpt lat="43.545731913659445" lon="10.720993900157263"><ele>117.6</ele><time>2026-04-18T07:45:18.999Z</time></trkpt><trkpt lat="43.54565135334493" lon="10.720927845244525"><ele>117.0</ele><time>2026-04-18T07:45:19.999Z</time></trkpt><trkpt lat="43.54557742313964" lon="10.72085221047309"><ele>117.66666666666667</ele><time>2026-04-18T07:45:20.999Z</time></trkpt><trkpt lat="43.545494144614956" lon="10.720798479518471"><ele>118.33333333333334</ele><time>2026-04-18T07:45:21.999Z</time></trkpt><trkpt lat="43.54541517849031" lon="10.720767216542612"><ele>119.0</ele><time>2026-04-18T07:45:22.999Z</time></trkpt><trkpt lat="43.54534344391679" lon="10.720749184853865"><ele>119.66666666666667</ele><time>2026-04-18T07:45:23.999Z</time></trkpt><trkpt lat="43.545275378017344" lon="10.720731748720425"><ele>120.33333333333334</ele><time>2026-04-18T07:45:24.999Z</time></trkpt><trkpt lat="43.54520507897677" lon="10.720712339547712"><ele>121.0</ele><time>2026-04-18T07:45:25.999Z</time></trkpt><trkpt lat="43.54513880574726" lon="10.720661767968782"><ele>121.00000000000001</ele><time>2026-04-18T07:45:26.999Z</time></trkpt><trkpt lat="43.545072474134415" lon="10.720645597085799"><ele>121.0</ele><time>2026-04-18T07:45:27.999Z</time></trkpt><trkpt lat="43.545028517363846" lon="10.720580776635536"><ele>121.0</ele><time>2026-04-18T07:45:28.999Z</time></trkpt><trkpt lat="43.545016547401566" lon="10.72049524359579"><ele>121.0</ele><time>2026-04-18T07:45:29.999Z</time></trkpt><trkpt lat="43.54503330247238" lon="10.720391246483471"><ele>121.00000000000001</ele><time>2026-04-18T07:45:30.999Z</time></trkpt><trkpt lat="43.545087824331944" lon="10.720284712337286"><ele>121.0</ele><time>2026-04-18T07:45:31.999Z</time></trkpt><trkpt lat="43.54515162708471" lon="10.72018689931581"><ele>120.6</ele><time>2026-04-18T07:45:33Z</time></trkpt><trkpt lat="43.54522761068522" lon="10.720093014023018"><ele>120.19999999999999</ele><time>2026-04-18T07:45:34Z</time></trkpt><trkpt lat="43.54529315193337" lon="10.719997988031897"><ele>119.80000000000001</ele><time>2026-04-18T07:45:35Z</time></trkpt><trkpt lat="43.54536265697881" lon="10.719917789915113"><ele>119.4</ele><time>2026-04-18T07:45:36Z</time></trkpt><trkpt lat="43.545434227117994" lon="10.719839557362942"><ele>119.0</ele><time>2026-04-18T07:45:37Z</time></trkpt><trkpt lat="43.5455138308842" lon="10.719788088446126"><ele>119.0</ele><time>2026-04-18T07:45:38Z</time></trkpt><trkpt lat="43.545592725297674" lon="10.719747388180279"><ele>119.0</ele><time>2026-04-18T07:45:39Z</time></trkpt><trkpt lat="43.54567860014705" lon="10.719711398501863"><ele>119.0</ele><time>2026-04-18T07:45:40Z</time></trkpt><trkpt lat="43.54576883185984" lon="10.719668523876473"><ele>119.0</ele><time>2026-04-18T07:45:41Z</time></trkpt><trkpt lat="43.54585998519218" lon="10.719619487564978"><ele>119.0</ele><time>2026-04-18T07:45:42Z</time></trkpt><trkpt lat="43.54594649388122" lon="10.719569574573736"><ele>118.99999999999999</ele><time>2026-04-18T07:45:43Z</time></trkpt><trkpt lat="43.546035746589006" lon="10.719548478249616"><ele>119.0</ele><time>2026-04-18T07:45:44Z</time></trkpt><trkpt lat="43.54611682234638" lon="10.719495770921213"><ele>119.0</ele><time>2026-04-18T07:45:45Z</time></trkpt><trkpt lat="43.54619568728706" lon="10.719466484826015"><ele>119.0</ele><time>2026-04-18T07:45:46Z</time></trkpt><trkpt lat="43.54627085527721" lon="10.719437809664631"><ele>118.99999999999999</ele><time>2026-04-18T07:45:47Z</time></trkpt><trkpt lat="43.54634497326985" lon="10.719407884824589"><ele>119.0</ele><time>2026-04-18T07:45:48Z</time></trkpt><trkpt lat="43.54642160183983" lon="10.719384773855314"><ele>117.49999999999999</ele><time>2026-04-18T07:45:49Z</time></trkpt><trkpt lat="43.54649290768663" lon="10.719373971546162"><ele>116.0</ele><time>2026-04-18T07:45:50Z</time></trkpt><trkpt lat="43.54655899255678" lon="10.719373769949431"><ele>114.5</ele><time>2026-04-18T07:45:51Z</time></trkpt><trkpt lat="43.54663613892705" lon="10.719375644659534"><ele>113.0</ele><time>2026-04-18T07:45:52Z</time></trkpt><trkpt lat="43.54672538364609" lon="10.719379050389705"><ele>111.49999999999999</ele><time>2026-04-18T07:45:53Z</time></trkpt><trkpt lat="43.54680557034776" lon="10.7193848265075"><ele>110.0</ele><time>2026-04-18T07:45:54Z</time></trkpt><trkpt lat="43.54688887853343" lon="10.71938260708686"><ele>110.0</ele><time>2026-04-18T07:45:55Z</time></trkpt><trkpt lat="43.54698227290629" lon="10.719369533142052"><ele>110.0</ele><time>2026-04-18T07:45:56Z</time></trkpt><trkpt lat="43.54707761874613" lon="10.719357600595862"><ele>110.0</ele><time>2026-04-18T07:45:57Z</time></trkpt><trkpt lat="43.547172972340945" lon="10.719346711162261"><ele>110.0</ele><time>2026-04-18T07:45:58Z</time></trkpt><trkpt lat="43.54727279298717" lon="10.719339181086845"><ele>110.0</ele><time>2026-04-18T07:45:59Z</time></trkpt><trkpt lat="43.54738082598923" lon="10.719332319927664"><ele>109.5</ele><time>2026-04-18T07:46:00Z</time></trkpt><trkpt lat="43.54749625753868" lon="10.719328455860042"><ele>109.0</ele><time>2026-04-18T07:46:01Z</time></trkpt><trkpt lat="43.54760796285177" lon="10.719322070316887"><ele>108.5</ele><time>2026-04-18T07:46:02Z</time></trkpt><trkpt lat="43.54773311953988" lon="10.719322079697585"><ele>108.0</ele><time>2026-04-18T07:46:03Z</time></trkpt><trkpt lat="43.54784532385342" lon="10.719319223253418"><ele>109.5</ele><time>2026-04-18T07:46:04Z</time></trkpt><trkpt lat="43.54796537431741" lon="10.719312996222243"><ele>111.0</ele><time>2026-04-18T07:46:05Z</time></trkpt><trkpt lat="43.54808567382741" lon="10.719309283391897"><ele>112.5</ele><time>2026-04-18T07:46:06Z</time></trkpt><trkpt lat="43.54821303229377" lon="10.719303965467724"><ele>114.0</ele><time>2026-04-18T07:46:07Z</time></trkpt><trkpt lat="43.54834473772673" lon="10.719302571935392"><ele>114.0</ele><time>2026-04-18T07:46:08Z</time></trkpt><trkpt lat="43.54847625325247" lon="10.719297442459167"><ele>114.0</ele><time>2026-04-18T07:46:09Z</time></trkpt><trkpt lat="43.54860400803821" lon="10.719296429945839"><ele>114.0</ele><time>2026-04-18T07:46:10Z</time></trkpt><trkpt lat="43.54873410081703" lon="10.719312811358144"><ele>114.0</ele><time>2026-04-18T07:46:11Z</time></trkpt><trkpt lat="43.548870828573655" lon="10.719337722045918"><ele>114.5</ele><time>2026-04-18T07:46:12Z</time></trkpt><trkpt lat="43.549004588028204" lon="10.71937326314537"><ele>115.0</ele><time>2026-04-18T07:46:13Z</time></trkpt><trkpt lat="43.54912393354986" lon="10.71942053104377"><ele>115.5</ele><time>2026-04-18T07:46:14Z</time></trkpt><trkpt lat="43.54921960843939" lon="10.719487516475994"><ele>116.0</ele><time>2026-04-18T07:46:15Z</time></trkpt><trkpt lat="43.54930037975202" lon="10.719568401967491"><ele>117.4</ele><time>2026-04-18T07:46:16.001Z</time></trkpt><trkpt lat="43.54936394984677" lon="10.719669841508319"><ele>118.8</ele><time>2026-04-18T07:46:17.001Z</time></trkpt><trkpt lat="43.54943357493685" lon="10.71977591376723"><ele>120.20000000000002</ele><time>2026-04-18T07:46:18.001Z</time></trkpt><trkpt lat="43.549489891336606" lon="10.719885542643526"><ele>121.60000000000001</ele><time>2026-04-18T07:46:19.001Z</time></trkpt><trkpt lat="43.54954700635035" lon="10.719992713810518"><ele>123.0</ele><time>2026-04-18T07:46:20.001Z</time></trkpt><trkpt lat="43.549607648358446" lon="10.720099159695451"><ele>123.0</ele><time>2026-04-18T07:46:21.001Z</time></trkpt><trkpt lat="43.549651374753054" lon="10.720208181513362"><ele>123.00000000000001</ele><time>2026-04-18T07:46:22.001Z</time></trkpt><trkpt lat="43.54968327759043" lon="10.720331896875782"><ele>123.00000000000001</ele><time>2026-04-18T07:46:23.001Z</time></trkpt><trkpt lat="43.549686371419035" lon="10.720469506795498"><ele>123.0</ele><time>2026-04-18T07:46:24.001Z</time></trkpt><trkpt lat="43.549677289160954" lon="10.72061779072772"><ele>123.0</ele><time>2026-04-18T07:46:25.001Z</time></trkpt><trkpt lat="43.549670382554595" lon="10.72077384321903"><ele>124.0</ele><time>2026-04-18T07:46:26.001Z</time></trkpt><trkpt lat="43.54965341163085" lon="10.72092579307659"><ele>125.00000000000001</ele><time>2026-04-18T07:46:27.001Z</time></trkpt><trkpt lat="43.5496446523323" lon="10.7210716510227"><ele>126.00000000000001</ele><time>2026-04-18T07:46:28.001Z</time></trkpt><trkpt lat="43.549623445409324" lon="10.721192516479752"><ele>127.0</ele><time>2026-04-18T07:46:29.001Z</time></trkpt><trkpt lat="43.54959857389249" lon="10.72127464090645"><ele>128.0</ele><time>2026-04-18T07:46:30.001Z</time></trkpt><trkpt lat="43.5495649976399" lon="10.721401105948386"><ele>129.0</ele><time>2026-04-18T07:46:32.001Z</time></trkpt><trkpt lat="43.54957356952562" lon="10.721530647603977"><ele>130.0</ele><time>2026-04-18T07:46:34.001Z</time></trkpt><trkpt lat="43.54960160025082" lon="10.721681108128026"><ele>131.0</ele><time>2026-04-18T07:46:36.001Z</time></trkpt><trkpt lat="43.54962883495532" lon="10.721762550409531"><ele>132.0</ele><time>2026-04-18T07:46:37.001Z</time></trkpt><trkpt lat="43.549676477591866" lon="10.721846306671273"><ele>133.0</ele><time>2026-04-18T07:46:38.001Z</time></trkpt><trkpt lat="43.54969435025821" lon="10.721954511867827"><ele>134.0</ele><time>2026-04-18T07:46:39.001Z</time></trkpt><trkpt lat="43.54972554217131" lon="10.722049279886177"><ele>134.4</ele><time>2026-04-18T07:46:40.001Z</time></trkpt><trkpt lat="43.549774971063265" lon="10.722145065838337"><ele>134.8</ele><time>2026-04-18T07:46:41.001Z</time></trkpt><trkpt lat="43.54979435615178" lon="10.722271787088724"><ele>135.2</ele><time>2026-04-18T07:46:42.001Z</time></trkpt><trkpt lat="43.549827004264635" lon="10.72239796170791"><ele>135.6</ele><time>2026-04-18T07:46:43.001Z</time></trkpt><trkpt lat="43.549839054780435" lon="10.722529977135876"><ele>136.0</ele><time>2026-04-18T07:46:44.001Z</time></trkpt><trkpt lat="43.54983031233471" lon="10.722654105884693"><ele>135.4</ele><time>2026-04-18T07:46:45.001Z</time></trkpt><trkpt lat="43.5498216507806" lon="10.72279186751139"><ele>134.8</ele><time>2026-04-18T07:46:46.001Z</time></trkpt><trkpt lat="43.54983359076409" lon="10.722933193276823"><ele>134.20000000000002</ele><time>2026-04-18T07:46:47.001Z</time></trkpt><trkpt lat="43.54988302921716" lon="10.72307691962128"><ele>133.6</ele><time>2026-04-18T07:46:48.001Z</time></trkpt><trkpt lat="43.549942336952924" lon="10.723226014395022"><ele>133.0</ele><time>2026-04-18T07:46:49.001Z</time></trkpt><trkpt lat="43.549982672025386" lon="10.72336944289953"><ele>133.0</ele><time>2026-04-18T07:46:50.001Z</time></trkpt><trkpt lat="43.54999943907862" lon="10.723512441049774"><ele>133.0</ele><time>2026-04-18T07:46:51.001Z</time></trkpt><trkpt lat="43.550015090177084" lon="10.723675765174127"><ele>133.0</ele><time>2026-04-18T07:46:52.001Z</time></trkpt><trkpt lat="43.550065604986" lon="10.723832829086469"><ele>133.0</ele><time>2026-04-18T07:46:53.001Z</time></trkpt><trkpt lat="43.550134593023934" lon="10.723967561286194"><ele>131.6</ele><time>2026-04-18T07:46:54.001Z</time></trkpt><trkpt lat="43.55021436843504" lon="10.72409330387677"><ele>130.20000000000002</ele><time>2026-04-18T07:46:55.001Z</time></trkpt><trkpt lat="43.550289316385864" lon="10.724182562494942"><ele>128.8</ele><time>2026-04-18T07:46:56.001Z</time></trkpt><trkpt lat="43.55037126735321" lon="10.724247724491217"><ele>127.4</ele><time>2026-04-18T07:46:57.001Z</time></trkpt><trkpt lat="43.55048613373808" lon="10.724263068184323"><ele>126.0</ele><time>2026-04-18T07:46:58.001Z</time></trkpt><trkpt lat="43.550616959566824" lon="10.724265255716984"><ele>126.0</ele><time>2026-04-18T07:46:59.001Z</time></trkpt><trkpt lat="43.55076545355386" lon="10.72428385209385"><ele>126.0</ele><time>2026-04-18T07:47:00.001Z</time></trkpt><trkpt lat="43.55092547711559" lon="10.72432663486191"><ele>126.0</ele><time>2026-04-18T07:47:01.001Z</time></trkpt><trkpt lat="43.55107915001427" lon="10.724372814982718"><ele>119.75</ele><time>2026-04-18T07:47:02.001Z</time></trkpt><trkpt lat="43.55122566324832" lon="10.724428132204693"><ele>113.5</ele><time>2026-04-18T07:47:03.001Z</time></trkpt><trkpt lat="43.55136652794518" lon="10.724475372383107"><ele>107.25</ele><time>2026-04-18T07:47:04.001Z</time></trkpt><trkpt lat="43.55150486936143" lon="10.72452357505754"><ele>101.0</ele><time>2026-04-18T07:47:05.001Z</time></trkpt><trkpt lat="43.55163793040951" lon="10.724565540694861"><ele>101.0</ele><time>2026-04-18T07:47:06.001Z</time></trkpt><trkpt lat="43.551767705049855" lon="10.724610361038504"><ele>101.0</ele><time>2026-04-18T07:47:07.001Z</time></trkpt><trkpt lat="43.551907827453206" lon="10.72461869543432"><ele>101.0</ele><time>2026-04-18T07:47:08.001Z</time></trkpt><trkpt lat="43.55205429118262" lon="10.724601600833482"><ele>101.0</ele><time>2026-04-18T07:47:09.001Z</time></trkpt><trkpt lat="43.55220325746872" lon="10.724575343439971"><ele>99.0</ele><time>2026-04-18T07:47:10.001Z</time></trkpt><trkpt lat="43.55236217305903" lon="10.724551176659405"><ele>97.0</ele><time>2026-04-18T07:47:11.001Z</time></trkpt><trkpt lat="43.55252638091087" lon="10.724546124701764"><ele>95.0</ele><time>2026-04-18T07:47:12.002Z</time></trkpt><trkpt lat="43.55269805816397" lon="10.724587138175103"><ele>95.0</ele><time>2026-04-18T07:47:13.002Z</time></trkpt><trkpt lat="43.55285810526208" lon="10.724622717265914"><ele>95.0</ele><time>2026-04-18T07:47:14.002Z</time></trkpt><trkpt lat="43.553019762704906" lon="10.724655934325675"><ele>95.0</ele><time>2026-04-18T07:47:15.002Z</time></trkpt><trkpt lat="43.55318079416033" lon="10.724695481790981"><ele>92.0</ele><time>2026-04-18T07:47:16.002Z</time></trkpt><trkpt lat="43.553353491486725" lon="10.724735820359856"><ele>89.0</ele><time>2026-04-18T07:47:17.002Z</time></trkpt><trkpt lat="43.55353520768014" lon="10.724779316474011"><ele>86.0</ele><time>2026-04-18T07:47:18.002Z</time></trkpt><trkpt lat="43.55371889895421" lon="10.724822457290417"><ele>84.33333333333334</ele><time>2026-04-18T07:47:19.002Z</time></trkpt><trkpt lat="43.553897547832165" lon="10.724857600375389"><ele>82.66666666666667</ele><time>2026-04-18T07:47:20.002Z</time></trkpt><trkpt lat="43.55407151199492" lon="10.7248853452825"><ele>81.0</ele><time>2026-04-18T07:47:21.002Z</time></trkpt><trkpt lat="43.55424626393556" lon="10.724897657313551"><ele>81.0</ele><time>2026-04-18T07:47:22.002Z</time></trkpt><trkpt lat="43.554414005700124" lon="10.724908217201662"><ele>81.0</ele><time>2026-04-18T07:47:23.002Z</time></trkpt><trkpt lat="43.554575569192735" lon="10.724909004495085"><ele>81.0</ele><time>2026-04-18T07:47:24.002Z</time></trkpt><trkpt lat="43.55472696285783" lon="10.724898725956896"><ele>78.0</ele><time>2026-04-18T07:47:24.999Z</time></trkpt><trkpt lat="43.55487520359834" lon="10.724889872394355"><ele>75.0</ele><time>2026-04-18T07:47:25.999Z</time></trkpt><trkpt lat="43.55502698810001" lon="10.724887561248783"><ele>72.0</ele><time>2026-04-18T07:47:26.999Z</time></trkpt><trkpt lat="43.55518087741135" lon="10.724885379880284"><ele>72.0</ele><time>2026-04-18T07:47:27.999Z</time></trkpt><trkpt lat="43.55533870055244" lon="10.724884574749284"><ele>72.0</ele><time>2026-04-18T07:47:28.999Z</time></trkpt><trkpt lat="43.555497906460154" lon="10.724884154343103"><ele>72.0</ele><time>2026-04-18T07:47:29.999Z</time></trkpt><trkpt lat="43.55565008846202" lon="10.72488355551107"><ele>70.33333333333333</ele><time>2026-04-18T07:47:30.999Z</time></trkpt><trkpt lat="43.55580368750928" lon="10.724895741912075"><ele>68.66666666666666</ele><time>2026-04-18T07:47:31.999Z</time></trkpt><trkpt lat="43.55596981103197" lon="10.724924742856029"><ele>67.0</ele><time>2026-04-18T07:47:32.999Z</time></trkpt><trkpt lat="43.5561352905275" lon="10.724978321803183"><ele>66.33333333333333</ele><time>2026-04-18T07:47:33.999Z</time></trkpt><trkpt lat="43.55630128052267" lon="10.725053955294747"><ele>65.66666666666667</ele><time>2026-04-18T07:47:34.999Z</time></trkpt><trkpt lat="43.5564859149478" lon="10.72511149076478"><ele>65.0</ele><time>2026-04-18T07:47:35.999Z</time></trkpt><trkpt lat="43.55666161213141" lon="10.725170929442978"><ele>60.66666666666667</ele><time>2026-04-18T07:47:36.999Z</time></trkpt><trkpt lat="43.55682438222555" lon="10.725237681150864"><ele>56.33333333333333</ele><time>2026-04-18T07:47:37.999Z</time></trkpt><trkpt lat="43.55697849511169" lon="10.725296771924508"><ele>52.0</ele><time>2026-04-18T07:47:38.999Z</time></trkpt><trkpt lat="43.55713241354085" lon="10.725385807395929"><ele>51.33333333333333</ele><time>2026-04-18T07:47:40Z</time></trkpt><trkpt lat="43.55727659635344" lon="10.725513334734467"><ele>50.66666666666667</ele><time>2026-04-18T07:47:41Z</time></trkpt><trkpt lat="43.557413188617204" lon="10.725677271928246"><ele>50.0</ele><time>2026-04-18T07:47:42Z</time></trkpt><trkpt lat="43.557538899057406" lon="10.725866718400129"><ele>49.333333333333336</ele><time>2026-04-18T07:47:43Z</time></trkpt><trkpt lat="43.55766669924639" lon="10.726071625536873"><ele>48.66666666666667</ele><time>2026-04-18T07:47:44Z</time></trkpt><trkpt lat="43.55780177213501" lon="10.726283607220687"><ele>48.0</ele><time>2026-04-18T07:47:45Z</time></trkpt><trkpt lat="43.5579402695921" lon="10.726499111998695"><ele>47.666666666666664</ele><time>2026-04-18T07:47:46Z</time></trkpt><trkpt lat="43.558075903505475" lon="10.726716152389322"><ele>47.33333333333333</ele><time>2026-04-18T07:47:47Z</time></trkpt><trkpt lat="43.55820958303515" lon="10.726931251303096"><ele>47.0</ele><time>2026-04-18T07:47:48Z</time></trkpt><trkpt lat="43.55834065256041" lon="10.727145145127398"><ele>47.0</ele><time>2026-04-18T07:47:49Z</time></trkpt><trkpt lat="43.558474823338116" lon="10.727362358665209"><ele>47.0</ele><time>2026-04-18T07:47:50Z</time></trkpt><trkpt lat="43.558607060600785" lon="10.727571917252968"><ele>47.0</ele><time>2026-04-18T07:47:51Z</time></trkpt><trkpt lat="43.558741995944274" lon="10.72777931287787"><ele>47.0</ele><time>2026-04-18T07:47:52Z</time></trkpt><trkpt lat="43.55887282557722" lon="10.727994702805733"><ele>47.0</ele><time>2026-04-18T07:47:53Z</time></trkpt><trkpt lat="43.55900288676621" lon="10.72821124399129"><ele>47.0</ele><time>2026-04-18T07:47:54Z</time></trkpt><trkpt lat="43.55913443906102" lon="10.728422868716672"><ele>47.666666666666664</ele><time>2026-04-18T07:47:55Z</time></trkpt><trkpt lat="43.55926787944142" lon="10.728631244053215"><ele>48.33333333333333</ele><time>2026-04-18T07:47:56Z</time></trkpt><trkpt lat="43.55940280490017" lon="10.728831741625838"><ele>49.0</ele><time>2026-04-18T07:47:57Z</time></trkpt><trkpt lat="43.559540053404" lon="10.72905236584146"><ele>47.666666666666664</ele><time>2026-04-18T07:47:58Z</time></trkpt><trkpt lat="43.5596773771429" lon="10.729270384388682"><ele>46.33333333333333</ele><time>2026-04-18T07:47:59Z</time></trkpt><trkpt lat="43.55981858080545" lon="10.729491700502745"><ele>45.0</ele><time>2026-04-18T07:48:00Z</time></trkpt><trkpt lat="43.55995849014135" lon="10.729714999475847"><ele>45.0</ele><time>2026-04-18T07:48:01Z</time></trkpt><trkpt lat="43.5600998515361" lon="10.729937644441069"><ele>45.0</ele><time>2026-04-18T07:48:02Z</time></trkpt><trkpt lat="43.560237643052986" lon="10.73016095868167"><ele>45.0</ele><time>2026-04-18T07:48:03Z</time></trkpt><trkpt lat="43.56037533850443" lon="10.730388644363753"><ele>45.0</ele><time>2026-04-18T07:48:04Z</time></trkpt><trkpt lat="43.56051320500862" lon="10.730610539850124"><ele>45.0</ele><time>2026-04-18T07:48:05Z</time></trkpt><trkpt lat="43.56065313206494" lon="10.73082654190126"><ele>45.0</ele><time>2026-04-18T07:48:06Z</time></trkpt><trkpt lat="43.56078969356654" lon="10.73104495090957"><ele>45.666666666666664</ele><time>2026-04-18T07:48:07Z</time></trkpt><trkpt lat="43.560929289602925" lon="10.731263670606879"><ele>46.33333333333333</ele><time>2026-04-18T07:48:08Z</time></trkpt><trkpt lat="43.56106061414123" lon="10.731476926371217"><ele>47.0</ele><time>2026-04-18T07:48:09Z</time></trkpt><trkpt lat="43.561196460694994" lon="10.731690005461987"><ele>46.33333333333333</ele><time>2026-04-18T07:48:10Z</time></trkpt><trkpt lat="43.561333103117356" lon="10.73189708789757"><ele>45.666666666666664</ele><time>2026-04-18T07:48:11Z</time></trkpt><trkpt lat="43.561468203958285" lon="10.732109460916027"><ele>45.0</ele><time>2026-04-18T07:48:12Z</time></trkpt><trkpt lat="43.56160268197476" lon="10.732319996583223"><ele>45.0</ele><time>2026-04-18T07:48:13Z</time></trkpt><trkpt lat="43.5617357930464" lon="10.732536841301645"><ele>45.0</ele><time>2026-04-18T07:48:14Z</time></trkpt><trkpt lat="43.56186954177799" lon="10.732754533374486"><ele>45.0</ele><time>2026-04-18T07:48:15Z</time></trkpt><trkpt lat="43.562005417412905" lon="10.73296641622959"><ele>45.666666666666664</ele><time>2026-04-18T07:48:16Z</time></trkpt><trkpt lat="43.562141389839326" lon="10.733185475342742"><ele>46.33333333333333</ele><time>2026-04-18T07:48:17Z</time></trkpt><trkpt lat="43.56227661789672" lon="10.733403731962563"><ele>47.0</ele><time>2026-04-18T07:48:18.001Z</time></trkpt><trkpt lat="43.562411739178515" lon="10.733619857460464"><ele>47.0</ele><time>2026-04-18T07:48:19.001Z</time></trkpt><trkpt lat="43.562550284941764" lon="10.733838826112862"><ele>47.0</ele><time>2026-04-18T07:48:20.001Z</time></trkpt><trkpt lat="43.56268822415988" lon="10.73406798667758"><ele>47.0</ele><time>2026-04-18T07:48:21.001Z</time></trkpt><trkpt lat="43.562825573100184" lon="10.734286287526333"><ele>47.33333333333333</ele><time>2026-04-18T07:48:22.001Z</time></trkpt><trkpt lat="43.56295802913843" lon="10.734514547269834"><ele>47.666666666666664</ele><time>2026-04-18T07:48:23.001Z</time></trkpt><trkpt lat="43.56308582177398" lon="10.734749079564482"><ele>48.0</ele><time>2026-04-18T07:48:24.001Z</time></trkpt><trkpt lat="43.5631871448287" lon="10.735004776667713"><ele>47.666666666666664</ele><time>2026-04-18T07:48:25.001Z</time></trkpt><trkpt lat="43.563305841003945" lon="10.735247520213235"><ele>47.33333333333333</ele><time>2026-04-18T07:48:26.001Z</time></trkpt><trkpt lat="43.56340592949207" lon="10.735504253446448"><ele>47.0</ele><time>2026-04-18T07:48:27.001Z</time></trkpt><trkpt lat="43.563510980131554" lon="10.735761588817173"><ele>47.0</ele><time>2026-04-18T07:48:28.001Z</time></trkpt><trkpt lat="43.56362013352451" lon="10.73601047391859"><ele>47.0</ele><time>2026-04-18T07:48:29.001Z</time></trkpt><trkpt lat="43.56372641748468" lon="10.73626107087318"><ele>47.0</ele><time>2026-04-18T07:48:30.001Z</time></trkpt><trkpt lat="43.56383193146069" lon="10.736511231393173"><ele>47.33333333333333</ele><time>2026-04-18T07:48:31.001Z</time></trkpt><trkpt lat="43.5639344681908" lon="10.73676053435368"><ele>47.666666666666664</ele><time>2026-04-18T07:48:32.001Z</time></trkpt><trkpt lat="43.56403563633149" lon="10.737003454846217"><ele>48.0</ele><time>2026-04-18T07:48:33.001Z</time></trkpt><trkpt lat="43.5641347858446" lon="10.737244351673532"><ele>48.0</ele><time>2026-04-18T07:48:34.001Z</time></trkpt><trkpt lat="43.564231976919395" lon="10.73747813322396"><ele>48.0</ele><time>2026-04-18T07:48:35.001Z</time></trkpt><trkpt lat="43.564330839723716" lon="10.737704701879155"><ele>48.0</ele><time>2026-04-18T07:48:36.001Z</time></trkpt><trkpt lat="43.56442835443266" lon="10.73792843462746"><ele>48.0</ele><time>2026-04-18T07:48:37.001Z</time></trkpt><trkpt lat="43.564519160749064" lon="10.73813861979494"><ele>48.0</ele><time>2026-04-18T07:48:38.001Z</time></trkpt><trkpt lat="43.56461067457206" lon="10.73835337403149"><ele>48.0</ele><time>2026-04-18T07:48:39.001Z</time></trkpt><trkpt lat="43.56468445097163" lon="10.73851298994968"><ele>48.75</ele><time>2026-04-18T07:48:40.001Z</time></trkpt><trkpt lat="43.56475463028453" lon="10.738665705501912"><ele>49.5</ele><time>2026-04-18T07:48:41.001Z</time></trkpt><trkpt lat="43.56482895923285" lon="10.738793207628659"><ele>50.25</ele><time>2026-04-18T07:48:42.001Z</time></trkpt><trkpt lat="43.56490384187202" lon="10.738901354807805"><ele>51.0</ele><time>2026-04-18T07:48:43.001Z</time></trkpt><trkpt lat="43.564976495242675" lon="10.73901125305478"><ele>51.0</ele><time>2026-04-18T07:48:44.001Z</time></trkpt><trkpt lat="43.565030862150586" lon="10.739132624234752"><ele>51.0</ele><time>2026-04-18T07:48:45.001Z</time></trkpt><trkpt lat="43.56505946998124" lon="10.739255331593668"><ele>51.0</ele><time>2026-04-18T07:48:46.001Z</time></trkpt><trkpt lat="43.5650529324927" lon="10.739375308364675"><ele>51.0</ele><time>2026-04-18T07:48:47.001Z</time></trkpt><trkpt lat="43.56501096509276" lon="10.73950347166488"><ele>51.0</ele><time>2026-04-18T07:48:48.001Z</time></trkpt><trkpt lat="43.564940019509486" lon="10.739646642719274"><ele>51.66666666666667</ele><time>2026-04-18T07:48:49.001Z</time></trkpt><trkpt lat="43.56484664469693" lon="10.73980411572498"><ele>52.333333333333336</ele><time>2026-04-18T07:48:50.001Z</time></trkpt><trkpt lat="43.564742548690575" lon="10.739981976796702"><ele>53.0</ele><time>2026-04-18T07:48:51.001Z</time></trkpt><trkpt lat="43.56464094618244" lon="10.740165849502134"><ele>53.0</ele><time>2026-04-18T07:48:52.001Z</time></trkpt><trkpt lat="43.56453071450685" lon="10.740374032258917"><ele>53.0</ele><time>2026-04-18T07:48:53.001Z</time></trkpt><trkpt lat="43.56441304121688" lon="10.740595446702159"><ele>53.0</ele><time>2026-04-18T07:48:54.001Z</time></trkpt><trkpt lat="43.56428838968193" lon="10.740822197293227"><ele>52.333333333333336</ele><time>2026-04-18T07:48:55.001Z</time></trkpt><trkpt lat="43.5641650983415" lon="10.741043189744849"><ele>51.66666666666667</ele><time>2026-04-18T07:48:56.001Z</time></trkpt><trkpt lat="43.564038568236974" lon="10.741259242543947"><ele>51.0</ele><time>2026-04-18T07:48:57.001Z</time></trkpt><trkpt lat="43.563912515858796" lon="10.741478913190933"><ele>52.33333333333333</ele><time>2026-04-18T07:48:58.001Z</time></trkpt><trkpt lat="43.563787415947765" lon="10.741705225221656"><ele>53.666666666666664</ele><time>2026-04-18T07:48:59.001Z</time></trkpt><trkpt lat="43.563660761052446" lon="10.741935294554896"><ele>55.0</ele><time>2026-04-18T07:49:00.001Z</time></trkpt><trkpt lat="43.56353168753875" lon="10.742162152881782"><ele>55.0</ele><time>2026-04-18T07:49:01.001Z</time></trkpt><trkpt lat="43.56340253752028" lon="10.742389574926875"><ele>55.0</ele><time>2026-04-18T07:49:02.001Z</time></trkpt><trkpt lat="43.56327519832416" lon="10.742617459403183"><ele>55.0</ele><time>2026-04-18T07:49:03.001Z</time></trkpt><trkpt lat="43.563147038842075" lon="10.742853650650323"><ele>55.0</ele><time>2026-04-18T07:49:04.001Z</time></trkpt><trkpt lat="43.56300951314753" lon="10.743095041224041"><ele>55.0</ele><time>2026-04-18T07:49:05.001Z</time></trkpt><trkpt lat="43.5628701084399" lon="10.74333834222553"><ele>55.0</ele><time>2026-04-18T07:49:06.001Z</time></trkpt><trkpt lat="43.56272905263878" lon="10.743582331766595"><ele>55.0</ele><time>2026-04-18T07:49:07.001Z</time></trkpt><trkpt lat="43.56259276464298" lon="10.743829492542197"><ele>55.0</ele><time>2026-04-18T07:49:08.001Z</time></trkpt><trkpt lat="43.56247679607533" lon="10.744065714448288"><ele>55.0</ele><time>2026-04-18T07:49:09.002Z</time></trkpt><trkpt lat="43.56238875061595" lon="10.74430052761355"><ele>56.0</ele><time>2026-04-18T07:49:10.002Z</time></trkpt><trkpt lat="43.56231187634408" lon="10.744550020885058"><ele>57.0</ele><time>2026-04-18T07:49:11.002Z</time></trkpt><trkpt lat="43.562242137834545" lon="10.744822419390339"><ele>58.0</ele><time>2026-04-18T07:49:12.002Z</time></trkpt><trkpt lat="43.5621871553878" lon="10.745109151692123"><ele>58.0</ele><time>2026-04-18T07:49:13.002Z</time></trkpt><trkpt lat="43.56215341707202" lon="10.745413327785819"><ele>58.0</ele><time>2026-04-18T07:49:14.002Z</time></trkpt><trkpt lat="43.56213523199718" lon="10.745716594910446"><ele>58.0</ele><time>2026-04-18T07:49:15.002Z</time></trkpt><trkpt lat="43.56213137025345" lon="10.746029897649576"><ele>56.666666666666664</ele><time>2026-04-18T07:49:16.002Z</time></trkpt><trkpt lat="43.56213980127292" lon="10.74633427970623"><ele>55.33333333333333</ele><time>2026-04-18T07:49:17.002Z</time></trkpt><trkpt lat="43.56216653819605" lon="10.746624952871505"><ele>54.0</ele><time>2026-04-18T07:49:18.002Z</time></trkpt><trkpt lat="43.56221341968751" lon="10.746902140279515"><ele>53.33333333333333</ele><time>2026-04-18T07:49:19.002Z</time></trkpt><trkpt lat="43.56227808314954" lon="10.747167281091265"><ele>52.666666666666664</ele><time>2026-04-18T07:49:20.002Z</time></trkpt><trkpt lat="43.562358586378146" lon="10.747433383150618"><ele>52.0</ele><time>2026-04-18T07:49:21.002Z</time></trkpt><trkpt lat="43.562450846516214" lon="10.747695343176533"><ele>52.33333333333333</ele><time>2026-04-18T07:49:22.002Z</time></trkpt><trkpt lat="43.56254720053102" lon="10.747967561146783"><ele>52.66666666666667</ele><time>2026-04-18T07:49:23.002Z</time></trkpt><trkpt lat="43.56264264137086" lon="10.748248310868725"><ele>53.0</ele><time>2026-04-18T07:49:24.002Z</time></trkpt><trkpt lat="43.56273804426143" lon="10.748532822398417"><ele>52.5</ele><time>2026-04-18T07:49:25.002Z</time></trkpt><trkpt lat="43.56283346922008" lon="10.748820768466324"><ele>52.0</ele><time>2026-04-18T07:49:26.002Z</time></trkpt><trkpt lat="43.562930800013184" lon="10.749106866824134"><ele>54.5</ele><time>2026-04-18T07:49:27.002Z</time></trkpt><trkpt lat="43.5630315060872" lon="10.74939409657569"><ele>57.0</ele><time>2026-04-18T07:49:28.002Z</time></trkpt><trkpt lat="43.56312944072458" lon="10.749682868248268"><ele>57.0</ele><time>2026-04-18T07:49:29.002Z</time></trkpt><trkpt lat="43.56322629252486" lon="10.749972834487718"><ele>57.0</ele><time>2026-04-18T07:49:30.002Z</time></trkpt><trkpt lat="43.56332217716187" lon="10.75026231569457"><ele>55.0</ele><time>2026-04-18T07:49:31Z</time></trkpt><trkpt lat="43.56341973157792" lon="10.750549538275076"><ele>53.0</ele><time>2026-04-18T07:49:32Z</time></trkpt><trkpt lat="43.56361001154571" lon="10.751111415245777"><ele>55.333333333333336</ele><time>2026-04-18T07:49:34Z</time></trkpt><trkpt lat="43.563702311766974" lon="10.751387753810345"><ele>57.66666666666667</ele><time>2026-04-18T07:49:35Z</time></trkpt><trkpt lat="43.56379458027011" lon="10.751664971095677"><ele>60.0</ele><time>2026-04-18T07:49:36Z</time></trkpt><trkpt lat="43.56388669674837" lon="10.751936644460303"><ele>60.0</ele><time>2026-04-18T07:49:37Z</time></trkpt><trkpt lat="43.56397566268509" lon="10.752205693506466"><ele>60.0</ele><time>2026-04-18T07:49:38Z</time></trkpt><trkpt lat="43.56406320512126" lon="10.752464885877801"><ele>60.0</ele><time>2026-04-18T07:49:39Z</time></trkpt><trkpt lat="43.56416031991357" lon="10.75271773466533"><ele>58.0</ele><time>2026-04-18T07:49:40Z</time></trkpt><trkpt lat="43.56427368060245" lon="10.752964668246513"><ele>56.0</ele><time>2026-04-18T07:49:41Z</time></trkpt><trkpt lat="43.56440599000257" lon="10.75320327034637"><ele>54.0</ele><time>2026-04-18T07:49:42Z</time></trkpt><trkpt lat="43.564551952506946" lon="10.753433553636055"><ele>55.0</ele><time>2026-04-18T07:49:43Z</time></trkpt><trkpt lat="43.56468573932074" lon="10.753665345620831"><ele>56.0</ele><time>2026-04-18T07:49:44Z</time></trkpt><trkpt lat="43.56481971190692" lon="10.753876211034518"><ele>57.0</ele><time>2026-04-18T07:49:45Z</time></trkpt><trkpt lat="43.5650611426787" lon="10.753957171341563"><ele>57.0</ele><time>2026-04-18T07:49:46Z</time></trkpt><trkpt lat="43.565246288707016" lon="10.754112093960384"><ele>57.0</ele><time>2026-04-18T07:49:47Z</time></trkpt><trkpt lat="43.56543329959067" lon="10.754264286312159"><ele>57.0</ele><time>2026-04-18T07:49:48Z</time></trkpt><trkpt lat="43.56561773117053" lon="10.754413583533418"><ele>56.66666666666667</ele><time>2026-04-18T07:49:49Z</time></trkpt><trkpt lat="43.565799021198806" lon="10.754573438875278"><ele>56.333333333333336</ele><time>2026-04-18T07:49:50Z</time></trkpt><trkpt lat="43.56598163854573" lon="10.754728820326036"><ele>56.0</ele><time>2026-04-18T07:49:51Z</time></trkpt><trkpt lat="43.56617182624046" lon="10.754885459035089"><ele>57.0</ele><time>2026-04-18T07:49:52Z</time></trkpt><trkpt lat="43.56636626259646" lon="10.755047678186653"><ele>58.0</ele><time>2026-04-18T07:49:53Z</time></trkpt><trkpt lat="43.56656214228772" lon="10.75521469443047"><ele>56.0</ele><time>2026-04-18T07:49:54Z</time></trkpt><trkpt lat="43.566761347043304" lon="10.755379538436207"><ele>54.0</ele><time>2026-04-18T07:49:55Z</time></trkpt><trkpt lat="43.56696068503237" lon="10.755548747006634"><ele>56.0</ele><time>2026-04-18T07:49:56Z</time></trkpt><trkpt lat="43.56716007369758" lon="10.755719844850649"><ele>58.0</ele><time>2026-04-18T07:49:57Z</time></trkpt><trkpt lat="43.567359692412964" lon="10.755882731784704"><ele>58.33333333333333</ele><time>2026-04-18T07:49:58Z</time></trkpt><trkpt lat="43.56755281986033" lon="10.756041519133804"><ele>58.66666666666667</ele><time>2026-04-18T07:49:59Z</time></trkpt><trkpt lat="43.567736151443164" lon="10.756196721800116"><ele>59.0</ele><time>2026-04-18T07:50:00Z</time></trkpt><trkpt lat="43.56791672348177" lon="10.756348772512968"><ele>59.0</ele><time>2026-04-18T07:50:01Z</time></trkpt><trkpt lat="43.5680963570156" lon="10.756498899298577"><ele>59.0</ele><time>2026-04-18T07:50:02Z</time></trkpt><trkpt lat="43.56827168785371" lon="10.756645032950832"><ele>59.0</ele><time>2026-04-18T07:50:03Z</time></trkpt><trkpt lat="43.56844611958866" lon="10.756787746645776"><ele>58.333333333333336</ele><time>2026-04-18T07:50:04Z</time></trkpt><trkpt lat="43.56862183395957" lon="10.756930902499912"><ele>57.66666666666667</ele><time>2026-04-18T07:50:05Z</time></trkpt><trkpt lat="43.568793685116155" lon="10.7570729349272"><ele>57.0</ele><time>2026-04-18T07:50:06Z</time></trkpt><trkpt lat="43.56895451053485" lon="10.757208385498394"><ele>57.0</ele><time>2026-04-18T07:50:07Z</time></trkpt><trkpt lat="43.56909295715827" lon="10.757325187011851"><ele>57.0</ele><time>2026-04-18T07:50:08Z</time></trkpt><trkpt lat="43.56920670655877" lon="10.757425743494222"><ele>57.0</ele><time>2026-04-18T07:50:09.001Z</time></trkpt><trkpt lat="43.56926988023102" lon="10.75748993885811"><ele>57.0</ele><time>2026-04-18T07:50:10.001Z</time></trkpt><trkpt lat="43.569339519959435" lon="10.757565278103595"><ele>57.0</ele><time>2026-04-18T07:50:12.001Z</time></trkpt><trkpt lat="43.569242840514576" lon="10.757611872484263"><ele>57.0</ele><time>2026-04-18T07:50:22.001Z</time></trkpt><trkpt lat="43.569158062578666" lon="10.757704146856975"><ele>57.0</ele><time>2026-04-18T07:50:23.001Z</time></trkpt><trkpt lat="43.56910789980007" lon="10.757803192506818"><ele>57.0</ele><time>2026-04-18T07:50:24.001Z</time></trkpt><trkpt lat="43.56906250805007" lon="10.75791851674366"><ele>57.0</ele><time>2026-04-18T07:50:25.001Z</time></trkpt><trkpt lat="43.56901233148953" lon="10.75804277851904"><ele>57.0</ele><time>2026-04-18T07:50:26.001Z</time></trkpt><trkpt lat="43.5689526599841" lon="10.758163956269872"><ele>57.0</ele><time>2026-04-18T07:50:27.001Z</time></trkpt><trkpt lat="43.568893773130846" lon="10.758276587624119"><ele>57.0</ele><time>2026-04-18T07:50:28.001Z</time></trkpt><trkpt lat="43.56884026304077" lon="10.7583912116568"><ele>57.0</ele><time>2026-04-18T07:50:29.001Z</time></trkpt><trkpt lat="43.56878899382639" lon="10.758508258073956"><ele>57.0</ele><time>2026-04-18T07:50:30.001Z</time></trkpt><trkpt lat="43.5687363644931" lon="10.7586175691972"><ele>56.333333333333336</ele><time>2026-04-18T07:50:31.001Z</time></trkpt><trkpt lat="43.568685573272084" lon="10.75871662097712"><ele>55.66666666666667</ele><time>2026-04-18T07:50:32.001Z</time></trkpt><trkpt lat="43.568618546402725" lon="10.758820824623502"><ele>55.0</ele><time>2026-04-18T07:50:33.001Z</time></trkpt><trkpt lat="43.56855324306107" lon="10.75890641706093"><ele>54.333333333333336</ele><time>2026-04-18T07:50:34.001Z</time></trkpt><trkpt lat="43.568492875825434" lon="10.758980052261522"><ele>53.66666666666667</ele><time>2026-04-18T07:50:35.001Z</time></trkpt><trkpt lat="43.56843376836991" lon="10.759052274825201"><ele>53.0</ele><time>2026-04-18T07:50:36.001Z</time></trkpt><trkpt lat="43.5683768823078" lon="10.759121140811047"><ele>53.00000000000001</ele><time>2026-04-18T07:50:37.001Z</time></trkpt><trkpt lat="43.568310316862124" lon="10.759206701524944"><ele>53.0</ele><time>2026-04-18T07:50:39.001Z</time></trkpt><trkpt lat="43.56825938823957" lon="10.759305249341844"><ele>53.0</ele><time>2026-04-18T07:50:41.001Z</time></trkpt><trkpt lat="43.56822039717253" lon="10.759432294104908"><ele>53.0</ele><time>2026-04-18T07:50:43.001Z</time></trkpt><trkpt lat="43.56816670127222" lon="10.75949121748997"><ele>53.00000000000001</ele><time>2026-04-18T07:50:45.001Z</time></trkpt><trkpt lat="43.568075804715996" lon="10.759505046826288"><ele>53.0</ele><time>2026-04-18T07:50:48.001Z</time></trkpt><trkpt lat="43.567994817003154" lon="10.759509926194976"><ele>53.00000000000001</ele><time>2026-04-18T07:50:51.001Z</time></trkpt><trkpt lat="43.567894102542354" lon="10.759504313235336"><ele>53.0</ele><time>2026-04-18T07:51:07.002Z</time></trkpt><trkpt lat="43.56779508745192" lon="10.759532084919128"><ele>53.0</ele><time>2026-04-18T07:51:09.002Z</time></trkpt><trkpt lat="43.56770225246277" lon="10.759558526073755"><ele>53.0</ele><time>2026-04-18T07:51:11.002Z</time></trkpt><trkpt lat="43.56763159299731" lon="10.759568431438403"><ele>53.00000000000001</ele><time>2026-04-18T07:51:14.002Z</time></trkpt><trkpt lat="43.56756530401699" lon="10.759582383025128"><ele>53.0</ele><time>2026-04-18T07:51:16.002Z</time></trkpt><trkpt lat="43.56749027944496" lon="10.759605503358669"><ele>54.16666666666667</ele><time>2026-04-18T07:51:18.002Z</time></trkpt><trkpt lat="43.567429067572505" lon="10.759691460113345"><ele>55.333333333333336</ele><time>2026-04-18T07:51:21.002Z</time></trkpt><trkpt lat="43.56737564364837" lon="10.759752125705104"><ele>56.5</ele><time>2026-04-18T07:51:23.002Z</time></trkpt><trkpt lat="43.56729729764271" lon="10.759831649568685"><ele>57.66666666666667</ele><time>2026-04-18T07:51:33.002Z</time></trkpt><trkpt lat="43.56724207050852" lon="10.759900130205601"><ele>58.833333333333336</ele><time>2026-04-18T07:51:34.002Z</time></trkpt><trkpt lat="43.56718395122979" lon="10.759955879784611"><ele>60.0</ele><time>2026-04-18T07:51:35.002Z</time></trkpt><trkpt lat="43.5671245389816" lon="10.759985768168816"><ele>60.0</ele><time>2026-04-18T07:51:36.002Z</time></trkpt><trkpt lat="43.56705973785864" lon="10.760024211354857"><ele>60.0</ele><time>2026-04-18T07:51:37Z</time></trkpt><trkpt lat="43.566995754830046" lon="10.760074996144912"><ele>60.0</ele><time>2026-04-18T07:51:38Z</time></trkpt><trkpt lat="43.56689638205257" lon="10.760147180962683"><ele>60.0</ele><time>2026-04-18T07:51:40Z</time></trkpt><trkpt lat="43.56678165270657" lon="10.76025183205129"><ele>60.0</ele><time>2026-04-18T07:51:42Z</time></trkpt><trkpt lat="43.56671988364664" lon="10.760322268689649"><ele>61.833333333333336</ele><time>2026-04-18T07:51:43Z</time></trkpt><trkpt lat="43.56666901133123" lon="10.760386497826298"><ele>63.66666666666667</ele><time>2026-04-18T07:51:44Z</time></trkpt><trkpt lat="43.56659950692324" lon="10.760457041253792"><ele>65.5</ele><time>2026-04-18T07:51:46Z</time></trkpt><trkpt lat="43.56653717689018" lon="10.760532126002877"><ele>67.33333333333334</ele><time>2026-04-18T07:51:48Z</time></trkpt><trkpt lat="43.566470147853444" lon="10.760616608589547"><ele>69.16666666666667</ele><time>2026-04-18T07:51:50Z</time></trkpt><trkpt lat="43.566401898413446" lon="10.76071984739924"><ele>71.0</ele><time>2026-04-18T07:51:52Z</time></trkpt><trkpt lat="43.56632925966835" lon="10.760834754663806"><ele>71.0</ele><time>2026-04-18T07:51:54Z</time></trkpt><trkpt lat="43.566268134296564" lon="10.760946956423027"><ele>71.0</ele><time>2026-04-18T07:51:56Z</time></trkpt><trkpt lat="43.56621346268323" lon="10.761096503547458"><ele>71.0</ele><time>2026-04-18T07:51:58Z</time></trkpt><trkpt lat="43.56621203089232" lon="10.761257529244073"><ele>71.0</ele><time>2026-04-18T07:52:00Z</time></trkpt><trkpt lat="43.56622835687807" lon="10.761361271052975"><ele>71.0</ele><time>2026-04-18T07:52:01Z</time></trkpt><trkpt lat="43.56624571655316" lon="10.76148103846397"><ele>71.5</ele><time>2026-04-18T07:52:02Z</time></trkpt><trkpt lat="43.56625078588483" lon="10.761598124816304"><ele>72.0</ele><time>2026-04-18T07:52:03Z</time></trkpt><trkpt lat="43.56624648723292" lon="10.76171074793499"><ele>72.5</ele><time>2026-04-18T07:52:04Z</time></trkpt><trkpt lat="43.56622981971569" lon="10.761838595923512"><ele>73.0</ele><time>2026-04-18T07:52:05.001Z</time></trkpt><trkpt lat="43.56620322302605" lon="10.761959347136049"><ele>73.5</ele><time>2026-04-18T07:52:06.001Z</time></trkpt><trkpt lat="43.56618348487138" lon="10.762060863991499"><ele>74.0</ele><time>2026-04-18T07:52:07.001Z</time></trkpt><trkpt lat="43.56615844498605" lon="10.762159094408224"><ele>71.16666666666667</ele><time>2026-04-18T07:52:08.001Z</time></trkpt><trkpt lat="43.566125974440126" lon="10.762269789230368"><ele>68.33333333333334</ele><time>2026-04-18T07:52:09.001Z</time></trkpt><trkpt lat="43.56609820050576" lon="10.76235848386169"><ele>65.5</ele><time>2026-04-18T07:52:10.001Z</time></trkpt><trkpt lat="43.566069660581626" lon="10.762460185059885"><ele>62.66666666666667</ele><time>2026-04-18T07:52:11.001Z</time></trkpt><trkpt lat="43.56605126665658" lon="10.762572386007143"><ele>59.833333333333336</ele><time>2026-04-18T07:52:12.001Z</time></trkpt><trkpt lat="43.56604294321307" lon="10.762679372406671"><ele>57.0</ele><time>2026-04-18T07:52:13.001Z</time></trkpt><trkpt lat="43.56603208735019" lon="10.762800775751325"><ele>57.0</ele><time>2026-04-18T07:52:14.001Z</time></trkpt><trkpt lat="43.566028396637805" lon="10.762919571951764"><ele>57.0</ele><time>2026-04-18T07:52:15.001Z</time></trkpt><trkpt lat="43.566032182523955" lon="10.76305257578586"><ele>57.0</ele><time>2026-04-18T07:52:16.001Z</time></trkpt><trkpt lat="43.566038477614875" lon="10.763188214724519"><ele>57.0</ele><time>2026-04-18T07:52:17.001Z</time></trkpt><trkpt lat="43.56604371152574" lon="10.763295021716523"><ele>57.0</ele><time>2026-04-18T07:52:18.001Z</time></trkpt><trkpt lat="43.566048807611466" lon="10.763391468599599"><ele>57.0</ele><time>2026-04-18T07:52:19.001Z</time></trkpt><trkpt lat="43.56605317212583" lon="10.763517422568913"><ele>57.2</ele><time>2026-04-18T07:52:20.001Z</time></trkpt><trkpt lat="43.56606143074148" lon="10.763646205401246"><ele>57.400000000000006</ele><time>2026-04-18T07:52:21.001Z</time></trkpt><trkpt lat="43.56607090297129" lon="10.763792960857325"><ele>57.599999999999994</ele><time>2026-04-18T07:52:22.001Z</time></trkpt><trkpt lat="43.56607846736424" lon="10.763954557923885"><ele>57.8</ele><time>2026-04-18T07:52:23.001Z</time></trkpt><trkpt lat="43.566087014969824" lon="10.764106552270395"><ele>58.0</ele><time>2026-04-18T07:52:24.001Z</time></trkpt><trkpt lat="43.56609163966551" lon="10.764219407848065"><ele>57.99999999999999</ele><time>2026-04-18T07:52:25.001Z</time></trkpt><trkpt lat="43.56609786415159" lon="10.764309046299605"><ele>58.0</ele><time>2026-04-18T07:52:26.001Z</time></trkpt><trkpt lat="43.56611155906051" lon="10.764400181613771"><ele>58.0</ele><time>2026-04-18T07:52:27.001Z</time></trkpt><trkpt lat="43.56613572170314" lon="10.76451231288213"><ele>58.0</ele><time>2026-04-18T07:52:28.001Z</time></trkpt><trkpt lat="43.566161404438475" lon="10.76463596320073"><ele>57.99999999999999</ele><time>2026-04-18T07:52:29.001Z</time></trkpt><trkpt lat="43.56618268220455" lon="10.764759626048551"><ele>58.0</ele><time>2026-04-18T07:52:30.001Z</time></trkpt><trkpt lat="43.56620223331134" lon="10.764883530073986"><ele>61.2</ele><time>2026-04-18T07:52:31.001Z</time></trkpt><trkpt lat="43.566228706231094" lon="10.765013397721207"><ele>64.4</ele><time>2026-04-18T07:52:32.001Z</time></trkpt><trkpt lat="43.56626105228965" lon="10.765135749940644"><ele>67.60000000000001</ele><time>2026-04-18T07:52:33.001Z</time></trkpt><trkpt lat="43.56630015779826" lon="10.765253210136407"><ele>70.8</ele><time>2026-04-18T07:52:34.001Z</time></trkpt><trkpt lat="43.56633259645257" lon="10.765395955890074"><ele>74.0</ele><time>2026-04-18T07:52:35.001Z</time></trkpt><trkpt lat="43.566356632101595" lon="10.76554530399748"><ele>74.0</ele><time>2026-04-18T07:52:36.001Z</time></trkpt><trkpt lat="43.56637165998108" lon="10.765692477270566"><ele>74.0</ele><time>2026-04-18T07:52:37.001Z</time></trkpt><trkpt lat="43.56637785088258" lon="10.765823352143984"><ele>74.0</ele><time>2026-04-18T07:52:38.001Z</time></trkpt><trkpt lat="43.56637754104546" lon="10.765964552231585"><ele>74.0</ele><time>2026-04-18T07:52:39.001Z</time></trkpt><trkpt lat="43.56637873082785" lon="10.766113342747776"><ele>74.0</ele><time>2026-04-18T07:52:40.001Z</time></trkpt><trkpt lat="43.56638144845115" lon="10.76625615256964"><ele>73.8</ele><time>2026-04-18T07:52:41.001Z</time></trkpt><trkpt lat="43.566381999135096" lon="10.766396768055055"><ele>73.60000000000001</ele><time>2026-04-18T07:52:42.001Z</time></trkpt><trkpt lat="43.56638434539141" lon="10.766541012181152"><ele>73.4</ele><time>2026-04-18T07:52:43.001Z</time></trkpt><trkpt lat="43.566385623092636" lon="10.766688682489573"><ele>73.2</ele><time>2026-04-18T07:52:44.001Z</time></trkpt><trkpt lat="43.56638364030954" lon="10.766839840067721"><ele>73.0</ele><time>2026-04-18T07:52:45.001Z</time></trkpt><trkpt lat="43.56638337262092" lon="10.76699268875618"><ele>73.0</ele><time>2026-04-18T07:52:46.001Z</time></trkpt><trkpt lat="43.56638023075877" lon="10.767132178973945"><ele>73.0</ele><time>2026-04-18T07:52:47.001Z</time></trkpt><trkpt lat="43.56637812147147" lon="10.767262467394628"><ele>73.0</ele><time>2026-04-18T07:52:48.001Z</time></trkpt><trkpt lat="43.566375470858794" lon="10.767396042289601"><ele>73.0</ele><time>2026-04-18T07:52:49.001Z</time></trkpt><trkpt lat="43.56637551411405" lon="10.767534559207068"><ele>73.0</ele><time>2026-04-18T07:52:50.001Z</time></trkpt><trkpt lat="43.56637628706759" lon="10.767662557276978"><ele>73.5</ele><time>2026-04-18T07:52:51.001Z</time></trkpt><trkpt lat="43.56637593516592" lon="10.767784235514668"><ele>74.0</ele><time>2026-04-18T07:52:52.001Z</time></trkpt><trkpt lat="43.56637482938998" lon="10.767900591601038"><ele>74.5</ele><time>2026-04-18T07:52:53.001Z</time></trkpt><trkpt lat="43.56638219224951" lon="10.768009897495727"><ele>75.0</ele><time>2026-04-18T07:52:54.001Z</time></trkpt><trkpt lat="43.566399829206084" lon="10.768123121197746"><ele>75.5</ele><time>2026-04-18T07:52:55.001Z</time></trkpt><trkpt lat="43.56642859799277" lon="10.768236260647322"><ele>76.0</ele><time>2026-04-18T07:52:56.001Z</time></trkpt><trkpt lat="43.566468587822214" lon="10.768348261216346"><ele>76.0</ele><time>2026-04-18T07:52:57.001Z</time></trkpt><trkpt lat="43.566508675344146" lon="10.768449316918364"><ele>76.0</ele><time>2026-04-18T07:52:58.001Z</time></trkpt><trkpt lat="43.56653846427432" lon="10.768557169066437"><ele>76.0</ele><time>2026-04-18T07:52:59.001Z</time></trkpt><trkpt lat="43.56655561339442" lon="10.768673668668727"><ele>76.0</ele><time>2026-04-18T07:53:00.001Z</time></trkpt><trkpt lat="43.566557032933915" lon="10.768788518540946"><ele>76.0</ele><time>2026-04-18T07:53:01.001Z</time></trkpt><trkpt lat="43.56655645076976" lon="10.768914722199785"><ele>76.0</ele><time>2026-04-18T07:53:02.001Z</time></trkpt><trkpt lat="43.566564497554815" lon="10.769049620734522"><ele>75.33333333333333</ele><time>2026-04-18T07:53:03.001Z</time></trkpt><trkpt lat="43.56657495190289" lon="10.769177324319875"><ele>74.66666666666666</ele><time>2026-04-18T07:53:04.002Z</time></trkpt><trkpt lat="43.56658292522568" lon="10.769302031648278"><ele>74.0</ele><time>2026-04-18T07:53:05.002Z</time></trkpt><trkpt lat="43.56658969896757" lon="10.769412273493508"><ele>73.33333333333333</ele><time>2026-04-18T07:53:06.002Z</time></trkpt><trkpt lat="43.56659725192604" lon="10.769528443683507"><ele>72.66666666666667</ele><time>2026-04-18T07:53:07.002Z</time></trkpt><trkpt lat="43.56660103776874" lon="10.769657504355221"><ele>72.0</ele><time>2026-04-18T07:53:08.002Z</time></trkpt><trkpt lat="43.56660175236481" lon="10.769769599035827"><ele>71.83333333333333</ele><time>2026-04-18T07:53:09.002Z</time></trkpt><trkpt lat="43.56659565582085" lon="10.76988504629129"><ele>71.66666666666667</ele><time>2026-04-18T07:53:10.002Z</time></trkpt><trkpt lat="43.56657413411458" lon="10.770058907005064"><ele>71.5</ele><time>2026-04-18T07:53:12.002Z</time></trkpt><trkpt lat="43.566558692674285" lon="10.77015594784799"><ele>71.33333333333334</ele><time>2026-04-18T07:53:13.002Z</time></trkpt><trkpt lat="43.566536769741475" lon="10.770252222835392"><ele>71.16666666666667</ele><time>2026-04-18T07:53:14.002Z</time></trkpt><trkpt lat="43.56650510667771" lon="10.77033830863749"><ele>71.0</ele><time>2026-04-18T07:53:15.002Z</time></trkpt><trkpt lat="43.5664519577424" lon="10.770423019701177"><ele>71.0</ele><time>2026-04-18T07:53:17.002Z</time></trkpt><trkpt lat="43.56648300549469" lon="10.770337937128897"><ele>71.0</ele><time>2026-04-18T07:54:08.001Z</time></trkpt><trkpt lat="43.56652768180885" lon="10.770247524623544"><ele>71.0</ele><time>2026-04-18T07:54:10.001Z</time></trkpt><trkpt lat="43.566548610662146" lon="10.770143043909055"><ele>71.0</ele><time>2026-04-18T07:54:13.001Z</time></trkpt><trkpt lat="43.566559019545736" lon="10.770053556090748"><ele>71.0</ele><time>2026-04-18T07:54:16.001Z</time></trkpt><trkpt lat="43.56657214589081" lon="10.769923587577944"><ele>71.0</ele><time>2026-04-18T07:54:18.001Z</time></trkpt><trkpt lat="43.566580760987854" lon="10.76975580306752"><ele>71.0</ele><time>2026-04-18T07:54:20.001Z</time></trkpt><trkpt lat="43.56658317143804" lon="10.769659922637667"><ele>71.0</ele><time>2026-04-18T07:54:21.001Z</time></trkpt><trkpt lat="43.56658506008643" lon="10.769538657401005"><ele>71.0</ele><time>2026-04-18T07:54:22.001Z</time></trkpt><trkpt lat="43.56658455567041" lon="10.769427700714955"><ele>71.0</ele><time>2026-04-18T07:54:23.001Z</time></trkpt><trkpt lat="43.566579635452705" lon="10.769338412619401"><ele>71.0</ele><time>2026-04-18T07:54:24.001Z</time></trkpt><trkpt lat="43.56655954170429" lon="10.769193268196622"><ele>71.0</ele><time>2026-04-18T07:54:26.001Z</time></trkpt><trkpt lat="43.566552038882435" lon="10.769063682102912"><ele>71.16666666666667</ele><time>2026-04-18T07:54:28.001Z</time></trkpt><trkpt lat="43.56654400530123" lon="10.768928059431104"><ele>71.33333333333334</ele><time>2026-04-18T07:54:30.001Z</time></trkpt><trkpt lat="43.56653590608059" lon="10.768820571176322"><ele>71.5</ele><time>2026-04-18T07:54:32.001Z</time></trkpt><trkpt lat="43.56653222891774" lon="10.768730702609874"><ele>71.66666666666667</ele><time>2026-04-18T07:54:34.001Z</time></trkpt><trkpt lat="43.56652165883365" lon="10.768607262478367"><ele>71.83333333333333</ele><time>2026-04-18T07:54:36.001Z</time></trkpt><trkpt lat="43.56649787869584" lon="10.7684570492613"><ele>72.0</ele><time>2026-04-18T07:54:39.001Z</time></trkpt><trkpt lat="43.566461982646025" lon="10.76833852353335"><ele>72.66666666666667</ele><time>2026-04-18T07:54:41.001Z</time></trkpt><trkpt lat="43.5664275955319" lon="10.76824295424727"><ele>73.33333333333333</ele><time>2026-04-18T07:54:43.001Z</time></trkpt><trkpt lat="43.56639206570084" lon="10.768117634609073"><ele>74.0</ele><time>2026-04-18T07:54:45.001Z</time></trkpt><trkpt lat="43.56637330780226" lon="10.768015349424916"><ele>74.66666666666666</ele><time>2026-04-18T07:54:47.001Z</time></trkpt><trkpt lat="43.56638578152176" lon="10.767926424290714"><ele>75.33333333333333</ele><time>2026-04-18T07:54:51.001Z</time></trkpt><trkpt lat="43.56644815711843" lon="10.767963158771323"><ele>76.0</ele><time>2026-04-18T07:54:54.001Z</time></trkpt><trkpt lat="43.56647116907001" lon="10.768051170636959"><ele>76.0</ele><time>2026-04-18T07:54:55.001Z</time></trkpt><trkpt lat="43.56646884433255" lon="10.768156107977147"><ele>76.0</ele><time>2026-04-18T07:54:56.001Z</time></trkpt><trkpt lat="43.56651662549298" lon="10.768286202373469"><ele>76.0</ele><time>2026-04-18T07:54:58.001Z</time></trkpt><trkpt lat="43.56657587443378" lon="10.768380340481274"><ele>76.0</ele><time>2026-04-18T07:55:00.001Z</time></trkpt><trkpt lat="43.56663975821133" lon="10.768472590831667"><ele>76.0</ele><time>2026-04-18T07:55:03.001Z</time></trkpt><trkpt lat="43.56671624317147" lon="10.76858704921412"><ele>75.2</ele><time>2026-04-18T07:55:05.001Z</time></trkpt><trkpt lat="43.56679570309862" lon="10.768716713947951"><ele>74.39999999999999</ele><time>2026-04-18T07:55:07.001Z</time></trkpt><trkpt lat="43.5668279151238" lon="10.768791455841097"><ele>73.6</ele><time>2026-04-18T07:55:08.001Z</time></trkpt><trkpt lat="43.566853823307035" lon="10.768954291925821"><ele>72.8</ele><time>2026-04-18T07:55:10.002Z</time></trkpt><trkpt lat="43.56688807693964" lon="10.769027274152641"><ele>72.0</ele><time>2026-04-18T07:55:11.002Z</time></trkpt><trkpt lat="43.566972108365256" lon="10.76910453358013"><ele>76.6</ele><time>2026-04-18T07:55:13.002Z</time></trkpt><trkpt lat="43.56709555897731" lon="10.76912929920429"><ele>81.2</ele><time>2026-04-18T07:55:15.002Z</time></trkpt><trkpt lat="43.56713878293529" lon="10.769207963218175"><ele>85.8</ele><time>2026-04-18T07:55:16.002Z</time></trkpt><trkpt lat="43.56717351675204" lon="10.769320003838649"><ele>90.4</ele><time>2026-04-18T07:55:18.002Z</time></trkpt><trkpt lat="43.56726900709387" lon="10.769387417640617"><ele>95.0</ele><time>2026-04-18T07:55:22.002Z</time></trkpt><trkpt lat="43.567332304045614" lon="10.7694015727761"><ele>95.0</ele><time>2026-04-18T07:55:23.002Z</time></trkpt><trkpt lat="43.5674426966283" lon="10.769405236901218"><ele>95.0</ele><time>2026-04-18T07:55:25.002Z</time></trkpt><trkpt lat="43.56750771372345" lon="10.769401700498749"><ele>95.0</ele><time>2026-04-18T07:55:26.002Z</time></trkpt><trkpt lat="43.567573306004384" lon="10.769384004178873"><ele>95.0</ele><time>2026-04-18T07:55:27.002Z</time></trkpt><trkpt lat="43.56769434226321" lon="10.769355072464677"><ele>95.0</ele><time>2026-04-18T07:55:29.002Z</time></trkpt><trkpt lat="43.567819347161695" lon="10.769357768666131"><ele>98.0</ele><time>2026-04-18T07:55:31.002Z</time></trkpt><trkpt lat="43.567912225103555" lon="10.769424429956784"><ele>101.0</ele><time>2026-04-18T07:55:33.002Z</time></trkpt><trkpt lat="43.56802983726145" lon="10.769466439158661"><ele>104.0</ele><time>2026-04-18T07:55:35.002Z</time></trkpt><trkpt lat="43.568097234739255" lon="10.769466001066993"><ele>107.0</ele><time>2026-04-18T07:55:36.002Z</time></trkpt><trkpt lat="43.56816179972067" lon="10.769510665806926"><ele>109.99999999999999</ele><time>2026-04-18T07:55:37.002Z</time></trkpt><trkpt lat="43.56822115749203" lon="10.769542621680884"><ele>113.0</ele><time>2026-04-18T07:55:38.002Z</time></trkpt><trkpt lat="43.56832415590758" lon="10.769660012392762"><ele>112.99999999999999</ele><time>2026-04-18T07:55:40.002Z</time></trkpt><trkpt lat="43.568383034516394" lon="10.769724087940899"><ele>113.0</ele><time>2026-04-18T07:55:42.002Z</time></trkpt><trkpt lat="43.56841252814115" lon="10.76981725115613"><ele>113.0</ele><time>2026-04-18T07:55:45.002Z</time></trkpt><trkpt lat="43.568374016671264" lon="10.769932472266031"><ele>113.0</ele><time>2026-04-18T07:55:47.002Z</time></trkpt><trkpt lat="43.56832594439886" lon="10.77003589305519"><ele>112.99999999999999</ele><time>2026-04-18T07:55:49Z</time></trkpt><trkpt lat="43.56826346743488" lon="10.7701597552141"><ele>113.0</ele><time>2026-04-18T07:55:51Z</time></trkpt><trkpt lat="43.56821119698026" lon="10.770290173048789"><ele>114.2</ele><time>2026-04-18T07:55:53Z</time></trkpt><trkpt lat="43.56818478450711" lon="10.770375071119668"><ele>115.4</ele><time>2026-04-18T07:55:54Z</time></trkpt><trkpt lat="43.568120199173414" lon="10.770532547351301"><ele>116.60000000000001</ele><time>2026-04-18T07:55:56Z</time></trkpt><trkpt lat="43.568051111752446" lon="10.770645287096617"><ele>117.80000000000001</ele><time>2026-04-18T07:55:58Z</time></trkpt><trkpt lat="43.5680027934144" lon="10.770777885702609"><ele>119.0</ele><time>2026-04-18T07:56:00Z</time></trkpt><trkpt lat="43.56792202388182" lon="10.770899066777586"><ele>118.16666666666666</ele><time>2026-04-18T07:56:02Z</time></trkpt><trkpt lat="43.567877094454225" lon="10.771054105263962"><ele>117.33333333333333</ele><time>2026-04-18T07:56:04Z</time></trkpt><trkpt lat="43.56785117627211" lon="10.771135807421246"><ele>116.5</ele><time>2026-04-18T07:56:05Z</time></trkpt><trkpt lat="43.56782349285958" lon="10.771235157218348"><ele>115.66666666666666</ele><time>2026-04-18T07:56:06Z</time></trkpt><trkpt lat="43.567792051059556" lon="10.771316729067522"><ele>114.83333333333333</ele><time>2026-04-18T07:56:07Z</time></trkpt><trkpt lat="43.56777251020343" lon="10.771415845581402"><ele>114.0</ele><time>2026-04-18T07:56:08Z</time></trkpt><trkpt lat="43.56775401941721" lon="10.77152105117562"><ele>114.0</ele><time>2026-04-18T07:56:09Z</time></trkpt><trkpt lat="43.567746716873295" lon="10.77161655562926"><ele>114.0</ele><time>2026-04-18T07:56:10Z</time></trkpt><trkpt lat="43.56770822814788" lon="10.771747620148652"><ele>114.0</ele><time>2026-04-18T07:56:12Z</time></trkpt><trkpt lat="43.567703488645954" lon="10.771892403566346"><ele>114.0</ele><time>2026-04-18T07:56:14Z</time></trkpt><trkpt lat="43.567781350410975" lon="10.772059131658718"><ele>114.0</ele><time>2026-04-18T07:56:16Z</time></trkpt><trkpt lat="43.56783552921853" lon="10.772189101308394"><ele>115.4</ele><time>2026-04-18T07:56:17Z</time></trkpt><trkpt lat="43.56788041007433" lon="10.772289037304976"><ele>116.80000000000001</ele><time>2026-04-18T07:56:18Z</time></trkpt><trkpt lat="43.56793660250752" lon="10.772416662947732"><ele>118.19999999999999</ele><time>2026-04-18T07:56:20Z</time></trkpt><trkpt lat="43.567964356135725" lon="10.772551646537375"><ele>119.6</ele><time>2026-04-18T07:56:22Z</time></trkpt><trkpt lat="43.567964155683015" lon="10.772682815060673"><ele>121.0</ele><time>2026-04-18T07:56:24Z</time></trkpt><trkpt lat="43.56798124668386" lon="10.772828955768869"><ele>121.19999999999999</ele><time>2026-04-18T07:56:26Z</time></trkpt><trkpt lat="43.56805922137756" lon="10.772948807367035"><ele>121.39999999999999</ele><time>2026-04-18T07:56:28Z</time></trkpt><trkpt lat="43.568091898842525" lon="10.773112895919024"><ele>121.6</ele><time>2026-04-18T07:56:30Z</time></trkpt><trkpt lat="43.56809906425497" lon="10.77320540942662"><ele>121.8</ele><time>2026-04-18T07:56:31Z</time></trkpt><trkpt lat="43.568101000947074" lon="10.773304491018825"><ele>122.0</ele><time>2026-04-18T07:56:32.001Z</time></trkpt><trkpt lat="43.56806786863914" lon="10.77346057621255"><ele>122.8</ele><time>2026-04-18T07:56:34.001Z</time></trkpt><trkpt lat="43.56809835711179" lon="10.773639830203168"><ele>123.6</ele><time>2026-04-18T07:56:36.001Z</time></trkpt><trkpt lat="43.56814031857288" lon="10.773752191968173"><ele>124.39999999999999</ele><time>2026-04-18T07:56:37.001Z</time></trkpt><trkpt lat="43.56818397621969" lon="10.773858388123157"><ele>125.19999999999999</ele><time>2026-04-18T07:56:38.001Z</time></trkpt><trkpt lat="43.56822814064556" lon="10.773976396522935"><ele>126.0</ele><time>2026-04-18T07:56:39.001Z</time></trkpt><trkpt lat="43.56826799087202" lon="10.774104821941576"><ele>126.0</ele><time>2026-04-18T07:56:40.001Z</time></trkpt><trkpt lat="43.5683082084107" lon="10.774221217936535"><ele>126.0</ele><time>2026-04-18T07:56:41.001Z</time></trkpt><trkpt lat="43.56834579961079" lon="10.774335345148442"><ele>126.0</ele><time>2026-04-18T07:56:42.001Z</time></trkpt><trkpt lat="43.56837721691069" lon="10.774444802939877"><ele>126.0</ele><time>2026-04-18T07:56:43.001Z</time></trkpt><trkpt lat="43.568406274962854" lon="10.774553688690897"><ele>126.0</ele><time>2026-04-18T07:56:44.001Z</time></trkpt><trkpt lat="43.5684324625826" lon="10.774669675741203"><ele>126.0</ele><time>2026-04-18T07:56:45.001Z</time></trkpt><trkpt lat="43.568459186286674" lon="10.774801132345424"><ele>125.6</ele><time>2026-04-18T07:56:46.001Z</time></trkpt><trkpt lat="43.56847909949743" lon="10.774932186792254"><ele>125.19999999999999</ele><time>2026-04-18T07:56:47.001Z</time></trkpt><trkpt lat="43.56848725071167" lon="10.775042053460176"><ele>124.80000000000001</ele><time>2026-04-18T07:56:48.001Z</time></trkpt><trkpt lat="43.56849971060978" lon="10.775165729694269"><ele>124.4</ele><time>2026-04-18T07:56:49.001Z</time></trkpt><trkpt lat="43.56851601849784" lon="10.775289507463633"><ele>124.0</ele><time>2026-04-18T07:56:50.001Z</time></trkpt><trkpt lat="43.568532935152696" lon="10.775416041173221"><ele>122.0</ele><time>2026-04-18T07:56:51.001Z</time></trkpt><trkpt lat="43.568548671019876" lon="10.775539100455251"><ele>120.0</ele><time>2026-04-18T07:56:52.001Z</time></trkpt><trkpt lat="43.56857099700584" lon="10.775659983241134"><ele>118.0</ele><time>2026-04-18T07:56:53.001Z</time></trkpt><trkpt lat="43.56859149040681" lon="10.775796309465699"><ele>116.0</ele><time>2026-04-18T07:56:54.001Z</time></trkpt><trkpt lat="43.56861014831068" lon="10.775935786331974"><ele>114.0</ele><time>2026-04-18T07:56:55.001Z</time></trkpt><trkpt lat="43.56862982414792" lon="10.776086361812588"><ele>114.4</ele><time>2026-04-18T07:56:56.001Z</time></trkpt><trkpt lat="43.56865208876468" lon="10.776243035064583"><ele>114.80000000000001</ele><time>2026-04-18T07:56:57.001Z</time></trkpt><trkpt lat="43.56867452049603" lon="10.776398650532775"><ele>115.19999999999999</ele><time>2026-04-18T07:56:58.001Z</time></trkpt><trkpt lat="43.5686927793435" lon="10.776537497123362"><ele>115.6</ele><time>2026-04-18T07:56:59.001Z</time></trkpt><trkpt lat="43.5687062564546" lon="10.776676032309535"><ele>116.0</ele><time>2026-04-18T07:57:00.001Z</time></trkpt><trkpt lat="43.56872355797583" lon="10.776812460490255"><ele>116.16666666666666</ele><time>2026-04-18T07:57:01.001Z</time></trkpt><trkpt lat="43.56873873584971" lon="10.776932194725937"><ele>116.33333333333333</ele><time>2026-04-18T07:57:02.001Z</time></trkpt><trkpt lat="43.568757909410024" lon="10.777042943276482"><ele>116.5</ele><time>2026-04-18T07:57:03.001Z</time></trkpt><trkpt lat="43.568782334368215" lon="10.77715385101664"><ele>116.66666666666666</ele><time>2026-04-18T07:57:04.001Z</time></trkpt><trkpt lat="43.56880864013978" lon="10.777259658922258"><ele>116.83333333333333</ele><time>2026-04-18T07:57:05.001Z</time></trkpt><trkpt lat="43.568829125654815" lon="10.77737550518408"><ele>117.0</ele><time>2026-04-18T07:57:06.001Z</time></trkpt><trkpt lat="43.568845538839284" lon="10.777501569403862"><ele>117.0</ele><time>2026-04-18T07:57:07.001Z</time></trkpt><trkpt lat="43.56886370467538" lon="10.777627249391314"><ele>117.0</ele><time>2026-04-18T07:57:08.001Z</time></trkpt><trkpt lat="43.568871723970155" lon="10.77773191822548"><ele>117.0</ele><time>2026-04-18T07:57:09.001Z</time></trkpt><trkpt lat="43.568864070571635" lon="10.777823945057946"><ele>117.0</ele><time>2026-04-18T07:57:10.001Z</time></trkpt><trkpt lat="43.56884388447656" lon="10.777947422243296"><ele>117.0</ele><time>2026-04-18T07:57:11.001Z</time></trkpt><trkpt lat="43.568822072073594" lon="10.778077328223276"><ele>117.0</ele><time>2026-04-18T07:57:12.001Z</time></trkpt><trkpt lat="43.56879400309116" lon="10.778183915724528"><ele>116.66666666666667</ele><time>2026-04-18T07:57:13.001Z</time></trkpt><trkpt lat="43.5687497790979" lon="10.77826720584484"><ele>116.33333333333334</ele><time>2026-04-18T07:57:14.001Z</time></trkpt><trkpt lat="43.56870756594796" lon="10.778365604086229"><ele>116.0</ele><time>2026-04-18T07:57:15.001Z</time></trkpt><trkpt lat="43.56865941776703" lon="10.778462454148373"><ele>115.66666666666667</ele><time>2026-04-18T07:57:16.001Z</time></trkpt><trkpt lat="43.568593124258854" lon="10.77855008887429"><ele>115.33333333333334</ele><time>2026-04-18T07:57:17.001Z</time></trkpt><trkpt lat="43.5685172465438" lon="10.778635135261105"><ele>115.0</ele><time>2026-04-18T07:57:18.001Z</time></trkpt><trkpt lat="43.568431897004686" lon="10.778734178798496"><ele>116.0</ele><time>2026-04-18T07:57:19.001Z</time></trkpt><trkpt lat="43.56834609139643" lon="10.77883043477212"><ele>117.0</ele><time>2026-04-18T07:57:20.001Z</time></trkpt><trkpt lat="43.56826340700624" lon="10.778927525755316"><ele>118.0</ele><time>2026-04-18T07:57:21.001Z</time></trkpt><trkpt lat="43.568180231958166" lon="10.77901263274299"><ele>119.0</ele><time>2026-04-18T07:57:22.001Z</time></trkpt><trkpt lat="43.56809874542793" lon="10.779098214285067"><ele>120.0</ele><time>2026-04-18T07:57:23.001Z</time></trkpt><trkpt lat="43.56803552488708" lon="10.779192666760794"><ele>120.0</ele><time>2026-04-18T07:57:24.001Z</time></trkpt><trkpt lat="43.56799211354117" lon="10.779293639706617"><ele>120.0</ele><time>2026-04-18T07:57:25.001Z</time></trkpt><trkpt lat="43.56796976786991" lon="10.779375587697235"><ele>120.0</ele><time>2026-04-18T07:57:26.001Z</time></trkpt><trkpt lat="43.56795093552434" lon="10.779548326366633"><ele>120.0</ele><time>2026-04-18T07:57:28.001Z</time></trkpt><trkpt lat="43.567932653862265" lon="10.779638560132215"><ele>120.0</ele><time>2026-04-18T07:57:29.001Z</time></trkpt><trkpt lat="43.56789327353978" lon="10.779726206742623"><ele>120.0</ele><time>2026-04-18T07:57:30.002Z</time></trkpt><trkpt lat="43.56784241882389" lon="10.779822572521665"><ele>119.83333333333333</ele><time>2026-04-18T07:57:31.002Z</time></trkpt><trkpt lat="43.56780290574756" lon="10.77991199016156"><ele>119.66666666666666</ele><time>2026-04-18T07:57:32.002Z</time></trkpt><trkpt lat="43.56778079237372" lon="10.780049577856104"><ele>119.5</ele><time>2026-04-18T07:57:34.002Z</time></trkpt><trkpt lat="43.567777542653324" lon="10.780209503565565"><ele>119.33333333333333</ele><time>2026-04-18T07:57:36.002Z</time></trkpt><trkpt lat="43.56776122742996" lon="10.780310255710958"><ele>119.16666666666666</ele><time>2026-04-18T07:57:37.002Z</time></trkpt><trkpt lat="43.56774766744419" lon="10.780405826113467"><ele>119.0</ele><time>2026-04-18T07:57:38.002Z</time></trkpt><trkpt lat="43.56772867062652" lon="10.78050561306575"><ele>118.99999999999999</ele><time>2026-04-18T07:57:39.002Z</time></trkpt><trkpt lat="43.567712502173805" lon="10.780609302139364"><ele>119.0</ele><time>2026-04-18T07:57:40.002Z</time></trkpt><trkpt lat="43.56768887128808" lon="10.780731068712889"><ele>119.0</ele><time>2026-04-18T07:57:41.002Z</time></trkpt><trkpt lat="43.56765945683466" lon="10.780837422712453"><ele>119.0</ele><time>2026-04-18T07:57:42.002Z</time></trkpt><trkpt lat="43.56764141650734" lon="10.780939102729922"><ele>118.99999999999999</ele><time>2026-04-18T07:57:43.002Z</time></trkpt><trkpt lat="43.56762736534182" lon="10.781043423852866"><ele>119.0</ele><time>2026-04-18T07:57:44.002Z</time></trkpt><trkpt lat="43.56762183705525" lon="10.781186471182272"><ele>119.6</ele><time>2026-04-18T07:57:46.002Z</time></trkpt><trkpt lat="43.56760442999106" lon="10.78134418905249"><ele>120.2</ele><time>2026-04-18T07:57:48.002Z</time></trkpt><trkpt lat="43.567589258235174" lon="10.781491430059086"><ele>120.79999999999998</ele><time>2026-04-18T07:57:50.002Z</time></trkpt><trkpt lat="43.56752663155908" lon="10.781629105683626"><ele>121.39999999999999</ele><time>2026-04-18T07:57:53.002Z</time></trkpt><trkpt lat="43.56746733609065" lon="10.781724743588157"><ele>122.0</ele><time>2026-04-18T07:57:54.002Z</time></trkpt><trkpt lat="43.56740152177491" lon="10.781810786758781"><ele>121.49999999999999</ele><time>2026-04-18T07:57:55Z</time></trkpt><trkpt lat="43.567326395033234" lon="10.781898112559473"><ele>121.0</ele><time>2026-04-18T07:57:56Z</time></trkpt><trkpt lat="43.567262444603095" lon="10.781975884258758"><ele>120.5</ele><time>2026-04-18T07:57:57Z</time></trkpt><trkpt lat="43.567217621625815" lon="10.782043013464762"><ele>120.0</ele><time>2026-04-18T07:57:58Z</time></trkpt><trkpt lat="43.567165538451555" lon="10.782130753430971"><ele>119.49999999999999</ele><time>2026-04-18T07:57:59Z</time></trkpt><trkpt lat="43.56712793073429" lon="10.78223356800897"><ele>119.0</ele><time>2026-04-18T07:58:00Z</time></trkpt><trkpt lat="43.567089683188534" lon="10.782348484735722"><ele>119.0</ele><time>2026-04-18T07:58:01Z</time></trkpt><trkpt lat="43.56705035980376" lon="10.782469778936171"><ele>119.0</ele><time>2026-04-18T07:58:02Z</time></trkpt><trkpt lat="43.5670115423765" lon="10.782582341061484"><ele>119.0</ele><time>2026-04-18T07:58:03Z</time></trkpt><trkpt lat="43.566979321083856" lon="10.782699941769106"><ele>119.0</ele><time>2026-04-18T07:58:04Z</time></trkpt><trkpt lat="43.56694132062121" lon="10.78282990217636"><ele>119.0</ele><time>2026-04-18T07:58:05Z</time></trkpt><trkpt lat="43.56690317327683" lon="10.782963510261235"><ele>120.6</ele><time>2026-04-18T07:58:06Z</time></trkpt><trkpt lat="43.56686249871284" lon="10.78309904631737"><ele>122.2</ele><time>2026-04-18T07:58:07Z</time></trkpt><trkpt lat="43.56682212843458" lon="10.783226552726877"><ele>123.79999999999998</ele><time>2026-04-18T07:58:08Z</time></trkpt><trkpt lat="43.56678261417989" lon="10.7833514467587"><ele>125.39999999999999</ele><time>2026-04-18T07:58:09Z</time></trkpt><trkpt lat="43.566751180100724" lon="10.783459315978503"><ele>127.0</ele><time>2026-04-18T07:58:10Z</time></trkpt><trkpt lat="43.56672274490329" lon="10.783553891549113"><ele>127.39999999999999</ele><time>2026-04-18T07:58:11Z</time></trkpt><trkpt lat="43.56669372353339" lon="10.783658586147578"><ele>127.79999999999998</ele><time>2026-04-18T07:58:12Z</time></trkpt><trkpt lat="43.566659828527634" lon="10.783772168455704"><ele>128.2</ele><time>2026-04-18T07:58:13Z</time></trkpt><trkpt lat="43.56661448084304" lon="10.78388113645186"><ele>128.6</ele><time>2026-04-18T07:58:14Z</time></trkpt><trkpt lat="43.56656019273665" lon="10.783989322916792"><ele>129.0</ele><time>2026-04-18T07:58:15Z</time></trkpt><trkpt lat="43.566503503219735" lon="10.784095710622948"><ele>129.0</ele><time>2026-04-18T07:58:16Z</time></trkpt><trkpt lat="43.56645533162109" lon="10.784207222642502"><ele>129.0</ele><time>2026-04-18T07:58:17Z</time></trkpt><trkpt lat="43.566402499132764" lon="10.784318331484686"><ele>129.0</ele><time>2026-04-18T07:58:18Z</time></trkpt><trkpt lat="43.56635264606304" lon="10.784411691771636"><ele>129.0</ele><time>2026-04-18T07:58:19Z</time></trkpt><trkpt lat="43.566297711759155" lon="10.784512921049313"><ele>129.0</ele><time>2026-04-18T07:58:20Z</time></trkpt><trkpt lat="43.566237658747156" lon="10.784608879840217"><ele>130.4</ele><time>2026-04-18T07:58:21Z</time></trkpt><trkpt lat="43.56617114635389" lon="10.784684254734719"><ele>131.8</ele><time>2026-04-18T07:58:22Z</time></trkpt><trkpt lat="43.566103848174045" lon="10.784758286166758"><ele>133.2</ele><time>2026-04-18T07:58:23Z</time></trkpt><trkpt lat="43.566040525173655" lon="10.784819765117891"><ele>134.6</ele><time>2026-04-18T07:58:24Z</time></trkpt><trkpt lat="43.5659283022664" lon="10.784892454193482"><ele>136.0</ele><time>2026-04-18T07:58:26Z</time></trkpt><trkpt lat="43.56585086198698" lon="10.78496110534829"><ele>136.0</ele><time>2026-04-18T07:58:28Z</time></trkpt><trkpt lat="43.56582344364589" lon="10.78507963217837"><ele>136.0</ele><time>2026-04-18T07:58:30Z</time></trkpt><trkpt lat="43.565777178868814" lon="10.78525628696914"><ele>136.0</ele><time>2026-04-18T07:58:32Z</time></trkpt><trkpt lat="43.565752558558415" lon="10.785354506286632"><ele>136.0</ele><time>2026-04-18T07:58:33Z</time></trkpt><trkpt lat="43.56573316036937" lon="10.78544844615642"><ele>136.0</ele><time>2026-04-18T07:58:34Z</time></trkpt><trkpt lat="43.56571251808544" lon="10.785541735323633"><ele>136.0</ele><time>2026-04-18T07:58:35Z</time></trkpt><trkpt lat="43.56564372570384" lon="10.785698495146905"><ele>135.83333333333334</ele><time>2026-04-18T07:58:37Z</time></trkpt><trkpt lat="43.565602260481874" lon="10.785803481733547"><ele>135.66666666666669</ele><time>2026-04-18T07:58:38Z</time></trkpt><trkpt lat="43.56556616391017" lon="10.785889525566727"><ele>135.5</ele><time>2026-04-18T07:58:39Z</time></trkpt><trkpt lat="43.56553383626724" lon="10.785967946442202"><ele>135.33333333333334</ele><time>2026-04-18T07:58:40.001Z</time></trkpt><trkpt lat="43.56548291824051" lon="10.78613182390763"><ele>135.16666666666666</ele><time>2026-04-18T07:58:42.001Z</time></trkpt><trkpt lat="43.56546957132104" lon="10.786220262549099"><ele>135.0</ele><time>2026-04-18T07:58:43.001Z</time></trkpt><trkpt lat="43.56545742014813" lon="10.78630772028423"><ele>133.5</ele><time>2026-04-18T07:58:44.001Z</time></trkpt><trkpt lat="43.565438190574945" lon="10.786449642245497"><ele>132.0</ele><time>2026-04-18T07:58:46.001Z</time></trkpt><trkpt lat="43.56541933921239" lon="10.786632736515648"><ele>130.5</ele><time>2026-04-18T07:58:48.001Z</time></trkpt><trkpt lat="43.56528664760926" lon="10.786675254954103"><ele>129.0</ele><time>2026-04-18T07:58:49.001Z</time></trkpt><trkpt lat="43.56524599439726" lon="10.786787173661294"><ele>130.5</ele><time>2026-04-18T07:58:50.001Z</time></trkpt><trkpt lat="43.56512405198625" lon="10.7869097964107"><ele>132.0</ele><time>2026-04-18T07:58:52.001Z</time></trkpt><trkpt lat="43.565004643546075" lon="10.786981070849901"><ele>133.5</ele><time>2026-04-18T07:58:53.001Z</time></trkpt><trkpt lat="43.564909460775574" lon="10.787128416564101"><ele>135.0</ele><time>2026-04-18T07:58:54.001Z</time></trkpt><trkpt lat="43.56486484108617" lon="10.787263263198652"><ele>135.0</ele><time>2026-04-18T07:58:55.001Z</time></trkpt><trkpt lat="43.56487037727523" lon="10.787419614499981"><ele>135.0</ele><time>2026-04-18T07:58:57.001Z</time></trkpt><trkpt lat="43.56484019979768" lon="10.787577982100707"><ele>135.0</ele><time>2026-04-18T07:58:59.001Z</time></trkpt><trkpt lat="43.56483417309913" lon="10.787700783529807"><ele>135.0</ele><time>2026-04-18T07:59:00.001Z</time></trkpt><trkpt lat="43.56481317468502" lon="10.787835159890808"><ele>135.0</ele><time>2026-04-18T07:59:01.001Z</time></trkpt><trkpt lat="43.564785738902486" lon="10.787956202525892"><ele>135.2</ele><time>2026-04-18T07:59:02.001Z</time></trkpt><trkpt lat="43.56474036729784" lon="10.788069112410918"><ele>135.4</ele><time>2026-04-18T07:59:03.001Z</time></trkpt><trkpt lat="43.56468182814636" lon="10.788191840581849"><ele>135.6</ele><time>2026-04-18T07:59:04.001Z</time></trkpt><trkpt lat="43.56463634978301" lon="10.788304484881694"><ele>135.8</ele><time>2026-04-18T07:59:05.001Z</time></trkpt><trkpt lat="43.56458076356237" lon="10.78844193175897"><ele>136.0</ele><time>2026-04-18T07:59:07.001Z</time></trkpt><trkpt lat="43.56455906678308" lon="10.788531964695597"><ele>136.0</ele><time>2026-04-18T07:59:08.001Z</time></trkpt><trkpt lat="43.56454887673581" lon="10.788639872973757"><ele>136.0</ele><time>2026-04-18T07:59:09.001Z</time></trkpt><trkpt lat="43.56455206514431" lon="10.788761259836507"><ele>136.0</ele><time>2026-04-18T07:59:10.001Z</time></trkpt><trkpt lat="43.56457012403964" lon="10.78889744790881"><ele>136.0</ele><time>2026-04-18T07:59:11.001Z</time></trkpt><trkpt lat="43.56458177828542" lon="10.789025110251368"><ele>136.0</ele><time>2026-04-18T07:59:12.001Z</time></trkpt><trkpt lat="43.564558033148934" lon="10.789144980563137"><ele>135.4</ele><time>2026-04-18T07:59:13.001Z</time></trkpt><trkpt lat="43.564522041505185" lon="10.789260761706501"><ele>134.8</ele><time>2026-04-18T07:59:14.001Z</time></trkpt><trkpt lat="43.56447034281988" lon="10.789385344633075"><ele>134.20000000000002</ele><time>2026-04-18T07:59:15.001Z</time></trkpt><trkpt lat="43.564438969015896" lon="10.789537408038608"><ele>133.6</ele><time>2026-04-18T07:59:16.001Z</time></trkpt><trkpt lat="43.564396474107205" lon="10.789652193858906"><ele>133.0</ele><time>2026-04-18T07:59:17.001Z</time></trkpt><trkpt lat="43.56437581998347" lon="10.789752369861132"><ele>133.0</ele><time>2026-04-18T07:59:18.001Z</time></trkpt><trkpt lat="43.56436663911191" lon="10.789862350288981"><ele>133.0</ele><time>2026-04-18T07:59:19.001Z</time></trkpt><trkpt lat="43.56436529306137" lon="10.789973449248883"><ele>133.0</ele><time>2026-04-18T07:59:20.001Z</time></trkpt><trkpt lat="43.5643466644037" lon="10.7900741944704"><ele>133.0</ele><time>2026-04-18T07:59:21.001Z</time></trkpt><trkpt lat="43.56433786664157" lon="10.790187265245027"><ele>133.0</ele><time>2026-04-18T07:59:22.001Z</time></trkpt><trkpt lat="43.564317563178676" lon="10.790309916522245"><ele>133.0</ele><time>2026-04-18T07:59:23.001Z</time></trkpt><trkpt lat="43.56428451010832" lon="10.790433601621391"><ele>133.6</ele><time>2026-04-18T07:59:24.001Z</time></trkpt><trkpt lat="43.56423964484053" lon="10.790566860361693"><ele>134.20000000000002</ele><time>2026-04-18T07:59:25.001Z</time></trkpt><trkpt lat="43.56419163748439" lon="10.790699742535633"><ele>134.8</ele><time>2026-04-18T07:59:26.001Z</time></trkpt><trkpt lat="43.56415497831478" lon="10.790820826798175"><ele>135.4</ele><time>2026-04-18T07:59:27.001Z</time></trkpt><trkpt lat="43.564131153878456" lon="10.79091772655592"><ele>136.0</ele><time>2026-04-18T07:59:28.001Z</time></trkpt><trkpt lat="43.56411407409835" lon="10.791018481387585"><ele>136.0</ele><time>2026-04-18T07:59:29.001Z</time></trkpt><trkpt lat="43.56410840902222" lon="10.791127279777887"><ele>136.0</ele><time>2026-04-18T07:59:30.001Z</time></trkpt><trkpt lat="43.56411986848678" lon="10.791244114013844"><ele>136.0</ele><time>2026-04-18T07:59:31.001Z</time></trkpt><trkpt lat="43.564120567819096" lon="10.79139488081944"><ele>136.0</ele><time>2026-04-18T07:59:32.001Z</time></trkpt><trkpt lat="43.56410687952902" lon="10.791543473534423"><ele>136.0</ele><time>2026-04-18T07:59:33.001Z</time></trkpt><trkpt lat="43.5640854443187" lon="10.791656800541567"><ele>136.0</ele><time>2026-04-18T07:59:34.001Z</time></trkpt><trkpt lat="43.56406632136916" lon="10.791757097786027"><ele>136.0</ele><time>2026-04-18T07:59:35.001Z</time></trkpt><trkpt lat="43.56404841778962" lon="10.791870393573163"><ele>136.0</ele><time>2026-04-18T07:59:36.001Z</time></trkpt><trkpt lat="43.564044910789754" lon="10.791992015657293"><ele>136.0</ele><time>2026-04-18T07:59:37.001Z</time></trkpt><trkpt lat="43.5640554893199" lon="10.792103760572957"><ele>136.0</ele><time>2026-04-18T07:59:38.001Z</time></trkpt><trkpt lat="43.5640826987671" lon="10.792223567923791"><ele>136.0</ele><time>2026-04-18T07:59:39.002Z</time></trkpt><trkpt lat="43.56410159404875" lon="10.79234714847908"><ele>137.4</ele><time>2026-04-18T07:59:40.002Z</time></trkpt><trkpt lat="43.56410446713031" lon="10.792465617920621"><ele>138.8</ele><time>2026-04-18T07:59:41.002Z</time></trkpt><trkpt lat="43.5641246123332" lon="10.792572097713045"><ele>140.20000000000002</ele><time>2026-04-18T07:59:42.002Z</time></trkpt><trkpt lat="43.56411353310312" lon="10.792669491738446"><ele>141.6</ele><time>2026-04-18T07:59:43.002Z</time></trkpt><trkpt lat="43.56413583083708" lon="10.792820883112038"><ele>143.0</ele><time>2026-04-18T07:59:45.002Z</time></trkpt><trkpt lat="43.56418362724635" lon="10.792978142041937"><ele>143.83333333333331</ele><time>2026-04-18T07:59:47.002Z</time></trkpt><trkpt lat="43.56422961584474" lon="10.793083007151928"><ele>144.66666666666666</ele><time>2026-04-18T07:59:48.002Z</time></trkpt><trkpt lat="43.56425577042506" lon="10.793191221616262"><ele>145.5</ele><time>2026-04-18T07:59:49.002Z</time></trkpt><trkpt lat="43.56428117167907" lon="10.793284028441445"><ele>146.33333333333334</ele><time>2026-04-18T07:59:50.002Z</time></trkpt><trkpt lat="43.564315498429984" lon="10.793388698121097"><ele>147.16666666666669</ele><time>2026-04-18T07:59:51.002Z</time></trkpt><trkpt lat="43.564324711184945" lon="10.793486547165408"><ele>148.0</ele><time>2026-04-18T07:59:52.002Z</time></trkpt><trkpt lat="43.56432103256112" lon="10.793590285926417"><ele>148.0</ele><time>2026-04-18T07:59:53.002Z</time></trkpt><trkpt lat="43.56433234492631" lon="10.793695432415149"><ele>148.0</ele><time>2026-04-18T07:59:54.002Z</time></trkpt><trkpt lat="43.564347840984865" lon="10.793804326726043"><ele>148.0</ele><time>2026-04-18T07:59:55.002Z</time></trkpt><trkpt lat="43.56433734929704" lon="10.79389044016353"><ele>148.0</ele><time>2026-04-18T07:59:56.002Z</time></trkpt><trkpt lat="43.56433388900461" lon="10.793999247818691"><ele>148.0</ele><time>2026-04-18T07:59:57.002Z</time></trkpt><trkpt lat="43.56433735521089" lon="10.7941446627475"><ele>148.0</ele><time>2026-04-18T07:59:58.002Z</time></trkpt><trkpt lat="43.564325067687335" lon="10.794286113662606"><ele>148.20000000000002</ele><time>2026-04-18T07:59:59.002Z</time></trkpt><trkpt lat="43.56429429201858" lon="10.794418544985234"><ele>148.4</ele><time>2026-04-18T08:00:00.002Z</time></trkpt><trkpt lat="43.56427647753971" lon="10.794544898286416"><ele>148.60000000000002</ele><time>2026-04-18T08:00:01Z</time></trkpt><trkpt lat="43.56426046333594" lon="10.794676261410093"><ele>148.8</ele><time>2026-04-18T08:00:02Z</time></trkpt><trkpt lat="43.56425258429936" lon="10.79482562469733"><ele>149.0</ele><time>2026-04-18T08:00:03Z</time></trkpt><trkpt lat="43.56423845401953" lon="10.794965132897499"><ele>149.0</ele><time>2026-04-18T08:00:04Z</time></trkpt><trkpt lat="43.564231384986634" lon="10.795073842076572"><ele>149.0</ele><time>2026-04-18T08:00:05Z</time></trkpt><trkpt lat="43.56422693834873" lon="10.795178202486975"><ele>149.0</ele><time>2026-04-18T08:00:06Z</time></trkpt><trkpt lat="43.56420329382644" lon="10.795275594107983"><ele>149.0</ele><time>2026-04-18T08:00:07Z</time></trkpt><trkpt lat="43.564191862597035" lon="10.795388656877847"><ele>149.0</ele><time>2026-04-18T08:00:08Z</time></trkpt><trkpt lat="43.564158088755384" lon="10.795507577928133"><ele>149.0</ele><time>2026-04-18T08:00:09Z</time></trkpt><trkpt lat="43.56411047773053" lon="10.795650165257353"><ele>149.75</ele><time>2026-04-18T08:00:10Z</time></trkpt><trkpt lat="43.5640411049789" lon="10.795803154218332"><ele>150.5</ele><time>2026-04-18T08:00:11Z</time></trkpt><trkpt lat="43.56396502287052" lon="10.7959447393757"><ele>151.25</ele><time>2026-04-18T08:00:12Z</time></trkpt><trkpt lat="43.56390235297987" lon="10.796047591482541"><ele>152.0</ele><time>2026-04-18T08:00:13Z</time></trkpt><trkpt lat="43.56384259987158" lon="10.79614961412095"><ele>152.79999999999998</ele><time>2026-04-18T08:00:14Z</time></trkpt><trkpt lat="43.56379378605009" lon="10.796244497024746"><ele>153.6</ele><time>2026-04-18T08:00:15Z</time></trkpt><trkpt lat="43.563743619097465" lon="10.79633908904208"><ele>154.39999999999998</ele><time>2026-04-18T08:00:16Z</time></trkpt><trkpt lat="43.56370283690653" lon="10.79647033477259"><ele>155.2</ele><time>2026-04-18T08:00:18Z</time></trkpt><trkpt lat="43.56371991978346" lon="10.796571430285237"><ele>156.0</ele><time>2026-04-18T08:00:21Z</time></trkpt><trkpt lat="43.56371483424518" lon="10.796717154375376"><ele>156.0</ele><time>2026-04-18T08:00:23Z</time></trkpt><trkpt lat="43.56372134014735" lon="10.79681595710546"><ele>156.0</ele><time>2026-04-18T08:00:24Z</time></trkpt><trkpt lat="43.563742538270034" lon="10.79694420572571"><ele>156.0</ele><time>2026-04-18T08:00:25Z</time></trkpt><trkpt lat="43.563770125908874" lon="10.797061530580098"><ele>156.0</ele><time>2026-04-18T08:00:26Z</time></trkpt><trkpt lat="43.56380750657272" lon="10.797181829821529"><ele>156.0</ele><time>2026-04-18T08:00:27Z</time></trkpt><trkpt lat="43.56389720885782" lon="10.797347114368128"><ele>159.0</ele><time>2026-04-18T08:00:29Z</time></trkpt><trkpt lat="43.56396116610772" lon="10.797455559958198"><ele>162.0</ele><time>2026-04-18T08:00:30Z</time></trkpt><trkpt lat="43.56409066055094" lon="10.797824760279251"><ele>165.0</ele><time>2026-04-18T08:00:31Z</time></trkpt><trkpt lat="43.56407250751402" lon="10.798082394758595"><ele>166.8</ele><time>2026-04-18T08:00:32Z</time></trkpt><trkpt lat="43.564065225694826" lon="10.798233211762382"><ele>168.6</ele><time>2026-04-18T08:00:33Z</time></trkpt><trkpt lat="43.56403454564117" lon="10.798381108448845"><ele>170.39999999999998</ele><time>2026-04-18T08:00:34Z</time></trkpt><trkpt lat="43.56400908343667" lon="10.798503294685192"><ele>172.2</ele><time>2026-04-18T08:00:35Z</time></trkpt><trkpt lat="43.563983606211046" lon="10.798623539045417"><ele>174.0</ele><time>2026-04-18T08:00:36Z</time></trkpt><trkpt lat="43.56393542377125" lon="10.798757078581563"><ele>175.5</ele><time>2026-04-18T08:00:37Z</time></trkpt><trkpt lat="43.563884927056414" lon="10.798904738830734"><ele>177.0</ele><time>2026-04-18T08:00:39Z</time></trkpt><trkpt lat="43.56363891226276" lon="10.798820659695647"><ele>178.5</ele><time>2026-04-18T08:00:41Z</time></trkpt><trkpt lat="43.563568536963075" lon="10.798816260160942"><ele>180.0</ele><time>2026-04-18T08:00:42Z</time></trkpt><trkpt lat="43.563484850561856" lon="10.798790020107647"><ele>182.25</ele><time>2026-04-18T08:00:43Z</time></trkpt><trkpt lat="43.56339146109919" lon="10.798766506813493"><ele>184.5</ele><time>2026-04-18T08:00:44Z</time></trkpt><trkpt lat="43.56329441909472" lon="10.798762172888138"><ele>186.75</ele><time>2026-04-18T08:00:46Z</time></trkpt><trkpt lat="43.56339520823522" lon="10.798923074384291"><ele>189.0</ele><time>2026-04-18T08:00:58.001Z</time></trkpt><trkpt lat="43.563499913855466" lon="10.798997492719822"><ele>189.0</ele><time>2026-04-18T08:01:00.001Z</time></trkpt><trkpt lat="43.56357293451402" lon="10.799079696084878"><ele>189.0</ele><time>2026-04-18T08:01:01.001Z</time></trkpt><trkpt lat="43.56363471751776" lon="10.799145394625922"><ele>189.0</ele><time>2026-04-18T08:01:02.001Z</time></trkpt><trkpt lat="43.56369148420961" lon="10.799216820796472"><ele>189.0</ele><time>2026-04-18T08:01:03.001Z</time></trkpt><trkpt lat="43.56374629289659" lon="10.79930754658271"><ele>189.0</ele><time>2026-04-18T08:01:04.001Z</time></trkpt><trkpt lat="43.56378315616416" lon="10.799418131430519"><ele>189.0</ele><time>2026-04-18T08:01:05.001Z</time></trkpt><trkpt lat="43.56380866103053" lon="10.799535284402122"><ele>188.33333333333334</ele><time>2026-04-18T08:01:06.001Z</time></trkpt><trkpt lat="43.563836930775224" lon="10.799645984594719"><ele>187.66666666666666</ele><time>2026-04-18T08:01:07.001Z</time></trkpt><trkpt lat="43.56387288324493" lon="10.79973794785306"><ele>187.0</ele><time>2026-04-18T08:01:08.001Z</time></trkpt><trkpt lat="43.5639264119783" lon="10.799819383528716"><ele>186.33333333333331</ele><time>2026-04-18T08:01:09.001Z</time></trkpt><trkpt lat="43.56399695854698" lon="10.799880819976979"><ele>185.66666666666666</ele><time>2026-04-18T08:01:10.001Z</time></trkpt><trkpt lat="43.564077623128945" lon="10.799943594305306"><ele>185.0</ele><time>2026-04-18T08:01:11.001Z</time></trkpt><trkpt lat="43.56417274735611" lon="10.80000150155206"><ele>185.0</ele><time>2026-04-18T08:01:12.001Z</time></trkpt><trkpt lat="43.56427815528152" lon="10.800068635864468"><ele>185.0</ele><time>2026-04-18T08:01:13.001Z</time></trkpt><trkpt lat="43.564378877145494" lon="10.800132024790678"><ele>185.0</ele><time>2026-04-18T08:01:14.001Z</time></trkpt><trkpt lat="43.564474744113355" lon="10.80019026788547"><ele>185.0</ele><time>2026-04-18T08:01:15.001Z</time></trkpt><trkpt lat="43.564557496046504" lon="10.800222859113113"><ele>185.0</ele><time>2026-04-18T08:01:16.001Z</time></trkpt><trkpt lat="43.56463533881526" lon="10.800262666421757"><ele>184.0</ele><time>2026-04-18T08:01:17.001Z</time></trkpt><trkpt lat="43.56473352535987" lon="10.800314274033312"><ele>183.0</ele><time>2026-04-18T08:01:18.001Z</time></trkpt><trkpt lat="43.56483160617012" lon="10.800364175561125"><ele>182.0</ele><time>2026-04-18T08:01:19.001Z</time></trkpt><trkpt lat="43.564921106891866" lon="10.800399803794248"><ele>181.0</ele><time>2026-04-18T08:01:20.001Z</time></trkpt><trkpt lat="43.56500374090449" lon="10.800445850892396"><ele>180.0</ele><time>2026-04-18T08:01:21.001Z</time></trkpt><trkpt lat="43.5650858812767" lon="10.80045873596263"><ele>180.0</ele><time>2026-04-18T08:01:22.001Z</time></trkpt><trkpt lat="43.56516126861951" lon="10.80045565838054"><ele>180.0</ele><time>2026-04-18T08:01:23.001Z</time></trkpt><trkpt lat="43.565238396746814" lon="10.80044642836629"><ele>180.0</ele><time>2026-04-18T08:01:24.001Z</time></trkpt><trkpt lat="43.565307728406445" lon="10.800438498685525"><ele>180.0</ele><time>2026-04-18T08:01:25.001Z</time></trkpt><trkpt lat="43.56538686694972" lon="10.800444002535569"><ele>180.0</ele><time>2026-04-18T08:01:26.001Z</time></trkpt><trkpt lat="43.56547298737359" lon="10.800449270978454"><ele>180.0</ele><time>2026-04-18T08:01:27.001Z</time></trkpt><trkpt lat="43.565544888820554" lon="10.800488410832516"><ele>180.4</ele><time>2026-04-18T08:01:28.001Z</time></trkpt><trkpt lat="43.56559863197721" lon="10.800563724562975"><ele>180.8</ele><time>2026-04-18T08:01:29.001Z</time></trkpt><trkpt lat="43.565670840586954" lon="10.800631940991265"><ele>181.2</ele><time>2026-04-18T08:01:30.001Z</time></trkpt><trkpt lat="43.56573638886034" lon="10.800749525945454"><ele>181.6</ele><time>2026-04-18T08:01:31.001Z</time></trkpt><trkpt lat="43.56580734728737" lon="10.800857987344921"><ele>182.0</ele><time>2026-04-18T08:01:32.001Z</time></trkpt><trkpt lat="43.56588627381299" lon="10.800937856421886"><ele>182.25</ele><time>2026-04-18T08:01:33.001Z</time></trkpt><trkpt lat="43.5659881810335" lon="10.80100236732301"><ele>182.5</ele><time>2026-04-18T08:01:34.001Z</time></trkpt><trkpt lat="43.566102286457465" lon="10.801075469158649"><ele>182.75</ele><time>2026-04-18T08:01:35.001Z</time></trkpt><trkpt lat="43.566227403915946" lon="10.801156344249817"><ele>183.0</ele><time>2026-04-18T08:01:36.001Z</time></trkpt><trkpt lat="43.566364605589776" lon="10.801247307199054"><ele>183.0</ele><time>2026-04-18T08:01:37.001Z</time></trkpt><trkpt lat="43.56651483077706" lon="10.801342130715284"><ele>183.0</ele><time>2026-04-18T08:01:38.001Z</time></trkpt><trkpt lat="43.566677709036014" lon="10.8014383997747"><ele>183.0</ele><time>2026-04-18T08:01:39.001Z</time></trkpt><trkpt lat="43.566841866369664" lon="10.80154759932783"><ele>183.0</ele><time>2026-04-18T08:01:40.001Z</time></trkpt><trkpt lat="43.567021920609236" lon="10.801651735175918"><ele>183.0</ele><time>2026-04-18T08:01:41.001Z</time></trkpt><trkpt lat="43.56721222257554" lon="10.801751630417442"><ele>183.0</ele><time>2026-04-18T08:01:42.001Z</time></trkpt><trkpt lat="43.56737419460243" lon="10.801823050735564"><ele>183.0</ele><time>2026-04-18T08:01:43.001Z</time></trkpt><trkpt lat="43.56753504499408" lon="10.801864457757981"><ele>183.0</ele><time>2026-04-18T08:01:44.001Z</time></trkpt><trkpt lat="43.56769918742465" lon="10.801885506925245"><ele>183.0</ele><time>2026-04-18T08:01:45.001Z</time></trkpt><trkpt lat="43.5678594167335" lon="10.801913851345528"><ele>182.33333333333334</ele><time>2026-04-18T08:01:46.001Z</time></trkpt><trkpt lat="43.568025927012506" lon="10.801920960032133"><ele>181.66666666666669</ele><time>2026-04-18T08:01:47.001Z</time></trkpt><trkpt lat="43.568212339119704" lon="10.801907984303455"><ele>181.0</ele><time>2026-04-18T08:01:48.002Z</time></trkpt><trkpt lat="43.568405030175214" lon="10.801919029188529"><ele>181.0</ele><time>2026-04-18T08:01:49.002Z</time></trkpt><trkpt lat="43.56859499706554" lon="10.801927481594328"><ele>181.0</ele><time>2026-04-18T08:01:50.002Z</time></trkpt><trkpt lat="43.568755664772446" lon="10.801935150554916"><ele>181.0</ele><time>2026-04-18T08:01:51.002Z</time></trkpt><trkpt lat="43.56889444821664" lon="10.801933748783279"><ele>184.25</ele><time>2026-04-18T08:01:52.002Z</time></trkpt><trkpt lat="43.569026798391235" lon="10.801902494440423"><ele>187.5</ele><time>2026-04-18T08:01:53.002Z</time></trkpt><trkpt lat="43.569163732969756" lon="10.801849070402902"><ele>190.75</ele><time>2026-04-18T08:01:54.002Z</time></trkpt><trkpt lat="43.56929217388347" lon="10.801824009669376"><ele>194.0</ele><time>2026-04-18T08:01:55.002Z</time></trkpt><trkpt lat="43.56938403895648" lon="10.80180087355135"><ele>194.0</ele><time>2026-04-18T08:01:56.002Z</time></trkpt><trkpt lat="43.569462749177156" lon="10.801841412932871"><ele>194.0</ele><time>2026-04-18T08:01:57.002Z</time></trkpt><trkpt lat="43.56952535248984" lon="10.801955012320194"><ele>194.0</ele><time>2026-04-18T08:01:58.002Z</time></trkpt><trkpt lat="43.56958558756963" lon="10.802076014604603"><ele>194.0</ele><time>2026-04-18T08:01:59.002Z</time></trkpt><trkpt lat="43.56965549793189" lon="10.802191487272852"><ele>194.0</ele><time>2026-04-18T08:02:00.002Z</time></trkpt><trkpt lat="43.56971297872022" lon="10.802332111315994"><ele>196.75</ele><time>2026-04-18T08:02:01.002Z</time></trkpt><trkpt lat="43.56977802123645" lon="10.802471802651006"><ele>199.5</ele><time>2026-04-18T08:02:02.002Z</time></trkpt><trkpt lat="43.56983491511293" lon="10.802634890349136"><ele>202.25</ele><time>2026-04-18T08:02:03.002Z</time></trkpt><trkpt lat="43.569916966333246" lon="10.802818218843099"><ele>205.0</ele><time>2026-04-18T08:02:04.002Z</time></trkpt><trkpt lat="43.570004882342374" lon="10.802981198555068"><ele>205.0</ele><time>2026-04-18T08:02:05.002Z</time></trkpt><trkpt lat="43.57007282041452" lon="10.803133384887857"><ele>205.0</ele><time>2026-04-18T08:02:06.002Z</time></trkpt><trkpt lat="43.570154095227664" lon="10.803264044574082"><ele>205.0</ele><time>2026-04-18T08:02:06.999Z</time></trkpt><trkpt lat="43.570267531683726" lon="10.803362359632832"><ele>205.0</ele><time>2026-04-18T08:02:07.999Z</time></trkpt><trkpt lat="43.57041036585784" lon="10.803428991922448"><ele>204.25</ele><time>2026-04-18T08:02:08.999Z</time></trkpt><trkpt lat="43.57056272046035" lon="10.803503930561119"><ele>203.5</ele><time>2026-04-18T08:02:09.999Z</time></trkpt><trkpt lat="43.57069922263405" lon="10.80358572268393"><ele>202.75</ele><time>2026-04-18T08:02:10.999Z</time></trkpt><trkpt lat="43.57081633595327" lon="10.803664684194471"><ele>202.0</ele><time>2026-04-18T08:02:11.999Z</time></trkpt><trkpt lat="43.5709100135148" lon="10.803757032828935"><ele>202.0</ele><time>2026-04-18T08:02:12.999Z</time></trkpt><trkpt lat="43.57098919944374" lon="10.803894455000288"><ele>202.0</ele><time>2026-04-18T08:02:13.999Z</time></trkpt><trkpt lat="43.571046542273606" lon="10.804066800619156"><ele>202.0</ele><time>2026-04-18T08:02:15Z</time></trkpt><trkpt lat="43.571079015843196" lon="10.80427569631019"><ele>202.0</ele><time>2026-04-18T08:02:16Z</time></trkpt><trkpt lat="43.571089003342024" lon="10.804496290812999"><ele>198.66666666666666</ele><time>2026-04-18T08:02:17Z</time></trkpt><trkpt lat="43.57107863644231" lon="10.804733652109983"><ele>195.33333333333331</ele><time>2026-04-18T08:02:18Z</time></trkpt><trkpt lat="43.571053413706274" lon="10.804996779778621"><ele>192.0</ele><time>2026-04-18T08:02:19Z</time></trkpt><trkpt lat="43.57102513227927" lon="10.80526393525996"><ele>188.33333333333334</ele><time>2026-04-18T08:02:20Z</time></trkpt><trkpt lat="43.57099706930912" lon="10.805511095432932"><ele>184.66666666666669</ele><time>2026-04-18T08:02:21Z</time></trkpt><trkpt lat="43.57097885702416" lon="10.805729554572109"><ele>181.0</ele><time>2026-04-18T08:02:22Z</time></trkpt><trkpt lat="43.57097621302975" lon="10.805951666176814"><ele>179.33333333333334</ele><time>2026-04-18T08:02:23Z</time></trkpt><trkpt lat="43.57100381753598" lon="10.8061851544555"><ele>177.66666666666666</ele><time>2026-04-18T08:02:24Z</time></trkpt><trkpt lat="43.57104725022799" lon="10.806436369731463"><ele>176.0</ele><time>2026-04-18T08:02:25Z</time></trkpt><trkpt lat="43.57108845628895" lon="10.806679470573359"><ele>177.33333333333331</ele><time>2026-04-18T08:02:26Z</time></trkpt><trkpt lat="43.571126301862904" lon="10.806906984713752"><ele>178.66666666666666</ele><time>2026-04-18T08:02:27Z</time></trkpt><trkpt lat="43.57115902030392" lon="10.807104170163138"><ele>180.0</ele><time>2026-04-18T08:02:28Z</time></trkpt><trkpt lat="43.57117609534788" lon="10.807300036429824"><ele>180.0</ele><time>2026-04-18T08:02:29Z</time></trkpt><trkpt lat="43.571151290475896" lon="10.80747880444177"><ele>180.0</ele><time>2026-04-18T08:02:30Z</time></trkpt><trkpt lat="43.571119917832895" lon="10.807654013300885"><ele>180.0</ele><time>2026-04-18T08:02:31Z</time></trkpt><trkpt lat="43.57102925215231" lon="10.807806598693219"><ele>180.0</ele><time>2026-04-18T08:02:32Z</time></trkpt><trkpt lat="43.570935779038756" lon="10.807987198835745"><ele>178.66666666666666</ele><time>2026-04-18T08:02:33Z</time></trkpt><trkpt lat="43.5708301825678" lon="10.808160023049687"><ele>177.33333333333331</ele><time>2026-04-18T08:02:34Z</time></trkpt><trkpt lat="43.57073003740248" lon="10.80832539343297"><ele>176.0</ele><time>2026-04-18T08:02:35Z</time></trkpt><trkpt lat="43.570637608281196" lon="10.808471326014693"><ele>174.5</ele><time>2026-04-18T08:02:36Z</time></trkpt><trkpt lat="43.57054971895884" lon="10.808602969140075"><ele>173.0</ele><time>2026-04-18T08:02:37Z</time></trkpt><trkpt lat="43.570465743145455" lon="10.808716950729426"><ele>171.5</ele><time>2026-04-18T08:02:38Z</time></trkpt><trkpt lat="43.57036746980772" lon="10.80880459433055"><ele>170.0</ele><time>2026-04-18T08:02:39Z</time></trkpt><trkpt lat="43.570241655673385" lon="10.808844951662616"><ele>170.0</ele><time>2026-04-18T08:02:40Z</time></trkpt><trkpt lat="43.5701207775834" lon="10.808854760842824"><ele>170.0</ele><time>2026-04-18T08:02:41Z</time></trkpt><trkpt lat="43.56998728439926" lon="10.808832655296795"><ele>170.0</ele><time>2026-04-18T08:02:42Z</time></trkpt><trkpt lat="43.56985231796067" lon="10.808751684076324"><ele>170.0</ele><time>2026-04-18T08:02:43Z</time></trkpt><trkpt lat="43.56973283234828" lon="10.80867764344002"><ele>170.0</ele><time>2026-04-18T08:02:44Z</time></trkpt><trkpt lat="43.569610303020355" lon="10.80863902846879"><ele>170.0</ele><time>2026-04-18T08:02:45Z</time></trkpt><trkpt lat="43.56948406290657" lon="10.80866473613228"><ele>170.0</ele><time>2026-04-18T08:02:46Z</time></trkpt><trkpt lat="43.56935307259494" lon="10.80872618577111"><ele>170.0</ele><time>2026-04-18T08:02:47Z</time></trkpt><trkpt lat="43.56921831865028" lon="10.808840875077173"><ele>169.33333333333331</ele><time>2026-04-18T08:02:48Z</time></trkpt><trkpt lat="43.56908431041598" lon="10.808976824977707"><ele>168.66666666666666</ele><time>2026-04-18T08:02:49Z</time></trkpt><trkpt lat="43.568973820624905" lon="10.809157523069056"><ele>168.0</ele><time>2026-04-18T08:02:50Z</time></trkpt><trkpt lat="43.56886151364922" lon="10.80933935662922"><ele>168.25</ele><time>2026-04-18T08:02:51Z</time></trkpt><trkpt lat="43.56876479250602" lon="10.809504086928976"><ele>168.5</ele><time>2026-04-18T08:02:52Z</time></trkpt><trkpt lat="43.56867725165646" lon="10.80963451616043"><ele>168.75</ele><time>2026-04-18T08:02:53Z</time></trkpt><trkpt lat="43.56859548317597" lon="10.809746544317024"><ele>169.0</ele><time>2026-04-18T08:02:54Z</time></trkpt><trkpt lat="43.56851545063512" lon="10.809843039077297"><ele>169.0</ele><time>2026-04-18T08:02:55Z</time></trkpt><trkpt lat="43.56840711362291" lon="10.80988093507917"><ele>169.0</ele><time>2026-04-18T08:02:56Z</time></trkpt><trkpt lat="43.56828491652047" lon="10.809916182164532"><ele>169.0</ele><time>2026-04-18T08:02:57Z</time></trkpt><trkpt lat="43.56814753346118" lon="10.809963156263064"><ele>169.0</ele><time>2026-04-18T08:02:58Z</time></trkpt><trkpt lat="43.56802176910445" lon="10.81002393166805"><ele>167.75</ele><time>2026-04-18T08:02:59Z</time></trkpt><trkpt lat="43.56793434062979" lon="10.810162551061191"><ele>166.5</ele><time>2026-04-18T08:03:00.001Z</time></trkpt><trkpt lat="43.56785594740421" lon="10.810331409181082"><ele>165.25</ele><time>2026-04-18T08:03:01.001Z</time></trkpt><trkpt lat="43.567781426466254" lon="10.810505497299928"><ele>164.0</ele><time>2026-04-18T08:03:02.001Z</time></trkpt><trkpt lat="43.56772384865053" lon="10.81065599621273"><ele>166.5</ele><time>2026-04-18T08:03:03.001Z</time></trkpt><trkpt lat="43.567713797367546" lon="10.810817086395769"><ele>169.0</ele><time>2026-04-18T08:03:04.001Z</time></trkpt><trkpt lat="43.56773636407499" lon="10.810997921816902"><ele>171.5</ele><time>2026-04-18T08:03:05.001Z</time></trkpt><trkpt lat="43.56779205650808" lon="10.811181639849359"><ele>174.0</ele><time>2026-04-18T08:03:06.001Z</time></trkpt><trkpt lat="43.5678573021872" lon="10.811368143539468"><ele>174.5</ele><time>2026-04-18T08:03:07.001Z</time></trkpt><trkpt lat="43.567912055724584" lon="10.81155264549868"><ele>175.0</ele><time>2026-04-18T08:03:08.001Z</time></trkpt><trkpt lat="43.56796331918513" lon="10.811748413307841"><ele>175.5</ele><time>2026-04-18T08:03:09.001Z</time></trkpt><trkpt lat="43.56802051307757" lon="10.811945563184048"><ele>176.0</ele><time>2026-04-18T08:03:10.001Z</time></trkpt><trkpt lat="43.56807047556637" lon="10.812156162564756"><ele>176.0</ele><time>2026-04-18T08:03:11.001Z</time></trkpt><trkpt lat="43.56812048070703" lon="10.812369043556583"><ele>176.0</ele><time>2026-04-18T08:03:12.001Z</time></trkpt><trkpt lat="43.56816759453616" lon="10.812556122154374"><ele>176.0</ele><time>2026-04-18T08:03:13.001Z</time></trkpt><trkpt lat="43.56820218598214" lon="10.812707103705808"><ele>176.0</ele><time>2026-04-18T08:03:14.001Z</time></trkpt><trkpt lat="43.568216848177315" lon="10.812844225586566"><ele>175.0</ele><time>2026-04-18T08:03:15.001Z</time></trkpt><trkpt lat="43.568190403971" lon="10.81298878830578"><ele>174.0</ele><time>2026-04-18T08:03:16.001Z</time></trkpt><trkpt lat="43.56814160858999" lon="10.813143979131441"><ele>173.0</ele><time>2026-04-18T08:03:17.001Z</time></trkpt><trkpt lat="43.56806838073118" lon="10.813306422909383"><ele>172.0</ele><time>2026-04-18T08:03:18.001Z</time></trkpt><trkpt lat="43.568000093491776" lon="10.813478396970105"><ele>172.33333333333334</ele><time>2026-04-18T08:03:19.001Z</time></trkpt><trkpt lat="43.56797465603362" lon="10.813676100859137"><ele>172.66666666666666</ele><time>2026-04-18T08:03:20.001Z</time></trkpt><trkpt lat="43.56798656700313" lon="10.813897911888033"><ele>173.0</ele><time>2026-04-18T08:03:21.001Z</time></trkpt><trkpt lat="43.56801840610784" lon="10.81413332071912"><ele>174.66666666666666</ele><time>2026-04-18T08:03:22.001Z</time></trkpt><trkpt lat="43.56804702164727" lon="10.814381601260862"><ele>176.33333333333334</ele><time>2026-04-18T08:03:23.001Z</time></trkpt><trkpt lat="43.568070384129484" lon="10.814638438216734"><ele>178.0</ele><time>2026-04-18T08:03:24.001Z</time></trkpt><trkpt lat="43.56809314436666" lon="10.814888471462822"><ele>178.0</ele><time>2026-04-18T08:03:25.001Z</time></trkpt><trkpt lat="43.5681248768059" lon="10.815134291533244"><ele>178.0</ele><time>2026-04-18T08:03:26.001Z</time></trkpt><trkpt lat="43.56815887380002" lon="10.81537139763116"><ele>178.0</ele><time>2026-04-18T08:03:27.001Z</time></trkpt><trkpt lat="43.568205189231165" lon="10.8156039131482"><ele>178.0</ele><time>2026-04-18T08:03:28.001Z</time></trkpt><trkpt lat="43.568279908384405" lon="10.815825630847847"><ele>178.0</ele><time>2026-04-18T08:03:29.001Z</time></trkpt><trkpt lat="43.56837664869811" lon="10.81605022804653"><ele>178.0</ele><time>2026-04-18T08:03:30.001Z</time></trkpt><trkpt lat="43.56848098692798" lon="10.816271570198754"><ele>178.0</ele><time>2026-04-18T08:03:31.001Z</time></trkpt><trkpt lat="43.56859091871862" lon="10.816493145932805"><ele>178.0</ele><time>2026-04-18T08:03:32.001Z</time></trkpt><trkpt lat="43.5687041338757" lon="10.816718910807056"><ele>178.0</ele><time>2026-04-18T08:03:33.001Z</time></trkpt><trkpt lat="43.56882308585852" lon="10.816950910177356"><ele>179.33333333333334</ele><time>2026-04-18T08:03:34.001Z</time></trkpt><trkpt lat="43.56893929023824" lon="10.81718797178162"><ele>180.66666666666666</ele><time>2026-04-18T08:03:35.001Z</time></trkpt><trkpt lat="43.56904984129436" lon="10.817417374973584"><ele>182.0</ele><time>2026-04-18T08:03:36.001Z</time></trkpt><trkpt lat="43.56914058628553" lon="10.817628190120224"><ele>178.66666666666666</ele><time>2026-04-18T08:03:37.001Z</time></trkpt><trkpt lat="43.569217704631946" lon="10.81782894853892"><ele>175.33333333333334</ele><time>2026-04-18T08:03:38.001Z</time></trkpt><trkpt lat="43.569290821553814" lon="10.818027514162925"><ele>172.0</ele><time>2026-04-18T08:03:39.001Z</time></trkpt><trkpt lat="43.569357950105115" lon="10.818205680341293"><ele>172.0</ele><time>2026-04-18T08:03:40.001Z</time></trkpt><trkpt lat="43.56942515171692" lon="10.81838018403956"><ele>172.0</ele><time>2026-04-18T08:03:41.001Z</time></trkpt><trkpt lat="43.56948276409556" lon="10.818561716109988"><ele>172.0</ele><time>2026-04-18T08:03:42.001Z</time></trkpt><trkpt lat="43.56948400806128" lon="10.818743285488674"><ele>172.0</ele><time>2026-04-18T08:03:43.001Z</time></trkpt><trkpt lat="43.569482642466724" lon="10.818907501093303"><ele>171.5</ele><time>2026-04-18T08:03:44.001Z</time></trkpt><trkpt lat="43.5694647467865" lon="10.819059148290046"><ele>171.0</ele><time>2026-04-18T08:03:45.001Z</time></trkpt><trkpt lat="43.56942208152645" lon="10.819196677111627"><ele>170.5</ele><time>2026-04-18T08:03:46.001Z</time></trkpt><trkpt lat="43.56934690294141" lon="10.819341777957684"><ele>170.0</ele><time>2026-04-18T08:03:47.001Z</time></trkpt><trkpt lat="43.56927456062273" lon="10.819526154180556"><ele>169.66666666666666</ele><time>2026-04-18T08:03:48.001Z</time></trkpt><trkpt lat="43.56917985880082" lon="10.819712200354092"><ele>169.33333333333334</ele><time>2026-04-18T08:03:49.001Z</time></trkpt><trkpt lat="43.5690853536351" lon="10.819909009784435"><ele>169.0</ele><time>2026-04-18T08:03:50.001Z</time></trkpt><trkpt lat="43.56900734972004" lon="10.820087213899175"><ele>167.25</ele><time>2026-04-18T08:03:51.002Z</time></trkpt><trkpt lat="43.568939164061106" lon="10.82025807276142"><ele>165.5</ele><time>2026-04-18T08:03:52.002Z</time></trkpt><trkpt lat="43.56889080412598" lon="10.820426951346503"><ele>163.75</ele><time>2026-04-18T08:03:53.002Z</time></trkpt><trkpt lat="43.568863881019375" lon="10.820588548357087"><ele>162.0</ele><time>2026-04-18T08:03:54.002Z</time></trkpt><trkpt lat="43.56887395657454" lon="10.82075133505512"><ele>162.0</ele><time>2026-04-18T08:03:55.002Z</time></trkpt><trkpt lat="43.56890598195782" lon="10.820938379216765"><ele>162.0</ele><time>2026-04-18T08:03:56.002Z</time></trkpt><trkpt lat="43.568953113935905" lon="10.821159575795292"><ele>162.0</ele><time>2026-04-18T08:03:57.002Z</time></trkpt><trkpt lat="43.56899506049694" lon="10.821402424620443"><ele>159.0</ele><time>2026-04-18T08:03:58.002Z</time></trkpt><trkpt lat="43.56902374766334" lon="10.821637757118687"><ele>156.0</ele><time>2026-04-18T08:03:59.002Z</time></trkpt><trkpt lat="43.5690583753932" lon="10.821846659971193"><ele>153.0</ele><time>2026-04-18T08:04:00.002Z</time></trkpt><trkpt lat="43.56909098371271" lon="10.822019445494345"><ele>151.33333333333334</ele><time>2026-04-18T08:04:01.002Z</time></trkpt><trkpt lat="43.56909527648676" lon="10.822212321054836"><ele>149.66666666666669</ele><time>2026-04-18T08:04:02.002Z</time></trkpt><trkpt lat="43.569068063016765" lon="10.822435609661822"><ele>148.0</ele><time>2026-04-18T08:04:03.002Z</time></trkpt><trkpt lat="43.5690526620699" lon="10.822675413570543"><ele>147.33333333333334</ele><time>2026-04-18T08:04:04.002Z</time></trkpt><trkpt lat="43.56903405292092" lon="10.822918536668178"><ele>146.66666666666666</ele><time>2026-04-18T08:04:05.002Z</time></trkpt><trkpt lat="43.569032386338975" lon="10.823141197659941"><ele>146.0</ele><time>2026-04-18T08:04:06.002Z</time></trkpt><trkpt lat="43.569006540137636" lon="10.823343631874726"><ele>144.75</ele><time>2026-04-18T08:04:07.002Z</time></trkpt><trkpt lat="43.568985106303735" lon="10.823529131722022"><ele>143.5</ele><time>2026-04-18T08:04:08.002Z</time></trkpt><trkpt lat="43.56896177044878" lon="10.823705993723888"><ele>142.25</ele><time>2026-04-18T08:04:09.002Z</time></trkpt><trkpt lat="43.568920330107126" lon="10.823865453454813"><ele>141.0</ele><time>2026-04-18T08:04:10.002Z</time></trkpt><trkpt lat="43.56890289008396" lon="10.824042568531892"><ele>141.0</ele><time>2026-04-18T08:04:11.002Z</time></trkpt><trkpt lat="43.56886433079593" lon="10.82423026019156"><ele>141.0</ele><time>2026-04-18T08:04:12.002Z</time></trkpt><trkpt lat="43.56883011378577" lon="10.824406618726178"><ele>141.0</ele><time>2026-04-18T08:04:13Z</time></trkpt><trkpt lat="43.56880495813164" lon="10.824558627211559"><ele>141.0</ele><time>2026-04-18T08:04:14Z</time></trkpt><trkpt lat="43.56876838777096" lon="10.824676203639758"><ele>140.33333333333334</ele><time>2026-04-18T08:04:15Z</time></trkpt><trkpt lat="43.568771805056755" lon="10.824786519687274"><ele>139.66666666666666</ele><time>2026-04-18T08:04:16Z</time></trkpt><trkpt lat="43.56875411152556" lon="10.824881524146136"><ele>139.0</ele><time>2026-04-18T08:04:17Z</time></trkpt><trkpt lat="43.5687548537433" lon="10.824969395333499"><ele>138.33333333333331</ele><time>2026-04-18T08:04:18Z</time></trkpt><trkpt lat="43.568701890265245" lon="10.825030028616107"><ele>137.66666666666666</ele><time>2026-04-18T08:04:19Z</time></trkpt><trkpt lat="43.56858583867814" lon="10.82492237559637"><ele>137.0</ele><time>2026-04-18T08:04:22Z</time></trkpt><trkpt lat="43.568563418246626" lon="10.824795172002387"><ele>136.75</ele><time>2026-04-18T08:04:23Z</time></trkpt><trkpt lat="43.56854963414689" lon="10.82462763896074"><ele>136.5</ele><time>2026-04-18T08:04:24Z</time></trkpt><trkpt lat="43.56851203477462" lon="10.824435258090386"><ele>136.25</ele><time>2026-04-18T08:04:25Z</time></trkpt><trkpt lat="43.568489891174366" lon="10.824226972884476"><ele>136.0</ele><time>2026-04-18T08:04:26Z</time></trkpt><trkpt lat="43.56846106462532" lon="10.82403620526471"><ele>134.75</ele><time>2026-04-18T08:04:27Z</time></trkpt><trkpt lat="43.56845365186796" lon="10.823858637775052"><ele>133.5</ele><time>2026-04-18T08:04:28Z</time></trkpt><trkpt lat="43.56843880741139" lon="10.82368708424061"><ele>132.25</ele><time>2026-04-18T08:04:29Z</time></trkpt><trkpt lat="43.568422904196055" lon="10.823494139241864"><ele>131.0</ele><time>2026-04-18T08:04:30Z</time></trkpt><trkpt lat="43.568401445968576" lon="10.823282205912207"><ele>130.33333333333331</ele><time>2026-04-18T08:04:31Z</time></trkpt><trkpt lat="43.56838160091697" lon="10.823054108771736"><ele>129.66666666666666</ele><time>2026-04-18T08:04:32Z</time></trkpt><trkpt lat="43.56836543895248" lon="10.822849907178512"><ele>129.0</ele><time>2026-04-18T08:04:33Z</time></trkpt><trkpt lat="43.568353560662864" lon="10.822661837443206"><ele>129.25</ele><time>2026-04-18T08:04:34Z</time></trkpt><trkpt lat="43.56833745817562" lon="10.822483280259759"><ele>129.5</ele><time>2026-04-18T08:04:35Z</time></trkpt><trkpt lat="43.568332294089245" lon="10.822308843746612"><ele>129.75</ele><time>2026-04-18T08:04:36Z</time></trkpt><trkpt lat="43.56829154726136" lon="10.822145519411015"><ele>130.0</ele><time>2026-04-18T08:04:37Z</time></trkpt><trkpt lat="43.56822849176734" lon="10.822006021189342"><ele>130.0</ele><time>2026-04-18T08:04:38Z</time></trkpt><trkpt lat="43.568124946227115" lon="10.82189491182686"><ele>130.0</ele><time>2026-04-18T08:04:39Z</time></trkpt><trkpt lat="43.56799037196177" lon="10.821853697793905"><ele>130.0</ele><time>2026-04-18T08:04:40Z</time></trkpt><trkpt lat="43.56785240691744" lon="10.821814932773929"><ele>130.0</ele><time>2026-04-18T08:04:41Z</time></trkpt><trkpt lat="43.56769116431263" lon="10.821781865884315"><ele>128.66666666666669</ele><time>2026-04-18T08:04:42Z</time></trkpt><trkpt lat="43.56753281868566" lon="10.821733170410637"><ele>127.33333333333334</ele><time>2026-04-18T08:04:43Z</time></trkpt><trkpt lat="43.56738194281486" lon="10.821695557065558"><ele>126.0</ele><time>2026-04-18T08:04:44Z</time></trkpt><trkpt lat="43.56723842209634" lon="10.821659165544224"><ele>126.0</ele><time>2026-04-18T08:04:45Z</time></trkpt><trkpt lat="43.56710474349764" lon="10.821621971833702"><ele>126.0</ele><time>2026-04-18T08:04:46Z</time></trkpt><trkpt lat="43.566981310288675" lon="10.82158568241255"><ele>126.0</ele><time>2026-04-18T08:04:47Z</time></trkpt><trkpt lat="43.56685898143875" lon="10.821545173454997"><ele>126.0</ele><time>2026-04-18T08:04:48Z</time></trkpt><trkpt lat="43.5667395085177" lon="10.821504392432933"><ele>122.0</ele><time>2026-04-18T08:04:49Z</time></trkpt><trkpt lat="43.566624424924406" lon="10.821467095699585"><ele>118.0</ele><time>2026-04-18T08:04:50Z</time></trkpt><trkpt lat="43.566502914226476" lon="10.821429526524353"><ele>114.0</ele><time>2026-04-18T08:04:51Z</time></trkpt><trkpt lat="43.566381473464595" lon="10.82138914797229"><ele>110.0</ele><time>2026-04-18T08:04:52.001Z</time></trkpt><trkpt lat="43.56626538027645" lon="10.821343049553237"><ele>107.25</ele><time>2026-04-18T08:04:53.001Z</time></trkpt><trkpt lat="43.566152982835845" lon="10.821319533336771"><ele>104.5</ele><time>2026-04-18T08:04:54.001Z</time></trkpt><trkpt lat="43.566040417468756" lon="10.821297395107813"><ele>101.75</ele><time>2026-04-18T08:04:55.001Z</time></trkpt><trkpt lat="43.565911376164564" lon="10.821269759911262"><ele>99.0</ele><time>2026-04-18T08:04:56.001Z</time></trkpt><trkpt lat="43.56576434397885" lon="10.821228018958363"><ele>99.0</ele><time>2026-04-18T08:04:57.001Z</time></trkpt><trkpt lat="43.56561484707106" lon="10.821161907160382"><ele>99.0</ele><time>2026-04-18T08:04:58.001Z</time></trkpt><trkpt lat="43.56547546247321" lon="10.821071116320363"><ele>99.0</ele><time>2026-04-18T08:04:59.001Z</time></trkpt><trkpt lat="43.565336228355676" lon="10.820935196584971"><ele>99.0</ele><time>2026-04-18T08:05:00.001Z</time></trkpt><trkpt lat="43.565198593749116" lon="10.820772769431619"><ele>99.0</ele><time>2026-04-18T08:05:01.001Z</time></trkpt><trkpt lat="43.56505291782349" lon="10.820606750774212"><ele>99.0</ele><time>2026-04-18T08:05:02.001Z</time></trkpt><trkpt lat="43.56490442660083" lon="10.820439973125682"><ele>99.0</ele><time>2026-04-18T08:05:03.001Z</time></trkpt><trkpt lat="43.56476116963214" lon="10.820281753685023"><ele>99.0</ele><time>2026-04-18T08:05:04.001Z</time></trkpt><trkpt lat="43.56462774682694" lon="10.820139470365008"><ele>99.0</ele><time>2026-04-18T08:05:05.001Z</time></trkpt><trkpt lat="43.56450971397431" lon="10.820000451544558"><ele>94.33333333333333</ele><time>2026-04-18T08:05:06.001Z</time></trkpt><trkpt lat="43.56440214601213" lon="10.819845126485054"><ele>89.66666666666666</ele><time>2026-04-18T08:05:07.001Z</time></trkpt><trkpt lat="43.56432613228526" lon="10.819657179710946"><ele>85.0</ele><time>2026-04-18T08:05:08.001Z</time></trkpt><trkpt lat="43.56423994983556" lon="10.819466852489679"><ele>85.5</ele><time>2026-04-18T08:05:09.001Z</time></trkpt><trkpt lat="43.56416103687912" lon="10.819289213365776"><ele>86.0</ele><time>2026-04-18T08:05:10.001Z</time></trkpt><trkpt lat="43.56408309122533" lon="10.819135807838988"><ele>86.5</ele><time>2026-04-18T08:05:11.001Z</time></trkpt><trkpt lat="43.564015793093276" lon="10.818995252029296"><ele>87.0</ele><time>2026-04-18T08:05:12.001Z</time></trkpt><trkpt lat="43.56395964493225" lon="10.81886746791536"><ele>87.0</ele><time>2026-04-18T08:05:13.001Z</time></trkpt><trkpt lat="43.56391072630229" lon="10.818759390775385"><ele>87.0</ele><time>2026-04-18T08:05:14.001Z</time></trkpt><trkpt lat="43.56386126886282" lon="10.818668232600318"><ele>87.0</ele><time>2026-04-18T08:05:15.001Z</time></trkpt><trkpt lat="43.563824589300026" lon="10.818582434962478"><ele>87.0</ele><time>2026-04-18T08:05:16.001Z</time></trkpt><trkpt lat="43.56374336635517" lon="10.818562995885268"><ele>87.0</ele><time>2026-04-18T08:05:17.001Z</time></trkpt><trkpt lat="43.56368135295055" lon="10.818536043330711"><ele>87.0</ele><time>2026-04-18T08:05:18.001Z</time></trkpt><trkpt lat="43.563556961764746" lon="10.818543101027954"><ele>85.39999999999999</ele><time>2026-04-18T08:05:20.001Z</time></trkpt><trkpt lat="43.56348032938925" lon="10.818543322168523"><ele>83.8</ele><time>2026-04-18T08:05:21.001Z</time></trkpt><trkpt lat="43.563395598302385" lon="10.818583202395523"><ele>82.2</ele><time>2026-04-18T08:05:22.001Z</time></trkpt><trkpt lat="43.5632980004004" lon="10.81863764383586"><ele>80.6</ele><time>2026-04-18T08:05:23.001Z</time></trkpt><trkpt lat="43.5631832836579" lon="10.818712980831089"><ele>79.0</ele><time>2026-04-18T08:05:24.001Z</time></trkpt><trkpt lat="43.563052661460524" lon="10.8188051938162"><ele>79.0</ele><time>2026-04-18T08:05:25.001Z</time></trkpt><trkpt lat="43.5629307941694" lon="10.818915967236077"><ele>79.0</ele><time>2026-04-18T08:05:26.001Z</time></trkpt><trkpt lat="43.56280729867092" lon="10.818994879882105"><ele>79.0</ele><time>2026-04-18T08:05:27.001Z</time></trkpt><trkpt lat="43.56269208143488" lon="10.819063243563678"><ele>79.0</ele><time>2026-04-18T08:05:28.001Z</time></trkpt><trkpt lat="43.56257990813079" lon="10.819136486597133"><ele>80.0</ele><time>2026-04-18T08:05:29.001Z</time></trkpt><trkpt lat="43.56248311344013" lon="10.819191954927863"><ele>81.0</ele><time>2026-04-18T08:05:30.001Z</time></trkpt><trkpt lat="43.56239710027487" lon="10.819227399723543"><ele>82.0</ele><time>2026-04-18T08:05:31.001Z</time></trkpt><trkpt lat="43.56230895923306" lon="10.819235412485572"><ele>83.0</ele><time>2026-04-18T08:05:32.001Z</time></trkpt><trkpt lat="43.56221286279942" lon="10.819210080536356"><ele>84.0</ele><time>2026-04-18T08:05:33.001Z</time></trkpt><trkpt lat="43.562125668786734" lon="10.819155501507462"><ele>84.0</ele><time>2026-04-18T08:05:34.001Z</time></trkpt><trkpt lat="43.56204833027929" lon="10.819045011038076"><ele>84.0</ele><time>2026-04-18T08:05:35.001Z</time></trkpt><trkpt lat="43.561980169511145" lon="10.818916797623208"><ele>84.0</ele><time>2026-04-18T08:05:36.001Z</time></trkpt><trkpt lat="43.56189234332278" lon="10.818772060820928"><ele>84.0</ele><time>2026-04-18T08:05:37.001Z</time></trkpt><trkpt lat="43.56180026507327" lon="10.818615461354476"><ele>83.33333333333333</ele><time>2026-04-18T08:05:38.001Z</time></trkpt><trkpt lat="43.56170693381957" lon="10.818456731135207"><ele>82.66666666666666</ele><time>2026-04-18T08:05:39.001Z</time></trkpt><trkpt lat="43.56160672442086" lon="10.818286303069732"><ele>82.0</ele><time>2026-04-18T08:05:40.001Z</time></trkpt><trkpt lat="43.56149867626841" lon="10.81810254330966"><ele>82.0</ele><time>2026-04-18T08:05:41.001Z</time></trkpt><trkpt lat="43.56138433770862" lon="10.817908085635027"><ele>82.0</ele><time>2026-04-18T08:05:42.001Z</time></trkpt><trkpt lat="43.56126144749813" lon="10.81769481866107"><ele>82.0</ele><time>2026-04-18T08:05:43.001Z</time></trkpt><trkpt lat="43.561145695232284" lon="10.817492736015346"><ele>83.0</ele><time>2026-04-18T08:05:44.002Z</time></trkpt><trkpt lat="43.56104520060915" lon="10.81731085366153"><ele>84.0</ele><time>2026-04-18T08:05:45.002Z</time></trkpt><trkpt lat="43.5609562556691" lon="10.817152524434663"><ele>85.0</ele><time>2026-04-18T08:05:46.002Z</time></trkpt><trkpt lat="43.56085524582626" lon="10.81700323834933"><ele>85.0</ele><time>2026-04-18T08:05:47.002Z</time></trkpt><trkpt lat="43.56074209525177" lon="10.816865871058788"><ele>85.0</ele><time>2026-04-18T08:05:48.002Z</time></trkpt><trkpt lat="43.560614348956136" lon="10.81673271067592"><ele>85.0</ele><time>2026-04-18T08:05:49.002Z</time></trkpt><trkpt lat="43.56047142505856" lon="10.81662090811878"><ele>86.0</ele><time>2026-04-18T08:05:50.002Z</time></trkpt><trkpt lat="43.56032770544385" lon="10.816484622657196"><ele>87.0</ele><time>2026-04-18T08:05:51.002Z</time></trkpt><trkpt lat="43.56018943761743" lon="10.816319234299138"><ele>88.0</ele><time>2026-04-18T08:05:52.002Z</time></trkpt><trkpt lat="43.56004636982851" lon="10.816200695314267"><ele>88.0</ele><time>2026-04-18T08:05:53.002Z</time></trkpt><trkpt lat="43.5599230041634" lon="10.816077255857206"><ele>88.0</ele><time>2026-04-18T08:05:54.002Z</time></trkpt><trkpt lat="43.55981277707264" lon="10.815969450484722"><ele>88.0</ele><time>2026-04-18T08:05:55.002Z</time></trkpt><trkpt lat="43.55971353351535" lon="10.815878151646004"><ele>88.0</ele><time>2026-04-18T08:05:56.002Z</time></trkpt><trkpt lat="43.559618379960106" lon="10.815803226538987"><ele>86.25</ele><time>2026-04-18T08:05:57.002Z</time></trkpt><trkpt lat="43.55950918888522" lon="10.815756289930743"><ele>84.5</ele><time>2026-04-18T08:05:58.002Z</time></trkpt><trkpt lat="43.559378863217844" lon="10.815689007051086"><ele>82.75</ele><time>2026-04-18T08:05:59.002Z</time></trkpt><trkpt lat="43.55922982115098" lon="10.815645879010127"><ele>81.0</ele><time>2026-04-18T08:06:00.002Z</time></trkpt><trkpt lat="43.55906606205164" lon="10.815604066668849"><ele>81.0</ele><time>2026-04-18T08:06:01.002Z</time></trkpt><trkpt lat="43.55888638534273" lon="10.815563865604332"><ele>81.0</ele><time>2026-04-18T08:06:02.002Z</time></trkpt><trkpt lat="43.5587126953603" lon="10.815530582870629"><ele>81.0</ele><time>2026-04-18T08:06:03.002Z</time></trkpt><trkpt lat="43.55854494095564" lon="10.815518708546875"><ele>80.66666666666667</ele><time>2026-04-18T08:06:04.002Z</time></trkpt><trkpt lat="43.55837836565832" lon="10.815461047042646"><ele>80.33333333333334</ele><time>2026-04-18T08:06:05.002Z</time></trkpt><trkpt lat="43.558203504828434" lon="10.81541667387301"><ele>80.0</ele><time>2026-04-18T08:06:06.002Z</time></trkpt><trkpt lat="43.55802178593657" lon="10.815372146813676"><ele>79.0</ele><time>2026-04-18T08:06:07.002Z</time></trkpt><trkpt lat="43.55783317708492" lon="10.815327006227635"><ele>78.0</ele><time>2026-04-18T08:06:08.002Z</time></trkpt><trkpt lat="43.55765333209166" lon="10.815283961796773"><ele>77.0</ele><time>2026-04-18T08:06:09.002Z</time></trkpt><trkpt lat="43.55749859248239" lon="10.815246925870317"><ele>77.0</ele><time>2026-04-18T08:06:10.002Z</time></trkpt><trkpt lat="43.55735486486244" lon="10.815239568053775"><ele>77.0</ele><time>2026-04-18T08:06:11.002Z</time></trkpt><trkpt lat="43.55723039374762" lon="10.815212537268106"><ele>77.0</ele><time>2026-04-18T08:06:12.002Z</time></trkpt><trkpt lat="43.55711709826384" lon="10.815189717499887"><ele>77.0</ele><time>2026-04-18T08:06:13.002Z</time></trkpt><trkpt lat="43.55700079507339" lon="10.815177661835804"><ele>78.0</ele><time>2026-04-18T08:06:14.002Z</time></trkpt><trkpt lat="43.55688082610079" lon="10.815183927231754"><ele>79.0</ele><time>2026-04-18T08:06:15.002Z</time></trkpt><trkpt lat="43.556754643281394" lon="10.81521107816605"><ele>80.0</ele><time>2026-04-18T08:06:16.002Z</time></trkpt><trkpt lat="43.556629594610584" lon="10.815254402131178"><ele>81.0</ele><time>2026-04-18T08:06:17.002Z</time></trkpt><trkpt lat="43.556494049788206" lon="10.815311790326492"><ele>81.0</ele><time>2026-04-18T08:06:18.002Z</time></trkpt><trkpt lat="43.55634655855648" lon="10.81536699131417"><ele>81.0</ele><time>2026-04-18T08:06:19Z</time></trkpt><trkpt lat="43.55618819340385" lon="10.81542260571505"><ele>81.0</ele><time>2026-04-18T08:06:20Z</time></trkpt><trkpt lat="43.55603030019747" lon="10.815476652763545"><ele>83.0</ele><time>2026-04-18T08:06:21Z</time></trkpt><trkpt lat="43.55588614926074" lon="10.815529954306703"><ele>85.0</ele><time>2026-04-18T08:06:22Z</time></trkpt><trkpt lat="43.5557671859586" lon="10.815570295035752"><ele>87.0</ele><time>2026-04-18T08:06:23Z</time></trkpt><trkpt lat="43.555657461387725" lon="10.815612311258256"><ele>89.0</ele><time>2026-04-18T08:06:24Z</time></trkpt><trkpt lat="43.555557788295516" lon="10.815667595479306"><ele>89.0</ele><time>2026-04-18T08:06:25Z</time></trkpt><trkpt lat="43.55545900866112" lon="10.815750907063098"><ele>89.0</ele><time>2026-04-18T08:06:26Z</time></trkpt><trkpt lat="43.55536659160791" lon="10.815856082659687"><ele>89.0</ele><time>2026-04-18T08:06:27Z</time></trkpt><trkpt lat="43.555286391214246" lon="10.815987665144332"><ele>89.0</ele><time>2026-04-18T08:06:28Z</time></trkpt><trkpt lat="43.55520472516472" lon="10.816136802452586"><ele>91.66666666666667</ele><time>2026-04-18T08:06:29Z</time></trkpt><trkpt lat="43.55511407801156" lon="10.816301908021437"><ele>94.33333333333334</ele><time>2026-04-18T08:06:30Z</time></trkpt><trkpt lat="43.5550239508047" lon="10.816467178326272"><ele>97.0</ele><time>2026-04-18T08:06:31Z</time></trkpt><trkpt lat="43.55492538218003" lon="10.816642712907386"><ele>98.33333333333334</ele><time>2026-04-18T08:06:32Z</time></trkpt><trkpt lat="43.55482315639043" lon="10.816829061293857"><ele>99.66666666666666</ele><time>2026-04-18T08:06:33Z</time></trkpt><trkpt lat="43.55471562508966" lon="10.817022574349929"><ele>101.0</ele><time>2026-04-18T08:06:34Z</time></trkpt><trkpt lat="43.554615079273766" lon="10.817207178028365"><ele>101.66666666666666</ele><time>2026-04-18T08:06:35Z</time></trkpt><trkpt lat="43.554520306394735" lon="10.817370749077693"><ele>102.33333333333334</ele><time>2026-04-18T08:06:36Z</time></trkpt><trkpt lat="43.55442531567968" lon="10.817542134510814"><ele>103.0</ele><time>2026-04-18T08:06:37Z</time></trkpt><trkpt lat="43.554332000414874" lon="10.817719642013033"><ele>105.0</ele><time>2026-04-18T08:06:38Z</time></trkpt><trkpt lat="43.55423716879524" lon="10.817894679781894"><ele>107.0</ele><time>2026-04-18T08:06:39Z</time></trkpt><trkpt lat="43.55414093984911" lon="10.818062308579199"><ele>109.0</ele><time>2026-04-18T08:06:40Z</time></trkpt><trkpt lat="43.55404501764779" lon="10.818236852279554"><ele>109.0</ele><time>2026-04-18T08:06:41Z</time></trkpt><trkpt lat="43.553947134893484" lon="10.818425281530986"><ele>109.0</ele><time>2026-04-18T08:06:42Z</time></trkpt><trkpt lat="43.55384513547828" lon="10.818618229165583"><ele>109.0</ele><time>2026-04-18T08:06:43Z</time></trkpt><trkpt lat="43.553739719269316" lon="10.81880423048345"><ele>111.33333333333334</ele><time>2026-04-18T08:06:44Z</time></trkpt><trkpt lat="43.55363868577325" lon="10.81898513962107"><ele>113.66666666666666</ele><time>2026-04-18T08:06:45Z</time></trkpt><trkpt lat="43.55353812013723" lon="10.819159750068877"><ele>116.0</ele><time>2026-04-18T08:06:46Z</time></trkpt><trkpt lat="43.55344241469156" lon="10.819333830396744"><ele>118.0</ele><time>2026-04-18T08:06:47Z</time></trkpt><trkpt lat="43.55335094279885" lon="10.819507329854856"><ele>120.0</ele><time>2026-04-18T08:06:48Z</time></trkpt><trkpt lat="43.55325529759189" lon="10.819680475149845"><ele>122.0</ele><time>2026-04-18T08:06:49Z</time></trkpt><trkpt lat="43.553164438502506" lon="10.819849364912866"><ele>122.0</ele><time>2026-04-18T08:06:50Z</time></trkpt><trkpt lat="43.553068441643" lon="10.820022465176878"><ele>122.0</ele><time>2026-04-18T08:06:51Z</time></trkpt><trkpt lat="43.55296833094534" lon="10.82020463091834"><ele>122.0</ele><time>2026-04-18T08:06:52Z</time></trkpt><trkpt lat="43.55286971914236" lon="10.820387684929681"><ele>123.33333333333333</ele><time>2026-04-18T08:06:53Z</time></trkpt><trkpt lat="43.55277224292588" lon="10.820563353756889"><ele>124.66666666666666</ele><time>2026-04-18T08:06:54Z</time></trkpt><trkpt lat="43.552670559892086" lon="10.820744764888163"><ele>126.0</ele><time>2026-04-18T08:06:55Z</time></trkpt><trkpt lat="43.552569836605706" lon="10.820930889960287"><ele>127.66666666666666</ele><time>2026-04-18T08:06:56Z</time></trkpt><trkpt lat="43.552466718203625" lon="10.821119690002321"><ele>129.33333333333331</ele><time>2026-04-18T08:06:57Z</time></trkpt><trkpt lat="43.552353729602984" lon="10.821294301623192"><ele>131.0</ele><time>2026-04-18T08:06:58Z</time></trkpt><trkpt lat="43.552253309016145" lon="10.821476720243828"><ele>131.0</ele><time>2026-04-18T08:06:59Z</time></trkpt><trkpt lat="43.55215511614975" lon="10.821656717113822"><ele>131.0</ele><time>2026-04-18T08:07:00Z</time></trkpt><trkpt lat="43.552054997961555" lon="10.821840765068002"><ele>131.0</ele><time>2026-04-18T08:07:01Z</time></trkpt><trkpt lat="43.55195510499105" lon="10.822024399317263"><ele>132.5</ele><time>2026-04-18T08:07:02Z</time></trkpt><trkpt lat="43.55186075304923" lon="10.822197123313286"><ele>134.0</ele><time>2026-04-18T08:07:03Z</time></trkpt><trkpt lat="43.55178126315422" lon="10.82236968993989"><ele>135.5</ele><time>2026-04-18T08:07:04Z</time></trkpt><trkpt lat="43.55170173350216" lon="10.822515548056922"><ele>137.0</ele><time>2026-04-18T08:07:05Z</time></trkpt><trkpt lat="43.55162107146697" lon="10.822656801929558"><ele>139.0</ele><time>2026-04-18T08:07:06Z</time></trkpt><trkpt lat="43.551542571941205" lon="10.822783414301089"><ele>141.0</ele><time>2026-04-18T08:07:07.001Z</time></trkpt><trkpt lat="43.551466515400534" lon="10.822877767013933"><ele>143.0</ele><time>2026-04-18T08:07:08.001Z</time></trkpt><trkpt lat="43.55138391468479" lon="10.822913847224205"><ele>145.0</ele><time>2026-04-18T08:07:09.001Z</time></trkpt><trkpt lat="43.55129747890186" lon="10.82292315207142"><ele>147.0</ele><time>2026-04-18T08:07:10.001Z</time></trkpt><trkpt lat="43.55120589218555" lon="10.822929736896176"><ele>147.0</ele><time>2026-04-18T08:07:11.001Z</time></trkpt><trkpt lat="43.55109884474806" lon="10.822940590337515"><ele>147.0</ele><time>2026-04-18T08:07:12.001Z</time></trkpt><trkpt lat="43.55097716425799" lon="10.82297351043804"><ele>147.0</ele><time>2026-04-18T08:07:13.001Z</time></trkpt><trkpt lat="43.55085611748315" lon="10.822935349355062"><ele>147.0</ele><time>2026-04-18T08:07:14.001Z</time></trkpt><trkpt lat="43.550730563334525" lon="10.822895827715692"><ele>147.0</ele><time>2026-04-18T08:07:15.001Z</time></trkpt><trkpt lat="43.55057656980415" lon="10.822836841716603"><ele>147.0</ele><time>2026-04-18T08:07:16.001Z</time></trkpt><trkpt lat="43.550407164065476" lon="10.822788816659026"><ele>147.0</ele><time>2026-04-18T08:07:17.001Z</time></trkpt><trkpt lat="43.55022218841524" lon="10.822761433559302"><ele>148.0</ele><time>2026-04-18T08:07:18.001Z</time></trkpt><trkpt lat="43.55002933564033" lon="10.822687619575017"><ele>149.0</ele><time>2026-04-18T08:07:19.001Z</time></trkpt><trkpt lat="43.54982649451166" lon="10.822639035073458"><ele>150.0</ele><time>2026-04-18T08:07:20.001Z</time></trkpt><trkpt lat="43.549622864906915" lon="10.822594521811444"><ele>148.33333333333334</ele><time>2026-04-18T08:07:21.001Z</time></trkpt><trkpt lat="43.54944274977211" lon="10.822554804852425"><ele>146.66666666666669</ele><time>2026-04-18T08:07:22.001Z</time></trkpt><trkpt lat="43.5492848480175" lon="10.822517567617517"><ele>145.0</ele><time>2026-04-18T08:07:23.001Z</time></trkpt><trkpt lat="43.54914065734054" lon="10.822482603811991"><ele>145.0</ele><time>2026-04-18T08:07:24.001Z</time></trkpt><trkpt lat="43.5489943160552" lon="10.82244418425992"><ele>145.0</ele><time>2026-04-18T08:07:25.001Z</time></trkpt><trkpt lat="43.54885668910127" lon="10.82239513963048"><ele>145.0</ele><time>2026-04-18T08:07:26.001Z</time></trkpt><trkpt lat="43.54872317213645" lon="10.82233560527637"><ele>145.0</ele><time>2026-04-18T08:07:27.001Z</time></trkpt><trkpt lat="43.54861010460795" lon="10.822267845146554"><ele>147.25</ele><time>2026-04-18T08:07:28.001Z</time></trkpt><trkpt lat="43.54850495796714" lon="10.822186182218879"><ele>149.5</ele><time>2026-04-18T08:07:29.001Z</time></trkpt><trkpt lat="43.548401908454444" lon="10.822083094194516"><ele>151.75</ele><time>2026-04-18T08:07:30.001Z</time></trkpt><trkpt lat="43.54830369609749" lon="10.821962717147866"><ele>154.0</ele><time>2026-04-18T08:07:31.001Z</time></trkpt><trkpt lat="43.54820520994537" lon="10.821829783802803"><ele>152.25</ele><time>2026-04-18T08:07:32.001Z</time></trkpt><trkpt lat="43.54810860972176" lon="10.82169059458577"><ele>150.5</ele><time>2026-04-18T08:07:33.001Z</time></trkpt><trkpt lat="43.54801296985699" lon="10.82154921114627"><ele>148.75</ele><time>2026-04-18T08:07:34.001Z</time></trkpt><trkpt lat="43.547920367902954" lon="10.821425255246748"><ele>147.0</ele><time>2026-04-18T08:07:35.001Z</time></trkpt><trkpt lat="43.54783547993739" lon="10.821315555168304"><ele>146.4</ele><time>2026-04-18T08:07:36.001Z</time></trkpt><trkpt lat="43.54774833871659" lon="10.821220784618772"><ele>145.79999999999998</ele><time>2026-04-18T08:07:37.001Z</time></trkpt><trkpt lat="43.54767728672304" lon="10.821109788050396"><ele>145.2</ele><time>2026-04-18T08:07:38.001Z</time></trkpt><trkpt lat="43.547601818623754" lon="10.821005189428073"><ele>144.6</ele><time>2026-04-18T08:07:39.001Z</time></trkpt><trkpt lat="43.54752781244166" lon="10.820895911971325"><ele>144.0</ele><time>2026-04-18T08:07:40.001Z</time></trkpt><trkpt lat="43.547448177300495" lon="10.820779083910024"><ele>144.0</ele><time>2026-04-18T08:07:41.001Z</time></trkpt><trkpt lat="43.54736758877387" lon="10.820663822087877"><ele>144.0</ele><time>2026-04-18T08:07:42.001Z</time></trkpt><trkpt lat="43.547296570317826" lon="10.820562248064741"><ele>144.0</ele><time>2026-04-18T08:07:43.001Z</time></trkpt><trkpt lat="43.54723775650427" lon="10.820478840084709"><ele>144.0</ele><time>2026-04-18T08:07:44.001Z</time></trkpt><trkpt lat="43.5471830633331" lon="10.820409500304363"><ele>144.0</ele><time>2026-04-18T08:07:45.001Z</time></trkpt><trkpt lat="43.54713101816366" lon="10.820360035735483"><ele>144.0</ele><time>2026-04-18T08:07:46.001Z</time></trkpt><trkpt lat="43.547026890023695" lon="10.820332651343673"><ele>141.0</ele><time>2026-04-18T08:07:48.001Z</time></trkpt><trkpt lat="43.54692018412722" lon="10.820394859945882"><ele>138.0</ele><time>2026-04-18T08:07:50.001Z</time></trkpt><trkpt lat="43.54688750286076" lon="10.820490247513188"><ele>135.0</ele><time>2026-04-18T08:07:51.001Z</time></trkpt><trkpt lat="43.5468502076863" lon="10.820591160875255"><ele>132.0</ele><time>2026-04-18T08:07:52.001Z</time></trkpt><trkpt lat="43.546821414839116" lon="10.820714267895383"><ele>129.0</ele><time>2026-04-18T08:07:53.001Z</time></trkpt><trkpt lat="43.54677003934548" lon="10.820865263140465"><ele>128.5</ele><time>2026-04-18T08:07:54.001Z</time></trkpt><trkpt lat="43.546732157605206" lon="10.821024046090736"><ele>128.0</ele><time>2026-04-18T08:07:55.001Z</time></trkpt><trkpt lat="43.54669691071269" lon="10.821172637904889"><ele>127.5</ele><time>2026-04-18T08:07:56.001Z</time></trkpt><trkpt lat="43.54665991564067" lon="10.821329004096288"><ele>127.0</ele><time>2026-04-18T08:07:57.002Z</time></trkpt><trkpt lat="43.546626590221116" lon="10.821479073430167"><ele>127.0</ele><time>2026-04-18T08:07:58.002Z</time></trkpt><trkpt lat="43.54659688876936" lon="10.82161951687921"><ele>126.99999999999999</ele><time>2026-04-18T08:07:59.002Z</time></trkpt><trkpt lat="43.546568515029286" lon="10.821752098775088"><ele>126.99999999999999</ele><time>2026-04-18T08:08:00.002Z</time></trkpt><trkpt lat="43.54654012522863" lon="10.821878549528446"><ele>127.0</ele><time>2026-04-18T08:08:01.002Z</time></trkpt><trkpt lat="43.54652582754706" lon="10.822014028072104"><ele>127.0</ele><time>2026-04-18T08:08:02.002Z</time></trkpt><trkpt lat="43.54649245971566" lon="10.82215379314747"><ele>126.50000000000001</ele><time>2026-04-18T08:08:03.002Z</time></trkpt><trkpt lat="43.54646219280201" lon="10.822279480189048"><ele>126.0</ele><time>2026-04-18T08:08:04.002Z</time></trkpt><trkpt lat="43.546433318085846" lon="10.822391987659785"><ele>125.5</ele><time>2026-04-18T08:08:05.002Z</time></trkpt><trkpt lat="43.5464122079979" lon="10.82249870325383"><ele>125.0</ele><time>2026-04-18T08:08:06.002Z</time></trkpt><trkpt lat="43.54638855521014" lon="10.82259226243575"><ele>124.50000000000001</ele><time>2026-04-18T08:08:07.002Z</time></trkpt><trkpt lat="43.54636397769816" lon="10.82268272081518"><ele>124.0</ele><time>2026-04-18T08:08:08.002Z</time></trkpt><trkpt lat="43.54630462406326" lon="10.822823743250696"><ele>121.66666666666667</ele><time>2026-04-18T08:08:10.002Z</time></trkpt><trkpt lat="43.54619706620126" lon="10.822892200934128"><ele>119.33333333333334</ele><time>2026-04-18T08:08:12.002Z</time></trkpt><trkpt lat="43.54612732201933" lon="10.82288337663844"><ele>117.0</ele><time>2026-04-18T08:08:13.002Z</time></trkpt><trkpt lat="43.54606284914172" lon="10.822838545081272"><ele>114.66666666666666</ele><time>2026-04-18T08:08:14.002Z</time></trkpt><trkpt lat="43.54601477192358" lon="10.822743246018684"><ele>112.33333333333333</ele><time>2026-04-18T08:08:15.002Z</time></trkpt><trkpt lat="43.545954615154" lon="10.822627335184846"><ele>110.0</ele><time>2026-04-18T08:08:16.002Z</time></trkpt><trkpt lat="43.54588927826104" lon="10.82248283441045"><ele>110.0</ele><time>2026-04-18T08:08:17.002Z</time></trkpt><trkpt lat="43.54580717769445" lon="10.822329479366589"><ele>110.0</ele><time>2026-04-18T08:08:18.002Z</time></trkpt><trkpt lat="43.54573912289213" lon="10.822154123733942"><ele>110.0</ele><time>2026-04-18T08:08:19.002Z</time></trkpt><trkpt lat="43.54568122934855" lon="10.821987610073922"><ele>110.0</ele><time>2026-04-18T08:08:20.002Z</time></trkpt><trkpt lat="43.54565311945795" lon="10.821802937199507"><ele>110.0</ele><time>2026-04-18T08:08:21.002Z</time></trkpt><trkpt lat="43.54559682009368" lon="10.821608453611656"><ele>110.0</ele><time>2026-04-18T08:08:22.002Z</time></trkpt><trkpt lat="43.545559440179915" lon="10.821404286094145"><ele>110.0</ele><time>2026-04-18T08:08:23.002Z</time></trkpt><trkpt lat="43.545538814420695" lon="10.821206166300158"><ele>110.0</ele><time>2026-04-18T08:08:24.002Z</time></trkpt><trkpt lat="43.545505684756584" lon="10.821026681510086"><ele>109.75</ele><time>2026-04-18T08:08:24.999Z</time></trkpt><trkpt lat="43.5454734022753" lon="10.820855828380456"><ele>109.5</ele><time>2026-04-18T08:08:25.999Z</time></trkpt><trkpt lat="43.545441377070176" lon="10.820700351973503"><ele>109.25</ele><time>2026-04-18T08:08:26.999Z</time></trkpt><trkpt lat="43.545409840063485" lon="10.8205628469898"><ele>109.0</ele><time>2026-04-18T08:08:27.999Z</time></trkpt><trkpt lat="43.545365890287904" lon="10.820435383537262"><ele>106.0</ele><time>2026-04-18T08:08:28.999Z</time></trkpt><trkpt lat="43.54530382279969" lon="10.820317980406669"><ele>103.0</ele><time>2026-04-18T08:08:29.999Z</time></trkpt><trkpt lat="43.545202686482185" lon="10.82022715754214"><ele>100.0</ele><time>2026-04-18T08:08:30.999Z</time></trkpt><trkpt lat="43.54510941082432" lon="10.820119022593309"><ele>97.0</ele><time>2026-04-18T08:08:31.999Z</time></trkpt><trkpt lat="43.54501134292441" lon="10.820014093593725"><ele>97.0</ele><time>2026-04-18T08:08:32.999Z</time></trkpt><trkpt lat="43.5449197098956" lon="10.819907748624292"><ele>97.0</ele><time>2026-04-18T08:08:33.999Z</time></trkpt><trkpt lat="43.5448407254691" lon="10.81978682688527"><ele>97.0</ele><time>2026-04-18T08:08:34.999Z</time></trkpt><trkpt lat="43.54478443789947" lon="10.819631696320881"><ele>97.0</ele><time>2026-04-18T08:08:35.999Z</time></trkpt><trkpt lat="43.54473419172736" lon="10.819481122481715"><ele>97.0</ele><time>2026-04-18T08:08:36.999Z</time></trkpt><trkpt lat="43.54470169559785" lon="10.819328443139959"><ele>97.0</ele><time>2026-04-18T08:08:37.999Z</time></trkpt><trkpt lat="43.544679433143166" lon="10.81916666302047"><ele>97.0</ele><time>2026-04-18T08:08:38.999Z</time></trkpt><trkpt lat="43.54465546854072" lon="10.818977492256117"><ele>97.0</ele><time>2026-04-18T08:08:39.999Z</time></trkpt><trkpt lat="43.54462796667894" lon="10.818760516899916"><ele>96.66666666666667</ele><time>2026-04-18T08:08:40.999Z</time></trkpt><trkpt lat="43.54459619568877" lon="10.818526755067044"><ele>96.33333333333334</ele><time>2026-04-18T08:08:41.999Z</time></trkpt><trkpt lat="43.5445641524263" lon="10.81829098978567"><ele>96.0</ele><time>2026-04-18T08:08:43Z</time></trkpt><trkpt lat="43.54453383894974" lon="10.818063787363105"><ele>92.75</ele><time>2026-04-18T08:08:44Z</time></trkpt><trkpt lat="43.54450808702566" lon="10.81785865517055"><ele>89.5</ele><time>2026-04-18T08:08:45Z</time></trkpt><trkpt lat="43.54448374188547" lon="10.817665900397524"><ele>86.25</ele><time>2026-04-18T08:08:46Z</time></trkpt><trkpt lat="43.54445612852926" lon="10.817466926421892"><ele>83.0</ele><time>2026-04-18T08:08:47Z</time></trkpt><trkpt lat="43.54442968835157" lon="10.817284946543534"><ele>83.0</ele><time>2026-04-18T08:08:48Z</time></trkpt><trkpt lat="43.54440144898078" lon="10.81713680927423"><ele>83.0</ele><time>2026-04-18T08:08:49Z</time></trkpt><trkpt lat="43.54436755551749" lon="10.817022449623567"><ele>83.0</ele><time>2026-04-18T08:08:50Z</time></trkpt><trkpt lat="43.54432999895446" lon="10.81693067891978"><ele>83.0</ele><time>2026-04-18T08:08:51Z</time></trkpt><trkpt lat="43.54427420439544" lon="10.816843068494425"><ele>83.0</ele><time>2026-04-18T08:08:52Z</time></trkpt><trkpt lat="43.54417615324787" lon="10.816787907159707"><ele>83.0</ele><time>2026-04-18T08:08:53Z</time></trkpt><trkpt lat="43.54409828242325" lon="10.816748509403352"><ele>83.0</ele><time>2026-04-18T08:08:54Z</time></trkpt><trkpt lat="43.54402292699764" lon="10.816735490209906"><ele>83.0</ele><time>2026-04-18T08:08:55Z</time></trkpt><trkpt lat="43.543951426701625" lon="10.816750053460911"><ele>83.0</ele><time>2026-04-18T08:08:56Z</time></trkpt><trkpt lat="43.5438612675803" lon="10.816780487409334"><ele>83.0</ele><time>2026-04-18T08:08:57Z</time></trkpt><trkpt lat="43.54374555651902" lon="10.816836337281083"><ele>83.0</ele><time>2026-04-18T08:08:58Z</time></trkpt><trkpt lat="43.543609464124195" lon="10.816906674685345"><ele>82.0</ele><time>2026-04-18T08:08:59Z</time></trkpt><trkpt lat="43.54345226451116" lon="10.81698261031781"><ele>81.0</ele><time>2026-04-18T08:09:00Z</time></trkpt><trkpt lat="43.54330240753244" lon="10.817048307205166"><ele>80.0</ele><time>2026-04-18T08:09:01Z</time></trkpt><trkpt lat="43.54317838443337" lon="10.817106353130528"><ele>80.0</ele><time>2026-04-18T08:09:02Z</time></trkpt><trkpt lat="43.54306324695493" lon="10.817167141875222"><ele>80.0</ele><time>2026-04-18T08:09:03Z</time></trkpt><trkpt lat="43.54296285065066" lon="10.817227527822237"><ele>80.0</ele><time>2026-04-18T08:09:04Z</time></trkpt><trkpt lat="43.542871408888544" lon="10.817269446334649"><ele>80.0</ele><time>2026-04-18T08:09:05Z</time></trkpt><trkpt lat="43.54279609638438" lon="10.81735490065031"><ele>80.0</ele><time>2026-04-18T08:09:06Z</time></trkpt><trkpt lat="43.54273563005064" lon="10.817452743194488"><ele>81.5</ele><time>2026-04-18T08:09:07Z</time></trkpt><trkpt lat="43.54268851483085" lon="10.817578468842054"><ele>83.0</ele><time>2026-04-18T08:09:08Z</time></trkpt><trkpt lat="43.54265834838359" lon="10.817724614924296"><ele>84.5</ele><time>2026-04-18T08:09:09Z</time></trkpt><trkpt lat="43.54265455288185" lon="10.817895670441157"><ele>86.0</ele><time>2026-04-18T08:09:10Z</time></trkpt><trkpt lat="43.54264350575632" lon="10.818087543545625"><ele>88.0</ele><time>2026-04-18T08:09:11Z</time></trkpt><trkpt lat="43.542633242599905" lon="10.818296596844933"><ele>90.0</ele><time>2026-04-18T08:09:12Z</time></trkpt><trkpt lat="43.5426126492634" lon="10.818523041620391"><ele>92.0</ele><time>2026-04-18T08:09:13Z</time></trkpt><trkpt lat="43.542601226618" lon="10.818755244857632"><ele>93.66666666666667</ele><time>2026-04-18T08:09:14Z</time></trkpt><trkpt lat="43.542588056074585" lon="10.81896657998532"><ele>95.33333333333334</ele><time>2026-04-18T08:09:15Z</time></trkpt><trkpt lat="43.54257587600353" lon="10.819176676334003"><ele>97.0</ele><time>2026-04-18T08:09:16Z</time></trkpt><trkpt lat="43.5425629745706" lon="10.819383802409584"><ele>98.0</ele><time>2026-04-18T08:09:17Z</time></trkpt><trkpt lat="43.54254526228071" lon="10.81958859919641"><ele>99.0</ele><time>2026-04-18T08:09:18.001Z</time></trkpt><trkpt lat="43.542521393266334" lon="10.81979219101804"><ele>100.0</ele><time>2026-04-18T08:09:19.001Z</time></trkpt><trkpt lat="43.542485818120376" lon="10.819987678260064"><ele>101.0</ele><time>2026-04-18T08:09:20.001Z</time></trkpt><trkpt lat="43.542442688866814" lon="10.82019076401068"><ele>101.75</ele><time>2026-04-18T08:09:21.001Z</time></trkpt><trkpt lat="43.54239693204219" lon="10.820393311288193"><ele>102.5</ele><time>2026-04-18T08:09:22.001Z</time></trkpt><trkpt lat="43.54235093379163" lon="10.82057848844927"><ele>103.25</ele><time>2026-04-18T08:09:23.001Z</time></trkpt><trkpt lat="43.54231197209154" lon="10.82074480531126"><ele>104.0</ele><time>2026-04-18T08:09:24.001Z</time></trkpt><trkpt lat="43.542263146414065" lon="10.82090416556091"><ele>104.0</ele><time>2026-04-18T08:09:25.001Z</time></trkpt><trkpt lat="43.54221194026151" lon="10.82104904235572"><ele>104.0</ele><time>2026-04-18T08:09:26.001Z</time></trkpt><trkpt lat="43.5421457902247" lon="10.821192301206295"><ele>104.0</ele><time>2026-04-18T08:09:27.001Z</time></trkpt><trkpt lat="43.54206279889517" lon="10.821346758186882"><ele>104.0</ele><time>2026-04-18T08:09:28.001Z</time></trkpt><trkpt lat="43.54197009029206" lon="10.821513568145061"><ele>108.0</ele><time>2026-04-18T08:09:29.001Z</time></trkpt><trkpt lat="43.54187021204698" lon="10.821653928591655"><ele>112.0</ele><time>2026-04-18T08:09:30.001Z</time></trkpt><trkpt lat="43.5418261812672" lon="10.821823994030815"><ele>116.0</ele><time>2026-04-18T08:09:31.001Z</time></trkpt><trkpt lat="43.54179280980192" lon="10.821973801034021"><ele>120.0</ele><time>2026-04-18T08:09:32.001Z</time></trkpt><trkpt lat="43.54177590770066" lon="10.822129042921533"><ele>120.5</ele><time>2026-04-18T08:09:33.001Z</time></trkpt><trkpt lat="43.541764439087856" lon="10.822294701436899"><ele>121.0</ele><time>2026-04-18T08:09:34.001Z</time></trkpt><trkpt lat="43.54176268626524" lon="10.82247146746959"><ele>121.5</ele><time>2026-04-18T08:09:35.001Z</time></trkpt><trkpt lat="43.54176228526688" lon="10.82265002146238"><ele>122.0</ele><time>2026-04-18T08:09:36.001Z</time></trkpt><trkpt lat="43.54175121322908" lon="10.822812460279138"><ele>122.75</ele><time>2026-04-18T08:09:37.001Z</time></trkpt><trkpt lat="43.54172169109376" lon="10.822971884420257"><ele>123.5</ele><time>2026-04-18T08:09:38.001Z</time></trkpt><trkpt lat="43.54167533114495" lon="10.823144722847196"><ele>124.25</ele><time>2026-04-18T08:09:39.001Z</time></trkpt><trkpt lat="43.541620067238625" lon="10.823328357636143"><ele>125.0</ele><time>2026-04-18T08:09:40.001Z</time></trkpt><trkpt lat="43.541565092064275" lon="10.823511900687556"><ele>125.0</ele><time>2026-04-18T08:09:41.001Z</time></trkpt><trkpt lat="43.541511882712754" lon="10.823712345566474"><ele>125.0</ele><time>2026-04-18T08:09:42.001Z</time></trkpt><trkpt lat="43.54145310829706" lon="10.8239159583206"><ele>125.0</ele><time>2026-04-18T08:09:43.001Z</time></trkpt><trkpt lat="43.54138631861683" lon="10.8241170907575"><ele>124.0</ele><time>2026-04-18T08:09:44.001Z</time></trkpt><trkpt lat="43.541318257267015" lon="10.824318276696744"><ele>123.0</ele><time>2026-04-18T08:09:45.001Z</time></trkpt><trkpt lat="43.54125180830097" lon="10.824515646236446"><ele>122.0</ele><time>2026-04-18T08:09:46.001Z</time></trkpt><trkpt lat="43.541188995197714" lon="10.824710630054794"><ele>128.33333333333331</ele><time>2026-04-18T08:09:47.001Z</time></trkpt><trkpt lat="43.54112979927552" lon="10.824901361140537"><ele>134.66666666666666</ele><time>2026-04-18T08:09:48.001Z</time></trkpt><trkpt lat="43.541075710672075" lon="10.825100246806239"><ele>141.0</ele><time>2026-04-18T08:09:49.001Z</time></trkpt><trkpt lat="43.541023289354015" lon="10.825302493435466"><ele>141.0</ele><time>2026-04-18T08:09:50.001Z</time></trkpt><trkpt lat="43.540966369462915" lon="10.825518040855295"><ele>141.0</ele><time>2026-04-18T08:09:51.001Z</time></trkpt><trkpt lat="43.54090188499596" lon="10.825743958887113"><ele>141.0</ele><time>2026-04-18T08:09:52.001Z</time></trkpt><trkpt lat="43.54083765802423" lon="10.825976603109632"><ele>141.66666666666666</ele><time>2026-04-18T08:09:53.001Z</time></trkpt><trkpt lat="43.54078649042835" lon="10.82620238618835"><ele>142.33333333333331</ele><time>2026-04-18T08:09:54.001Z</time></trkpt><trkpt lat="43.5407368977438" lon="10.826410743575847"><ele>143.0</ele><time>2026-04-18T08:09:55.001Z</time></trkpt><trkpt lat="43.54068387029326" lon="10.82660308430844"><ele>143.0</ele><time>2026-04-18T08:09:56.001Z</time></trkpt><trkpt lat="43.5406358099218" lon="10.826795654918735"><ele>143.0</ele><time>2026-04-18T08:09:57.001Z</time></trkpt><trkpt lat="43.54058320361842" lon="10.826988254182947"><ele>143.0</ele><time>2026-04-18T08:09:58.001Z</time></trkpt><trkpt lat="43.54052938483023" lon="10.82717131151692"><ele>143.0</ele><time>2026-04-18T08:09:59.001Z</time></trkpt><trkpt lat="43.54047178132676" lon="10.827339127543581"><ele>142.5</ele><time>2026-04-18T08:10:00.001Z</time></trkpt><trkpt lat="43.54040373122496" lon="10.827496234540826"><ele>142.0</ele><time>2026-04-18T08:10:01.002Z</time></trkpt><trkpt lat="43.540316777383765" lon="10.827665407420785"><ele>141.5</ele><time>2026-04-18T08:10:02.002Z</time></trkpt><trkpt lat="43.540221883257715" lon="10.82783470480813"><ele>141.0</ele><time>2026-04-18T08:10:03.002Z</time></trkpt><trkpt lat="43.540147573526916" lon="10.827975616009285"><ele>143.0</ele><time>2026-04-18T08:10:04.002Z</time></trkpt><trkpt lat="43.540091406528234" lon="10.828078374685825"><ele>145.0</ele><time>2026-04-18T08:10:05.002Z</time></trkpt><trkpt lat="43.54005253007401" lon="10.828153749605736"><ele>147.0</ele><time>2026-04-18T08:10:06.002Z</time></trkpt><trkpt lat="43.54002746666184" lon="10.828280201706724"><ele>149.0</ele><time>2026-04-18T08:10:08.002Z</time></trkpt><trkpt lat="43.54005310622725" lon="10.828474875965178"><ele>151.0</ele><time>2026-04-18T08:10:10.002Z</time></trkpt><trkpt lat="43.540069338832375" lon="10.828609740855724"><ele>151.25</ele><time>2026-04-18T08:10:11.002Z</time></trkpt><trkpt lat="43.54008837657088" lon="10.82876851177589"><ele>151.5</ele><time>2026-04-18T08:10:12.002Z</time></trkpt><trkpt lat="43.540115914668256" lon="10.828939656727078"><ele>151.75</ele><time>2026-04-18T08:10:13.002Z</time></trkpt><trkpt lat="43.54014106980065" lon="10.829112888983932"><ele>152.0</ele><time>2026-04-18T08:10:14.002Z</time></trkpt><trkpt lat="43.54015953846393" lon="10.829303236231052"><ele>152.33333333333331</ele><time>2026-04-18T08:10:15.002Z</time></trkpt><trkpt lat="43.540182425448975" lon="10.829513360577392"><ele>152.66666666666666</ele><time>2026-04-18T08:10:16.002Z</time></trkpt><trkpt lat="43.54020998451859" lon="10.829728903177818"><ele>153.0</ele><time>2026-04-18T08:10:17.002Z</time></trkpt><trkpt lat="43.54023387670613" lon="10.829930304887457"><ele>154.33333333333334</ele><time>2026-04-18T08:10:18.002Z</time></trkpt><trkpt lat="43.5402532894021" lon="10.830146371317197"><ele>155.66666666666669</ele><time>2026-04-18T08:10:19.002Z</time></trkpt><trkpt lat="43.540264728878796" lon="10.830357052556336"><ele>157.0</ele><time>2026-04-18T08:10:20.002Z</time></trkpt><trkpt lat="43.540265981564765" lon="10.830572990740976"><ele>157.0</ele><time>2026-04-18T08:10:21.002Z</time></trkpt><trkpt lat="43.54025859336949" lon="10.830796235047726"><ele>157.0</ele><time>2026-04-18T08:10:22.002Z</time></trkpt><trkpt lat="43.54024750095884" lon="10.831030402084846"><ele>157.0</ele><time>2026-04-18T08:10:23.002Z</time></trkpt><trkpt lat="43.54023917695968" lon="10.831249502009433"><ele>158.25</ele><time>2026-04-18T08:10:24.002Z</time></trkpt><trkpt lat="43.540228123785276" lon="10.831460589814332"><ele>159.5</ele><time>2026-04-18T08:10:25.002Z</time></trkpt><trkpt lat="43.54021757568016" lon="10.831658860399214"><ele>160.75</ele><time>2026-04-18T08:10:26.002Z</time></trkpt><trkpt lat="43.540209584241296" lon="10.83184420728713"><ele>162.0</ele><time>2026-04-18T08:10:27.002Z</time></trkpt><trkpt lat="43.54021173772699" lon="10.832013924161831"><ele>162.25</ele><time>2026-04-18T08:10:28.002Z</time></trkpt><trkpt lat="43.540204929076424" lon="10.832182462659858"><ele>162.5</ele><time>2026-04-18T08:10:29.002Z</time></trkpt><trkpt lat="43.54023115108576" lon="10.832359598840217"><ele>162.75</ele><time>2026-04-18T08:10:30.002Z</time></trkpt><trkpt lat="43.54027822175578" lon="10.832541250250634"><ele>163.0</ele><time>2026-04-18T08:10:31Z</time></trkpt><trkpt lat="43.54031471450241" lon="10.832733351822185"><ele>163.0</ele><time>2026-04-18T08:10:32Z</time></trkpt><trkpt lat="43.54034230686593" lon="10.832910582812257"><ele>163.0</ele><time>2026-04-18T08:10:33Z</time></trkpt><trkpt lat="43.540358272365644" lon="10.833069386405624"><ele>163.0</ele><time>2026-04-18T08:10:34Z</time></trkpt><trkpt lat="43.54036494181763" lon="10.833228957397266"><ele>163.0</ele><time>2026-04-18T08:10:35Z</time></trkpt><trkpt lat="43.54036384754577" lon="10.833414980949273"><ele>162.0</ele><time>2026-04-18T08:10:36Z</time></trkpt><trkpt lat="43.54036031407668" lon="10.833623710091384"><ele>161.0</ele><time>2026-04-18T08:10:37Z</time></trkpt><trkpt lat="43.54035195763864" lon="10.833844649931889"><ele>160.0</ele><time>2026-04-18T08:10:38Z</time></trkpt><trkpt lat="43.54032713706563" lon="10.834065558439848"><ele>160.0</ele><time>2026-04-18T08:10:39Z</time></trkpt><trkpt lat="43.54031718323447" lon="10.834290600304723"><ele>160.0</ele><time>2026-04-18T08:10:40Z</time></trkpt><trkpt lat="43.54032376378366" lon="10.834516470895062"><ele>160.0</ele><time>2026-04-18T08:10:41Z</time></trkpt><trkpt lat="43.54029754828175" lon="10.834733262939766"><ele>160.0</ele><time>2026-04-18T08:10:42Z</time></trkpt><trkpt lat="43.54030190833763" lon="10.834950648765764"><ele>160.0</ele><time>2026-04-18T08:10:43Z</time></trkpt><trkpt lat="43.54029348252158" lon="10.835147359162477"><ele>160.0</ele><time>2026-04-18T08:10:44Z</time></trkpt><trkpt lat="43.540286657471256" lon="10.835331495419814"><ele>160.0</ele><time>2026-04-18T08:10:45Z</time></trkpt><trkpt lat="43.5402599509242" lon="10.835521870162951"><ele>160.0</ele><time>2026-04-18T08:10:46Z</time></trkpt><trkpt lat="43.540265672915524" lon="10.835704891535132"><ele>160.0</ele><time>2026-04-18T08:10:47Z</time></trkpt><trkpt lat="43.540254438569086" lon="10.835874958942899"><ele>160.0</ele><time>2026-04-18T08:10:48Z</time></trkpt><trkpt lat="43.540244031478665" lon="10.836055920936987"><ele>160.0</ele><time>2026-04-18T08:10:49Z</time></trkpt><trkpt lat="43.54023591209014" lon="10.836230285105461"><ele>159.25</ele><time>2026-04-18T08:10:50Z</time></trkpt><trkpt lat="43.54022658196025" lon="10.836409642903101"><ele>158.5</ele><time>2026-04-18T08:10:51Z</time></trkpt><trkpt lat="43.540221519575844" lon="10.836589710496883"><ele>157.75</ele><time>2026-04-18T08:10:52Z</time></trkpt><trkpt lat="43.540223690485966" lon="10.836761576606968"><ele>157.0</ele><time>2026-04-18T08:10:53Z</time></trkpt><trkpt lat="43.540229113052426" lon="10.836955215926618"><ele>157.0</ele><time>2026-04-18T08:10:54Z</time></trkpt><trkpt lat="43.54024400883578" lon="10.837154283198549"><ele>157.0</ele><time>2026-04-18T08:10:55Z</time></trkpt><trkpt lat="43.54025385200771" lon="10.83736368851058"><ele>157.0</ele><time>2026-04-18T08:10:56Z</time></trkpt><trkpt lat="43.54028608115413" lon="10.837574465708673"><ele>157.66666666666669</ele><time>2026-04-18T08:10:57Z</time></trkpt><trkpt lat="43.54032327062026" lon="10.83777884693068"><ele>158.33333333333334</ele><time>2026-04-18T08:10:58Z</time></trkpt><trkpt lat="43.5403745299537" lon="10.837978713817426"><ele>159.0</ele><time>2026-04-18T08:10:59Z</time></trkpt><trkpt lat="43.54041253823851" lon="10.83819319742873"><ele>159.0</ele><time>2026-04-18T08:11:00Z</time></trkpt><trkpt lat="43.54044456727088" lon="10.83839605345284"><ele>159.0</ele><time>2026-04-18T08:11:01Z</time></trkpt><trkpt lat="43.54047579537184" lon="10.838588946142034"><ele>159.0</ele><time>2026-04-18T08:11:02Z</time></trkpt><trkpt lat="43.540507635494635" lon="10.838772557389905"><ele>159.0</ele><time>2026-04-18T08:11:03Z</time></trkpt><trkpt lat="43.54054030004906" lon="10.838942902250963"><ele>160.8</ele><time>2026-04-18T08:11:04Z</time></trkpt><trkpt lat="43.54056937210986" lon="10.839094594935457"><ele>162.60000000000002</ele><time>2026-04-18T08:11:05Z</time></trkpt><trkpt lat="43.540594417401074" lon="10.839237270125798"><ele>164.4</ele><time>2026-04-18T08:11:06Z</time></trkpt><trkpt lat="43.540624950850486" lon="10.839397640236085"><ele>166.20000000000002</ele><time>2026-04-18T08:11:07Z</time></trkpt><trkpt lat="43.540655520721224" lon="10.839533886566304"><ele>168.0</ele><time>2026-04-18T08:11:08Z</time></trkpt><trkpt lat="43.540666588781754" lon="10.839637898457035"><ele>169.4</ele><time>2026-04-18T08:11:09Z</time></trkpt><trkpt lat="43.54057619992047" lon="10.839639695311782"><ele>170.8</ele><time>2026-04-18T08:11:12.001Z</time></trkpt><trkpt lat="43.540497059879016" lon="10.839577959675761"><ele>172.2</ele><time>2026-04-18T08:11:13.001Z</time></trkpt><trkpt lat="43.54038518399491" lon="10.839546888921728"><ele>173.6</ele><time>2026-04-18T08:11:14.001Z</time></trkpt><trkpt lat="43.54027276766961" lon="10.839560654642193"><ele>175.0</ele><time>2026-04-18T08:11:15.001Z</time></trkpt><trkpt lat="43.54020217679932" lon="10.839498668509123"><ele>175.16666666666669</ele><time>2026-04-18T08:11:16.001Z</time></trkpt><trkpt lat="43.540138398933955" lon="10.839463476211984"><ele>175.33333333333334</ele><time>2026-04-18T08:11:17.001Z</time></trkpt><trkpt lat="43.540079112869414" lon="10.839420093986691"><ele>175.5</ele><time>2026-04-18T08:11:18.001Z</time></trkpt><trkpt lat="43.540003306031196" lon="10.83935595979123"><ele>175.66666666666666</ele><time>2026-04-18T08:11:19.001Z</time></trkpt><trkpt lat="43.539919336193634" lon="10.83928342347871"><ele>175.83333333333331</ele><time>2026-04-18T08:11:20.001Z</time></trkpt><trkpt lat="43.539826424186444" lon="10.839203021352441"><ele>176.0</ele><time>2026-04-18T08:11:21.001Z</time></trkpt><trkpt lat="43.53974194149887" lon="10.839129913607325"><ele>174.8</ele><time>2026-04-18T08:11:22.001Z</time></trkpt><trkpt lat="43.5396585622327" lon="10.83906286148616"><ele>173.60000000000002</ele><time>2026-04-18T08:11:23.001Z</time></trkpt><trkpt lat="43.53957366473922" lon="10.838996097018564"><ele>172.4</ele><time>2026-04-18T08:11:24.001Z</time></trkpt><trkpt lat="43.53949564442761" lon="10.838934345403535"><ele>171.2</ele><time>2026-04-18T08:11:25.001Z</time></trkpt><trkpt lat="43.53943192475576" lon="10.838882211187116"><ele>170.0</ele><time>2026-04-18T08:11:26.001Z</time></trkpt><trkpt lat="43.539328764256915" lon="10.83879707408553"><ele>169.8</ele><time>2026-04-18T08:11:28.001Z</time></trkpt><trkpt lat="43.53922304813394" lon="10.83870282790462"><ele>169.6</ele><time>2026-04-18T08:11:30.001Z</time></trkpt><trkpt lat="43.53916753854771" lon="10.838652576122003"><ele>169.39999999999998</ele><time>2026-04-18T08:11:31.001Z</time></trkpt><trkpt lat="43.5391144817042" lon="10.838604544787277"><ele>169.2</ele><time>2026-04-18T08:11:32.001Z</time></trkpt><trkpt lat="43.53901577498393" lon="10.838518552934161"><ele>169.0</ele><time>2026-04-18T08:11:34.001Z</time></trkpt><trkpt lat="43.538909227941396" lon="10.838430388210547"><ele>168.2</ele><time>2026-04-18T08:11:36.001Z</time></trkpt><trkpt lat="43.538829809639395" lon="10.838369481812881"><ele>167.39999999999998</ele><time>2026-04-18T08:11:37.001Z</time></trkpt><trkpt lat="43.53874753775539" lon="10.838318088704465"><ele>166.6</ele><time>2026-04-18T08:11:38.001Z</time></trkpt><trkpt lat="43.538667947617704" lon="10.838249824647251"><ele>165.8</ele><time>2026-04-18T08:11:39.001Z</time></trkpt><trkpt lat="43.538588260663644" lon="10.838182724399937"><ele>165.0</ele><time>2026-04-18T08:11:40.001Z</time></trkpt><trkpt lat="43.538513765232345" lon="10.838119167029292"><ele>165.0</ele><time>2026-04-18T08:11:41.001Z</time></trkpt><trkpt lat="43.53844701886409" lon="10.838061417948651"><ele>165.0</ele><time>2026-04-18T08:11:42.001Z</time></trkpt><trkpt lat="43.53838381061872" lon="10.838006730076668"><ele>165.0</ele><time>2026-04-18T08:11:43.001Z</time></trkpt><trkpt lat="43.53830597905175" lon="10.837939390068156"><ele>165.0</ele><time>2026-04-18T08:11:45.001Z</time></trkpt><trkpt lat="43.53819345037818" lon="10.837842030036828"><ele>165.0</ele><time>2026-04-18T08:11:47.001Z</time></trkpt><trkpt lat="43.538125437872935" lon="10.837783185503389"><ele>165.00000000000003</ele><time>2026-04-18T08:11:48.001Z</time></trkpt><trkpt lat="43.53806246363299" lon="10.837728700115727"><ele>165.0</ele><time>2026-04-18T08:11:49.001Z</time></trkpt><trkpt lat="43.537992856788804" lon="10.837668476081642"><ele>165.0</ele><time>2026-04-18T08:11:50.001Z</time></trkpt><trkpt lat="43.53793736770742" lon="10.837620466847447"><ele>165.0</ele><time>2026-04-18T08:11:51.001Z</time></trkpt><trkpt lat="43.53788272577695" lon="10.837573190802203"><ele>165.0</ele><time>2026-04-18T08:11:52.002Z</time></trkpt><trkpt lat="43.537825496449294" lon="10.837523677154765"><ele>165.00000000000003</ele><time>2026-04-18T08:11:53.002Z</time></trkpt><trkpt lat="43.53775747263955" lon="10.837470477580355"><ele>165.0</ele><time>2026-04-18T08:11:54.002Z</time></trkpt><trkpt lat="43.537688171483744" lon="10.837415219766038"><ele>163.6</ele><time>2026-04-18T08:11:55.002Z</time></trkpt><trkpt lat="43.53761085144691" lon="10.83738204526854"><ele>162.2</ele><time>2026-04-18T08:11:56.002Z</time></trkpt><trkpt lat="43.537530387387356" lon="10.837313891729675"><ele>160.8</ele><time>2026-04-18T08:11:57.002Z</time></trkpt><trkpt lat="43.537423792550285" lon="10.837277507749574"><ele>159.4</ele><time>2026-04-18T08:11:58.002Z</time></trkpt><trkpt lat="43.53731961694217" lon="10.837247093126962"><ele>158.0</ele><time>2026-04-18T08:11:59.002Z</time></trkpt><trkpt lat="43.537203461492965" lon="10.837217113837765"><ele>158.0</ele><time>2026-04-18T08:12:00.002Z</time></trkpt><trkpt lat="43.537097860532896" lon="10.83719039623241"><ele>158.0</ele><time>2026-04-18T08:12:01.002Z</time></trkpt><trkpt lat="43.537016256360985" lon="10.837147768186602"><ele>158.0</ele><time>2026-04-18T08:12:02.002Z</time></trkpt><trkpt lat="43.53696004378425" lon="10.837075492149841"><ele>158.0</ele><time>2026-04-18T08:12:03.002Z</time></trkpt><trkpt lat="43.53688225369114" lon="10.836996011484095"><ele>158.0</ele><time>2026-04-18T08:12:04.002Z</time></trkpt><trkpt lat="43.53679512452123" lon="10.83691985126853"><ele>157.8</ele><time>2026-04-18T08:12:05.002Z</time></trkpt><trkpt lat="43.536701082067665" lon="10.836848194462814"><ele>157.60000000000002</ele><time>2026-04-18T08:12:06.002Z</time></trkpt><trkpt lat="43.536605696969374" lon="10.836813386129773"><ele>157.39999999999998</ele><time>2026-04-18T08:12:07.002Z</time></trkpt><trkpt lat="43.536532271839164" lon="10.836740569321735"><ele>157.2</ele><time>2026-04-18T08:12:08.002Z</time></trkpt><trkpt lat="43.536456376054325" lon="10.836703091995231"><ele>157.0</ele><time>2026-04-18T08:12:09.002Z</time></trkpt><trkpt lat="43.53639310061983" lon="10.836610667021482"><ele>157.0</ele><time>2026-04-18T08:12:10.002Z</time></trkpt><trkpt lat="43.53631504726216" lon="10.836547952256455"><ele>157.0</ele><time>2026-04-18T08:12:11.002Z</time></trkpt><trkpt lat="43.536252852364946" lon="10.836461833585982"><ele>157.0</ele><time>2026-04-18T08:12:12.002Z</time></trkpt><trkpt lat="43.53618461695474" lon="10.836381599762973"><ele>157.0</ele><time>2026-04-18T08:12:13.002Z</time></trkpt><trkpt lat="43.53611108775895" lon="10.836330614629631"><ele>157.0</ele><time>2026-04-18T08:12:14.002Z</time></trkpt><trkpt lat="43.53602634698772" lon="10.836295941027773"><ele>157.0</ele><time>2026-04-18T08:12:15.002Z</time></trkpt><trkpt lat="43.53593320778151" lon="10.836260825255392"><ele>158.0</ele><time>2026-04-18T08:12:16.002Z</time></trkpt><trkpt lat="43.53586399359984" lon="10.836169260511463"><ele>159.0</ele><time>2026-04-18T08:12:17.002Z</time></trkpt><trkpt lat="43.53580512805597" lon="10.836072757935773"><ele>160.0</ele><time>2026-04-18T08:12:18.002Z</time></trkpt><trkpt lat="43.53572355805981" lon="10.835979312570588"><ele>161.0</ele><time>2026-04-18T08:12:19.002Z</time></trkpt><trkpt lat="43.53564427740256" lon="10.83585955297886"><ele>162.0</ele><time>2026-04-18T08:12:20.002Z</time></trkpt><trkpt lat="43.53555479469441" lon="10.83573304857586"><ele>162.0</ele><time>2026-04-18T08:12:21.002Z</time></trkpt><trkpt lat="43.53546797285711" lon="10.835611807063733"><ele>162.0</ele><time>2026-04-18T08:12:22.002Z</time></trkpt><trkpt lat="43.535394703289015" lon="10.835513688513837"><ele>162.0</ele><time>2026-04-18T08:12:23.002Z</time></trkpt><trkpt lat="43.53531479438194" lon="10.835430263887957"><ele>162.0</ele><time>2026-04-18T08:12:24.002Z</time></trkpt><trkpt lat="43.53524182904159" lon="10.835358991755902"><ele>162.0</ele><time>2026-04-18T08:12:25.002Z</time></trkpt><trkpt lat="43.535162372679615" lon="10.83529999129161"><ele>163.33333333333334</ele><time>2026-04-18T08:12:26.002Z</time></trkpt><trkpt lat="43.53506279162661" lon="10.83530268699556"><ele>164.66666666666666</ele><time>2026-04-18T08:12:27.002Z</time></trkpt><trkpt lat="43.53501174935754" lon="10.835235751144909"><ele>166.0</ele><time>2026-04-18T08:12:28.002Z</time></trkpt><trkpt lat="43.53494634117757" lon="10.835202661122997"><ele>167.33333333333331</ele><time>2026-04-18T08:12:29.002Z</time></trkpt><trkpt lat="43.53495689852665" lon="10.835061746785323"><ele>168.66666666666666</ele><time>2026-04-18T08:12:30.002Z</time></trkpt><trkpt lat="43.53492251054706" lon="10.834961329456815"><ele>170.0</ele><time>2026-04-18T08:12:31.002Z</time></trkpt><trkpt lat="43.53488022132032" lon="10.834840034314958"><ele>170.0</ele><time>2026-04-18T08:12:32.002Z</time></trkpt><trkpt lat="43.53482845424398" lon="10.83471008853528"><ele>170.0</ele><time>2026-04-18T08:12:33.002Z</time></trkpt><trkpt lat="43.534758966493186" lon="10.834576887623017"><ele>170.0</ele><time>2026-04-18T08:12:34.002Z</time></trkpt><trkpt lat="43.53469427646982" lon="10.834468760127823"><ele>170.0</ele><time>2026-04-18T08:12:35.003Z</time></trkpt><trkpt lat="43.534631323378804" lon="10.834375003710695"><ele>170.0</ele><time>2026-04-18T08:12:36.003Z</time></trkpt><trkpt lat="43.53455315310899" lon="10.834275623479872"><ele>170.4</ele><time>2026-04-18T08:12:37Z</time></trkpt><trkpt lat="43.534465313328326" lon="10.83417268406831"><ele>170.8</ele><time>2026-04-18T08:12:38Z</time></trkpt><trkpt lat="43.534377347478085" lon="10.834073414237295"><ele>171.2</ele><time>2026-04-18T08:12:39Z</time></trkpt><trkpt lat="43.534304305343355" lon="10.833994385218645"><ele>171.6</ele><time>2026-04-18T08:12:40Z</time></trkpt><trkpt lat="43.53424860606588" lon="10.83394002951835"><ele>172.0</ele><time>2026-04-18T08:12:41Z</time></trkpt><trkpt lat="43.53414036563501" lon="10.833855012760399"><ele>172.0</ele><time>2026-04-18T08:12:43Z</time></trkpt><trkpt lat="43.53407536997213" lon="10.8338165662307"><ele>172.0</ele><time>2026-04-18T08:12:44Z</time></trkpt><trkpt lat="43.53400758237981" lon="10.83376894116059"><ele>172.0</ele><time>2026-04-18T08:12:45Z</time></trkpt><trkpt lat="43.53395135328912" lon="10.833708885094428"><ele>172.0</ele><time>2026-04-18T08:12:46Z</time></trkpt><trkpt lat="43.53389591279093" lon="10.8336327323201"><ele>172.0</ele><time>2026-04-18T08:12:47Z</time></trkpt><trkpt lat="43.533836546579316" lon="10.833536106727763"><ele>172.0</ele><time>2026-04-18T08:12:48Z</time></trkpt><trkpt lat="43.53377412162896" lon="10.833420184269205"><ele>171.25</ele><time>2026-04-18T08:12:49Z</time></trkpt><trkpt lat="43.5337052235113" lon="10.833304497001492"><ele>170.5</ele><time>2026-04-18T08:12:50Z</time></trkpt><trkpt lat="43.533621269550075" lon="10.833198012567083"><ele>169.75</ele><time>2026-04-18T08:12:51Z</time></trkpt><trkpt lat="43.53354962882473" lon="10.83305933866376"><ele>169.0</ele><time>2026-04-18T08:12:52Z</time></trkpt><trkpt lat="43.5334825603222" lon="10.832911926655804"><ele>169.0</ele><time>2026-04-18T08:12:53Z</time></trkpt><trkpt lat="43.53342438738795" lon="10.832768430100213"><ele>169.0</ele><time>2026-04-18T08:12:54Z</time></trkpt><trkpt lat="43.53336746324894" lon="10.832614888930829"><ele>169.0</ele><time>2026-04-18T08:12:55Z</time></trkpt><trkpt lat="43.53330526853418" lon="10.83247823680474"><ele>169.0</ele><time>2026-04-18T08:12:56Z</time></trkpt><trkpt lat="43.533226455001426" lon="10.832380953357418"><ele>169.2</ele><time>2026-04-18T08:12:57Z</time></trkpt><trkpt lat="43.53316672404274" lon="10.832274758237222"><ele>169.39999999999998</ele><time>2026-04-18T08:12:58Z</time></trkpt><trkpt lat="43.53310370139534" lon="10.832173971024119"><ele>169.6</ele><time>2026-04-18T08:12:59Z</time></trkpt><trkpt lat="43.53302970819089" lon="10.832068581385773"><ele>169.8</ele><time>2026-04-18T08:13:00Z</time></trkpt><trkpt lat="43.532959320637694" lon="10.831960443704853"><ele>170.0</ele><time>2026-04-18T08:13:01Z</time></trkpt><trkpt lat="43.53289411092679" lon="10.831834653252013"><ele>170.0</ele><time>2026-04-18T08:13:02.001Z</time></trkpt><trkpt lat="43.532831211159795" lon="10.83168863654854"><ele>170.0</ele><time>2026-04-18T08:13:03.001Z</time></trkpt><trkpt lat="43.53275797501097" lon="10.83154686852317"><ele>170.0</ele><time>2026-04-18T08:13:04.001Z</time></trkpt><trkpt lat="43.53271188309723" lon="10.831421681487003"><ele>170.0</ele><time>2026-04-18T08:13:05.001Z</time></trkpt><trkpt lat="43.53265909672194" lon="10.831325561728255"><ele>170.0</ele><time>2026-04-18T08:13:06.001Z</time></trkpt><trkpt lat="43.53258229750725" lon="10.831211928490141"><ele>170.0</ele><time>2026-04-18T08:13:07.001Z</time></trkpt><trkpt lat="43.53248974385144" lon="10.831124826740943"><ele>170.0</ele><time>2026-04-18T08:13:08.001Z</time></trkpt><trkpt lat="43.53239820054775" lon="10.831036753694402"><ele>170.0</ele><time>2026-04-18T08:13:09.001Z</time></trkpt><trkpt lat="43.53229671889156" lon="10.83096488250699"><ele>170.0</ele><time>2026-04-18T08:13:10.001Z</time></trkpt><trkpt lat="43.53219565449359" lon="10.830903985251767"><ele>170.0</ele><time>2026-04-18T08:13:11.001Z</time></trkpt><trkpt lat="43.53210373568311" lon="10.830845864811392"><ele>172.2</ele><time>2026-04-18T08:13:12.001Z</time></trkpt><trkpt lat="43.53201001390218" lon="10.830792555187042"><ele>174.4</ele><time>2026-04-18T08:13:13.001Z</time></trkpt><trkpt lat="43.53191582471654" lon="10.830771947075162"><ele>176.60000000000002</ele><time>2026-04-18T08:13:14.001Z</time></trkpt><trkpt lat="43.53182463852904" lon="10.830739284126293"><ele>178.8</ele><time>2026-04-18T08:13:15.001Z</time></trkpt><trkpt lat="43.53172704709366" lon="10.830688840567275"><ele>181.0</ele><time>2026-04-18T08:13:16.001Z</time></trkpt><trkpt lat="43.531616889228225" lon="10.830625645707402"><ele>181.0</ele><time>2026-04-18T08:13:17.001Z</time></trkpt><trkpt lat="43.53150730332445" lon="10.830563285504269"><ele>181.0</ele><time>2026-04-18T08:13:18.001Z</time></trkpt><trkpt lat="43.53140967212697" lon="10.830508042462824"><ele>181.0</ele><time>2026-04-18T08:13:19.001Z</time></trkpt><trkpt lat="43.53132437526997" lon="10.830461193469578"><ele>181.0</ele><time>2026-04-18T08:13:20.001Z</time></trkpt><trkpt lat="43.531239796177424" lon="10.830417825948869"><ele>181.0</ele><time>2026-04-18T08:13:21.001Z</time></trkpt><trkpt lat="43.53116178568815" lon="10.830358357006531"><ele>180.5</ele><time>2026-04-18T08:13:22.001Z</time></trkpt><trkpt lat="43.53109764347447" lon="10.830284658891136"><ele>180.0</ele><time>2026-04-18T08:13:23.001Z</time></trkpt><trkpt lat="43.53107129703534" lon="10.830187729962475"><ele>179.5</ele><time>2026-04-18T08:13:24.001Z</time></trkpt><trkpt lat="43.531043946566854" lon="10.830090032162117"><ele>179.0</ele><time>2026-04-18T08:13:25.001Z</time></trkpt><trkpt lat="43.531019494882294" lon="10.82999226996597"><ele>178.5</ele><time>2026-04-18T08:13:26.001Z</time></trkpt><trkpt lat="43.531000946629504" lon="10.829886924750838"><ele>178.0</ele><time>2026-04-18T08:13:27.001Z</time></trkpt><trkpt lat="43.530987290203726" lon="10.829753026459871"><ele>178.0</ele><time>2026-04-18T08:13:28.001Z</time></trkpt><trkpt lat="43.53097575639538" lon="10.829638090135935"><ele>178.0</ele><time>2026-04-18T08:13:29.001Z</time></trkpt><trkpt lat="43.530965716965724" lon="10.829524102719388"><ele>178.0</ele><time>2026-04-18T08:13:30.001Z</time></trkpt><trkpt lat="43.5309555454621" lon="10.829416875098664"><ele>178.0</ele><time>2026-04-18T08:13:31.001Z</time></trkpt><trkpt lat="43.53094453232928" lon="10.8293162384787"><ele>178.0</ele><time>2026-04-18T08:13:32.001Z</time></trkpt><trkpt lat="43.53091890115584" lon="10.829214645702898"><ele>178.0</ele><time>2026-04-18T08:13:33.001Z</time></trkpt><trkpt lat="43.53090201334529" lon="10.829114432035782"><ele>177.66666666666669</ele><time>2026-04-18T08:13:34.001Z</time></trkpt><trkpt lat="43.53086854318965" lon="10.829020340766427"><ele>177.33333333333334</ele><time>2026-04-18T08:13:35.001Z</time></trkpt><trkpt lat="43.53083073669715" lon="10.828913538832857"><ele>177.0</ele><time>2026-04-18T08:13:36.001Z</time></trkpt><trkpt lat="43.530785256035024" lon="10.828819435355383"><ele>176.66666666666666</ele><time>2026-04-18T08:13:37.001Z</time></trkpt><trkpt lat="43.53072224297863" lon="10.828715990655557"><ele>176.33333333333331</ele><time>2026-04-18T08:13:38.001Z</time></trkpt><trkpt lat="43.530652994278874" lon="10.828606236834522"><ele>176.0</ele><time>2026-04-18T08:13:39.001Z</time></trkpt><trkpt lat="43.53058133609327" lon="10.828503929865807"><ele>175.20000000000002</ele><time>2026-04-18T08:13:40.001Z</time></trkpt><trkpt lat="43.53050381678988" lon="10.828401883399819"><ele>174.4</ele><time>2026-04-18T08:13:41.001Z</time></trkpt><trkpt lat="43.53044397783277" lon="10.828314532711783"><ele>173.6</ele><time>2026-04-18T08:13:42.001Z</time></trkpt><trkpt lat="43.53038357927824" lon="10.828231451024179"><ele>172.8</ele><time>2026-04-18T08:13:43.001Z</time></trkpt><trkpt lat="43.53032778893044" lon="10.828166405810467"><ele>172.0</ele><time>2026-04-18T08:13:44.001Z</time></trkpt><trkpt lat="43.53023765064918" lon="10.828069240147297"><ele>171.33333333333334</ele><time>2026-04-18T08:13:46.001Z</time></trkpt><trkpt lat="43.53015774998282" lon="10.827976184479095"><ele>170.66666666666669</ele><time>2026-04-18T08:13:48.001Z</time></trkpt><trkpt lat="43.53012257640813" lon="10.82789194997428"><ele>170.0</ele><time>2026-04-18T08:13:50.002Z</time></trkpt><trkpt lat="43.530059287133724" lon="10.82781856560119"><ele>169.33333333333334</ele><time>2026-04-18T08:13:54.002Z</time></trkpt><trkpt lat="43.530008726238385" lon="10.827736058734224"><ele>168.66666666666666</ele><time>2026-04-18T08:13:56.002Z</time></trkpt><trkpt lat="43.52995840369829" lon="10.827656455494605"><ele>168.0</ele><time>2026-04-18T08:13:58.002Z</time></trkpt><trkpt lat="43.52991617231659" lon="10.827577391306466"><ele>168.0</ele><time>2026-04-18T08:14:01.002Z</time></trkpt><trkpt lat="43.529864942900744" lon="10.827478542071955"><ele>168.0</ele><time>2026-04-18T08:14:04.002Z</time></trkpt><trkpt lat="43.52983339157857" lon="10.827374538624392"><ele>168.0</ele><time>2026-04-18T08:14:07.002Z</time></trkpt><trkpt lat="43.52978414338651" lon="10.827305672319142"><ele>168.0</ele><time>2026-04-18T08:14:10.002Z</time></trkpt><trkpt lat="43.52974290027843" lon="10.827207279109684"><ele>168.0</ele><time>2026-04-18T08:14:13.002Z</time></trkpt><trkpt lat="43.529689499463686" lon="10.827096309107366"><ele>168.0</ele><time>2026-04-18T08:14:16.002Z</time></trkpt><trkpt lat="43.52962984942551" lon="10.827011568086604"><ele>168.0</ele><time>2026-04-18T08:14:18.002Z</time></trkpt><trkpt lat="43.5295818198826" lon="10.826937396651482"><ele>168.0</ele><time>2026-04-18T08:14:20.002Z</time></trkpt><trkpt lat="43.529535893354925" lon="10.826873799573058"><ele>168.0</ele><time>2026-04-18T08:14:29.002Z</time></trkpt><trkpt lat="43.529453687184386" lon="10.826763683418031"><ele>168.0</ele><time>2026-04-18T08:14:39.003Z</time></trkpt><trkpt lat="43.52943451388369" lon="10.826672227882671"><ele>168.0</ele><time>2026-04-18T08:14:40.003Z</time></trkpt><trkpt lat="43.5293941640432" lon="10.826593088383351"><ele>168.0</ele><time>2026-04-18T08:14:41.003Z</time></trkpt><trkpt lat="43.529343341367586" lon="10.826527931578308"><ele>165.4</ele><time>2026-04-18T08:14:42.003Z</time></trkpt><trkpt lat="43.52927319809868" lon="10.826394843847073"><ele>162.8</ele><time>2026-04-18T08:14:44Z</time></trkpt><trkpt lat="43.5292072987804" lon="10.826267095886369"><ele>160.2</ele><time>2026-04-18T08:14:46Z</time></trkpt><trkpt lat="43.52914433785668" lon="10.826112838071953"><ele>157.6</ele><time>2026-04-18T08:14:48Z</time></trkpt><trkpt lat="43.529099542897484" lon="10.826029736956496"><ele>155.0</ele><time>2026-04-18T08:14:49Z</time></trkpt><trkpt lat="43.52905662576664" lon="10.825945132572329"><ele>152.6</ele><time>2026-04-18T08:14:50Z</time></trkpt><trkpt lat="43.52898962148329" lon="10.82577658617546"><ele>150.2</ele><time>2026-04-18T08:14:52Z</time></trkpt><trkpt lat="43.52893869713255" lon="10.825683205247477"><ele>147.8</ele><time>2026-04-18T08:14:53Z</time></trkpt><trkpt lat="43.52890168994141" lon="10.82556424309141"><ele>145.4</ele><time>2026-04-18T08:14:54Z</time></trkpt><trkpt lat="43.52886661581331" lon="10.825438660440689"><ele>143.0</ele><time>2026-04-18T08:14:55Z</time></trkpt><trkpt lat="43.52885209784985" lon="10.825307995383453"><ele>143.0</ele><time>2026-04-18T08:14:56Z</time></trkpt><trkpt lat="43.528828662935304" lon="10.825199923090729"><ele>143.0</ele><time>2026-04-18T08:14:57Z</time></trkpt><trkpt lat="43.52878658295934" lon="10.825084470954792"><ele>143.0</ele><time>2026-04-18T08:14:58Z</time></trkpt><trkpt lat="43.528771037578146" lon="10.82498220096621"><ele>143.0</ele><time>2026-04-18T08:14:59Z</time></trkpt><trkpt lat="43.52874917445289" lon="10.824876820152708"><ele>143.0</ele><time>2026-04-18T08:15:00Z</time></trkpt><trkpt lat="43.52874040568239" lon="10.824769547753581"><ele>143.0</ele><time>2026-04-18T08:15:01Z</time></trkpt><trkpt lat="43.52870429637331" lon="10.824676897260831"><ele>141.8</ele><time>2026-04-18T08:15:02Z</time></trkpt><trkpt lat="43.528683575405054" lon="10.824577613475894"><ele>140.60000000000002</ele><time>2026-04-18T08:15:03Z</time></trkpt><trkpt lat="43.52866288580224" lon="10.824490493051695"><ele>139.39999999999998</ele><time>2026-04-18T08:15:04Z</time></trkpt><trkpt lat="43.52863295743783" lon="10.824348646189918"><ele>138.2</ele><time>2026-04-18T08:15:06Z</time></trkpt><trkpt lat="43.52859198625114" lon="10.824211902818897"><ele>137.0</ele><time>2026-04-18T08:15:08Z</time></trkpt><trkpt lat="43.528555576160144" lon="10.824085830077463"><ele>136.79999999999998</ele><time>2026-04-18T08:15:10.001Z</time></trkpt><trkpt lat="43.528518810858706" lon="10.823940904050934"><ele>136.6</ele><time>2026-04-18T08:15:12.001Z</time></trkpt><trkpt lat="43.52846810686226" lon="10.823801104582651"><ele>136.39999999999998</ele><time>2026-04-18T08:15:14.001Z</time></trkpt><trkpt lat="43.52843429919431" lon="10.823711165892094"><ele>136.2</ele><time>2026-04-18T08:15:15.001Z</time></trkpt><trkpt lat="43.528391761297954" lon="10.823640580566664"><ele>136.0</ele><time>2026-04-18T08:15:16.001Z</time></trkpt><trkpt lat="43.52833819955354" lon="10.82349621488652"><ele>134.6</ele><time>2026-04-18T08:15:18.001Z</time></trkpt><trkpt lat="43.528293113145246" lon="10.823400118679476"><ele>133.2</ele><time>2026-04-18T08:15:19.001Z</time></trkpt><trkpt lat="43.52823786037283" lon="10.823285672668343"><ele>131.8</ele><time>2026-04-18T08:15:20.001Z</time></trkpt><trkpt lat="43.52820031172563" lon="10.823167564937783"><ele>130.4</ele><time>2026-04-18T08:15:21.001Z</time></trkpt><trkpt lat="43.528141038727014" lon="10.82302931180015"><ele>129.0</ele><time>2026-04-18T08:15:22.001Z</time></trkpt><trkpt lat="43.5280801385121" lon="10.822892284880052"><ele>129.0</ele><time>2026-04-18T08:15:23.001Z</time></trkpt><trkpt lat="43.52801471361192" lon="10.822800240152596"><ele>129.0</ele><time>2026-04-18T08:15:24.001Z</time></trkpt><trkpt lat="43.527967286007815" lon="10.822706909045118"><ele>129.0</ele><time>2026-04-18T08:15:25.001Z</time></trkpt><trkpt lat="43.52794599351514" lon="10.822604934681738"><ele>129.0</ele><time>2026-04-18T08:15:26.001Z</time></trkpt><trkpt lat="43.52791025173047" lon="10.822527418959872"><ele>129.0</ele><time>2026-04-18T08:15:27.001Z</time></trkpt><trkpt lat="43.527866103550025" lon="10.822404314314136"><ele>129.0</ele><time>2026-04-18T08:15:29.001Z</time></trkpt><trkpt lat="43.52786761616529" lon="10.822285519273144"><ele>127.5</ele><time>2026-04-18T08:15:31.001Z</time></trkpt><trkpt lat="43.52788349443704" lon="10.8221953861721"><ele>126.0</ele><time>2026-04-18T08:15:33.001Z</time></trkpt><trkpt lat="43.52794026971779" lon="10.82215752902968"><ele>124.5</ele><time>2026-04-18T08:15:34.001Z</time></trkpt><trkpt lat="43.527984597248484" lon="10.822057933705453"><ele>123.0</ele><time>2026-04-18T08:15:35.001Z</time></trkpt><trkpt lat="43.52802139314818" lon="10.821928033520209"><ele>121.5</ele><time>2026-04-18T08:15:36.001Z</time></trkpt><trkpt lat="43.528039426172036" lon="10.821778287214359"><ele>120.0</ele><time>2026-04-18T08:15:37.001Z</time></trkpt><trkpt lat="43.52801467741972" lon="10.821604340330301"><ele>118.0</ele><time>2026-04-18T08:15:38.001Z</time></trkpt><trkpt lat="43.52799076935588" lon="10.821415034355145"><ele>116.0</ele><time>2026-04-18T08:15:39.001Z</time></trkpt><trkpt lat="43.527968186140235" lon="10.821217664396972"><ele>114.0</ele><time>2026-04-18T08:15:40.001Z</time></trkpt><trkpt lat="43.52795098527895" lon="10.821017207000036"><ele>112.0</ele><time>2026-04-18T08:15:41.001Z</time></trkpt><trkpt lat="43.527926243111935" lon="10.820847830146366"><ele>111.66666666666667</ele><time>2026-04-18T08:15:42.001Z</time></trkpt><trkpt lat="43.52789051479311" lon="10.82071904065849"><ele>111.33333333333334</ele><time>2026-04-18T08:15:43.001Z</time></trkpt><trkpt lat="43.52787011413608" lon="10.820615192524901"><ele>111.0</ele><time>2026-04-18T08:15:44.001Z</time></trkpt><trkpt lat="43.52785015913422" lon="10.820532472032257"><ele>110.66666666666666</ele><time>2026-04-18T08:15:45.001Z</time></trkpt><trkpt lat="43.527763911645195" lon="10.820466119301273"><ele>110.33333333333333</ele><time>2026-04-18T08:15:47.001Z</time></trkpt><trkpt lat="43.52767647144747" lon="10.820433989574584"><ele>110.0</ele><time>2026-04-18T08:15:49.001Z</time></trkpt><trkpt lat="43.52760298945279" lon="10.820416512250342"><ele>110.0</ele><time>2026-04-18T08:15:50.001Z</time></trkpt><trkpt lat="43.52750682673062" lon="10.820384964349229"><ele>110.0</ele><time>2026-04-18T08:15:51.001Z</time></trkpt><trkpt lat="43.527411086825445" lon="10.820369680928762"><ele>110.0</ele><time>2026-04-18T08:15:52.001Z</time></trkpt><trkpt lat="43.52731279849463" lon="10.82035091695531"><ele>110.0</ele><time>2026-04-18T08:15:53.001Z</time></trkpt><trkpt lat="43.52721706563746" lon="10.820318018035197"><ele>110.0</ele><time>2026-04-18T08:15:54.001Z</time></trkpt><trkpt lat="43.527127900657256" lon="10.820272591255872"><ele>107.49999999999999</ele><time>2026-04-18T08:15:55.001Z</time></trkpt><trkpt lat="43.52705454493541" lon="10.820206793169419"><ele>105.0</ele><time>2026-04-18T08:15:56.001Z</time></trkpt><trkpt lat="43.52701801223957" lon="10.820102864811808"><ele>102.5</ele><time>2026-04-18T08:15:57.001Z</time></trkpt><trkpt lat="43.52702100980851" lon="10.820001840353278"><ele>100.0</ele><time>2026-04-18T08:15:58.002Z</time></trkpt><trkpt lat="43.527030777036885" lon="10.819892708496857"><ele>97.5</ele><time>2026-04-18T08:15:59.002Z</time></trkpt><trkpt lat="43.52703796543792" lon="10.819738501110633"><ele>95.0</ele><time>2026-04-18T08:16:00.002Z</time></trkpt><trkpt lat="43.52703967377192" lon="10.819550252898777"><ele>94.6</ele><time>2026-04-18T08:16:01.002Z</time></trkpt><trkpt lat="43.52704673732727" lon="10.819383309783367"><ele>94.2</ele><time>2026-04-18T08:16:02.002Z</time></trkpt><trkpt lat="43.52705448746821" lon="10.819245109164653"><ele>93.80000000000001</ele><time>2026-04-18T08:16:03.002Z</time></trkpt><trkpt lat="43.52704898044641" lon="10.819131712913768"><ele>93.4</ele><time>2026-04-18T08:16:04.002Z</time></trkpt><trkpt lat="43.527024687938" lon="10.819017940422526"><ele>93.0</ele><time>2026-04-18T08:16:05.002Z</time></trkpt><trkpt lat="43.52700185589331" lon="10.818892785626524"><ele>92.33333333333333</ele><time>2026-04-18T08:16:06.002Z</time></trkpt><trkpt lat="43.52692793087979" lon="10.818792332234686"><ele>91.66666666666667</ele><time>2026-04-18T08:16:07.002Z</time></trkpt><trkpt lat="43.52686973658837" lon="10.818700774776724"><ele>91.0</ele><time>2026-04-18T08:16:08.002Z</time></trkpt><trkpt lat="43.52682455604863" lon="10.818631776832328"><ele>90.33333333333334</ele><time>2026-04-18T08:16:09.002Z</time></trkpt><trkpt lat="43.52680254358769" lon="10.818522883341448"><ele>89.66666666666667</ele><time>2026-04-18T08:17:16Z</time></trkpt><trkpt lat="43.52686818240476" lon="10.818406973162805"><ele>89.0</ele><time>2026-04-18T08:17:18Z</time></trkpt><trkpt lat="43.52692565833819" lon="10.818320860183304"><ele>89.0</ele><time>2026-04-18T08:17:19Z</time></trkpt><trkpt lat="43.52698029728453" lon="10.818219758084398"><ele>89.0</ele><time>2026-04-18T08:17:20Z</time></trkpt><trkpt lat="43.527034920198034" lon="10.818113960778035"><ele>89.0</ele><time>2026-04-18T08:17:21Z</time></trkpt><trkpt lat="43.52708806639315" lon="10.818010971034628"><ele>89.0</ele><time>2026-04-18T08:17:22Z</time></trkpt><trkpt lat="43.527142855590625" lon="10.8179125100487"><ele>89.0</ele><time>2026-04-18T08:17:23Z</time></trkpt><trkpt lat="43.52719399272786" lon="10.817810237569313"><ele>88.16666666666667</ele><time>2026-04-18T08:17:24Z</time></trkpt><trkpt lat="43.527234261895046" lon="10.81772387096792"><ele>87.33333333333334</ele><time>2026-04-18T08:17:25Z</time></trkpt><trkpt lat="43.5272778733447" lon="10.817638208150258"><ele>86.5</ele><time>2026-04-18T08:17:26Z</time></trkpt><trkpt lat="43.52733084941501" lon="10.817551761196663"><ele>85.66666666666667</ele><time>2026-04-18T08:17:27Z</time></trkpt><trkpt lat="43.52740308559885" lon="10.81748672750226"><ele>84.83333333333333</ele><time>2026-04-18T08:17:28Z</time></trkpt><trkpt lat="43.527476819025594" lon="10.81741356279946"><ele>84.0</ele><time>2026-04-18T08:17:29Z</time></trkpt><trkpt lat="43.527557118553915" lon="10.817348714568219"><ele>84.0</ele><time>2026-04-18T08:17:30Z</time></trkpt><trkpt lat="43.52764594482444" lon="10.817281815509785"><ele>84.0</ele><time>2026-04-18T08:17:31.001Z</time></trkpt><trkpt lat="43.52771267707846" lon="10.817218306598402"><ele>84.0</ele><time>2026-04-18T08:17:32.001Z</time></trkpt><trkpt lat="43.52776368522914" lon="10.817137362651021"><ele>84.0</ele><time>2026-04-18T08:17:33.001Z</time></trkpt><trkpt lat="43.527785835604995" lon="10.817015237401185"><ele>84.0</ele><time>2026-04-18T08:17:34.001Z</time></trkpt><trkpt lat="43.52781907040872" lon="10.816884703439179"><ele>84.25</ele><time>2026-04-18T08:17:35.001Z</time></trkpt><trkpt lat="43.527867788728" lon="10.816715458520822"><ele>84.5</ele><time>2026-04-18T08:17:36.001Z</time></trkpt><trkpt lat="43.527936127456144" lon="10.81655169395326"><ele>84.75</ele><time>2026-04-18T08:17:37.001Z</time></trkpt><trkpt lat="43.527969419817644" lon="10.81640786305557"><ele>85.0</ele><time>2026-04-18T08:17:38.001Z</time></trkpt><trkpt lat="43.528013038725575" lon="10.816283857740874"><ele>85.83333333333333</ele><time>2026-04-18T08:17:39.001Z</time></trkpt><trkpt lat="43.52807586229869" lon="10.816179297994914"><ele>86.66666666666666</ele><time>2026-04-18T08:17:40.001Z</time></trkpt><trkpt lat="43.52813112086763" lon="10.816085777700971"><ele>87.5</ele><time>2026-04-18T08:17:41.001Z</time></trkpt><trkpt lat="43.52820075056568" lon="10.816020257042833"><ele>88.33333333333333</ele><time>2026-04-18T08:17:42.001Z</time></trkpt><trkpt lat="43.5282774211111" lon="10.815992818248791"><ele>89.16666666666667</ele><time>2026-04-18T08:17:43.001Z</time></trkpt><trkpt lat="43.5283597585817" lon="10.816013058920742"><ele>90.0</ele><time>2026-04-18T08:17:44.001Z</time></trkpt><trkpt lat="43.528463371206605" lon="10.816051342299204"><ele>90.0</ele><time>2026-04-18T08:17:45.001Z</time></trkpt><trkpt lat="43.52858866149801" lon="10.816081048870343"><ele>90.0</ele><time>2026-04-18T08:17:46.001Z</time></trkpt><trkpt lat="43.528716225042004" lon="10.816092747697434"><ele>90.0</ele><time>2026-04-18T08:17:47.001Z</time></trkpt><trkpt lat="43.52881000660585" lon="10.816133659317678"><ele>90.0</ele><time>2026-04-18T08:17:48.001Z</time></trkpt><trkpt lat="43.52889875659563" lon="10.8161359840491"><ele>90.0</ele><time>2026-04-18T08:17:49.001Z</time></trkpt><trkpt lat="43.52900284004792" lon="10.816108730605423"><ele>91.8</ele><time>2026-04-18T08:17:50.001Z</time></trkpt><trkpt lat="43.529103696350575" lon="10.816058150096564"><ele>93.6</ele><time>2026-04-18T08:17:51.001Z</time></trkpt><trkpt lat="43.52919459902083" lon="10.816003236030252"><ele>95.4</ele><time>2026-04-18T08:17:52.001Z</time></trkpt><trkpt lat="43.529279184317595" lon="10.81594442928348"><ele>97.2</ele><time>2026-04-18T08:17:53.001Z</time></trkpt><trkpt lat="43.52937394455463" lon="10.815914407595121"><ele>99.0</ele><time>2026-04-18T08:17:54.001Z</time></trkpt><trkpt lat="43.52946712499171" lon="10.815851739914985"><ele>104.0</ele><time>2026-04-18T08:17:55.001Z</time></trkpt><trkpt lat="43.529583687450334" lon="10.815827599294035"><ele>109.0</ele><time>2026-04-18T08:17:56.001Z</time></trkpt><trkpt lat="43.52968633853247" lon="10.815799225188655"><ele>114.0</ele><time>2026-04-18T08:17:57.001Z</time></trkpt><trkpt lat="43.52977798181346" lon="10.815766697352604"><ele>119.0</ele><time>2026-04-18T08:17:58.001Z</time></trkpt><trkpt lat="43.52986853245457" lon="10.81575839729471"><ele>124.0</ele><time>2026-04-18T08:17:59.001Z</time></trkpt><trkpt lat="43.52995742516932" lon="10.815740061333088"><ele>124.0</ele><time>2026-04-18T08:18:00.001Z</time></trkpt><trkpt lat="43.53005442747064" lon="10.815701950023684"><ele>124.0</ele><time>2026-04-18T08:18:01.001Z</time></trkpt><trkpt lat="43.53016302470686" lon="10.815687236170806"><ele>124.0</ele><time>2026-04-18T08:18:02.001Z</time></trkpt><trkpt lat="43.530279012716356" lon="10.815670947483033"><ele>124.0</ele><time>2026-04-18T08:18:03.001Z</time></trkpt><trkpt lat="43.53039104815956" lon="10.815651760173656"><ele>124.0</ele><time>2026-04-18T08:18:04.001Z</time></trkpt><trkpt lat="43.53048484560498" lon="10.815661772388163"><ele>124.50000000000001</ele><time>2026-04-18T08:18:05.001Z</time></trkpt><trkpt lat="43.53055288706028" lon="10.815612477497961"><ele>125.0</ele><time>2026-04-18T08:18:06.001Z</time></trkpt><trkpt lat="43.53063301285568" lon="10.815587726967808"><ele>125.5</ele><time>2026-04-18T08:18:07.001Z</time></trkpt><trkpt lat="43.53071656268964" lon="10.815569593734335"><ele>126.0</ele><time>2026-04-18T08:18:08.001Z</time></trkpt><trkpt lat="43.53080208999711" lon="10.815546687145236"><ele>126.50000000000001</ele><time>2026-04-18T08:18:09.001Z</time></trkpt><trkpt lat="43.53089496500115" lon="10.815518703244068"><ele>127.0</ele><time>2026-04-18T08:18:10.001Z</time></trkpt><trkpt lat="43.53102351169923" lon="10.815667531837269"><ele>127.0</ele><time>2026-04-18T08:18:11.001Z</time></trkpt><trkpt lat="43.5311401326119" lon="10.815714594270323"><ele>127.0</ele><time>2026-04-18T08:18:12.002Z</time></trkpt><trkpt lat="43.53126861819404" lon="10.815768340476456"><ele>127.0</ele><time>2026-04-18T08:18:13.002Z</time></trkpt><trkpt lat="43.5313893185392" lon="10.815814754996746"><ele>127.0</ele><time>2026-04-18T08:18:14.002Z</time></trkpt><trkpt lat="43.53149421712633" lon="10.81583720907301"><ele>128.0</ele><time>2026-04-18T08:18:15.002Z</time></trkpt><trkpt lat="43.53159988834323" lon="10.81583671777401"><ele>129.0</ele><time>2026-04-18T08:18:16.002Z</time></trkpt><trkpt lat="43.53171411935028" lon="10.815832144098525"><ele>130.0</ele><time>2026-04-18T08:18:17.002Z</time></trkpt><trkpt lat="43.53182443724108" lon="10.81583494612051"><ele>131.0</ele><time>2026-04-18T08:18:18.002Z</time></trkpt><trkpt lat="43.531930380811325" lon="10.815852792881623"><ele>132.0</ele><time>2026-04-18T08:18:19.002Z</time></trkpt><trkpt lat="43.532025921144665" lon="10.81590136919949"><ele>132.25</ele><time>2026-04-18T08:18:20.002Z</time></trkpt><trkpt lat="43.532117885111134" lon="10.815978164100772"><ele>132.5</ele><time>2026-04-18T08:18:21.002Z</time></trkpt><trkpt lat="43.532216810905645" lon="10.816069196564634"><ele>132.75</ele><time>2026-04-18T08:18:22.002Z</time></trkpt><trkpt lat="43.532320690498196" lon="10.816169418140612"><ele>133.0</ele><time>2026-04-18T08:18:23.002Z</time></trkpt><trkpt lat="43.53243064849303" lon="10.816261787585763"><ele>133.8</ele><time>2026-04-18T08:18:24.002Z</time></trkpt><trkpt lat="43.5325256121136" lon="10.816324276354118"><ele>134.60000000000002</ele><time>2026-04-18T08:18:25.002Z</time></trkpt><trkpt lat="43.53261367468663" lon="10.816369139178962"><ele>135.39999999999998</ele><time>2026-04-18T08:18:26.002Z</time></trkpt><trkpt lat="43.53271630769201" lon="10.81640586019319"><ele>136.2</ele><time>2026-04-18T08:18:27.002Z</time></trkpt><trkpt lat="43.53283567686319" lon="10.816443698204846"><ele>137.0</ele><time>2026-04-18T08:18:28.002Z</time></trkpt><trkpt lat="43.53295075334138" lon="10.816493087068146"><ele>137.0</ele><time>2026-04-18T08:18:29.002Z</time></trkpt><trkpt lat="43.53306748787807" lon="10.816545199245981"><ele>137.0</ele><time>2026-04-18T08:18:30.002Z</time></trkpt><trkpt lat="43.53318024667411" lon="10.816591812601152"><ele>137.0</ele><time>2026-04-18T08:18:31.002Z</time></trkpt><trkpt lat="43.533279726422194" lon="10.816639146359218"><ele>137.0</ele><time>2026-04-18T08:18:32.002Z</time></trkpt><trkpt lat="43.533384015607034" lon="10.816686725648541"><ele>137.0</ele><time>2026-04-18T08:18:33.002Z</time></trkpt><trkpt lat="43.53349154024866" lon="10.816737042504778"><ele>137.0</ele><time>2026-04-18T08:18:34.002Z</time></trkpt><trkpt lat="43.53357861894566" lon="10.816766922885693"><ele>137.0</ele><time>2026-04-18T08:18:35.002Z</time></trkpt><trkpt lat="43.53365180481691" lon="10.816760544234853"><ele>137.0</ele><time>2026-04-18T08:18:36.002Z</time></trkpt><trkpt lat="43.533750228719136" lon="10.816727377254493"><ele>137.0</ele><time>2026-04-18T08:18:37.002Z</time></trkpt><trkpt lat="43.53386728501877" lon="10.816688133065416"><ele>138.5</ele><time>2026-04-18T08:18:38.002Z</time></trkpt><trkpt lat="43.53399788785167" lon="10.81666831806829"><ele>140.0</ele><time>2026-04-18T08:18:39.002Z</time></trkpt><trkpt lat="43.53412088808013" lon="10.816667186506695"><ele>141.5</ele><time>2026-04-18T08:18:40.002Z</time></trkpt><trkpt lat="43.53424689156726" lon="10.816669651922435"><ele>143.0</ele><time>2026-04-18T08:18:41.002Z</time></trkpt><trkpt lat="43.53436784850284" lon="10.816676815777795"><ele>143.0</ele><time>2026-04-18T08:18:42.002Z</time></trkpt><trkpt lat="43.534482584837946" lon="10.816686359222514"><ele>143.0</ele><time>2026-04-18T08:18:43.002Z</time></trkpt><trkpt lat="43.53459144403185" lon="10.816699827030764"><ele>143.0</ele><time>2026-04-18T08:18:44.002Z</time></trkpt><trkpt lat="43.53470352364644" lon="10.816715727483812"><ele>143.0</ele><time>2026-04-18T08:18:45.002Z</time></trkpt><trkpt lat="43.5348131051079" lon="10.81673118338414"><ele>143.0</ele><time>2026-04-18T08:18:46.002Z</time></trkpt><trkpt lat="43.53490531853119" lon="10.81672396105603"><ele>144.8</ele><time>2026-04-18T08:18:47.002Z</time></trkpt><trkpt lat="43.53498241134961" lon="10.816726029320677"><ele>146.60000000000002</ele><time>2026-04-18T08:18:48.002Z</time></trkpt><trkpt lat="43.53505930143858" lon="10.816692233935507"><ele>148.39999999999998</ele><time>2026-04-18T08:18:49.002Z</time></trkpt><trkpt lat="43.535141700760846" lon="10.816626860871441"><ele>150.2</ele><time>2026-04-18T08:18:50.002Z</time></trkpt><trkpt lat="43.53522595887179" lon="10.816554450517561"><ele>152.0</ele><time>2026-04-18T08:18:51.002Z</time></trkpt><trkpt lat="43.53532521817546" lon="10.816471029895087"><ele>154.39999999999998</ele><time>2026-04-18T08:18:52.002Z</time></trkpt><trkpt lat="43.53541628136825" lon="10.816386734557744"><ele>156.79999999999998</ele><time>2026-04-18T08:18:53.002Z</time></trkpt><trkpt lat="43.53549867196359" lon="10.816311408670272"><ele>159.2</ele><time>2026-04-18T08:18:54.002Z</time></trkpt><trkpt lat="43.53557407698168" lon="10.816236316065858"><ele>161.6</ele><time>2026-04-18T08:18:55Z</time></trkpt><trkpt lat="43.5356489592506" lon="10.816173969978887"><ele>164.0</ele><time>2026-04-18T08:18:56Z</time></trkpt><trkpt lat="43.53571563015391" lon="10.81610795014849"><ele>164.0</ele><time>2026-04-18T08:18:57Z</time></trkpt><trkpt lat="43.53579774530053" lon="10.816049052357185"><ele>164.0</ele><time>2026-04-18T08:18:58Z</time></trkpt><trkpt lat="43.535878677326785" lon="10.815973224227234"><ele>164.0</ele><time>2026-04-18T08:18:59Z</time></trkpt><trkpt lat="43.53595139297972" lon="10.815888681128703"><ele>164.0</ele><time>2026-04-18T08:19:00Z</time></trkpt><trkpt lat="43.53603764194204" lon="10.815853187811602"><ele>164.0</ele><time>2026-04-18T08:19:01Z</time></trkpt><trkpt lat="43.536123829270224" lon="10.815797837576085"><ele>164.0</ele><time>2026-04-18T08:19:02Z</time></trkpt><trkpt lat="43.53621246552217" lon="10.815748768060166"><ele>164.0</ele><time>2026-04-18T08:19:03Z</time></trkpt><trkpt lat="43.53630856615136" lon="10.815715817020344"><ele>164.0</ele><time>2026-04-18T08:19:04Z</time></trkpt><trkpt lat="43.53641266871611" lon="10.815679729727771"><ele>164.0</ele><time>2026-04-18T08:19:05Z</time></trkpt><trkpt lat="43.53650524983365" lon="10.815652964234351"><ele>164.0</ele><time>2026-04-18T08:19:06Z</time></trkpt><trkpt lat="43.5365851313608" lon="10.815646776294832"><ele>165.33333333333331</ele><time>2026-04-18T08:19:07Z</time></trkpt><trkpt lat="43.53667973767116" lon="10.815646932288619"><ele>166.66666666666666</ele><time>2026-04-18T08:19:08Z</time></trkpt><trkpt lat="43.53676707910086" lon="10.815653513653329"><ele>168.0</ele><time>2026-04-18T08:19:09Z</time></trkpt><trkpt lat="43.53685202004767" lon="10.815636089958883"><ele>169.33333333333334</ele><time>2026-04-18T08:19:10Z</time></trkpt><trkpt lat="43.53692542837077" lon="10.815644782296886"><ele>170.66666666666669</ele><time>2026-04-18T08:19:11Z</time></trkpt><trkpt lat="43.53699658433326" lon="10.815596292463345"><ele>172.0</ele><time>2026-04-18T08:19:12Z</time></trkpt><trkpt lat="43.53704079842136" lon="10.815487810470373"><ele>170.33333333333334</ele><time>2026-04-18T08:19:13Z</time></trkpt><trkpt lat="43.53708817222324" lon="10.81538791972567"><ele>168.66666666666669</ele><time>2026-04-18T08:19:14Z</time></trkpt><trkpt lat="43.53712782527476" lon="10.81530521761536"><ele>167.0</ele><time>2026-04-18T08:19:15Z</time></trkpt><trkpt lat="43.53718120602147" lon="10.815187580197481"><ele>165.33333333333334</ele><time>2026-04-18T08:19:17Z</time></trkpt><trkpt lat="43.53721746497559" lon="10.815089515983415"><ele>163.66666666666666</ele><time>2026-04-18T08:19:19Z</time></trkpt><trkpt lat="43.53726693901633" lon="10.815013366601676"><ele>162.0</ele><time>2026-04-18T08:19:22Z</time></trkpt><trkpt lat="43.53721484233587" lon="10.814801298646804"><ele>161.6</ele><time>2026-04-18T08:19:24Z</time></trkpt><trkpt lat="43.53719003922988" lon="10.814686344365752"><ele>161.2</ele><time>2026-04-18T08:19:25Z</time></trkpt><trkpt lat="43.53716262189304" lon="10.814569955036225"><ele>160.8</ele><time>2026-04-18T08:19:26Z</time></trkpt><trkpt lat="43.53714617557223" lon="10.814442969734554"><ele>160.4</ele><time>2026-04-18T08:19:27Z</time></trkpt><trkpt lat="43.537146546632314" lon="10.814311978182017"><ele>160.0</ele><time>2026-04-18T08:19:28Z</time></trkpt><trkpt lat="43.53716532226253" lon="10.814183589339043"><ele>161.75</ele><time>2026-04-18T08:19:29Z</time></trkpt><trkpt lat="43.53720362992613" lon="10.814048221134627"><ele>163.5</ele><time>2026-04-18T08:19:30Z</time></trkpt><trkpt lat="43.53725801545721" lon="10.813923666325959"><ele>165.25</ele><time>2026-04-18T08:19:31Z</time></trkpt><trkpt lat="43.53732820357266" lon="10.813782074675512"><ele>167.0</ele><time>2026-04-18T08:19:32Z</time></trkpt><trkpt lat="43.53741190481366" lon="10.813660161391558"><ele>167.0</ele><time>2026-04-18T08:19:33Z</time></trkpt><trkpt lat="43.537468766934694" lon="10.813522625812874"><ele>167.0</ele><time>2026-04-18T08:19:34Z</time></trkpt><trkpt lat="43.53752182132322" lon="10.813393042822087"><ele>167.0</ele><time>2026-04-18T08:19:35Z</time></trkpt><trkpt lat="43.537548134600456" lon="10.813262714481874"><ele>167.0</ele><time>2026-04-18T08:19:36Z</time></trkpt><trkpt lat="43.53755351929486" lon="10.813128244656554"><ele>167.0</ele><time>2026-04-18T08:19:37Z</time></trkpt><trkpt lat="43.53752554749759" lon="10.812996602363574"><ele>168.75</ele><time>2026-04-18T08:19:38Z</time></trkpt><trkpt lat="43.537459122400314" lon="10.81287431359144"><ele>170.5</ele><time>2026-04-18T08:19:39.001Z</time></trkpt><trkpt lat="43.53736229314811" lon="10.812770381628695"><ele>172.25</ele><time>2026-04-18T08:19:40.001Z</time></trkpt><trkpt lat="43.53724382439062" lon="10.81268057101295"><ele>174.0</ele><time>2026-04-18T08:19:41.001Z</time></trkpt><trkpt lat="43.53712074248204" lon="10.812572598678289"><ele>174.25</ele><time>2026-04-18T08:19:42.001Z</time></trkpt><trkpt lat="43.53701592826324" lon="10.812418699443871"><ele>174.5</ele><time>2026-04-18T08:19:43.001Z</time></trkpt><trkpt lat="43.536917979651335" lon="10.812280670894127"><ele>174.75</ele><time>2026-04-18T08:19:44.001Z</time></trkpt><trkpt lat="43.5368321346435" lon="10.812146085456193"><ele>175.0</ele><time>2026-04-18T08:19:45.001Z</time></trkpt><trkpt lat="43.536752669433646" lon="10.812013140382973"><ele>175.0</ele><time>2026-04-18T08:19:46.001Z</time></trkpt><trkpt lat="43.53666992388216" lon="10.811870752146561"><ele>175.0</ele><time>2026-04-18T08:19:47.001Z</time></trkpt><trkpt lat="43.53659505019161" lon="10.81173673156561"><ele>175.0</ele><time>2026-04-18T08:19:48.001Z</time></trkpt><trkpt lat="43.536539550733494" lon="10.811595336935119"><ele>175.0</ele><time>2026-04-18T08:19:49.001Z</time></trkpt><trkpt lat="43.53648776695507" lon="10.811427531506347"><ele>173.5</ele><time>2026-04-18T08:19:50.001Z</time></trkpt><trkpt lat="43.53645542921065" lon="10.811241146314245"><ele>172.0</ele><time>2026-04-18T08:19:51.001Z</time></trkpt><trkpt lat="43.536440286355514" lon="10.811038538620755"><ele>170.5</ele><time>2026-04-18T08:19:52.001Z</time></trkpt><trkpt lat="43.53642335625615" lon="10.810821219806137"><ele>169.0</ele><time>2026-04-18T08:19:53.001Z</time></trkpt><trkpt lat="43.536444931910566" lon="10.810628584719487"><ele>168.5</ele><time>2026-04-18T08:19:54.001Z</time></trkpt><trkpt lat="43.536444212391096" lon="10.810452964116907"><ele>168.0</ele><time>2026-04-18T08:19:55.001Z</time></trkpt><trkpt lat="43.536434110627084" lon="10.810292444094342"><ele>167.5</ele><time>2026-04-18T08:19:56.001Z</time></trkpt><trkpt lat="43.53638391833783" lon="10.810150781628902"><ele>167.0</ele><time>2026-04-18T08:19:57.001Z</time></trkpt><trkpt lat="43.53632796829525" lon="10.810017625903189"><ele>166.5</ele><time>2026-04-18T08:19:58.001Z</time></trkpt><trkpt lat="43.53624493177222" lon="10.809882219522532"><ele>166.0</ele><time>2026-04-18T08:19:59.001Z</time></trkpt><trkpt lat="43.53615544221381" lon="10.80974457756974"><ele>165.5</ele><time>2026-04-18T08:20:00.001Z</time></trkpt><trkpt lat="43.53610303472018" lon="10.809589149361129"><ele>165.0</ele><time>2026-04-18T08:20:01.001Z</time></trkpt><trkpt lat="43.53605469448715" lon="10.809400179581397"><ele>164.75</ele><time>2026-04-18T08:20:02.001Z</time></trkpt><trkpt lat="43.536016387961666" lon="10.809191485851722"><ele>164.5</ele><time>2026-04-18T08:20:03.001Z</time></trkpt><trkpt lat="43.535988231573675" lon="10.808995634329102"><ele>164.25</ele><time>2026-04-18T08:20:04.001Z</time></trkpt><trkpt lat="43.53598814725158" lon="10.80883334156105"><ele>164.0</ele><time>2026-04-18T08:20:05.001Z</time></trkpt><trkpt lat="43.536009359409675" lon="10.808676323319194"><ele>164.0</ele><time>2026-04-18T08:20:06.001Z</time></trkpt><trkpt lat="43.53604661604685" lon="10.808498070003044"><ele>164.0</ele><time>2026-04-18T08:20:07.001Z</time></trkpt><trkpt lat="43.53608501377072" lon="10.808289061236744"><ele>164.0</ele><time>2026-04-18T08:20:08.001Z</time></trkpt><trkpt lat="43.5361226579847" lon="10.808074719342951"><ele>163.66666666666666</ele><time>2026-04-18T08:20:09.001Z</time></trkpt><trkpt lat="43.53612033163492" lon="10.80785392350369"><ele>163.33333333333334</ele><time>2026-04-18T08:20:10.001Z</time></trkpt><trkpt lat="43.53612398368804" lon="10.80761335643781"><ele>163.0</ele><time>2026-04-18T08:20:11.001Z</time></trkpt><trkpt lat="43.53611569309973" lon="10.807351015457732"><ele>163.0</ele><time>2026-04-18T08:20:12.001Z</time></trkpt><trkpt lat="43.53609719613514" lon="10.807061568613864"><ele>163.0</ele><time>2026-04-18T08:20:13.001Z</time></trkpt><trkpt lat="43.53606937221587" lon="10.806799161033714"><ele>163.0</ele><time>2026-04-18T08:20:14.001Z</time></trkpt><trkpt lat="43.53602755286684" lon="10.806577262897322"><ele>163.25</ele><time>2026-04-18T08:20:15.001Z</time></trkpt><trkpt lat="43.535987040655385" lon="10.806394476367876"><ele>163.5</ele><time>2026-04-18T08:20:16.001Z</time></trkpt><trkpt lat="43.536003103765" lon="10.806212816832396"><ele>163.75</ele><time>2026-04-18T08:20:17.001Z</time></trkpt><trkpt lat="43.536027458465206" lon="10.80600978120589"><ele>164.0</ele><time>2026-04-18T08:20:18.001Z</time></trkpt><trkpt lat="43.53605918140754" lon="10.805804002884926"><ele>164.0</ele><time>2026-04-18T08:20:19.001Z</time></trkpt><trkpt lat="43.536099940506766" lon="10.805599661789664"><ele>164.0</ele><time>2026-04-18T08:20:20.001Z</time></trkpt><trkpt lat="43.53617086799388" lon="10.80540117701571"><ele>164.0</ele><time>2026-04-18T08:20:21.002Z</time></trkpt><trkpt lat="43.53625367666682" lon="10.805191728856668"><ele>164.0</ele><time>2026-04-18T08:20:22.002Z</time></trkpt><trkpt lat="43.536317890853915" lon="10.804982131182316"><ele>164.0</ele><time>2026-04-18T08:20:23.002Z</time></trkpt><trkpt lat="43.53638980652175" lon="10.804818356956098"><ele>164.0</ele><time>2026-04-18T08:20:24.002Z</time></trkpt><trkpt lat="43.53644727021647" lon="10.804651877747801"><ele>164.0</ele><time>2026-04-18T08:20:25.002Z</time></trkpt><trkpt lat="43.536512322012534" lon="10.804469798795331"><ele>162.0</ele><time>2026-04-18T08:20:26.002Z</time></trkpt><trkpt lat="43.53656389855506" lon="10.804268501961264"><ele>160.0</ele><time>2026-04-18T08:20:27.002Z</time></trkpt><trkpt lat="43.53660795647514" lon="10.804062601885816"><ele>158.0</ele><time>2026-04-18T08:20:28.002Z</time></trkpt><trkpt lat="43.536646856392665" lon="10.803854110644076"><ele>158.0</ele><time>2026-04-18T08:20:29.002Z</time></trkpt><trkpt lat="43.536674092131186" lon="10.80363665795219"><ele>158.0</ele><time>2026-04-18T08:20:30.002Z</time></trkpt><trkpt lat="43.536692495313474" lon="10.803402705508612"><ele>158.0</ele><time>2026-04-18T08:20:31.002Z</time></trkpt><trkpt lat="43.53670652879157" lon="10.803168094873381"><ele>157.33333333333331</ele><time>2026-04-18T08:20:32.002Z</time></trkpt><trkpt lat="43.53671239209061" lon="10.802936742453994"><ele>156.66666666666666</ele><time>2026-04-18T08:20:33.002Z</time></trkpt><trkpt lat="43.53671699643079" lon="10.802698810123777"><ele>156.0</ele><time>2026-04-18T08:20:34.002Z</time></trkpt><trkpt lat="43.536719057494196" lon="10.802468474875225"><ele>157.0</ele><time>2026-04-18T08:20:35.002Z</time></trkpt><trkpt lat="43.53673476350113" lon="10.802253678637683"><ele>158.0</ele><time>2026-04-18T08:20:36.002Z</time></trkpt><trkpt lat="43.53678404833518" lon="10.80207594632697"><ele>159.0</ele><time>2026-04-18T08:20:37.002Z</time></trkpt><trkpt lat="43.536837289526" lon="10.80190164302087"><ele>160.0</ele><time>2026-04-18T08:20:38.002Z</time></trkpt><trkpt lat="43.53690754632161" lon="10.801724646333309"><ele>161.33333333333334</ele><time>2026-04-18T08:20:39.002Z</time></trkpt><trkpt lat="43.53699151697962" lon="10.801553511788699"><ele>162.66666666666666</ele><time>2026-04-18T08:20:40.002Z</time></trkpt><trkpt lat="43.53709856436823" lon="10.80141326886228"><ele>164.0</ele><time>2026-04-18T08:20:41.002Z</time></trkpt><trkpt lat="43.537224006160535" lon="10.80129280482629"><ele>164.0</ele><time>2026-04-18T08:20:42.002Z</time></trkpt><trkpt lat="43.53735822395584" lon="10.80118088287928"><ele>164.0</ele><time>2026-04-18T08:20:43.002Z</time></trkpt><trkpt lat="43.537475327608554" lon="10.801046591949737"><ele>164.0</ele><time>2026-04-18T08:20:44.002Z</time></trkpt><trkpt lat="43.53760113929319" lon="10.800934067111903"><ele>163.0</ele><time>2026-04-18T08:20:45.002Z</time></trkpt><trkpt lat="43.53770748456473" lon="10.800815091385433"><ele>162.0</ele><time>2026-04-18T08:20:46.002Z</time></trkpt><trkpt lat="43.537797480712825" lon="10.800688886387682"><ele>161.0</ele><time>2026-04-18T08:20:47.002Z</time></trkpt><trkpt lat="43.53789286549702" lon="10.800575259701153"><ele>160.0</ele><time>2026-04-18T08:20:48.002Z</time></trkpt><trkpt lat="43.53797490096233" lon="10.800452782637636"><ele>160.0</ele><time>2026-04-18T08:20:49.002Z</time></trkpt><trkpt lat="43.53804848031631" lon="10.800329118164267"><ele>160.0</ele><time>2026-04-18T08:20:50.002Z</time></trkpt><trkpt lat="43.53810499797201" lon="10.800190424103615"><ele>160.0</ele><time>2026-04-18T08:20:51.002Z</time></trkpt><trkpt lat="43.53815270832975" lon="10.800046890128868"><ele>160.0</ele><time>2026-04-18T08:20:52.002Z</time></trkpt><trkpt lat="43.53820251450484" lon="10.799904888632526"><ele>160.5</ele><time>2026-04-18T08:20:53.002Z</time></trkpt><trkpt lat="43.53825971435927" lon="10.799759677811272"><ele>161.0</ele><time>2026-04-18T08:20:54.002Z</time></trkpt><trkpt lat="43.538322139196865" lon="10.799598754418714"><ele>161.5</ele><time>2026-04-18T08:20:55.002Z</time></trkpt><trkpt lat="43.538397710497996" lon="10.799436970880224"><ele>162.0</ele><time>2026-04-18T08:20:56.002Z</time></trkpt><trkpt lat="43.5384464371623" lon="10.799252473268945"><ele>162.0</ele><time>2026-04-18T08:20:57.002Z</time></trkpt><trkpt lat="43.53850398986916" lon="10.799098257522148"><ele>162.0</ele><time>2026-04-18T08:20:58.002Z</time></trkpt><trkpt lat="43.53853701182099" lon="10.798930398844057"><ele>162.0</ele><time>2026-04-18T08:20:59.002Z</time></trkpt><trkpt lat="43.538549064241835" lon="10.79872580285685"><ele>162.0</ele><time>2026-04-18T08:21:00.002Z</time></trkpt><trkpt lat="43.53853834013175" lon="10.798511431225123"><ele>160.33333333333334</ele><time>2026-04-18T08:21:00.999Z</time></trkpt><trkpt lat="43.5385052453608" lon="10.798283238160712"><ele>158.66666666666669</ele><time>2026-04-18T08:21:01.999Z</time></trkpt><trkpt lat="43.53846853717381" lon="10.798048539334006"><ele>157.0</ele><time>2026-04-18T08:21:02.999Z</time></trkpt><trkpt lat="43.53843096054924" lon="10.797812090403198"><ele>158.0</ele><time>2026-04-18T08:21:03.999Z</time></trkpt><trkpt lat="43.53840797141589" lon="10.797568783977946"><ele>159.0</ele><time>2026-04-18T08:21:04.999Z</time></trkpt><trkpt lat="43.538375729923374" lon="10.797330933900723"><ele>160.0</ele><time>2026-04-18T08:21:05.999Z</time></trkpt><trkpt lat="43.53832723983245" lon="10.797123394417628"><ele>160.0</ele><time>2026-04-18T08:21:06.999Z</time></trkpt><trkpt lat="43.53828436624248" lon="10.796921193740504"><ele>160.0</ele><time>2026-04-18T08:21:07.999Z</time></trkpt><trkpt lat="43.538216295113244" lon="10.796738855026813"><ele>160.0</ele><time>2026-04-18T08:21:08.999Z</time></trkpt><trkpt lat="43.53817399243655" lon="10.796551021569584"><ele>160.0</ele><time>2026-04-18T08:21:09.999Z</time></trkpt><trkpt lat="43.5381255575694" lon="10.796375801275438"><ele>162.0</ele><time>2026-04-18T08:21:10.999Z</time></trkpt><trkpt lat="43.53810955623523" lon="10.796203804041765"><ele>164.0</ele><time>2026-04-18T08:21:11.999Z</time></trkpt><trkpt lat="43.53813008904354" lon="10.796044388448104"><ele>166.0</ele><time>2026-04-18T08:21:12.999Z</time></trkpt><trkpt lat="43.53818642232274" lon="10.795912567203258"><ele>168.0</ele><time>2026-04-18T08:21:13.999Z</time></trkpt><trkpt lat="43.53824493279321" lon="10.795743615166957"><ele>169.4</ele><time>2026-04-18T08:21:14.999Z</time></trkpt><trkpt lat="43.53830393469253" lon="10.79561003988715"><ele>170.8</ele><time>2026-04-18T08:21:15.999Z</time></trkpt><trkpt lat="43.53835943308195" lon="10.795502887285515"><ele>172.2</ele><time>2026-04-18T08:21:16.999Z</time></trkpt><trkpt lat="43.538471623911704" lon="10.795475424524902"><ele>173.6</ele><time>2026-04-18T08:21:17.999Z</time></trkpt><trkpt lat="43.538571455496076" lon="10.79538626494598"><ele>175.0</ele><time>2026-04-18T08:21:18.999Z</time></trkpt><trkpt lat="43.53867810325446" lon="10.795333578427458"><ele>175.8</ele><time>2026-04-18T08:21:19.999Z</time></trkpt><trkpt lat="43.53877390231732" lon="10.795254810379456"><ele>176.6</ele><time>2026-04-18T08:21:20.999Z</time></trkpt><trkpt lat="43.538854236844365" lon="10.795149444508638"><ele>177.39999999999998</ele><time>2026-04-18T08:21:21.999Z</time></trkpt><trkpt lat="43.53891327212431" lon="10.79501824043719"><ele>178.2</ele><time>2026-04-18T08:21:22.999Z</time></trkpt><trkpt lat="43.53895187415355" lon="10.794869056974125"><ele>179.0</ele><time>2026-04-18T08:21:24Z</time></trkpt><trkpt lat="43.53896958232451" lon="10.794725518397465"><ele>179.0</ele><time>2026-04-18T08:21:25Z</time></trkpt><trkpt lat="43.53897615097458" lon="10.794601334474358"><ele>179.0</ele><time>2026-04-18T08:21:26Z</time></trkpt><trkpt lat="43.5390001981905" lon="10.794492848506607"><ele>179.0</ele><time>2026-04-18T08:21:27Z</time></trkpt><trkpt lat="43.53901574974709" lon="10.794388497443874"><ele>179.0</ele><time>2026-04-18T08:21:28Z</time></trkpt><trkpt lat="43.53903281854293" lon="10.79428524803197"><ele>179.0</ele><time>2026-04-18T08:21:29Z</time></trkpt><trkpt lat="43.539049676271866" lon="10.794164233793138"><ele>179.0</ele><time>2026-04-18T08:21:30Z</time></trkpt><trkpt lat="43.53911039561824" lon="10.794062691383376"><ele>179.2</ele><time>2026-04-18T08:21:31Z</time></trkpt><trkpt lat="43.539203200365336" lon="10.79399387568099"><ele>179.39999999999998</ele><time>2026-04-18T08:21:32Z</time></trkpt><trkpt lat="43.539283830921775" lon="10.79388683763938"><ele>179.6</ele><time>2026-04-18T08:21:33Z</time></trkpt><trkpt lat="43.539362650882644" lon="10.793809002185052"><ele>179.8</ele><time>2026-04-18T08:21:34Z</time></trkpt><trkpt lat="43.53943066706068" lon="10.793739628193038"><ele>180.0</ele><time>2026-04-18T08:21:35Z</time></trkpt><trkpt lat="43.53948793744552" lon="10.7936684521751"><ele>180.0</ele><time>2026-04-18T08:21:36Z</time></trkpt><trkpt lat="43.539536236565304" lon="10.793595607253426"><ele>180.0</ele><time>2026-04-18T08:21:37Z</time></trkpt><trkpt lat="43.53956875668005" lon="10.793514736644546"><ele>180.0</ele><time>2026-04-18T08:21:38Z</time></trkpt><trkpt lat="43.53958773402938" lon="10.793414605554059"><ele>180.0</ele><time>2026-04-18T08:21:39Z</time></trkpt><trkpt lat="43.53958852675101" lon="10.793320377004768"><ele>180.0</ele><time>2026-04-18T08:21:40Z</time></trkpt><trkpt lat="43.5395893177068" lon="10.793199908530884"><ele>180.0</ele><time>2026-04-18T08:21:42Z</time></trkpt><trkpt lat="43.539587758389416" lon="10.79306170228418"><ele>180.2</ele><time>2026-04-18T08:21:44Z</time></trkpt><trkpt lat="43.53955249174104" lon="10.792889150073485"><ele>180.4</ele><time>2026-04-18T08:21:46Z</time></trkpt><trkpt lat="43.53949711004449" lon="10.792788958246026"><ele>180.60000000000002</ele><time>2026-04-18T08:21:47Z</time></trkpt><trkpt lat="43.53945448045077" lon="10.792677616453968"><ele>180.8</ele><time>2026-04-18T08:21:48Z</time></trkpt><trkpt lat="43.5394126139314" lon="10.792581150863104"><ele>181.0</ele><time>2026-04-18T08:21:49Z</time></trkpt><trkpt lat="43.53938772313962" lon="10.792477285747083"><ele>181.0</ele><time>2026-04-18T08:21:50Z</time></trkpt><trkpt lat="43.53934727049325" lon="10.792381566394484"><ele>181.0</ele><time>2026-04-18T08:21:51Z</time></trkpt><trkpt lat="43.53930957474036" lon="10.792291987536407"><ele>181.0</ele><time>2026-04-18T08:21:52Z</time></trkpt><trkpt lat="43.53926668266066" lon="10.79221067530703"><ele>181.0</ele><time>2026-04-18T08:21:53Z</time></trkpt><trkpt lat="43.539227204498275" lon="10.792120377308844"><ele>181.0</ele><time>2026-04-18T08:21:54.001Z</time></trkpt><trkpt lat="43.53918931795743" lon="10.792028281844964"><ele>181.0</ele><time>2026-04-18T08:21:55.001Z</time></trkpt><trkpt lat="43.53915537239965" lon="10.791946489977109"><ele>181.0</ele><time>2026-04-18T08:21:56.001Z</time></trkpt><trkpt lat="43.539125441031025" lon="10.79186612329119"><ele>181.0</ele><time>2026-04-18T08:21:57.001Z</time></trkpt><trkpt lat="43.53908517197204" lon="10.791764482404247"><ele>181.0</ele><time>2026-04-18T08:21:59.001Z</time></trkpt><trkpt lat="43.53903845162286" lon="10.791680935310533"><ele>181.0</ele><time>2026-04-18T08:22:01.001Z</time></trkpt><trkpt lat="43.538959334143236" lon="10.791537611221504"><ele>181.0</ele><time>2026-04-18T08:22:03.001Z</time></trkpt><trkpt lat="43.53890117262453" lon="10.791441813271991"><ele>181.0</ele><time>2026-04-18T08:22:04.001Z</time></trkpt><trkpt lat="43.538827799649496" lon="10.791338990710404"><ele>180.66666666666669</ele><time>2026-04-18T08:22:05.001Z</time></trkpt><trkpt lat="43.5387545665687" lon="10.791248359761669"><ele>180.33333333333334</ele><time>2026-04-18T08:22:06.001Z</time></trkpt><trkpt lat="43.53869045302501" lon="10.791158438152632"><ele>180.0</ele><time>2026-04-18T08:22:07.001Z</time></trkpt><trkpt lat="43.53863237376453" lon="10.791065612799033"><ele>179.66666666666666</ele><time>2026-04-18T08:22:08.001Z</time></trkpt><trkpt lat="43.53857748290137" lon="10.790979135586406"><ele>179.33333333333331</ele><time>2026-04-18T08:22:09.001Z</time></trkpt><trkpt lat="43.538527829508105" lon="10.790888822099713"><ele>179.0</ele><time>2026-04-18T08:22:11.001Z</time></trkpt><trkpt lat="43.538433854580475" lon="10.790834343153696"><ele>179.0</ele><time>2026-04-18T08:22:15.001Z</time></trkpt><trkpt lat="43.5383665680337" lon="10.790822075209997"><ele>179.0</ele><time>2026-04-18T08:22:16.001Z</time></trkpt><trkpt lat="43.53831079993956" lon="10.790742933769385"><ele>179.0</ele><time>2026-04-18T08:22:17.001Z</time></trkpt><trkpt lat="43.53821958508763" lon="10.790704318006284"><ele>179.0</ele><time>2026-04-18T08:22:18.001Z</time></trkpt><trkpt lat="43.53811185177912" lon="10.790655870548893"><ele>179.0</ele><time>2026-04-18T08:22:19.001Z</time></trkpt><trkpt lat="43.538004946708604" lon="10.790606189351756"><ele>178.6</ele><time>2026-04-18T08:22:20.001Z</time></trkpt><trkpt lat="43.53788369635642" lon="10.790607399101638"><ele>178.2</ele><time>2026-04-18T08:22:21.001Z</time></trkpt><trkpt lat="43.53779133825924" lon="10.790600538729363"><ele>177.79999999999998</ele><time>2026-04-18T08:22:22.001Z</time></trkpt><trkpt lat="43.53769409730881" lon="10.790605463219514"><ele>177.39999999999998</ele><time>2026-04-18T08:22:23.001Z</time></trkpt><trkpt lat="43.53759658245785" lon="10.790622990561834"><ele>177.0</ele><time>2026-04-18T08:22:24.001Z</time></trkpt><trkpt lat="43.53750622775553" lon="10.79065947584451"><ele>177.0</ele><time>2026-04-18T08:22:25.001Z</time></trkpt><trkpt lat="43.537423830364304" lon="10.790693698806333"><ele>177.0</ele><time>2026-04-18T08:22:26.001Z</time></trkpt><trkpt lat="43.53733855277962" lon="10.790706867426506"><ele>177.0</ele><time>2026-04-18T08:22:27.001Z</time></trkpt><trkpt lat="43.537268925849006" lon="10.790759833344339"><ele>177.0</ele><time>2026-04-18T08:22:28.001Z</time></trkpt><trkpt lat="43.5371811547337" lon="10.79078403678336"><ele>177.0</ele><time>2026-04-18T08:22:29.001Z</time></trkpt><trkpt lat="43.53708050369128" lon="10.790822449338638"><ele>177.0</ele><time>2026-04-18T08:22:30.002Z</time></trkpt><trkpt lat="43.536963371112954" lon="10.790804851443303"><ele>177.5</ele><time>2026-04-18T08:22:31.002Z</time></trkpt><trkpt lat="43.536835125736495" lon="10.790794476115556"><ele>178.0</ele><time>2026-04-18T08:22:32.002Z</time></trkpt><trkpt lat="43.536707376584644" lon="10.790793864489832"><ele>178.5</ele><time>2026-04-18T08:22:33.002Z</time></trkpt><trkpt lat="43.53657500247532" lon="10.79079233189518"><ele>179.0</ele><time>2026-04-18T08:22:34.002Z</time></trkpt><trkpt lat="43.53646468979274" lon="10.790805404341143"><ele>179.0</ele><time>2026-04-18T08:22:35.002Z</time></trkpt><trkpt lat="43.536366437283185" lon="10.790820582372364"><ele>179.0</ele><time>2026-04-18T08:22:36.002Z</time></trkpt><trkpt lat="43.536277949625195" lon="10.79083832360459"><ele>179.0</ele><time>2026-04-18T08:22:37.002Z</time></trkpt><trkpt lat="43.53619462246899" lon="10.790852667292407"><ele>179.0</ele><time>2026-04-18T08:22:38.002Z</time></trkpt><trkpt lat="43.536121477368454" lon="10.790856892525586"><ele>179.0</ele><time>2026-04-18T08:22:39.002Z</time></trkpt><trkpt lat="43.53605430584484" lon="10.790848284314334"><ele>179.0</ele><time>2026-04-18T08:22:40.002Z</time></trkpt><trkpt lat="43.535989920311" lon="10.79080150200658"><ele>178.79999999999998</ele><time>2026-04-18T08:22:41.002Z</time></trkpt><trkpt lat="43.535916413530565" lon="10.79078005981041"><ele>178.6</ele><time>2026-04-18T08:22:42.002Z</time></trkpt><trkpt lat="43.53584434230712" lon="10.790723899393045"><ele>178.4</ele><time>2026-04-18T08:22:43.002Z</time></trkpt><trkpt lat="43.535762829760344" lon="10.790658086647996"><ele>178.2</ele><time>2026-04-18T08:22:44.002Z</time></trkpt><trkpt lat="43.53566410820671" lon="10.790570371558667"><ele>178.0</ele><time>2026-04-18T08:22:45.002Z</time></trkpt><trkpt lat="43.535560484256074" lon="10.790476605206415"><ele>178.0</ele><time>2026-04-18T08:22:46.002Z</time></trkpt><trkpt lat="43.535452377160695" lon="10.790386313012782"><ele>178.0</ele><time>2026-04-18T08:22:47.002Z</time></trkpt><trkpt lat="43.535338998268976" lon="10.79029533629973"><ele>178.0</ele><time>2026-04-18T08:22:48.002Z</time></trkpt><trkpt lat="43.535228185418504" lon="10.79020701155974"><ele>178.0</ele><time>2026-04-18T08:22:49.002Z</time></trkpt><trkpt lat="43.53510299955433" lon="10.790107380179421"><ele>176.25</ele><time>2026-04-18T08:22:50.002Z</time></trkpt><trkpt lat="43.53497052968795" lon="10.790002887616367"><ele>174.5</ele><time>2026-04-18T08:22:51.002Z</time></trkpt><trkpt lat="43.53485219852314" lon="10.78989065756943"><ele>172.75</ele><time>2026-04-18T08:22:52.002Z</time></trkpt><trkpt lat="43.534730059694844" lon="10.789812776764176"><ele>171.0</ele><time>2026-04-18T08:22:53.002Z</time></trkpt><trkpt lat="43.53462059089428" lon="10.78973495520446"><ele>169.8</ele><time>2026-04-18T08:22:54.002Z</time></trkpt><trkpt lat="43.53451783516753" lon="10.789660932182207"><ele>168.60000000000002</ele><time>2026-04-18T08:22:55.002Z</time></trkpt><trkpt lat="43.53441556186653" lon="10.789595262239397"><ele>167.4</ele><time>2026-04-18T08:22:56.002Z</time></trkpt><trkpt lat="43.53432092127337" lon="10.78954010059085"><ele>166.2</ele><time>2026-04-18T08:22:57.002Z</time></trkpt><trkpt lat="43.534221550996" lon="10.78948549099399"><ele>165.0</ele><time>2026-04-18T08:22:58.002Z</time></trkpt><trkpt lat="43.534111637551376" lon="10.789423264038327"><ele>165.0</ele><time>2026-04-18T08:22:59.002Z</time></trkpt><trkpt lat="43.53399892687417" lon="10.789357766090546"><ele>165.0</ele><time>2026-04-18T08:23:00.002Z</time></trkpt><trkpt lat="43.53390231926133" lon="10.789265034112848"><ele>165.0</ele><time>2026-04-18T08:23:01.002Z</time></trkpt><trkpt lat="43.53380051259592" lon="10.789196006385293"><ele>165.0</ele><time>2026-04-18T08:23:02.002Z</time></trkpt><trkpt lat="43.53368276518746" lon="10.789155760156387"><ele>164.25</ele><time>2026-04-18T08:23:03.002Z</time></trkpt><trkpt lat="43.53357342708581" lon="10.789073474592074"><ele>163.5</ele><time>2026-04-18T08:23:04.002Z</time></trkpt><trkpt lat="43.53346232480096" lon="10.78903283918775"><ele>162.75</ele><time>2026-04-18T08:23:05.002Z</time></trkpt><trkpt lat="43.5333565521841" lon="10.788973257819679"><ele>162.0</ele><time>2026-04-18T08:23:06.002Z</time></trkpt><trkpt lat="43.53325998067337" lon="10.788917582128889"><ele>162.0</ele><time>2026-04-18T08:23:06.998Z</time></trkpt><trkpt lat="43.533155575256785" lon="10.78885692047196"><ele>162.0</ele><time>2026-04-18T08:23:07.998Z</time></trkpt><trkpt lat="43.533043044851425" lon="10.788794152572729"><ele>162.0</ele><time>2026-04-18T08:23:08.998Z</time></trkpt><trkpt lat="43.53291841111281" lon="10.788728355768628"><ele>162.0</ele><time>2026-04-18T08:23:09.998Z</time></trkpt><trkpt lat="43.532795650515155" lon="10.78863578140127"><ele>160.75</ele><time>2026-04-18T08:23:10.998Z</time></trkpt><trkpt lat="43.53266500826525" lon="10.788581707725529"><ele>159.5</ele><time>2026-04-18T08:23:11.998Z</time></trkpt><trkpt lat="43.53253621829669" lon="10.788514194891778"><ele>158.25</ele><time>2026-04-18T08:23:12.998Z</time></trkpt><trkpt lat="43.53240215657866" lon="10.788439022072245"><ele>157.0</ele><time>2026-04-18T08:23:13.998Z</time></trkpt><trkpt lat="43.53226016476683" lon="10.788362252034352"><ele>157.0</ele><time>2026-04-18T08:23:14.999Z</time></trkpt><trkpt lat="43.532132736360104" lon="10.788289259226142"><ele>157.0</ele><time>2026-04-18T08:23:15.999Z</time></trkpt><trkpt lat="43.53201486539619" lon="10.788216090692403"><ele>157.0</ele><time>2026-04-18T08:23:16.999Z</time></trkpt><trkpt lat="43.5319160553033" lon="10.78814865192587"><ele>157.0</ele><time>2026-04-18T08:23:17.999Z</time></trkpt><trkpt lat="43.53184393747431" lon="10.788052077087546"><ele>156.0</ele><time>2026-04-18T08:23:18.999Z</time></trkpt><trkpt lat="43.531771692437786" lon="10.787947667185978"><ele>155.0</ele><time>2026-04-18T08:23:19.999Z</time></trkpt><trkpt lat="43.5316956170017" lon="10.787810750522661"><ele>154.0</ele><time>2026-04-18T08:23:20.999Z</time></trkpt><trkpt lat="43.53160506663053" lon="10.787655791295998"><ele>153.0</ele><time>2026-04-18T08:23:21.999Z</time></trkpt><trkpt lat="43.53150693761251" lon="10.78749877824223"><ele>153.0</ele><time>2026-04-18T08:23:22.999Z</time></trkpt><trkpt lat="43.53140622214147" lon="10.787347955002096"><ele>153.0</ele><time>2026-04-18T08:23:23.999Z</time></trkpt><trkpt lat="43.53132215942799" lon="10.787205499932798"><ele>153.0</ele><time>2026-04-18T08:23:24.999Z</time></trkpt><trkpt lat="43.53125185793266" lon="10.78708120435716"><ele>153.0</ele><time>2026-04-18T08:23:25.999Z</time></trkpt><trkpt lat="43.53118583617027" lon="10.78696391137293"><ele>150.6</ele><time>2026-04-18T08:23:26.999Z</time></trkpt><trkpt lat="43.53112368604305" lon="10.78684544619703"><ele>148.20000000000002</ele><time>2026-04-18T08:23:27.999Z</time></trkpt><trkpt lat="43.53105593657264" lon="10.786755558013036"><ele>145.8</ele><time>2026-04-18T08:23:28.999Z</time></trkpt><trkpt lat="43.530993056006515" lon="10.786669089521979"><ele>143.4</ele><time>2026-04-18T08:23:29.999Z</time></trkpt><trkpt lat="43.53093604753715" lon="10.786587442434852"><ele>141.0</ele><time>2026-04-18T08:23:30.999Z</time></trkpt><trkpt lat="43.53086742829525" lon="10.786495437420271"><ele>141.0</ele><time>2026-04-18T08:23:31.999Z</time></trkpt><trkpt lat="43.53080377837884" lon="10.786389068918329"><ele>141.0</ele><time>2026-04-18T08:23:32.999Z</time></trkpt><trkpt lat="43.53074157999527" lon="10.786309342226277"><ele>141.0</ele><time>2026-04-18T08:23:34Z</time></trkpt><trkpt lat="43.530684546721986" lon="10.786231610011356"><ele>141.0</ele><time>2026-04-18T08:23:35Z</time></trkpt><trkpt lat="43.530645123801754" lon="10.786151686448958"><ele>141.0</ele><time>2026-04-18T08:23:36Z</time></trkpt><trkpt lat="43.53063275880824" lon="10.78598974693667"><ele>141.5</ele><time>2026-04-18T08:23:38Z</time></trkpt><trkpt lat="43.53068397973137" lon="10.785892758142511"><ele>142.0</ele><time>2026-04-18T08:23:39Z</time></trkpt><trkpt lat="43.53072525028412" lon="10.78578624034574"><ele>142.5</ele><time>2026-04-18T08:23:40Z</time></trkpt><trkpt lat="43.53075322639374" lon="10.785678944456103"><ele>143.0</ele><time>2026-04-18T08:23:41Z</time></trkpt><trkpt lat="43.5307923391289" lon="10.785585557580342"><ele>143.5</ele><time>2026-04-18T08:23:42Z</time></trkpt><trkpt lat="43.53082605033632" lon="10.785498631660255"><ele>144.0</ele><time>2026-04-18T08:23:43Z</time></trkpt><trkpt lat="43.530874509348706" lon="10.785394214417579"><ele>144.0</ele><time>2026-04-18T08:23:45Z</time></trkpt><trkpt lat="43.53089698649871" lon="10.78529854990346"><ele>144.0</ele><time>2026-04-18T08:23:47Z</time></trkpt><trkpt lat="43.5308845796203" lon="10.785142136606455"><ele>144.0</ele><time>2026-04-18T08:23:49Z</time></trkpt><trkpt lat="43.530871662242994" lon="10.78504540418636"><ele>144.0</ele><time>2026-04-18T08:23:50Z</time></trkpt><trkpt lat="43.53084965930545" lon="10.784951856453734"><ele>144.0</ele><time>2026-04-18T08:23:51Z</time></trkpt><trkpt lat="43.530816307655215" lon="10.784839892178104"><ele>144.0</ele><time>2026-04-18T08:23:52Z</time></trkpt><trkpt lat="43.530793508677306" lon="10.78472473991694"><ele>143.16666666666666</ele><time>2026-04-18T08:23:53Z</time></trkpt><trkpt lat="43.530763349093085" lon="10.784626239756168"><ele>142.33333333333334</ele><time>2026-04-18T08:23:54Z</time></trkpt><trkpt lat="43.53073635610561" lon="10.784517286848756"><ele>141.5</ele><time>2026-04-18T08:23:55Z</time></trkpt><trkpt lat="43.53072242188447" lon="10.784410667610668"><ele>140.66666666666669</ele><time>2026-04-18T08:23:56Z</time></trkpt><trkpt lat="43.5306848754294" lon="10.784331291545792"><ele>139.83333333333334</ele><time>2026-04-18T08:23:57Z</time></trkpt><trkpt lat="43.530668678344924" lon="10.784240992215592"><ele>139.0</ele><time>2026-04-18T08:23:58Z</time></trkpt><trkpt lat="43.53060062234647" lon="10.784121835598864"><ele>138.2</ele><time>2026-04-18T08:24:00.001Z</time></trkpt><trkpt lat="43.53050088541018" lon="10.78406419872866"><ele>137.4</ele><time>2026-04-18T08:24:02.001Z</time></trkpt><trkpt lat="43.53041254566727" lon="10.784167121524522"><ele>136.6</ele><time>2026-04-18T08:24:03.001Z</time></trkpt><trkpt lat="43.53035666473852" lon="10.784239482291547"><ele>135.8</ele><time>2026-04-18T08:24:04.001Z</time></trkpt><trkpt lat="43.53027558535991" lon="10.784301349406423"><ele>135.0</ele><time>2026-04-18T08:24:05.001Z</time></trkpt><trkpt lat="43.53017965741407" lon="10.784416417522857"><ele>135.0</ele><time>2026-04-18T08:24:06.001Z</time></trkpt><trkpt lat="43.53010208973562" lon="10.784527043360272"><ele>135.0</ele><time>2026-04-18T08:24:07.001Z</time></trkpt><trkpt lat="43.53004976550652" lon="10.78461970456514"><ele>135.0</ele><time>2026-04-18T08:24:08.001Z</time></trkpt><trkpt lat="43.52992445362554" lon="10.784708913015198"><ele>135.0</ele><time>2026-04-18T08:24:10.001Z</time></trkpt><trkpt lat="43.5298219745792" lon="10.784745651280675"><ele>135.0</ele><time>2026-04-18T08:24:11.001Z</time></trkpt><trkpt lat="43.529700314227505" lon="10.784764857543973"><ele>135.0</ele><time>2026-04-18T08:24:12.001Z</time></trkpt><trkpt lat="43.52956839657586" lon="10.784763061896868"><ele>135.0</ele><time>2026-04-18T08:24:13.001Z</time></trkpt><trkpt lat="43.52944143446993" lon="10.784727252067238"><ele>135.0</ele><time>2026-04-18T08:24:14.001Z</time></trkpt><trkpt lat="43.52931836498275" lon="10.784729679398115"><ele>135.0</ele><time>2026-04-18T08:24:15.001Z</time></trkpt><trkpt lat="43.529205350138554" lon="10.7846918191033"><ele>130.6</ele><time>2026-04-18T08:24:16.001Z</time></trkpt><trkpt lat="43.529097397425744" lon="10.784668497689392"><ele>126.2</ele><time>2026-04-18T08:24:17.001Z</time></trkpt><trkpt lat="43.52899285642799" lon="10.78464635511802"><ele>121.80000000000001</ele><time>2026-04-18T08:24:18.001Z</time></trkpt><trkpt lat="43.52888638097851" lon="10.784620924405237"><ele>117.4</ele><time>2026-04-18T08:24:19.001Z</time></trkpt><trkpt lat="43.5287852906386" lon="10.78459924975944"><ele>113.0</ele><time>2026-04-18T08:24:20.001Z</time></trkpt><trkpt lat="43.52869322029304" lon="10.784608817659059"><ele>110.99999999999999</ele><time>2026-04-18T08:24:21.001Z</time></trkpt><trkpt lat="43.52861623961367" lon="10.78460258553558"><ele>109.0</ele><time>2026-04-18T08:24:22.001Z</time></trkpt><trkpt lat="43.52854405071" lon="10.784589615420714"><ele>107.0</ele><time>2026-04-18T08:24:23.001Z</time></trkpt><trkpt lat="43.52846929390586" lon="10.784637099934915"><ele>105.0</ele><time>2026-04-18T08:24:24.001Z</time></trkpt><trkpt lat="43.52838177768562" lon="10.784665063403521"><ele>102.99999999999999</ele><time>2026-04-18T08:24:25.001Z</time></trkpt><trkpt lat="43.528279813207725" lon="10.784668820930998"><ele>101.0</ele><time>2026-04-18T08:24:26.001Z</time></trkpt><trkpt lat="43.52817280655863" lon="10.784684844348288"><ele>101.0</ele><time>2026-04-18T08:24:27.001Z</time></trkpt><trkpt lat="43.52806994316671" lon="10.784681167964393"><ele>101.0</ele><time>2026-04-18T08:24:28.001Z</time></trkpt><trkpt lat="43.52795333153192" lon="10.784666345314717"><ele>101.0</ele><time>2026-04-18T08:24:29.001Z</time></trkpt><trkpt lat="43.52782639999245" lon="10.784647046321457"><ele>101.0</ele><time>2026-04-18T08:24:30.002Z</time></trkpt><trkpt lat="43.527718101384266" lon="10.784631578037649"><ele>98.6</ele><time>2026-04-18T08:24:31.002Z</time></trkpt><trkpt lat="43.527624734677694" lon="10.784639905584326"><ele>96.19999999999999</ele><time>2026-04-18T08:24:32.002Z</time></trkpt><trkpt lat="43.52753777371777" lon="10.784587743802904"><ele>93.80000000000001</ele><time>2026-04-18T08:24:33.002Z</time></trkpt><trkpt lat="43.52744231169411" lon="10.784532124571777"><ele>91.4</ele><time>2026-04-18T08:24:34.002Z</time></trkpt><trkpt lat="43.52734214753777" lon="10.78444147568825"><ele>89.0</ele><time>2026-04-18T08:24:35.002Z</time></trkpt><trkpt lat="43.52725450023297" lon="10.784349351568157"><ele>89.5</ele><time>2026-04-18T08:24:36.002Z</time></trkpt><trkpt lat="43.52720160030044" lon="10.784242231045639"><ele>90.0</ele><time>2026-04-18T08:24:37.002Z</time></trkpt><trkpt lat="43.52714979710763" lon="10.784093655742552"><ele>90.5</ele><time>2026-04-18T08:24:38.002Z</time></trkpt><trkpt lat="43.52706353724685" lon="10.783941850127277"><ele>91.0</ele><time>2026-04-18T08:24:39.002Z</time></trkpt><trkpt lat="43.526972814619455" lon="10.78378219047285"><ele>91.0</ele><time>2026-04-18T08:24:40.002Z</time></trkpt><trkpt lat="43.52688602424797" lon="10.783635035811423"><ele>91.0</ele><time>2026-04-18T08:24:41.002Z</time></trkpt><trkpt lat="43.52680334141806" lon="10.78349604439032"><ele>91.0</ele><time>2026-04-18T08:24:42.002Z</time></trkpt><trkpt lat="43.526723250543" lon="10.783364496695711"><ele>91.0</ele><time>2026-04-18T08:24:43.002Z</time></trkpt><trkpt lat="43.52665680645508" lon="10.783248267710976"><ele>90.0</ele><time>2026-04-18T08:24:44.002Z</time></trkpt><trkpt lat="43.52660834223587" lon="10.783128459784201"><ele>89.0</ele><time>2026-04-18T08:24:45.002Z</time></trkpt><trkpt lat="43.526560599260335" lon="10.78298401934746"><ele>88.0</ele><time>2026-04-18T08:24:46.002Z</time></trkpt><trkpt lat="43.52650395588723" lon="10.782802888782879"><ele>87.0</ele><time>2026-04-18T08:24:47.002Z</time></trkpt><trkpt lat="43.52644184157081" lon="10.782606149381692"><ele>84.75</ele><time>2026-04-18T08:24:48.002Z</time></trkpt><trkpt lat="43.52638243269456" lon="10.782418714049845"><ele>82.5</ele><time>2026-04-18T08:24:49.002Z</time></trkpt><trkpt lat="43.52632332172834" lon="10.782232218562582"><ele>80.25</ele><time>2026-04-18T08:24:50.002Z</time></trkpt><trkpt lat="43.52626902867675" lon="10.782055847825944"><ele>78.0</ele><time>2026-04-18T08:24:51.002Z</time></trkpt><trkpt lat="43.52620962365261" lon="10.781890108344534"><ele>76.2</ele><time>2026-04-18T08:24:52.002Z</time></trkpt><trkpt lat="43.52615557879489" lon="10.781732804768792"><ele>74.4</ele><time>2026-04-18T08:24:53.002Z</time></trkpt><trkpt lat="43.52613137241338" lon="10.781589452885358"><ele>72.60000000000001</ele><time>2026-04-18T08:24:54.002Z</time></trkpt><trkpt lat="43.52608558725255" lon="10.781493664875962"><ele>70.8</ele><time>2026-04-18T08:24:55.002Z</time></trkpt><trkpt lat="43.52604882525805" lon="10.781332902473423"><ele>69.0</ele><time>2026-04-18T08:24:57.002Z</time></trkpt><trkpt lat="43.52601657946881" lon="10.78124365045522"><ele>69.0</ele><time>2026-04-18T08:24:59.002Z</time></trkpt><trkpt lat="43.5259779672611" lon="10.781156484688077"><ele>69.0</ele><time>2026-04-18T08:25:06.003Z</time></trkpt><trkpt lat="43.52583470480103" lon="10.781280122028848"><ele>69.0</ele><time>2026-04-18T08:25:08.003Z</time></trkpt><trkpt lat="43.52576621955007" lon="10.781367953631616"><ele>69.0</ele><time>2026-04-18T08:25:09.003Z</time></trkpt><trkpt lat="43.525662818645515" lon="10.781470124962897"><ele>69.0</ele><time>2026-04-18T08:25:10.003Z</time></trkpt><trkpt lat="43.525556540206715" lon="10.781573234236902"><ele>69.0</ele><time>2026-04-18T08:25:11.003Z</time></trkpt><trkpt lat="43.52543596569519" lon="10.781693978670832"><ele>69.0</ele><time>2026-04-18T08:25:12.003Z</time></trkpt><trkpt lat="43.52531339721924" lon="10.78181516330173"><ele>69.0</ele><time>2026-04-18T08:25:12.999Z</time></trkpt><trkpt lat="43.525183153538954" lon="10.781944668623444"><ele>69.66666666666667</ele><time>2026-04-18T08:25:13.999Z</time></trkpt><trkpt lat="43.525048814739456" lon="10.78207753006073"><ele>70.33333333333334</ele><time>2026-04-18T08:25:14.999Z</time></trkpt><trkpt lat="43.52491903788729" lon="10.782210321069627"><ele>71.0</ele><time>2026-04-18T08:25:15.999Z</time></trkpt><trkpt lat="43.52479994768081" lon="10.782354012181083"><ele>71.0</ele><time>2026-04-18T08:25:16.999Z</time></trkpt><trkpt lat="43.524693756692876" lon="10.782506041735767"><ele>71.0</ele><time>2026-04-18T08:25:17.999Z</time></trkpt><trkpt lat="43.524599004504" lon="10.782681150569278"><ele>71.0</ele><time>2026-04-18T08:25:19Z</time></trkpt><trkpt lat="43.52452088502621" lon="10.782868266334225"><ele>69.0</ele><time>2026-04-18T08:25:20Z</time></trkpt><trkpt lat="43.52443996697221" lon="10.783051499263317"><ele>67.0</ele><time>2026-04-18T08:25:21Z</time></trkpt><trkpt lat="43.52435583119019" lon="10.783229311035269"><ele>65.0</ele><time>2026-04-18T08:25:22Z</time></trkpt><trkpt lat="43.524269128614144" lon="10.783413162323589"><ele>65.0</ele><time>2026-04-18T08:25:23Z</time></trkpt><trkpt lat="43.52418193281763" lon="10.783609869259449"><ele>65.0</ele><time>2026-04-18T08:25:24Z</time></trkpt><trkpt lat="43.524095789067935" lon="10.783794921573989"><ele>65.0</ele><time>2026-04-18T08:25:25Z</time></trkpt><trkpt lat="43.52401662852543" lon="10.78396291060528"><ele>65.0</ele><time>2026-04-18T08:25:26Z</time></trkpt><trkpt lat="43.52394369845187" lon="10.78411645719121"><ele>65.0</ele><time>2026-04-18T08:25:27Z</time></trkpt><trkpt lat="43.523855740905425" lon="10.784238519312305"><ele>65.0</ele><time>2026-04-18T08:25:28Z</time></trkpt><trkpt lat="43.52376664239258" lon="10.78434511367099"><ele>65.0</ele><time>2026-04-18T08:25:29Z</time></trkpt><trkpt lat="43.52367007804487" lon="10.784433079358656"><ele>66.0</ele><time>2026-04-18T08:25:30Z</time></trkpt><trkpt lat="43.52355996308252" lon="10.784510449227371"><ele>67.0</ele><time>2026-04-18T08:25:31Z</time></trkpt><trkpt lat="43.523437352147404" lon="10.784584511145633"><ele>68.0</ele><time>2026-04-18T08:25:32Z</time></trkpt><trkpt lat="43.52332945060244" lon="10.78466477567291"><ele>69.0</ele><time>2026-04-18T08:25:33Z</time></trkpt><trkpt lat="43.52322153090768" lon="10.78472030464164"><ele>69.0</ele><time>2026-04-18T08:25:34Z</time></trkpt><trkpt lat="43.52312513769634" lon="10.784779493195105"><ele>69.0</ele><time>2026-04-18T08:25:35Z</time></trkpt><trkpt lat="43.52303065633669" lon="10.784844633897418"><ele>69.0</ele><time>2026-04-18T08:25:36Z</time></trkpt><trkpt lat="43.522941627621606" lon="10.784902679653458"><ele>69.0</ele><time>2026-04-18T08:25:37Z</time></trkpt><trkpt lat="43.522854767455456" lon="10.784952874798371"><ele>69.0</ele><time>2026-04-18T08:25:38Z</time></trkpt><trkpt lat="43.5227755200344" lon="10.785000123254044"><ele>69.0</ele><time>2026-04-18T08:25:39Z</time></trkpt><trkpt lat="43.522709749222024" lon="10.78504296575019"><ele>69.0</ele><time>2026-04-18T08:25:40Z</time></trkpt><trkpt lat="43.522607847510066" lon="10.78510605527365"><ele>69.0</ele><time>2026-04-18T08:25:42Z</time></trkpt><trkpt lat="43.522524848427736" lon="10.785154758405776"><ele>69.0</ele><time>2026-04-18T08:25:44Z</time></trkpt><trkpt lat="43.52242084929702" lon="10.78521034854409"><ele>69.0</ele><time>2026-04-18T08:25:46.001Z</time></trkpt><trkpt lat="43.522432904105436" lon="10.785439243385625"><ele>69.0</ele><time>2026-04-18T08:25:50.001Z</time></trkpt><trkpt lat="43.52247864748196" lon="10.785510670518828"><ele>69.0</ele><time>2026-04-18T08:25:51.001Z</time></trkpt><trkpt lat="43.52251908401046" lon="10.785587739623486"><ele>69.0</ele><time>2026-04-18T08:25:52.001Z</time></trkpt><trkpt lat="43.52255149659365" lon="10.785675576510867"><ele>69.0</ele><time>2026-04-18T08:25:53.001Z</time></trkpt><trkpt lat="43.52254628914265" lon="10.785784101677072"><ele>69.0</ele><time>2026-04-18T08:25:54.001Z</time></trkpt><trkpt lat="43.522549448358596" lon="10.785899760425108"><ele>69.0</ele><time>2026-04-18T08:25:55.001Z</time></trkpt><trkpt lat="43.52255300014688" lon="10.786034195688728"><ele>69.2</ele><time>2026-04-18T08:25:56.001Z</time></trkpt><trkpt lat="43.52255600485077" lon="10.786195407207533"><ele>69.4</ele><time>2026-04-18T08:25:57.001Z</time></trkpt><trkpt lat="43.52256479025955" lon="10.786363511915338"><ele>69.6</ele><time>2026-04-18T08:25:58.001Z</time></trkpt><trkpt lat="43.52257581105221" lon="10.786504247752978"><ele>69.8</ele><time>2026-04-18T08:25:59.001Z</time></trkpt><trkpt lat="43.52258762143517" lon="10.786638781607499"><ele>70.0</ele><time>2026-04-18T08:26:00.001Z</time></trkpt><trkpt lat="43.52260207854812" lon="10.786790909444484"><ele>70.5</ele><time>2026-04-18T08:26:01.001Z</time></trkpt><trkpt lat="43.52262382262076" lon="10.78695008204374"><ele>71.0</ele><time>2026-04-18T08:26:02.001Z</time></trkpt><trkpt lat="43.52264506974507" lon="10.787103416398391"><ele>71.5</ele><time>2026-04-18T08:26:03.001Z</time></trkpt><trkpt lat="43.52266546758828" lon="10.787256218201424"><ele>72.0</ele><time>2026-04-18T08:26:04.001Z</time></trkpt><trkpt lat="43.52268776712354" lon="10.78741066598218"><ele>72.0</ele><time>2026-04-18T08:26:05.001Z</time></trkpt><trkpt lat="43.52271307836791" lon="10.78756462808194"><ele>72.0</ele><time>2026-04-18T08:26:06.001Z</time></trkpt><trkpt lat="43.52273926629126" lon="10.78774112977743"><ele>72.0</ele><time>2026-04-18T08:26:07.001Z</time></trkpt><trkpt lat="43.52276080704874" lon="10.787921992287412"><ele>72.0</ele><time>2026-04-18T08:26:08.001Z</time></trkpt><trkpt lat="43.52277943740744" lon="10.78807896189977"><ele>72.5</ele><time>2026-04-18T08:26:09.001Z</time></trkpt><trkpt lat="43.52280075635038" lon="10.788227324854354"><ele>73.0</ele><time>2026-04-18T08:26:10.001Z</time></trkpt><trkpt lat="43.522825836542374" lon="10.788380018076055"><ele>73.5</ele><time>2026-04-18T08:26:11.001Z</time></trkpt><trkpt lat="43.5228541246919" lon="10.788535774480117"><ele>74.0</ele><time>2026-04-18T08:26:12.001Z</time></trkpt><trkpt lat="43.52287344190686" lon="10.788688781165723"><ele>75.2</ele><time>2026-04-18T08:26:13.001Z</time></trkpt><trkpt lat="43.522892716852056" lon="10.788826716948355"><ele>76.4</ele><time>2026-04-18T08:26:14.001Z</time></trkpt><trkpt lat="43.52291264601067" lon="10.78896238705813"><ele>77.6</ele><time>2026-04-18T08:26:15.001Z</time></trkpt><trkpt lat="43.52293473109823" lon="10.789101166771225"><ele>78.8</ele><time>2026-04-18T08:26:16.001Z</time></trkpt><trkpt lat="43.52295468826947" lon="10.789237558405851"><ele>80.0</ele><time>2026-04-18T08:26:17.002Z</time></trkpt><trkpt lat="43.52297874330573" lon="10.78937867668698"><ele>82.0</ele><time>2026-04-18T08:26:18.002Z</time></trkpt><trkpt lat="43.52300370874031" lon="10.78951544498062"><ele>84.0</ele><time>2026-04-18T08:26:19.002Z</time></trkpt><trkpt lat="43.52301038334268" lon="10.789638935763328"><ele>86.0</ele><time>2026-04-18T08:26:20.002Z</time></trkpt><trkpt lat="43.52303481168253" lon="10.789749435387264"><ele>88.0</ele><time>2026-04-18T08:26:21.002Z</time></trkpt><trkpt lat="43.523054206116676" lon="10.789839631400787"><ele>90.0</ele><time>2026-04-18T08:26:22.002Z</time></trkpt><trkpt lat="43.52308779710472" lon="10.78998997726557"><ele>90.0</ele><time>2026-04-18T08:26:24.002Z</time></trkpt><trkpt lat="43.52310695695227" lon="10.790082649325324"><ele>90.0</ele><time>2026-04-18T08:26:25.002Z</time></trkpt><trkpt lat="43.52311869165364" lon="10.790181209120778"><ele>90.0</ele><time>2026-04-18T08:26:26.002Z</time></trkpt><trkpt lat="43.5231267277716" lon="10.790295287432723"><ele>90.0</ele><time>2026-04-18T08:26:27.002Z</time></trkpt><trkpt lat="43.52313545027923" lon="10.790430739946517"><ele>90.0</ele><time>2026-04-18T08:26:28.002Z</time></trkpt><trkpt lat="43.52315372682613" lon="10.79055136306694"><ele>90.0</ele><time>2026-04-18T08:26:29.002Z</time></trkpt><trkpt lat="43.52316595975428" lon="10.790649521484573"><ele>90.5</ele><time>2026-04-18T08:26:30.002Z</time></trkpt><trkpt lat="43.523177256585605" lon="10.790760141746722"><ele>91.0</ele><time>2026-04-18T08:26:31.002Z</time></trkpt><trkpt lat="43.523199836522465" lon="10.79087864180723"><ele>91.5</ele><time>2026-04-18T08:26:32.002Z</time></trkpt><trkpt lat="43.523230326643706" lon="10.790988596336966"><ele>92.0</ele><time>2026-04-18T08:26:33.002Z</time></trkpt><trkpt lat="43.523278479562784" lon="10.791097079149141"><ele>92.5</ele><time>2026-04-18T08:26:34.002Z</time></trkpt><trkpt lat="43.52334209001696" lon="10.791197194475123"><ele>93.0</ele><time>2026-04-18T08:26:35.002Z</time></trkpt><trkpt lat="43.523417370235826" lon="10.79128639400657"><ele>93.0</ele><time>2026-04-18T08:26:36.002Z</time></trkpt><trkpt lat="43.523484053030145" lon="10.79138029286623"><ele>93.0</ele><time>2026-04-18T08:26:37.002Z</time></trkpt><trkpt lat="43.52354974292241" lon="10.791492675314624"><ele>93.0</ele><time>2026-04-18T08:26:38.002Z</time></trkpt><trkpt lat="43.52361025043567" lon="10.791610252952117"><ele>93.0</ele><time>2026-04-18T08:26:39.002Z</time></trkpt><trkpt lat="43.52365820510963" lon="10.791718355592462"><ele>93.0</ele><time>2026-04-18T08:26:40.002Z</time></trkpt><trkpt lat="43.52369014859324" lon="10.791821918807061"><ele>93.0</ele><time>2026-04-18T08:26:41.002Z</time></trkpt><trkpt lat="43.52369789947967" lon="10.791929172036676"><ele>93.0</ele><time>2026-04-18T08:26:42.002Z</time></trkpt><trkpt lat="43.523695421234" lon="10.7920479375041"><ele>93.0</ele><time>2026-04-18T08:26:43.002Z</time></trkpt><trkpt lat="43.523677899866584" lon="10.792157168071757"><ele>93.0</ele><time>2026-04-18T08:26:44.002Z</time></trkpt><trkpt lat="43.52366172591812" lon="10.792243112007537"><ele>93.0</ele><time>2026-04-18T08:26:45.002Z</time></trkpt><trkpt lat="43.5236420238773" lon="10.792345988653889"><ele>93.0</ele><time>2026-04-18T08:26:46.002Z</time></trkpt><trkpt lat="43.52361429720117" lon="10.792459724150197"><ele>93.0</ele><time>2026-04-18T08:26:47.002Z</time></trkpt><trkpt lat="43.523575170939026" lon="10.792586853173862"><ele>93.0</ele><time>2026-04-18T08:26:48.002Z</time></trkpt><trkpt lat="43.523535895394986" lon="10.792730151785562"><ele>93.0</ele><time>2026-04-18T08:26:49.002Z</time></trkpt><trkpt lat="43.523506602864714" lon="10.792893459911557"><ele>93.0</ele><time>2026-04-18T08:26:50.003Z</time></trkpt><trkpt lat="43.52348962323295" lon="10.793067873197874"><ele>93.75</ele><time>2026-04-18T08:26:51.003Z</time></trkpt><trkpt lat="43.52348119916488" lon="10.793240411509945"><ele>94.5</ele><time>2026-04-18T08:26:52.003Z</time></trkpt><trkpt lat="43.52348545048365" lon="10.7934053922139"><ele>95.25</ele><time>2026-04-18T08:26:53.003Z</time></trkpt><trkpt lat="43.52349427935838" lon="10.793563921612904"><ele>96.0</ele><time>2026-04-18T08:26:54.003Z</time></trkpt><trkpt lat="43.523503233804355" lon="10.793723193791477"><ele>96.0</ele><time>2026-04-18T08:26:55.003Z</time></trkpt><trkpt lat="43.52350263853588" lon="10.793896632576333"><ele>96.0</ele><time>2026-04-18T08:26:56.003Z</time></trkpt><trkpt lat="43.52349413256973" lon="10.794075211234082"><ele>96.0</ele><time>2026-04-18T08:26:57.003Z</time></trkpt><trkpt lat="43.52348369823095" lon="10.79425873390455"><ele>96.0</ele><time>2026-04-18T08:26:58.003Z</time></trkpt><trkpt lat="43.52347274504374" lon="10.794438439289564"><ele>96.0</ele><time>2026-04-18T08:26:59.003Z</time></trkpt><trkpt lat="43.52345831634912" lon="10.794612279758637"><ele>96.0</ele><time>2026-04-18T08:27:00.003Z</time></trkpt><trkpt lat="43.5234412491416" lon="10.794778117360599"><ele>96.0</ele><time>2026-04-18T08:27:01.003Z</time></trkpt><trkpt lat="43.523433637446004" lon="10.79494056685998"><ele>96.0</ele><time>2026-04-18T08:27:02.003Z</time></trkpt><trkpt lat="43.52343352511879" lon="10.795090504089675"><ele>95.0</ele><time>2026-04-18T08:27:03.003Z</time></trkpt><trkpt lat="43.52345785199035" lon="10.795238340069218"><ele>94.0</ele><time>2026-04-18T08:27:04.003Z</time></trkpt><trkpt lat="43.52348924997007" lon="10.795391972212878"><ele>93.0</ele><time>2026-04-18T08:27:05.003Z</time></trkpt><trkpt lat="43.523529591635196" lon="10.795557998856776"><ele>92.0</ele><time>2026-04-18T08:27:06.003Z</time></trkpt><trkpt lat="43.52357464138923" lon="10.79572146049882"><ele>92.0</ele><time>2026-04-18T08:27:07.003Z</time></trkpt><trkpt lat="43.523619299274046" lon="10.795872521155449"><ele>92.0</ele><time>2026-04-18T08:27:08.003Z</time></trkpt><trkpt lat="43.52367475098803" lon="10.79601702562609"><ele>92.0</ele><time>2026-04-18T08:27:09.003Z</time></trkpt><trkpt lat="43.52373507894481" lon="10.79616259917167"><ele>92.0</ele><time>2026-04-18T08:27:10.003Z</time></trkpt><trkpt lat="43.5237943501067" lon="10.796325483201475"><ele>92.5</ele><time>2026-04-18T08:27:11.003Z</time></trkpt><trkpt lat="43.523849196571426" lon="10.796498738971728"><ele>93.0</ele><time>2026-04-18T08:27:12.003Z</time></trkpt><trkpt lat="43.523893784773875" lon="10.796683749275923"><ele>93.5</ele><time>2026-04-18T08:27:13.003Z</time></trkpt><trkpt lat="43.52392894573847" lon="10.796870635549356"><ele>94.0</ele><time>2026-04-18T08:27:14.003Z</time></trkpt><trkpt lat="43.52396046442053" lon="10.79706029131648"><ele>94.0</ele><time>2026-04-18T08:27:15.003Z</time></trkpt><trkpt lat="43.523981815406664" lon="10.797237087239484"><ele>94.0</ele><time>2026-04-18T08:27:16.003Z</time></trkpt><trkpt lat="43.523994648943265" lon="10.797422009744881"><ele>94.0</ele><time>2026-04-18T08:27:17.003Z</time></trkpt><trkpt lat="43.5240038269716" lon="10.797622969180027"><ele>94.0</ele><time>2026-04-18T08:27:18.003Z</time></trkpt><trkpt lat="43.524017832037906" lon="10.79782590490085"><ele>95.0</ele><time>2026-04-18T08:27:19Z</time></trkpt><trkpt lat="43.52403305704336" lon="10.798011059879745"><ele>96.0</ele><time>2026-04-18T08:27:20Z</time></trkpt><trkpt lat="43.52405103738526" lon="10.798197332431336"><ele>97.0</ele><time>2026-04-18T08:27:21Z</time></trkpt><trkpt lat="43.524077647546214" lon="10.798383378675018"><ele>98.0</ele><time>2026-04-18T08:27:22Z</time></trkpt><trkpt lat="43.52410632043917" lon="10.79857107227837"><ele>99.5</ele><time>2026-04-18T08:27:23Z</time></trkpt><trkpt lat="43.524195601457464" lon="10.799095478838144"><ele>101.0</ele><time>2026-04-18T08:27:26Z</time></trkpt><trkpt lat="43.52421667519182" lon="10.7992648717088"><ele>101.5</ele><time>2026-04-18T08:27:27Z</time></trkpt><trkpt lat="43.52423182330581" lon="10.799433301397702"><ele>102.0</ele><time>2026-04-18T08:27:28Z</time></trkpt><trkpt lat="43.5242385563321" lon="10.799600449293173"><ele>102.5</ele><time>2026-04-18T08:27:29Z</time></trkpt><trkpt lat="43.52423071501814" lon="10.799770745121968"><ele>103.0</ele><time>2026-04-18T08:27:30Z</time></trkpt><trkpt lat="43.52420859734054" lon="10.799941352832223"><ele>103.0</ele><time>2026-04-18T08:27:31Z</time></trkpt><trkpt lat="43.524179978516464" lon="10.800119145787125"><ele>103.0</ele><time>2026-04-18T08:27:32Z</time></trkpt><trkpt lat="43.52415874348738" lon="10.800294683926829"><ele>103.0</ele><time>2026-04-18T08:27:33Z</time></trkpt><trkpt lat="43.524149322472" lon="10.800470499658726"><ele>103.0</ele><time>2026-04-18T08:27:34Z</time></trkpt><trkpt lat="43.52414298486936" lon="10.800628873413933"><ele>102.4</ele><time>2026-04-18T08:27:35Z</time></trkpt><trkpt lat="43.52413778298428" lon="10.800769275971861"><ele>101.80000000000001</ele><time>2026-04-18T08:27:36Z</time></trkpt><trkpt lat="43.52412610673435" lon="10.800911967237727"><ele>101.2</ele><time>2026-04-18T08:27:37Z</time></trkpt><trkpt lat="43.52410290298943" lon="10.801038316344767"><ele>100.6</ele><time>2026-04-18T08:27:38Z</time></trkpt><trkpt lat="43.52406697645718" lon="10.801175472294684"><ele>100.0</ele><time>2026-04-18T08:27:39Z</time></trkpt><trkpt lat="43.5240172257124" lon="10.801318027142992"><ele>98.5</ele><time>2026-04-18T08:27:40Z</time></trkpt><trkpt lat="43.523959238010335" lon="10.801464053644162"><ele>97.0</ele><time>2026-04-18T08:27:41Z</time></trkpt><trkpt lat="43.523897677071496" lon="10.801596090969905"><ele>95.5</ele><time>2026-04-18T08:27:42Z</time></trkpt><trkpt lat="43.52384011783239" lon="10.801728997768675"><ele>94.0</ele><time>2026-04-18T08:27:43Z</time></trkpt><trkpt lat="43.52378067639458" lon="10.801846345396415"><ele>95.80000000000001</ele><time>2026-04-18T08:27:44Z</time></trkpt><trkpt lat="43.52371224603312" lon="10.801942068533332"><ele>97.60000000000001</ele><time>2026-04-18T08:27:45Z</time></trkpt><trkpt lat="43.52362835167545" lon="10.8020320447246"><ele>99.4</ele><time>2026-04-18T08:27:46Z</time></trkpt><trkpt lat="43.52351902263026" lon="10.802078899370091"><ele>101.2</ele><time>2026-04-18T08:27:47Z</time></trkpt><trkpt lat="43.52342560883821" lon="10.802155121107102"><ele>103.0</ele><time>2026-04-18T08:27:48Z</time></trkpt><trkpt lat="43.52333106046733" lon="10.802216382618536"><ele>103.00000000000001</ele><time>2026-04-18T08:27:49.001Z</time></trkpt><trkpt lat="43.52325035834558" lon="10.802277253143645"><ele>103.0</ele><time>2026-04-18T08:27:50.001Z</time></trkpt><trkpt lat="43.52317175359633" lon="10.80234744615482"><ele>103.0</ele><time>2026-04-18T08:27:51.001Z</time></trkpt><trkpt lat="43.523109310433775" lon="10.802427827992766"><ele>103.0</ele><time>2026-04-18T08:27:52.001Z</time></trkpt><trkpt lat="43.523058506510964" lon="10.802524021550356"><ele>103.00000000000001</ele><time>2026-04-18T08:27:53.001Z</time></trkpt><trkpt lat="43.52301390796865" lon="10.802634596635345"><ele>103.0</ele><time>2026-04-18T08:27:54.001Z</time></trkpt><trkpt lat="43.522982713110984" lon="10.802754742678069"><ele>103.80000000000001</ele><time>2026-04-18T08:27:55.001Z</time></trkpt><trkpt lat="43.52296091604815" lon="10.802903147148582"><ele>104.6</ele><time>2026-04-18T08:27:56.001Z</time></trkpt><trkpt lat="43.522945117561946" lon="10.80303779760028"><ele>105.39999999999999</ele><time>2026-04-18T08:27:57.001Z</time></trkpt><trkpt lat="43.522927973977964" lon="10.803141277242803"><ele>106.19999999999999</ele><time>2026-04-18T08:27:58.001Z</time></trkpt><trkpt lat="43.52291708715266" lon="10.803327031099535"><ele>107.0</ele><time>2026-04-18T08:28:00.001Z</time></trkpt><trkpt lat="43.52291843575932" lon="10.803421403972113"><ele>106.83333333333333</ele><time>2026-04-18T08:28:01.001Z</time></trkpt><trkpt lat="43.52292180926407" lon="10.803525232993787"><ele>106.66666666666666</ele><time>2026-04-18T08:28:02.001Z</time></trkpt><trkpt lat="43.522932911793774" lon="10.803633870723116"><ele>106.5</ele><time>2026-04-18T08:28:03.001Z</time></trkpt><trkpt lat="43.52295116823138" lon="10.803737428605638"><ele>106.33333333333334</ele><time>2026-04-18T08:28:04.001Z</time></trkpt><trkpt lat="43.52298856304898" lon="10.803838293932623"><ele>106.16666666666667</ele><time>2026-04-18T08:28:05.001Z</time></trkpt><trkpt lat="43.52304280792403" lon="10.803947410965222"><ele>106.0</ele><time>2026-04-18T08:28:06.001Z</time></trkpt><trkpt lat="43.52309769302892" lon="10.80405472005694"><ele>106.0</ele><time>2026-04-18T08:28:07.001Z</time></trkpt><trkpt lat="43.52316283421581" lon="10.804178867403431"><ele>106.0</ele><time>2026-04-18T08:28:08.001Z</time></trkpt><trkpt lat="43.523230977045955" lon="10.804302097856652"><ele>106.0</ele><time>2026-04-18T08:28:09.001Z</time></trkpt><trkpt lat="43.52327587174445" lon="10.80445166728992"><ele>106.0</ele><time>2026-04-18T08:28:10.001Z</time></trkpt><trkpt lat="43.52333800136585" lon="10.804583872100544"><ele>104.8</ele><time>2026-04-18T08:28:11.001Z</time></trkpt><trkpt lat="43.52339140338813" lon="10.804723153301726"><ele>103.6</ele><time>2026-04-18T08:28:12.001Z</time></trkpt><trkpt lat="43.523446185714064" lon="10.804847366443248"><ele>102.4</ele><time>2026-04-18T08:28:13.001Z</time></trkpt><trkpt lat="43.523503153311026" lon="10.80497484852596"><ele>101.2</ele><time>2026-04-18T08:28:14.001Z</time></trkpt><trkpt lat="43.52356268512471" lon="10.80510855147137"><ele>100.0</ele><time>2026-04-18T08:28:15.001Z</time></trkpt><trkpt lat="43.523614671947826" lon="10.805251882618679"><ele>99.8</ele><time>2026-04-18T08:28:16.001Z</time></trkpt><trkpt lat="43.52364942475152" lon="10.805405318165018"><ele>99.6</ele><time>2026-04-18T08:28:17.001Z</time></trkpt><trkpt lat="43.523676743989185" lon="10.805570803643795"><ele>99.4</ele><time>2026-04-18T08:28:18.001Z</time></trkpt><trkpt lat="43.52369529739593" lon="10.805720607313939"><ele>99.2</ele><time>2026-04-18T08:28:19.001Z</time></trkpt><trkpt lat="43.523717987718435" lon="10.805840094231081"><ele>99.0</ele><time>2026-04-18T08:28:20.001Z</time></trkpt><trkpt lat="43.523749844096585" lon="10.805952955298755"><ele>98.5</ele><time>2026-04-18T08:28:21.001Z</time></trkpt><trkpt lat="43.52378432737967" lon="10.806071538262511"><ele>98.0</ele><time>2026-04-18T08:28:22.001Z</time></trkpt><trkpt lat="43.52380566959193" lon="10.80619155354908"><ele>97.5</ele><time>2026-04-18T08:28:23.001Z</time></trkpt><trkpt lat="43.52381263199323" lon="10.806301218877833"><ele>97.0</ele><time>2026-04-18T08:28:24.002Z</time></trkpt><trkpt lat="43.52381044943116" lon="10.806421679699202"><ele>96.5</ele><time>2026-04-18T08:28:25.002Z</time></trkpt><trkpt lat="43.52379050032004" lon="10.806535590874768"><ele>96.0</ele><time>2026-04-18T08:28:26.002Z</time></trkpt><trkpt lat="43.52377076349176" lon="10.806649857226832"><ele>96.0</ele><time>2026-04-18T08:28:27.002Z</time></trkpt><trkpt lat="43.52374621937919" lon="10.806767900483486"><ele>96.0</ele><time>2026-04-18T08:28:28.002Z</time></trkpt><trkpt lat="43.52372357506931" lon="10.806887357468444"><ele>96.0</ele><time>2026-04-18T08:28:29.002Z</time></trkpt><trkpt lat="43.52371035834802" lon="10.807005543892185"><ele>96.0</ele><time>2026-04-18T08:28:30.002Z</time></trkpt><trkpt lat="43.52371194626559" lon="10.80714063696512"><ele>96.0</ele><time>2026-04-18T08:28:31.002Z</time></trkpt><trkpt lat="43.52373131685437" lon="10.807282178425003"><ele>96.0</ele><time>2026-04-18T08:28:32.002Z</time></trkpt><trkpt lat="43.52375930292597" lon="10.807429001419571"><ele>96.0</ele><time>2026-04-18T08:28:33.002Z</time></trkpt><trkpt lat="43.52380642650755" lon="10.807596726780513"><ele>96.0</ele><time>2026-04-18T08:28:34.002Z</time></trkpt><trkpt lat="43.52385284073327" lon="10.807768213300678"><ele>96.0</ele><time>2026-04-18T08:28:35.002Z</time></trkpt><trkpt lat="43.523917744412664" lon="10.807906630150894"><ele>96.0</ele><time>2026-04-18T08:28:36.002Z</time></trkpt><trkpt lat="43.52396948841735" lon="10.80803575798779"><ele>96.0</ele><time>2026-04-18T08:28:37.002Z</time></trkpt><trkpt lat="43.52401536334577" lon="10.80817794724388"><ele>96.0</ele><time>2026-04-18T08:28:38.002Z</time></trkpt><trkpt lat="43.524066909400155" lon="10.808325525335025"><ele>96.0</ele><time>2026-04-18T08:28:39.002Z</time></trkpt><trkpt lat="43.524091590199305" lon="10.808458081751422"><ele>96.0</ele><time>2026-04-18T08:28:40.002Z</time></trkpt><trkpt lat="43.524092310698265" lon="10.808597873756275"><ele>97.0</ele><time>2026-04-18T08:28:41.002Z</time></trkpt><trkpt lat="43.52407666579309" lon="10.808753678101766"><ele>98.0</ele><time>2026-04-18T08:28:42.002Z</time></trkpt><trkpt lat="43.52405197899038" lon="10.808932529106384"><ele>99.0</ele><time>2026-04-18T08:28:43.002Z</time></trkpt><trkpt lat="43.52402763337865" lon="10.809110623685342"><ele>100.0</ele><time>2026-04-18T08:28:44.002Z</time></trkpt><trkpt lat="43.5240242675003" lon="10.809262801177335"><ele>100.75</ele><time>2026-04-18T08:28:45.002Z</time></trkpt><trkpt lat="43.52403546019499" lon="10.809413502338096"><ele>101.5</ele><time>2026-04-18T08:28:46.002Z</time></trkpt><trkpt lat="43.5240493318395" lon="10.80956087614038"><ele>102.25</ele><time>2026-04-18T08:28:47.002Z</time></trkpt><trkpt lat="43.52408137715019" lon="10.809719066137106"><ele>103.0</ele><time>2026-04-18T08:28:48.002Z</time></trkpt><trkpt lat="43.52410699622436" lon="10.809896376613763"><ele>103.0</ele><time>2026-04-18T08:28:49.002Z</time></trkpt><trkpt lat="43.52412447739559" lon="10.810078957791797"><ele>103.0</ele><time>2026-04-18T08:28:50.002Z</time></trkpt><trkpt lat="43.52410231047505" lon="10.810250978901786"><ele>103.0</ele><time>2026-04-18T08:28:51.002Z</time></trkpt><trkpt lat="43.52408205327972" lon="10.810405762217394"><ele>103.0</ele><time>2026-04-18T08:28:52.002Z</time></trkpt><trkpt lat="43.52405159043223" lon="10.810532022299913"><ele>103.2</ele><time>2026-04-18T08:28:53.002Z</time></trkpt><trkpt lat="43.52402640317289" lon="10.810677775958245"><ele>103.4</ele><time>2026-04-18T08:28:54.002Z</time></trkpt><trkpt lat="43.5239890274773" lon="10.810829740048659"><ele>103.60000000000001</ele><time>2026-04-18T08:28:55.002Z</time></trkpt><trkpt lat="43.523971532070405" lon="10.810969125647533"><ele>103.80000000000001</ele><time>2026-04-18T08:28:56.002Z</time></trkpt><trkpt lat="43.52396858302288" lon="10.81110174348502"><ele>104.0</ele><time>2026-04-18T08:28:57.002Z</time></trkpt><trkpt lat="43.523936264081186" lon="10.811223520835895"><ele>103.6</ele><time>2026-04-18T08:28:58.003Z</time></trkpt><trkpt lat="43.523918980037045" lon="10.811358157086175"><ele>103.2</ele><time>2026-04-18T08:28:59.003Z</time></trkpt><trkpt lat="43.523874170856814" lon="10.811490872297059"><ele>102.8</ele><time>2026-04-18T08:29:00.003Z</time></trkpt><trkpt lat="43.523803774598505" lon="10.811584467730112"><ele>102.39999999999999</ele><time>2026-04-18T08:29:01.003Z</time></trkpt><trkpt lat="43.52374234998221" lon="10.811670061822333"><ele>102.0</ele><time>2026-04-18T08:29:02.003Z</time></trkpt><trkpt lat="43.52367469082745" lon="10.811754512084038"><ele>104.33333333333333</ele><time>2026-04-18T08:29:03.003Z</time></trkpt><trkpt lat="43.523613672637545" lon="10.811853133155315"><ele>106.66666666666666</ele><time>2026-04-18T08:29:04.003Z</time></trkpt><trkpt lat="43.52353320527256" lon="10.811915061753838"><ele>109.0</ele><time>2026-04-18T08:29:05.003Z</time></trkpt><trkpt lat="43.52346295660211" lon="10.81198640761271"><ele>111.33333333333333</ele><time>2026-04-18T08:29:06.003Z</time></trkpt><trkpt lat="43.523382946667624" lon="10.81201685371553"><ele>113.66666666666666</ele><time>2026-04-18T08:29:07.003Z</time></trkpt><trkpt lat="43.52329592536442" lon="10.812058179471876"><ele>116.0</ele><time>2026-04-18T08:29:08.003Z</time></trkpt><trkpt lat="43.52320493190703" lon="10.81210332994986"><ele>115.99999999999999</ele><time>2026-04-18T08:29:09.003Z</time></trkpt><trkpt lat="43.523132865835315" lon="10.81214756123967"><ele>116.0</ele><time>2026-04-18T08:29:10.003Z</time></trkpt><trkpt lat="43.5230286486302" lon="10.812245884097798"><ele>116.0</ele><time>2026-04-18T08:29:12.003Z</time></trkpt><trkpt lat="43.522980216594206" lon="10.81232044320882"><ele>116.0</ele><time>2026-04-18T08:29:13.003Z</time></trkpt><trkpt lat="43.52294194058269" lon="10.812408189116448"><ele>115.99999999999999</ele><time>2026-04-18T08:29:14.003Z</time></trkpt><trkpt lat="43.522911162188244" lon="10.812492143006027"><ele>116.0</ele><time>2026-04-18T08:29:15.003Z</time></trkpt><trkpt lat="43.52288249277301" lon="10.812586768103209"><ele>117.19999999999999</ele><time>2026-04-18T08:29:16.003Z</time></trkpt><trkpt lat="43.52285174975093" lon="10.81268624293283"><ele>118.39999999999999</ele><time>2026-04-18T08:29:17.003Z</time></trkpt><trkpt lat="43.522817736425374" lon="10.812794386387676"><ele>119.6</ele><time>2026-04-18T08:29:18.003Z</time></trkpt><trkpt lat="43.5228066139509" lon="10.812899742613697"><ele>120.8</ele><time>2026-04-18T08:29:19.003Z</time></trkpt><trkpt lat="43.522717560373785" lon="10.813044919410212"><ele>122.0</ele><time>2026-04-18T08:29:21.003Z</time></trkpt><trkpt lat="43.52261410090075" lon="10.813164754941361"><ele>121.99999999999999</ele><time>2026-04-18T08:29:23.003Z</time></trkpt><trkpt lat="43.522553470741904" lon="10.813220964228783"><ele>122.0</ele><time>2026-04-18T08:29:24.003Z</time></trkpt><trkpt lat="43.5224902740417" lon="10.813278695837768"><ele>122.0</ele><time>2026-04-18T08:29:25.001Z</time></trkpt><trkpt lat="43.5224233212044" lon="10.813338186150363"><ele>122.0</ele><time>2026-04-18T08:29:26.001Z</time></trkpt><trkpt lat="43.52234494702319" lon="10.813406247678715"><ele>121.99999999999999</ele><time>2026-04-18T08:29:27.001Z</time></trkpt><trkpt lat="43.522262096288635" lon="10.813478404468425"><ele>122.0</ele><time>2026-04-18T08:29:28.001Z</time></trkpt><trkpt lat="43.52219320642224" lon="10.813567319123388"><ele>122.6</ele><time>2026-04-18T08:29:29.001Z</time></trkpt><trkpt lat="43.522127765859366" lon="10.813637320497945"><ele>123.19999999999999</ele><time>2026-04-18T08:29:30.001Z</time></trkpt><trkpt lat="43.52206627888441" lon="10.813689880707374"><ele>123.8</ele><time>2026-04-18T08:29:31.001Z</time></trkpt><trkpt lat="43.52200832096823" lon="10.81377109179195"><ele>124.4</ele><time>2026-04-18T08:29:32.001Z</time></trkpt><trkpt lat="43.52200355824351" lon="10.813931900296726"><ele>125.0</ele><time>2026-04-18T08:29:33.001Z</time></trkpt><trkpt lat="43.52196170241719" lon="10.81407685599917"><ele>125.6</ele><time>2026-04-18T08:29:34Z</time></trkpt><trkpt lat="43.521929534933165" lon="10.814224468297535"><ele>126.2</ele><time>2026-04-18T08:29:35Z</time></trkpt><trkpt lat="43.52190954114783" lon="10.81436731995823"><ele>126.80000000000001</ele><time>2026-04-18T08:29:36Z</time></trkpt><trkpt lat="43.521856693272085" lon="10.814481790068298"><ele>127.4</ele><time>2026-04-18T08:29:37Z</time></trkpt><trkpt lat="43.52181363613575" lon="10.814590503184876"><ele>128.0</ele><time>2026-04-18T08:29:38Z</time></trkpt><trkpt lat="43.52177500005576" lon="10.814673539691126"><ele>127.99999999999999</ele><time>2026-04-18T08:29:39Z</time></trkpt><trkpt lat="43.52171484099456" lon="10.814827310559743"><ele>128.0</ele><time>2026-04-18T08:29:41Z</time></trkpt><trkpt lat="43.52169343139345" lon="10.81492012221946"><ele>128.0</ele><time>2026-04-18T08:29:42Z</time></trkpt><trkpt lat="43.52169254378101" lon="10.815028287099475"><ele>128.0</ele><time>2026-04-18T08:29:43Z</time></trkpt><trkpt lat="43.52169491971881" lon="10.815137954174876"><ele>127.99999999999999</ele><time>2026-04-18T08:29:44Z</time></trkpt><trkpt lat="43.52169265800343" lon="10.815252990911665"><ele>128.0</ele><time>2026-04-18T08:29:45Z</time></trkpt><trkpt lat="43.52168841344031" lon="10.815352091023332"><ele>127.83333333333333</ele><time>2026-04-18T08:29:46Z</time></trkpt><trkpt lat="43.521679382083114" lon="10.815444501446414"><ele>127.66666666666666</ele><time>2026-04-18T08:29:47Z</time></trkpt><trkpt lat="43.52166873930534" lon="10.815542920120162"><ele>127.5</ele><time>2026-04-18T08:29:48Z</time></trkpt><trkpt lat="43.52166502271671" lon="10.81563105124562"><ele>127.33333333333334</ele><time>2026-04-18T08:29:49Z</time></trkpt><trkpt lat="43.52170844409404" lon="10.815809366189022"><ele>127.16666666666667</ele><time>2026-04-18T08:29:51Z</time></trkpt><trkpt lat="43.521746715628794" lon="10.81592347295811"><ele>127.0</ele><time>2026-04-18T08:29:52Z</time></trkpt><trkpt lat="43.52178990363527" lon="10.8160269090071"><ele>125.6</ele><time>2026-04-18T08:29:53Z</time></trkpt><trkpt lat="43.521846992234025" lon="10.816127190361987"><ele>124.19999999999999</ele><time>2026-04-18T08:29:54Z</time></trkpt><trkpt lat="43.52190103389173" lon="10.816250196807317"><ele>122.8</ele><time>2026-04-18T08:29:55Z</time></trkpt><trkpt lat="43.521961764945566" lon="10.816359681591164"><ele>121.4</ele><time>2026-04-18T08:29:56Z</time></trkpt><trkpt lat="43.522022664726194" lon="10.816451189653046"><ele>120.0</ele><time>2026-04-18T08:29:57Z</time></trkpt><trkpt lat="43.522060659950796" lon="10.81656279225679"><ele>120.4</ele><time>2026-04-18T08:29:58Z</time></trkpt><trkpt lat="43.5220911559669" lon="10.816678951728502"><ele>120.8</ele><time>2026-04-18T08:29:59.001Z</time></trkpt><trkpt lat="43.522098252031356" lon="10.816798686553755"><ele>121.19999999999999</ele><time>2026-04-18T08:30:00.001Z</time></trkpt><trkpt lat="43.52209396878336" lon="10.816919034835326"><ele>121.6</ele><time>2026-04-18T08:30:01.001Z</time></trkpt><trkpt lat="43.522078728274536" lon="10.81704594744699"><ele>122.0</ele><time>2026-04-18T08:30:02.001Z</time></trkpt><trkpt lat="43.52204694651462" lon="10.817172844537431"><ele>122.19999999999999</ele><time>2026-04-18T08:30:03.001Z</time></trkpt><trkpt lat="43.52198964716262" lon="10.817288044448679"><ele>122.39999999999999</ele><time>2026-04-18T08:30:04.001Z</time></trkpt><trkpt lat="43.52194941067343" lon="10.817410402522171"><ele>122.60000000000001</ele><time>2026-04-18T08:30:05.001Z</time></trkpt><trkpt lat="43.52191274556923" lon="10.81753171656313"><ele>122.80000000000001</ele><time>2026-04-18T08:30:06.001Z</time></trkpt><trkpt lat="43.52187687199601" lon="10.817650411741546"><ele>123.0</ele><time>2026-04-18T08:30:07.001Z</time></trkpt><trkpt lat="43.52183574374611" lon="10.81776169835262"><ele>124.60000000000001</ele><time>2026-04-18T08:30:08.001Z</time></trkpt><trkpt lat="43.52178926843424" lon="10.817859186980666"><ele>126.20000000000002</ele><time>2026-04-18T08:30:09.001Z</time></trkpt><trkpt lat="43.52173736309122" lon="10.817953982858393"><ele>127.8</ele><time>2026-04-18T08:30:10.001Z</time></trkpt><trkpt lat="43.521673166271206" lon="10.818049758164188"><ele>129.4</ele><time>2026-04-18T08:30:11.001Z</time></trkpt><trkpt lat="43.52159248214969" lon="10.818137876838819"><ele>131.0</ele><time>2026-04-18T08:30:12.001Z</time></trkpt><trkpt lat="43.52151693261239" lon="10.818190106167778"><ele>131.0</ele><time>2026-04-18T08:30:13.001Z</time></trkpt><trkpt lat="43.52144472717391" lon="10.818261400837304"><ele>131.0</ele><time>2026-04-18T08:30:15.001Z</time></trkpt><trkpt lat="43.5214018831028" lon="10.818326409094801"><ele>131.0</ele><time>2026-04-18T08:30:16.001Z</time></trkpt><trkpt lat="43.5213652706818" lon="10.818446681103143"><ele>131.0</ele><time>2026-04-18T08:30:18.001Z</time></trkpt><trkpt lat="43.52129672471909" lon="10.818551376710955"><ele>131.0</ele><time>2026-04-18T08:30:20.001Z</time></trkpt><trkpt lat="43.52129187923937" lon="10.81866668694187"><ele>131.0</ele><time>2026-04-18T08:30:23.001Z</time></trkpt><trkpt lat="43.52128390193574" lon="10.818776244403718"><ele>130.16666666666666</ele><time>2026-04-18T08:30:25.001Z</time></trkpt><trkpt lat="43.521268710295246" lon="10.818906185696097"><ele>129.33333333333331</ele><time>2026-04-18T08:30:27.001Z</time></trkpt><trkpt lat="43.5212775541627" lon="10.819021616853306"><ele>128.5</ele><time>2026-04-18T08:30:30.001Z</time></trkpt><trkpt lat="43.521301719915925" lon="10.819128820407675"><ele>127.66666666666666</ele><time>2026-04-18T08:30:32.001Z</time></trkpt><trkpt lat="43.52133880016564" lon="10.819217859547685"><ele>126.83333333333333</ele><time>2026-04-18T08:30:36.001Z</time></trkpt><trkpt lat="43.52137932994284" lon="10.819307220878601"><ele>126.0</ele><time>2026-04-18T08:30:58.002Z</time></trkpt><trkpt lat="43.52134758084655" lon="10.819184369140208"><ele>126.0</ele><time>2026-04-18T08:31:45Z</time></trkpt><trkpt lat="43.5213032722352" lon="10.819055374323511"><ele>126.0</ele><time>2026-04-18T08:31:47Z</time></trkpt><trkpt lat="43.52128317236676" lon="10.81887970433917"><ele>126.0</ele><time>2026-04-18T08:31:49Z</time></trkpt><trkpt lat="43.52128068343606" lon="10.81874230193744"><ele>126.0</ele><time>2026-04-18T08:31:51Z</time></trkpt><trkpt lat="43.52120693111033" lon="10.818797273221486"><ele>126.0</ele><time>2026-04-18T08:31:55Z</time></trkpt><trkpt lat="43.52115298794957" lon="10.818913812831587"><ele>125.83333333333333</ele><time>2026-04-18T08:31:57Z</time></trkpt><trkpt lat="43.5210878439825" lon="10.819002008806486"><ele>125.66666666666666</ele><time>2026-04-18T08:31:59Z</time></trkpt><trkpt lat="43.52102880520403" lon="10.819073934414263"><ele>125.5</ele><time>2026-04-18T08:32:01Z</time></trkpt><trkpt lat="43.52094498407214" lon="10.819135727251581"><ele>125.33333333333333</ele><time>2026-04-18T08:32:03Z</time></trkpt><trkpt lat="43.52084773177765" lon="10.819193955797246"><ele>125.16666666666666</ele><time>2026-04-18T08:32:05.001Z</time></trkpt><trkpt lat="43.52078661200636" lon="10.819251379320017"><ele>125.0</ele><time>2026-04-18T08:32:06.001Z</time></trkpt><trkpt lat="43.520696342660926" lon="10.8193732001855"><ele>125.0</ele><time>2026-04-18T08:32:08.001Z</time></trkpt><trkpt lat="43.520658939234785" lon="10.819451814512188"><ele>125.0</ele><time>2026-04-18T08:32:09.001Z</time></trkpt><trkpt lat="43.520574767768466" lon="10.819565055775568"><ele>125.0</ele><time>2026-04-18T08:32:11.001Z</time></trkpt><trkpt lat="43.52051504565805" lon="10.819603204618526"><ele>125.0</ele><time>2026-04-18T08:32:12.001Z</time></trkpt><trkpt lat="43.52041988076427" lon="10.819723162969286"><ele>125.0</ele><time>2026-04-18T08:32:14.001Z</time></trkpt><trkpt lat="43.52036680615742" lon="10.819808033102207"><ele>126.6</ele><time>2026-04-18T08:32:15.001Z</time></trkpt><trkpt lat="43.52030329595355" lon="10.819903814185546"><ele>128.2</ele><time>2026-04-18T08:32:16.001Z</time></trkpt><trkpt lat="43.5202407698792" lon="10.819998785917877"><ele>129.8</ele><time>2026-04-18T08:32:17.001Z</time></trkpt><trkpt lat="43.52018587709751" lon="10.820113726493782"><ele>131.4</ele><time>2026-04-18T08:32:18.001Z</time></trkpt><trkpt lat="43.52013917770924" lon="10.820226447735173"><ele>133.0</ele><time>2026-04-18T08:32:19.001Z</time></trkpt><trkpt lat="43.520091305908" lon="10.82032823532445"><ele>133.16666666666669</ele><time>2026-04-18T08:32:20.001Z</time></trkpt><trkpt lat="43.52003751192565" lon="10.820414796602629"><ele>133.33333333333334</ele><time>2026-04-18T08:32:21.001Z</time></trkpt><trkpt lat="43.519985826028815" lon="10.820466896229417"><ele>133.5</ele><time>2026-04-18T08:32:22.001Z</time></trkpt><trkpt lat="43.519933722719756" lon="10.820518306271623"><ele>133.66666666666666</ele><time>2026-04-18T08:32:23.001Z</time></trkpt><trkpt lat="43.519878646773314" lon="10.820573675285093"><ele>133.83333333333331</ele><time>2026-04-18T08:32:24.001Z</time></trkpt><trkpt lat="43.51978660317052" lon="10.820631923577468"><ele>134.0</ele><time>2026-04-18T08:32:26.001Z</time></trkpt><trkpt lat="43.51971676462252" lon="10.82066104896918"><ele>134.0</ele><time>2026-04-18T08:32:29.001Z</time></trkpt><trkpt lat="43.51962564948496" lon="10.820671669759465"><ele>134.0</ele><time>2026-04-18T08:32:31.001Z</time></trkpt><trkpt lat="43.51951535362968" lon="10.82068794651369"><ele>134.0</ele><time>2026-04-18T08:32:33.001Z</time></trkpt><trkpt lat="43.519449520596865" lon="10.820718186681143"><ele>134.0</ele><time>2026-04-18T08:32:34.001Z</time></trkpt><trkpt lat="43.51933218002144" lon="10.820732827806511"><ele>134.0</ele><time>2026-04-18T08:32:36.001Z</time></trkpt><trkpt lat="43.51923166013383" lon="10.82079546990651"><ele>135.4</ele><time>2026-04-18T08:32:38.001Z</time></trkpt><trkpt lat="43.51923475497017" lon="10.820951848502254"><ele>136.8</ele><time>2026-04-18T08:32:40.001Z</time></trkpt><trkpt lat="43.519250624766464" lon="10.821056243763465"><ele>138.2</ele><time>2026-04-18T08:32:41.001Z</time></trkpt><trkpt lat="43.5192494830745" lon="10.821184392149531"><ele>139.6</ele><time>2026-04-18T08:32:43.001Z</time></trkpt><trkpt lat="43.51921511875692" lon="10.82129574625371"><ele>141.0</ele><time>2026-04-18T08:32:45.001Z</time></trkpt><trkpt lat="43.51917292818202" lon="10.821440338451074"><ele>141.28571428571428</ele><time>2026-04-18T08:32:47.002Z</time></trkpt><trkpt lat="43.519131178917306" lon="10.821512796668765"><ele>141.57142857142856</ele><time>2026-04-18T08:32:48.002Z</time></trkpt><trkpt lat="43.519089149768206" lon="10.821584028484857"><ele>141.85714285714283</ele><time>2026-04-18T08:32:49.002Z</time></trkpt><trkpt lat="43.519047366193256" lon="10.821656891806557"><ele>142.14285714285714</ele><time>2026-04-18T08:32:50.002Z</time></trkpt><trkpt lat="43.51900131049932" lon="10.821744442955028"><ele>142.42857142857142</ele><time>2026-04-18T08:32:51.002Z</time></trkpt><trkpt lat="43.51896097636655" lon="10.821832275140068"><ele>142.7142857142857</ele><time>2026-04-18T08:32:52.002Z</time></trkpt><trkpt lat="43.51892652692007" lon="10.821918278340188"><ele>143.0</ele><time>2026-04-18T08:32:53.002Z</time></trkpt><trkpt lat="43.51889553452876" lon="10.821998424519332"><ele>143.0</ele><time>2026-04-18T08:32:54.002Z</time></trkpt><trkpt lat="43.51886219756262" lon="10.822078636254853"><ele>143.0</ele><time>2026-04-18T08:32:55.002Z</time></trkpt><trkpt lat="43.518801027063994" lon="10.822218958178878"><ele>143.0</ele><time>2026-04-18T08:32:57.002Z</time></trkpt><trkpt lat="43.51878203423317" lon="10.822307296609928"><ele>143.0</ele><time>2026-04-18T08:32:58.002Z</time></trkpt><trkpt lat="43.51874993596394" lon="10.822454064213073"><ele>143.0</ele><time>2026-04-18T08:33:00.002Z</time></trkpt><trkpt lat="43.51869241405935" lon="10.822567493369313"><ele>146.60000000000002</ele><time>2026-04-18T08:33:02.002Z</time></trkpt><trkpt lat="43.518645701262315" lon="10.822696033781114"><ele>150.20000000000002</ele><time>2026-04-18T08:33:04.002Z</time></trkpt><trkpt lat="43.51858098168952" lon="10.822796466263616"><ele>153.8</ele><time>2026-04-18T08:33:06.002Z</time></trkpt><trkpt lat="43.51853536680726" lon="10.822862424234895"><ele>157.4</ele><time>2026-04-18T08:33:07.002Z</time></trkpt><trkpt lat="43.51848319597515" lon="10.822998261121459"><ele>161.0</ele><time>2026-04-18T08:33:09.002Z</time></trkpt><trkpt lat="43.51842317702843" lon="10.82309343117428"><ele>161.0</ele><time>2026-04-18T08:33:11.002Z</time></trkpt><trkpt lat="43.518372331460355" lon="10.823194698812273"><ele>161.0</ele><time>2026-04-18T08:33:13.002Z</time></trkpt><trkpt lat="43.51831106613171" lon="10.82330745852158"><ele>161.0</ele><time>2026-04-18T08:33:15.002Z</time></trkpt><trkpt lat="43.51825821296584" lon="10.823443134699884"><ele>161.0</ele><time>2026-04-18T08:33:17.002Z</time></trkpt><trkpt lat="43.51822005208078" lon="10.823526422123468"><ele>161.0</ele><time>2026-04-18T08:33:18.002Z</time></trkpt><trkpt lat="43.518200083984176" lon="10.823625466224655"><ele>161.0</ele><time>2026-04-18T08:33:19.002Z</time></trkpt><trkpt lat="43.518173670585384" lon="10.823719845623796"><ele>161.33333333333331</ele><time>2026-04-18T08:33:20.002Z</time></trkpt><trkpt lat="43.51814525665466" lon="10.823799325298872"><ele>161.66666666666666</ele><time>2026-04-18T08:33:21.002Z</time></trkpt><trkpt lat="43.518099238836186" lon="10.823865411234248"><ele>162.0</ele><time>2026-04-18T08:33:22.002Z</time></trkpt><trkpt lat="43.51804725614318" lon="10.823950359329357"><ele>162.33333333333334</ele><time>2026-04-18T08:33:23.002Z</time></trkpt><trkpt lat="43.51799199266553" lon="10.824059021072838"><ele>162.66666666666669</ele><time>2026-04-18T08:33:24.002Z</time></trkpt><trkpt lat="43.517955409839004" lon="10.824141079314273"><ele>163.0</ele><time>2026-04-18T08:33:25.002Z</time></trkpt><trkpt lat="43.51789008532443" lon="10.824249693171343"><ele>163.0</ele><time>2026-04-18T08:33:27.002Z</time></trkpt><trkpt lat="43.517830760893276" lon="10.824351891748917"><ele>163.0</ele><time>2026-04-18T08:33:29.003Z</time></trkpt><trkpt lat="43.51781175555366" lon="10.82446462032479"><ele>163.0</ele><time>2026-04-18T08:33:31.003Z</time></trkpt><trkpt lat="43.51781318926723" lon="10.82455767841468"><ele>163.0</ele><time>2026-04-18T08:33:32.003Z</time></trkpt><trkpt lat="43.517825364532534" lon="10.824643143886332"><ele>163.0</ele><time>2026-04-18T08:33:33.003Z</time></trkpt><trkpt lat="43.51784905460844" lon="10.824725961648456"><ele>163.0</ele><time>2026-04-18T08:33:34.003Z</time></trkpt><trkpt lat="43.51788804616391" lon="10.824801541818877"><ele>163.0</ele><time>2026-04-18T08:33:35.003Z</time></trkpt><trkpt lat="43.517923449423435" lon="10.824944001839334"><ele>163.0</ele><time>2026-04-18T08:33:37Z</time></trkpt><trkpt lat="43.51792525349643" lon="10.825079420992603"><ele>163.0</ele><time>2026-04-18T08:33:55Z</time></trkpt><trkpt lat="43.517935220169534" lon="10.825214655243217"><ele>163.0</ele><time>2026-04-18T08:33:57Z</time></trkpt><trkpt lat="43.51792062986059" lon="10.825350386780663"><ele>163.0</ele><time>2026-04-18T08:34:00Z</time></trkpt><trkpt lat="43.51791265641757" lon="10.82546869482094"><ele>163.0</ele><time>2026-04-18T08:34:02Z</time></trkpt><trkpt lat="43.51789223917984" lon="10.825616538100329"><ele>163.16666666666669</ele><time>2026-04-18T08:34:04Z</time></trkpt><trkpt lat="43.517901224649975" lon="10.82571058968936"><ele>163.33333333333334</ele><time>2026-04-18T08:34:05Z</time></trkpt><trkpt lat="43.51791482534499" lon="10.82579670516478"><ele>163.5</ele><time>2026-04-18T08:34:06Z</time></trkpt><trkpt lat="43.51792703629905" lon="10.825948061136739"><ele>163.66666666666666</ele><time>2026-04-18T08:34:08.001Z</time></trkpt><trkpt lat="43.517913251750315" lon="10.82607961187504"><ele>163.83333333333331</ele><time>2026-04-18T08:34:10.001Z</time></trkpt><trkpt lat="43.51785947264594" lon="10.826182736480865"><ele>164.0</ele><time>2026-04-18T08:34:12.001Z</time></trkpt><trkpt lat="43.51782452990352" lon="10.82627608017836"><ele>164.39999999999998</ele><time>2026-04-18T08:34:14.001Z</time></trkpt><trkpt lat="43.51774464830762" lon="10.826332590457378"><ele>164.8</ele><time>2026-04-18T08:34:16.001Z</time></trkpt><trkpt lat="43.517660928367945" lon="10.826416472568013"><ele>165.2</ele><time>2026-04-18T08:34:18.001Z</time></trkpt><trkpt lat="43.51757947249037" lon="10.826536171837251"><ele>165.60000000000002</ele><time>2026-04-18T08:34:20.001Z</time></trkpt><trkpt lat="43.51749672564324" lon="10.826629752422484"><ele>166.0</ele><time>2026-04-18T08:34:22.001Z</time></trkpt><trkpt lat="43.51742973994984" lon="10.826690592148575"><ele>166.0</ele><time>2026-04-18T08:34:23.001Z</time></trkpt><trkpt lat="43.517362094898864" lon="10.826762332496298"><ele>166.0</ele><time>2026-04-18T08:34:24.001Z</time></trkpt><trkpt lat="43.51730685307387" lon="10.826822135308385"><ele>166.0</ele><time>2026-04-18T08:34:25.001Z</time></trkpt><trkpt lat="43.517223670765155" lon="10.826890932730947"><ele>166.0</ele><time>2026-04-18T08:34:27.001Z</time></trkpt><trkpt lat="43.517157972486984" lon="10.826959010715832"><ele>166.0</ele><time>2026-04-18T08:34:29.001Z</time></trkpt><trkpt lat="43.51707357200032" lon="10.827025569911461"><ele>166.0</ele><time>2026-04-18T08:34:31.001Z</time></trkpt><trkpt lat="43.51701552490514" lon="10.827061958693466"><ele>166.4</ele><time>2026-04-18T08:34:32.001Z</time></trkpt><trkpt lat="43.5169220832664" lon="10.827125748523747"><ele>166.8</ele><time>2026-04-18T08:34:34.001Z</time></trkpt><trkpt lat="43.516823108211234" lon="10.827204960132697"><ele>167.20000000000002</ele><time>2026-04-18T08:34:36.001Z</time></trkpt><trkpt lat="43.51672128719948" lon="10.827284917562741"><ele>167.60000000000002</ele><time>2026-04-18T08:34:38.001Z</time></trkpt><trkpt lat="43.516632508367735" lon="10.827371188549192"><ele>168.0</ele><time>2026-04-18T08:34:40.001Z</time></trkpt><trkpt lat="43.516546085718545" lon="10.827476885588384"><ele>168.0</ele><time>2026-04-18T08:34:42.001Z</time></trkpt><trkpt lat="43.516454802457794" lon="10.827568472854857"><ele>168.0</ele><time>2026-04-18T08:34:44.001Z</time></trkpt><trkpt lat="43.516393755653986" lon="10.827616127817922"><ele>168.0</ele><time>2026-04-18T08:34:45.001Z</time></trkpt><trkpt lat="43.51633855933431" lon="10.827666662810847"><ele>168.0</ele><time>2026-04-18T08:34:46.001Z</time></trkpt><trkpt lat="43.516250506939265" lon="10.827740012623169"><ele>168.0</ele><time>2026-04-18T08:34:48.001Z</time></trkpt><trkpt lat="43.51615597384885" lon="10.8277893561394"><ele>169.33333333333334</ele><time>2026-04-18T08:34:50.001Z</time></trkpt><trkpt lat="43.5160681394698" lon="10.827866730529482"><ele>170.66666666666666</ele><time>2026-04-18T08:34:52.001Z</time></trkpt><trkpt lat="43.516019693639336" lon="10.827936796959532"><ele>172.0</ele><time>2026-04-18T08:34:53.001Z</time></trkpt><trkpt lat="43.51595779735184" lon="10.828031399099725"><ele>173.33333333333331</ele><time>2026-04-18T08:34:54.002Z</time></trkpt><trkpt lat="43.515897721400904" lon="10.828130333224523"><ele>174.66666666666666</ele><time>2026-04-18T08:34:55.002Z</time></trkpt><trkpt lat="43.5158546019277" lon="10.828205644714403"><ele>176.0</ele><time>2026-04-18T08:34:56.002Z</time></trkpt><trkpt lat="43.51578565712179" lon="10.82830938708371"><ele>176.0</ele><time>2026-04-18T08:34:58.002Z</time></trkpt><trkpt lat="43.51572422914932" lon="10.828348986122297"><ele>176.0</ele><time>2026-04-18T08:34:59.002Z</time></trkpt><trkpt lat="43.515659562193406" lon="10.828398261425095"><ele>176.0</ele><time>2026-04-18T08:35:00.002Z</time></trkpt><trkpt lat="43.51559440090503" lon="10.828470279825252"><ele>176.0</ele><time>2026-04-18T08:35:01.002Z</time></trkpt><trkpt lat="43.515526252434256" lon="10.828541992215882"><ele>176.0</ele><time>2026-04-18T08:35:02.002Z</time></trkpt><trkpt lat="43.51547704339123" lon="10.828601606350956"><ele>176.0</ele><time>2026-04-18T08:35:03.002Z</time></trkpt><trkpt lat="43.515422674284785" lon="10.828664293623724"><ele>176.0</ele><time>2026-04-18T08:35:05.002Z</time></trkpt><trkpt lat="43.51535998432017" lon="10.828755859458683"><ele>177.66666666666666</ele><time>2026-04-18T08:35:08.002Z</time></trkpt><trkpt lat="43.51528341630304" lon="10.828822555296862"><ele>179.33333333333331</ele><time>2026-04-18T08:35:10.002Z</time></trkpt><trkpt lat="43.515227348634504" lon="10.828864500833927"><ele>181.0</ele><time>2026-04-18T08:35:11.002Z</time></trkpt><trkpt lat="43.51516036434546" lon="10.828938410919744"><ele>182.66666666666666</ele><time>2026-04-18T08:35:13.002Z</time></trkpt><trkpt lat="43.515070475482865" lon="10.829007420854865"><ele>184.33333333333334</ele><time>2026-04-18T08:35:15.002Z</time></trkpt><trkpt lat="43.514984662151264" lon="10.829087138115186"><ele>186.0</ele><time>2026-04-18T08:35:17.002Z</time></trkpt><trkpt lat="43.51489349729565" lon="10.829153941370283"><ele>186.0</ele><time>2026-04-18T08:35:19.002Z</time></trkpt><trkpt lat="43.51479198818137" lon="10.829137439905441"><ele>186.0</ele><time>2026-04-18T08:35:21.002Z</time></trkpt><trkpt lat="43.514715194801354" lon="10.829037380343797"><ele>186.0</ele><time>2026-04-18T08:35:23.002Z</time></trkpt><trkpt lat="43.51460661079471" lon="10.828994029392849"><ele>186.0</ele><time>2026-04-18T08:35:25.002Z</time></trkpt><trkpt lat="43.514537544329166" lon="10.829015889694839"><ele>186.0</ele><time>2026-04-18T08:35:26.002Z</time></trkpt><trkpt lat="43.51444801094213" lon="10.829113972180934"><ele>188.60000000000002</ele><time>2026-04-18T08:35:28.002Z</time></trkpt><trkpt lat="43.514358621774925" lon="10.829160251619607"><ele>191.2</ele><time>2026-04-18T08:35:30.002Z</time></trkpt><trkpt lat="43.51425863150027" lon="10.829185775325993"><ele>193.8</ele><time>2026-04-18T08:35:32.002Z</time></trkpt><trkpt lat="43.51417749685558" lon="10.82909972331157"><ele>196.39999999999998</ele><time>2026-04-18T08:35:34.002Z</time></trkpt><trkpt lat="43.51414797922014" lon="10.829207015856692"><ele>199.0</ele><time>2026-04-18T08:35:38.003Z</time></trkpt><trkpt lat="43.51415091782932" lon="10.829301301321554"><ele>199.6</ele><time>2026-04-18T08:35:39.003Z</time></trkpt><trkpt lat="43.51416308287809" lon="10.82940679142875"><ele>200.2</ele><time>2026-04-18T08:35:40.003Z</time></trkpt><trkpt lat="43.51417735389312" lon="10.829511049807826"><ele>200.79999999999998</ele><time>2026-04-18T08:35:41.003Z</time></trkpt><trkpt lat="43.51418210486892" lon="10.829665831473712"><ele>201.39999999999998</ele><time>2026-04-18T08:35:43Z</time></trkpt><trkpt lat="43.5141883781551" lon="10.829830428101038"><ele>202.0</ele><time>2026-04-18T08:35:45Z</time></trkpt><trkpt lat="43.514186581720494" lon="10.829961075057778"><ele>201.99999999999997</ele><time>2026-04-18T08:35:47Z</time></trkpt><trkpt lat="43.51421085016282" lon="10.830056296996672"><ele>202.0</ele><time>2026-04-18T08:35:49Z</time></trkpt><trkpt lat="43.51425778082125" lon="10.830136667363425"><ele>202.0</ele><time>2026-04-18T08:35:51Z</time></trkpt><trkpt lat="43.51432834009297" lon="10.830250467267547"><ele>202.0</ele><time>2026-04-18T08:35:54Z</time></trkpt><trkpt lat="43.51438928935452" lon="10.83032221247996"><ele>201.99999999999997</ele><time>2026-04-18T08:35:56Z</time></trkpt><trkpt lat="43.51443445263521" lon="10.830399687687168"><ele>202.0</ele><time>2026-04-18T08:35:58Z</time></trkpt><trkpt lat="43.51449075886338" lon="10.830494332558404"><ele>201.66666666666666</ele><time>2026-04-18T08:36:00Z</time></trkpt><trkpt lat="43.51455462476232" lon="10.83061631458583"><ele>201.33333333333331</ele><time>2026-04-18T08:36:02Z</time></trkpt><trkpt lat="43.51460747936644" lon="10.830710478984217"><ele>201.0</ele><time>2026-04-18T08:36:03Z</time></trkpt><trkpt lat="43.51465477406413" lon="10.83078934765343"><ele>200.66666666666669</ele><time>2026-04-18T08:36:04Z</time></trkpt><trkpt lat="43.514691256556134" lon="10.830896684119544"><ele>200.33333333333334</ele><time>2026-04-18T08:36:06Z</time></trkpt><trkpt lat="43.51463142593484" lon="10.830949045166882"><ele>200.0</ele><time>2026-04-18T08:36:08Z</time></trkpt><trkpt lat="43.5145057188338" lon="10.830980676350315"><ele>197.8</ele><time>2026-04-18T08:36:10Z</time></trkpt><trkpt lat="43.51441294166831" lon="10.830986301102616"><ele>195.6</ele><time>2026-04-18T08:36:11Z</time></trkpt><trkpt lat="43.514334502044775" lon="10.830996816487154"><ele>193.39999999999998</ele><time>2026-04-18T08:36:12Z</time></trkpt><trkpt lat="43.51421586249895" lon="10.831029216251066"><ele>191.2</ele><time>2026-04-18T08:36:14Z</time></trkpt><trkpt lat="43.51410896796511" lon="10.831035807866897"><ele>189.0</ele><time>2026-04-18T08:36:16Z</time></trkpt><trkpt lat="43.51402356111405" lon="10.83104421439483"><ele>189.0</ele><time>2026-04-18T08:36:18Z</time></trkpt><trkpt lat="43.5139491091782" lon="10.831051855690882"><ele>189.0</ele><time>2026-04-18T08:36:19.001Z</time></trkpt><trkpt lat="43.5138773641517" lon="10.831054270680642"><ele>189.0</ele><time>2026-04-18T08:36:20.001Z</time></trkpt><trkpt lat="43.51380584542708" lon="10.831051547269995"><ele>189.0</ele><time>2026-04-18T08:36:21.001Z</time></trkpt><trkpt lat="43.51372023360225" lon="10.83106475587549"><ele>189.0</ele><time>2026-04-18T08:36:22.001Z</time></trkpt><trkpt lat="43.51363198945677" lon="10.831112804159341"><ele>189.0</ele><time>2026-04-18T08:36:23.001Z</time></trkpt><trkpt lat="43.51355217278045" lon="10.831177050681678"><ele>192.0</ele><time>2026-04-18T08:36:24.001Z</time></trkpt><trkpt lat="43.51347741745987" lon="10.831241559336105"><ele>195.0</ele><time>2026-04-18T08:36:25.001Z</time></trkpt><trkpt lat="43.51339255992844" lon="10.831285039477967"><ele>198.0</ele><time>2026-04-18T08:36:26.001Z</time></trkpt><trkpt lat="43.51329781435473" lon="10.831297572605122"><ele>201.0</ele><time>2026-04-18T08:36:27.001Z</time></trkpt><trkpt lat="43.513212263849525" lon="10.831338919370872"><ele>204.0</ele><time>2026-04-18T08:36:28.001Z</time></trkpt><trkpt lat="43.51313774108207" lon="10.831416659467278"><ele>204.0</ele><time>2026-04-18T08:36:29.001Z</time></trkpt><trkpt lat="43.51306549830997" lon="10.831533531401437"><ele>204.0</ele><time>2026-04-18T08:36:30.001Z</time></trkpt><trkpt lat="43.51299235220202" lon="10.831646565877856"><ele>204.0</ele><time>2026-04-18T08:36:31.001Z</time></trkpt><trkpt lat="43.51293228268585" lon="10.831741678426534"><ele>204.0</ele><time>2026-04-18T08:36:32.001Z</time></trkpt><trkpt lat="43.512879452772225" lon="10.831836044938864"><ele>204.0</ele><time>2026-04-18T08:36:33.001Z</time></trkpt><trkpt lat="43.51281775035213" lon="10.831912482638177"><ele>205.6</ele><time>2026-04-18T08:36:34.001Z</time></trkpt><trkpt lat="43.5127371978545" lon="10.831977609612736"><ele>207.2</ele><time>2026-04-18T08:36:35.001Z</time></trkpt><trkpt lat="43.512636517743175" lon="10.832050473691051"><ele>208.79999999999998</ele><time>2026-04-18T08:36:36.001Z</time></trkpt><trkpt lat="43.512523620647684" lon="10.832108122264186"><ele>210.39999999999998</ele><time>2026-04-18T08:36:37.001Z</time></trkpt><trkpt lat="43.51242371729877" lon="10.832151573928002"><ele>212.0</ele><time>2026-04-18T08:36:38.001Z</time></trkpt><trkpt lat="43.512340667923986" lon="10.832174514703004"><ele>212.00000000000003</ele><time>2026-04-18T08:36:39.001Z</time></trkpt><trkpt lat="43.512278055859305" lon="10.832211214255565"><ele>212.0</ele><time>2026-04-18T08:36:40.001Z</time></trkpt><trkpt lat="43.512215495317164" lon="10.832262673586854"><ele>212.0</ele><time>2026-04-18T08:36:41.001Z</time></trkpt><trkpt lat="43.51216264784947" lon="10.832325051468391"><ele>212.0</ele><time>2026-04-18T08:36:42.001Z</time></trkpt><trkpt lat="43.512114481971835" lon="10.832395933103346"><ele>212.00000000000003</ele><time>2026-04-18T08:36:43.001Z</time></trkpt><trkpt lat="43.51206342515939" lon="10.832497857944587"><ele>212.0</ele><time>2026-04-18T08:36:44.001Z</time></trkpt><trkpt lat="43.5120125652965" lon="10.832609492967514"><ele>209.39999999999998</ele><time>2026-04-18T08:36:45.001Z</time></trkpt><trkpt lat="43.51196632425973" lon="10.832732851768949"><ele>206.79999999999998</ele><time>2026-04-18T08:36:46.001Z</time></trkpt><trkpt lat="43.51192444343123" lon="10.832864111597816"><ele>204.2</ele><time>2026-04-18T08:36:47.001Z</time></trkpt><trkpt lat="43.51187561244289" lon="10.833003748831311"><ele>201.6</ele><time>2026-04-18T08:36:48.001Z</time></trkpt><trkpt lat="43.51181702465171" lon="10.833136773542376"><ele>199.0</ele><time>2026-04-18T08:36:49.001Z</time></trkpt><trkpt lat="43.51175755297766" lon="10.833248035337485"><ele>199.0</ele><time>2026-04-18T08:36:50.001Z</time></trkpt><trkpt lat="43.51168690343615" lon="10.83332616956433"><ele>199.0</ele><time>2026-04-18T08:36:51.001Z</time></trkpt><trkpt lat="43.51161960224649" lon="10.833404902006626"><ele>199.0</ele><time>2026-04-18T08:36:52.001Z</time></trkpt><trkpt lat="43.511537732070245" lon="10.833486255521732"><ele>199.0</ele><time>2026-04-18T08:36:53.001Z</time></trkpt><trkpt lat="43.51144809629574" lon="10.833561041522547"><ele>199.0</ele><time>2026-04-18T08:36:54.001Z</time></trkpt><trkpt lat="43.51135167659467" lon="10.833648290227213"><ele>199.39999999999998</ele><time>2026-04-18T08:36:55.001Z</time></trkpt><trkpt lat="43.5112409783737" lon="10.833736812710907"><ele>199.8</ele><time>2026-04-18T08:36:56.001Z</time></trkpt><trkpt lat="43.511146766308684" lon="10.833818531088776"><ele>200.2</ele><time>2026-04-18T08:36:57.001Z</time></trkpt><trkpt lat="43.511076299112936" lon="10.833871832035088"><ele>200.60000000000002</ele><time>2026-04-18T08:36:58.001Z</time></trkpt><trkpt lat="43.511032399555525" lon="10.834012068200702"><ele>201.0</ele><time>2026-04-18T08:37:00.001Z</time></trkpt><trkpt lat="43.51104122302526" lon="10.834110704406024"><ele>201.0</ele><time>2026-04-18T08:37:01.001Z</time></trkpt><trkpt lat="43.51105979068914" lon="10.834213218702908"><ele>201.0</ele><time>2026-04-18T08:37:02.002Z</time></trkpt><trkpt lat="43.511074414666034" lon="10.834329485511331"><ele>201.0</ele><time>2026-04-18T08:37:03.002Z</time></trkpt><trkpt lat="43.51109170723709" lon="10.834453184008153"><ele>201.0</ele><time>2026-04-18T08:37:04.002Z</time></trkpt><trkpt lat="43.51110206584839" lon="10.834565625852534"><ele>201.0</ele><time>2026-04-18T08:37:05.002Z</time></trkpt><trkpt lat="43.51109986433991" lon="10.83468433676488"><ele>201.0</ele><time>2026-04-18T08:37:06.002Z</time></trkpt><trkpt lat="43.511060232016455" lon="10.834802666217213"><ele>200.60000000000002</ele><time>2026-04-18T08:37:07.002Z</time></trkpt><trkpt lat="43.51102483537146" lon="10.834934153357416"><ele>200.2</ele><time>2026-04-18T08:37:08.002Z</time></trkpt><trkpt lat="43.510982297147564" lon="10.835045605911695"><ele>199.8</ele><time>2026-04-18T08:37:09.002Z</time></trkpt><trkpt lat="43.51093497578639" lon="10.835168905461558"><ele>199.39999999999998</ele><time>2026-04-18T08:37:10.002Z</time></trkpt><trkpt lat="43.510901693844396" lon="10.83530129779325"><ele>199.0</ele><time>2026-04-18T08:37:11.002Z</time></trkpt><trkpt lat="43.510876390650274" lon="10.835430390459525"><ele>197.39999999999998</ele><time>2026-04-18T08:37:12.002Z</time></trkpt><trkpt lat="43.510851138068006" lon="10.835568771827374"><ele>195.8</ele><time>2026-04-18T08:37:13.002Z</time></trkpt><trkpt lat="43.51082601170036" lon="10.835714585088976"><ele>194.2</ele><time>2026-04-18T08:37:14.002Z</time></trkpt><trkpt lat="43.510806254338085" lon="10.835870608171929"><ele>192.60000000000002</ele><time>2026-04-18T08:37:15.002Z</time></trkpt><trkpt lat="43.51082441602831" lon="10.836017343552042"><ele>191.0</ele><time>2026-04-18T08:37:16.002Z</time></trkpt><trkpt lat="43.51081639375157" lon="10.836167845457704"><ele>190.75</ele><time>2026-04-18T08:37:17.002Z</time></trkpt><trkpt lat="43.51081997544165" lon="10.836348950472269"><ele>190.5</ele><time>2026-04-18T08:37:18.002Z</time></trkpt><trkpt lat="43.51082299365509" lon="10.83655752726637"><ele>190.25</ele><time>2026-04-18T08:37:19.002Z</time></trkpt><trkpt lat="43.51083079406145" lon="10.836766628175036"><ele>190.0</ele><time>2026-04-18T08:37:20.002Z</time></trkpt><trkpt lat="43.51083593582726" lon="10.836933645227758"><ele>190.0</ele><time>2026-04-18T08:37:21.002Z</time></trkpt><trkpt lat="43.51081615336299" lon="10.837068820518441"><ele>190.0</ele><time>2026-04-18T08:37:22.002Z</time></trkpt><trkpt lat="43.51082109294924" lon="10.837189798883097"><ele>190.0</ele><time>2026-04-18T08:37:23.002Z</time></trkpt><trkpt lat="43.510796704648335" lon="10.83730164720791"><ele>190.0</ele><time>2026-04-18T08:37:24.002Z</time></trkpt><trkpt lat="43.51076016507036" lon="10.837422718319601"><ele>190.0</ele><time>2026-04-18T08:37:25.002Z</time></trkpt><trkpt lat="43.5107159587229" lon="10.837556936286813"><ele>190.2</ele><time>2026-04-18T08:37:26.002Z</time></trkpt><trkpt lat="43.51067557252979" lon="10.8376973903773"><ele>190.4</ele><time>2026-04-18T08:37:27.002Z</time></trkpt><trkpt lat="43.51064670192742" lon="10.83784720091425"><ele>190.60000000000002</ele><time>2026-04-18T08:37:28.002Z</time></trkpt><trkpt lat="43.51063076273158" lon="10.838000831791781"><ele>190.8</ele><time>2026-04-18T08:37:29.002Z</time></trkpt><trkpt lat="43.510632340631865" lon="10.83815167801337"><ele>191.0</ele><time>2026-04-18T08:37:30.002Z</time></trkpt><trkpt lat="43.510653406390546" lon="10.838301105822442"><ele>190.20000000000002</ele><time>2026-04-18T08:37:31.002Z</time></trkpt><trkpt lat="43.51068839976851" lon="10.838469781239224"><ele>189.4</ele><time>2026-04-18T08:37:32.002Z</time></trkpt><trkpt lat="43.51072311932282" lon="10.838620561220957"><ele>188.6</ele><time>2026-04-18T08:37:33.002Z</time></trkpt><trkpt lat="43.51075414319336" lon="10.838741288160023"><ele>187.8</ele><time>2026-04-18T08:37:34.002Z</time></trkpt><trkpt lat="43.51077086127073" lon="10.838860698665602"><ele>187.0</ele><time>2026-04-18T08:37:35.002Z</time></trkpt><trkpt lat="43.51076845177678" lon="10.838995128200999"><ele>187.0</ele><time>2026-04-18T08:37:36.002Z</time></trkpt><trkpt lat="43.51074797348586" lon="10.839120356155464"><ele>187.0</ele><time>2026-04-18T08:37:37.002Z</time></trkpt><trkpt lat="43.510723945327264" lon="10.839232066417475"><ele>187.0</ele><time>2026-04-18T08:37:38.002Z</time></trkpt><trkpt lat="43.51069465713962" lon="10.839325943656714"><ele>187.0</ele><time>2026-04-18T08:37:39.002Z</time></trkpt><trkpt lat="43.51065806703201" lon="10.839414821761869"><ele>187.0</ele><time>2026-04-18T08:37:40.002Z</time></trkpt><trkpt lat="43.51062762734994" lon="10.839502657437437"><ele>187.0</ele><time>2026-04-18T08:37:41.002Z</time></trkpt><trkpt lat="43.51061154952036" lon="10.83960139579401"><ele>186.5</ele><time>2026-04-18T08:37:42.002Z</time></trkpt><trkpt lat="43.51060724621954" lon="10.83969480435492"><ele>186.0</ele><time>2026-04-18T08:37:43.002Z</time></trkpt><trkpt lat="43.510592003214164" lon="10.839789399623093"><ele>185.5</ele><time>2026-04-18T08:37:44.002Z</time></trkpt><trkpt lat="43.510629259027404" lon="10.839903727024861"><ele>185.0</ele><time>2026-04-18T08:37:45.002Z</time></trkpt><trkpt lat="43.51064381025721" lon="10.840022783595737"><ele>184.5</ele><time>2026-04-18T08:37:46.002Z</time></trkpt><trkpt lat="43.510661426717085" lon="10.840159460543504"><ele>184.0</ele><time>2026-04-18T08:37:47.003Z</time></trkpt><trkpt lat="43.51068254205564" lon="10.840312230464695"><ele>183.25</ele><time>2026-04-18T08:37:48.003Z</time></trkpt><trkpt lat="43.510703562829214" lon="10.840467816555545"><ele>182.5</ele><time>2026-04-18T08:37:48.999Z</time></trkpt><trkpt lat="43.510728240706655" lon="10.840620042040362"><ele>181.75</ele><time>2026-04-18T08:37:49.999Z</time></trkpt><trkpt lat="43.51075137599767" lon="10.840775322546538"><ele>181.0</ele><time>2026-04-18T08:37:50.999Z</time></trkpt><trkpt lat="43.51077034557617" lon="10.840947757508083"><ele>181.5</ele><time>2026-04-18T08:37:51.999Z</time></trkpt><trkpt lat="43.51078894520364" lon="10.841147435311267"><ele>182.0</ele><time>2026-04-18T08:37:52.999Z</time></trkpt><trkpt lat="43.51080154914585" lon="10.84134232053969"><ele>182.5</ele><time>2026-04-18T08:37:53.999Z</time></trkpt><trkpt lat="43.51081340047809" lon="10.841516737339022"><ele>183.0</ele><time>2026-04-18T08:37:54.999Z</time></trkpt><trkpt lat="43.510827563570196" lon="10.841670343293128"><ele>183.4</ele><time>2026-04-18T08:37:55.999Z</time></trkpt><trkpt lat="43.510848333391074" lon="10.841815407787104"><ele>183.8</ele><time>2026-04-18T08:37:56.999Z</time></trkpt><trkpt lat="43.510884116270866" lon="10.841961377931549"><ele>184.2</ele><time>2026-04-18T08:37:57.999Z</time></trkpt><trkpt lat="43.510934848313475" lon="10.842098275485055"><ele>184.6</ele><time>2026-04-18T08:37:58.999Z</time></trkpt><trkpt lat="43.51098816579184" lon="10.842217159349051"><ele>185.0</ele><time>2026-04-18T08:37:59.999Z</time></trkpt><trkpt lat="43.51103496646146" lon="10.842329699661118"><ele>185.0</ele><time>2026-04-18T08:38:00.999Z</time></trkpt><trkpt lat="43.51106930798975" lon="10.842460765952309"><ele>185.0</ele><time>2026-04-18T08:38:01.999Z</time></trkpt><trkpt lat="43.511087529535104" lon="10.842618055250751"><ele>185.0</ele><time>2026-04-18T08:38:02.999Z</time></trkpt><trkpt lat="43.51109524630845" lon="10.842782778453937"><ele>185.0</ele><time>2026-04-18T08:38:03.999Z</time></trkpt><trkpt lat="43.51109477525193" lon="10.842960546208502"><ele>184.5</ele><time>2026-04-18T08:38:04.999Z</time></trkpt><trkpt lat="43.51108414052297" lon="10.84314687441145"><ele>184.0</ele><time>2026-04-18T08:38:05.999Z</time></trkpt><trkpt lat="43.51106137612117" lon="10.843337348192982"><ele>183.5</ele><time>2026-04-18T08:38:07Z</time></trkpt><trkpt lat="43.51102693967125" lon="10.843514331503439"><ele>183.0</ele><time>2026-04-18T08:38:08Z</time></trkpt><trkpt lat="43.51099723246174" lon="10.843669740703849"><ele>182.2</ele><time>2026-04-18T08:38:09Z</time></trkpt><trkpt lat="43.510977460356735" lon="10.8438120443067"><ele>181.4</ele><time>2026-04-18T08:38:10Z</time></trkpt><trkpt lat="43.510965697308464" lon="10.843948722472149"><ele>180.6</ele><time>2026-04-18T08:38:11Z</time></trkpt><trkpt lat="43.51097304387611" lon="10.844090498470866"><ele>179.79999999999998</ele><time>2026-04-18T08:38:12Z</time></trkpt><trkpt lat="43.51099014149719" lon="10.84424991348072"><ele>179.0</ele><time>2026-04-18T08:38:13Z</time></trkpt><trkpt lat="43.51101393014587" lon="10.844415164524488"><ele>178.16666666666666</ele><time>2026-04-18T08:38:14Z</time></trkpt><trkpt lat="43.511030572399626" lon="10.844554078575452"><ele>177.33333333333331</ele><time>2026-04-18T08:38:15Z</time></trkpt><trkpt lat="43.5110444647393" lon="10.844669092669474"><ele>176.5</ele><time>2026-04-18T08:38:16Z</time></trkpt><trkpt lat="43.51107590776651" lon="10.844780232364046"><ele>175.66666666666666</ele><time>2026-04-18T08:38:17Z</time></trkpt><trkpt lat="43.51112098819432" lon="10.844879802265035"><ele>174.83333333333334</ele><time>2026-04-18T08:38:18Z</time></trkpt><trkpt lat="43.511165152361166" lon="10.84497217089484"><ele>174.0</ele><time>2026-04-18T08:38:19Z</time></trkpt><trkpt lat="43.51121809225461" lon="10.845065658660484"><ele>174.6</ele><time>2026-04-18T08:38:20Z</time></trkpt><trkpt lat="43.511271313911834" lon="10.845160748155344"><ele>175.2</ele><time>2026-04-18T08:38:21Z</time></trkpt><trkpt lat="43.51132017441602" lon="10.84527396378966"><ele>175.79999999999998</ele><time>2026-04-18T08:38:22Z</time></trkpt><trkpt lat="43.5113743641694" lon="10.845383089922839"><ele>176.39999999999998</ele><time>2026-04-18T08:38:23Z</time></trkpt><trkpt lat="43.51143081969515" lon="10.845488463607397"><ele>177.0</ele><time>2026-04-18T08:38:24Z</time></trkpt><trkpt lat="43.5114917067496" lon="10.84559215055883"><ele>177.0</ele><time>2026-04-18T08:38:25Z</time></trkpt><trkpt lat="43.51154775304015" lon="10.845682359288109"><ele>177.0</ele><time>2026-04-18T08:38:26Z</time></trkpt><trkpt lat="43.51160102716698" lon="10.845777452380624"><ele>177.0</ele><time>2026-04-18T08:38:27Z</time></trkpt><trkpt lat="43.51164260811319" lon="10.845879350954798"><ele>177.0</ele><time>2026-04-18T08:38:28Z</time></trkpt><trkpt lat="43.51167646408309" lon="10.84598446951235"><ele>177.0</ele><time>2026-04-18T08:38:29Z</time></trkpt><trkpt lat="43.51170258446359" lon="10.846109224825025"><ele>177.0</ele><time>2026-04-18T08:38:30Z</time></trkpt><trkpt lat="43.511716136587516" lon="10.846246338128058"><ele>177.39999999999998</ele><time>2026-04-18T08:38:31Z</time></trkpt><trkpt lat="43.51170276744166" lon="10.846393130077134"><ele>177.79999999999998</ele><time>2026-04-18T08:38:32Z</time></trkpt><trkpt lat="43.51168377954399" lon="10.846534232128276"><ele>178.2</ele><time>2026-04-18T08:38:33Z</time></trkpt><trkpt lat="43.51166655947135" lon="10.846663738259098"><ele>178.6</ele><time>2026-04-18T08:38:34Z</time></trkpt><trkpt lat="43.51165162994651" lon="10.846759927341113"><ele>179.0</ele><time>2026-04-18T08:38:35Z</time></trkpt><trkpt lat="43.51163194281995" lon="10.846870246632742"><ele>179.0</ele><time>2026-04-18T08:38:36Z</time></trkpt><trkpt lat="43.51160830678464" lon="10.846996590908757"><ele>179.0</ele><time>2026-04-18T08:38:37.001Z</time></trkpt><trkpt lat="43.511591965274604" lon="10.847114606690273"><ele>179.0</ele><time>2026-04-18T08:38:38.001Z</time></trkpt><trkpt lat="43.51158112682356" lon="10.847210059002787"><ele>179.0</ele><time>2026-04-18T08:38:39.001Z</time></trkpt><trkpt lat="43.51161257746801" lon="10.84734216786812"><ele>179.0</ele><time>2026-04-18T08:38:41.001Z</time></trkpt><trkpt lat="43.511629976082965" lon="10.847496620805765"><ele>179.0</ele><time>2026-04-18T08:38:43.001Z</time></trkpt><trkpt lat="43.5116604238527" lon="10.847661661391774"><ele>179.0</ele><time>2026-04-18T08:38:45.001Z</time></trkpt><trkpt lat="43.511669472598626" lon="10.847749425229123"><ele>179.0</ele><time>2026-04-18T08:38:46.001Z</time></trkpt><trkpt lat="43.51168810467644" lon="10.847902882653731"><ele>179.0</ele><time>2026-04-18T08:38:48.001Z</time></trkpt><trkpt lat="43.5117061826002" lon="10.848071476185837"><ele>179.0</ele><time>2026-04-18T08:38:50.001Z</time></trkpt><trkpt lat="43.511728356044195" lon="10.848224497409714"><ele>179.0</ele><time>2026-04-18T08:38:52.001Z</time></trkpt><trkpt lat="43.51175924072689" lon="10.848373408598826"><ele>179.0</ele><time>2026-04-18T08:38:54.001Z</time></trkpt><trkpt lat="43.51181229400535" lon="10.848559891496175"><ele>179.0</ele><time>2026-04-18T08:38:56.001Z</time></trkpt><trkpt lat="43.51184389864146" lon="10.848654349501338"><ele>179.0</ele><time>2026-04-18T08:38:57.001Z</time></trkpt><trkpt lat="43.51186295348128" lon="10.848747684475907"><ele>179.0</ele><time>2026-04-18T08:38:58.001Z</time></trkpt><trkpt lat="43.51188994804559" lon="10.848865834329928"><ele>178.0</ele><time>2026-04-18T08:38:59.001Z</time></trkpt><trkpt lat="43.511918869746864" lon="10.848964110538509"><ele>177.0</ele><time>2026-04-18T08:39:00.001Z</time></trkpt><trkpt lat="43.5119552160938" lon="10.849061693336209"><ele>176.0</ele><time>2026-04-18T08:39:01.001Z</time></trkpt><trkpt lat="43.51200219852808" lon="10.849158926050373"><ele>175.0</ele><time>2026-04-18T08:39:02.001Z</time></trkpt><trkpt lat="43.512050231515744" lon="10.84923682887741"><ele>174.0</ele><time>2026-04-18T08:39:03.001Z</time></trkpt><trkpt lat="43.51210411075962" lon="10.849294512421677"><ele>173.0</ele><time>2026-04-18T08:39:04.001Z</time></trkpt><trkpt lat="43.51215617807262" lon="10.849358340186516"><ele>173.0</ele><time>2026-04-18T08:39:05.001Z</time></trkpt><trkpt lat="43.51220442818299" lon="10.849439808417689"><ele>173.0</ele><time>2026-04-18T08:39:06.001Z</time></trkpt><trkpt lat="43.512272625970866" lon="10.849542022575909"><ele>173.0</ele><time>2026-04-18T08:39:07.001Z</time></trkpt><trkpt lat="43.51234538576344" lon="10.84964738444848"><ele>173.0</ele><time>2026-04-18T08:39:08.001Z</time></trkpt><trkpt lat="43.512396866145075" lon="10.849758095528298"><ele>173.0</ele><time>2026-04-18T08:39:09.001Z</time></trkpt><trkpt lat="43.51246236276422" lon="10.84984225580908"><ele>173.0</ele><time>2026-04-18T08:39:10.001Z</time></trkpt><trkpt lat="43.512517456795145" lon="10.849917608351962"><ele>173.0</ele><time>2026-04-18T08:39:11.001Z</time></trkpt><trkpt lat="43.51257478239386" lon="10.849989814495682"><ele>173.0</ele><time>2026-04-18T08:39:12.001Z</time></trkpt><trkpt lat="43.51263613932769" lon="10.850066254622487"><ele>173.0</ele><time>2026-04-18T08:39:13.001Z</time></trkpt><trkpt lat="43.51269536496007" lon="10.850140870476281"><ele>173.0</ele><time>2026-04-18T08:39:14.001Z</time></trkpt><trkpt lat="43.51275974468654" lon="10.850209295431522"><ele>173.0</ele><time>2026-04-18T08:39:15.001Z</time></trkpt><trkpt lat="43.51282139894299" lon="10.850271573619485"><ele>172.5</ele><time>2026-04-18T08:39:16.002Z</time></trkpt><trkpt lat="43.512872993174824" lon="10.850330575020784"><ele>172.0</ele><time>2026-04-18T08:39:17.002Z</time></trkpt><trkpt lat="43.51293107659601" lon="10.850402643278859"><ele>171.5</ele><time>2026-04-18T08:39:18.002Z</time></trkpt><trkpt lat="43.51301787699559" lon="10.850522461838572"><ele>171.0</ele><time>2026-04-18T08:39:20.002Z</time></trkpt><trkpt lat="43.51306258384184" lon="10.850597197879644"><ele>170.5</ele><time>2026-04-18T08:39:21.002Z</time></trkpt><trkpt lat="43.51310140305517" lon="10.850666461265137"><ele>170.0</ele><time>2026-04-18T08:39:22.002Z</time></trkpt><trkpt lat="43.51314004460555" lon="10.85073668691123"><ele>170.0</ele><time>2026-04-18T08:39:23.002Z</time></trkpt><trkpt lat="43.51317444211196" lon="10.850813698220891"><ele>170.0</ele><time>2026-04-18T08:39:24.002Z</time></trkpt><trkpt lat="43.51317532778426" lon="10.850977404774527"><ele>170.0</ele><time>2026-04-18T08:39:26.002Z</time></trkpt><trkpt lat="43.513141766971046" lon="10.851071328880565"><ele>170.0</ele><time>2026-04-18T08:39:27.002Z</time></trkpt><trkpt lat="43.513099264084325" lon="10.851147103539368"><ele>170.0</ele><time>2026-04-18T08:39:28.002Z</time></trkpt><trkpt lat="43.513051360798045" lon="10.85122243149184"><ele>170.0</ele><time>2026-04-18T08:39:29.002Z</time></trkpt><trkpt lat="43.51301382003354" lon="10.85132116463885"><ele>170.4</ele><time>2026-04-18T08:39:30.002Z</time></trkpt><trkpt lat="43.512989265115344" lon="10.851469012144387"><ele>170.8</ele><time>2026-04-18T08:39:31.002Z</time></trkpt><trkpt lat="43.51297068887583" lon="10.851628717985255"><ele>171.2</ele><time>2026-04-18T08:39:32.002Z</time></trkpt><trkpt lat="43.51295952467897" lon="10.851757295092199"><ele>171.6</ele><time>2026-04-18T08:39:33.002Z</time></trkpt><trkpt lat="43.512956129587224" lon="10.851864064630089"><ele>172.0</ele><time>2026-04-18T08:39:34.002Z</time></trkpt><trkpt lat="43.51293939580332" lon="10.851984903369887"><ele>172.39999999999998</ele><time>2026-04-18T08:39:35.002Z</time></trkpt><trkpt lat="43.512905881617414" lon="10.852111420703652"><ele>172.79999999999998</ele><time>2026-04-18T08:39:36.002Z</time></trkpt><trkpt lat="43.512868605661" lon="10.852238342343512"><ele>173.2</ele><time>2026-04-18T08:39:37.002Z</time></trkpt><trkpt lat="43.51282336170097" lon="10.852367414155223"><ele>173.6</ele><time>2026-04-18T08:39:38.002Z</time></trkpt><trkpt lat="43.51276840852784" lon="10.852498815396123"><ele>174.0</ele><time>2026-04-18T08:39:39.002Z</time></trkpt><trkpt lat="43.512701729836" lon="10.852594547482216"><ele>174.16666666666666</ele><time>2026-04-18T08:39:40.002Z</time></trkpt><trkpt lat="43.512646693803234" lon="10.852674385276064"><ele>174.33333333333334</ele><time>2026-04-18T08:39:41.002Z</time></trkpt><trkpt lat="43.51258086727507" lon="10.852721322508112"><ele>174.5</ele><time>2026-04-18T08:39:42.002Z</time></trkpt><trkpt lat="43.51249823588744" lon="10.852758838376316"><ele>174.66666666666669</ele><time>2026-04-18T08:39:43.002Z</time></trkpt><trkpt lat="43.51242393865564" lon="10.852809019184077"><ele>174.83333333333334</ele><time>2026-04-18T08:39:44.002Z</time></trkpt><trkpt lat="43.51237572227055" lon="10.852896886380606"><ele>175.0</ele><time>2026-04-18T08:39:45.002Z</time></trkpt><trkpt lat="43.512341478341924" lon="10.85297340523644"><ele>175.0</ele><time>2026-04-18T08:39:46.002Z</time></trkpt><trkpt lat="43.51231933970016" lon="10.853070892575172"><ele>175.0</ele><time>2026-04-18T08:39:47.002Z</time></trkpt><trkpt lat="43.51230393610151" lon="10.853172338943411"><ele>175.0</ele><time>2026-04-18T08:39:48.002Z</time></trkpt><trkpt lat="43.51229649563313" lon="10.853278999027966"><ele>175.0</ele><time>2026-04-18T08:39:49.002Z</time></trkpt><trkpt lat="43.51230212100328" lon="10.853420960321484"><ele>175.0</ele><time>2026-04-18T08:39:50.002Z</time></trkpt><trkpt lat="43.51230762836531" lon="10.85356072233854"><ele>175.0</ele><time>2026-04-18T08:39:51.002Z</time></trkpt><trkpt lat="43.512313912334406" lon="10.85366781614271"><ele>175.0</ele><time>2026-04-18T08:39:52.002Z</time></trkpt><trkpt lat="43.51229474487539" lon="10.853778152350902"><ele>175.0</ele><time>2026-04-18T08:39:53.002Z</time></trkpt><trkpt lat="43.512287246230755" lon="10.853902105216896"><ele>175.0</ele><time>2026-04-18T08:39:54.002Z</time></trkpt><trkpt lat="43.5122793993401" lon="10.854012769500471"><ele>175.0</ele><time>2026-04-18T08:39:55Z</time></trkpt><trkpt lat="43.51227260039933" lon="10.854108654549536"><ele>175.0</ele><time>2026-04-18T08:39:55.999Z</time></trkpt><trkpt lat="43.51226483608329" lon="10.854218154239335"><ele>175.0</ele><time>2026-04-18T08:39:57Z</time></trkpt><trkpt lat="43.51225782806059" lon="10.854323412048405"><ele>175.16666666666669</ele><time>2026-04-18T08:39:58Z</time></trkpt><trkpt lat="43.51225035359609" lon="10.854440853329924"><ele>175.33333333333334</ele><time>2026-04-18T08:39:59Z</time></trkpt><trkpt lat="43.51224304442623" lon="10.854562076748568"><ele>175.5</ele><time>2026-04-18T08:40:00Z</time></trkpt><trkpt lat="43.512236873367684" lon="10.854674064991512"><ele>175.66666666666666</ele><time>2026-04-18T08:40:01Z</time></trkpt><trkpt lat="43.51223318630051" lon="10.85477806195387"><ele>175.83333333333331</ele><time>2026-04-18T08:40:02Z</time></trkpt><trkpt lat="43.51224555602099" lon="10.85488658396887"><ele>176.0</ele><time>2026-04-18T08:40:03Z</time></trkpt><trkpt lat="43.51223396623227" lon="10.854995425619286"><ele>176.0</ele><time>2026-04-18T08:40:04Z</time></trkpt><trkpt lat="43.51222531057701" lon="10.855115599646593"><ele>176.0</ele><time>2026-04-18T08:40:05Z</time></trkpt><trkpt lat="43.51221867010272" lon="10.855237312549082"><ele>176.0</ele><time>2026-04-18T08:40:06Z</time></trkpt><trkpt lat="43.51220561515268" lon="10.855366030004781"><ele>176.0</ele><time>2026-04-18T08:40:07Z</time></trkpt><trkpt lat="43.51219023677136" lon="10.855485613964468"><ele>176.0</ele><time>2026-04-18T08:40:08Z</time></trkpt><trkpt lat="43.512178933308874" lon="10.855605941615952"><ele>176.0</ele><time>2026-04-18T08:40:09Z</time></trkpt><trkpt lat="43.51217001344025" lon="10.855732668843903"><ele>176.20000000000002</ele><time>2026-04-18T08:40:10Z</time></trkpt><trkpt lat="43.51215953148877" lon="10.85586065994167"><ele>176.4</ele><time>2026-04-18T08:40:11Z</time></trkpt><trkpt lat="43.51214958478267" lon="10.856000821860565"><ele>176.6</ele><time>2026-04-18T08:40:12Z</time></trkpt><trkpt lat="43.51213129589013" lon="10.856139244553408"><ele>176.8</ele><time>2026-04-18T08:40:13Z</time></trkpt><trkpt lat="43.51211137277103" lon="10.856272703001938"><ele>177.0</ele><time>2026-04-18T08:40:14Z</time></trkpt><trkpt lat="43.512095702556834" lon="10.856397091054749"><ele>177.39999999999998</ele><time>2026-04-18T08:40:15Z</time></trkpt><trkpt lat="43.5120745623796" lon="10.856514044503227"><ele>177.79999999999998</ele><time>2026-04-18T08:40:16Z</time></trkpt><trkpt lat="43.512051461480475" lon="10.85664199129952"><ele>178.2</ele><time>2026-04-18T08:40:17Z</time></trkpt><trkpt lat="43.51203540456356" lon="10.856770771650483"><ele>178.6</ele><time>2026-04-18T08:40:18Z</time></trkpt><trkpt lat="43.51202120387054" lon="10.856911232869901"><ele>179.0</ele><time>2026-04-18T08:40:19Z</time></trkpt><trkpt lat="43.51200909074929" lon="10.857044420225353"><ele>179.33333333333331</ele><time>2026-04-18T08:40:20Z</time></trkpt><trkpt lat="43.51200825478432" lon="10.85716051194795"><ele>179.66666666666666</ele><time>2026-04-18T08:40:21Z</time></trkpt><trkpt lat="43.51201675407164" lon="10.85728144811279"><ele>180.0</ele><time>2026-04-18T08:40:22Z</time></trkpt><trkpt lat="43.51203164026187" lon="10.857409306347579"><ele>180.33333333333334</ele><time>2026-04-18T08:40:23Z</time></trkpt><trkpt lat="43.51205260123504" lon="10.857523617335715"><ele>180.66666666666669</ele><time>2026-04-18T08:40:24Z</time></trkpt><trkpt lat="43.51208018915909" lon="10.857630586524051"><ele>181.0</ele><time>2026-04-18T08:40:25Z</time></trkpt><trkpt lat="43.51211376739281" lon="10.857738055179974"><ele>181.33333333333334</ele><time>2026-04-18T08:40:26Z</time></trkpt><trkpt lat="43.51214389051879" lon="10.857842316660866"><ele>181.66666666666669</ele><time>2026-04-18T08:40:27Z</time></trkpt><trkpt lat="43.51218129302219" lon="10.857951501289298"><ele>182.0</ele><time>2026-04-18T08:40:28Z</time></trkpt><trkpt lat="43.5122190815052" lon="10.858063617951633"><ele>182.33333333333334</ele><time>2026-04-18T08:40:29Z</time></trkpt><trkpt lat="43.51225316478219" lon="10.858165607849589"><ele>182.66666666666666</ele><time>2026-04-18T08:40:30Z</time></trkpt><trkpt lat="43.51228055085979" lon="10.858254087891465"><ele>183.0</ele><time>2026-04-18T08:40:31Z</time></trkpt><trkpt lat="43.512311917292855" lon="10.85835431024023"><ele>183.0</ele><time>2026-04-18T08:40:32Z</time></trkpt><trkpt lat="43.512342254521656" lon="10.858444184209814"><ele>183.0</ele><time>2026-04-18T08:40:33Z</time></trkpt><trkpt lat="43.512383633800944" lon="10.858541863545277"><ele>183.0</ele><time>2026-04-18T08:40:34Z</time></trkpt><trkpt lat="43.512424167943735" lon="10.858650812749426"><ele>183.0</ele><time>2026-04-18T08:40:35Z</time></trkpt><trkpt lat="43.5124633767703" lon="10.8587681486502"><ele>183.0</ele><time>2026-04-18T08:40:36Z</time></trkpt><trkpt lat="43.51251843392687" lon="10.858873310171775"><ele>183.0</ele><time>2026-04-18T08:40:37.001Z</time></trkpt><trkpt lat="43.51258344503253" lon="10.858972125453088"><ele>183.4</ele><time>2026-04-18T08:40:38.001Z</time></trkpt><trkpt lat="43.51266399514418" lon="10.859075399464412"><ele>183.8</ele><time>2026-04-18T08:40:39.001Z</time></trkpt><trkpt lat="43.51273792839302" lon="10.859184696711706"><ele>184.2</ele><time>2026-04-18T08:40:40.001Z</time></trkpt><trkpt lat="43.512806815718385" lon="10.859304158799102"><ele>184.6</ele><time>2026-04-18T08:40:41.001Z</time></trkpt><trkpt lat="43.51287206997442" lon="10.859412851175824"><ele>185.0</ele><time>2026-04-18T08:40:42.001Z</time></trkpt><trkpt lat="43.512945778599544" lon="10.859511145802976"><ele>185.0</ele><time>2026-04-18T08:40:43.001Z</time></trkpt><trkpt lat="43.51302391001262" lon="10.859593818571966"><ele>185.0</ele><time>2026-04-18T08:40:44.001Z</time></trkpt><trkpt lat="43.51310487057318" lon="10.859675120288797"><ele>185.0</ele><time>2026-04-18T08:40:45.001Z</time></trkpt><trkpt lat="43.51318528330176" lon="10.85975870748002"><ele>185.0</ele><time>2026-04-18T08:40:46.001Z</time></trkpt><trkpt lat="43.51326407767643" lon="10.859851944982251"><ele>185.0</ele><time>2026-04-18T08:40:47.001Z</time></trkpt><trkpt lat="43.51333628293343" lon="10.85996113158316"><ele>185.0</ele><time>2026-04-18T08:40:48.001Z</time></trkpt><trkpt lat="43.51340184945476" lon="10.860071351746765"><ele>185.0</ele><time>2026-04-18T08:40:49.001Z</time></trkpt><trkpt lat="43.513467544532304" lon="10.86017293311114"><ele>185.0</ele><time>2026-04-18T08:40:50.001Z</time></trkpt><trkpt lat="43.513528108248046" lon="10.8602605824838"><ele>185.0</ele><time>2026-04-18T08:40:51.001Z</time></trkpt><trkpt lat="43.513584633163134" lon="10.860332254672871"><ele>185.0</ele><time>2026-04-18T08:40:52.001Z</time></trkpt><trkpt lat="43.51364938949133" lon="10.860409892939222"><ele>184.66666666666666</ele><time>2026-04-18T08:40:53.001Z</time></trkpt><trkpt lat="43.513716672064476" lon="10.860480935947809"><ele>184.33333333333331</ele><time>2026-04-18T08:40:54.001Z</time></trkpt><trkpt lat="43.513786293459795" lon="10.860539239598005"><ele>184.0</ele><time>2026-04-18T08:40:55.001Z</time></trkpt><trkpt lat="43.513868107017885" lon="10.860583224317814"><ele>183.66666666666666</ele><time>2026-04-18T08:40:56.001Z</time></trkpt><trkpt lat="43.513946969330135" lon="10.86060820686135"><ele>183.33333333333334</ele><time>2026-04-18T08:40:57.001Z</time></trkpt><trkpt lat="43.51402794049163" lon="10.860642918970703"><ele>183.0</ele><time>2026-04-18T08:40:58.001Z</time></trkpt><trkpt lat="43.514091265591226" lon="10.860688887209454"><ele>184.83333333333334</ele><time>2026-04-18T08:40:59.001Z</time></trkpt><trkpt lat="43.51414831733909" lon="10.860745125008576"><ele>186.66666666666669</ele><time>2026-04-18T08:41:00.001Z</time></trkpt><trkpt lat="43.51420235717261" lon="10.860824752267439"><ele>188.5</ele><time>2026-04-18T08:41:01.001Z</time></trkpt><trkpt lat="43.51425347396298" lon="10.860916448002383"><ele>190.33333333333334</ele><time>2026-04-18T08:41:02.001Z</time></trkpt><trkpt lat="43.51429269952549" lon="10.861024608759612"><ele>192.16666666666669</ele><time>2026-04-18T08:41:03.001Z</time></trkpt><trkpt lat="43.514326460748" lon="10.861148363131159"><ele>194.0</ele><time>2026-04-18T08:41:04.001Z</time></trkpt><trkpt lat="43.51435303164474" lon="10.861294829253612"><ele>195.6</ele><time>2026-04-18T08:41:05.001Z</time></trkpt><trkpt lat="43.5143772422937" lon="10.861429215987254"><ele>197.2</ele><time>2026-04-18T08:41:06.001Z</time></trkpt><trkpt lat="43.514389205621605" lon="10.861517481960128"><ele>198.79999999999998</ele><time>2026-04-18T08:41:07.001Z</time></trkpt><trkpt lat="43.51436692416185" lon="10.861699001205062"><ele>200.39999999999998</ele><time>2026-04-18T08:41:09.001Z</time></trkpt><trkpt lat="43.51431722273495" lon="10.861786746601135"><ele>202.0</ele><time>2026-04-18T08:41:10.001Z</time></trkpt><trkpt lat="43.51423879817904" lon="10.861831137431116"><ele>202.42857142857142</ele><time>2026-04-18T08:41:11.001Z</time></trkpt><trkpt lat="43.51417765680878" lon="10.861891229165906"><ele>202.85714285714283</ele><time>2026-04-18T08:41:12.001Z</time></trkpt><trkpt lat="43.514103544893274" lon="10.861932636217299"><ele>203.28571428571428</ele><time>2026-04-18T08:41:13.001Z</time></trkpt><trkpt lat="43.514044331290584" lon="10.861988126506036"><ele>203.71428571428572</ele><time>2026-04-18T08:41:14.002Z</time></trkpt><trkpt lat="43.51399698345161" lon="10.862053852008941"><ele>204.14285714285714</ele><time>2026-04-18T08:41:15.002Z</time></trkpt><trkpt lat="43.51395463411629" lon="10.862124450578312"><ele>204.57142857142858</ele><time>2026-04-18T08:41:16.002Z</time></trkpt><trkpt lat="43.51391311409554" lon="10.862216819262423"><ele>205.0</ele><time>2026-04-18T08:41:17.002Z</time></trkpt><trkpt lat="43.51388044594475" lon="10.862321133841782"><ele>205.0</ele><time>2026-04-18T08:41:18.002Z</time></trkpt><trkpt lat="43.5138540508304" lon="10.862432892274942"><ele>205.0</ele><time>2026-04-18T08:41:19.002Z</time></trkpt><trkpt lat="43.51383948476306" lon="10.862556873538137"><ele>205.0</ele><time>2026-04-18T08:41:20.002Z</time></trkpt><trkpt lat="43.5138516818706" lon="10.862687831212298"><ele>205.0</ele><time>2026-04-18T08:41:21.002Z</time></trkpt><trkpt lat="43.513862361261246" lon="10.86281636843257"><ele>205.0</ele><time>2026-04-18T08:41:22.002Z</time></trkpt><trkpt lat="43.51387555479466" lon="10.862930782925899"><ele>205.83333333333331</ele><time>2026-04-18T08:41:23.002Z</time></trkpt><trkpt lat="43.51390152488917" lon="10.863031451600543"><ele>206.66666666666666</ele><time>2026-04-18T08:41:24.002Z</time></trkpt><trkpt lat="43.513939952840154" lon="10.863123912510078"><ele>207.5</ele><time>2026-04-18T08:41:25.002Z</time></trkpt><trkpt lat="43.51398043051893" lon="10.863219367535306"><ele>208.33333333333331</ele><time>2026-04-18T08:41:26.002Z</time></trkpt><trkpt lat="43.5140322974737" lon="10.863307524762401"><ele>209.16666666666666</ele><time>2026-04-18T08:41:27.002Z</time></trkpt><trkpt lat="43.514094443265655" lon="10.863405767056328"><ele>210.0</ele><time>2026-04-18T08:41:28.002Z</time></trkpt><trkpt lat="43.514153050801525" lon="10.863505692759004"><ele>211.2</ele><time>2026-04-18T08:41:29.002Z</time></trkpt><trkpt lat="43.51419986484961" lon="10.863607085008846"><ele>212.4</ele><time>2026-04-18T08:41:30.002Z</time></trkpt><trkpt lat="43.51422135132462" lon="10.863722010691818"><ele>213.60000000000002</ele><time>2026-04-18T08:41:31.002Z</time></trkpt><trkpt lat="43.51421711573833" lon="10.863864224736572"><ele>214.8</ele><time>2026-04-18T08:41:32.002Z</time></trkpt><trkpt lat="43.51424763466672" lon="10.864016847895773"><ele>216.0</ele><time>2026-04-18T08:41:33.002Z</time></trkpt><trkpt lat="43.514263510996415" lon="10.864196543213671"><ele>218.25</ele><time>2026-04-18T08:41:34.002Z</time></trkpt><trkpt lat="43.51427575124384" lon="10.864380857554883"><ele>220.5</ele><time>2026-04-18T08:41:35.002Z</time></trkpt><trkpt lat="43.51428613709321" lon="10.864571394232014"><ele>222.75</ele><time>2026-04-18T08:41:36.002Z</time></trkpt><trkpt lat="43.514294939689634" lon="10.864752957661114"><ele>225.0</ele><time>2026-04-18T08:41:37.002Z</time></trkpt><trkpt lat="43.51430351023752" lon="10.86492954386219"><ele>225.0</ele><time>2026-04-18T08:41:38.002Z</time></trkpt><trkpt lat="43.5143185189342" lon="10.86510406459571"><ele>225.0</ele><time>2026-04-18T08:41:39.002Z</time></trkpt><trkpt lat="43.514344941432995" lon="10.865261211909823"><ele>225.0</ele><time>2026-04-18T08:41:40.002Z</time></trkpt><trkpt lat="43.514363738646274" lon="10.865403583945824"><ele>225.0</ele><time>2026-04-18T08:41:41.002Z</time></trkpt><trkpt lat="43.51437206301174" lon="10.865538118259762"><ele>225.0</ele><time>2026-04-18T08:41:42.002Z</time></trkpt><trkpt lat="43.51437967552587" lon="10.865680052225327"><ele>227.5</ele><time>2026-04-18T08:41:43.002Z</time></trkpt><trkpt lat="43.51439836659712" lon="10.865829867057942"><ele>230.0</ele><time>2026-04-18T08:41:44.002Z</time></trkpt><trkpt lat="43.514417572147394" lon="10.8659886713137"><ele>232.5</ele><time>2026-04-18T08:41:45.002Z</time></trkpt><trkpt lat="43.51444716779688" lon="10.866154050868834"><ele>235.0</ele><time>2026-04-18T08:41:46.002Z</time></trkpt><trkpt lat="43.51448255098068" lon="10.866320052881951"><ele>236.5</ele><time>2026-04-18T08:41:47.002Z</time></trkpt><trkpt lat="43.51451775903815" lon="10.86648910216146"><ele>238.0</ele><time>2026-04-18T08:41:48.002Z</time></trkpt><trkpt lat="43.51454291055157" lon="10.866650489287546"><ele>239.5</ele><time>2026-04-18T08:41:49.002Z</time></trkpt><trkpt lat="43.5145633631286" lon="10.866808872642533"><ele>241.0</ele><time>2026-04-18T08:41:50.002Z</time></trkpt><trkpt lat="43.51456825763453" lon="10.866964140327951"><ele>241.0</ele><time>2026-04-18T08:41:51.002Z</time></trkpt><trkpt lat="43.51456244426554" lon="10.86712009770209"><ele>241.0</ele><time>2026-04-18T08:41:52.003Z</time></trkpt><trkpt lat="43.51458742226106" lon="10.867285454159111"><ele>241.0</ele><time>2026-04-18T08:41:53.003Z</time></trkpt><trkpt lat="43.51462453020702" lon="10.867463502221858"><ele>241.0</ele><time>2026-04-18T08:41:54.003Z</time></trkpt><trkpt lat="43.51470307619212" lon="10.867638572731673"><ele>241.0</ele><time>2026-04-18T08:41:55.003Z</time></trkpt><trkpt lat="43.51478234734043" lon="10.867785822650317"><ele>241.00000000000003</ele><time>2026-04-18T08:41:56.003Z</time></trkpt><trkpt lat="43.514840085712635" lon="10.867921963015279"><ele>241.00000000000003</ele><time>2026-04-18T08:41:57.003Z</time></trkpt><trkpt lat="43.51488715290806" lon="10.86802599974499"><ele>241.0</ele><time>2026-04-18T08:41:58.003Z</time></trkpt><trkpt lat="43.51493408211442" lon="10.868123967707831"><ele>241.0</ele><time>2026-04-18T08:41:59.003Z</time></trkpt><trkpt lat="43.51499441381742" lon="10.86822350763703"><ele>241.0</ele><time>2026-04-18T08:42:00.003Z</time></trkpt><trkpt lat="43.51505922769768" lon="10.868341050133548"><ele>241.0</ele><time>2026-04-18T08:42:01Z</time></trkpt><trkpt lat="43.515134029339514" lon="10.868466889563894"><ele>241.0</ele><time>2026-04-18T08:42:02Z</time></trkpt><trkpt lat="43.51521614798785" lon="10.868606918413644"><ele>241.0</ele><time>2026-04-18T08:42:03Z</time></trkpt><trkpt lat="43.51530780486637" lon="10.868765913431469"><ele>243.0</ele><time>2026-04-18T08:42:04Z</time></trkpt><trkpt lat="43.5154084511144" lon="10.868922117631978"><ele>245.0</ele><time>2026-04-18T08:42:05Z</time></trkpt><trkpt lat="43.5155203934391" lon="10.869070791329783"><ele>247.0</ele><time>2026-04-18T08:42:06Z</time></trkpt><trkpt lat="43.51563154956052" lon="10.869216429099914"><ele>248.75</ele><time>2026-04-18T08:42:07Z</time></trkpt><trkpt lat="43.51574247473939" lon="10.86935879187965"><ele>250.5</ele><time>2026-04-18T08:42:08Z</time></trkpt><trkpt lat="43.51584338556138" lon="10.869494041218653"><ele>252.25</ele><time>2026-04-18T08:42:09Z</time></trkpt><trkpt lat="43.51593373569838" lon="10.869620546111593"><ele>254.0</ele><time>2026-04-18T08:42:10Z</time></trkpt><trkpt lat="43.516023107880216" lon="10.869748388025501"><ele>254.0</ele><time>2026-04-18T08:42:11Z</time></trkpt><trkpt lat="43.51611340315254" lon="10.869873638739628"><ele>253.99999999999997</ele><time>2026-04-18T08:42:12Z</time></trkpt><trkpt lat="43.516189130802026" lon="10.869989420345835"><ele>253.99999999999997</ele><time>2026-04-18T08:42:13Z</time></trkpt><trkpt lat="43.5162509159526" lon="10.870101435317308"><ele>254.0</ele><time>2026-04-18T08:42:14Z</time></trkpt><trkpt lat="43.51629194800617" lon="10.870198592362412"><ele>254.0</ele><time>2026-04-18T08:42:15Z</time></trkpt><trkpt lat="43.51630748644908" lon="10.870301829894366"><ele>257.0</ele><time>2026-04-18T08:42:16Z</time></trkpt><trkpt lat="43.51629176791305" lon="10.870414835386212"><ele>260.0</ele><time>2026-04-18T08:42:17Z</time></trkpt><trkpt lat="43.516267661459594" lon="10.870561818814897"><ele>263.0</ele><time>2026-04-18T08:42:18Z</time></trkpt><trkpt lat="43.51625242732734" lon="10.870714956292993"><ele>266.0</ele><time>2026-04-18T08:42:19Z</time></trkpt><trkpt lat="43.516251349499164" lon="10.870843007980012"><ele>269.0</ele><time>2026-04-18T08:42:20Z</time></trkpt><trkpt lat="43.51622838378799" lon="10.870937130065688"><ele>272.4</ele><time>2026-04-18T08:42:21Z</time></trkpt><trkpt lat="43.51616834222408" lon="10.870981275350607"><ele>275.79999999999995</ele><time>2026-04-18T08:42:22Z</time></trkpt><trkpt lat="43.51608834656174" lon="10.870952499104066"><ele>279.20000000000005</ele><time>2026-04-18T08:42:23Z</time></trkpt><trkpt lat="43.51600462419685" lon="10.870946750285142"><ele>282.6</ele><time>2026-04-18T08:42:24Z</time></trkpt><trkpt lat="43.51589514611347" lon="10.870947403489604"><ele>286.0</ele><time>2026-04-18T08:42:25Z</time></trkpt><trkpt lat="43.515786324090946" lon="10.87099182792407"><ele>286.0</ele><time>2026-04-18T08:42:26Z</time></trkpt><trkpt lat="43.51570880015075" lon="10.87110665271308"><ele>286.0</ele><time>2026-04-18T08:42:27Z</time></trkpt><trkpt lat="43.51565457249832" lon="10.871208908266436"><ele>286.0</ele><time>2026-04-18T08:42:28Z</time></trkpt><trkpt lat="43.51562652880996" lon="10.871296608400195"><ele>286.0</ele><time>2026-04-18T08:42:29Z</time></trkpt><trkpt lat="43.515609103586705" lon="10.871387248237719"><ele>286.0</ele><time>2026-04-18T08:42:30Z</time></trkpt><trkpt lat="43.515582592078125" lon="10.87151491449472"><ele>286.0</ele><time>2026-04-18T08:42:31Z</time></trkpt><trkpt lat="43.51555600892447" lon="10.87166328703191"><ele>287.66666666666663</ele><time>2026-04-18T08:42:32Z</time></trkpt><trkpt lat="43.51553552028486" lon="10.871797550825185"><ele>289.3333333333333</ele><time>2026-04-18T08:42:33Z</time></trkpt><trkpt lat="43.51552246467494" lon="10.871891450565723"><ele>291.0</ele><time>2026-04-18T08:42:34Z</time></trkpt><trkpt lat="43.515513855455936" lon="10.871984424055658"><ele>292.6666666666667</ele><time>2026-04-18T08:42:35Z</time></trkpt><trkpt lat="43.515570944976524" lon="10.872107170532251"><ele>294.33333333333337</ele><time>2026-04-18T08:42:37.001Z</time></trkpt><trkpt lat="43.51563511036447" lon="10.872122721645669"><ele>296.0</ele><time>2026-04-18T08:42:38.001Z</time></trkpt><trkpt lat="43.51573357887334" lon="10.872106841747152"><ele>296.0</ele><time>2026-04-18T08:42:39.001Z</time></trkpt><trkpt lat="43.51585320145992" lon="10.872146082067252"><ele>296.0</ele><time>2026-04-18T08:42:40.001Z</time></trkpt><trkpt lat="43.51598199308283" lon="10.872137430885926"><ele>296.0</ele><time>2026-04-18T08:42:41.001Z</time></trkpt><trkpt lat="43.51606403920898" lon="10.872183415238661"><ele>296.0</ele><time>2026-04-18T08:42:42.001Z</time></trkpt><trkpt lat="43.51614099085876" lon="10.872324422140116"><ele>296.0</ele><time>2026-04-18T08:42:44.001Z</time></trkpt><trkpt lat="43.51615052696049" lon="10.87245605135514"><ele>296.0</ele><time>2026-04-18T08:42:45.001Z</time></trkpt><trkpt lat="43.516142551651484" lon="10.872596783483651"><ele>296.0</ele><time>2026-04-18T08:42:46.001Z</time></trkpt><trkpt lat="43.51616938164772" lon="10.872717270872199"><ele>296.0</ele><time>2026-04-18T08:42:47.001Z</time></trkpt><trkpt lat="43.51621824550147" lon="10.872807850178102"><ele>296.0</ele><time>2026-04-18T08:42:48.001Z</time></trkpt><trkpt lat="43.51627749958245" lon="10.872877148422765"><ele>296.0</ele><time>2026-04-18T08:42:49.001Z</time></trkpt><trkpt lat="43.516352802524764" lon="10.872941341698214"><ele>301.0</ele><time>2026-04-18T08:42:50.001Z</time></trkpt><trkpt lat="43.51641063707389" lon="10.873027960634715"><ele>306.0</ele><time>2026-04-18T08:42:52.001Z</time></trkpt><trkpt lat="43.516360314227164" lon="10.87320932679101"><ele>311.0</ele><time>2026-04-18T08:42:54.001Z</time></trkpt><trkpt lat="43.51632144540937" lon="10.873351175307628"><ele>316.0</ele><time>2026-04-18T08:42:55.001Z</time></trkpt><trkpt lat="43.51632667263073" lon="10.873527537012134"><ele>316.8</ele><time>2026-04-18T08:42:56.001Z</time></trkpt><trkpt lat="43.51631771590044" lon="10.873693879213734"><ele>317.6</ele><time>2026-04-18T08:42:57.001Z</time></trkpt><trkpt lat="43.51630292057476" lon="10.873834532017181"><ele>318.4</ele><time>2026-04-18T08:42:58.001Z</time></trkpt><trkpt lat="43.51627077879357" lon="10.873955272323554"><ele>319.2</ele><time>2026-04-18T08:42:59.001Z</time></trkpt><trkpt lat="43.516245581338445" lon="10.874079564237809"><ele>320.0</ele><time>2026-04-18T08:43:00.001Z</time></trkpt><trkpt lat="43.51620421337263" lon="10.87419434113088"><ele>319.0</ele><time>2026-04-18T08:43:01.001Z</time></trkpt><trkpt lat="43.51614504299912" lon="10.874301576526664"><ele>318.0</ele><time>2026-04-18T08:43:02.001Z</time></trkpt><trkpt lat="43.51607786007363" lon="10.874409974295592"><ele>317.0</ele><time>2026-04-18T08:43:03.001Z</time></trkpt><trkpt lat="43.51601728623358" lon="10.874494513741686"><ele>316.0</ele><time>2026-04-18T08:43:04.001Z</time></trkpt><trkpt lat="43.515930465189506" lon="10.874567234622566"><ele>315.0</ele><time>2026-04-18T08:43:06.001Z</time></trkpt><trkpt lat="43.515864302612734" lon="10.874574624152503"><ele>315.0</ele><time>2026-04-18T08:43:07.001Z</time></trkpt><trkpt lat="43.51577053400608" lon="10.87460352274882"><ele>315.0</ele><time>2026-04-18T08:43:08.001Z</time></trkpt><trkpt lat="43.515705317109834" lon="10.874662482503918"><ele>315.0</ele><time>2026-04-18T08:43:09.001Z</time></trkpt><trkpt lat="43.51562924430729" lon="10.874731790301416"><ele>315.0</ele><time>2026-04-18T08:43:10.001Z</time></trkpt><trkpt lat="43.515533478346995" lon="10.87480220111165"><ele>315.0</ele><time>2026-04-18T08:43:11.001Z</time></trkpt><trkpt lat="43.51543557149018" lon="10.87487614609102"><ele>315.0</ele><time>2026-04-18T08:43:12.001Z</time></trkpt><trkpt lat="43.515341048144656" lon="10.874963902394553"><ele>315.0</ele><time>2026-04-18T08:43:13.002Z</time></trkpt><trkpt lat="43.51528921716742" lon="10.87504017448932"><ele>315.0</ele><time>2026-04-18T08:43:14.002Z</time></trkpt><trkpt lat="43.515202459549094" lon="10.875153774935775"><ele>315.0</ele><time>2026-04-18T08:43:16.002Z</time></trkpt><trkpt lat="43.51516363607765" lon="10.875248692944663"><ele>315.0</ele><time>2026-04-18T08:43:17.002Z</time></trkpt><trkpt lat="43.51513756507717" lon="10.875356909587113"><ele>315.0</ele><time>2026-04-18T08:43:18.002Z</time></trkpt><trkpt lat="43.515142764564175" lon="10.875496568406371"><ele>315.0</ele><time>2026-04-18T08:43:19.002Z</time></trkpt><trkpt lat="43.51513249107528" lon="10.875599908426471"><ele>315.0</ele><time>2026-04-18T08:43:20.002Z</time></trkpt><trkpt lat="43.515099746872544" lon="10.875762373872314"><ele>315.0</ele><time>2026-04-18T08:43:22.002Z</time></trkpt><trkpt lat="43.51509321940631" lon="10.875851168094956"><ele>315.0</ele><time>2026-04-18T08:43:23.002Z</time></trkpt><trkpt lat="43.515094554596125" lon="10.875957263494067"><ele>315.0</ele><time>2026-04-18T08:43:25.002Z</time></trkpt><trkpt lat="43.51530163947536" lon="10.876016692913394"><ele>317.0</ele><time>2026-04-18T08:43:29.002Z</time></trkpt><trkpt lat="43.51539740987158" lon="10.87603674919"><ele>319.0</ele><time>2026-04-18T08:43:30.002Z</time></trkpt><trkpt lat="43.51549679529799" lon="10.876074878662488"><ele>321.0</ele><time>2026-04-18T08:43:31.002Z</time></trkpt><trkpt lat="43.51559659305491" lon="10.876166799988182"><ele>323.0</ele><time>2026-04-18T08:43:32.002Z</time></trkpt><trkpt lat="43.51569624582222" lon="10.876278845323935"><ele>325.0</ele><time>2026-04-18T08:43:33.002Z</time></trkpt><trkpt lat="43.51580388967599" lon="10.876363572857832"><ele>326.75</ele><time>2026-04-18T08:43:34.002Z</time></trkpt><trkpt lat="43.51594260603137" lon="10.876356533423117"><ele>328.5</ele><time>2026-04-18T08:43:35.002Z</time></trkpt><trkpt lat="43.51608726690371" lon="10.876316401632488"><ele>330.25</ele><time>2026-04-18T08:43:36.002Z</time></trkpt><trkpt lat="43.51623353335513" lon="10.87624857673084"><ele>332.0</ele><time>2026-04-18T08:43:37.002Z</time></trkpt><trkpt lat="43.51639008016624" lon="10.876147088042194"><ele>332.75</ele><time>2026-04-18T08:43:38.002Z</time></trkpt><trkpt lat="43.51653051675662" lon="10.87604166531565"><ele>333.5</ele><time>2026-04-18T08:43:39.002Z</time></trkpt><trkpt lat="43.516658516894175" lon="10.875962738302508"><ele>334.25</ele><time>2026-04-18T08:43:40.002Z</time></trkpt><trkpt lat="43.51676116408771" lon="10.875891355412945"><ele>335.0</ele><time>2026-04-18T08:43:41.002Z</time></trkpt><trkpt lat="43.516848452369985" lon="10.875822682918379"><ele>335.0</ele><time>2026-04-18T08:43:42.002Z</time></trkpt><trkpt lat="43.51693076299125" lon="10.875721708292335"><ele>335.0</ele><time>2026-04-18T08:43:43.002Z</time></trkpt><trkpt lat="43.516987860439826" lon="10.875539183986366"><ele>335.0</ele><time>2026-04-18T08:43:44.002Z</time></trkpt><trkpt lat="43.51702501080251" lon="10.875322978463739"><ele>335.0</ele><time>2026-04-18T08:43:45.002Z</time></trkpt><trkpt lat="43.51708400968085" lon="10.87513530890715"><ele>337.25</ele><time>2026-04-18T08:43:46.002Z</time></trkpt><trkpt lat="43.5171945107416" lon="10.87499400334512"><ele>339.5</ele><time>2026-04-18T08:43:47.002Z</time></trkpt><trkpt lat="43.51730142767907" lon="10.8749048280723"><ele>341.75</ele><time>2026-04-18T08:43:48.002Z</time></trkpt><trkpt lat="43.51742705652016" lon="10.874849019344413"><ele>344.0</ele><time>2026-04-18T08:43:49.002Z</time></trkpt><trkpt lat="43.517550633062136" lon="10.874823862623654"><ele>344.0</ele><time>2026-04-18T08:43:50.002Z</time></trkpt><trkpt lat="43.517652187993285" lon="10.874803686345281"><ele>344.0</ele><time>2026-04-18T08:43:51.003Z</time></trkpt><trkpt lat="43.517737446291854" lon="10.874791808510771"><ele>344.0</ele><time>2026-04-18T08:43:52.003Z</time></trkpt><trkpt lat="43.51783031010884" lon="10.874778141661492"><ele>344.0</ele><time>2026-04-18T08:43:53.003Z</time></trkpt><trkpt lat="43.51793647996634" lon="10.874784072274648"><ele>344.0</ele><time>2026-04-18T08:43:54.003Z</time></trkpt><trkpt lat="43.51807529921261" lon="10.87478513097188"><ele>346.6666666666667</ele><time>2026-04-18T08:43:55.003Z</time></trkpt><trkpt lat="43.51823019590203" lon="10.874792721437313"><ele>349.3333333333333</ele><time>2026-04-18T08:43:56.003Z</time></trkpt><trkpt lat="43.51839859315505" lon="10.87484210803258"><ele>352.0</ele><time>2026-04-18T08:43:57.003Z</time></trkpt><trkpt lat="43.518585235570875" lon="10.87487850075056"><ele>350.25</ele><time>2026-04-18T08:43:58.003Z</time></trkpt><trkpt lat="43.51873958809517" lon="10.874886630222358"><ele>348.5</ele><time>2026-04-18T08:43:59.003Z</time></trkpt><trkpt lat="43.51885861207289" lon="10.874910458732561"><ele>346.75</ele><time>2026-04-18T08:44:00.003Z</time></trkpt><trkpt lat="43.51897106139325" lon="10.874930853977833"><ele>345.0</ele><time>2026-04-18T08:44:01.003Z</time></trkpt><trkpt lat="43.51908016435254" lon="10.874978564516729"><ele>345.0</ele><time>2026-04-18T08:44:02.003Z</time></trkpt><trkpt lat="43.51917305804055" lon="10.875078537907438"><ele>345.0</ele><time>2026-04-18T08:44:03.003Z</time></trkpt><trkpt lat="43.51923864214904" lon="10.875214508236425"><ele>345.0</ele><time>2026-04-18T08:44:04.003Z</time></trkpt><trkpt lat="43.51926276071063" lon="10.875402874374714"><ele>345.0</ele><time>2026-04-18T08:44:05.003Z</time></trkpt><trkpt lat="43.519321544011184" lon="10.875586871291523"><ele>347.0</ele><time>2026-04-18T08:44:06.003Z</time></trkpt><trkpt lat="43.51936910711779" lon="10.87575173146121"><ele>349.0</ele><time>2026-04-18T08:44:06.999Z</time></trkpt><trkpt lat="43.519431108416796" lon="10.875893013097583"><ele>351.0</ele><time>2026-04-18T08:44:07.999Z</time></trkpt><trkpt lat="43.519530751965874" lon="10.876023210979604"><ele>353.0</ele><time>2026-04-18T08:44:08.999Z</time></trkpt><trkpt lat="43.519653834320636" lon="10.876117624633526"><ele>348.0</ele><time>2026-04-18T08:44:09.999Z</time></trkpt><trkpt lat="43.519756186498874" lon="10.876206749684114"><ele>343.0</ele><time>2026-04-18T08:44:10.999Z</time></trkpt><trkpt lat="43.51982468007163" lon="10.876329091717807"><ele>338.0</ele><time>2026-04-18T08:44:11.999Z</time></trkpt><trkpt lat="43.51985659085197" lon="10.876495812396634"><ele>333.0</ele><time>2026-04-18T08:44:12.999Z</time></trkpt><trkpt lat="43.51987453354446" lon="10.876688048406745"><ele>336.0</ele><time>2026-04-18T08:44:13.999Z</time></trkpt><trkpt lat="43.51990624467297" lon="10.876901341108853"><ele>339.0</ele><time>2026-04-18T08:44:14.999Z</time></trkpt><trkpt lat="43.51993173723844" lon="10.87712656372685"><ele>342.0</ele><time>2026-04-18T08:44:15.999Z</time></trkpt><trkpt lat="43.51995757878998" lon="10.877338317979993"><ele>342.0</ele><time>2026-04-18T08:44:16.999Z</time></trkpt><trkpt lat="43.519990472064976" lon="10.877537899255456"><ele>342.0</ele><time>2026-04-18T08:44:17.999Z</time></trkpt><trkpt lat="43.520026738748136" lon="10.877720511768327"><ele>342.0</ele><time>2026-04-18T08:44:18.999Z</time></trkpt><trkpt lat="43.52006715266034" lon="10.877885766949293"><ele>342.0</ele><time>2026-04-18T08:44:19.999Z</time></trkpt><trkpt lat="43.52010752701382" lon="10.878032775345687"><ele>343.0</ele><time>2026-04-18T08:44:20.999Z</time></trkpt><trkpt lat="43.52014548081353" lon="10.878168590346009"><ele>344.0</ele><time>2026-04-18T08:44:21.999Z</time></trkpt><trkpt lat="43.520181475676225" lon="10.878290862817506"><ele>345.0</ele><time>2026-04-18T08:44:22.999Z</time></trkpt><trkpt lat="43.5202051690799" lon="10.878396753348254"><ele>346.0</ele><time>2026-04-18T08:44:23.999Z</time></trkpt><trkpt lat="43.520230114029644" lon="10.878505641235103"><ele>347.0</ele><time>2026-04-18T08:44:24.999Z</time></trkpt><trkpt lat="43.520243046168666" lon="10.878647054716936"><ele>344.25</ele><time>2026-04-18T08:44:26Z</time></trkpt><trkpt lat="43.520238595825774" lon="10.878795461820703"><ele>341.5</ele><time>2026-04-18T08:44:27Z</time></trkpt><trkpt lat="43.520169772507835" lon="10.878930821077963"><ele>338.75</ele><time>2026-04-18T08:44:28Z</time></trkpt><trkpt lat="43.52009219002141" lon="10.879043404950547"><ele>336.0</ele><time>2026-04-18T08:44:29Z</time></trkpt><trkpt lat="43.520001247417106" lon="10.879141250879048"><ele>336.0</ele><time>2026-04-18T08:44:30Z</time></trkpt><trkpt lat="43.519905953519746" lon="10.87919641293981"><ele>336.0</ele><time>2026-04-18T08:44:31Z</time></trkpt><trkpt lat="43.51980821211815" lon="10.879212472939471"><ele>336.0</ele><time>2026-04-18T08:44:32Z</time></trkpt><trkpt lat="43.51970861854825" lon="10.879173345961783"><ele>336.0</ele><time>2026-04-18T08:44:33Z</time></trkpt><trkpt lat="43.51957667995365" lon="10.879142133008761"><ele>336.0</ele><time>2026-04-18T08:44:34Z</time></trkpt><trkpt lat="43.519438821864526" lon="10.87911484508132"><ele>337.75</ele><time>2026-04-18T08:44:35Z</time></trkpt><trkpt lat="43.5193171712944" lon="10.879098585990592"><ele>339.5</ele><time>2026-04-18T08:44:36Z</time></trkpt><trkpt lat="43.519202386048" lon="10.879101173321578"><ele>341.25</ele><time>2026-04-18T08:44:37Z</time></trkpt><trkpt lat="43.51909186700219" lon="10.879127486413058"><ele>343.0</ele><time>2026-04-18T08:44:38Z</time></trkpt><trkpt lat="43.5189927565559" lon="10.879241591854177"><ele>342.59999999999997</ele><time>2026-04-18T08:44:39Z</time></trkpt><trkpt lat="43.518938845592665" lon="10.879379752794899"><ele>342.2</ele><time>2026-04-18T08:44:40Z</time></trkpt><trkpt lat="43.51894256683583" lon="10.879539892929989"><ele>341.8</ele><time>2026-04-18T08:44:41Z</time></trkpt><trkpt lat="43.51901409480652" lon="10.879654522028435"><ele>341.4</ele><time>2026-04-18T08:44:42Z</time></trkpt><trkpt lat="43.51909857171024" lon="10.879721758442928"><ele>341.0</ele><time>2026-04-18T08:44:43Z</time></trkpt><trkpt lat="43.51919493614307" lon="10.879743389878872"><ele>341.0</ele><time>2026-04-18T08:44:44Z</time></trkpt><trkpt lat="43.5193151052683" lon="10.879754098210057"><ele>341.0</ele><time>2026-04-18T08:44:45Z</time></trkpt><trkpt lat="43.51943215276771" lon="10.87978881938671"><ele>341.0</ele><time>2026-04-18T08:44:46Z</time></trkpt><trkpt lat="43.51953072074772" lon="10.879891263460403"><ele>341.0</ele><time>2026-04-18T08:44:47Z</time></trkpt><trkpt lat="43.51960279257806" lon="10.879971224400183"><ele>339.33333333333337</ele><time>2026-04-18T08:44:48Z</time></trkpt><trkpt lat="43.51963464273328" lon="10.880091897288056"><ele>337.6666666666667</ele><time>2026-04-18T08:44:49Z</time></trkpt><trkpt lat="43.51963105650307" lon="10.880190992996585"><ele>336.0</ele><time>2026-04-18T08:44:50Z</time></trkpt><trkpt lat="43.51960678663599" lon="10.880290752127319"><ele>334.3333333333333</ele><time>2026-04-18T08:44:51Z</time></trkpt><trkpt lat="43.51958447560652" lon="10.880395346662"><ele>332.66666666666663</ele><time>2026-04-18T08:44:52Z</time></trkpt><trkpt lat="43.51956027133354" lon="10.88053180878811"><ele>331.0</ele><time>2026-04-18T08:44:53.001Z</time></trkpt><trkpt lat="43.5195475764011" lon="10.88068691033117"><ele>333.25</ele><time>2026-04-18T08:44:54.001Z</time></trkpt><trkpt lat="43.51955304410097" lon="10.880860785484419"><ele>335.5</ele><time>2026-04-18T08:44:55.001Z</time></trkpt><trkpt lat="43.519586859642466" lon="10.88102415957795"><ele>337.75</ele><time>2026-04-18T08:44:56.001Z</time></trkpt><trkpt lat="43.51957524756749" lon="10.881207807186009"><ele>340.0</ele><time>2026-04-18T08:44:57.001Z</time></trkpt><trkpt lat="43.519541398058465" lon="10.88140508921858"><ele>345.25</ele><time>2026-04-18T08:44:58.001Z</time></trkpt><trkpt lat="43.51950735927254" lon="10.881595179449555"><ele>350.5</ele><time>2026-04-18T08:44:59.001Z</time></trkpt><trkpt lat="43.519485183934016" lon="10.881799403423694"><ele>355.75</ele><time>2026-04-18T08:45:00.001Z</time></trkpt><trkpt lat="43.519486761371425" lon="10.882002268597619"><ele>361.0</ele><time>2026-04-18T08:45:01.001Z</time></trkpt><trkpt lat="43.519538109554176" lon="10.882189297886876"><ele>361.0</ele><time>2026-04-18T08:45:02.001Z</time></trkpt><trkpt lat="43.51960720891282" lon="10.882378661730995"><ele>361.0</ele><time>2026-04-18T08:45:03.001Z</time></trkpt><trkpt lat="43.519683573945024" lon="10.882558572828394"><ele>361.0</ele><time>2026-04-18T08:45:04.001Z</time></trkpt><trkpt lat="43.519759708568046" lon="10.882715425937247"><ele>361.0</ele><time>2026-04-18T08:45:05.001Z</time></trkpt><trkpt lat="43.519884435520844" lon="10.882812144270062"><ele>361.0</ele><time>2026-04-18T08:45:06.001Z</time></trkpt><trkpt lat="43.520002796342155" lon="10.882905409879335"><ele>361.0</ele><time>2026-04-18T08:45:07.001Z</time></trkpt><trkpt lat="43.52010783083123" lon="10.8829947424413"><ele>361.0</ele><time>2026-04-18T08:45:08.001Z</time></trkpt><trkpt lat="43.520212634436994" lon="10.883078174943696"><ele>361.0</ele><time>2026-04-18T08:45:09.001Z</time></trkpt><trkpt lat="43.52031644797651" lon="10.883135460129543"><ele>359.75</ele><time>2026-04-18T08:45:10.001Z</time></trkpt><trkpt lat="43.52043273668643" lon="10.883158394175721"><ele>358.5</ele><time>2026-04-18T08:45:11.001Z</time></trkpt><trkpt lat="43.520556285410926" lon="10.883131376827437"><ele>357.25</ele><time>2026-04-18T08:45:12.001Z</time></trkpt><trkpt lat="43.52068467900657" lon="10.883085608182304"><ele>356.0</ele><time>2026-04-18T08:45:13.001Z</time></trkpt><trkpt lat="43.52079165179766" lon="10.883066192586998"><ele>356.0</ele><time>2026-04-18T08:45:14.001Z</time></trkpt><trkpt lat="43.52090938830996" lon="10.883085850606367"><ele>356.0</ele><time>2026-04-18T08:45:15.001Z</time></trkpt><trkpt lat="43.52102820297534" lon="10.883177697870323"><ele>356.0</ele><time>2026-04-18T08:45:16.001Z</time></trkpt><trkpt lat="43.52114683033959" lon="10.88326228134795"><ele>356.0</ele><time>2026-04-18T08:45:17.001Z</time></trkpt><trkpt lat="43.52123582613191" lon="10.883369648058654"><ele>352.5</ele><time>2026-04-18T08:45:18.001Z</time></trkpt><trkpt lat="43.52129661598183" lon="10.883507929944658"><ele>349.0</ele><time>2026-04-18T08:45:19.001Z</time></trkpt><trkpt lat="43.52133618325711" lon="10.883665721183242"><ele>345.5</ele><time>2026-04-18T08:45:20.001Z</time></trkpt><trkpt lat="43.521348236066586" lon="10.8838235705965"><ele>342.0</ele><time>2026-04-18T08:45:21.001Z</time></trkpt><trkpt lat="43.521304892636145" lon="10.883949954557545"><ele>342.0</ele><time>2026-04-18T08:45:22.001Z</time></trkpt><trkpt lat="43.52124081679239" lon="10.884056933149054"><ele>342.0</ele><time>2026-04-18T08:45:23.001Z</time></trkpt><trkpt lat="43.521159431146614" lon="10.884202735133128"><ele>342.0</ele><time>2026-04-18T08:45:24.001Z</time></trkpt><trkpt lat="43.52109677691063" lon="10.88435431816031"><ele>342.0</ele><time>2026-04-18T08:45:25.001Z</time></trkpt><trkpt lat="43.52106302434216" lon="10.884520734776295"><ele>347.0</ele><time>2026-04-18T08:45:26.002Z</time></trkpt><trkpt lat="43.5211011674199" lon="10.884723243363425"><ele>352.0</ele><time>2026-04-18T08:45:27.002Z</time></trkpt><trkpt lat="43.521176481491864" lon="10.884926734875457"><ele>357.0</ele><time>2026-04-18T08:45:28.002Z</time></trkpt><trkpt lat="43.521234692218165" lon="10.885123876618014"><ele>357.0</ele><time>2026-04-18T08:45:29.002Z</time></trkpt><trkpt lat="43.52130580019043" lon="10.885318925654321"><ele>357.0</ele><time>2026-04-18T08:45:30.002Z</time></trkpt><trkpt lat="43.52139759454001" lon="10.885503992774328"><ele>357.0</ele><time>2026-04-18T08:45:31.002Z</time></trkpt><trkpt lat="43.52150080655981" lon="10.885685935439945"><ele>357.0</ele><time>2026-04-18T08:45:32.002Z</time></trkpt><trkpt lat="43.5216124302869" lon="10.885865158800316"><ele>357.0</ele><time>2026-04-18T08:45:33.002Z</time></trkpt><trkpt lat="43.52171065727159" lon="10.886045767874366"><ele>357.0</ele><time>2026-04-18T08:45:34.002Z</time></trkpt><trkpt lat="43.5217937465947" lon="10.88623709086645"><ele>361.3333333333333</ele><time>2026-04-18T08:45:35.002Z</time></trkpt><trkpt lat="43.52187147349239" lon="10.886442920134416"><ele>365.66666666666663</ele><time>2026-04-18T08:45:36.002Z</time></trkpt><trkpt lat="43.52194915804608" lon="10.886653606265725"><ele>370.0</ele><time>2026-04-18T08:45:37.002Z</time></trkpt><trkpt lat="43.52202708116405" lon="10.886866967172319"><ele>368.0</ele><time>2026-04-18T08:45:38.002Z</time></trkpt><trkpt lat="43.52210256149194" lon="10.887073639488944"><ele>366.0</ele><time>2026-04-18T08:45:39.002Z</time></trkpt><trkpt lat="43.52218116587851" lon="10.887279830088557"><ele>364.0</ele><time>2026-04-18T08:45:40.002Z</time></trkpt><trkpt lat="43.52225604867377" lon="10.887479662702498"><ele>366.0</ele><time>2026-04-18T08:45:41.002Z</time></trkpt><trkpt lat="43.52232125906208" lon="10.887668697614075"><ele>368.0</ele><time>2026-04-18T08:45:42.002Z</time></trkpt><trkpt lat="43.52237093418423" lon="10.887840310737948"><ele>370.0</ele><time>2026-04-18T08:45:43.002Z</time></trkpt><trkpt lat="43.52238816260462" lon="10.888000639267638"><ele>372.0</ele><time>2026-04-18T08:45:44.002Z</time></trkpt><trkpt lat="43.522373913013816" lon="10.88817271521877"><ele>372.0</ele><time>2026-04-18T08:45:45.002Z</time></trkpt><trkpt lat="43.52235575784825" lon="10.888370294044304"><ele>372.0</ele><time>2026-04-18T08:45:46.002Z</time></trkpt><trkpt lat="43.522335243477585" lon="10.888558977635144"><ele>372.0</ele><time>2026-04-18T08:45:47.002Z</time></trkpt><trkpt lat="43.522313865521504" lon="10.888755604183807"><ele>372.0</ele><time>2026-04-18T08:45:48.002Z</time></trkpt><trkpt lat="43.52229623352956" lon="10.888947998264227"><ele>374.0</ele><time>2026-04-18T08:45:49.002Z</time></trkpt><trkpt lat="43.52227940159535" lon="10.88913923855036"><ele>376.0</ele><time>2026-04-18T08:45:50.002Z</time></trkpt><trkpt lat="43.5222604836793" lon="10.889335801228816"><ele>378.0</ele><time>2026-04-18T08:45:51.002Z</time></trkpt><trkpt lat="43.52224076685591" lon="10.889531519621764"><ele>380.0</ele><time>2026-04-18T08:45:52.002Z</time></trkpt><trkpt lat="43.52223256696745" lon="10.889739355499973"><ele>382.6666666666667</ele><time>2026-04-18T08:45:53.002Z</time></trkpt><trkpt lat="43.52220092278538" lon="10.889941137046852"><ele>385.33333333333337</ele><time>2026-04-18T08:45:54.002Z</time></trkpt><trkpt lat="43.52218706617247" lon="10.890148311418825"><ele>388.0</ele><time>2026-04-18T08:45:55.002Z</time></trkpt><trkpt lat="43.52219080572599" lon="10.890364385037914"><ele>389.33333333333337</ele><time>2026-04-18T08:45:56.002Z</time></trkpt><trkpt lat="43.52222430041673" lon="10.890579153969801"><ele>390.66666666666663</ele><time>2026-04-18T08:45:57.002Z</time></trkpt><trkpt lat="43.522287197551755" lon="10.890800213173351"><ele>392.0</ele><time>2026-04-18T08:45:58.002Z</time></trkpt><trkpt lat="43.522353990149675" lon="10.891017114453568"><ele>393.3333333333333</ele><time>2026-04-18T08:45:59.002Z</time></trkpt><trkpt lat="43.52242359412026" lon="10.891227133208503"><ele>394.66666666666663</ele><time>2026-04-18T08:46:00.003Z</time></trkpt><trkpt lat="43.52248978504445" lon="10.89143002703681"><ele>396.0</ele><time>2026-04-18T08:46:01.003Z</time></trkpt><trkpt lat="43.52256125473159" lon="10.891629013376706"><ele>398.0</ele><time>2026-04-18T08:46:02.003Z</time></trkpt><trkpt lat="43.52262855012612" lon="10.891829581519675"><ele>400.0</ele><time>2026-04-18T08:46:03.003Z</time></trkpt><trkpt lat="43.52269601094836" lon="10.89203190102576"><ele>402.0</ele><time>2026-04-18T08:46:04.003Z</time></trkpt><trkpt lat="43.522761963466365" lon="10.892235815391448"><ele>402.0</ele><time>2026-04-18T08:46:05.003Z</time></trkpt><trkpt lat="43.52282897192401" lon="10.89244013461863"><ele>402.0</ele><time>2026-04-18T08:46:06.003Z</time></trkpt><trkpt lat="43.52289497618169" lon="10.892650994473895"><ele>402.0</ele><time>2026-04-18T08:46:07.003Z</time></trkpt><trkpt lat="43.5229614198401" lon="10.892864091433855"><ele>401.33333333333337</ele><time>2026-04-18T08:46:08.003Z</time></trkpt><trkpt lat="43.523029005297246" lon="10.893077440656462"><ele>400.6666666666667</ele><time>2026-04-18T08:46:09.003Z</time></trkpt><trkpt lat="43.52309618594914" lon="10.893288145703826"><ele>400.0</ele><time>2026-04-18T08:46:10.003Z</time></trkpt><trkpt lat="43.52314665448208" lon="10.893491562455411"><ele>402.0</ele><time>2026-04-18T08:46:11.003Z</time></trkpt><trkpt lat="43.52321448336936" lon="10.893670649794483"><ele>404.0</ele><time>2026-04-18T08:46:12.003Z</time></trkpt><trkpt lat="43.5232649144667" lon="10.893834247920143"><ele>406.0</ele><time>2026-04-18T08:46:13Z</time></trkpt><trkpt lat="43.523304734621206" lon="10.893969492006207"><ele>408.0</ele><time>2026-04-18T08:46:14Z</time></trkpt><trkpt lat="43.523336511912184" lon="10.894089108662934"><ele>408.0</ele><time>2026-04-18T08:46:15Z</time></trkpt><trkpt lat="43.52337282554768" lon="10.894194024573848"><ele>408.0</ele><time>2026-04-18T08:46:16Z</time></trkpt><trkpt lat="43.5234099529175" lon="10.894287288534013"><ele>408.0</ele><time>2026-04-18T08:46:17Z</time></trkpt><trkpt lat="43.52344888654133" lon="10.894386515646113"><ele>408.0</ele><time>2026-04-18T08:46:18Z</time></trkpt><trkpt lat="43.523490937623535" lon="10.894488687564605"><ele>408.0</ele><time>2026-04-18T08:46:19Z</time></trkpt><trkpt lat="43.5235352600738" lon="10.89459126810618"><ele>408.0</ele><time>2026-04-18T08:46:20Z</time></trkpt><trkpt lat="43.52357589210947" lon="10.894698787369013"><ele>407.79999999999995</ele><time>2026-04-18T08:46:21Z</time></trkpt><trkpt lat="43.52362747622325" lon="10.894801405184909"><ele>407.6</ele><time>2026-04-18T08:46:22Z</time></trkpt><trkpt lat="43.52367496252997" lon="10.894916694670314"><ele>407.4</ele><time>2026-04-18T08:46:23Z</time></trkpt><trkpt lat="43.52371178722398" lon="10.89506251162508"><ele>407.20000000000005</ele><time>2026-04-18T08:46:24Z</time></trkpt><trkpt lat="43.52375240821945" lon="10.895208653786048"><ele>407.0</ele><time>2026-04-18T08:46:25Z</time></trkpt><trkpt lat="43.52379228915145" lon="10.89536413150737"><ele>407.0</ele><time>2026-04-18T08:46:26Z</time></trkpt><trkpt lat="43.52382855434587" lon="10.895525021854159"><ele>407.0</ele><time>2026-04-18T08:46:27Z</time></trkpt><trkpt lat="43.52386763303468" lon="10.895697818942937"><ele>407.0</ele><time>2026-04-18T08:46:28Z</time></trkpt><trkpt lat="43.52390842041586" lon="10.895871641774333"><ele>407.0</ele><time>2026-04-18T08:46:29Z</time></trkpt><trkpt lat="43.52395402886665" lon="10.896066010510282"><ele>408.66666666666663</ele><time>2026-04-18T08:46:30Z</time></trkpt><trkpt lat="43.524001561306164" lon="10.896269674471297"><ele>410.33333333333337</ele><time>2026-04-18T08:46:31Z</time></trkpt><trkpt lat="43.52405172282824" lon="10.896486695865795"><ele>412.0</ele><time>2026-04-18T08:46:32Z</time></trkpt><trkpt lat="43.52410424320829" lon="10.896713922729976"><ele>412.33333333333337</ele><time>2026-04-18T08:46:33Z</time></trkpt><trkpt lat="43.5241607602633" lon="10.896942229938636"><ele>412.66666666666663</ele><time>2026-04-18T08:46:34Z</time></trkpt><trkpt lat="43.524216031541194" lon="10.8971519889677"><ele>413.0</ele><time>2026-04-18T08:46:35Z</time></trkpt><trkpt lat="43.52426563802556" lon="10.897342886088238"><ele>413.0</ele><time>2026-04-18T08:46:36Z</time></trkpt><trkpt lat="43.52430522638885" lon="10.897518977477146"><ele>413.0</ele><time>2026-04-18T08:46:37Z</time></trkpt><trkpt lat="43.524333653501955" lon="10.897673622377132"><ele>413.0</ele><time>2026-04-18T08:46:38Z</time></trkpt><trkpt lat="43.524362459374466" lon="10.897812766195017"><ele>413.0</ele><time>2026-04-18T08:46:39Z</time></trkpt><trkpt lat="43.524388594633244" lon="10.897919924123833"><ele>413.0</ele><time>2026-04-18T08:46:40Z</time></trkpt><trkpt lat="43.52439815454891" lon="10.898013130340452"><ele>414.0</ele><time>2026-04-18T08:46:41Z</time></trkpt><trkpt lat="43.524383452354996" lon="10.898159553633821"><ele>415.0</ele><time>2026-04-18T08:46:43Z</time></trkpt><trkpt lat="43.52434295564445" lon="10.898229349743575"><ele>416.0</ele><time>2026-04-18T08:46:44Z</time></trkpt><trkpt lat="43.524283756283765" lon="10.898307593592067"><ele>417.0</ele><time>2026-04-18T08:46:45Z</time></trkpt><trkpt lat="43.524203806298374" lon="10.898397451795628"><ele>418.0</ele><time>2026-04-18T08:46:46Z</time></trkpt><trkpt lat="43.52410847719869" lon="10.898501022942822"><ele>420.5</ele><time>2026-04-18T08:46:47.001Z</time></trkpt><trkpt lat="43.52401536744409" lon="10.898613803545569"><ele>423.0</ele><time>2026-04-18T08:46:48.001Z</time></trkpt><trkpt lat="43.52391178928534" lon="10.898732252834185"><ele>425.5</ele><time>2026-04-18T08:46:49.001Z</time></trkpt><trkpt lat="43.523798169096494" lon="10.898860663125749"><ele>428.0</ele><time>2026-04-18T08:46:50.001Z</time></trkpt><trkpt lat="43.523687104405525" lon="10.898989788896323"><ele>427.3333333333333</ele><time>2026-04-18T08:46:51.001Z</time></trkpt><trkpt lat="43.52355996594928" lon="10.899106060984236"><ele>426.66666666666663</ele><time>2026-04-18T08:46:52.001Z</time></trkpt><trkpt lat="43.52343464836046" lon="10.899228838269538"><ele>426.0</ele><time>2026-04-18T08:46:53.001Z</time></trkpt><trkpt lat="43.52329615429655" lon="10.899342808306"><ele>426.0</ele><time>2026-04-18T08:46:54.001Z</time></trkpt><trkpt lat="43.52315347540791" lon="10.89945367705415"><ele>426.0</ele><time>2026-04-18T08:46:55.001Z</time></trkpt><trkpt lat="43.523003695971916" lon="10.899542527391796"><ele>426.0</ele><time>2026-04-18T08:46:56.001Z</time></trkpt><trkpt lat="43.52284392379519" lon="10.899622091902152"><ele>426.66666666666663</ele><time>2026-04-18T08:46:57.001Z</time></trkpt><trkpt lat="43.522693481055605" lon="10.899690747171263"><ele>427.3333333333333</ele><time>2026-04-18T08:46:58.001Z</time></trkpt><trkpt lat="43.52254080964131" lon="10.899758470361535"><ele>428.0</ele><time>2026-04-18T08:46:59.001Z</time></trkpt><trkpt lat="43.52238969220726" lon="10.899820345189125"><ele>428.0</ele><time>2026-04-18T08:47:00.001Z</time></trkpt><trkpt lat="43.52224805747588" lon="10.899877920503737"><ele>428.0</ele><time>2026-04-18T08:47:01.001Z</time></trkpt><trkpt lat="43.52210732009405" lon="10.899944246928294"><ele>428.0</ele><time>2026-04-18T08:47:02.001Z</time></trkpt><trkpt lat="43.521975606897996" lon="10.90003565823411"><ele>428.0</ele><time>2026-04-18T08:47:03.001Z</time></trkpt><trkpt lat="43.521829201043495" lon="10.900127082402596"><ele>429.66666666666663</ele><time>2026-04-18T08:47:04.001Z</time></trkpt><trkpt lat="43.5216834562786" lon="10.900249644183358"><ele>431.33333333333337</ele><time>2026-04-18T08:47:05.001Z</time></trkpt><trkpt lat="43.52154823318708" lon="10.90040081077133"><ele>433.0</ele><time>2026-04-18T08:47:06.001Z</time></trkpt><trkpt lat="43.52141160070327" lon="10.900557589998057"><ele>433.0</ele><time>2026-04-18T08:47:07.001Z</time></trkpt><trkpt lat="43.521265055402665" lon="10.900697114997007"><ele>433.0</ele><time>2026-04-18T08:47:08.001Z</time></trkpt><trkpt lat="43.52112895760693" lon="10.90084980852527"><ele>433.0</ele><time>2026-04-18T08:47:09.001Z</time></trkpt><trkpt lat="43.520998092543905" lon="10.90102125061071"><ele>435.0</ele><time>2026-04-18T08:47:10.001Z</time></trkpt><trkpt lat="43.520852523029426" lon="10.90117372027647"><ele>437.0</ele><time>2026-04-18T08:47:11.001Z</time></trkpt><trkpt lat="43.5207078714574" lon="10.901327240322656"><ele>439.0</ele><time>2026-04-18T08:47:12.001Z</time></trkpt><trkpt lat="43.52056108556997" lon="10.90148597698767"><ele>439.0</ele><time>2026-04-18T08:47:13.001Z</time></trkpt><trkpt lat="43.520411053418144" lon="10.901646051133422"><ele>439.0</ele><time>2026-04-18T08:47:14.001Z</time></trkpt><trkpt lat="43.5202599077977" lon="10.901809725689537"><ele>439.0</ele><time>2026-04-18T08:47:15.001Z</time></trkpt><trkpt lat="43.520115675362646" lon="10.901984690773157"><ele>438.0</ele><time>2026-04-18T08:47:16.001Z</time></trkpt><trkpt lat="43.519963747418714" lon="10.902146446395765"><ele>437.0</ele><time>2026-04-18T08:47:17.001Z</time></trkpt><trkpt lat="43.51980471750419" lon="10.902295108236071"><ele>436.0</ele><time>2026-04-18T08:47:18.001Z</time></trkpt><trkpt lat="43.51964242697564" lon="10.902424973066285"><ele>437.6666666666667</ele><time>2026-04-18T08:47:19.002Z</time></trkpt><trkpt lat="43.51947565293195" lon="10.90253130194152"><ele>439.33333333333337</ele><time>2026-04-18T08:47:20.002Z</time></trkpt><trkpt lat="43.51929988371016" lon="10.902608843024407"><ele>441.0</ele><time>2026-04-18T08:47:21.002Z</time></trkpt><trkpt lat="43.51911339829529" lon="10.902662703793366"><ele>441.0</ele><time>2026-04-18T08:47:22.002Z</time></trkpt><trkpt lat="43.51890940023513" lon="10.902669601947803"><ele>441.0</ele><time>2026-04-18T08:47:23.002Z</time></trkpt><trkpt lat="43.51870739362717" lon="10.902682715568803"><ele>441.0</ele><time>2026-04-18T08:47:24.002Z</time></trkpt><trkpt lat="43.51850446949116" lon="10.902710145022157"><ele>441.0</ele><time>2026-04-18T08:47:25.002Z</time></trkpt><trkpt lat="43.51829960900726" lon="10.902716424263764"><ele>441.0</ele><time>2026-04-18T08:47:26.002Z</time></trkpt><trkpt lat="43.51811296399456" lon="10.902722787575865"><ele>441.0</ele><time>2026-04-18T08:47:27.002Z</time></trkpt><trkpt lat="43.517927873682005" lon="10.902728983363309"><ele>444.0</ele><time>2026-04-18T08:47:28.002Z</time></trkpt><trkpt lat="43.51775283301845" lon="10.902728971051129"><ele>447.0</ele><time>2026-04-18T08:47:29.002Z</time></trkpt><trkpt lat="43.517584529598345" lon="10.902717184361888"><ele>450.0</ele><time>2026-04-18T08:47:30.002Z</time></trkpt><trkpt lat="43.51741983150383" lon="10.902674943580273"><ele>450.0</ele><time>2026-04-18T08:47:31.002Z</time></trkpt><trkpt lat="43.517260588677985" lon="10.902593290527232"><ele>450.0</ele><time>2026-04-18T08:47:32.002Z</time></trkpt><trkpt lat="43.517112387140024" lon="10.902469826120148"><ele>450.0</ele><time>2026-04-18T08:47:33.002Z</time></trkpt><trkpt lat="43.51697451316538" lon="10.902321272824027"><ele>453.66666666666663</ele><time>2026-04-18T08:47:34.002Z</time></trkpt><trkpt lat="43.5168438453714" lon="10.902157066030771"><ele>457.3333333333333</ele><time>2026-04-18T08:47:35.002Z</time></trkpt><trkpt lat="43.51671820502845" lon="10.901985921843265"><ele>461.0</ele><time>2026-04-18T08:47:36.002Z</time></trkpt><trkpt lat="43.51658803756425" lon="10.901816221993606"><ele>460.66666666666663</ele><time>2026-04-18T08:47:37.002Z</time></trkpt><trkpt lat="43.51645001565719" lon="10.901654620678558"><ele>460.33333333333337</ele><time>2026-04-18T08:47:38.002Z</time></trkpt><trkpt lat="43.51630753248846" lon="10.901507507222377"><ele>460.0</ele><time>2026-04-18T08:47:39.002Z</time></trkpt><trkpt lat="43.51615208975468" lon="10.901388878348858"><ele>461.33333333333337</ele><time>2026-04-18T08:47:40.002Z</time></trkpt><trkpt lat="43.51599610397852" lon="10.901276541391686"><ele>462.66666666666663</ele><time>2026-04-18T08:47:41.002Z</time></trkpt><trkpt lat="43.51583430327031" lon="10.901173805917665"><ele>464.0</ele><time>2026-04-18T08:47:42.002Z</time></trkpt><trkpt lat="43.515680765003594" lon="10.901042884243049"><ele>464.0</ele><time>2026-04-18T08:47:43.002Z</time></trkpt><trkpt lat="43.51551778117698" lon="10.900933756869344"><ele>464.0</ele><time>2026-04-18T08:47:44.002Z</time></trkpt><trkpt lat="43.5153524964453" lon="10.900828806755332"><ele>464.0</ele><time>2026-04-18T08:47:45.002Z</time></trkpt><trkpt lat="43.51518754549992" lon="10.90072459565668"><ele>467.0</ele><time>2026-04-18T08:47:46.002Z</time></trkpt><trkpt lat="43.515022927609365" lon="10.900620967035046"><ele>470.0</ele><time>2026-04-18T08:47:47.002Z</time></trkpt><trkpt lat="43.514862923530465" lon="10.90052024285002"><ele>473.0</ele><time>2026-04-18T08:47:48.002Z</time></trkpt><trkpt lat="43.5147087829503" lon="10.900423209799966"><ele>471.0</ele><time>2026-04-18T08:47:49.002Z</time></trkpt><trkpt lat="43.51455132588592" lon="10.900343365712649"><ele>469.0</ele><time>2026-04-18T08:47:50.002Z</time></trkpt><trkpt lat="43.51441609636723" lon="10.900216809730425"><ele>467.0</ele><time>2026-04-18T08:47:51.002Z</time></trkpt><trkpt lat="43.51428372419947" lon="10.90009555832278"><ele>470.66666666666663</ele><time>2026-04-18T08:47:52.003Z</time></trkpt><trkpt lat="43.51415826504203" lon="10.899964080369552"><ele>474.33333333333337</ele><time>2026-04-18T08:47:53.003Z</time></trkpt><trkpt lat="43.514033427915685" lon="10.899833356061666"><ele>478.0</ele><time>2026-04-18T08:47:54.003Z</time></trkpt><trkpt lat="43.513912003707496" lon="10.899704033289314"><ele>478.0</ele><time>2026-04-18T08:47:55.003Z</time></trkpt><trkpt lat="43.51380288401399" lon="10.89958770179408"><ele>478.0</ele><time>2026-04-18T08:47:56.003Z</time></trkpt><trkpt lat="43.513700770058016" lon="10.899480887821936"><ele>478.0</ele><time>2026-04-18T08:47:57.003Z</time></trkpt><trkpt lat="43.513594536131926" lon="10.899372167088657"><ele>478.0</ele><time>2026-04-18T08:47:58.003Z</time></trkpt><trkpt lat="43.51348510546737" lon="10.899264648520022"><ele>479.25</ele><time>2026-04-18T08:47:59.003Z</time></trkpt><trkpt lat="43.5133741226018" lon="10.8991643469357"><ele>480.5</ele><time>2026-04-18T08:48:00.003Z</time></trkpt><trkpt lat="43.513256952858065" lon="10.899077884221917"><ele>481.75</ele><time>2026-04-18T08:48:01.003Z</time></trkpt><trkpt lat="43.513142153517094" lon="10.899008138172182"><ele>483.0</ele><time>2026-04-18T08:48:02.003Z</time></trkpt><trkpt lat="43.51301418330058" lon="10.898957860297779"><ele>481.75</ele><time>2026-04-18T08:48:03.003Z</time></trkpt><trkpt lat="43.51288112095972" lon="10.898924539219005"><ele>480.5</ele><time>2026-04-18T08:48:04.003Z</time></trkpt><trkpt lat="43.512745116942824" lon="10.898912193641616"><ele>479.25</ele><time>2026-04-18T08:48:05.003Z</time></trkpt><trkpt lat="43.51261640760457" lon="10.898925585486893"><ele>478.0</ele><time>2026-04-18T08:48:06.003Z</time></trkpt><trkpt lat="43.512508110866335" lon="10.898974231230357"><ele>478.0</ele><time>2026-04-18T08:48:07.003Z</time></trkpt><trkpt lat="43.51240026894023" lon="10.89901580285968"><ele>478.0</ele><time>2026-04-18T08:48:08.003Z</time></trkpt><trkpt lat="43.51228071396176" lon="10.89907769253544"><ele>478.0</ele><time>2026-04-18T08:48:09.003Z</time></trkpt><trkpt lat="43.51216268438657" lon="10.899169580467014"><ele>478.0</ele><time>2026-04-18T08:48:10.003Z</time></trkpt><trkpt lat="43.51204980672488" lon="10.899294290210818"><ele>480.33333333333337</ele><time>2026-04-18T08:48:11.003Z</time></trkpt><trkpt lat="43.511944587140455" lon="10.899436072652588"><ele>482.66666666666663</ele><time>2026-04-18T08:48:12.003Z</time></trkpt><trkpt lat="43.51185897205017" lon="10.899607969080018"><ele>485.0</ele><time>2026-04-18T08:48:13.003Z</time></trkpt><trkpt lat="43.511796844943596" lon="10.89981352500619"><ele>485.0</ele><time>2026-04-18T08:48:14.003Z</time></trkpt><trkpt lat="43.51175795976192" lon="10.900031342348342"><ele>485.0</ele><time>2026-04-18T08:48:15.003Z</time></trkpt><trkpt lat="43.51174230041941" lon="10.900253324784067"><ele>485.0</ele><time>2026-04-18T08:48:16.003Z</time></trkpt><trkpt lat="43.5117410881028" lon="10.90046960673649"><ele>484.66666666666663</ele><time>2026-04-18T08:48:17.003Z</time></trkpt><trkpt lat="43.51175458653227" lon="10.900683993717495"><ele>484.33333333333337</ele><time>2026-04-18T08:48:18.003Z</time></trkpt><trkpt lat="43.51179025231618" lon="10.900898997472927"><ele>484.0</ele><time>2026-04-18T08:48:19.001Z</time></trkpt><trkpt lat="43.51183841057524" lon="10.901113960502137"><ele>484.0</ele><time>2026-04-18T08:48:20.001Z</time></trkpt><trkpt lat="43.51189840076992" lon="10.901333095658275"><ele>484.0</ele><time>2026-04-18T08:48:21.001Z</time></trkpt><trkpt lat="43.511961849771595" lon="10.901539446327169"><ele>484.0</ele><time>2026-04-18T08:48:22.001Z</time></trkpt><trkpt lat="43.512027751072544" lon="10.90172901080142"><ele>483.6666666666667</ele><time>2026-04-18T08:48:23.001Z</time></trkpt><trkpt lat="43.512090703232246" lon="10.901919325649898"><ele>483.33333333333337</ele><time>2026-04-18T08:48:24.001Z</time></trkpt><trkpt lat="43.51214502865335" lon="10.902117039509182"><ele>483.0</ele><time>2026-04-18T08:48:25.001Z</time></trkpt><trkpt lat="43.51218662440586" lon="10.902319247062112"><ele>483.0</ele><time>2026-04-18T08:48:26.001Z</time></trkpt><trkpt lat="43.51220994841692" lon="10.902534025005698"><ele>483.0</ele><time>2026-04-18T08:48:27.001Z</time></trkpt><trkpt lat="43.512221001023015" lon="10.902764520023956"><ele>483.0</ele><time>2026-04-18T08:48:28.001Z</time></trkpt><trkpt lat="43.512190566152555" lon="10.9030006800582"><ele>483.33333333333337</ele><time>2026-04-18T08:48:29.001Z</time></trkpt><trkpt lat="43.51218295084432" lon="10.903248643937152"><ele>483.6666666666667</ele><time>2026-04-18T08:48:30.001Z</time></trkpt><trkpt lat="43.5121641659883" lon="10.903487956592791"><ele>484.0</ele><time>2026-04-18T08:48:31.001Z</time></trkpt><trkpt lat="43.51214877946971" lon="10.903707803617653"><ele>484.25</ele><time>2026-04-18T08:48:32.001Z</time></trkpt><trkpt lat="43.512129294837905" lon="10.90391579170152"><ele>484.5</ele><time>2026-04-18T08:48:33.001Z</time></trkpt><trkpt lat="43.512094270626385" lon="10.904113328937338"><ele>484.75</ele><time>2026-04-18T08:48:34.001Z</time></trkpt><trkpt lat="43.51203591698614" lon="10.904298946027282"><ele>485.0</ele><time>2026-04-18T08:48:35.001Z</time></trkpt><trkpt lat="43.511948491298256" lon="10.90446209571628"><ele>486.66666666666663</ele><time>2026-04-18T08:48:36.001Z</time></trkpt><trkpt lat="43.51184367273645" lon="10.904608349302613"><ele>488.33333333333337</ele><time>2026-04-18T08:48:37.001Z</time></trkpt><trkpt lat="43.511713015707734" lon="10.90472095399032"><ele>490.0</ele><time>2026-04-18T08:48:38.001Z</time></trkpt><trkpt lat="43.51155867368838" lon="10.904795001734898"><ele>490.0</ele><time>2026-04-18T08:48:39.001Z</time></trkpt><trkpt lat="43.511402568501126" lon="10.904855054125328"><ele>490.0</ele><time>2026-04-18T08:48:40.001Z</time></trkpt><trkpt lat="43.511251384184426" lon="10.904911399431843"><ele>490.0</ele><time>2026-04-18T08:48:41.001Z</time></trkpt><trkpt lat="43.51110259570111" lon="10.904966735070818"><ele>489.33333333333337</ele><time>2026-04-18T08:48:42.001Z</time></trkpt><trkpt lat="43.51095492148287" lon="10.905016458042429"><ele>488.66666666666663</ele><time>2026-04-18T08:48:43.001Z</time></trkpt><trkpt lat="43.51080691978306" lon="10.905067754001836"><ele>488.0</ele><time>2026-04-18T08:48:44.001Z</time></trkpt><trkpt lat="43.51065581229218" lon="10.905125920649992"><ele>487.0</ele><time>2026-04-18T08:48:45.001Z</time></trkpt><trkpt lat="43.510502037339776" lon="10.905183249671511"><ele>486.0</ele><time>2026-04-18T08:48:46.001Z</time></trkpt><trkpt lat="43.5103406622961" lon="10.90521684280543"><ele>485.0</ele><time>2026-04-18T08:48:47.001Z</time></trkpt><trkpt lat="43.510182058689786" lon="10.905273057851034"><ele>487.0</ele><time>2026-04-18T08:48:48.001Z</time></trkpt><trkpt lat="43.51002147591345" lon="10.905330239199388"><ele>489.0</ele><time>2026-04-18T08:48:49.001Z</time></trkpt><trkpt lat="43.50985843108926" lon="10.905388297239545"><ele>491.0</ele><time>2026-04-18T08:48:50.001Z</time></trkpt><trkpt lat="43.50969145258736" lon="10.905447756004211"><ele>493.66666666666663</ele><time>2026-04-18T08:48:51.001Z</time></trkpt><trkpt lat="43.50952403433576" lon="10.905528554853788"><ele>496.33333333333337</ele><time>2026-04-18T08:48:52.001Z</time></trkpt><trkpt lat="43.509349857754664" lon="10.905592439225156"><ele>499.0</ele><time>2026-04-18T08:48:53.001Z</time></trkpt><trkpt lat="43.509171842177025" lon="10.905632782213015"><ele>499.0</ele><time>2026-04-18T08:48:54.001Z</time></trkpt><trkpt lat="43.50900324498293" lon="10.90571033378032"><ele>499.0</ele><time>2026-04-18T08:48:55.001Z</time></trkpt><trkpt lat="43.50883134690332" lon="10.905766686079842"><ele>499.0</ele><time>2026-04-18T08:48:56.001Z</time></trkpt><trkpt lat="43.50865825263551" lon="10.905829323290053"><ele>501.0</ele><time>2026-04-18T08:48:57.001Z</time></trkpt><trkpt lat="43.50848435255179" lon="10.905891263962129"><ele>503.0</ele><time>2026-04-18T08:48:58.001Z</time></trkpt><trkpt lat="43.5083118937549" lon="10.905957889247361"><ele>505.0</ele><time>2026-04-18T08:48:59.001Z</time></trkpt><trkpt lat="43.50814358939191" lon="10.906022222015437"><ele>505.6666666666667</ele><time>2026-04-18T08:49:00.001Z</time></trkpt><trkpt lat="43.50797932229855" lon="10.906078173068035"><ele>506.33333333333337</ele><time>2026-04-18T08:49:01.001Z</time></trkpt><trkpt lat="43.50782088160216" lon="10.906134062620021"><ele>507.0</ele><time>2026-04-18T08:49:02.001Z</time></trkpt><trkpt lat="43.50766211889626" lon="10.906213883191729"><ele>508.0</ele><time>2026-04-18T08:49:03.001Z</time></trkpt><trkpt lat="43.50751764454368" lon="10.906332299750789"><ele>509.0</ele><time>2026-04-18T08:49:04.001Z</time></trkpt><trkpt lat="43.50736880166205" lon="10.906443999486447"><ele>510.0</ele><time>2026-04-18T08:49:05.001Z</time></trkpt><trkpt lat="43.5072383295527" lon="10.906591157218902"><ele>510.0</ele><time>2026-04-18T08:49:06.001Z</time></trkpt><trkpt lat="43.50711275255333" lon="10.906733436033289"><ele>510.0</ele><time>2026-04-18T08:49:07.001Z</time></trkpt><trkpt lat="43.50699636454421" lon="10.906894298769531"><ele>510.0</ele><time>2026-04-18T08:49:08.001Z</time></trkpt><trkpt lat="43.50686853387115" lon="10.907032797569265"><ele>513.3333333333334</ele><time>2026-04-18T08:49:09.001Z</time></trkpt><trkpt lat="43.50673569904798" lon="10.907157157852119"><ele>516.6666666666667</ele><time>2026-04-18T08:49:10.001Z</time></trkpt><trkpt lat="43.50661183278498" lon="10.907295427625082"><ele>520.0</ele><time>2026-04-18T08:49:11.001Z</time></trkpt><trkpt lat="43.5064901649375" lon="10.90743124335089"><ele>520.0</ele><time>2026-04-18T08:49:12.001Z</time></trkpt><trkpt lat="43.50636723306601" lon="10.907568469997011"><ele>520.0</ele><time>2026-04-18T08:49:13.002Z</time></trkpt><trkpt lat="43.50624728959296" lon="10.907702128621898"><ele>520.0</ele><time>2026-04-18T08:49:14.002Z</time></trkpt><trkpt lat="43.5061246709104" lon="10.907834941487838"><ele>521.3333333333334</ele><time>2026-04-18T08:49:15.002Z</time></trkpt><trkpt lat="43.505995197460244" lon="10.907951240299303"><ele>522.6666666666666</ele><time>2026-04-18T08:49:16.002Z</time></trkpt><trkpt lat="43.5058595226083" lon="10.90804484200955"><ele>524.0</ele><time>2026-04-18T08:49:17.002Z</time></trkpt><trkpt lat="43.50572032663862" lon="10.908133656898192"><ele>524.0</ele><time>2026-04-18T08:49:18.002Z</time></trkpt><trkpt lat="43.50558444143977" lon="10.90816847016014"><ele>524.0</ele><time>2026-04-18T08:49:19.002Z</time></trkpt><trkpt lat="43.50543377587514" lon="10.908186044062886"><ele>524.0</ele><time>2026-04-18T08:49:20.002Z</time></trkpt><trkpt lat="43.505277808472876" lon="10.908158476890826"><ele>524.0</ele><time>2026-04-18T08:49:21.002Z</time></trkpt><trkpt lat="43.50512097378822" lon="10.908137717929677"><ele>525.3333333333333</ele><time>2026-04-18T08:49:22.002Z</time></trkpt><trkpt lat="43.50495874511601" lon="10.90813074886703"><ele>526.6666666666666</ele><time>2026-04-18T08:49:23.002Z</time></trkpt><trkpt lat="43.504797974020434" lon="10.908101865392629"><ele>528.0</ele><time>2026-04-18T08:49:24.002Z</time></trkpt><trkpt lat="43.50463724660379" lon="10.908077244022692"><ele>530.0</ele><time>2026-04-18T08:49:25.002Z</time></trkpt><trkpt lat="43.5044715745344" lon="10.908055503699545"><ele>532.0</ele><time>2026-04-18T08:49:26.002Z</time></trkpt><trkpt lat="43.50430628752" lon="10.908035126785977"><ele>534.0</ele><time>2026-04-18T08:49:27.002Z</time></trkpt><trkpt lat="43.50414806981185" lon="10.907988889619245"><ele>534.0</ele><time>2026-04-18T08:49:28.002Z</time></trkpt><trkpt lat="43.503991826494016" lon="10.907965561932134"><ele>534.0</ele><time>2026-04-18T08:49:29.002Z</time></trkpt><trkpt lat="43.50383766590907" lon="10.907942745473166"><ele>534.0</ele><time>2026-04-18T08:49:30.002Z</time></trkpt><trkpt lat="43.503683345641726" lon="10.907938838286892"><ele>534.6666666666666</ele><time>2026-04-18T08:49:31.002Z</time></trkpt><trkpt lat="43.503530065437666" lon="10.907897263697809"><ele>535.3333333333333</ele><time>2026-04-18T08:49:32.002Z</time></trkpt><trkpt lat="43.50337386649559" lon="10.907874169918832"><ele>536.0</ele><time>2026-04-18T08:49:33.002Z</time></trkpt><trkpt lat="43.503225015484595" lon="10.90785178312553"><ele>536.0</ele><time>2026-04-18T08:49:34.002Z</time></trkpt><trkpt lat="43.5030825780305" lon="10.90785318561647"><ele>536.0</ele><time>2026-04-18T08:49:35.002Z</time></trkpt><trkpt lat="43.50294468856275" lon="10.907830096366393"><ele>536.0</ele><time>2026-04-18T08:49:36.002Z</time></trkpt><trkpt lat="43.502812287649654" lon="10.907809293714514"><ele>536.0</ele><time>2026-04-18T08:49:37.002Z</time></trkpt><trkpt lat="43.50268569440998" lon="10.907786970592802"><ele>535.5</ele><time>2026-04-18T08:49:38.002Z</time></trkpt><trkpt lat="43.502564766617894" lon="10.907762171986965"><ele>535.0</ele><time>2026-04-18T08:49:39.002Z</time></trkpt><trkpt lat="43.50244165225298" lon="10.907742625226119"><ele>534.5</ele><time>2026-04-18T08:49:40.002Z</time></trkpt><trkpt lat="43.502316910448855" lon="10.90772746557436"><ele>534.0</ele><time>2026-04-18T08:49:41.002Z</time></trkpt><trkpt lat="43.50219864981026" lon="10.907708832129863"><ele>534.0</ele><time>2026-04-18T08:49:42.002Z</time></trkpt><trkpt lat="43.502082298219925" lon="10.907685147653575"><ele>534.0</ele><time>2026-04-18T08:49:43.002Z</time></trkpt><trkpt lat="43.50196408314561" lon="10.907667356753658"><ele>534.0</ele><time>2026-04-18T08:49:44.002Z</time></trkpt><trkpt lat="43.50184308542407" lon="10.907674839845608"><ele>534.0</ele><time>2026-04-18T08:49:45.002Z</time></trkpt><trkpt lat="43.50171791672871" lon="10.90771352257928"><ele>534.75</ele><time>2026-04-18T08:49:46.002Z</time></trkpt><trkpt lat="43.50158657744728" lon="10.907753280715848"><ele>535.5</ele><time>2026-04-18T08:49:47.002Z</time></trkpt><trkpt lat="43.50145990373089" lon="10.907843630484182"><ele>536.25</ele><time>2026-04-18T08:49:48.002Z</time></trkpt><trkpt lat="43.501341389737654" lon="10.907966335249913"><ele>537.0</ele><time>2026-04-18T08:49:49.003Z</time></trkpt><trkpt lat="43.50123694368343" lon="10.90812114574167"><ele>538.6666666666666</ele><time>2026-04-18T08:49:50.003Z</time></trkpt><trkpt lat="43.501139176687886" lon="10.908294712355946"><ele>540.3333333333333</ele><time>2026-04-18T08:49:51.003Z</time></trkpt><trkpt lat="43.50104568815419" lon="10.908469399090794"><ele>542.0</ele><time>2026-04-18T08:49:52.003Z</time></trkpt><trkpt lat="43.50095989310302" lon="10.908646864036745"><ele>542.0</ele><time>2026-04-18T08:49:53.003Z</time></trkpt><trkpt lat="43.500886927108816" lon="10.908827004011266"><ele>542.0</ele><time>2026-04-18T08:49:54.003Z</time></trkpt><trkpt lat="43.500824308328504" lon="10.909013483281818"><ele>542.0</ele><time>2026-04-18T08:49:55.003Z</time></trkpt><trkpt lat="43.50077070177965" lon="10.909207582741928"><ele>542.0</ele><time>2026-04-18T08:49:56.003Z</time></trkpt><trkpt lat="43.500720721756686" lon="10.909399852127095"><ele>542.0</ele><time>2026-04-18T08:49:57.003Z</time></trkpt><trkpt lat="43.500673808080485" lon="10.909580327939462"><ele>542.0</ele><time>2026-04-18T08:49:58.003Z</time></trkpt><trkpt lat="43.5006312250137" lon="10.909744143998141"><ele>542.0</ele><time>2026-04-18T08:49:59.003Z</time></trkpt><trkpt lat="43.50060717104684" lon="10.90990673048715"><ele>542.0</ele><time>2026-04-18T08:50:00.003Z</time></trkpt><trkpt lat="43.50057803472718" lon="10.910068492107857"><ele>543.0</ele><time>2026-04-18T08:50:01.003Z</time></trkpt><trkpt lat="43.50056497038416" lon="10.910241996370244"><ele>544.0</ele><time>2026-04-18T08:50:02.003Z</time></trkpt><trkpt lat="43.50056811636467" lon="10.910417323691942"><ele>545.0</ele><time>2026-04-18T08:50:03.003Z</time></trkpt><trkpt lat="43.50059073211464" lon="10.910589695205392"><ele>546.0</ele><time>2026-04-18T08:50:04.003Z</time></trkpt><trkpt lat="43.50062397709199" lon="10.910762677453908"><ele>546.0</ele><time>2026-04-18T08:50:05.003Z</time></trkpt><trkpt lat="43.50065324322859" lon="10.910930743868189"><ele>546.0</ele><time>2026-04-18T08:50:06.003Z</time></trkpt><trkpt lat="43.50067841367218" lon="10.911082167563757"><ele>546.0</ele><time>2026-04-18T08:50:07.003Z</time></trkpt><trkpt lat="43.50070226916837" lon="10.911225479099512"><ele>546.0</ele><time>2026-04-18T08:50:08.003Z</time></trkpt><trkpt lat="43.500724947703866" lon="10.911362350739909"><ele>546.0</ele><time>2026-04-18T08:50:09.003Z</time></trkpt><trkpt lat="43.50074835944462" lon="10.911500643202846"><ele>546.0</ele><time>2026-04-18T08:50:10.003Z</time></trkpt><trkpt lat="43.50076727539816" lon="10.91164866994523"><ele>546.0</ele><time>2026-04-18T08:50:11.003Z</time></trkpt><trkpt lat="43.50078252128561" lon="10.911800374798311"><ele>546.0</ele><time>2026-04-18T08:50:12.003Z</time></trkpt><trkpt lat="43.50077600226399" lon="10.911961546244147"><ele>546.0</ele><time>2026-04-18T08:50:13.003Z</time></trkpt><trkpt lat="43.50074431748767" lon="10.912133010818744"><ele>544.75</ele><time>2026-04-18T08:50:14.003Z</time></trkpt><trkpt lat="43.50068778436675" lon="10.912294564001135"><ele>543.5</ele><time>2026-04-18T08:50:15.003Z</time></trkpt><trkpt lat="43.50063998330371" lon="10.91248146862528"><ele>542.25</ele><time>2026-04-18T08:50:16.003Z</time></trkpt><trkpt lat="43.50057337251261" lon="10.912663433584841"><ele>541.0</ele><time>2026-04-18T08:50:17.003Z</time></trkpt><trkpt lat="43.500503274219554" lon="10.912844818078236"><ele>539.6666666666667</ele><time>2026-04-18T08:50:18.003Z</time></trkpt><trkpt lat="43.5004373420798" lon="10.913026045247243"><ele>538.3333333333334</ele><time>2026-04-18T08:50:19.003Z</time></trkpt><trkpt lat="43.50036087121964" lon="10.913208476460904"><ele>537.0</ele><time>2026-04-18T08:50:20.003Z</time></trkpt><trkpt lat="43.500278638373835" lon="10.913384769922894"><ele>537.25</ele><time>2026-04-18T08:50:21.003Z</time></trkpt><trkpt lat="43.50019727281857" lon="10.913557323816715"><ele>537.5</ele><time>2026-04-18T08:50:22.003Z</time></trkpt><trkpt lat="43.50011891736933" lon="10.913730371455928"><ele>537.75</ele><time>2026-04-18T08:50:23.003Z</time></trkpt><trkpt lat="43.500042687672284" lon="10.913885335381284"><ele>538.0</ele><time>2026-04-18T08:50:24.004Z</time></trkpt><trkpt lat="43.49997749932984" lon="10.914046328986883"><ele>538.0</ele><time>2026-04-18T08:50:25.001Z</time></trkpt><trkpt lat="43.49990414983824" lon="10.914202426635287"><ele>538.0</ele><time>2026-04-18T08:50:26.001Z</time></trkpt><trkpt lat="43.49985654091824" lon="10.9143813897082"><ele>538.0</ele><time>2026-04-18T08:50:27.001Z</time></trkpt><trkpt lat="43.499835434874065" lon="10.914580020765335"><ele>538.0</ele><time>2026-04-18T08:50:28.001Z</time></trkpt><trkpt lat="43.4998292448664" lon="10.914801622160025"><ele>538.0</ele><time>2026-04-18T08:50:29.001Z</time></trkpt><trkpt lat="43.49985547443878" lon="10.915014055940775"><ele>538.0</ele><time>2026-04-18T08:50:30.001Z</time></trkpt><trkpt lat="43.49989161903613" lon="10.915203422173752"><ele>538.0</ele><time>2026-04-18T08:50:31.001Z</time></trkpt><trkpt lat="43.49992029954975" lon="10.915412435453705"><ele>537.75</ele><time>2026-04-18T08:50:32.001Z</time></trkpt><trkpt lat="43.49993297983854" lon="10.915616878256952"><ele>537.5</ele><time>2026-04-18T08:50:33.001Z</time></trkpt><trkpt lat="43.49995586468511" lon="10.915800161937588"><ele>537.25</ele><time>2026-04-18T08:50:34.001Z</time></trkpt><trkpt lat="43.49998512312659" lon="10.915985841201378"><ele>537.0</ele><time>2026-04-18T08:50:35.001Z</time></trkpt><trkpt lat="43.49998847298511" lon="10.916176524825945"><ele>536.5</ele><time>2026-04-18T08:50:36.001Z</time></trkpt><trkpt lat="43.4999667623646" lon="10.91637001825381"><ele>536.0</ele><time>2026-04-18T08:50:37.001Z</time></trkpt><trkpt lat="43.49990656521435" lon="10.916550861960372"><ele>535.5</ele><time>2026-04-18T08:50:38.001Z</time></trkpt><trkpt lat="43.499819967632234" lon="10.916707825140444"><ele>535.0</ele><time>2026-04-18T08:50:39.001Z</time></trkpt><trkpt lat="43.49971012708815" lon="10.916833419957568"><ele>537.0</ele><time>2026-04-18T08:50:40.001Z</time></trkpt><trkpt lat="43.49957988270136" lon="10.916908333519808"><ele>539.0</ele><time>2026-04-18T08:50:41.001Z</time></trkpt><trkpt lat="43.49946719680004" lon="10.917013896069195"><ele>541.0</ele><time>2026-04-18T08:50:42.001Z</time></trkpt><trkpt lat="43.499361250112045" lon="10.917094956300595"><ele>543.0</ele><time>2026-04-18T08:50:43.001Z</time></trkpt><trkpt lat="43.49925485539108" lon="10.917180203972375"><ele>543.0</ele><time>2026-04-18T08:50:44.001Z</time></trkpt><trkpt lat="43.49914622877149" lon="10.917266837989935"><ele>543.0</ele><time>2026-04-18T08:50:45.001Z</time></trkpt><trkpt lat="43.49903660449643" lon="10.917355041902212"><ele>543.0</ele><time>2026-04-18T08:50:46.001Z</time></trkpt><trkpt lat="43.498930902827986" lon="10.91743659533252"><ele>543.0</ele><time>2026-04-18T08:50:47.001Z</time></trkpt><trkpt lat="43.49883081935537" lon="10.917517885990868"><ele>542.0</ele><time>2026-04-18T08:50:48.001Z</time></trkpt><trkpt lat="43.49873342472566" lon="10.917572964666372"><ele>541.0</ele><time>2026-04-18T08:50:49.001Z</time></trkpt><trkpt lat="43.49864633150302" lon="10.917643337599115"><ele>540.0</ele><time>2026-04-18T08:50:50.001Z</time></trkpt><trkpt lat="43.49854000531875" lon="10.91768068089972"><ele>539.0</ele><time>2026-04-18T08:50:51.001Z</time></trkpt><trkpt lat="43.49843100275169" lon="10.917703520700638"><ele>538.0</ele><time>2026-04-18T08:50:52.001Z</time></trkpt><trkpt lat="43.498326951879925" lon="10.91771877329614"><ele>538.0</ele><time>2026-04-18T08:50:53.001Z</time></trkpt><trkpt lat="43.49823033448151" lon="10.91773489451258"><ele>538.0</ele><time>2026-04-18T08:50:54.001Z</time></trkpt><trkpt lat="43.498137517350095" lon="10.917766519573862"><ele>538.0</ele><time>2026-04-18T08:50:55.001Z</time></trkpt><trkpt lat="43.49803537115121" lon="10.917812392591598"><ele>538.0</ele><time>2026-04-18T08:50:56.001Z</time></trkpt><trkpt lat="43.49796849811027" lon="10.917942406802347"><ele>538.0</ele><time>2026-04-18T08:50:57.001Z</time></trkpt><trkpt lat="43.49791957293931" lon="10.918086771100736"><ele>538.0</ele><time>2026-04-18T08:50:58.001Z</time></trkpt><trkpt lat="43.497883501575366" lon="10.918243210015667"><ele>538.0</ele><time>2026-04-18T08:50:59.001Z</time></trkpt><trkpt lat="43.49783784990913" lon="10.918397426990945"><ele>538.0</ele><time>2026-04-18T08:51:00.001Z</time></trkpt><trkpt lat="43.49778974917462" lon="10.918552687906324"><ele>538.0</ele><time>2026-04-18T08:51:01.001Z</time></trkpt><trkpt lat="43.49774712444072" lon="10.918708817141889"><ele>538.0</ele><time>2026-04-18T08:51:02.001Z</time></trkpt><trkpt lat="43.49770614038265" lon="10.91886562618809"><ele>538.0</ele><time>2026-04-18T08:51:03.001Z</time></trkpt><trkpt lat="43.49765547445907" lon="10.919019618640297"><ele>538.0</ele><time>2026-04-18T08:51:04.001Z</time></trkpt><trkpt lat="43.49759845046907" lon="10.91917425762509"><ele>538.0</ele><time>2026-04-18T08:51:05.001Z</time></trkpt><trkpt lat="43.497539909373145" lon="10.919333742416626"><ele>536.5</ele><time>2026-04-18T08:51:06.001Z</time></trkpt><trkpt lat="43.49747741371211" lon="10.919491697026125"><ele>535.0</ele><time>2026-04-18T08:51:07.001Z</time></trkpt><trkpt lat="43.49741767622275" lon="10.919654233674942"><ele>533.5</ele><time>2026-04-18T08:51:08.001Z</time></trkpt><trkpt lat="43.49738607519591" lon="10.919819443883334"><ele>532.0</ele><time>2026-04-18T08:51:09.001Z</time></trkpt><trkpt lat="43.497382036402506" lon="10.919993154659588"><ele>530.75</ele><time>2026-04-18T08:51:10.001Z</time></trkpt><trkpt lat="43.497388538122074" lon="10.920174084235976"><ele>529.5</ele><time>2026-04-18T08:51:11.001Z</time></trkpt><trkpt lat="43.4973996477997" lon="10.920352873206413"><ele>528.25</ele><time>2026-04-18T08:51:12.001Z</time></trkpt><trkpt lat="43.49740461490849" lon="10.920519516020933"><ele>527.0</ele><time>2026-04-18T08:51:13.001Z</time></trkpt><trkpt lat="43.49739838884802" lon="10.920655471946992"><ele>527.0</ele><time>2026-04-18T08:51:14.001Z</time></trkpt><trkpt lat="43.49737089273351" lon="10.920769480286609"><ele>527.0</ele><time>2026-04-18T08:51:15.001Z</time></trkpt><trkpt lat="43.49731132191809" lon="10.920860137142132"><ele>527.0</ele><time>2026-04-18T08:51:16.002Z</time></trkpt><trkpt lat="43.497225890325936" lon="10.9209261482405"><ele>527.0</ele><time>2026-04-18T08:51:17.002Z</time></trkpt><trkpt lat="43.4971307174233" lon="10.92098007480293"><ele>527.0</ele><time>2026-04-18T08:51:18.002Z</time></trkpt><trkpt lat="43.49703690509602" lon="10.921020313181783"><ele>525.5</ele><time>2026-04-18T08:51:19.002Z</time></trkpt><trkpt lat="43.49694967758256" lon="10.921044466223966"><ele>524.0</ele><time>2026-04-18T08:51:20.002Z</time></trkpt><trkpt lat="43.49685245396331" lon="10.92104739535246"><ele>522.5</ele><time>2026-04-18T08:51:21.002Z</time></trkpt><trkpt lat="43.49676786461802" lon="10.92109135000234"><ele>521.0</ele><time>2026-04-18T08:51:22.002Z</time></trkpt><trkpt lat="43.49669031361791" lon="10.921125158141503"><ele>519.5</ele><time>2026-04-18T08:51:23.002Z</time></trkpt><trkpt lat="43.49660720974508" lon="10.921161387696285"><ele>518.0</ele><time>2026-04-18T08:51:24.002Z</time></trkpt><trkpt lat="43.49652390429149" lon="10.921211787141205"><ele>518.0</ele><time>2026-04-18T08:51:25.002Z</time></trkpt><trkpt lat="43.49633736353895" lon="10.921475086574821"><ele>518.0</ele><time>2026-04-18T08:51:26.002Z</time></trkpt><trkpt lat="43.496264157545966" lon="10.921609699453919"><ele>518.0</ele><time>2026-04-18T08:51:27.002Z</time></trkpt><trkpt lat="43.49619815078211" lon="10.921756231109633"><ele>517.75</ele><time>2026-04-18T08:51:28.002Z</time></trkpt><trkpt lat="43.49613283552548" lon="10.921902562636848"><ele>517.5</ele><time>2026-04-18T08:51:29.002Z</time></trkpt><trkpt lat="43.49606658165336" lon="10.922046707819344"><ele>517.25</ele><time>2026-04-18T08:51:30.002Z</time></trkpt><trkpt lat="43.49600067742785" lon="10.922195901476693"><ele>517.0</ele><time>2026-04-18T08:51:31.002Z</time></trkpt><trkpt lat="43.49592919489716" lon="10.922344762216225"><ele>517.0</ele><time>2026-04-18T08:51:32.002Z</time></trkpt><trkpt lat="43.49585761132617" lon="10.922490922977804"><ele>517.0</ele><time>2026-04-18T08:51:33.002Z</time></trkpt><trkpt lat="43.49578880837595" lon="10.922644734987577"><ele>517.0</ele><time>2026-04-18T08:51:34.002Z</time></trkpt><trkpt lat="43.49571772753444" lon="10.922792295517793"><ele>517.0</ele><time>2026-04-18T08:51:35.002Z</time></trkpt><trkpt lat="43.49561620235027" lon="10.922916801152091"><ele>517.5</ele><time>2026-04-18T08:51:36.002Z</time></trkpt><trkpt lat="43.495511024998635" lon="10.923048378908584"><ele>518.0</ele><time>2026-04-18T08:51:37.002Z</time></trkpt><trkpt lat="43.495400339365204" lon="10.923179667224515"><ele>518.5</ele><time>2026-04-18T08:51:38.002Z</time></trkpt><trkpt lat="43.49528293615325" lon="10.923318923426194"><ele>519.0</ele><time>2026-04-18T08:51:39.002Z</time></trkpt><trkpt lat="43.49517639613429" lon="10.923475139632645"><ele>517.6666666666666</ele><time>2026-04-18T08:51:40.002Z</time></trkpt><trkpt lat="43.4950516448205" lon="10.923612164837138"><ele>516.3333333333333</ele><time>2026-04-18T08:51:41.002Z</time></trkpt><trkpt lat="43.49493378014756" lon="10.923759312070223"><ele>515.0</ele><time>2026-04-18T08:51:42.002Z</time></trkpt><trkpt lat="43.49481754070414" lon="10.923898617758102"><ele>515.0</ele><time>2026-04-18T08:51:43.002Z</time></trkpt><trkpt lat="43.494712582582736" lon="10.924043334568337"><ele>515.0</ele><time>2026-04-18T08:51:44.002Z</time></trkpt><trkpt lat="43.49459507268025" lon="10.924175099170077"><ele>515.0</ele><time>2026-04-18T08:51:45.002Z</time></trkpt><trkpt lat="43.49448756753457" lon="10.924316328757039"><ele>515.0</ele><time>2026-04-18T08:51:46.002Z</time></trkpt><trkpt lat="43.49438879662021" lon="10.924450418561948"><ele>513.0</ele><time>2026-04-18T08:51:47.002Z</time></trkpt><trkpt lat="43.494293485983064" lon="10.92458059776385"><ele>511.0</ele><time>2026-04-18T08:51:48.002Z</time></trkpt><trkpt lat="43.49419391542675" lon="10.924704237111905"><ele>509.0</ele><time>2026-04-18T08:51:49.002Z</time></trkpt><trkpt lat="43.49410473207942" lon="10.924848543039776"><ele>507.0</ele><time>2026-04-18T08:51:50.002Z</time></trkpt><trkpt lat="43.49401223024323" lon="10.924978343941536"><ele>506.0</ele><time>2026-04-18T08:51:51.002Z</time></trkpt><trkpt lat="43.49394511494177" lon="10.925137803967472"><ele>505.0</ele><time>2026-04-18T08:51:52.002Z</time></trkpt><trkpt lat="43.4939103348273" lon="10.925299243835562"><ele>504.0</ele><time>2026-04-18T08:51:53.002Z</time></trkpt><trkpt lat="43.49390820027255" lon="10.925477485701672"><ele>503.0</ele><time>2026-04-18T08:51:54.002Z</time></trkpt><trkpt lat="43.493901650016944" lon="10.925634975483725"><ele>503.0</ele><time>2026-04-18T08:51:55.002Z</time></trkpt><trkpt lat="43.49389845081226" lon="10.92581096054174"><ele>502.99999999999994</ele><time>2026-04-18T08:51:56.002Z</time></trkpt><trkpt lat="43.493895466596236" lon="10.925942222591988"><ele>502.99999999999994</ele><time>2026-04-18T08:51:57.002Z</time></trkpt><trkpt lat="43.49390293441015" lon="10.926060940902195"><ele>503.0</ele><time>2026-04-18T08:51:58.003Z</time></trkpt><trkpt lat="43.49389341217631" lon="10.926164747097403"><ele>503.0</ele><time>2026-04-18T08:51:59.003Z</time></trkpt><trkpt lat="43.49388462734774" lon="10.926263505693328"><ele>502.0</ele><time>2026-04-18T08:52:00.003Z</time></trkpt><trkpt lat="43.49388548320648" lon="10.926358043711923"><ele>500.99999999999994</ele><time>2026-04-18T08:52:01.003Z</time></trkpt><trkpt lat="43.49388808215175" lon="10.926453674007208"><ele>499.99999999999994</ele><time>2026-04-18T08:52:02.003Z</time></trkpt><trkpt lat="43.49387887890114" lon="10.92660270097491"><ele>499.0</ele><time>2026-04-18T08:52:04.003Z</time></trkpt><trkpt lat="43.49384357393495" lon="10.926709446464443"><ele>498.0</ele><time>2026-04-18T08:52:06.003Z</time></trkpt><trkpt lat="43.49375790570255" lon="10.926848857655497"><ele>498.0</ele><time>2026-04-18T08:52:08.003Z</time></trkpt><trkpt lat="43.49369321343617" lon="10.926919309852098"><ele>497.99999999999994</ele><time>2026-04-18T08:52:09.003Z</time></trkpt><trkpt lat="43.493620059238786" lon="10.92699190158888"><ele>497.99999999999994</ele><time>2026-04-18T08:52:10.003Z</time></trkpt><trkpt lat="43.493548189463596" lon="10.927075127632824"><ele>498.0</ele><time>2026-04-18T08:52:11.003Z</time></trkpt><trkpt lat="43.4934770405605" lon="10.927173146811374"><ele>498.0</ele><time>2026-04-18T08:52:12.003Z</time></trkpt><trkpt lat="43.493414286544215" lon="10.927269724755078"><ele>498.0</ele><time>2026-04-18T08:52:13.003Z</time></trkpt><trkpt lat="43.493352583801084" lon="10.927368781932234"><ele>497.99999999999994</ele><time>2026-04-18T08:52:14.003Z</time></trkpt><trkpt lat="43.4932957971044" lon="10.927445882322527"><ele>497.99999999999994</ele><time>2026-04-18T08:52:15.003Z</time></trkpt><trkpt lat="43.49322735251413" lon="10.927550742998802"><ele>498.0</ele><time>2026-04-18T08:52:16.003Z</time></trkpt><trkpt lat="43.49316153281213" lon="10.927637808721633"><ele>498.0</ele><time>2026-04-18T08:52:17.003Z</time></trkpt><trkpt lat="43.49309455067485" lon="10.927749044578897"><ele>497.2</ele><time>2026-04-18T08:52:18.003Z</time></trkpt><trkpt lat="43.4930322630895" lon="10.927860087898058"><ele>496.4</ele><time>2026-04-18T08:52:19.003Z</time></trkpt><trkpt lat="43.49296469522504" lon="10.92796067367678"><ele>495.59999999999997</ele><time>2026-04-18T08:52:20.003Z</time></trkpt><trkpt lat="43.49290558490984" lon="10.928052934321697"><ele>494.79999999999995</ele><time>2026-04-18T08:52:21.003Z</time></trkpt><trkpt lat="43.49283868739446" lon="10.928156030893264"><ele>494.0</ele><time>2026-04-18T08:52:22.003Z</time></trkpt><trkpt lat="43.4927651960792" lon="10.928254111876264"><ele>492.2</ele><time>2026-04-18T08:52:23.003Z</time></trkpt><trkpt lat="43.49268615379298" lon="10.92835925329234"><ele>490.4</ele><time>2026-04-18T08:52:24.003Z</time></trkpt><trkpt lat="43.492610699483215" lon="10.928477566093253"><ele>488.6</ele><time>2026-04-18T08:52:25.003Z</time></trkpt><trkpt lat="43.49252573430039" lon="10.928573054994535"><ele>486.8</ele><time>2026-04-18T08:52:26.003Z</time></trkpt><trkpt lat="43.492445856476195" lon="10.928657183390076"><ele>485.0</ele><time>2026-04-18T08:52:27.003Z</time></trkpt><trkpt lat="43.49235571425061" lon="10.928729409763715"><ele>484.8</ele><time>2026-04-18T08:52:28.003Z</time></trkpt><trkpt lat="43.49225796318444" lon="10.928784944747916"><ele>484.6</ele><time>2026-04-18T08:52:29.003Z</time></trkpt><trkpt lat="43.49214929333726" lon="10.92880936787545"><ele>484.4</ele><time>2026-04-18T08:52:30.003Z</time></trkpt><trkpt lat="43.49203870624693" lon="10.928805615227072"><ele>484.2</ele><time>2026-04-18T08:52:31.001Z</time></trkpt><trkpt lat="43.491928443623" lon="10.928782044726685"><ele>484.0</ele><time>2026-04-18T08:52:32.001Z</time></trkpt><trkpt lat="43.491816879021215" lon="10.928738111263474"><ele>484.5</ele><time>2026-04-18T08:52:33.001Z</time></trkpt><trkpt lat="43.4917049622392" lon="10.928668104325675"><ele>485.0</ele><time>2026-04-18T08:52:34.001Z</time></trkpt><trkpt lat="43.4915985927209" lon="10.928588637173888"><ele>485.5</ele><time>2026-04-18T08:52:35.001Z</time></trkpt><trkpt lat="43.49148771495348" lon="10.928512540480972"><ele>486.0</ele><time>2026-04-18T08:52:36.001Z</time></trkpt><trkpt lat="43.491375180462654" lon="10.928480641722553"><ele>486.0</ele><time>2026-04-18T08:52:37.001Z</time></trkpt><trkpt lat="43.49125911323226" lon="10.92850845041944"><ele>486.0</ele><time>2026-04-18T08:52:38.001Z</time></trkpt><trkpt lat="43.49114839511476" lon="10.928574771621046"><ele>486.0</ele><time>2026-04-18T08:52:39.001Z</time></trkpt><trkpt lat="43.49104945465737" lon="10.92867748700175"><ele>486.0</ele><time>2026-04-18T08:52:40.001Z</time></trkpt><trkpt lat="43.49096471234922" lon="10.928816872841221"><ele>484.5</ele><time>2026-04-18T08:52:41.001Z</time></trkpt><trkpt lat="43.49089979300447" lon="10.928978133662829"><ele>483.0</ele><time>2026-04-18T08:52:42.001Z</time></trkpt><trkpt lat="43.49083498204824" lon="10.929137697923341"><ele>481.5</ele><time>2026-04-18T08:52:43.001Z</time></trkpt><trkpt lat="43.49077660353567" lon="10.929286958046715"><ele>480.0</ele><time>2026-04-18T08:52:44.001Z</time></trkpt><trkpt lat="43.49070347253486" lon="10.929426996684843"><ele>480.0</ele><time>2026-04-18T08:52:45.001Z</time></trkpt><trkpt lat="43.490636501955315" lon="10.929580306749447"><ele>480.0</ele><time>2026-04-18T08:52:46.001Z</time></trkpt><trkpt lat="43.49057369498519" lon="10.929747971833882"><ele>480.0</ele><time>2026-04-18T08:52:47.001Z</time></trkpt><trkpt lat="43.49050943390938" lon="10.92991166020962"><ele>480.0</ele><time>2026-04-18T08:52:48.001Z</time></trkpt><trkpt lat="43.49044332429051" lon="10.930066697404195"><ele>475.5</ele><time>2026-04-18T08:52:49.001Z</time></trkpt><trkpt lat="43.49037823376057" lon="10.930222638490235"><ele>471.0</ele><time>2026-04-18T08:52:50.001Z</time></trkpt><trkpt lat="43.49031626801319" lon="10.93037307434019"><ele>466.5</ele><time>2026-04-18T08:52:51.001Z</time></trkpt><trkpt lat="43.49025360693922" lon="10.930521811369754"><ele>462.0</ele><time>2026-04-18T08:52:52.001Z</time></trkpt><trkpt lat="43.49019019098453" lon="10.93066549554273"><ele>462.0</ele><time>2026-04-18T08:52:53.001Z</time></trkpt><trkpt lat="43.49014684385707" lon="10.930828214576588"><ele>462.0</ele><time>2026-04-18T08:52:54.001Z</time></trkpt><trkpt lat="43.490109656557145" lon="10.930992773126157"><ele>462.0</ele><time>2026-04-18T08:52:55.001Z</time></trkpt><trkpt lat="43.49008597217541" lon="10.931164560068503"><ele>462.0</ele><time>2026-04-18T08:52:56.001Z</time></trkpt><trkpt lat="43.49007275028223" lon="10.931325854052236"><ele>461.75</ele><time>2026-04-18T08:52:57.001Z</time></trkpt><trkpt lat="43.49007743689353" lon="10.931498008715666"><ele>461.5</ele><time>2026-04-18T08:52:58.001Z</time></trkpt><trkpt lat="43.49006304170032" lon="10.931661123922659"><ele>461.25</ele><time>2026-04-18T08:52:59.001Z</time></trkpt><trkpt lat="43.49006270699939" lon="10.931818081868919"><ele>461.0</ele><time>2026-04-18T08:53:00.001Z</time></trkpt><trkpt lat="43.49006723272839" lon="10.931970538796302"><ele>460.4</ele><time>2026-04-18T08:53:01.001Z</time></trkpt><trkpt lat="43.49006858040621" lon="10.932105848332972"><ele>459.8</ele><time>2026-04-18T08:53:02.001Z</time></trkpt><trkpt lat="43.49006656118414" lon="10.93221466114291"><ele>459.19999999999993</ele><time>2026-04-18T08:53:03.001Z</time></trkpt><trkpt lat="43.49006332116346" lon="10.932376350823027"><ele>458.59999999999997</ele><time>2026-04-18T08:53:05.001Z</time></trkpt><trkpt lat="43.48999312538939" lon="10.932505993717715"><ele>458.0</ele><time>2026-04-18T08:53:07.001Z</time></trkpt><trkpt lat="43.489912807026826" lon="10.93252490503615"><ele>458.0</ele><time>2026-04-18T08:53:08.001Z</time></trkpt><trkpt lat="43.489819411424676" lon="10.932481695853875"><ele>458.0</ele><time>2026-04-18T08:53:09.001Z</time></trkpt><trkpt lat="43.489751523262655" lon="10.932365388487232"><ele>458.0</ele><time>2026-04-18T08:53:10.001Z</time></trkpt><trkpt lat="43.489756659863914" lon="10.932201461340332"><ele>458.0</ele><time>2026-04-18T08:53:11.001Z</time></trkpt><trkpt lat="43.489730955651744" lon="10.932032592474014"><ele>458.0</ele><time>2026-04-18T08:53:12.001Z</time></trkpt><trkpt lat="43.48973675827308" lon="10.931842735590688"><ele>458.0</ele><time>2026-04-18T08:53:13.001Z</time></trkpt><trkpt lat="43.48971809505932" lon="10.93164179229673"><ele>458.0</ele><time>2026-04-18T08:53:14.001Z</time></trkpt><trkpt lat="43.48969584601622" lon="10.93142943977283"><ele>458.0</ele><time>2026-04-18T08:53:15.001Z</time></trkpt><trkpt lat="43.4896759343676" lon="10.931206425496994"><ele>459.0</ele><time>2026-04-18T08:53:16.001Z</time></trkpt><trkpt lat="43.48965997048195" lon="10.930973709972406"><ele>460.0</ele><time>2026-04-18T08:53:17.001Z</time></trkpt><trkpt lat="43.48963954506716" lon="10.93073892791334"><ele>461.0</ele><time>2026-04-18T08:53:18.001Z</time></trkpt><trkpt lat="43.48961526223819" lon="10.930497354346034"><ele>453.3333333333333</ele><time>2026-04-18T08:53:19.001Z</time></trkpt><trkpt lat="43.4895765329686" lon="10.930248455283948"><ele>445.66666666666663</ele><time>2026-04-18T08:53:20.001Z</time></trkpt><trkpt lat="43.48952017517734" lon="10.930002043154655"><ele>438.0</ele><time>2026-04-18T08:53:21.001Z</time></trkpt><trkpt lat="43.489446259876786" lon="10.929761442354074"><ele>437.66666666666663</ele><time>2026-04-18T08:53:22.001Z</time></trkpt><trkpt lat="43.48937531489115" lon="10.92953575428041"><ele>437.3333333333333</ele><time>2026-04-18T08:53:23.001Z</time></trkpt><trkpt lat="43.489308197974374" lon="10.929324102143864"><ele>437.0</ele><time>2026-04-18T08:53:24.001Z</time></trkpt><trkpt lat="43.489253189204895" lon="10.929105294691668"><ele>436.66666666666663</ele><time>2026-04-18T08:53:25.001Z</time></trkpt><trkpt lat="43.48922188519613" lon="10.92888303613548"><ele>436.33333333333337</ele><time>2026-04-18T08:53:26.001Z</time></trkpt><trkpt lat="43.48922639534879" lon="10.928651825436418"><ele>436.0</ele><time>2026-04-18T08:53:27.001Z</time></trkpt><trkpt lat="43.48924963039918" lon="10.928407288286474"><ele>435.33333333333337</ele><time>2026-04-18T08:53:28.001Z</time></trkpt><trkpt lat="43.48927732248409" lon="10.928155685691442"><ele>434.66666666666663</ele><time>2026-04-18T08:53:29.001Z</time></trkpt><trkpt lat="43.48929520689821" lon="10.927900938361084"><ele>434.0</ele><time>2026-04-18T08:53:30.001Z</time></trkpt><trkpt lat="43.489313506462025" lon="10.927642359883084"><ele>433.3333333333333</ele><time>2026-04-18T08:53:31.001Z</time></trkpt><trkpt lat="43.48933470106018" lon="10.927385064581074"><ele>432.66666666666663</ele><time>2026-04-18T08:53:32.001Z</time></trkpt><trkpt lat="43.48935872032561" lon="10.927125248858838"><ele>432.0</ele><time>2026-04-18T08:53:33.001Z</time></trkpt><trkpt lat="43.48938949092406" lon="10.926864119433505"><ele>429.66666666666663</ele><time>2026-04-18T08:53:34.001Z</time></trkpt><trkpt lat="43.48942268567112" lon="10.926606092443421"><ele>427.3333333333333</ele><time>2026-04-18T08:53:35.002Z</time></trkpt><trkpt lat="43.48945264278202" lon="10.926344199491956"><ele>425.0</ele><time>2026-04-18T08:53:36.002Z</time></trkpt><trkpt lat="43.48949067258052" lon="10.926086027596034"><ele>427.0</ele><time>2026-04-18T08:53:37.002Z</time></trkpt><trkpt lat="43.48952841595374" lon="10.925827738506829"><ele>429.0</ele><time>2026-04-18T08:53:38.002Z</time></trkpt><trkpt lat="43.48956627267028" lon="10.92556934331914"><ele>431.0</ele><time>2026-04-18T08:53:39.002Z</time></trkpt><trkpt lat="43.48960399529612" lon="10.92531859224585"><ele>431.0</ele><time>2026-04-18T08:53:40.002Z</time></trkpt><trkpt lat="43.48963842068753" lon="10.925069507256735"><ele>431.0</ele><time>2026-04-18T08:53:41.002Z</time></trkpt><trkpt lat="43.489672938955785" lon="10.924821383988618"><ele>431.0</ele><time>2026-04-18T08:53:42.002Z</time></trkpt><trkpt lat="43.4897078791143" lon="10.92460174710255"><ele>429.8</ele><time>2026-04-18T08:53:43.002Z</time></trkpt><trkpt lat="43.48974286233737" lon="10.924430259023223"><ele>428.6</ele><time>2026-04-18T08:53:44.002Z</time></trkpt><trkpt lat="43.48976749756171" lon="10.92428109957289"><ele>427.4</ele><time>2026-04-18T08:53:45.002Z</time></trkpt><trkpt lat="43.489785231412256" lon="10.924152804768482"><ele>426.2</ele><time>2026-04-18T08:53:46.002Z</time></trkpt><trkpt lat="43.48980127148523" lon="10.924029442524878"><ele>425.0</ele><time>2026-04-18T08:53:47.002Z</time></trkpt><trkpt lat="43.48982569794264" lon="10.9238983237867"><ele>425.0</ele><time>2026-04-18T08:53:48.002Z</time></trkpt><trkpt lat="43.48984366490776" lon="10.923757748568605"><ele>425.0</ele><time>2026-04-18T08:53:49.002Z</time></trkpt><trkpt lat="43.48985613578605" lon="10.923631932449341"><ele>425.0</ele><time>2026-04-18T08:53:50.002Z</time></trkpt><trkpt lat="43.48987439580021" lon="10.92353110384775"><ele>425.0</ele><time>2026-04-18T08:53:51.002Z</time></trkpt><trkpt lat="43.489903915475175" lon="10.923406048621722"><ele>425.0</ele><time>2026-04-18T08:53:53.002Z</time></trkpt><trkpt lat="43.489817768358705" lon="10.923477154769513"><ele>425.0</ele><time>2026-04-18T08:53:57.002Z</time></trkpt><trkpt lat="43.48981469957865" lon="10.923619468451317"><ele>425.0</ele><time>2026-04-18T08:53:58.002Z</time></trkpt><trkpt lat="43.48980301746988" lon="10.923776210733264"><ele>425.0</ele><time>2026-04-18T08:53:59.002Z</time></trkpt><trkpt lat="43.489782252546114" lon="10.923944940980071"><ele>425.0</ele><time>2026-04-18T08:54:00.002Z</time></trkpt><trkpt lat="43.489752102121685" lon="10.924122819286069"><ele>425.0</ele><time>2026-04-18T08:54:01.002Z</time></trkpt><trkpt lat="43.48973119677779" lon="10.924316593187699"><ele>425.0</ele><time>2026-04-18T08:54:02.002Z</time></trkpt><trkpt lat="43.4897066539751" lon="10.924486753637078"><ele>425.0</ele><time>2026-04-18T08:54:03.002Z</time></trkpt><trkpt lat="43.489687417704076" lon="10.924624283743702"><ele>425.0</ele><time>2026-04-18T08:54:04.002Z</time></trkpt><trkpt lat="43.48966513674933" lon="10.924724741920192"><ele>425.0</ele><time>2026-04-18T08:54:05.002Z</time></trkpt><trkpt lat="43.489621851306346" lon="10.924857498279794"><ele>423.66666666666663</ele><time>2026-04-18T08:54:07.002Z</time></trkpt><trkpt lat="43.4894962093585" lon="10.924884215438235"><ele>422.3333333333333</ele><time>2026-04-18T08:54:09.002Z</time></trkpt><trkpt lat="43.48942213192632" lon="10.924898328918433"><ele>421.0</ele><time>2026-04-18T08:54:10.002Z</time></trkpt><trkpt lat="43.48934970571925" lon="10.92493765154273"><ele>419.66666666666663</ele><time>2026-04-18T08:54:11.002Z</time></trkpt><trkpt lat="43.48928436008981" lon="10.924995161158773"><ele>418.3333333333333</ele><time>2026-04-18T08:54:12.002Z</time></trkpt><trkpt lat="43.48921949219601" lon="10.925058853494159"><ele>417.0</ele><time>2026-04-18T08:54:13.002Z</time></trkpt><trkpt lat="43.48917027778344" lon="10.92513091359972"><ele>417.0</ele><time>2026-04-18T08:54:14.002Z</time></trkpt><trkpt lat="43.489138486952605" lon="10.925225589701713"><ele>417.0</ele><time>2026-04-18T08:54:15.002Z</time></trkpt><trkpt lat="43.489127900429835" lon="10.925351682368404"><ele>417.0</ele><time>2026-04-18T08:54:16.002Z</time></trkpt><trkpt lat="43.48911412135924" lon="10.925497392045743"><ele>417.0</ele><time>2026-04-18T08:54:17.002Z</time></trkpt><trkpt lat="43.489113876436214" lon="10.925652626954921"><ele>417.0</ele><time>2026-04-18T08:54:18.002Z</time></trkpt><trkpt lat="43.48910610392059" lon="10.925798794525674"><ele>418.6</ele><time>2026-04-18T08:54:19.002Z</time></trkpt><trkpt lat="43.489084942146235" lon="10.925938574347294"><ele>420.20000000000005</ele><time>2026-04-18T08:54:20.003Z</time></trkpt><trkpt lat="43.48904854163274" lon="10.926063283592667"><ele>421.8</ele><time>2026-04-18T08:54:21.003Z</time></trkpt><trkpt lat="43.488994470091534" lon="10.926179815266801"><ele>423.4</ele><time>2026-04-18T08:54:22.003Z</time></trkpt><trkpt lat="43.488924113296996" lon="10.92627843605881"><ele>425.0</ele><time>2026-04-18T08:54:23.003Z</time></trkpt><trkpt lat="43.48883636429738" lon="10.926346769638672"><ele>420.5</ele><time>2026-04-18T08:54:24.003Z</time></trkpt><trkpt lat="43.488718091303724" lon="10.926380274700858"><ele>416.0</ele><time>2026-04-18T08:54:25.003Z</time></trkpt><trkpt lat="43.48857492168106" lon="10.92644934318701"><ele>411.5</ele><time>2026-04-18T08:54:26.003Z</time></trkpt><trkpt lat="43.48844822686662" lon="10.92649866682395"><ele>407.0</ele><time>2026-04-18T08:54:27.003Z</time></trkpt><trkpt lat="43.48833727005151" lon="10.92654549721071"><ele>407.0</ele><time>2026-04-18T08:54:28.003Z</time></trkpt><trkpt lat="43.488233270845" lon="10.926587029236021"><ele>407.0</ele><time>2026-04-18T08:54:29.003Z</time></trkpt><trkpt lat="43.488147797346315" lon="10.926637576152263"><ele>407.0</ele><time>2026-04-18T08:54:30.003Z</time></trkpt><trkpt lat="43.48807054329071" lon="10.92667014877637"><ele>407.0</ele><time>2026-04-18T08:54:31.003Z</time></trkpt><trkpt lat="43.48800039353868" lon="10.926746762557203"><ele>407.0</ele><time>2026-04-18T08:54:32.003Z</time></trkpt><trkpt lat="43.48793754138802" lon="10.92688570197244"><ele>404.8</ele><time>2026-04-18T08:54:33.003Z</time></trkpt><trkpt lat="43.487892671382575" lon="10.927012563302615"><ele>402.6</ele><time>2026-04-18T08:54:34.003Z</time></trkpt><trkpt lat="43.48784016255006" lon="10.927110018309545"><ele>400.40000000000003</ele><time>2026-04-18T08:54:35.003Z</time></trkpt><trkpt lat="43.48778656689844" lon="10.927182174725147"><ele>398.20000000000005</ele><time>2026-04-18T08:54:36.003Z</time></trkpt><trkpt lat="43.487675231816944" lon="10.927185663654335"><ele>396.0</ele><time>2026-04-18T08:54:38.001Z</time></trkpt><trkpt lat="43.48757476474107" lon="10.927087555013768"><ele>396.0</ele><time>2026-04-18T08:54:40.001Z</time></trkpt><trkpt lat="43.487537026456394" lon="10.927002035600719"><ele>396.0</ele><time>2026-04-18T08:54:41.001Z</time></trkpt><trkpt lat="43.487535676248434" lon="10.926866411632275"><ele>396.0</ele><time>2026-04-18T08:54:42.001Z</time></trkpt><trkpt lat="43.487571750293775" lon="10.926751459310179"><ele>396.0</ele><time>2026-04-18T08:54:43.001Z</time></trkpt><trkpt lat="43.487569298415956" lon="10.926656655979059"><ele>396.0</ele><time>2026-04-18T08:54:44.001Z</time></trkpt><trkpt lat="43.487536807515674" lon="10.926568711534308"><ele>396.0</ele><time>2026-04-18T08:54:45.001Z</time></trkpt><trkpt lat="43.48750067982252" lon="10.92649165781106"><ele>395.20000000000005</ele><time>2026-04-18T08:54:46.001Z</time></trkpt><trkpt lat="43.487460637743716" lon="10.926417653547327"><ele>394.40000000000003</ele><time>2026-04-18T08:54:47.001Z</time></trkpt><trkpt lat="43.487375372118095" lon="10.926382748682897"><ele>393.6</ele><time>2026-04-18T08:54:48.001Z</time></trkpt><trkpt lat="43.487275556221135" lon="10.92636119917464"><ele>392.8</ele><time>2026-04-18T08:54:49.001Z</time></trkpt><trkpt lat="43.48715113490051" lon="10.926340570084909"><ele>392.0</ele><time>2026-04-18T08:54:50Z</time></trkpt><trkpt lat="43.48700586673267" lon="10.926319887076641"><ele>388.5</ele><time>2026-04-18T08:54:51Z</time></trkpt><trkpt lat="43.48686099697644" lon="10.9262989440509"><ele>385.0</ele><time>2026-04-18T08:54:52Z</time></trkpt><trkpt lat="43.48671791728032" lon="10.926276495128647"><ele>381.5</ele><time>2026-04-18T08:54:53Z</time></trkpt><trkpt lat="43.48659405087984" lon="10.926255381084445"><ele>378.0</ele><time>2026-04-18T08:54:54Z</time></trkpt><trkpt lat="43.48646802970359" lon="10.926232458116177"><ele>378.0</ele><time>2026-04-18T08:54:55.001Z</time></trkpt><trkpt lat="43.48633098126763" lon="10.926213546712292"><ele>378.0</ele><time>2026-04-18T08:54:56.001Z</time></trkpt><trkpt lat="43.48619861484779" lon="10.926228129659265"><ele>378.0</ele><time>2026-04-18T08:54:57.001Z</time></trkpt><trkpt lat="43.48607031413947" lon="10.926230878287543"><ele>378.0</ele><time>2026-04-18T08:54:58.001Z</time></trkpt><trkpt lat="43.485933388579724" lon="10.926237238928017"><ele>377.5</ele><time>2026-04-18T08:54:59.001Z</time></trkpt><trkpt lat="43.485786632382386" lon="10.926258368574183"><ele>377.0</ele><time>2026-04-18T08:55:00.001Z</time></trkpt><trkpt lat="43.48563987785904" lon="10.926270041416982"><ele>376.5</ele><time>2026-04-18T08:55:01.001Z</time></trkpt><trkpt lat="43.4855084449681" lon="10.926272955275088"><ele>376.0</ele><time>2026-04-18T08:55:02.001Z</time></trkpt><trkpt lat="43.485389997751575" lon="10.926279624477127"><ele>374.4</ele><time>2026-04-18T08:55:03.001Z</time></trkpt><trkpt lat="43.485289095348634" lon="10.926281016381848"><ele>372.8</ele><time>2026-04-18T08:55:04.001Z</time></trkpt><trkpt lat="43.48519338523652" lon="10.926265959797217"><ele>371.2</ele><time>2026-04-18T08:55:05.001Z</time></trkpt><trkpt lat="43.485097493855285" lon="10.926222189793984"><ele>369.59999999999997</ele><time>2026-04-18T08:55:06.001Z</time></trkpt><trkpt lat="43.48500516802862" lon="10.926161019481546"><ele>368.0</ele><time>2026-04-18T08:55:07.001Z</time></trkpt><trkpt lat="43.48491962713309" lon="10.926065061933125"><ele>368.0</ele><time>2026-04-18T08:55:08.001Z</time></trkpt><trkpt lat="43.484837461785155" lon="10.92592754645645"><ele>368.0</ele><time>2026-04-18T08:55:09.001Z</time></trkpt><trkpt lat="43.484743922626215" lon="10.92581085050232"><ele>368.0</ele><time>2026-04-18T08:55:10.001Z</time></trkpt><trkpt lat="43.48465810456982" lon="10.92572794120408"><ele>368.0</ele><time>2026-04-18T08:55:11.001Z</time></trkpt><trkpt lat="43.48459866372951" lon="10.925637100619491"><ele>368.0</ele><time>2026-04-18T08:55:12.001Z</time></trkpt><trkpt lat="43.48452451083878" lon="10.92556199733592"><ele>367.0</ele><time>2026-04-18T08:55:13.001Z</time></trkpt><trkpt lat="43.48444837994217" lon="10.925513314878376"><ele>366.0</ele><time>2026-04-18T08:55:14.001Z</time></trkpt><trkpt lat="43.48435823166203" lon="10.925489739662398"><ele>365.0</ele><time>2026-04-18T08:55:15.001Z</time></trkpt><trkpt lat="43.484258225863904" lon="10.925491921210469"><ele>364.0</ele><time>2026-04-18T08:55:16.001Z</time></trkpt><trkpt lat="43.48415799030521" lon="10.925519370304684"><ele>363.0</ele><time>2026-04-18T08:55:17.001Z</time></trkpt><trkpt lat="43.48405502654437" lon="10.925566426890649"><ele>363.0</ele><time>2026-04-18T08:55:18.001Z</time></trkpt><trkpt lat="43.48395328045312" lon="10.92562057975675"><ele>363.0</ele><time>2026-04-18T08:55:19.001Z</time></trkpt><trkpt lat="43.48384710847553" lon="10.925699691090363"><ele>363.0</ele><time>2026-04-18T08:55:20.001Z</time></trkpt><trkpt lat="43.48373799876987" lon="10.92581866871295"><ele>363.0</ele><time>2026-04-18T08:55:21.001Z</time></trkpt><trkpt lat="43.48363049530535" lon="10.925951184863006"><ele>360.5</ele><time>2026-04-18T08:55:22.001Z</time></trkpt><trkpt lat="43.48352340665804" lon="10.926055845000688"><ele>358.0</ele><time>2026-04-18T08:55:23.001Z</time></trkpt><trkpt lat="43.48342336436551" lon="10.926171632998587"><ele>355.5</ele><time>2026-04-18T08:55:24.001Z</time></trkpt><trkpt lat="43.48330793621944" lon="10.926266700336177"><ele>353.0</ele><time>2026-04-18T08:55:25.001Z</time></trkpt><trkpt lat="43.48318265256705" lon="10.926344408567072"><ele>353.0</ele><time>2026-04-18T08:55:26.001Z</time></trkpt><trkpt lat="43.48304951687428" lon="10.926405085595173"><ele>353.0</ele><time>2026-04-18T08:55:27.001Z</time></trkpt><trkpt lat="43.482909098116814" lon="10.926462943155574"><ele>353.0</ele><time>2026-04-18T08:55:28.001Z</time></trkpt><trkpt lat="43.482761940608434" lon="10.926495046821172"><ele>353.0</ele><time>2026-04-18T08:55:29.001Z</time></trkpt><trkpt lat="43.482630879385326" lon="10.926562152336922"><ele>352.75</ele><time>2026-04-18T08:55:30.001Z</time></trkpt><trkpt lat="43.482508383627625" lon="10.926612197739363"><ele>352.5</ele><time>2026-04-18T08:55:31.001Z</time></trkpt><trkpt lat="43.48239821188939" lon="10.92667508935206"><ele>352.25</ele><time>2026-04-18T08:55:32.001Z</time></trkpt><trkpt lat="43.482291836756204" lon="10.926757048341353"><ele>352.0</ele><time>2026-04-18T08:55:33.001Z</time></trkpt><trkpt lat="43.48218470201667" lon="10.926843408208768"><ele>351.75</ele><time>2026-04-18T08:55:34.001Z</time></trkpt><trkpt lat="43.48209862435436" lon="10.926996342647579"><ele>351.5</ele><time>2026-04-18T08:55:35.001Z</time></trkpt><trkpt lat="43.482000555162095" lon="10.927133474048572"><ele>351.25</ele><time>2026-04-18T08:55:36.001Z</time></trkpt><trkpt lat="43.48190880316895" lon="10.927243985048838"><ele>351.0</ele><time>2026-04-18T08:55:37.001Z</time></trkpt><trkpt lat="43.48182092440817" lon="10.927328687994587"><ele>350.20000000000005</ele><time>2026-04-18T08:55:38.001Z</time></trkpt><trkpt lat="43.481725219195546" lon="10.927383472384504"><ele>349.40000000000003</ele><time>2026-04-18T08:55:39.001Z</time></trkpt><trkpt lat="43.481618068186165" lon="10.927415629558016"><ele>348.6</ele><time>2026-04-18T08:55:40.001Z</time></trkpt><trkpt lat="43.48150752769619" lon="10.927380190194844"><ele>347.8</ele><time>2026-04-18T08:55:41.001Z</time></trkpt><trkpt lat="43.48138499290672" lon="10.927380621684218"><ele>347.0</ele><time>2026-04-18T08:55:42.001Z</time></trkpt><trkpt lat="43.48124724520757" lon="10.927353212605711"><ele>346.0</ele><time>2026-04-18T08:55:43.001Z</time></trkpt><trkpt lat="43.48110526543223" lon="10.927299775667448"><ele>345.0</ele><time>2026-04-18T08:55:44.001Z</time></trkpt><trkpt lat="43.4809444817608" lon="10.927284691646655"><ele>344.0</ele><time>2026-04-18T08:55:45.001Z</time></trkpt><trkpt lat="43.4807821382994" lon="10.927240919458228"><ele>344.0</ele><time>2026-04-18T08:55:46.001Z</time></trkpt><trkpt lat="43.48061019619587" lon="10.927227324799441"><ele>344.0</ele><time>2026-04-18T08:55:47.001Z</time></trkpt><trkpt lat="43.48043360929919" lon="10.927209886142803"><ele>344.0</ele><time>2026-04-18T08:55:48.001Z</time></trkpt><trkpt lat="43.480276524108795" lon="10.927192426606625"><ele>343.5</ele><time>2026-04-18T08:55:49.001Z</time></trkpt><trkpt lat="43.48013106349185" lon="10.927179799829212"><ele>343.0</ele><time>2026-04-18T08:55:50.001Z</time></trkpt><trkpt lat="43.479993312815985" lon="10.927172813597357"><ele>342.5</ele><time>2026-04-18T08:55:51.001Z</time></trkpt><trkpt lat="43.47984886883429" lon="10.927166396327182"><ele>342.0</ele><time>2026-04-18T08:55:52.001Z</time></trkpt><trkpt lat="43.47969572340403" lon="10.9271737278456"><ele>341.25</ele><time>2026-04-18T08:55:53.002Z</time></trkpt><trkpt lat="43.47954270263585" lon="10.927176908883558"><ele>340.5</ele><time>2026-04-18T08:55:54.002Z</time></trkpt><trkpt lat="43.47940006787722" lon="10.927186257059791"><ele>339.75</ele><time>2026-04-18T08:55:55.002Z</time></trkpt><trkpt lat="43.47925702037566" lon="10.927195361863085"><ele>339.0</ele><time>2026-04-18T08:55:56.002Z</time></trkpt><trkpt lat="43.47910889896103" lon="10.927200894529877"><ele>339.0</ele><time>2026-04-18T08:55:57.002Z</time></trkpt><trkpt lat="43.47897360572909" lon="10.927196215434572"><ele>339.0</ele><time>2026-04-18T08:55:58.002Z</time></trkpt><trkpt lat="43.47884880065539" lon="10.92718980918068"><ele>339.0</ele><time>2026-04-18T08:55:59.002Z</time></trkpt><trkpt lat="43.4787295182824" lon="10.927148285941927"><ele>339.0</ele><time>2026-04-18T08:56:00.002Z</time></trkpt><trkpt lat="43.47860700624646" lon="10.927101768274714"><ele>337.0</ele><time>2026-04-18T08:56:01.002Z</time></trkpt><trkpt lat="43.47846553089126" lon="10.927040646146407"><ele>335.0</ele><time>2026-04-18T08:56:02.002Z</time></trkpt><trkpt lat="43.47830265395119" lon="10.926993523844287"><ele>333.0</ele><time>2026-04-18T08:56:03.002Z</time></trkpt><trkpt lat="43.47813930491608" lon="10.926919687563766"><ele>333.0</ele><time>2026-04-18T08:56:04.002Z</time></trkpt><trkpt lat="43.47798060376911" lon="10.926856476561886"><ele>333.0</ele><time>2026-04-18T08:56:05.002Z</time></trkpt><trkpt lat="43.477839303869985" lon="10.926776318094412"><ele>333.0</ele><time>2026-04-18T08:56:06.002Z</time></trkpt><trkpt lat="43.47769142984677" lon="10.926712050872176"><ele>334.3333333333333</ele><time>2026-04-18T08:56:07.002Z</time></trkpt><trkpt lat="43.47753812075123" lon="10.926664883889948"><ele>335.66666666666663</ele><time>2026-04-18T08:56:08.002Z</time></trkpt><trkpt lat="43.47739025151866" lon="10.92657796030612"><ele>337.0</ele><time>2026-04-18T08:56:09.002Z</time></trkpt><trkpt lat="43.47723341730397" lon="10.926477534958453"><ele>333.0</ele><time>2026-04-18T08:56:10.002Z</time></trkpt><trkpt lat="43.47706656441426" lon="10.926366331624143"><ele>329.0</ele><time>2026-04-18T08:56:11.002Z</time></trkpt><trkpt lat="43.4768980679113" lon="10.926254408660114"><ele>325.0</ele><time>2026-04-18T08:56:12.002Z</time></trkpt><trkpt lat="43.47675629218962" lon="10.92612861365143"><ele>325.0</ele><time>2026-04-18T08:56:13.002Z</time></trkpt><trkpt lat="43.47661776810553" lon="10.926030670490166"><ele>325.0</ele><time>2026-04-18T08:56:14.002Z</time></trkpt><trkpt lat="43.47649399626635" lon="10.92594315787354"><ele>325.0</ele><time>2026-04-18T08:56:15.002Z</time></trkpt><trkpt lat="43.476385847234766" lon="10.925866691326403"><ele>325.0</ele><time>2026-04-18T08:56:16.002Z</time></trkpt><trkpt lat="43.476277578505396" lon="10.925843229624206"><ele>325.0</ele><time>2026-04-18T08:56:17.002Z</time></trkpt><trkpt lat="43.47617979279532" lon="10.92579859147434"><ele>325.0</ele><time>2026-04-18T08:56:18.002Z</time></trkpt><trkpt lat="43.47607503681894" lon="10.92576965804139"><ele>325.0</ele><time>2026-04-18T08:56:19.002Z</time></trkpt><trkpt lat="43.475969190042996" lon="10.925739638736978"><ele>325.0</ele><time>2026-04-18T08:56:20.002Z</time></trkpt><trkpt lat="43.47588007244647" lon="10.92572329507642"><ele>325.0</ele><time>2026-04-18T08:56:21.002Z</time></trkpt><trkpt lat="43.475786731156134" lon="10.925738508244192"><ele>325.0</ele><time>2026-04-18T08:56:22.002Z</time></trkpt><trkpt lat="43.47567954798122" lon="10.925780117308095"><ele>325.0</ele><time>2026-04-18T08:56:23.002Z</time></trkpt><trkpt lat="43.47555975329255" lon="10.925819167011207"><ele>325.0</ele><time>2026-04-18T08:56:24.002Z</time></trkpt><trkpt lat="43.47543229841886" lon="10.925853615528581"><ele>325.0</ele><time>2026-04-18T08:56:25.002Z</time></trkpt><trkpt lat="43.47529975461146" lon="10.92589428131653"><ele>318.75</ele><time>2026-04-18T08:56:26.002Z</time></trkpt><trkpt lat="43.47517004840301" lon="10.925926886564934"><ele>312.5</ele><time>2026-04-18T08:56:27.002Z</time></trkpt><trkpt lat="43.475051192718645" lon="10.9259594713962"><ele>306.25</ele><time>2026-04-18T08:56:28.002Z</time></trkpt><trkpt lat="43.4749351284483" lon="10.925990474067774"><ele>300.0</ele><time>2026-04-18T08:56:29.002Z</time></trkpt><trkpt lat="43.47481493387143" lon="10.926021101674406"><ele>300.0</ele><time>2026-04-18T08:56:30.002Z</time></trkpt><trkpt lat="43.47470221511475" lon="10.926038308550162"><ele>300.0</ele><time>2026-04-18T08:56:31.002Z</time></trkpt><trkpt lat="43.47459722507607" lon="10.926045751851508"><ele>300.0</ele><time>2026-04-18T08:56:32.002Z</time></trkpt><trkpt lat="43.47450605536954" lon="10.926045885217432"><ele>300.0</ele><time>2026-04-18T08:56:33.002Z</time></trkpt><trkpt lat="43.47442371132812" lon="10.926033813196016"><ele>300.0</ele><time>2026-04-18T08:56:34.002Z</time></trkpt><trkpt lat="43.47433848694664" lon="10.925993967590568"><ele>301.75</ele><time>2026-04-18T08:56:35.002Z</time></trkpt><trkpt lat="43.47424828330004" lon="10.925932182716565"><ele>303.5</ele><time>2026-04-18T08:56:36.002Z</time></trkpt><trkpt lat="43.474154392332835" lon="10.925852127377002"><ele>305.25</ele><time>2026-04-18T08:56:37.002Z</time></trkpt><trkpt lat="43.47405740081297" lon="10.925747323072606"><ele>307.0</ele><time>2026-04-18T08:56:38.002Z</time></trkpt><trkpt lat="43.47395851674302" lon="10.925619947511056"><ele>307.0</ele><time>2026-04-18T08:56:39.002Z</time></trkpt><trkpt lat="43.47385876662003" lon="10.925483258065015"><ele>307.0</ele><time>2026-04-18T08:56:40.002Z</time></trkpt><trkpt lat="43.47377315081864" lon="10.925359836329584"><ele>307.0</ele><time>2026-04-18T08:56:41.003Z</time></trkpt><trkpt lat="43.473697245785836" lon="10.925249201339543"><ele>307.0</ele><time>2026-04-18T08:56:42.003Z</time></trkpt><trkpt lat="43.47356570724394" lon="10.924987976648193"><ele>305.0</ele><time>2026-04-18T08:56:44Z</time></trkpt><trkpt lat="43.473497012867384" lon="10.92483137748392"><ele>303.0</ele><time>2026-04-18T08:56:45Z</time></trkpt><trkpt lat="43.47342834969024" lon="10.92468927962204"><ele>301.0</ele><time>2026-04-18T08:56:46Z</time></trkpt><trkpt lat="43.473353334240564" lon="10.924555879168011"><ele>299.0</ele><time>2026-04-18T08:56:47Z</time></trkpt><trkpt lat="43.47328697390304" lon="10.924427322788706"><ele>299.0</ele><time>2026-04-18T08:56:48Z</time></trkpt><trkpt lat="43.47318206140416" lon="10.924340499190217"><ele>299.0</ele><time>2026-04-18T08:56:49Z</time></trkpt><trkpt lat="43.47308228912212" lon="10.924221771877262"><ele>299.0</ele><time>2026-04-18T08:56:50Z</time></trkpt><trkpt lat="43.47295253419748" lon="10.92412902643053"><ele>299.0</ele><time>2026-04-18T08:56:51Z</time></trkpt><trkpt lat="43.472819466917336" lon="10.924014474580092"><ele>296.5</ele><time>2026-04-18T08:56:52Z</time></trkpt><trkpt lat="43.47269057468565" lon="10.923914342937733"><ele>294.0</ele><time>2026-04-18T08:56:53Z</time></trkpt><trkpt lat="43.47256911053769" lon="10.923826978224968"><ele>291.5</ele><time>2026-04-18T08:56:54Z</time></trkpt><trkpt lat="43.47246231260793" lon="10.923737136881078"><ele>289.0</ele><time>2026-04-18T08:56:55Z</time></trkpt><trkpt lat="43.47236197745259" lon="10.923650628679875"><ele>289.0</ele><time>2026-04-18T08:56:56Z</time></trkpt><trkpt lat="43.47227455645874" lon="10.923571446690337"><ele>289.0</ele><time>2026-04-18T08:56:57Z</time></trkpt><trkpt lat="43.472202643176104" lon="10.923496469786164"><ele>289.0</ele><time>2026-04-18T08:56:58Z</time></trkpt><trkpt lat="43.47215342706837" lon="10.923415105936202"><ele>289.0</ele><time>2026-04-18T08:56:59Z</time></trkpt><trkpt lat="43.472123777232326" lon="10.923317743678519"><ele>289.0</ele><time>2026-04-18T08:57:00Z</time></trkpt><trkpt lat="43.47210877331279" lon="10.923204733415774"><ele>289.0</ele><time>2026-04-18T08:57:01Z</time></trkpt><trkpt lat="43.47211878739434" lon="10.923071579048155"><ele>290.0</ele><time>2026-04-18T08:57:02Z</time></trkpt><trkpt lat="43.47215910055203" lon="10.922942638719686"><ele>291.0</ele><time>2026-04-18T08:57:03Z</time></trkpt><trkpt lat="43.47223709921247" lon="10.922843500157537"><ele>292.0</ele><time>2026-04-18T08:57:04Z</time></trkpt><trkpt lat="43.472309826597765" lon="10.922708118742698"><ele>293.0</ele><time>2026-04-18T08:57:05Z</time></trkpt><trkpt lat="43.47242545576729" lon="10.92258171454234"><ele>289.33333333333337</ele><time>2026-04-18T08:57:06Z</time></trkpt><trkpt lat="43.472561772304225" lon="10.92246713184348"><ele>285.6666666666667</ele><time>2026-04-18T08:57:07Z</time></trkpt><trkpt lat="43.47267277330686" lon="10.922335444909015"><ele>282.0</ele><time>2026-04-18T08:57:08Z</time></trkpt><trkpt lat="43.47278168424504" lon="10.922203527677645"><ele>282.0</ele><time>2026-04-18T08:57:09Z</time></trkpt><trkpt lat="43.4728927984883" lon="10.92207401181399"><ele>282.0</ele><time>2026-04-18T08:57:10Z</time></trkpt><trkpt lat="43.47300622134701" lon="10.921907192149607"><ele>282.0</ele><time>2026-04-18T08:57:11Z</time></trkpt><trkpt lat="43.47309524537866" lon="10.92174682497909"><ele>281.5</ele><time>2026-04-18T08:57:12Z</time></trkpt><trkpt lat="43.47316931328708" lon="10.921627479452914"><ele>281.0</ele><time>2026-04-18T08:57:13Z</time></trkpt><trkpt lat="43.47323080330373" lon="10.921512556183197"><ele>280.5</ele><time>2026-04-18T08:57:14Z</time></trkpt><trkpt lat="43.47328949501002" lon="10.921385040959835"><ele>280.0</ele><time>2026-04-18T08:57:15Z</time></trkpt><trkpt lat="43.473335413657196" lon="10.921222734331375"><ele>280.0</ele><time>2026-04-18T08:57:16Z</time></trkpt><trkpt lat="43.4733680538281" lon="10.92102489552777"><ele>280.0</ele><time>2026-04-18T08:57:17Z</time></trkpt><trkpt lat="43.47339821402598" lon="10.920805842265697"><ele>280.0</ele><time>2026-04-18T08:57:18Z</time></trkpt><trkpt lat="43.473414787050054" lon="10.920620585027695"><ele>280.0</ele><time>2026-04-18T08:57:19.001Z</time></trkpt><trkpt lat="43.47342624848619" lon="10.92047538913217"><ele>278.0</ele><time>2026-04-18T08:57:20.001Z</time></trkpt><trkpt lat="43.473416290377905" lon="10.920334558921036"><ele>276.0</ele><time>2026-04-18T08:57:21.001Z</time></trkpt><trkpt lat="43.473383640116225" lon="10.92019744974528"><ele>274.0</ele><time>2026-04-18T08:57:22.001Z</time></trkpt><trkpt lat="43.47333555570293" lon="10.92006903587197"><ele>272.0</ele><time>2026-04-18T08:57:23.001Z</time></trkpt><trkpt lat="43.47328269878456" lon="10.919949219817072"><ele>270.0</ele><time>2026-04-18T08:57:24.001Z</time></trkpt><trkpt lat="43.473186881986315" lon="10.919875378699386"><ele>268.6</ele><time>2026-04-18T08:57:25.001Z</time></trkpt><trkpt lat="43.47310200393918" lon="10.919783355824208"><ele>267.2</ele><time>2026-04-18T08:57:26.001Z</time></trkpt><trkpt lat="43.47303013035048" lon="10.919690460758126"><ele>265.8</ele><time>2026-04-18T08:57:27.001Z</time></trkpt><trkpt lat="43.47298365889135" lon="10.91955713102561"><ele>264.4</ele><time>2026-04-18T08:57:28.001Z</time></trkpt><trkpt lat="43.47293810630315" lon="10.919406167855206"><ele>263.0</ele><time>2026-04-18T08:57:29.001Z</time></trkpt><trkpt lat="43.47291816120292" lon="10.919228224964604"><ele>260.75</ele><time>2026-04-18T08:57:30.001Z</time></trkpt><trkpt lat="43.47290875030933" lon="10.919036979351914"><ele>258.5</ele><time>2026-04-18T08:57:31.001Z</time></trkpt><trkpt lat="43.47287584531593" lon="10.91885881232844"><ele>256.25</ele><time>2026-04-18T08:57:32.001Z</time></trkpt><trkpt lat="43.472844375534535" lon="10.91869876509706"><ele>254.0</ele><time>2026-04-18T08:57:33.001Z</time></trkpt><trkpt lat="43.47278945456784" lon="10.918559885838528"><ele>254.0</ele><time>2026-04-18T08:57:34.001Z</time></trkpt><trkpt lat="43.472725703739705" lon="10.918427639229197"><ele>254.0</ele><time>2026-04-18T08:57:35.001Z</time></trkpt><trkpt lat="43.4726566286079" lon="10.918254485497496"><ele>254.0</ele><time>2026-04-18T08:57:36.001Z</time></trkpt><trkpt lat="43.47256571047514" lon="10.918075429617724"><ele>254.0</ele><time>2026-04-18T08:57:37.001Z</time></trkpt><trkpt lat="43.47248121944253" lon="10.917909526266193"><ele>252.5</ele><time>2026-04-18T08:57:38.001Z</time></trkpt><trkpt lat="43.47240301925245" lon="10.917756219088702"><ele>251.0</ele><time>2026-04-18T08:57:39.001Z</time></trkpt><trkpt lat="43.47233381522218" lon="10.917620548460691"><ele>249.5</ele><time>2026-04-18T08:57:40.001Z</time></trkpt><trkpt lat="43.47225357269571" lon="10.917511530744758"><ele>248.0</ele><time>2026-04-18T08:57:41.001Z</time></trkpt><trkpt lat="43.47218311788422" lon="10.917404291595991"><ele>247.4</ele><time>2026-04-18T08:57:42.001Z</time></trkpt><trkpt lat="43.472114991241284" lon="10.917303964027562"><ele>246.8</ele><time>2026-04-18T08:57:43.001Z</time></trkpt><trkpt lat="43.472012361505556" lon="10.917238561904638"><ele>246.2</ele><time>2026-04-18T08:57:44.001Z</time></trkpt><trkpt lat="43.47189801490303" lon="10.917178101880616"><ele>245.6</ele><time>2026-04-18T08:57:45.001Z</time></trkpt><trkpt lat="43.47179175968174" lon="10.917169994267423"><ele>245.0</ele><time>2026-04-18T08:57:46.001Z</time></trkpt><trkpt lat="43.47170539164552" lon="10.917139674035571"><ele>243.75</ele><time>2026-04-18T08:57:47.001Z</time></trkpt><trkpt lat="43.47161119521634" lon="10.917152020917165"><ele>242.5</ele><time>2026-04-18T08:57:48.001Z</time></trkpt><trkpt lat="43.47150533789034" lon="10.917195992038698"><ele>241.25</ele><time>2026-04-18T08:57:49.001Z</time></trkpt><trkpt lat="43.47139154968946" lon="10.917292977236247"><ele>240.0</ele><time>2026-04-18T08:57:50.001Z</time></trkpt><trkpt lat="43.47128813514741" lon="10.917395993638719"><ele>239.5</ele><time>2026-04-18T08:57:51.001Z</time></trkpt><trkpt lat="43.47119598231055" lon="10.917520955303152"><ele>239.0</ele><time>2026-04-18T08:57:52.001Z</time></trkpt><trkpt lat="43.47108359048805" lon="10.917639119667461"><ele>238.5</ele><time>2026-04-18T08:57:53.001Z</time></trkpt><trkpt lat="43.470954689325325" lon="10.91774636010779"><ele>238.0</ele><time>2026-04-18T08:57:54.001Z</time></trkpt><trkpt lat="43.470843113086616" lon="10.917863665967612"><ele>238.0</ele><time>2026-04-18T08:57:55.001Z</time></trkpt><trkpt lat="43.47073883014674" lon="10.917969425429442"><ele>238.0</ele><time>2026-04-18T08:57:56.001Z</time></trkpt><trkpt lat="43.47063491915109" lon="10.918072505826235"><ele>238.0</ele><time>2026-04-18T08:57:57.001Z</time></trkpt><trkpt lat="43.47052746464505" lon="10.918188237131927"><ele>238.0</ele><time>2026-04-18T08:57:58.001Z</time></trkpt><trkpt lat="43.47043618082953" lon="10.918313484254364"><ele>236.99999999999997</ele><time>2026-04-18T08:57:59.001Z</time></trkpt><trkpt lat="43.47034465234159" lon="10.918399371499087"><ele>236.0</ele><time>2026-04-18T08:58:00.001Z</time></trkpt><trkpt lat="43.47027144632121" lon="10.918468537893558"><ele>235.0</ele><time>2026-04-18T08:58:01.001Z</time></trkpt><trkpt lat="43.47020280183253" lon="10.91851416163596"><ele>234.0</ele><time>2026-04-18T08:58:02.001Z</time></trkpt><trkpt lat="43.47012725875749" lon="10.918536739265244"><ele>232.99999999999997</ele><time>2026-04-18T08:58:03.001Z</time></trkpt><trkpt lat="43.470043360045324" lon="10.918521806462888"><ele>232.0</ele><time>2026-04-18T08:58:04.001Z</time></trkpt><trkpt lat="43.469962713035514" lon="10.918437087116017"><ele>230.8</ele><time>2026-04-18T08:58:05.001Z</time></trkpt><trkpt lat="43.46990459870474" lon="10.918342248697513"><ele>229.6</ele><time>2026-04-18T08:58:06.001Z</time></trkpt><trkpt lat="43.46989112856441" lon="10.918243905846989"><ele>228.40000000000003</ele><time>2026-04-18T08:58:07.002Z</time></trkpt><trkpt lat="43.46990828904355" lon="10.918125645024015"><ele>227.20000000000002</ele><time>2026-04-18T08:58:08.002Z</time></trkpt><trkpt lat="43.469931874841166" lon="10.917973904238792"><ele>226.0</ele><time>2026-04-18T08:58:09.002Z</time></trkpt><trkpt lat="43.4699616618228" lon="10.917798637301226"><ele>225.99999999999997</ele><time>2026-04-18T08:58:10.002Z</time></trkpt><trkpt lat="43.46996658519759" lon="10.91765086825195"><ele>226.0</ele><time>2026-04-18T08:58:11.002Z</time></trkpt><trkpt lat="43.469986970892954" lon="10.917545509206864"><ele>226.0</ele><time>2026-04-18T08:58:12.002Z</time></trkpt><trkpt lat="43.469978797632386" lon="10.917437951464258"><ele>226.0</ele><time>2026-04-18T08:58:13.002Z</time></trkpt><trkpt lat="43.469933413930505" lon="10.917355045557715"><ele>225.99999999999997</ele><time>2026-04-18T08:58:14.002Z</time></trkpt><trkpt lat="43.4698773165877" lon="10.917276015416364"><ele>226.0</ele><time>2026-04-18T08:58:15.002Z</time></trkpt><trkpt lat="43.46979902893923" lon="10.917229615847873"><ele>224.5</ele><time>2026-04-18T08:58:16.002Z</time></trkpt><trkpt lat="43.469696104826724" lon="10.917212783659929"><ele>223.0</ele><time>2026-04-18T08:58:17.002Z</time></trkpt><trkpt lat="43.46957359978032" lon="10.917212287647905"><ele>221.5</ele><time>2026-04-18T08:58:18.002Z</time></trkpt><trkpt lat="43.46943762850786" lon="10.917197039223783"><ele>220.0</ele><time>2026-04-18T08:58:19.002Z</time></trkpt><trkpt lat="43.469281223702" lon="10.917198958731209"><ele>216.66666666666666</ele><time>2026-04-18T08:58:20.002Z</time></trkpt><trkpt lat="43.46910813517146" lon="10.917201944922844"><ele>213.33333333333331</ele><time>2026-04-18T08:58:21.002Z</time></trkpt><trkpt lat="43.46894856907823" lon="10.917203830152223"><ele>210.0</ele><time>2026-04-18T08:58:22.002Z</time></trkpt><trkpt lat="43.46881034577877" lon="10.917204188665282"><ele>208.25</ele><time>2026-04-18T08:58:23.002Z</time></trkpt><trkpt lat="43.46868368615445" lon="10.917222968827655"><ele>206.5</ele><time>2026-04-18T08:58:24.002Z</time></trkpt><trkpt lat="43.46856236047949" lon="10.917223747540136"><ele>204.75</ele><time>2026-04-18T08:58:25.002Z</time></trkpt><trkpt lat="43.468444604480815" lon="10.91721308107627"><ele>203.0</ele><time>2026-04-18T08:58:26.002Z</time></trkpt><trkpt lat="43.46832944366898" lon="10.917167188860489"><ele>203.0</ele><time>2026-04-18T08:58:27.002Z</time></trkpt><trkpt lat="43.468209494580776" lon="10.917115378291728"><ele>203.0</ele><time>2026-04-18T08:58:28.002Z</time></trkpt><trkpt lat="43.468095410574136" lon="10.917044986140443"><ele>203.0</ele><time>2026-04-18T08:58:29.002Z</time></trkpt><trkpt lat="43.46798084887904" lon="10.916957959203138"><ele>203.0</ele><time>2026-04-18T08:58:30.002Z</time></trkpt><trkpt lat="43.46788557859288" lon="10.916871263905312"><ele>202.4</ele><time>2026-04-18T08:58:31.002Z</time></trkpt><trkpt lat="43.467809412898035" lon="10.916784170124936"><ele>201.8</ele><time>2026-04-18T08:58:32.002Z</time></trkpt><trkpt lat="43.467752391019246" lon="10.916687860330132"><ele>201.2</ele><time>2026-04-18T08:58:33.002Z</time></trkpt><trkpt lat="43.46769246396849" lon="10.916574689183419"><ele>200.6</ele><time>2026-04-18T08:58:34.002Z</time></trkpt><trkpt lat="43.467693310667364" lon="10.916418684056852"><ele>200.0</ele><time>2026-04-18T08:58:35.002Z</time></trkpt><trkpt lat="43.467700829244365" lon="10.916277394497879"><ele>199.0</ele><time>2026-04-18T08:58:36.002Z</time></trkpt><trkpt lat="43.46772734549664" lon="10.916119301496114"><ele>198.0</ele><time>2026-04-18T08:58:37.002Z</time></trkpt><trkpt lat="43.46776334840169" lon="10.91593190949882"><ele>197.0</ele><time>2026-04-18T08:58:38.002Z</time></trkpt><trkpt lat="43.46780538723396" lon="10.915727676363224"><ele>196.0</ele><time>2026-04-18T08:58:39.002Z</time></trkpt><trkpt lat="43.46783540218199" lon="10.915537948927167"><ele>194.5</ele><time>2026-04-18T08:58:40.002Z</time></trkpt><trkpt lat="43.46786064591035" lon="10.915366389195182"><ele>193.0</ele><time>2026-04-18T08:58:41.002Z</time></trkpt><trkpt lat="43.46787869254475" lon="10.915192859746178"><ele>191.5</ele><time>2026-04-18T08:58:42.002Z</time></trkpt><trkpt lat="43.467858569583235" lon="10.9150032618934"><ele>190.0</ele><time>2026-04-18T08:58:43.002Z</time></trkpt><trkpt lat="43.46783413906793" lon="10.914791567903833"><ele>189.0</ele><time>2026-04-18T08:58:44.002Z</time></trkpt><trkpt lat="43.467809256272744" lon="10.914548319943046"><ele>188.0</ele><time>2026-04-18T08:58:45.002Z</time></trkpt><trkpt lat="43.46778521617232" lon="10.914289567841003"><ele>187.0</ele><time>2026-04-18T08:58:46.002Z</time></trkpt><trkpt lat="43.467762456098214" lon="10.914043974196035"><ele>186.75</ele><time>2026-04-18T08:58:47.002Z</time></trkpt><trkpt lat="43.46773518380879" lon="10.913824483820255"><ele>186.5</ele><time>2026-04-18T08:58:48.002Z</time></trkpt><trkpt lat="43.4677249528115" lon="10.9136231396927"><ele>186.25</ele><time>2026-04-18T08:58:49Z</time></trkpt><trkpt lat="43.46770030648259" lon="10.913441514266376"><ele>186.0</ele><time>2026-04-18T08:58:50Z</time></trkpt><trkpt lat="43.4676500355478" lon="10.913303262077266"><ele>185.66666666666666</ele><time>2026-04-18T08:58:51Z</time></trkpt><trkpt lat="43.46762314279622" lon="10.913182922830837"><ele>185.33333333333334</ele><time>2026-04-18T08:58:52Z</time></trkpt><trkpt lat="43.46758873336927" lon="10.913095255641132"><ele>185.0</ele><time>2026-04-18T08:58:53Z</time></trkpt><trkpt lat="43.46753645460379" lon="10.91304675112417"><ele>184.66666666666669</ele><time>2026-04-18T08:58:54Z</time></trkpt><trkpt lat="43.46747123746688" lon="10.913016328989084"><ele>184.33333333333334</ele><time>2026-04-18T08:58:55Z</time></trkpt><trkpt lat="43.46738846301989" lon="10.913017370314144"><ele>184.0</ele><time>2026-04-18T08:58:56Z</time></trkpt><trkpt lat="43.467285867746405" lon="10.91303979538487"><ele>184.0</ele><time>2026-04-18T08:58:57Z</time></trkpt><trkpt lat="43.4671737932184" lon="10.913081923603283"><ele>184.0</ele><time>2026-04-18T08:58:58Z</time></trkpt><trkpt lat="43.467047062811275" lon="10.913137418203759"><ele>184.0</ele><time>2026-04-18T08:58:59Z</time></trkpt><trkpt lat="43.46691863906202" lon="10.91316051100875"><ele>184.0</ele><time>2026-04-18T08:59:00Z</time></trkpt><trkpt lat="43.46681450168685" lon="10.913209617794925"><ele>185.0</ele><time>2026-04-18T08:59:01Z</time></trkpt><trkpt lat="43.46669488435993" lon="10.91317761551126"><ele>186.0</ele><time>2026-04-18T08:59:02Z</time></trkpt><trkpt lat="43.466548091807624" lon="10.913175307705073"><ele>187.0</ele><time>2026-04-18T08:59:03Z</time></trkpt><trkpt lat="43.466392508459286" lon="10.913128452821972"><ele>188.0</ele><time>2026-04-18T08:59:04Z</time></trkpt><trkpt lat="43.466225564028015" lon="10.913120826893064"><ele>189.33333333333331</ele><time>2026-04-18T08:59:05Z</time></trkpt><trkpt lat="43.46606170062609" lon="10.913071101788454"><ele>190.66666666666666</ele><time>2026-04-18T08:59:06Z</time></trkpt><trkpt lat="43.46590442067875" lon="10.913031515611015"><ele>192.0</ele><time>2026-04-18T08:59:07Z</time></trkpt><trkpt lat="43.465756462466125" lon="10.913008763842322"><ele>192.0</ele><time>2026-04-18T08:59:08Z</time></trkpt><trkpt lat="43.46564043388811" lon="10.913001316556896"><ele>192.0</ele><time>2026-04-18T08:59:09Z</time></trkpt><trkpt lat="43.465535403247074" lon="10.913005487568755"><ele>192.0</ele><time>2026-04-18T08:59:10Z</time></trkpt><trkpt lat="43.46542871195344" lon="10.913040325674872"><ele>192.0</ele><time>2026-04-18T08:59:11Z</time></trkpt><trkpt lat="43.46531532036163" lon="10.913125094107176"><ele>193.0</ele><time>2026-04-18T08:59:12Z</time></trkpt><trkpt lat="43.46520495432117" lon="10.913213569806674"><ele>194.0</ele><time>2026-04-18T08:59:13Z</time></trkpt><trkpt lat="43.465101277445136" lon="10.913314979791462"><ele>195.0</ele><time>2026-04-18T08:59:14Z</time></trkpt><trkpt lat="43.46498686610984" lon="10.913440050809294"><ele>196.0</ele><time>2026-04-18T08:59:15Z</time></trkpt><trkpt lat="43.46487475391538" lon="10.913587283143821"><ele>196.0</ele><time>2026-04-18T08:59:16Z</time></trkpt><trkpt lat="43.46476742284458" lon="10.913713071864798"><ele>196.0</ele><time>2026-04-18T08:59:17Z</time></trkpt><trkpt lat="43.464658907645585" lon="10.913825786404937"><ele>196.0</ele><time>2026-04-18T08:59:18Z</time></trkpt><trkpt lat="43.464553365640334" lon="10.913929781304052"><ele>196.0</ele><time>2026-04-18T08:59:19Z</time></trkpt><trkpt lat="43.464457435753005" lon="10.913996692092418"><ele>195.0</ele><time>2026-04-18T08:59:20Z</time></trkpt><trkpt lat="43.46436737182886" lon="10.914010620267602"><ele>194.0</ele><time>2026-04-18T08:59:21Z</time></trkpt><trkpt lat="43.464281145503776" lon="10.913999613589382"><ele>193.0</ele><time>2026-04-18T08:59:22Z</time></trkpt><trkpt lat="43.46419445839818" lon="10.91394952555646"><ele>192.0</ele><time>2026-04-18T08:59:23Z</time></trkpt><trkpt lat="43.46408939332506" lon="10.913879736607539"><ele>191.0</ele><time>2026-04-18T08:59:24Z</time></trkpt><trkpt lat="43.46398816017565" lon="10.913819096025085"><ele>191.0</ele><time>2026-04-18T08:59:25Z</time></trkpt><trkpt lat="43.46390229534781" lon="10.913767663057454"><ele>191.0</ele><time>2026-04-18T08:59:26Z</time></trkpt><trkpt lat="43.463803609892736" lon="10.913708550549522"><ele>191.0</ele><time>2026-04-18T08:59:28Z</time></trkpt><trkpt lat="43.463697780814066" lon="10.91393947203829"><ele>191.0</ele><time>2026-04-18T08:59:29Z</time></trkpt><trkpt lat="43.46362065399068" lon="10.914052491841499"><ele>192.5</ele><time>2026-04-18T08:59:30Z</time></trkpt><trkpt lat="43.463550823519604" lon="10.914182583731119"><ele>194.0</ele><time>2026-04-18T08:59:31Z</time></trkpt><trkpt lat="43.46348129753789" lon="10.914320162109986"><ele>195.5</ele><time>2026-04-18T08:59:32Z</time></trkpt><trkpt lat="43.46341040009762" lon="10.914461474552525"><ele>197.0</ele><time>2026-04-18T08:59:33Z</time></trkpt><trkpt lat="43.463333852905166" lon="10.914608220000284"><ele>197.0</ele><time>2026-04-18T08:59:34.001Z</time></trkpt><trkpt lat="43.463253356929556" lon="10.914756445887104"><ele>197.0</ele><time>2026-04-18T08:59:35.001Z</time></trkpt><trkpt lat="43.463172380058516" lon="10.914897597848451"><ele>197.0</ele><time>2026-04-18T08:59:36.001Z</time></trkpt><trkpt lat="43.46309452128885" lon="10.915041257659666"><ele>197.0</ele><time>2026-04-18T08:59:37.001Z</time></trkpt><trkpt lat="43.463016497013264" lon="10.91516906359701"><ele>198.75</ele><time>2026-04-18T08:59:38.001Z</time></trkpt><trkpt lat="43.46292710070874" lon="10.915278644948634"><ele>200.5</ele><time>2026-04-18T08:59:39.001Z</time></trkpt><trkpt lat="43.46282025580723" lon="10.915365790041527"><ele>202.25</ele><time>2026-04-18T08:59:40.001Z</time></trkpt><trkpt lat="43.46270279954804" lon="10.915436335933846"><ele>204.0</ele><time>2026-04-18T08:59:41.001Z</time></trkpt><trkpt lat="43.46257199924049" lon="10.915506754381768"><ele>204.0</ele><time>2026-04-18T08:59:42.001Z</time></trkpt><trkpt lat="43.46245166454311" lon="10.91556662491894"><ele>204.0</ele><time>2026-04-18T08:59:43.001Z</time></trkpt><trkpt lat="43.46234442332651" lon="10.91561700731327"><ele>204.0</ele><time>2026-04-18T08:59:44.001Z</time></trkpt><trkpt lat="43.46222124995764" lon="10.915660083847554"><ele>204.0</ele><time>2026-04-18T08:59:45.001Z</time></trkpt><trkpt lat="43.46207710277833" lon="10.91569310994075"><ele>207.66666666666669</ele><time>2026-04-18T08:59:46.001Z</time></trkpt><trkpt lat="43.461931057682044" lon="10.915709754174566"><ele>211.33333333333334</ele><time>2026-04-18T08:59:47.001Z</time></trkpt><trkpt lat="43.46177854288366" lon="10.915737150635072"><ele>215.0</ele><time>2026-04-18T08:59:48.001Z</time></trkpt><trkpt lat="43.46162660522732" lon="10.91577674747421"><ele>215.0</ele><time>2026-04-18T08:59:49.001Z</time></trkpt><trkpt lat="43.461485643004956" lon="10.91581289660648"><ele>215.0</ele><time>2026-04-18T08:59:50.001Z</time></trkpt><trkpt lat="43.46137331771094" lon="10.915841988601038"><ele>215.0</ele><time>2026-04-18T08:59:51.001Z</time></trkpt><trkpt lat="43.46126524106914" lon="10.915862920808422"><ele>215.0</ele><time>2026-04-18T08:59:52.001Z</time></trkpt><trkpt lat="43.46116481096967" lon="10.915872809954214"><ele>216.2</ele><time>2026-04-18T08:59:53.001Z</time></trkpt><trkpt lat="43.461057589743554" lon="10.915858199759967"><ele>217.4</ele><time>2026-04-18T08:59:54.001Z</time></trkpt><trkpt lat="43.4609572620991" lon="10.915805979659666"><ele>218.60000000000002</ele><time>2026-04-18T08:59:55.001Z</time></trkpt><trkpt lat="43.46085175950896" lon="10.915725788911775"><ele>219.8</ele><time>2026-04-18T08:59:56.001Z</time></trkpt><trkpt lat="43.46076189195006" lon="10.915638936141649"><ele>221.0</ele><time>2026-04-18T08:59:57.001Z</time></trkpt><trkpt lat="43.4606724049367" lon="10.915595599118241"><ele>221.0</ele><time>2026-04-18T08:59:58.001Z</time></trkpt><trkpt lat="43.460576949807525" lon="10.915611316107643"><ele>221.00000000000003</ele><time>2026-04-18T08:59:59.001Z</time></trkpt><trkpt lat="43.46048296447362" lon="10.915660552095149"><ele>221.00000000000003</ele><time>2026-04-18T09:00:00.001Z</time></trkpt><trkpt lat="43.460400240671234" lon="10.915739884540393"><ele>221.0</ele><time>2026-04-18T09:00:01.001Z</time></trkpt><trkpt lat="43.4603144787428" lon="10.91584758083331"><ele>221.0</ele><time>2026-04-18T09:00:02.001Z</time></trkpt><trkpt lat="43.46023168642257" lon="10.915908525865067"><ele>219.5</ele><time>2026-04-18T09:00:03.001Z</time></trkpt><trkpt lat="43.460117791925704" lon="10.915937289422407"><ele>218.0</ele><time>2026-04-18T09:00:04.001Z</time></trkpt><trkpt lat="43.45999814321681" lon="10.91592986770666"><ele>216.5</ele><time>2026-04-18T09:00:05.001Z</time></trkpt><trkpt lat="43.45988869568206" lon="10.915882365196902"><ele>215.0</ele><time>2026-04-18T09:00:06.001Z</time></trkpt><trkpt lat="43.45980362916568" lon="10.915809488768291"><ele>218.0</ele><time>2026-04-18T09:00:07.001Z</time></trkpt><trkpt lat="43.45972379148983" lon="10.915706027072842"><ele>221.0</ele><time>2026-04-18T09:00:08.001Z</time></trkpt><trkpt lat="43.45964507060495" lon="10.915580014337994"><ele>224.0</ele><time>2026-04-18T09:00:09.001Z</time></trkpt><trkpt lat="43.45956964195358" lon="10.915442674612665"><ele>227.0</ele><time>2026-04-18T09:00:10.001Z</time></trkpt><trkpt lat="43.45949916474215" lon="10.915321415521753"><ele>227.50000000000003</ele><time>2026-04-18T09:00:11.001Z</time></trkpt><trkpt lat="43.45942523346891" lon="10.915235352106771"><ele>228.0</ele><time>2026-04-18T09:00:12.001Z</time></trkpt><trkpt lat="43.459344805717485" lon="10.915194448915946"><ele>228.5</ele><time>2026-04-18T09:00:13.001Z</time></trkpt><trkpt lat="43.45926311149724" lon="10.915189983499932"><ele>229.0</ele><time>2026-04-18T09:00:14.001Z</time></trkpt><trkpt lat="43.45918409482883" lon="10.915215819173453"><ele>229.50000000000003</ele><time>2026-04-18T09:00:15.001Z</time></trkpt><trkpt lat="43.459109933506966" lon="10.915279779506387"><ele>230.0</ele><time>2026-04-18T09:00:16.001Z</time></trkpt><trkpt lat="43.459024117902146" lon="10.915343854626753"><ele>230.0</ele><time>2026-04-18T09:00:17.001Z</time></trkpt><trkpt lat="43.45892775148457" lon="10.915365657000054"><ele>230.0</ele><time>2026-04-18T09:00:18.001Z</time></trkpt><trkpt lat="43.45883477364385" lon="10.915340383042908"><ele>230.0</ele><time>2026-04-18T09:00:19.002Z</time></trkpt><trkpt lat="43.45874720016014" lon="10.915272906930742"><ele>230.0</ele><time>2026-04-18T09:00:20.002Z</time></trkpt><trkpt lat="43.45866787193272" lon="10.915171712412867"><ele>230.0</ele><time>2026-04-18T09:00:21.002Z</time></trkpt><trkpt lat="43.458603731444846" lon="10.915052898522102"><ele>231.25</ele><time>2026-04-18T09:00:22.002Z</time></trkpt><trkpt lat="43.45855927204579" lon="10.914912333608099"><ele>232.5</ele><time>2026-04-18T09:00:23.002Z</time></trkpt><trkpt lat="43.4585388100408" lon="10.914764631753107"><ele>233.75</ele><time>2026-04-18T09:00:24.002Z</time></trkpt><trkpt lat="43.45853962987295" lon="10.914589449487657"><ele>235.0</ele><time>2026-04-18T09:00:25.002Z</time></trkpt><trkpt lat="43.45854669972797" lon="10.914390137331962"><ele>237.66666666666666</ele><time>2026-04-18T09:00:26.002Z</time></trkpt><trkpt lat="43.45854742734742" lon="10.914176563352092"><ele>240.33333333333331</ele><time>2026-04-18T09:00:27.002Z</time></trkpt><trkpt lat="43.45855033983933" lon="10.913951013844667"><ele>243.0</ele><time>2026-04-18T09:00:28.002Z</time></trkpt><trkpt lat="43.45855292999523" lon="10.913727148191711"><ele>243.0</ele><time>2026-04-18T09:00:29.002Z</time></trkpt><trkpt lat="43.45855447941044" lon="10.913515552123554"><ele>243.0</ele><time>2026-04-18T09:00:30.002Z</time></trkpt><trkpt lat="43.4585574738882" lon="10.91334541624979"><ele>243.0</ele><time>2026-04-18T09:00:31.002Z</time></trkpt><trkpt lat="43.458551482031176" lon="10.913223557277904"><ele>243.0</ele><time>2026-04-18T09:00:32.002Z</time></trkpt><trkpt lat="43.45853112638622" lon="10.913119401040344"><ele>243.0</ele><time>2026-04-18T09:00:33.002Z</time></trkpt><trkpt lat="43.45848475105203" lon="10.913006825372095"><ele>244.75</ele><time>2026-04-18T09:00:34.002Z</time></trkpt><trkpt lat="43.458412814184754" lon="10.912908615837006"><ele>246.5</ele><time>2026-04-18T09:00:35.002Z</time></trkpt><trkpt lat="43.458330108072595" lon="10.912826155675127"><ele>248.25</ele><time>2026-04-18T09:00:36.002Z</time></trkpt><trkpt lat="43.45823270985958" lon="10.912750335098714"><ele>250.0</ele><time>2026-04-18T09:00:37.002Z</time></trkpt><trkpt lat="43.45810465349009" lon="10.912675214206239"><ele>250.0</ele><time>2026-04-18T09:00:38.002Z</time></trkpt><trkpt lat="43.45796706950991" lon="10.912602686980275"><ele>250.0</ele><time>2026-04-18T09:00:39.002Z</time></trkpt><trkpt lat="43.457827300541645" lon="10.912507378919706"><ele>250.0</ele><time>2026-04-18T09:00:40.002Z</time></trkpt><trkpt lat="43.45768652846938" lon="10.912407012260282"><ele>253.0</ele><time>2026-04-18T09:00:41.002Z</time></trkpt><trkpt lat="43.4575325598478" lon="10.912306302819237"><ele>256.0</ele><time>2026-04-18T09:00:42.002Z</time></trkpt><trkpt lat="43.457377663645296" lon="10.912203420836253"><ele>259.0</ele><time>2026-04-18T09:00:43.002Z</time></trkpt><trkpt lat="43.45722361076911" lon="10.912091148641327"><ele>260.3333333333333</ele><time>2026-04-18T09:00:44.002Z</time></trkpt><trkpt lat="43.45707218718161" lon="10.911983556657132"><ele>261.6666666666667</ele><time>2026-04-18T09:00:45.002Z</time></trkpt><trkpt lat="43.45692196364471" lon="10.911880578139373"><ele>263.0</ele><time>2026-04-18T09:00:46.002Z</time></trkpt><trkpt lat="43.456785418625046" lon="10.911781208456764"><ele>263.2</ele><time>2026-04-18T09:00:47.002Z</time></trkpt><trkpt lat="43.45666815776971" lon="10.9116921570854"><ele>263.4</ele><time>2026-04-18T09:00:48.002Z</time></trkpt><trkpt lat="43.45656839535531" lon="10.911618287410462"><ele>263.59999999999997</ele><time>2026-04-18T09:00:49.002Z</time></trkpt><trkpt lat="43.4564892487327" lon="10.911566198609359"><ele>263.8</ele><time>2026-04-18T09:00:50.002Z</time></trkpt><trkpt lat="43.45640154065958" lon="10.911538079854912"><ele>264.0</ele><time>2026-04-18T09:00:51.002Z</time></trkpt><trkpt lat="43.45630547888827" lon="10.91154412619021"><ele>266.0</ele><time>2026-04-18T09:00:52.002Z</time></trkpt><trkpt lat="43.4562049607458" lon="10.911586075461829"><ele>268.0</ele><time>2026-04-18T09:00:53.002Z</time></trkpt><trkpt lat="43.456094525270295" lon="10.911655053669737"><ele>270.0</ele><time>2026-04-18T09:00:54.002Z</time></trkpt><trkpt lat="43.45596895394359" lon="10.911732461886729"><ele>272.0</ele><time>2026-04-18T09:00:55Z</time></trkpt><trkpt lat="43.45583410702956" lon="10.911799605485829"><ele>272.0</ele><time>2026-04-18T09:00:56Z</time></trkpt><trkpt lat="43.455687983755915" lon="10.911861675765934"><ele>272.0</ele><time>2026-04-18T09:00:57Z</time></trkpt><trkpt lat="43.45554058570163" lon="10.911917603285392"><ele>272.0</ele><time>2026-04-18T09:00:58Z</time></trkpt><trkpt lat="43.455389308206406" lon="10.9119584513012"><ele>274.5</ele><time>2026-04-18T09:00:59Z</time></trkpt><trkpt lat="43.455241073034145" lon="10.911989855562936"><ele>277.0</ele><time>2026-04-18T09:01:00Z</time></trkpt><trkpt lat="43.455109613845764" lon="10.912005253031062"><ele>279.5</ele><time>2026-04-18T09:01:01Z</time></trkpt><trkpt lat="43.45498150630526" lon="10.91203683058293"><ele>282.0</ele><time>2026-04-18T09:01:02Z</time></trkpt><trkpt lat="43.45486326676551" lon="10.912079161812155"><ele>282.0</ele><time>2026-04-18T09:01:03Z</time></trkpt><trkpt lat="43.45476497685959" lon="10.912148699674242"><ele>282.0</ele><time>2026-04-18T09:01:04Z</time></trkpt><trkpt lat="43.45465492020181" lon="10.91222495261533"><ele>282.0</ele><time>2026-04-18T09:01:05Z</time></trkpt><trkpt lat="43.45453401656425" lon="10.912281656786229"><ele>282.0</ele><time>2026-04-18T09:01:06Z</time></trkpt><trkpt lat="43.45440894219494" lon="10.912304570270445"><ele>284.5</ele><time>2026-04-18T09:01:07Z</time></trkpt><trkpt lat="43.45427532593805" lon="10.912308897646769"><ele>287.0</ele><time>2026-04-18T09:01:08Z</time></trkpt><trkpt lat="43.45412992835568" lon="10.91230460400525"><ele>289.5</ele><time>2026-04-18T09:01:09Z</time></trkpt><trkpt lat="43.45400647850395" lon="10.912280666789108"><ele>292.0</ele><time>2026-04-18T09:01:10Z</time></trkpt><trkpt lat="43.45391273647707" lon="10.912238540975011"><ele>292.0</ele><time>2026-04-18T09:01:11Z</time></trkpt><trkpt lat="43.45382208614812" lon="10.912194114022268"><ele>292.0</ele><time>2026-04-18T09:01:12Z</time></trkpt><trkpt lat="43.453722185288996" lon="10.912157038446948"><ele>292.0</ele><time>2026-04-18T09:01:13Z</time></trkpt><trkpt lat="43.4536136444383" lon="10.912153054503234"><ele>292.0</ele><time>2026-04-18T09:01:14Z</time></trkpt><trkpt lat="43.45349081645469" lon="10.912172091120459"><ele>292.0</ele><time>2026-04-18T09:01:15Z</time></trkpt><trkpt lat="43.453349660365944" lon="10.912209638735778"><ele>292.0</ele><time>2026-04-18T09:01:16Z</time></trkpt><trkpt lat="43.45319897179773" lon="10.912252243430705"><ele>292.0</ele><time>2026-04-18T09:01:17Z</time></trkpt><trkpt lat="43.45305182480445" lon="10.912295441996381"><ele>292.0</ele><time>2026-04-18T09:01:18Z</time></trkpt><trkpt lat="43.452919094246916" lon="10.912329714597012"><ele>292.0</ele><time>2026-04-18T09:01:19Z</time></trkpt><trkpt lat="43.45279600845574" lon="10.912354696898344"><ele>292.0</ele><time>2026-04-18T09:01:20Z</time></trkpt><trkpt lat="43.45268598849091" lon="10.912364047284802"><ele>292.0</ele><time>2026-04-18T09:01:21Z</time></trkpt><trkpt lat="43.452587134880936" lon="10.912348456964573"><ele>292.0</ele><time>2026-04-18T09:01:22Z</time></trkpt><trkpt lat="43.452480261643814" lon="10.912300898297737"><ele>292.0</ele><time>2026-04-18T09:01:23Z</time></trkpt><trkpt lat="43.45236734693567" lon="10.912226585035642"><ele>292.0</ele><time>2026-04-18T09:01:24Z</time></trkpt><trkpt lat="43.452247892530764" lon="10.912175477447745"><ele>290.75</ele><time>2026-04-18T09:01:25Z</time></trkpt><trkpt lat="43.4521136778095" lon="10.912145677655179"><ele>289.5</ele><time>2026-04-18T09:01:26Z</time></trkpt><trkpt lat="43.45198180352007" lon="10.912126222833118"><ele>288.25</ele><time>2026-04-18T09:01:27Z</time></trkpt><trkpt lat="43.45183964884477" lon="10.91212336602821"><ele>287.0</ele><time>2026-04-18T09:01:28Z</time></trkpt><trkpt lat="43.451694667263695" lon="10.912117040664338"><ele>287.0</ele><time>2026-04-18T09:01:29Z</time></trkpt><trkpt lat="43.45155993944344" lon="10.912111867701446"><ele>287.0</ele><time>2026-04-18T09:01:30Z</time></trkpt><trkpt lat="43.45144288132509" lon="10.91209240636459"><ele>287.0</ele><time>2026-04-18T09:01:31Z</time></trkpt><trkpt lat="43.45133408559287" lon="10.912039058188016"><ele>287.0</ele><time>2026-04-18T09:01:32Z</time></trkpt><trkpt lat="43.45121700687216" lon="10.911987354610396"><ele>286.33333333333337</ele><time>2026-04-18T09:01:33Z</time></trkpt><trkpt lat="43.45111829264955" lon="10.911947999352856"><ele>285.6666666666667</ele><time>2026-04-18T09:01:34Z</time></trkpt><trkpt lat="43.45103685959689" lon="10.911939374451267"><ele>285.0</ele><time>2026-04-18T09:01:35Z</time></trkpt><trkpt lat="43.45097148640239" lon="10.911960331520905"><ele>284.3333333333333</ele><time>2026-04-18T09:01:36Z</time></trkpt><trkpt lat="43.450904791342516" lon="10.911983342759953"><ele>283.66666666666663</ele><time>2026-04-18T09:01:37Z</time></trkpt><trkpt lat="43.45084128425926" lon="10.912002461234591"><ele>283.0</ele><time>2026-04-18T09:01:38Z</time></trkpt><trkpt lat="43.45071541818967" lon="10.911942634877322"><ele>283.0</ele><time>2026-04-18T09:01:40Z</time></trkpt><trkpt lat="43.45065241798257" lon="10.911847626960629"><ele>283.0</ele><time>2026-04-18T09:01:41Z</time></trkpt><trkpt lat="43.450580534009106" lon="10.911725521903833"><ele>283.0</ele><time>2026-04-18T09:01:42.001Z</time></trkpt><trkpt lat="43.450494930751375" lon="10.911638155577817"><ele>283.0</ele><time>2026-04-18T09:01:43.001Z</time></trkpt><trkpt lat="43.450380580932006" lon="10.911555230781566"><ele>283.0</ele><time>2026-04-18T09:01:44.001Z</time></trkpt><trkpt lat="43.45023275689611" lon="10.911466198567709"><ele>281.3333333333333</ele><time>2026-04-18T09:01:45.001Z</time></trkpt><trkpt lat="43.45006336283251" lon="10.911370745809723"><ele>279.6666666666667</ele><time>2026-04-18T09:01:46.001Z</time></trkpt><trkpt lat="43.449905654776416" lon="10.911266751406142"><ele>278.0</ele><time>2026-04-18T09:01:47.001Z</time></trkpt><trkpt lat="43.44973771634525" lon="10.911172357435104"><ele>276.33333333333337</ele><time>2026-04-18T09:01:48.001Z</time></trkpt><trkpt lat="43.4495633906814" lon="10.911081551457212"><ele>274.6666666666667</ele><time>2026-04-18T09:01:49.001Z</time></trkpt><trkpt lat="43.4493950725736" lon="10.910992035307567"><ele>273.0</ele><time>2026-04-18T09:01:50.001Z</time></trkpt><trkpt lat="43.4492213797619" lon="10.910916251617257"><ele>273.0</ele><time>2026-04-18T09:01:51.001Z</time></trkpt><trkpt lat="43.44905069792004" lon="10.910848255366153"><ele>273.0</ele><time>2026-04-18T09:01:52.001Z</time></trkpt><trkpt lat="43.44889531620103" lon="10.91079660062886"><ele>273.0</ele><time>2026-04-18T09:01:53.001Z</time></trkpt><trkpt lat="43.448764363491705" lon="10.910753622530136"><ele>272.75</ele><time>2026-04-18T09:01:54.001Z</time></trkpt><trkpt lat="43.448653566512526" lon="10.910692913591639"><ele>272.5</ele><time>2026-04-18T09:01:55.001Z</time></trkpt><trkpt lat="43.44853792728766" lon="10.91059244662924"><ele>272.25</ele><time>2026-04-18T09:01:56.001Z</time></trkpt><trkpt lat="43.44841030647238" lon="10.910481394223652"><ele>272.0</ele><time>2026-04-18T09:01:57.001Z</time></trkpt><trkpt lat="43.44828994332595" lon="10.910373467041586"><ele>272.0</ele><time>2026-04-18T09:01:58.001Z</time></trkpt><trkpt lat="43.44817881642712" lon="10.910281424310131"><ele>272.0</ele><time>2026-04-18T09:01:59.001Z</time></trkpt><trkpt lat="43.44805111096241" lon="10.910197274444599"><ele>272.0</ele><time>2026-04-18T09:02:00.001Z</time></trkpt><trkpt lat="43.44790777524597" lon="10.91011712808715"><ele>272.0</ele><time>2026-04-18T09:02:01.001Z</time></trkpt><trkpt lat="43.44775149400438" lon="10.910033381634799"><ele>270.33333333333337</ele><time>2026-04-18T09:02:02.001Z</time></trkpt><trkpt lat="43.44759309771444" lon="10.909947343420326"><ele>268.6666666666667</ele><time>2026-04-18T09:02:03.001Z</time></trkpt><trkpt lat="43.44744218522566" lon="10.909860198607896"><ele>267.0</ele><time>2026-04-18T09:02:04.001Z</time></trkpt><trkpt lat="43.447312207894456" lon="10.909774979653962"><ele>267.0</ele><time>2026-04-18T09:02:05.001Z</time></trkpt><trkpt lat="43.44719077071442" lon="10.90969203948945"><ele>267.0</ele><time>2026-04-18T09:02:06.001Z</time></trkpt><trkpt lat="43.447049431585576" lon="10.909616420918269"><ele>267.0</ele><time>2026-04-18T09:02:07.001Z</time></trkpt><trkpt lat="43.44689966269642" lon="10.90955651777867"><ele>267.0</ele><time>2026-04-18T09:02:08.001Z</time></trkpt><trkpt lat="43.446760670428866" lon="10.909506090495961"><ele>265.8</ele><time>2026-04-18T09:02:09.001Z</time></trkpt><trkpt lat="43.446645230786984" lon="10.909460934293426"><ele>264.6</ele><time>2026-04-18T09:02:10.001Z</time></trkpt><trkpt lat="43.446556487102946" lon="10.909423503895844"><ele>263.40000000000003</ele><time>2026-04-18T09:02:11.001Z</time></trkpt><trkpt lat="43.446476319060906" lon="10.9093608490356"><ele>262.2</ele><time>2026-04-18T09:02:12.001Z</time></trkpt><trkpt lat="43.446396970659364" lon="10.909253435462087"><ele>261.0</ele><time>2026-04-18T09:02:13.001Z</time></trkpt><trkpt lat="43.44631916907877" lon="10.909098793781673"><ele>258.3333333333333</ele><time>2026-04-18T09:02:14.001Z</time></trkpt><trkpt lat="43.44625315474415" lon="10.908903497916908"><ele>255.66666666666666</ele><time>2026-04-18T09:02:15.001Z</time></trkpt><trkpt lat="43.446218428495825" lon="10.908683346386292"><ele>253.0</ele><time>2026-04-18T09:02:16.001Z</time></trkpt><trkpt lat="43.44616736226451" lon="10.908503156149923"><ele>254.0</ele><time>2026-04-18T09:02:17.001Z</time></trkpt><trkpt lat="43.44612315504199" lon="10.908334033966982"><ele>255.0</ele><time>2026-04-18T09:02:18.001Z</time></trkpt><trkpt lat="43.44607943955376" lon="10.908173567540759"><ele>256.0</ele><time>2026-04-18T09:02:19.001Z</time></trkpt><trkpt lat="43.44603001477458" lon="10.908018275761522"><ele>257.0</ele><time>2026-04-18T09:02:20.001Z</time></trkpt><trkpt lat="43.44597302768583" lon="10.907868292077655"><ele>257.0</ele><time>2026-04-18T09:02:21.001Z</time></trkpt><trkpt lat="43.44590281883504" lon="10.907716006164812"><ele>257.0</ele><time>2026-04-18T09:02:22.001Z</time></trkpt><trkpt lat="43.445806198695884" lon="10.907555577805491"><ele>257.0</ele><time>2026-04-18T09:02:23.001Z</time></trkpt><trkpt lat="43.44571263927642" lon="10.907405845513525"><ele>257.0</ele><time>2026-04-18T09:02:24.001Z</time></trkpt><trkpt lat="43.445618732947906" lon="10.907248667176704"><ele>256.33333333333337</ele><time>2026-04-18T09:02:25.002Z</time></trkpt><trkpt lat="43.4455280220644" lon="10.907086899432738"><ele>255.66666666666669</ele><time>2026-04-18T09:02:26.002Z</time></trkpt><trkpt lat="43.44543248177277" lon="10.906916519232503"><ele>255.0</ele><time>2026-04-18T09:02:27.002Z</time></trkpt><trkpt lat="43.44533296093531" lon="10.90674229150321"><ele>254.0</ele><time>2026-04-18T09:02:28.002Z</time></trkpt><trkpt lat="43.44523616962466" lon="10.906577829975182"><ele>253.0</ele><time>2026-04-18T09:02:29.002Z</time></trkpt><trkpt lat="43.44513316355525" lon="10.906422968633573"><ele>252.0</ele><time>2026-04-18T09:02:30.002Z</time></trkpt><trkpt lat="43.44501323950421" lon="10.906262441757093"><ele>252.0</ele><time>2026-04-18T09:02:31.002Z</time></trkpt><trkpt lat="43.444878688151135" lon="10.906084916522376"><ele>252.0</ele><time>2026-04-18T09:02:32.002Z</time></trkpt><trkpt lat="43.44474707463383" lon="10.905905341235446"><ele>252.0</ele><time>2026-04-18T09:02:33.002Z</time></trkpt><trkpt lat="43.44462670182423" lon="10.905736180668157"><ele>251.0</ele><time>2026-04-18T09:02:34.002Z</time></trkpt><trkpt lat="43.44454256764283" lon="10.905583216125954"><ele>250.0</ele><time>2026-04-18T09:02:35.002Z</time></trkpt><trkpt lat="43.4444712099302" lon="10.90542443059877"><ele>249.0</ele><time>2026-04-18T09:02:36.002Z</time></trkpt><trkpt lat="43.44439569937823" lon="10.90525986573465"><ele>248.0</ele><time>2026-04-18T09:02:37.002Z</time></trkpt><trkpt lat="43.44431807159418" lon="10.905103117180918"><ele>248.75</ele><time>2026-04-18T09:02:38.002Z</time></trkpt><trkpt lat="43.44422410862389" lon="10.90497110614948"><ele>249.5</ele><time>2026-04-18T09:02:39.002Z</time></trkpt><trkpt lat="43.444124706623796" lon="10.904857084046755"><ele>250.25</ele><time>2026-04-18T09:02:40.002Z</time></trkpt><trkpt lat="43.444013042313294" lon="10.904747526300506"><ele>251.0</ele><time>2026-04-18T09:02:41.002Z</time></trkpt><trkpt lat="43.44389435449231" lon="10.904632523034874"><ele>249.0</ele><time>2026-04-18T09:02:42.002Z</time></trkpt><trkpt lat="43.44375960072945" lon="10.904507166577888"><ele>247.0</ele><time>2026-04-18T09:02:43.002Z</time></trkpt><trkpt lat="43.44360665664376" lon="10.90436580171848"><ele>245.0</ele><time>2026-04-18T09:02:44.002Z</time></trkpt><trkpt lat="43.44345787983789" lon="10.904227499869448"><ele>245.0</ele><time>2026-04-18T09:02:45.002Z</time></trkpt><trkpt lat="43.44330740880216" lon="10.904088846496073"><ele>245.0</ele><time>2026-04-18T09:02:46.002Z</time></trkpt><trkpt lat="43.44315696436184" lon="10.903956925770885"><ele>245.0</ele><time>2026-04-18T09:02:47.002Z</time></trkpt><trkpt lat="43.44300284822867" lon="10.903827301142723"><ele>243.0</ele><time>2026-04-18T09:02:48.002Z</time></trkpt><trkpt lat="43.442845518374234" lon="10.903696981747668"><ele>241.0</ele><time>2026-04-18T09:02:49.002Z</time></trkpt><trkpt lat="43.44268609137158" lon="10.903555826369935"><ele>239.0</ele><time>2026-04-18T09:02:50.002Z</time></trkpt><trkpt lat="43.4425408070731" lon="10.903417942715786"><ele>241.33333333333334</ele><time>2026-04-18T09:02:51.002Z</time></trkpt><trkpt lat="43.44239982717507" lon="10.903276285194814"><ele>243.66666666666669</ele><time>2026-04-18T09:02:52.002Z</time></trkpt><trkpt lat="43.44226693832253" lon="10.90314535655741"><ele>246.0</ele><time>2026-04-18T09:02:53.002Z</time></trkpt><trkpt lat="43.44213329073827" lon="10.90303096483106"><ele>245.33333333333331</ele><time>2026-04-18T09:02:54.002Z</time></trkpt><trkpt lat="43.44199814025786" lon="10.90292307220695"><ele>244.66666666666666</ele><time>2026-04-18T09:02:55.002Z</time></trkpt><trkpt lat="43.44185863567789" lon="10.902823207773864"><ele>244.0</ele><time>2026-04-18T09:02:56.002Z</time></trkpt><trkpt lat="43.4417164919442" lon="10.902750182828841"><ele>244.0</ele><time>2026-04-18T09:02:57.002Z</time></trkpt><trkpt lat="43.441569340768346" lon="10.902699141738886"><ele>244.0</ele><time>2026-04-18T09:02:58.002Z</time></trkpt><trkpt lat="43.44141575484554" lon="10.902673134098096"><ele>244.0</ele><time>2026-04-18T09:02:59.002Z</time></trkpt><trkpt lat="43.44126229299961" lon="10.902665563913628"><ele>243.5</ele><time>2026-04-18T09:03:00.002Z</time></trkpt><trkpt lat="43.4411152996694" lon="10.902655945195873"><ele>243.0</ele><time>2026-04-18T09:03:01Z</time></trkpt><trkpt lat="43.44098006410495" lon="10.902636145440773"><ele>242.5</ele><time>2026-04-18T09:03:02Z</time></trkpt><trkpt lat="43.440847082050006" lon="10.902611663963262"><ele>242.0</ele><time>2026-04-18T09:03:03Z</time></trkpt><trkpt lat="43.440727988411126" lon="10.902569226792124"><ele>243.0</ele><time>2026-04-18T09:03:04Z</time></trkpt><trkpt lat="43.44060294953687" lon="10.902508196223819"><ele>244.0</ele><time>2026-04-18T09:03:05Z</time></trkpt><trkpt lat="43.440475647002174" lon="10.902430787059089"><ele>245.0</ele><time>2026-04-18T09:03:06Z</time></trkpt><trkpt lat="43.44034980460406" lon="10.902329128213761"><ele>246.0</ele><time>2026-04-18T09:03:07Z</time></trkpt><trkpt lat="43.440233581600815" lon="10.902207391749801"><ele>247.0</ele><time>2026-04-18T09:03:08Z</time></trkpt><trkpt lat="43.44013975317106" lon="10.902083100819164"><ele>248.0</ele><time>2026-04-18T09:03:09Z</time></trkpt><trkpt lat="43.44005540590418" lon="10.901945830348676"><ele>249.0</ele><time>2026-04-18T09:03:10Z</time></trkpt><trkpt lat="43.43997211824442" lon="10.901782391400662"><ele>250.0</ele><time>2026-04-18T09:03:11Z</time></trkpt><trkpt lat="43.43987484851604" lon="10.901607990422468"><ele>250.0</ele><time>2026-04-18T09:03:12Z</time></trkpt><trkpt lat="43.439790689239715" lon="10.901448362047663"><ele>250.0</ele><time>2026-04-18T09:03:13Z</time></trkpt><trkpt lat="43.439725880153716" lon="10.90130870529475"><ele>250.0</ele><time>2026-04-18T09:03:14Z</time></trkpt><trkpt lat="43.43968135366749" lon="10.901158921259801"><ele>250.0</ele><time>2026-04-18T09:03:15Z</time></trkpt><trkpt lat="43.43965213430053" lon="10.901000869611883"><ele>249.25</ele><time>2026-04-18T09:03:16Z</time></trkpt><trkpt lat="43.4396230929993" lon="10.900823565757094"><ele>248.5</ele><time>2026-04-18T09:03:17Z</time></trkpt><trkpt lat="43.43965950819815" lon="10.900630219653156"><ele>247.75</ele><time>2026-04-18T09:03:18Z</time></trkpt><trkpt lat="43.43967701299244" lon="10.900423678358282"><ele>247.0</ele><time>2026-04-18T09:03:19Z</time></trkpt><trkpt lat="43.43969216535979" lon="10.900246987171284"><ele>247.0</ele><time>2026-04-18T09:03:20Z</time></trkpt><trkpt lat="43.439701890560826" lon="10.90009487022534"><ele>247.0</ele><time>2026-04-18T09:03:21Z</time></trkpt><trkpt lat="43.43970471023265" lon="10.899953730266787"><ele>247.0</ele><time>2026-04-18T09:03:22Z</time></trkpt><trkpt lat="43.439685543558056" lon="10.899802467538214"><ele>247.0</ele><time>2026-04-18T09:03:23Z</time></trkpt><trkpt lat="43.439646946752056" lon="10.899655719964306"><ele>247.0</ele><time>2026-04-18T09:03:24Z</time></trkpt><trkpt lat="43.43959379336253" lon="10.899535096143893"><ele>247.8</ele><time>2026-04-18T09:03:25Z</time></trkpt><trkpt lat="43.439531395201044" lon="10.89943805506339"><ele>248.6</ele><time>2026-04-18T09:03:26Z</time></trkpt><trkpt lat="43.43943607912082" lon="10.899357603998329"><ele>249.40000000000003</ele><time>2026-04-18T09:03:27Z</time></trkpt><trkpt lat="43.43934726216252" lon="10.899271983867207"><ele>250.20000000000002</ele><time>2026-04-18T09:03:28Z</time></trkpt><trkpt lat="43.4392582638421" lon="10.899164397104073"><ele>251.0</ele><time>2026-04-18T09:03:29Z</time></trkpt><trkpt lat="43.43915733775722" lon="10.899042542221297"><ele>251.0</ele><time>2026-04-18T09:03:30Z</time></trkpt><trkpt lat="43.43906227823421" lon="10.898927770489802"><ele>251.0</ele><time>2026-04-18T09:03:31Z</time></trkpt><trkpt lat="43.43897271508665" lon="10.898824561817367"><ele>251.0</ele><time>2026-04-18T09:03:32Z</time></trkpt><trkpt lat="43.43888265641555" lon="10.898748404557807"><ele>251.0</ele><time>2026-04-18T09:03:33Z</time></trkpt><trkpt lat="43.438836154847216" lon="10.898614709520245"><ele>250.60000000000002</ele><time>2026-04-18T09:03:34Z</time></trkpt><trkpt lat="43.43878532318374" lon="10.8984906137497"><ele>250.20000000000002</ele><time>2026-04-18T09:03:35Z</time></trkpt><trkpt lat="43.43875745962804" lon="10.898356922862975"><ele>249.79999999999998</ele><time>2026-04-18T09:03:36Z</time></trkpt><trkpt lat="43.43872778579593" lon="10.898212735348041"><ele>249.39999999999998</ele><time>2026-04-18T09:03:37Z</time></trkpt><trkpt lat="43.438685878565806" lon="10.898076845157046"><ele>249.0</ele><time>2026-04-18T09:03:38Z</time></trkpt><trkpt lat="43.43861958244048" lon="10.897954035463108"><ele>248.6</ele><time>2026-04-18T09:03:39Z</time></trkpt><trkpt lat="43.43855208534671" lon="10.897834417842528"><ele>248.2</ele><time>2026-04-18T09:03:40Z</time></trkpt><trkpt lat="43.43848531402716" lon="10.897731640525501"><ele>247.79999999999998</ele><time>2026-04-18T09:03:41Z</time></trkpt><trkpt lat="43.43842875702677" lon="10.897614743765724"><ele>247.39999999999998</ele><time>2026-04-18T09:03:42Z</time></trkpt><trkpt lat="43.43839064542645" lon="10.897489059351917"><ele>247.0</ele><time>2026-04-18T09:03:43.001Z</time></trkpt><trkpt lat="43.43837413789699" lon="10.897318427304102"><ele>245.0</ele><time>2026-04-18T09:03:44.001Z</time></trkpt><trkpt lat="43.4383703611699" lon="10.897133059946142"><ele>243.0</ele><time>2026-04-18T09:03:45.001Z</time></trkpt><trkpt lat="43.43834721757857" lon="10.896947480434942"><ele>241.0</ele><time>2026-04-18T09:03:46.001Z</time></trkpt><trkpt lat="43.438302153375396" lon="10.896765930801266"><ele>239.0</ele><time>2026-04-18T09:03:47.001Z</time></trkpt><trkpt lat="43.4382529005404" lon="10.896605564657287"><ele>237.25</ele><time>2026-04-18T09:03:48.001Z</time></trkpt><trkpt lat="43.43820982046003" lon="10.896454815998515"><ele>235.5</ele><time>2026-04-18T09:03:49.001Z</time></trkpt><trkpt lat="43.43816632772168" lon="10.896297614650301"><ele>233.75</ele><time>2026-04-18T09:03:50.001Z</time></trkpt><trkpt lat="43.438168463709175" lon="10.89614715272678"><ele>232.0</ele><time>2026-04-18T09:03:51.001Z</time></trkpt><trkpt lat="43.43821289364772" lon="10.896005051649873"><ele>231.8</ele><time>2026-04-18T09:03:52.001Z</time></trkpt><trkpt lat="43.438209826614816" lon="10.895871981718606"><ele>231.6</ele><time>2026-04-18T09:03:53.001Z</time></trkpt><trkpt lat="43.43818697362818" lon="10.89577613814939"><ele>231.40000000000003</ele><time>2026-04-18T09:03:54.001Z</time></trkpt><trkpt lat="43.43813321338233" lon="10.895685980101955"><ele>231.20000000000002</ele><time>2026-04-18T09:03:55.001Z</time></trkpt><trkpt lat="43.43803909999913" lon="10.895601633056854"><ele>231.0</ele><time>2026-04-18T09:03:56.001Z</time></trkpt><trkpt lat="43.43794802215249" lon="10.895509773752343"><ele>230.5</ele><time>2026-04-18T09:03:57.001Z</time></trkpt><trkpt lat="43.43786678015385" lon="10.895392085123458"><ele>230.0</ele><time>2026-04-18T09:03:58.001Z</time></trkpt><trkpt lat="43.437797480146095" lon="10.895238885127023"><ele>229.5</ele><time>2026-04-18T09:03:59.001Z</time></trkpt><trkpt lat="43.43773898699953" lon="10.895072164590921"><ele>229.0</ele><time>2026-04-18T09:04:00.001Z</time></trkpt><trkpt lat="43.43768488766679" lon="10.89491406894346"><ele>228.5</ele><time>2026-04-18T09:04:01.001Z</time></trkpt><trkpt lat="43.437630071448986" lon="10.894763823280561"><ele>228.0</ele><time>2026-04-18T09:04:02.001Z</time></trkpt><trkpt lat="43.43757517004472" lon="10.894628385918738"><ele>227.5</ele><time>2026-04-18T09:04:03.001Z</time></trkpt><trkpt lat="43.43749788851011" lon="10.894488271066908"><ele>227.0</ele><time>2026-04-18T09:04:04.001Z</time></trkpt><trkpt lat="43.43739108022621" lon="10.89434556442779"><ele>225.0</ele><time>2026-04-18T09:04:05.001Z</time></trkpt><trkpt lat="43.43725045982184" lon="10.894216858136453"><ele>223.0</ele><time>2026-04-18T09:04:06.001Z</time></trkpt><trkpt lat="43.43710588283181" lon="10.8940923595928"><ele>221.0</ele><time>2026-04-18T09:04:07.001Z</time></trkpt><trkpt lat="43.43695191174149" lon="10.893985052544144"><ele>220.0</ele><time>2026-04-18T09:04:08.001Z</time></trkpt><trkpt lat="43.43680035416951" lon="10.893915801305658"><ele>219.0</ele><time>2026-04-18T09:04:09.001Z</time></trkpt><trkpt lat="43.43663656077966" lon="10.893865064521599"><ele>218.0</ele><time>2026-04-18T09:04:10.001Z</time></trkpt><trkpt lat="43.43646184060489" lon="10.89383276712608"><ele>218.0</ele><time>2026-04-18T09:04:11.001Z</time></trkpt><trkpt lat="43.43631775650987" lon="10.89378667202433"><ele>218.0</ele><time>2026-04-18T09:04:12.001Z</time></trkpt><trkpt lat="43.4362040002206" lon="10.893732222568183"><ele>218.0</ele><time>2026-04-18T09:04:13.001Z</time></trkpt><trkpt lat="43.43611016248378" lon="10.89367625418611"><ele>218.0</ele><time>2026-04-18T09:04:14.001Z</time></trkpt><trkpt lat="43.436027883143275" lon="10.893607563996888"><ele>218.0</ele><time>2026-04-18T09:04:15.001Z</time></trkpt><trkpt lat="43.4359440091359" lon="10.89350086886655"><ele>218.0</ele><time>2026-04-18T09:04:16.001Z</time></trkpt><trkpt lat="43.43584764491842" lon="10.893353529146912"><ele>218.0</ele><time>2026-04-18T09:04:17.001Z</time></trkpt><trkpt lat="43.43573913614726" lon="10.893186176107967"><ele>218.0</ele><time>2026-04-18T09:04:18.001Z</time></trkpt><trkpt lat="43.43562040233502" lon="10.89301150300359"><ele>218.0</ele><time>2026-04-18T09:04:19.001Z</time></trkpt><trkpt lat="43.43549567350887" lon="10.892836655322393"><ele>218.0</ele><time>2026-04-18T09:04:20.001Z</time></trkpt><trkpt lat="43.43536927741279" lon="10.892682802704774"><ele>218.0</ele><time>2026-04-18T09:04:21.001Z</time></trkpt><trkpt lat="43.43525541039974" lon="10.8925372998018"><ele>216.60000000000002</ele><time>2026-04-18T09:04:22.001Z</time></trkpt><trkpt lat="43.435148364878124" lon="10.892422043372438"><ele>215.20000000000002</ele><time>2026-04-18T09:04:23.002Z</time></trkpt><trkpt lat="43.43506488658202" lon="10.892326501126107"><ele>213.8</ele><time>2026-04-18T09:04:24.002Z</time></trkpt><trkpt lat="43.4349845756256" lon="10.892241060242336"><ele>212.4</ele><time>2026-04-18T09:04:25.002Z</time></trkpt><trkpt lat="43.4349106570294" lon="10.892144220902443"><ele>211.0</ele><time>2026-04-18T09:04:26.002Z</time></trkpt><trkpt lat="43.43486635170418" lon="10.89200518342453"><ele>211.0</ele><time>2026-04-18T09:04:27.002Z</time></trkpt><trkpt lat="43.43482154140172" lon="10.8918566258715"><ele>211.0</ele><time>2026-04-18T09:04:28.002Z</time></trkpt><trkpt lat="43.43479778929776" lon="10.891726233326606"><ele>211.0</ele><time>2026-04-18T09:04:29.002Z</time></trkpt><trkpt lat="43.434766512878774" lon="10.891629425034392"><ele>211.0</ele><time>2026-04-18T09:04:30.002Z</time></trkpt><trkpt lat="43.43468648322737" lon="10.891510250890756"><ele>211.0</ele><time>2026-04-18T09:04:32.002Z</time></trkpt><trkpt lat="43.434617606159115" lon="10.891498722697754"><ele>209.33333333333331</ele><time>2026-04-18T09:04:33.002Z</time></trkpt><trkpt lat="43.43455555130683" lon="10.891516550321702"><ele>207.66666666666666</ele><time>2026-04-18T09:04:34.002Z</time></trkpt><trkpt lat="43.434505222659254" lon="10.891621064654744"><ele>206.0</ele><time>2026-04-18T09:04:35.002Z</time></trkpt><trkpt lat="43.434462396043116" lon="10.891698951185283"><ele>204.33333333333331</ele><time>2026-04-18T09:04:36.002Z</time></trkpt><trkpt lat="43.434425657538284" lon="10.891784468710135"><ele>202.66666666666666</ele><time>2026-04-18T09:04:37.002Z</time></trkpt><trkpt lat="43.43440403735169" lon="10.891896374196662"><ele>201.0</ele><time>2026-04-18T09:04:38.002Z</time></trkpt><trkpt lat="43.43439700348641" lon="10.892010709668568"><ele>200.20000000000002</ele><time>2026-04-18T09:04:39.002Z</time></trkpt><trkpt lat="43.434381083680314" lon="10.89212662858043"><ele>199.4</ele><time>2026-04-18T09:04:40.002Z</time></trkpt><trkpt lat="43.43441707081256" lon="10.892243905643648"><ele>198.6</ele><time>2026-04-18T09:04:41.002Z</time></trkpt><trkpt lat="43.43445305329204" lon="10.892365861964059"><ele>197.8</ele><time>2026-04-18T09:04:42.002Z</time></trkpt><trkpt lat="43.4345069667404" lon="10.89251367893223"><ele>197.0</ele><time>2026-04-18T09:04:43.002Z</time></trkpt><trkpt lat="43.43456318119254" lon="10.892668026476688"><ele>195.6</ele><time>2026-04-18T09:04:44.002Z</time></trkpt><trkpt lat="43.43461379363888" lon="10.892801410487246"><ele>194.2</ele><time>2026-04-18T09:04:45.002Z</time></trkpt><trkpt lat="43.434645268436725" lon="10.892936674239847"><ele>192.8</ele><time>2026-04-18T09:04:46.002Z</time></trkpt><trkpt lat="43.434665680908786" lon="10.893092838539015"><ele>191.4</ele><time>2026-04-18T09:04:47.002Z</time></trkpt><trkpt lat="43.4346696316808" lon="10.89324074202432"><ele>190.0</ele><time>2026-04-18T09:04:48.002Z</time></trkpt><trkpt lat="43.434664919047634" lon="10.893390785956122"><ele>190.83333333333334</ele><time>2026-04-18T09:04:49.002Z</time></trkpt><trkpt lat="43.43467180621118" lon="10.89352804802979"><ele>191.66666666666669</ele><time>2026-04-18T09:04:50.002Z</time></trkpt><trkpt lat="43.4346836351247" lon="10.893653518559887"><ele>192.5</ele><time>2026-04-18T09:04:51.002Z</time></trkpt><trkpt lat="43.43469169062853" lon="10.893761039976946"><ele>193.33333333333334</ele><time>2026-04-18T09:04:52.002Z</time></trkpt><trkpt lat="43.43469137343473" lon="10.893903373686033"><ele>194.16666666666666</ele><time>2026-04-18T09:04:54.002Z</time></trkpt><trkpt lat="43.43464796182764" lon="10.893969314596719"><ele>195.0</ele><time>2026-04-18T09:04:56.002Z</time></trkpt><trkpt lat="43.43452684643158" lon="10.893909139152834"><ele>191.5</ele><time>2026-04-18T09:04:58.002Z</time></trkpt><trkpt lat="43.434479405002726" lon="10.893804759763519"><ele>188.0</ele><time>2026-04-18T09:04:59.002Z</time></trkpt><trkpt lat="43.4344109032992" lon="10.893688679515401"><ele>184.5</ele><time>2026-04-18T09:05:00.002Z</time></trkpt><trkpt lat="43.43431665992268" lon="10.893566411280885"><ele>181.0</ele><time>2026-04-18T09:05:01.002Z</time></trkpt><trkpt lat="43.43420131356466" lon="10.893445589956663"><ele>180.25</ele><time>2026-04-18T09:05:02.002Z</time></trkpt><trkpt lat="43.434076567134696" lon="10.893343606039672"><ele>179.5</ele><time>2026-04-18T09:05:03.002Z</time></trkpt><trkpt lat="43.43393887985771" lon="10.893257371081996"><ele>178.75</ele><time>2026-04-18T09:05:04.002Z</time></trkpt><trkpt lat="43.433812059817214" lon="10.893193670505935"><ele>178.0</ele><time>2026-04-18T09:05:05.003Z</time></trkpt><trkpt lat="43.433699068952016" lon="10.893098568422763"><ele>178.0</ele><time>2026-04-18T09:05:06.003Z</time></trkpt><trkpt lat="43.43359311879028" lon="10.892976374747176"><ele>178.0</ele><time>2026-04-18T09:05:06.999Z</time></trkpt><trkpt lat="43.43347505033738" lon="10.892876986368705"><ele>178.0</ele><time>2026-04-18T09:05:07.999Z</time></trkpt><trkpt lat="43.43339262132033" lon="10.89277075330536"><ele>178.0</ele><time>2026-04-18T09:05:08.999Z</time></trkpt><trkpt lat="43.43331408634315" lon="10.892702976044248"><ele>178.0</ele><time>2026-04-18T09:05:09.999Z</time></trkpt><trkpt lat="43.43323197996641" lon="10.892673074811183"><ele>178.0</ele><time>2026-04-18T09:05:10.999Z</time></trkpt><trkpt lat="43.433157435084006" lon="10.89264409709787"><ele>178.0</ele><time>2026-04-18T09:05:11.999Z</time></trkpt><trkpt lat="43.433067210142234" lon="10.892647926618315"><ele>178.0</ele><time>2026-04-18T09:05:12.999Z</time></trkpt><trkpt lat="43.432963815338084" lon="10.892672594961745"><ele>178.0</ele><time>2026-04-18T09:05:13.999Z</time></trkpt><trkpt lat="43.43283081300465" lon="10.892719957512085"><ele>176.75</ele><time>2026-04-18T09:05:14.999Z</time></trkpt><trkpt lat="43.432692421818544" lon="10.89274616794617"><ele>175.5</ele><time>2026-04-18T09:05:15.999Z</time></trkpt><trkpt lat="43.432574639609626" lon="10.892803345491277"><ele>174.25</ele><time>2026-04-18T09:05:16.999Z</time></trkpt><trkpt lat="43.43246021512202" lon="10.892824883464963"><ele>173.0</ele><time>2026-04-18T09:05:17.999Z</time></trkpt><trkpt lat="43.432343849634336" lon="10.892851915683563"><ele>173.0</ele><time>2026-04-18T09:05:18.999Z</time></trkpt><trkpt lat="43.43222702416853" lon="10.892883769937498"><ele>173.0</ele><time>2026-04-18T09:05:19.999Z</time></trkpt><trkpt lat="43.43211937060164" lon="10.892904413887635"><ele>173.0</ele><time>2026-04-18T09:05:20.999Z</time></trkpt><trkpt lat="43.432030772295754" lon="10.892926084202738"><ele>173.0</ele><time>2026-04-18T09:05:21.999Z</time></trkpt><trkpt lat="43.431956408499744" lon="10.892940783130426"><ele>173.0</ele><time>2026-04-18T09:05:22.999Z</time></trkpt><trkpt lat="43.4318720339124" lon="10.892975846113634"><ele>174.25</ele><time>2026-04-18T09:05:25Z</time></trkpt><trkpt lat="43.43187274982617" lon="10.89319986518843"><ele>175.5</ele><time>2026-04-18T09:05:28Z</time></trkpt><trkpt lat="43.43189601977247" lon="10.893346729090657"><ele>176.75</ele><time>2026-04-18T09:05:29Z</time></trkpt><trkpt lat="43.431916133639284" lon="10.893509078768652"><ele>178.0</ele><time>2026-04-18T09:05:30Z</time></trkpt><trkpt lat="43.43192716655515" lon="10.893698066047547"><ele>178.0</ele><time>2026-04-18T09:05:31Z</time></trkpt><trkpt lat="43.43188877278205" lon="10.893866309390098"><ele>178.0</ele><time>2026-04-18T09:05:32Z</time></trkpt><trkpt lat="43.43184506781584" lon="10.894033437417399"><ele>178.0</ele><time>2026-04-18T09:05:33Z</time></trkpt><trkpt lat="43.43181181943519" lon="10.894193038066117"><ele>178.0</ele><time>2026-04-18T09:05:34Z</time></trkpt><trkpt lat="43.43176000353385" lon="10.894317735176255"><ele>178.0</ele><time>2026-04-18T09:05:35Z</time></trkpt><trkpt lat="43.43172991365027" lon="10.89442979335365"><ele>178.0</ele><time>2026-04-18T09:05:36Z</time></trkpt><trkpt lat="43.43167499046852" lon="10.894527116385367"><ele>178.0</ele><time>2026-04-18T09:05:37Z</time></trkpt><trkpt lat="43.43160915506473" lon="10.894632793981192"><ele>178.0</ele><time>2026-04-18T09:05:38Z</time></trkpt><trkpt lat="43.43151892136591" lon="10.89471421894221"><ele>178.0</ele><time>2026-04-18T09:05:39Z</time></trkpt><trkpt lat="43.431446719635474" lon="10.89483000661182"><ele>178.0</ele><time>2026-04-18T09:05:40Z</time></trkpt><trkpt lat="43.43142008648106" lon="10.894972553444715"><ele>178.0</ele><time>2026-04-18T09:05:41Z</time></trkpt><trkpt lat="43.43142809541969" lon="10.895113577944926"><ele>178.0</ele><time>2026-04-18T09:05:42Z</time></trkpt><trkpt lat="43.43145050644771" lon="10.89524333936321"><ele>178.0</ele><time>2026-04-18T09:05:43Z</time></trkpt><trkpt lat="43.43148813276318" lon="10.895367402190017"><ele>178.0</ele><time>2026-04-18T09:05:44Z</time></trkpt><trkpt lat="43.43153937642923" lon="10.895509129455403"><ele>178.75</ele><time>2026-04-18T09:05:45Z</time></trkpt><trkpt lat="43.4315904399011" lon="10.895665375736197"><ele>179.5</ele><time>2026-04-18T09:05:46Z</time></trkpt><trkpt lat="43.431632236821365" lon="10.89583490087948"><ele>180.25</ele><time>2026-04-18T09:05:47Z</time></trkpt><trkpt lat="43.431643421165546" lon="10.895990548525925"><ele>181.0</ele><time>2026-04-18T09:05:48Z</time></trkpt><trkpt lat="43.431669656337604" lon="10.896116511773034"><ele>182.0</ele><time>2026-04-18T09:05:49Z</time></trkpt><trkpt lat="43.43166576862487" lon="10.89622128556871"><ele>183.0</ele><time>2026-04-18T09:05:50Z</time></trkpt><trkpt lat="43.43159522589315" lon="10.896309343827994"><ele>184.0</ele><time>2026-04-18T09:05:52Z</time></trkpt><trkpt lat="43.431472416275824" lon="10.896271701306674"><ele>185.0</ele><time>2026-04-18T09:05:54Z</time></trkpt><trkpt lat="43.431429971255646" lon="10.896155624282592"><ele>186.0</ele><time>2026-04-18T09:05:55Z</time></trkpt><trkpt lat="43.43136320916871" lon="10.896066369361813"><ele>187.0</ele><time>2026-04-18T09:05:56.001Z</time></trkpt><trkpt lat="43.43129496668304" lon="10.896004379173268"><ele>188.0</ele><time>2026-04-18T09:05:57.001Z</time></trkpt><trkpt lat="43.43118195246201" lon="10.89599399290987"><ele>189.0</ele><time>2026-04-18T09:05:58.001Z</time></trkpt><trkpt lat="43.43106165681274" lon="10.895935356611693"><ele>190.0</ele><time>2026-04-18T09:05:59.001Z</time></trkpt><trkpt lat="43.430932715224984" lon="10.895876771928279"><ele>190.0</ele><time>2026-04-18T09:06:00.001Z</time></trkpt><trkpt lat="43.43081298107382" lon="10.895824133408587"><ele>190.0</ele><time>2026-04-18T09:06:01.001Z</time></trkpt><trkpt lat="43.43072508500278" lon="10.895794467154115"><ele>190.0</ele><time>2026-04-18T09:06:02.001Z</time></trkpt><trkpt lat="43.43065736023588" lon="10.895794104775772"><ele>190.0</ele><time>2026-04-18T09:06:03.001Z</time></trkpt><trkpt lat="43.43057891583005" lon="10.895884071525328"><ele>190.0</ele><time>2026-04-18T09:06:05.001Z</time></trkpt><trkpt lat="43.43058266265799" lon="10.896048060209152"><ele>192.2</ele><time>2026-04-18T09:06:07.001Z</time></trkpt><trkpt lat="43.43062570794377" lon="10.89614859677408"><ele>194.4</ele><time>2026-04-18T09:06:08.001Z</time></trkpt><trkpt lat="43.43070074873132" lon="10.896252219311572"><ele>196.60000000000002</ele><time>2026-04-18T09:06:09.001Z</time></trkpt><trkpt lat="43.43077733965348" lon="10.89636461778451"><ele>198.8</ele><time>2026-04-18T09:06:10.001Z</time></trkpt><trkpt lat="43.43085427208659" lon="10.896495519926457"><ele>201.0</ele><time>2026-04-18T09:06:11.001Z</time></trkpt><trkpt lat="43.43091874602607" lon="10.89660154957395"><ele>201.0</ele><time>2026-04-18T09:06:12.001Z</time></trkpt><trkpt lat="43.43097135895763" lon="10.896698089388162"><ele>201.0</ele><time>2026-04-18T09:06:13.001Z</time></trkpt><trkpt lat="43.431005175795505" lon="10.896785282609052"><ele>201.0</ele><time>2026-04-18T09:06:14.001Z</time></trkpt><trkpt lat="43.431021160728974" lon="10.896893914121144"><ele>201.0</ele><time>2026-04-18T09:06:15.001Z</time></trkpt><trkpt lat="43.431020337112045" lon="10.897007715163774"><ele>201.0</ele><time>2026-04-18T09:06:16.001Z</time></trkpt><trkpt lat="43.43100252097591" lon="10.89712646482154"><ele>201.0</ele><time>2026-04-18T09:06:17.001Z</time></trkpt><trkpt lat="43.43095776156384" lon="10.897241560989055"><ele>202.33333333333334</ele><time>2026-04-18T09:06:18.001Z</time></trkpt><trkpt lat="43.430920934681396" lon="10.897336039290641"><ele>203.66666666666669</ele><time>2026-04-18T09:06:19.001Z</time></trkpt><trkpt lat="43.43087614531833" lon="10.897407072517643"><ele>205.0</ele><time>2026-04-18T09:06:20.001Z</time></trkpt><trkpt lat="43.430793960605925" lon="10.897442915545767"><ele>206.33333333333334</ele><time>2026-04-18T09:06:22.001Z</time></trkpt><trkpt lat="43.4307331548213" lon="10.897394660703474"><ele>207.66666666666669</ele><time>2026-04-18T09:06:23.001Z</time></trkpt><trkpt lat="43.43070418605704" lon="10.89727429117778"><ele>209.0</ele><time>2026-04-18T09:06:24.001Z</time></trkpt><trkpt lat="43.43064443860368" lon="10.897145168734339"><ele>209.0</ele><time>2026-04-18T09:06:25.001Z</time></trkpt><trkpt lat="43.43056643064325" lon="10.897062437353012"><ele>209.0</ele><time>2026-04-18T09:06:26.001Z</time></trkpt><trkpt lat="43.43044934576023" lon="10.897072315475548"><ele>209.0</ele><time>2026-04-18T09:06:27.001Z</time></trkpt><trkpt lat="43.43036127711029" lon="10.89719217261004"><ele>209.0</ele><time>2026-04-18T09:06:28.001Z</time></trkpt><trkpt lat="43.43026183730133" lon="10.897243611449824"><ele>209.0</ele><time>2026-04-18T09:06:29.001Z</time></trkpt><trkpt lat="43.430148512571535" lon="10.897320059588678"><ele>210.39999999999998</ele><time>2026-04-18T09:06:30.001Z</time></trkpt><trkpt lat="43.43005200610749" lon="10.897383289335068"><ele>211.8</ele><time>2026-04-18T09:06:31.001Z</time></trkpt><trkpt lat="43.42997649415997" lon="10.897456787760277"><ele>213.20000000000002</ele><time>2026-04-18T09:06:32.001Z</time></trkpt><trkpt lat="43.42991478349922" lon="10.897558086699824"><ele>214.60000000000002</ele><time>2026-04-18T09:06:33.002Z</time></trkpt><trkpt lat="43.42989888430759" lon="10.897684529205753"><ele>216.0</ele><time>2026-04-18T09:06:34.002Z</time></trkpt><trkpt lat="43.42991869781423" lon="10.897832288322192"><ele>217.5</ele><time>2026-04-18T09:06:35.002Z</time></trkpt><trkpt lat="43.429921427348354" lon="10.898000595984277"><ele>219.0</ele><time>2026-04-18T09:06:36.002Z</time></trkpt><trkpt lat="43.42992046982536" lon="10.89819128936845"><ele>220.5</ele><time>2026-04-18T09:06:37.002Z</time></trkpt><trkpt lat="43.42992314227377" lon="10.898399238350835"><ele>222.0</ele><time>2026-04-18T09:06:38.002Z</time></trkpt><trkpt lat="43.429935781566435" lon="10.898590899075753"><ele>223.2</ele><time>2026-04-18T09:06:39.002Z</time></trkpt><trkpt lat="43.42995246637711" lon="10.898739713612251"><ele>224.39999999999998</ele><time>2026-04-18T09:06:40.002Z</time></trkpt><trkpt lat="43.42996247330073" lon="10.898873314568599"><ele>225.60000000000002</ele><time>2026-04-18T09:06:41.002Z</time></trkpt><trkpt lat="43.42995698357297" lon="10.89898283670562"><ele>226.8</ele><time>2026-04-18T09:06:42.002Z</time></trkpt><trkpt lat="43.4298952055797" lon="10.899114798774008"><ele>228.0</ele><time>2026-04-18T09:06:44.002Z</time></trkpt><trkpt lat="43.429813805363615" lon="10.899093111615327"><ele>228.0</ele><time>2026-04-18T09:06:45.002Z</time></trkpt><trkpt lat="43.42975462173934" lon="10.899027790046253"><ele>228.0</ele><time>2026-04-18T09:06:46.002Z</time></trkpt><trkpt lat="43.42965355087287" lon="10.899001050485191"><ele>228.0</ele><time>2026-04-18T09:06:47.002Z</time></trkpt><trkpt lat="43.429542198595904" lon="10.898977175090575"><ele>228.0</ele><time>2026-04-18T09:06:48.002Z</time></trkpt><trkpt lat="43.429399046477876" lon="10.899035227435782"><ele>228.0</ele><time>2026-04-18T09:06:49.002Z</time></trkpt><trkpt lat="43.42926348994015" lon="10.899106804979109"><ele>229.60000000000002</ele><time>2026-04-18T09:06:50.002Z</time></trkpt><trkpt lat="43.42913899654139" lon="10.899132246897807"><ele>231.20000000000002</ele><time>2026-04-18T09:06:51.002Z</time></trkpt><trkpt lat="43.42904971233553" lon="10.899167144091757"><ele>232.8</ele><time>2026-04-18T09:06:52.002Z</time></trkpt><trkpt lat="43.42898968342294" lon="10.899209531366898"><ele>234.4</ele><time>2026-04-18T09:06:53.002Z</time></trkpt><trkpt lat="43.428940974773404" lon="10.899364276544711"><ele>236.0</ele><time>2026-04-18T09:06:55.002Z</time></trkpt><trkpt lat="43.42899276402503" lon="10.899474518191589"><ele>237.60000000000002</ele><time>2026-04-18T09:06:56.002Z</time></trkpt><trkpt lat="43.42903481043869" lon="10.899587892068281"><ele>239.20000000000002</ele><time>2026-04-18T09:06:57.002Z</time></trkpt><trkpt lat="43.429091154172525" lon="10.899725003554389"><ele>240.79999999999998</ele><time>2026-04-18T09:06:58.002Z</time></trkpt><trkpt lat="43.4291504211174" lon="10.89986518566366"><ele>242.39999999999998</ele><time>2026-04-18T09:06:59.002Z</time></trkpt><trkpt lat="43.42919149471854" lon="10.899976815790893"><ele>244.0</ele><time>2026-04-18T09:07:00.002Z</time></trkpt><trkpt lat="43.42920325093271" lon="10.900089617938736"><ele>245.0</ele><time>2026-04-18T09:07:01.002Z</time></trkpt><trkpt lat="43.429203970695355" lon="10.900204793475144"><ele>245.99999999999997</ele><time>2026-04-18T09:07:02.002Z</time></trkpt><trkpt lat="43.42917210790461" lon="10.900305297260331"><ele>246.99999999999997</ele><time>2026-04-18T09:07:03.002Z</time></trkpt><trkpt lat="43.42911883302145" lon="10.900417404465047"><ele>248.0</ele><time>2026-04-18T09:07:04.002Z</time></trkpt><trkpt lat="43.42902837850507" lon="10.90050220976826"><ele>249.0</ele><time>2026-04-18T09:07:05.002Z</time></trkpt><trkpt lat="43.42894629691353" lon="10.900548533099265"><ele>249.0</ele><time>2026-04-18T09:07:06.002Z</time></trkpt><trkpt lat="43.42885567791551" lon="10.900542046040792"><ele>248.99999999999997</ele><time>2026-04-18T09:07:07.002Z</time></trkpt><trkpt lat="43.42875222941717" lon="10.900570104071425"><ele>248.99999999999997</ele><time>2026-04-18T09:07:08.002Z</time></trkpt><trkpt lat="43.428682833733525" lon="10.900608434141004"><ele>249.0</ele><time>2026-04-18T09:07:09.002Z</time></trkpt><trkpt lat="43.42862875742625" lon="10.900709871047997"><ele>249.0</ele><time>2026-04-18T09:07:10.002Z</time></trkpt><trkpt lat="43.42860348963353" lon="10.900829191499888"><ele>253.0</ele><time>2026-04-18T09:07:11.003Z</time></trkpt><trkpt lat="43.42862878126473" lon="10.900983526904474"><ele>257.0</ele><time>2026-04-18T09:07:12.003Z</time></trkpt><trkpt lat="43.42864753743376" lon="10.901141073809544"><ele>261.0</ele><time>2026-04-18T09:07:12.999Z</time></trkpt><trkpt lat="43.428692379918644" lon="10.90131309998301"><ele>265.0</ele><time>2026-04-18T09:07:13.999Z</time></trkpt><trkpt lat="43.4287612691978" lon="10.901477667119403"><ele>265.75</ele><time>2026-04-18T09:07:14.999Z</time></trkpt><trkpt lat="43.42884309840916" lon="10.901611777645995"><ele>266.5</ele><time>2026-04-18T09:07:15.999Z</time></trkpt><trkpt lat="43.42895278502248" lon="10.90173686529726"><ele>267.25</ele><time>2026-04-18T09:07:16.999Z</time></trkpt><trkpt lat="43.42906789762544" lon="10.9018776777824"><ele>268.0</ele><time>2026-04-18T09:07:17.999Z</time></trkpt><trkpt lat="43.429164189082336" lon="10.902023514237358"><ele>268.0</ele><time>2026-04-18T09:07:18.999Z</time></trkpt><trkpt lat="43.429250462189735" lon="10.902155894872829"><ele>268.0</ele><time>2026-04-18T09:07:19.999Z</time></trkpt><trkpt lat="43.42935640294443" lon="10.902261815330531"><ele>268.0</ele><time>2026-04-18T09:07:20.999Z</time></trkpt><trkpt lat="43.429476594592025" lon="10.9023650136875"><ele>268.0</ele><time>2026-04-18T09:07:21.999Z</time></trkpt><trkpt lat="43.4295735466334" lon="10.90245728146886"><ele>268.2</ele><time>2026-04-18T09:07:22.999Z</time></trkpt><trkpt lat="43.42964691881786" lon="10.90252894399686"><ele>268.4</ele><time>2026-04-18T09:07:23.999Z</time></trkpt><trkpt lat="43.429708967966306" lon="10.902641632721725"><ele>268.59999999999997</ele><time>2026-04-18T09:07:25.999Z</time></trkpt><trkpt lat="43.42966824277402" lon="10.902782925439837"><ele>268.8</ele><time>2026-04-18T09:07:27.999Z</time></trkpt><trkpt lat="43.42960811723301" lon="10.902817401782553"><ele>269.0</ele><time>2026-04-18T09:07:28.999Z</time></trkpt><trkpt lat="43.42951272537744" lon="10.902794511756845"><ele>270.4</ele><time>2026-04-18T09:07:29.999Z</time></trkpt><trkpt lat="43.42939735264485" lon="10.902808764588844"><ele>271.79999999999995</ele><time>2026-04-18T09:07:31Z</time></trkpt><trkpt lat="43.429293174247924" lon="10.902818265136105"><ele>273.20000000000005</ele><time>2026-04-18T09:07:32Z</time></trkpt><trkpt lat="43.42922143662057" lon="10.902783744031517"><ele>274.6</ele><time>2026-04-18T09:07:33Z</time></trkpt><trkpt lat="43.4291619164746" lon="10.902723015760447"><ele>276.0</ele><time>2026-04-18T09:07:34Z</time></trkpt><trkpt lat="43.42913059176348" lon="10.902613243805565"><ele>276.40000000000003</ele><time>2026-04-18T09:07:35Z</time></trkpt><trkpt lat="43.42906846484963" lon="10.902484277259939"><ele>276.8</ele><time>2026-04-18T09:07:36Z</time></trkpt><trkpt lat="43.42900905673524" lon="10.902375278772764"><ele>277.20000000000005</ele><time>2026-04-18T09:07:37Z</time></trkpt><trkpt lat="43.42892799224967" lon="10.902305689299691"><ele>277.6</ele><time>2026-04-18T09:07:38Z</time></trkpt><trkpt lat="43.42884326983175" lon="10.902251792785444"><ele>278.0</ele><time>2026-04-18T09:07:39Z</time></trkpt><trkpt lat="43.42875528709106" lon="10.902218887158707"><ele>278.0</ele><time>2026-04-18T09:07:40Z</time></trkpt><trkpt lat="43.42864704356888" lon="10.902256255943549"><ele>278.0</ele><time>2026-04-18T09:07:41Z</time></trkpt><trkpt lat="43.428533980983964" lon="10.90228791729729"><ele>278.0</ele><time>2026-04-18T09:07:42Z</time></trkpt><trkpt lat="43.42840115828221" lon="10.902321617273554"><ele>278.0</ele><time>2026-04-18T09:07:43Z</time></trkpt><trkpt lat="43.42828844563147" lon="10.902355634242863"><ele>278.0</ele><time>2026-04-18T09:07:44Z</time></trkpt><trkpt lat="43.42820265308329" lon="10.902357952412382"><ele>278.0</ele><time>2026-04-18T09:07:45Z</time></trkpt><trkpt lat="43.42811852272034" lon="10.902320790686908"><ele>278.0</ele><time>2026-04-18T09:07:46Z</time></trkpt><trkpt lat="43.42802355608989" lon="10.902256819806224"><ele>278.0</ele><time>2026-04-18T09:07:47Z</time></trkpt><trkpt lat="43.42790736084697" lon="10.902192178669724"><ele>278.0</ele><time>2026-04-18T09:07:48Z</time></trkpt><trkpt lat="43.427811429001025" lon="10.902140156555907"><ele>278.42857142857144</ele><time>2026-04-18T09:07:49Z</time></trkpt><trkpt lat="43.427745822890174" lon="10.902108399632358"><ele>278.8571428571429</ele><time>2026-04-18T09:07:50Z</time></trkpt><trkpt lat="43.42768004556682" lon="10.902100087964058"><ele>279.28571428571433</ele><time>2026-04-18T09:07:51Z</time></trkpt><trkpt lat="43.427611917801514" lon="10.902150574935797"><ele>279.7142857142857</ele><time>2026-04-18T09:07:52Z</time></trkpt><trkpt lat="43.42756032386882" lon="10.902217241800503"><ele>280.14285714285717</ele><time>2026-04-18T09:07:53Z</time></trkpt><trkpt lat="43.427530555292094" lon="10.902298306436517"><ele>280.5714285714286</ele><time>2026-04-18T09:07:54Z</time></trkpt><trkpt lat="43.42758109338414" lon="10.902399710978752"><ele>281.0</ele><time>2026-04-18T09:07:55Z</time></trkpt><trkpt lat="43.42763010239474" lon="10.902480931605576"><ele>281.0</ele><time>2026-04-18T09:07:56Z</time></trkpt><trkpt lat="43.42770526785771" lon="10.902565544054964"><ele>281.0</ele><time>2026-04-18T09:07:57.001Z</time></trkpt><trkpt lat="43.427802617202644" lon="10.902663204489922"><ele>281.0</ele><time>2026-04-18T09:07:58.001Z</time></trkpt><trkpt lat="43.42791176899373" lon="10.902774695809699"><ele>281.0</ele><time>2026-04-18T09:07:59.001Z</time></trkpt><trkpt lat="43.428033383687655" lon="10.90289484639629"><ele>282.5</ele><time>2026-04-18T09:08:00.001Z</time></trkpt><trkpt lat="43.428160318663544" lon="10.902997031750644"><ele>284.0</ele><time>2026-04-18T09:08:01.001Z</time></trkpt><trkpt lat="43.428261595733154" lon="10.903073951234875"><ele>285.5</ele><time>2026-04-18T09:08:02.001Z</time></trkpt><trkpt lat="43.42835195079595" lon="10.90314693317395"><ele>287.0</ele><time>2026-04-18T09:08:03.001Z</time></trkpt><trkpt lat="43.42843424966336" lon="10.903243268500802"><ele>287.0</ele><time>2026-04-18T09:08:04.001Z</time></trkpt><trkpt lat="43.42850176785723" lon="10.903354813390958"><ele>287.0</ele><time>2026-04-18T09:08:05.001Z</time></trkpt><trkpt lat="43.42857277701131" lon="10.903497913448607"><ele>287.0</ele><time>2026-04-18T09:08:06.001Z</time></trkpt><trkpt lat="43.428645037161566" lon="10.903649693885066"><ele>287.0</ele><time>2026-04-18T09:08:07.001Z</time></trkpt><trkpt lat="43.4287073609731" lon="10.903805914288702"><ele>286.25</ele><time>2026-04-18T09:08:08.001Z</time></trkpt><trkpt lat="43.42876662102258" lon="10.903987092214093"><ele>285.5</ele><time>2026-04-18T09:08:09.001Z</time></trkpt><trkpt lat="43.42882177221908" lon="10.904175196967932"><ele>284.75</ele><time>2026-04-18T09:08:10.001Z</time></trkpt><trkpt lat="43.428876069644005" lon="10.90436719217961"><ele>284.0</ele><time>2026-04-18T09:08:11.001Z</time></trkpt><trkpt lat="43.4289123923234" lon="10.90453611543887"><ele>286.0</ele><time>2026-04-18T09:08:12.001Z</time></trkpt><trkpt lat="43.42893495400698" lon="10.904683446290864"><ele>288.0</ele><time>2026-04-18T09:08:13.001Z</time></trkpt><trkpt lat="43.4289591711682" lon="10.904818376909587"><ele>290.0</ele><time>2026-04-18T09:08:14.001Z</time></trkpt><trkpt lat="43.429015955483166" lon="10.904945101508641"><ele>292.0</ele><time>2026-04-18T09:08:15.001Z</time></trkpt><trkpt lat="43.429094623970286" lon="10.905049454613374"><ele>294.0</ele><time>2026-04-18T09:08:16.001Z</time></trkpt><trkpt lat="43.42919244784671" lon="10.9051603589034"><ele>296.0</ele><time>2026-04-18T09:08:17.001Z</time></trkpt><trkpt lat="43.42928578339156" lon="10.905281811621515"><ele>298.0</ele><time>2026-04-18T09:08:18.001Z</time></trkpt><trkpt lat="43.42935642561184" lon="10.90540138563127"><ele>300.0</ele><time>2026-04-18T09:08:19.001Z</time></trkpt><trkpt lat="43.42938624654842" lon="10.905497046515748"><ele>302.0</ele><time>2026-04-18T09:08:20.001Z</time></trkpt><trkpt lat="43.42940398165132" lon="10.90560577966184"><ele>304.0</ele><time>2026-04-18T09:08:21.001Z</time></trkpt><trkpt lat="43.42939098586162" lon="10.905707743402589"><ele>304.0</ele><time>2026-04-18T09:08:22.001Z</time></trkpt><trkpt lat="43.42936028269205" lon="10.905810928881063"><ele>304.0</ele><time>2026-04-18T09:08:23.001Z</time></trkpt><trkpt lat="43.42930363554985" lon="10.905878894984182"><ele>304.0</ele><time>2026-04-18T09:08:24.001Z</time></trkpt><trkpt lat="43.42922523643504" lon="10.9059163263401"><ele>304.0</ele><time>2026-04-18T09:08:25.001Z</time></trkpt><trkpt lat="43.42913835562987" lon="10.905905226878573"><ele>304.0</ele><time>2026-04-18T09:08:26.001Z</time></trkpt><trkpt lat="43.42906550804414" lon="10.905819831890657"><ele>304.0</ele><time>2026-04-18T09:08:27.001Z</time></trkpt><trkpt lat="43.42896277338208" lon="10.905744901500253"><ele>304.0</ele><time>2026-04-18T09:08:28.001Z</time></trkpt><trkpt lat="43.42883966922331" lon="10.905657767409124"><ele>304.0</ele><time>2026-04-18T09:08:29.001Z</time></trkpt><trkpt lat="43.428698231473916" lon="10.90556224974074"><ele>304.0</ele><time>2026-04-18T09:08:30.002Z</time></trkpt><trkpt lat="43.42854507233167" lon="10.905469606430499"><ele>308.3333333333333</ele><time>2026-04-18T09:08:31.002Z</time></trkpt><trkpt lat="43.42838871003976" lon="10.90538183269327"><ele>312.6666666666667</ele><time>2026-04-18T09:08:32.002Z</time></trkpt><trkpt lat="43.42823397313817" lon="10.9053130924974"><ele>317.0</ele><time>2026-04-18T09:08:33.002Z</time></trkpt><trkpt lat="43.428093888607556" lon="10.905225408812834"><ele>317.25</ele><time>2026-04-18T09:08:34.002Z</time></trkpt><trkpt lat="43.42795962224576" lon="10.905125059914178"><ele>317.5</ele><time>2026-04-18T09:08:35.002Z</time></trkpt><trkpt lat="43.427835471351884" lon="10.905041175534125"><ele>317.75</ele><time>2026-04-18T09:08:36.002Z</time></trkpt><trkpt lat="43.427705153332894" lon="10.904974811605191"><ele>318.0</ele><time>2026-04-18T09:08:37.002Z</time></trkpt><trkpt lat="43.42759046899527" lon="10.904871999625934"><ele>318.0</ele><time>2026-04-18T09:08:38.002Z</time></trkpt><trkpt lat="43.42747920483258" lon="10.904800169503117"><ele>318.0</ele><time>2026-04-18T09:08:39.002Z</time></trkpt><trkpt lat="43.42737966115926" lon="10.904762154180778"><ele>318.0</ele><time>2026-04-18T09:08:40.002Z</time></trkpt><trkpt lat="43.42729595701589" lon="10.904790760099816"><ele>318.0</ele><time>2026-04-18T09:08:41.002Z</time></trkpt><trkpt lat="43.42719572422386" lon="10.904855617496896"><ele>318.0</ele><time>2026-04-18T09:08:43.002Z</time></trkpt><trkpt lat="43.427145966905144" lon="10.904911457758931"><ele>318.0</ele><time>2026-04-18T09:08:44.002Z</time></trkpt><trkpt lat="43.42708363889476" lon="10.904968616681694"><ele>318.0</ele><time>2026-04-18T09:08:45.002Z</time></trkpt><trkpt lat="43.4270724915458" lon="10.905156398902049"><ele>318.0</ele><time>2026-04-18T09:08:46.002Z</time></trkpt><trkpt lat="43.42701950017703" lon="10.905283839325643"><ele>318.0</ele><time>2026-04-18T09:08:47.002Z</time></trkpt><trkpt lat="43.426951115205156" lon="10.905389067004661"><ele>318.0</ele><time>2026-04-18T09:08:48.002Z</time></trkpt><trkpt lat="43.42685276515001" lon="10.90543727104278"><ele>320.6</ele><time>2026-04-18T09:08:49.002Z</time></trkpt><trkpt lat="43.42674736472255" lon="10.905491393173186"><ele>323.20000000000005</ele><time>2026-04-18T09:08:50.002Z</time></trkpt><trkpt lat="43.426649193161246" lon="10.905536054927799"><ele>325.8</ele><time>2026-04-18T09:08:51.002Z</time></trkpt><trkpt lat="43.426562708243786" lon="10.90562059155225"><ele>328.40000000000003</ele><time>2026-04-18T09:08:53.002Z</time></trkpt><trkpt lat="43.426580463368474" lon="10.90571394433903"><ele>331.0</ele><time>2026-04-18T09:08:54.002Z</time></trkpt><trkpt lat="43.42669043178399" lon="10.905833969159374"><ele>331.0</ele><time>2026-04-18T09:08:56.002Z</time></trkpt><trkpt lat="43.42677847909676" lon="10.90588684421805"><ele>331.0</ele><time>2026-04-18T09:08:57.002Z</time></trkpt><trkpt lat="43.4268648054173" lon="10.905940171018333"><ele>331.0</ele><time>2026-04-18T09:08:58.002Z</time></trkpt><trkpt lat="43.42695052456641" lon="10.906009155376998"><ele>331.0</ele><time>2026-04-18T09:08:59.002Z</time></trkpt><trkpt lat="43.427053841511245" lon="10.906099041930535"><ele>331.0</ele><time>2026-04-18T09:09:00.002Z</time></trkpt><trkpt lat="43.42717851320298" lon="10.906197267432116"><ele>333.20000000000005</ele><time>2026-04-18T09:09:01.002Z</time></trkpt><trkpt lat="43.427278041259655" lon="10.906289262195694"><ele>335.40000000000003</ele><time>2026-04-18T09:09:02.002Z</time></trkpt><trkpt lat="43.427358471482606" lon="10.906366148600041"><ele>337.6</ele><time>2026-04-18T09:09:03.002Z</time></trkpt><trkpt lat="43.42744448496588" lon="10.90645314076917"><ele>339.8</ele><time>2026-04-18T09:09:04.002Z</time></trkpt><trkpt lat="43.42750878339422" lon="10.906553132294363"><ele>342.0</ele><time>2026-04-18T09:09:05.002Z</time></trkpt><trkpt lat="43.427561222331335" lon="10.906674235331156"><ele>344.5</ele><time>2026-04-18T09:09:06.003Z</time></trkpt><trkpt lat="43.42761691165438" lon="10.906818490427485"><ele>347.0</ele><time>2026-04-18T09:09:07.003Z</time></trkpt><trkpt lat="43.42766967194318" lon="10.906986306848568"><ele>349.5</ele><time>2026-04-18T09:09:08.003Z</time></trkpt><trkpt lat="43.42772157383223" lon="10.907146938842345"><ele>352.0</ele><time>2026-04-18T09:09:09.003Z</time></trkpt><trkpt lat="43.427761973802994" lon="10.907274298636782"><ele>352.0</ele><time>2026-04-18T09:09:10.003Z</time></trkpt><trkpt lat="43.42778915186058" lon="10.90740483404995"><ele>352.0</ele><time>2026-04-18T09:09:11.003Z</time></trkpt><trkpt lat="43.427801003939265" lon="10.90754255254698"><ele>352.0</ele><time>2026-04-18T09:09:12.003Z</time></trkpt><trkpt lat="43.42777493919394" lon="10.907665820010395"><ele>352.0</ele><time>2026-04-18T09:09:13.003Z</time></trkpt><trkpt lat="43.42775532865651" lon="10.907782536280752"><ele>352.0</ele><time>2026-04-18T09:09:14.003Z</time></trkpt><trkpt lat="43.4277096738447" lon="10.90790258875058"><ele>353.0</ele><time>2026-04-18T09:09:15.003Z</time></trkpt><trkpt lat="43.427662857018085" lon="10.908049268314683"><ele>354.0</ele><time>2026-04-18T09:09:16.003Z</time></trkpt><trkpt lat="43.42760149039439" lon="10.908195412570379"><ele>355.0</ele><time>2026-04-18T09:09:17.003Z</time></trkpt><trkpt lat="43.42754424614648" lon="10.908337774765721"><ele>356.0</ele><time>2026-04-18T09:09:18.003Z</time></trkpt><trkpt lat="43.42746853511569" lon="10.908464439147005"><ele>356.8</ele><time>2026-04-18T09:09:18.999Z</time></trkpt><trkpt lat="43.427403508009846" lon="10.908563187467633"><ele>357.6</ele><time>2026-04-18T09:09:19.999Z</time></trkpt><trkpt lat="43.42728094897012" lon="10.908605156486246"><ele>358.4</ele><time>2026-04-18T09:09:21.999Z</time></trkpt><trkpt lat="43.42718747059112" lon="10.908659515292454"><ele>359.2</ele><time>2026-04-18T09:09:22.999Z</time></trkpt><trkpt lat="43.42712767546568" lon="10.908712739927001"><ele>360.0</ele><time>2026-04-18T09:09:23.999Z</time></trkpt><trkpt lat="43.42709113330635" lon="10.90878694079223"><ele>360.0</ele><time>2026-04-18T09:09:24.999Z</time></trkpt><trkpt lat="43.427105094658735" lon="10.908902686302017"><ele>360.0</ele><time>2026-04-18T09:09:25.999Z</time></trkpt><trkpt lat="43.42713882739738" lon="10.90898157862121"><ele>360.0</ele><time>2026-04-18T09:09:26.999Z</time></trkpt><trkpt lat="43.42720712684717" lon="10.909056763912059"><ele>360.0</ele><time>2026-04-18T09:09:27.999Z</time></trkpt><trkpt lat="43.42729048390682" lon="10.909134654631513"><ele>360.0</ele><time>2026-04-18T09:09:28.999Z</time></trkpt><trkpt lat="43.42738286222838" lon="10.90923250000676"><ele>361.8</ele><time>2026-04-18T09:09:29.999Z</time></trkpt><trkpt lat="43.42749277380634" lon="10.909313187974165"><ele>363.6</ele><time>2026-04-18T09:09:30.999Z</time></trkpt><trkpt lat="43.42758426245348" lon="10.909378642635678"><ele>365.4</ele><time>2026-04-18T09:09:31.999Z</time></trkpt><trkpt lat="43.427660145736766" lon="10.90944224096917"><ele>367.2</ele><time>2026-04-18T09:09:32.999Z</time></trkpt><trkpt lat="43.427733008057" lon="10.909498257616253"><ele>369.0</ele><time>2026-04-18T09:09:33.999Z</time></trkpt><trkpt lat="43.42778297268523" lon="10.90959743873312"><ele>369.0</ele><time>2026-04-18T09:09:35Z</time></trkpt><trkpt lat="43.42777907310088" lon="10.909730965756825"><ele>369.0</ele><time>2026-04-18T09:09:36Z</time></trkpt><trkpt lat="43.427766173983315" lon="10.909843982431354"><ele>369.0</ele><time>2026-04-18T09:09:37Z</time></trkpt><trkpt lat="43.42774327211898" lon="10.90996475085704"><ele>369.0</ele><time>2026-04-18T09:09:38Z</time></trkpt><trkpt lat="43.427710707045954" lon="10.910118883143692"><ele>369.0</ele><time>2026-04-18T09:09:39Z</time></trkpt><trkpt lat="43.42771977378411" lon="10.91027198902752"><ele>370.4</ele><time>2026-04-18T09:09:40Z</time></trkpt><trkpt lat="43.427752136106115" lon="10.910393344707597"><ele>371.79999999999995</ele><time>2026-04-18T09:09:41Z</time></trkpt><trkpt lat="43.42781147119351" lon="10.910520191790566"><ele>373.20000000000005</ele><time>2026-04-18T09:09:42Z</time></trkpt><trkpt lat="43.42787681157556" lon="10.910660094731309"><ele>374.6</ele><time>2026-04-18T09:09:43Z</time></trkpt><trkpt lat="43.4279092217435" lon="10.910818058797812"><ele>376.0</ele><time>2026-04-18T09:09:44Z</time></trkpt><trkpt lat="43.42790464947016" lon="10.910949892008645"><ele>378.0</ele><time>2026-04-18T09:09:45Z</time></trkpt><trkpt lat="43.42789560880216" lon="10.911100879497216"><ele>380.0</ele><time>2026-04-18T09:09:46Z</time></trkpt><trkpt lat="43.42788797586002" lon="10.911286356169027"><ele>382.0</ele><time>2026-04-18T09:09:47Z</time></trkpt><trkpt lat="43.42788191851923" lon="10.911476875059185"><ele>384.0</ele><time>2026-04-18T09:09:48Z</time></trkpt><trkpt lat="43.427872169258116" lon="10.911671585989886"><ele>385.75</ele><time>2026-04-18T09:09:49Z</time></trkpt><trkpt lat="43.427863495053494" lon="10.91186711090535"><ele>387.5</ele><time>2026-04-18T09:09:50Z</time></trkpt><trkpt lat="43.42785035347547" lon="10.912042993102022"><ele>389.25</ele><time>2026-04-18T09:09:51Z</time></trkpt><trkpt lat="43.427830529390455" lon="10.912206891376409"><ele>391.0</ele><time>2026-04-18T09:09:52Z</time></trkpt><trkpt lat="43.42779711672384" lon="10.912349582804167"><ele>391.0</ele><time>2026-04-18T09:09:53Z</time></trkpt><trkpt lat="43.42775269756605" lon="10.91250534887503"><ele>391.0</ele><time>2026-04-18T09:09:54Z</time></trkpt><trkpt lat="43.42768888462009" lon="10.912662428427108"><ele>391.0</ele><time>2026-04-18T09:09:55Z</time></trkpt><trkpt lat="43.42761077303644" lon="10.912825913940274"><ele>391.0</ele><time>2026-04-18T09:09:56Z</time></trkpt><trkpt lat="43.4275251218675" lon="10.912979002457266"><ele>390.4</ele><time>2026-04-18T09:09:57Z</time></trkpt><trkpt lat="43.427453352485756" lon="10.91311851506484"><ele>389.8</ele><time>2026-04-18T09:09:58Z</time></trkpt><trkpt lat="43.42738412949835" lon="10.91323300757601"><ele>389.2</ele><time>2026-04-18T09:09:59Z</time></trkpt><trkpt lat="43.427343006389655" lon="10.913370488837423"><ele>388.59999999999997</ele><time>2026-04-18T09:10:00.001Z</time></trkpt><trkpt lat="43.427326575565104" lon="10.913506905462981"><ele>388.0</ele><time>2026-04-18T09:10:01.001Z</time></trkpt><trkpt lat="43.42732504951989" lon="10.913627161175656"><ele>387.75</ele><time>2026-04-18T09:10:02.001Z</time></trkpt><trkpt lat="43.42733993335344" lon="10.91376025520899"><ele>387.5</ele><time>2026-04-18T09:10:03.001Z</time></trkpt><trkpt lat="43.42738943589509" lon="10.913902244427089"><ele>387.25</ele><time>2026-04-18T09:10:04.001Z</time></trkpt><trkpt lat="43.42748497705791" lon="10.91404473339504"><ele>387.0</ele><time>2026-04-18T09:10:05.001Z</time></trkpt><trkpt lat="43.42759415908101" lon="10.914221372669072"><ele>385.6666666666667</ele><time>2026-04-18T09:10:06.001Z</time></trkpt><trkpt lat="43.42771614016553" lon="10.914401327880041"><ele>384.33333333333337</ele><time>2026-04-18T09:10:07.001Z</time></trkpt><trkpt lat="43.427848460850505" lon="10.914606445168312"><ele>383.0</ele><time>2026-04-18T09:10:08.001Z</time></trkpt><trkpt lat="43.42798360271852" lon="10.914812909657924"><ele>385.0</ele><time>2026-04-18T09:10:09.001Z</time></trkpt><trkpt lat="43.42807976857286" lon="10.915006868294036"><ele>387.0</ele><time>2026-04-18T09:10:10.001Z</time></trkpt><trkpt lat="43.428165632293336" lon="10.91515189850242"><ele>389.0</ele><time>2026-04-18T09:10:11.001Z</time></trkpt><trkpt lat="43.428247315981736" lon="10.91527336350476"><ele>391.0</ele><time>2026-04-18T09:10:12.001Z</time></trkpt><trkpt lat="43.428327370196065" lon="10.915361214584863"><ele>391.25</ele><time>2026-04-18T09:10:13.001Z</time></trkpt><trkpt lat="43.42842285083824" lon="10.915430123869564"><ele>391.5</ele><time>2026-04-18T09:10:14.001Z</time></trkpt><trkpt lat="43.42854917555829" lon="10.915442703283992"><ele>391.75</ele><time>2026-04-18T09:10:15.001Z</time></trkpt><trkpt lat="43.42867688100919" lon="10.91547927509756"><ele>392.0</ele><time>2026-04-18T09:10:16.001Z</time></trkpt><trkpt lat="43.428784736049785" lon="10.91551931210251"><ele>395.40000000000003</ele><time>2026-04-18T09:10:17.001Z</time></trkpt><trkpt lat="43.42886018549404" lon="10.915584989685438"><ele>398.8</ele><time>2026-04-18T09:10:18.001Z</time></trkpt><trkpt lat="43.42891351279154" lon="10.915688421361837"><ele>402.2</ele><time>2026-04-18T09:10:19.001Z</time></trkpt><trkpt lat="43.4289341013234" lon="10.915826470140082"><ele>405.6</ele><time>2026-04-18T09:10:20.001Z</time></trkpt><trkpt lat="43.42893424955468" lon="10.91597283449555"><ele>409.0</ele><time>2026-04-18T09:10:21.001Z</time></trkpt><trkpt lat="43.42892659092791" lon="10.916133447103006"><ele>410.25</ele><time>2026-04-18T09:10:22.001Z</time></trkpt><trkpt lat="43.428944394338124" lon="10.916307430011061"><ele>411.5</ele><time>2026-04-18T09:10:23.001Z</time></trkpt><trkpt lat="43.42896292885564" lon="10.916486619876226"><ele>412.75</ele><time>2026-04-18T09:10:24.001Z</time></trkpt><trkpt lat="43.428998580836726" lon="10.916688713354855"><ele>414.0</ele><time>2026-04-18T09:10:25.001Z</time></trkpt><trkpt lat="43.429035788125624" lon="10.916906304613578"><ele>414.66666666666663</ele><time>2026-04-18T09:10:26.001Z</time></trkpt><trkpt lat="43.42907286241602" lon="10.917117156164483"><ele>415.3333333333333</ele><time>2026-04-18T09:10:27.001Z</time></trkpt><trkpt lat="43.42911493506796" lon="10.917333520069274"><ele>416.0</ele><time>2026-04-18T09:10:28.001Z</time></trkpt><trkpt lat="43.429163028287626" lon="10.91754332803926"><ele>416.0</ele><time>2026-04-18T09:10:29.001Z</time></trkpt><trkpt lat="43.42920759993042" lon="10.9177340034469"><ele>416.0</ele><time>2026-04-18T09:10:30.001Z</time></trkpt><trkpt lat="43.42925226320088" lon="10.9179183495526"><ele>416.0</ele><time>2026-04-18T09:10:31.001Z</time></trkpt><trkpt lat="43.42927873574779" lon="10.918101862108927"><ele>416.0</ele><time>2026-04-18T09:10:32.002Z</time></trkpt><trkpt lat="43.42928627198745" lon="10.91830104290167"><ele>417.66666666666663</ele><time>2026-04-18T09:10:33.002Z</time></trkpt><trkpt lat="43.4292875811772" lon="10.918520960303992"><ele>419.33333333333337</ele><time>2026-04-18T09:10:34.002Z</time></trkpt><trkpt lat="43.42928196561427" lon="10.918738710369423"><ele>421.0</ele><time>2026-04-18T09:10:35.002Z</time></trkpt><trkpt lat="43.42923404330206" lon="10.918945278664705"><ele>421.0</ele><time>2026-04-18T09:10:36.002Z</time></trkpt><trkpt lat="43.42918585262408" lon="10.919152043420983"><ele>421.0</ele><time>2026-04-18T09:10:37.002Z</time></trkpt><trkpt lat="43.42911459372504" lon="10.919347507506819"><ele>421.0</ele><time>2026-04-18T09:10:38.002Z</time></trkpt><trkpt lat="43.42904617482371" lon="10.919519087855525"><ele>422.25</ele><time>2026-04-18T09:10:39.002Z</time></trkpt><trkpt lat="43.428986274027785" lon="10.919662024217876"><ele>423.5</ele><time>2026-04-18T09:10:40.002Z</time></trkpt><trkpt lat="43.42892941563501" lon="10.919797469669817"><ele>424.75</ele><time>2026-04-18T09:10:41.002Z</time></trkpt><trkpt lat="43.4288919735458" lon="10.9199584251768"><ele>426.0</ele><time>2026-04-18T09:10:42.002Z</time></trkpt><trkpt lat="43.42885772577933" lon="10.92009590184026"><ele>426.0</ele><time>2026-04-18T09:10:43.002Z</time></trkpt><trkpt lat="43.42885030978759" lon="10.920217699009841"><ele>426.0</ele><time>2026-04-18T09:10:44.002Z</time></trkpt><trkpt lat="43.428866902450935" lon="10.920354988424194"><ele>426.0</ele><time>2026-04-18T09:10:45.002Z</time></trkpt><trkpt lat="43.42890597688362" lon="10.920515521575648"><ele>426.0</ele><time>2026-04-18T09:10:46.002Z</time></trkpt><trkpt lat="43.428949016365614" lon="10.920685004867691"><ele>426.0</ele><time>2026-04-18T09:10:47.002Z</time></trkpt><trkpt lat="43.428977764976786" lon="10.920809450781688"><ele>425.3333333333333</ele><time>2026-04-18T09:10:48.002Z</time></trkpt><trkpt lat="43.42899433483465" lon="10.92091116316181"><ele>424.66666666666663</ele><time>2026-04-18T09:10:49.002Z</time></trkpt><trkpt lat="43.42900214913873" lon="10.921017292977908"><ele>424.0</ele><time>2026-04-18T09:10:50.002Z</time></trkpt><trkpt lat="43.42900536653121" lon="10.921128352260592"><ele>423.3333333333333</ele><time>2026-04-18T09:10:51.002Z</time></trkpt><trkpt lat="43.42899269187159" lon="10.921255081724434"><ele>422.66666666666663</ele><time>2026-04-18T09:10:52.002Z</time></trkpt><trkpt lat="43.428965344752825" lon="10.921368260895076"><ele>422.0</ele><time>2026-04-18T09:10:53.002Z</time></trkpt><trkpt lat="43.42890959552415" lon="10.921472848181244"><ele>422.0</ele><time>2026-04-18T09:10:54.002Z</time></trkpt><trkpt lat="43.42882206049497" lon="10.921575049531896"><ele>422.0</ele><time>2026-04-18T09:10:55.002Z</time></trkpt><trkpt lat="43.428716803026276" lon="10.921671885585107"><ele>422.0</ele><time>2026-04-18T09:10:56.002Z</time></trkpt><trkpt lat="43.42860150993021" lon="10.921775316125675"><ele>422.0</ele><time>2026-04-18T09:10:57.002Z</time></trkpt><trkpt lat="43.42848370890241" lon="10.921866712282357"><ele>422.0</ele><time>2026-04-18T09:10:58.002Z</time></trkpt><trkpt lat="43.42838354208333" lon="10.921991987068795"><ele>422.0</ele><time>2026-04-18T09:10:59.002Z</time></trkpt><trkpt lat="43.4282922808234" lon="10.922145811085437"><ele>422.0</ele><time>2026-04-18T09:11:00.002Z</time></trkpt><trkpt lat="43.42823765099054" lon="10.92232499157756"><ele>422.0</ele><time>2026-04-18T09:11:01.002Z</time></trkpt><trkpt lat="43.42818351168561" lon="10.922507676586832"><ele>422.25</ele><time>2026-04-18T09:11:02.002Z</time></trkpt><trkpt lat="43.42813534427687" lon="10.922700760455493"><ele>422.5</ele><time>2026-04-18T09:11:03.002Z</time></trkpt><trkpt lat="43.428083126233545" lon="10.922878034605118"><ele>422.75</ele><time>2026-04-18T09:11:04.002Z</time></trkpt><trkpt lat="43.42804126671337" lon="10.9230506767348"><ele>423.0</ele><time>2026-04-18T09:11:05.003Z</time></trkpt><trkpt lat="43.42799800065906" lon="10.92322148781443"><ele>430.0</ele><time>2026-04-18T09:11:06.003Z</time></trkpt><trkpt lat="43.427953524302" lon="10.92339217409168"><ele>437.0</ele><time>2026-04-18T09:11:07.003Z</time></trkpt><trkpt lat="43.42791397119268" lon="10.923553658907815"><ele>444.0</ele><time>2026-04-18T09:11:08.003Z</time></trkpt><trkpt lat="43.42787760484987" lon="10.923721823521248"><ele>451.0</ele><time>2026-04-18T09:11:09.003Z</time></trkpt><trkpt lat="43.42784356923681" lon="10.923917503869097"><ele>452.33333333333337</ele><time>2026-04-18T09:11:10.003Z</time></trkpt><trkpt lat="43.42782853928325" lon="10.92412002962652"><ele>453.66666666666663</ele><time>2026-04-18T09:11:11.003Z</time></trkpt><trkpt lat="43.42782167312388" lon="10.924319895346425"><ele>455.0</ele><time>2026-04-18T09:11:12.003Z</time></trkpt><trkpt lat="43.42782685729666" lon="10.924542844159467"><ele>456.0</ele><time>2026-04-18T09:11:13.003Z</time></trkpt><trkpt lat="43.42783090551163" lon="10.92476871621515"><ele>457.0</ele><time>2026-04-18T09:11:14.003Z</time></trkpt><trkpt lat="43.42783729126269" lon="10.924990567355325"><ele>458.0</ele><time>2026-04-18T09:11:15.003Z</time></trkpt><trkpt lat="43.427841310650784" lon="10.92520771915781"><ele>458.0</ele><time>2026-04-18T09:11:16.003Z</time></trkpt><trkpt lat="43.427845665282746" lon="10.925419117827406"><ele>458.0</ele><time>2026-04-18T09:11:17.003Z</time></trkpt><trkpt lat="43.42784930918674" lon="10.92561268415822"><ele>458.0</ele><time>2026-04-18T09:11:18.003Z</time></trkpt><trkpt lat="43.42784896625835" lon="10.925767396169093"><ele>458.0</ele><time>2026-04-18T09:11:19.003Z</time></trkpt><trkpt lat="43.42782013540394" lon="10.925886271173018"><ele>457.49999999999994</ele><time>2026-04-18T09:11:20.003Z</time></trkpt><trkpt lat="43.42778763133245" lon="10.925994775449372"><ele>457.0</ele><time>2026-04-18T09:11:21.003Z</time></trkpt><trkpt lat="43.42773789308903" lon="10.92611637255341"><ele>456.5</ele><time>2026-04-18T09:11:22.003Z</time></trkpt><trkpt lat="43.42768775440447" lon="10.926217056085571"><ele>456.0</ele><time>2026-04-18T09:11:23.003Z</time></trkpt><trkpt lat="43.4276553642185" lon="10.926296606141442"><ele>455.49999999999994</ele><time>2026-04-18T09:11:24.003Z</time></trkpt><trkpt lat="43.42758319359998" lon="10.926324961340914"><ele>455.0</ele><time>2026-04-18T09:11:25Z</time></trkpt><trkpt lat="43.42750434967574" lon="10.926348881626522"><ele>455.0</ele><time>2026-04-18T09:11:26Z</time></trkpt><trkpt lat="43.427414914598785" lon="10.926362245440602"><ele>455.0</ele><time>2026-04-18T09:11:27Z</time></trkpt><trkpt lat="43.4273044587761" lon="10.926385972896687"><ele>455.0</ele><time>2026-04-18T09:11:28Z</time></trkpt><trkpt lat="43.42718901535406" lon="10.92641432854727"><ele>455.0</ele><time>2026-04-18T09:11:29Z</time></trkpt><trkpt lat="43.427095339628735" lon="10.926459212616312"><ele>455.0</ele><time>2026-04-18T09:11:30Z</time></trkpt><trkpt lat="43.427019049035145" lon="10.926534444150947"><ele>457.6</ele><time>2026-04-18T09:11:31Z</time></trkpt><trkpt lat="43.426951748299565" lon="10.926635653892896"><ele>460.2</ele><time>2026-04-18T09:11:32Z</time></trkpt><trkpt lat="43.426931505121054" lon="10.926777764572407"><ele>462.79999999999995</ele><time>2026-04-18T09:11:33Z</time></trkpt><trkpt lat="43.42695909543645" lon="10.92690007356015"><ele>465.4</ele><time>2026-04-18T09:11:34Z</time></trkpt><trkpt lat="43.427000453942945" lon="10.926998185809927"><ele>468.0</ele><time>2026-04-18T09:11:35Z</time></trkpt><trkpt lat="43.427070043914114" lon="10.92708357514896"><ele>467.5</ele><time>2026-04-18T09:11:36Z</time></trkpt><trkpt lat="43.42716274902987" lon="10.927141847132981"><ele>467.0</ele><time>2026-04-18T09:11:37Z</time></trkpt><trkpt lat="43.427272899843985" lon="10.9271925210932"><ele>466.5</ele><time>2026-04-18T09:11:38Z</time></trkpt><trkpt lat="43.42740000544766" lon="10.927262093420685"><ele>466.0</ele><time>2026-04-18T09:11:39Z</time></trkpt><trkpt lat="43.4275074481272" lon="10.92735253992379"><ele>466.0</ele><time>2026-04-18T09:11:40Z</time></trkpt><trkpt lat="43.42758789952638" lon="10.927449644923126"><ele>466.0</ele><time>2026-04-18T09:11:41Z</time></trkpt><trkpt lat="43.42763511824958" lon="10.927572900686277"><ele>466.0</ele><time>2026-04-18T09:11:42Z</time></trkpt><trkpt lat="43.42769006858725" lon="10.927721858154705"><ele>466.0</ele><time>2026-04-18T09:11:43Z</time></trkpt><trkpt lat="43.42775437140953" lon="10.927881791027847"><ele>467.20000000000005</ele><time>2026-04-18T09:11:44Z</time></trkpt><trkpt lat="43.42782546782754" lon="10.928030544505704"><ele>468.40000000000003</ele><time>2026-04-18T09:11:45Z</time></trkpt><trkpt lat="43.427889056163266" lon="10.928171837530236"><ele>469.6</ele><time>2026-04-18T09:11:46Z</time></trkpt><trkpt lat="43.427931147109234" lon="10.928277392725102"><ele>470.8</ele><time>2026-04-18T09:11:47Z</time></trkpt><trkpt lat="43.427958700615775" lon="10.92836411689237"><ele>472.0</ele><time>2026-04-18T09:11:48Z</time></trkpt><trkpt lat="43.427979101334834" lon="10.928476000975543"><ele>472.0</ele><time>2026-04-18T09:11:49Z</time></trkpt><trkpt lat="43.42796006424956" lon="10.928628033400065"><ele>472.0</ele><time>2026-04-18T09:11:50Z</time></trkpt><trkpt lat="43.427984809652045" lon="10.928796519329516"><ele>472.0</ele><time>2026-04-18T09:11:51Z</time></trkpt><trkpt lat="43.4279897249264" lon="10.928955691365395"><ele>472.0</ele><time>2026-04-18T09:11:52Z</time></trkpt><trkpt lat="43.428017102762084" lon="10.92911137456043"><ele>475.25</ele><time>2026-04-18T09:11:53Z</time></trkpt><trkpt lat="43.42806854381628" lon="10.929276490557573"><ele>478.5</ele><time>2026-04-18T09:11:54Z</time></trkpt><trkpt lat="43.42811911905734" lon="10.92946559336472"><ele>481.75</ele><time>2026-04-18T09:11:55Z</time></trkpt><trkpt lat="43.428174476836595" lon="10.929636862424877"><ele>485.0</ele><time>2026-04-18T09:11:56.001Z</time></trkpt><trkpt lat="43.42821413443473" lon="10.929791479782471"><ele>485.0</ele><time>2026-04-18T09:11:57.001Z</time></trkpt><trkpt lat="43.42823133412431" lon="10.929922148160081"><ele>485.0</ele><time>2026-04-18T09:11:58.001Z</time></trkpt><trkpt lat="43.42823617441136" lon="10.930046366951643"><ele>485.0</ele><time>2026-04-18T09:11:59.001Z</time></trkpt><trkpt lat="43.428214189657226" lon="10.930180056588457"><ele>485.0</ele><time>2026-04-18T09:12:00.001Z</time></trkpt><trkpt lat="43.42818369960026" lon="10.930327401654404"><ele>485.0</ele><time>2026-04-18T09:12:01.001Z</time></trkpt><trkpt lat="43.42814677969076" lon="10.930512677655715"><ele>487.25</ele><time>2026-04-18T09:12:02.001Z</time></trkpt><trkpt lat="43.42811034473647" lon="10.930710234600163"><ele>489.5</ele><time>2026-04-18T09:12:03.001Z</time></trkpt><trkpt lat="43.42807003499147" lon="10.93090988447361"><ele>491.75</ele><time>2026-04-18T09:12:04.001Z</time></trkpt><trkpt lat="43.42801722854059" lon="10.931085010604589"><ele>494.0</ele><time>2026-04-18T09:12:05.001Z</time></trkpt><trkpt lat="43.42798722383831" lon="10.93122712889093"><ele>496.75</ele><time>2026-04-18T09:12:06.001Z</time></trkpt><trkpt lat="43.42800572150065" lon="10.931371082848056"><ele>499.5</ele><time>2026-04-18T09:12:07.001Z</time></trkpt><trkpt lat="43.42802795006304" lon="10.931524215607391"><ele>502.25</ele><time>2026-04-18T09:12:08.001Z</time></trkpt><trkpt lat="43.428049385487064" lon="10.93168945361565"><ele>505.0</ele><time>2026-04-18T09:12:09.001Z</time></trkpt><trkpt lat="43.42808829167906" lon="10.931840955355078"><ele>506.1666666666667</ele><time>2026-04-18T09:12:10.001Z</time></trkpt><trkpt lat="43.42810888989507" lon="10.931972167548125"><ele>507.33333333333337</ele><time>2026-04-18T09:12:11.001Z</time></trkpt><trkpt lat="43.42810654114387" lon="10.932061426920107"><ele>508.5</ele><time>2026-04-18T09:12:12.001Z</time></trkpt><trkpt lat="43.42806924761314" lon="10.932161783846912"><ele>509.66666666666663</ele><time>2026-04-18T09:12:13.001Z</time></trkpt><trkpt lat="43.42801104538181" lon="10.932227140521588"><ele>510.8333333333333</ele><time>2026-04-18T09:12:14.001Z</time></trkpt><trkpt lat="43.427940557161065" lon="10.932308156117893"><ele>512.0</ele><time>2026-04-18T09:12:15.001Z</time></trkpt><trkpt lat="43.427832910376374" lon="10.932345415995474"><ele>512.4</ele><time>2026-04-18T09:12:16.001Z</time></trkpt><trkpt lat="43.427779331163165" lon="10.932406406527878"><ele>512.8000000000001</ele><time>2026-04-18T09:12:17.001Z</time></trkpt><trkpt lat="43.42772527646993" lon="10.932469661616318"><ele>513.2</ele><time>2026-04-18T09:12:18.001Z</time></trkpt><trkpt lat="43.42771586575885" lon="10.932635038970181"><ele>513.6</ele><time>2026-04-18T09:12:20.001Z</time></trkpt><trkpt lat="43.427764434166136" lon="10.932750085844189"><ele>514.0</ele><time>2026-04-18T09:12:21.001Z</time></trkpt><trkpt lat="43.42779497706195" lon="10.932885329824718"><ele>514.0</ele><time>2026-04-18T09:12:22.001Z</time></trkpt><trkpt lat="43.4278516040198" lon="10.932999623527877"><ele>514.0</ele><time>2026-04-18T09:12:23.001Z</time></trkpt><trkpt lat="43.42789654745358" lon="10.933144217033053"><ele>514.0</ele><time>2026-04-18T09:12:24.001Z</time></trkpt><trkpt lat="43.42793859980945" lon="10.933296394474011"><ele>514.0</ele><time>2026-04-18T09:12:25.001Z</time></trkpt><trkpt lat="43.42797648018221" lon="10.933441362399495"><ele>514.0</ele><time>2026-04-18T09:12:26.001Z</time></trkpt><trkpt lat="43.42801181691408" lon="10.933561605033065"><ele>511.0</ele><time>2026-04-18T09:12:27.001Z</time></trkpt><trkpt lat="43.42805133508699" lon="10.933637451349213"><ele>508.0</ele><time>2026-04-18T09:12:28.001Z</time></trkpt><trkpt lat="43.42808747571055" lon="10.933747358853559"><ele>505.0</ele><time>2026-04-18T09:12:29.002Z</time></trkpt><trkpt lat="43.42813290302281" lon="10.933852174380306"><ele>502.0</ele><time>2026-04-18T09:12:30.002Z</time></trkpt><trkpt lat="43.42821044818294" lon="10.933938187375942"><ele>499.0</ele><time>2026-04-18T09:12:31.002Z</time></trkpt><trkpt lat="43.42830865565864" lon="10.934012340749609"><ele>499.0</ele><time>2026-04-18T09:12:32.002Z</time></trkpt><trkpt lat="43.428408075104436" lon="10.934106107709097"><ele>499.0</ele><time>2026-04-18T09:12:33.002Z</time></trkpt><trkpt lat="43.42851890848717" lon="10.934199134432177"><ele>499.0</ele><time>2026-04-18T09:12:34.002Z</time></trkpt><trkpt lat="43.42861148320765" lon="10.934299669234267"><ele>499.0</ele><time>2026-04-18T09:12:35.002Z</time></trkpt><trkpt lat="43.42871455499592" lon="10.934366074326618"><ele>496.5</ele><time>2026-04-18T09:12:36.002Z</time></trkpt><trkpt lat="43.42880587916125" lon="10.934472605747098"><ele>494.0</ele><time>2026-04-18T09:12:37.002Z</time></trkpt><trkpt lat="43.42891275250722" lon="10.93458025522015"><ele>491.5</ele><time>2026-04-18T09:12:38.002Z</time></trkpt><trkpt lat="43.429020469909304" lon="10.934674837447023"><ele>489.0</ele><time>2026-04-18T09:12:39.002Z</time></trkpt><trkpt lat="43.42913918525611" lon="10.934759573798367"><ele>489.0</ele><time>2026-04-18T09:12:40.002Z</time></trkpt><trkpt lat="43.42927670405653" lon="10.934842393301645"><ele>489.0</ele><time>2026-04-18T09:12:41.002Z</time></trkpt><trkpt lat="43.42941551033532" lon="10.934927861722214"><ele>489.0</ele><time>2026-04-18T09:12:42.002Z</time></trkpt><trkpt lat="43.42954902364925" lon="10.935012896605954"><ele>489.0</ele><time>2026-04-18T09:12:43.002Z</time></trkpt><trkpt lat="43.42967321448776" lon="10.935090977495921"><ele>489.25</ele><time>2026-04-18T09:12:44.002Z</time></trkpt><trkpt lat="43.429790995579964" lon="10.935177223260252"><ele>489.5</ele><time>2026-04-18T09:12:45.002Z</time></trkpt><trkpt lat="43.4298998987018" lon="10.935265632921487"><ele>489.75</ele><time>2026-04-18T09:12:46.002Z</time></trkpt><trkpt lat="43.430002998636425" lon="10.935360851079345"><ele>490.0</ele><time>2026-04-18T09:12:47.002Z</time></trkpt><trkpt lat="43.430090831000186" lon="10.935443517594454"><ele>490.0</ele><time>2026-04-18T09:12:48.002Z</time></trkpt><trkpt lat="43.430177829563725" lon="10.935530850739369"><ele>490.0</ele><time>2026-04-18T09:12:49.002Z</time></trkpt><trkpt lat="43.430260993820646" lon="10.935644300053426"><ele>490.0</ele><time>2026-04-18T09:12:50.002Z</time></trkpt><trkpt lat="43.43034575564414" lon="10.93579467898673"><ele>490.0</ele><time>2026-04-18T09:12:51.002Z</time></trkpt><trkpt lat="43.430442331035216" lon="10.935944857261145"><ele>492.25</ele><time>2026-04-18T09:12:52.002Z</time></trkpt><trkpt lat="43.430536274172326" lon="10.93607757874543"><ele>494.5</ele><time>2026-04-18T09:12:53.002Z</time></trkpt><trkpt lat="43.43061104162531" lon="10.936195175441567"><ele>496.75</ele><time>2026-04-18T09:12:54.002Z</time></trkpt><trkpt lat="43.430668073563915" lon="10.936312711066407"><ele>499.0</ele><time>2026-04-18T09:12:55.002Z</time></trkpt><trkpt lat="43.43072556328752" lon="10.936452826071454"><ele>499.0</ele><time>2026-04-18T09:12:56.002Z</time></trkpt><trkpt lat="43.430782942577764" lon="10.936614365271009"><ele>499.0</ele><time>2026-04-18T09:12:57.002Z</time></trkpt><trkpt lat="43.43085247651676" lon="10.93677959021793"><ele>499.0</ele><time>2026-04-18T09:12:58.002Z</time></trkpt><trkpt lat="43.430909232651864" lon="10.936946209928537"><ele>499.0</ele><time>2026-04-18T09:12:59.002Z</time></trkpt><trkpt lat="43.43095283111199" lon="10.937108042047962"><ele>497.79999999999995</ele><time>2026-04-18T09:13:00.002Z</time></trkpt><trkpt lat="43.43098279044597" lon="10.937235335858336"><ele>496.59999999999997</ele><time>2026-04-18T09:13:01.002Z</time></trkpt><trkpt lat="43.431020506016566" lon="10.937330496279207"><ele>495.4</ele><time>2026-04-18T09:13:02.003Z</time></trkpt><trkpt lat="43.431074659079016" lon="10.937430816649961"><ele>494.2</ele><time>2026-04-18T09:13:03.003Z</time></trkpt><trkpt lat="43.43115236183508" lon="10.937539865369004"><ele>493.0</ele><time>2026-04-18T09:13:04.003Z</time></trkpt><trkpt lat="43.43123975783614" lon="10.937640091343473"><ele>494.75</ele><time>2026-04-18T09:13:05.003Z</time></trkpt><trkpt lat="43.43134992759776" lon="10.937735880280067"><ele>496.5</ele><time>2026-04-18T09:13:06.003Z</time></trkpt><trkpt lat="43.4314692655309" lon="10.937822508128757"><ele>498.25</ele><time>2026-04-18T09:13:07.003Z</time></trkpt><trkpt lat="43.431555021447174" lon="10.937960224655768"><ele>500.0</ele><time>2026-04-18T09:13:08.003Z</time></trkpt><trkpt lat="43.43164399928677" lon="10.938090628309466"><ele>500.0</ele><time>2026-04-18T09:13:09.003Z</time></trkpt><trkpt lat="43.43173484921947" lon="10.938236264917208"><ele>500.0</ele><time>2026-04-18T09:13:10.003Z</time></trkpt><trkpt lat="43.431828796043895" lon="10.93837581855644"><ele>500.0</ele><time>2026-04-18T09:13:11.003Z</time></trkpt><trkpt lat="43.4318913561702" lon="10.938521144754267"><ele>500.0</ele><time>2026-04-18T09:13:12.003Z</time></trkpt><trkpt lat="43.43194766523962" lon="10.938670273602366"><ele>500.0</ele><time>2026-04-18T09:13:13.003Z</time></trkpt><trkpt lat="43.43198150061187" lon="10.938807961205049"><ele>500.0</ele><time>2026-04-18T09:13:14.003Z</time></trkpt><trkpt lat="43.431992601241625" lon="10.938948937771654"><ele>500.0</ele><time>2026-04-18T09:13:15.003Z</time></trkpt><trkpt lat="43.431987370915884" lon="10.939113875844013"><ele>500.0</ele><time>2026-04-18T09:13:16.003Z</time></trkpt><trkpt lat="43.43196500101085" lon="10.939291629695667"><ele>501.0</ele><time>2026-04-18T09:13:17.003Z</time></trkpt><trkpt lat="43.431944315294295" lon="10.939465511154893"><ele>502.0</ele><time>2026-04-18T09:13:18.003Z</time></trkpt><trkpt lat="43.43194400973222" lon="10.939623975402782"><ele>503.0</ele><time>2026-04-18T09:13:19.003Z</time></trkpt><trkpt lat="43.43202197153762" lon="10.939740467769894"><ele>504.0</ele><time>2026-04-18T09:13:20.003Z</time></trkpt><trkpt lat="43.432040805189146" lon="10.93988252461189"><ele>504.0</ele><time>2026-04-18T09:13:21.003Z</time></trkpt><trkpt lat="43.43208678915196" lon="10.939990374496746"><ele>504.0</ele><time>2026-04-18T09:13:22.003Z</time></trkpt><trkpt lat="43.43205419978605" lon="10.940083965493049"><ele>504.0</ele><time>2026-04-18T09:13:23.003Z</time></trkpt><trkpt lat="43.432031589717255" lon="10.940206683076543"><ele>504.0</ele><time>2026-04-18T09:13:24.003Z</time></trkpt><trkpt lat="43.43201047002325" lon="10.940363805102319"><ele>504.0</ele><time>2026-04-18T09:13:25.003Z</time></trkpt><trkpt lat="43.43196759070799" lon="10.940541440709037"><ele>505.5</ele><time>2026-04-18T09:13:26.003Z</time></trkpt><trkpt lat="43.43193753961254" lon="10.940723107879798"><ele>507.0</ele><time>2026-04-18T09:13:27.003Z</time></trkpt><trkpt lat="43.431911661740294" lon="10.940923688469898"><ele>508.5</ele><time>2026-04-18T09:13:28.003Z</time></trkpt><trkpt lat="43.43188146471372" lon="10.941131452420112"><ele>510.0</ele><time>2026-04-18T09:13:29.003Z</time></trkpt><trkpt lat="43.431868263437245" lon="10.941342715158553"><ele>511.66666666666663</ele><time>2026-04-18T09:13:30.003Z</time></trkpt><trkpt lat="43.43186594196704" lon="10.941564925412248"><ele>513.3333333333333</ele><time>2026-04-18T09:13:31.001Z</time></trkpt><trkpt lat="43.43186854492201" lon="10.941791697007409"><ele>515.0</ele><time>2026-04-18T09:13:32.001Z</time></trkpt><trkpt lat="43.4318668496261" lon="10.942006382567278"><ele>515.3333333333333</ele><time>2026-04-18T09:13:33.001Z</time></trkpt><trkpt lat="43.43186470842685" lon="10.942229274931172"><ele>515.6666666666666</ele><time>2026-04-18T09:13:34.001Z</time></trkpt><trkpt lat="43.43185997617859" lon="10.942430064416348"><ele>516.0</ele><time>2026-04-18T09:13:35.001Z</time></trkpt><trkpt lat="43.43185731141215" lon="10.942638552884349"><ele>514.3333333333334</ele><time>2026-04-18T09:13:36.001Z</time></trkpt><trkpt lat="43.43187379258151" lon="10.942862226044758"><ele>512.6666666666667</ele><time>2026-04-18T09:13:37.001Z</time></trkpt><trkpt lat="43.431890609698705" lon="10.94307742955545"><ele>511.0</ele><time>2026-04-18T09:13:38.001Z</time></trkpt><trkpt lat="43.43190322564788" lon="10.94329223488044"><ele>510.25</ele><time>2026-04-18T09:13:39Z</time></trkpt><trkpt lat="43.43190931081185" lon="10.943508853215917"><ele>509.5</ele><time>2026-04-18T09:13:40Z</time></trkpt><trkpt lat="43.43190675903298" lon="10.943710046902417"><ele>508.75</ele><time>2026-04-18T09:13:41Z</time></trkpt><trkpt lat="43.43191773952127" lon="10.94388008062157"><ele>508.0</ele><time>2026-04-18T09:13:42Z</time></trkpt><trkpt lat="43.431924889384796" lon="10.944026626867503"><ele>508.0</ele><time>2026-04-18T09:13:43Z</time></trkpt><trkpt lat="43.43194437815575" lon="10.944181380924782"><ele>507.99999999999994</ele><time>2026-04-18T09:13:44Z</time></trkpt><trkpt lat="43.431985998657986" lon="10.944339390139957"><ele>507.99999999999994</ele><time>2026-04-18T09:13:45Z</time></trkpt><trkpt lat="43.43204579873803" lon="10.944458600691393"><ele>508.0</ele><time>2026-04-18T09:13:46Z</time></trkpt><trkpt lat="43.432128262743795" lon="10.94454064234862"><ele>508.0</ele><time>2026-04-18T09:13:47Z</time></trkpt><trkpt lat="43.43222561463344" lon="10.944581231426325"><ele>508.75</ele><time>2026-04-18T09:13:48Z</time></trkpt><trkpt lat="43.4323353313803" lon="10.94458396906277"><ele>509.5</ele><time>2026-04-18T09:13:49Z</time></trkpt><trkpt lat="43.43245628261678" lon="10.944549977013995"><ele>510.25</ele><time>2026-04-18T09:13:50Z</time></trkpt><trkpt lat="43.4325899922966" lon="10.944540507961781"><ele>511.0</ele><time>2026-04-18T09:13:51Z</time></trkpt><trkpt lat="43.43274295479618" lon="10.94450266106594"><ele>511.0</ele><time>2026-04-18T09:13:52Z</time></trkpt><trkpt lat="43.432891829738466" lon="10.944451576915656"><ele>511.0</ele><time>2026-04-18T09:13:53Z</time></trkpt><trkpt lat="43.433050440927396" lon="10.944421148611063"><ele>511.0</ele><time>2026-04-18T09:13:54Z</time></trkpt><trkpt lat="43.43318573803724" lon="10.94438276574267"><ele>512.2</ele><time>2026-04-18T09:13:55Z</time></trkpt><trkpt lat="43.433314570257274" lon="10.944357664798659"><ele>513.4000000000001</ele><time>2026-04-18T09:13:56Z</time></trkpt><trkpt lat="43.43340577925185" lon="10.944349572763008"><ele>514.6</ele><time>2026-04-18T09:13:57Z</time></trkpt><trkpt lat="43.43346515516977" lon="10.94439420856111"><ele>515.8000000000001</ele><time>2026-04-18T09:13:58Z</time></trkpt><trkpt lat="43.433531380606404" lon="10.944436367657472"><ele>517.0</ele><time>2026-04-18T09:13:59Z</time></trkpt><trkpt lat="43.4336218809018" lon="10.944477926573795"><ele>517.0</ele><time>2026-04-18T09:14:00.001Z</time></trkpt><trkpt lat="43.43371519618752" lon="10.944569150193672"><ele>517.0</ele><time>2026-04-18T09:14:01.001Z</time></trkpt><trkpt lat="43.43381968870716" lon="10.944662802682524"><ele>517.0</ele><time>2026-04-18T09:14:02.001Z</time></trkpt><trkpt lat="43.43393035551429" lon="10.944757937974"><ele>517.0</ele><time>2026-04-18T09:14:03.001Z</time></trkpt><trkpt lat="43.4340438286492" lon="10.944838768284574"><ele>519.75</ele><time>2026-04-18T09:14:04.001Z</time></trkpt><trkpt lat="43.43416973302856" lon="10.944902392757898"><ele>522.5</ele><time>2026-04-18T09:14:05.001Z</time></trkpt><trkpt lat="43.434303599739856" lon="10.944943282378325"><ele>525.25</ele><time>2026-04-18T09:14:06.001Z</time></trkpt><trkpt lat="43.434434384926995" lon="10.94497107442863"><ele>528.0</ele><time>2026-04-18T09:14:07.001Z</time></trkpt><trkpt lat="43.43455093925043" lon="10.944997057024088"><ele>528.4</ele><time>2026-04-18T09:14:08.001Z</time></trkpt><trkpt lat="43.434661150905846" lon="10.945020822965992"><ele>528.8</ele><time>2026-04-18T09:14:09.001Z</time></trkpt><trkpt lat="43.434763739874825" lon="10.945066406863717"><ele>529.2</ele><time>2026-04-18T09:14:10.001Z</time></trkpt><trkpt lat="43.434826087603184" lon="10.945122183967063"><ele>529.6</ele><time>2026-04-18T09:14:11.001Z</time></trkpt><trkpt lat="43.434818355710256" lon="10.945212389880469"><ele>530.0</ele><time>2026-04-18T09:14:12.001Z</time></trkpt><trkpt lat="43.43487027077804" lon="10.945370057579652"><ele>532.6</ele><time>2026-04-18T09:14:14.001Z</time></trkpt><trkpt lat="43.43488877873263" lon="10.945507927914079"><ele>535.2</ele><time>2026-04-18T09:14:15.001Z</time></trkpt><trkpt lat="43.43495100435769" lon="10.945596727791424"><ele>537.8</ele><time>2026-04-18T09:14:16.001Z</time></trkpt><trkpt lat="43.435011823896474" lon="10.945698393494235"><ele>540.4</ele><time>2026-04-18T09:14:17.001Z</time></trkpt><trkpt lat="43.43508933347169" lon="10.9457845234932"><ele>543.0</ele><time>2026-04-18T09:14:18.001Z</time></trkpt><trkpt lat="43.435171773771195" lon="10.945879217486073"><ele>544.6</ele><time>2026-04-18T09:14:19.001Z</time></trkpt><trkpt lat="43.435247723910976" lon="10.945960479331363"><ele>546.1999999999999</ele><time>2026-04-18T09:14:20.001Z</time></trkpt><trkpt lat="43.4353285295144" lon="10.94603062580223"><ele>547.8</ele><time>2026-04-18T09:14:21.001Z</time></trkpt><trkpt lat="43.43538087120412" lon="10.946144604266024"><ele>549.4</ele><time>2026-04-18T09:14:22.001Z</time></trkpt><trkpt lat="43.435457975520094" lon="10.946197483926142"><ele>551.0</ele><time>2026-04-18T09:14:23.001Z</time></trkpt><trkpt lat="43.435540645285144" lon="10.946277994559617"><ele>551.0</ele><time>2026-04-18T09:14:24.001Z</time></trkpt><trkpt lat="43.43563947421965" lon="10.946369501471485"><ele>551.0</ele><time>2026-04-18T09:14:25.001Z</time></trkpt><trkpt lat="43.43575144977612" lon="10.946444865300572"><ele>551.0</ele><time>2026-04-18T09:14:26.001Z</time></trkpt><trkpt lat="43.43585570156097" lon="10.946563485672314"><ele>551.0</ele><time>2026-04-18T09:14:27.001Z</time></trkpt><trkpt lat="43.435952794468626" lon="10.946688577553822"><ele>555.0</ele><time>2026-04-18T09:14:28.001Z</time></trkpt><trkpt lat="43.43603070129004" lon="10.946829217799051"><ele>559.0</ele><time>2026-04-18T09:14:29.001Z</time></trkpt><trkpt lat="43.43609965302676" lon="10.946974492381845"><ele>563.0</ele><time>2026-04-18T09:14:30.001Z</time></trkpt><trkpt lat="43.4361722636912" lon="10.947118641275374"><ele>567.0</ele><time>2026-04-18T09:14:31.001Z</time></trkpt><trkpt lat="43.436232115345106" lon="10.947238733406557"><ele>567.0</ele><time>2026-04-18T09:14:32.001Z</time></trkpt><trkpt lat="43.436261365824166" lon="10.947332402400452"><ele>567.0</ele><time>2026-04-18T09:14:33.001Z</time></trkpt><trkpt lat="43.43627679476579" lon="10.947486627791951"><ele>567.0</ele><time>2026-04-18T09:14:35.001Z</time></trkpt><trkpt lat="43.436203926307584" lon="10.947556068319814"><ele>567.0</ele><time>2026-04-18T09:14:36.001Z</time></trkpt><trkpt lat="43.43619191269017" lon="10.947669236768915"><ele>567.0</ele><time>2026-04-18T09:14:37.001Z</time></trkpt><trkpt lat="43.436147314736615" lon="10.94779853608124"><ele>566.8000000000001</ele><time>2026-04-18T09:14:38.001Z</time></trkpt><trkpt lat="43.43612029630098" lon="10.947936685350994"><ele>566.6</ele><time>2026-04-18T09:14:39.001Z</time></trkpt><trkpt lat="43.43612576844516" lon="10.948093120551624"><ele>566.4000000000001</ele><time>2026-04-18T09:14:40.001Z</time></trkpt><trkpt lat="43.43612057231103" lon="10.94822904964658"><ele>566.2</ele><time>2026-04-18T09:14:41.001Z</time></trkpt><trkpt lat="43.43614527895351" lon="10.948366499712908"><ele>566.0</ele><time>2026-04-18T09:14:42.001Z</time></trkpt><trkpt lat="43.43617421606283" lon="10.948508769456062"><ele>565.0</ele><time>2026-04-18T09:14:43.001Z</time></trkpt><trkpt lat="43.43622819456111" lon="10.948647362640529"><ele>564.0</ele><time>2026-04-18T09:14:44.001Z</time></trkpt><trkpt lat="43.43630052214417" lon="10.948780876059184"><ele>563.0</ele><time>2026-04-18T09:14:45.001Z</time></trkpt><trkpt lat="43.43636382365739" lon="10.948907674976661"><ele>562.0</ele><time>2026-04-18T09:14:46.001Z</time></trkpt><trkpt lat="43.436407634947685" lon="10.949026070890907"><ele>561.0</ele><time>2026-04-18T09:14:47.002Z</time></trkpt><trkpt lat="43.43647227642641" lon="10.949149135111837"><ele>560.75</ele><time>2026-04-18T09:14:48.002Z</time></trkpt><trkpt lat="43.43654103086554" lon="10.949289945355252"><ele>560.5</ele><time>2026-04-18T09:14:49.002Z</time></trkpt><trkpt lat="43.43662332649007" lon="10.949419183528674"><ele>560.25</ele><time>2026-04-18T09:14:50.002Z</time></trkpt><trkpt lat="43.43671060268964" lon="10.949517267504474"><ele>560.0</ele><time>2026-04-18T09:14:51.002Z</time></trkpt><trkpt lat="43.43680249108806" lon="10.949607755724328"><ele>560.0</ele><time>2026-04-18T09:14:52.002Z</time></trkpt><trkpt lat="43.43689699398118" lon="10.949673662373456"><ele>560.0</ele><time>2026-04-18T09:14:53.002Z</time></trkpt><trkpt lat="43.43700436778816" lon="10.94971811771335"><ele>560.0</ele><time>2026-04-18T09:14:54.002Z</time></trkpt><trkpt lat="43.437120123637335" lon="10.949755182320393"><ele>560.0</ele><time>2026-04-18T09:14:55.002Z</time></trkpt><trkpt lat="43.43726231538209" lon="10.949774332083702"><ele>561.0</ele><time>2026-04-18T09:14:56.002Z</time></trkpt><trkpt lat="43.43740833158976" lon="10.949803887698828"><ele>562.0</ele><time>2026-04-18T09:14:57.002Z</time></trkpt><trkpt lat="43.437524131359964" lon="10.949834230068541"><ele>563.0</ele><time>2026-04-18T09:14:58.002Z</time></trkpt><trkpt lat="43.437627306067895" lon="10.949865207079693"><ele>564.0</ele><time>2026-04-18T09:14:59.002Z</time></trkpt><trkpt lat="43.437734426396396" lon="10.949931542309395"><ele>564.0</ele><time>2026-04-18T09:15:00.002Z</time></trkpt><trkpt lat="43.4378424496765" lon="10.950027455405397"><ele>564.0</ele><time>2026-04-18T09:15:01.002Z</time></trkpt><trkpt lat="43.43794920776115" lon="10.950146793499275"><ele>564.0</ele><time>2026-04-18T09:15:02.002Z</time></trkpt><trkpt lat="43.43807196975235" lon="10.95028149267377"><ele>564.0</ele><time>2026-04-18T09:15:03.002Z</time></trkpt><trkpt lat="43.43819680477231" lon="10.950420799885995"><ele>564.3333333333334</ele><time>2026-04-18T09:15:04.002Z</time></trkpt><trkpt lat="43.43833399684645" lon="10.950560564436023"><ele>564.6666666666667</ele><time>2026-04-18T09:15:05.002Z</time></trkpt><trkpt lat="43.4384687925646" lon="10.95069710136564"><ele>565.0</ele><time>2026-04-18T09:15:06.002Z</time></trkpt><trkpt lat="43.43860392047474" lon="10.950842009303138"><ele>564.0</ele><time>2026-04-18T09:15:07.002Z</time></trkpt><trkpt lat="43.438743153253434" lon="10.950983884647592"><ele>563.0</ele><time>2026-04-18T09:15:08.002Z</time></trkpt><trkpt lat="43.43887874770773" lon="10.951123938080794"><ele>562.0</ele><time>2026-04-18T09:15:09.002Z</time></trkpt><trkpt lat="43.43900754970425" lon="10.951258411152391"><ele>565.0</ele><time>2026-04-18T09:15:10.002Z</time></trkpt><trkpt lat="43.4391349142545" lon="10.951391097509644"><ele>568.0</ele><time>2026-04-18T09:15:11.002Z</time></trkpt><trkpt lat="43.43926373661044" lon="10.951526695842933"><ele>571.0</ele><time>2026-04-18T09:15:12.002Z</time></trkpt><trkpt lat="43.439389575605816" lon="10.951663905198988"><ele>570.0</ele><time>2026-04-18T09:15:13.002Z</time></trkpt><trkpt lat="43.43951992497739" lon="10.951797116530308"><ele>569.0</ele><time>2026-04-18T09:15:14.002Z</time></trkpt><trkpt lat="43.439646720491936" lon="10.951934494645519"><ele>568.0</ele><time>2026-04-18T09:15:15.002Z</time></trkpt><trkpt lat="43.43976542544144" lon="10.952071177043809"><ele>572.3333333333334</ele><time>2026-04-18T09:15:16.002Z</time></trkpt><trkpt lat="43.43988597293328" lon="10.952201163788965"><ele>576.6666666666666</ele><time>2026-04-18T09:15:17.002Z</time></trkpt><trkpt lat="43.440012473245496" lon="10.952328308595979"><ele>581.0</ele><time>2026-04-18T09:15:18.002Z</time></trkpt><trkpt lat="43.44012904184598" lon="10.952453110953776"><ele>580.75</ele><time>2026-04-18T09:15:19.002Z</time></trkpt><trkpt lat="43.44023515925831" lon="10.952565098111428"><ele>580.5</ele><time>2026-04-18T09:15:20.002Z</time></trkpt><trkpt lat="43.44034538416873" lon="10.95269355309681"><ele>580.25</ele><time>2026-04-18T09:15:21.002Z</time></trkpt><trkpt lat="43.44045664626248" lon="10.952811515111025"><ele>580.0</ele><time>2026-04-18T09:15:22.002Z</time></trkpt><trkpt lat="43.44056708646832" lon="10.95292960522517"><ele>582.4</ele><time>2026-04-18T09:15:23.002Z</time></trkpt><trkpt lat="43.44066963407646" lon="10.953020491264539"><ele>584.8</ele><time>2026-04-18T09:15:24.002Z</time></trkpt><trkpt lat="43.440771763468874" lon="10.953100196282804"><ele>587.2</ele><time>2026-04-18T09:15:25.002Z</time></trkpt><trkpt lat="43.44086759972271" lon="10.953156081274317"><ele>589.6</ele><time>2026-04-18T09:15:26.002Z</time></trkpt><trkpt lat="43.44094978284758" lon="10.953193176102218"><ele>592.0</ele><time>2026-04-18T09:15:27.002Z</time></trkpt><trkpt lat="43.44102185236201" lon="10.953183969513574"><ele>592.0</ele><time>2026-04-18T09:15:28.002Z</time></trkpt><trkpt lat="43.441099900989414" lon="10.953136521984302"><ele>592.0</ele><time>2026-04-18T09:15:29.003Z</time></trkpt><trkpt lat="43.441172187333876" lon="10.953065683713536"><ele>592.0</ele><time>2026-04-18T09:15:30.003Z</time></trkpt><trkpt lat="43.44121525431764" lon="10.952937712505243"><ele>592.0</ele><time>2026-04-18T09:15:31.003Z</time></trkpt><trkpt lat="43.441223575215865" lon="10.952774362168281"><ele>592.0</ele><time>2026-04-18T09:15:32.003Z</time></trkpt><trkpt lat="43.44123225676392" lon="10.952625169805836"><ele>591.8333333333334</ele><time>2026-04-18T09:15:33.003Z</time></trkpt><trkpt lat="43.441265412296666" lon="10.95251812767041"><ele>591.6666666666667</ele><time>2026-04-18T09:15:34.003Z</time></trkpt><trkpt lat="43.44134701979645" lon="10.952421671708905"><ele>591.5</ele><time>2026-04-18T09:15:36.003Z</time></trkpt><trkpt lat="43.44142059877731" lon="10.95242109523657"><ele>591.3333333333334</ele><time>2026-04-18T09:15:37Z</time></trkpt><trkpt lat="43.441516508712716" lon="10.952436143900904"><ele>591.1666666666666</ele><time>2026-04-18T09:15:38Z</time></trkpt><trkpt lat="43.441598502249924" lon="10.952466718348674"><ele>591.0</ele><time>2026-04-18T09:15:39Z</time></trkpt><trkpt lat="43.44165908462305" lon="10.952506894483625"><ele>593.6</ele><time>2026-04-18T09:15:40Z</time></trkpt><trkpt lat="43.44171528852976" lon="10.95257119891974"><ele>596.2</ele><time>2026-04-18T09:15:43Z</time></trkpt><trkpt lat="43.4416673354469" lon="10.952718142275002"><ele>598.8</ele><time>2026-04-18T09:15:44Z</time></trkpt><trkpt lat="43.441648291482096" lon="10.952839819748347"><ele>601.4</ele><time>2026-04-18T09:15:45Z</time></trkpt><trkpt lat="43.441640174072596" lon="10.95300271098417"><ele>604.0</ele><time>2026-04-18T09:15:46Z</time></trkpt><trkpt lat="43.44164980048031" lon="10.953192758287196"><ele>604.0</ele><time>2026-04-18T09:15:47Z</time></trkpt><trkpt lat="43.44166554798178" lon="10.953398564703678"><ele>604.0</ele><time>2026-04-18T09:15:48Z</time></trkpt><trkpt lat="43.441687059631164" lon="10.953606672054578"><ele>604.0</ele><time>2026-04-18T09:15:49Z</time></trkpt><trkpt lat="43.44169858175058" lon="10.953763081118673"><ele>604.0</ele><time>2026-04-18T09:15:50Z</time></trkpt><trkpt lat="43.44170206099112" lon="10.953852887395474"><ele>604.0</ele><time>2026-04-18T09:15:52Z</time></trkpt><trkpt lat="43.441708413416194" lon="10.953973083811205"><ele>604.0</ele><time>2026-04-18T09:17:08.002Z</time></trkpt><trkpt lat="43.44171435886788" lon="10.954080140859297"><ele>604.0</ele><time>2026-04-18T09:17:09.002Z</time></trkpt><trkpt lat="43.441731605408876" lon="10.954212785666838"><ele>604.0</ele><time>2026-04-18T09:17:10.002Z</time></trkpt><trkpt lat="43.44172621160541" lon="10.954356212556172"><ele>604.0</ele><time>2026-04-18T09:17:11.002Z</time></trkpt><trkpt lat="43.4416893621559" lon="10.954507211092794"><ele>603.75</ele><time>2026-04-18T09:17:12.002Z</time></trkpt><trkpt lat="43.4416791222172" lon="10.95467404347804"><ele>603.5</ele><time>2026-04-18T09:17:13.002Z</time></trkpt><trkpt lat="43.441648400576106" lon="10.95483676311998"><ele>603.25</ele><time>2026-04-18T09:17:14.002Z</time></trkpt><trkpt lat="43.44161920817384" lon="10.955001563200288"><ele>603.0</ele><time>2026-04-18T09:17:15.002Z</time></trkpt><trkpt lat="43.44158767254846" lon="10.955166818813199"><ele>602.5</ele><time>2026-04-18T09:17:16.002Z</time></trkpt><trkpt lat="43.44155117745007" lon="10.9553323684887"><ele>602.0</ele><time>2026-04-18T09:17:17.002Z</time></trkpt><trkpt lat="43.441508804373996" lon="10.955499874685714"><ele>601.5</ele><time>2026-04-18T09:17:18.002Z</time></trkpt><trkpt lat="43.441465661157565" lon="10.955678937199222"><ele>601.0</ele><time>2026-04-18T09:17:19.002Z</time></trkpt><trkpt lat="43.441408800992015" lon="10.955865600399202"><ele>600.3333333333334</ele><time>2026-04-18T09:17:20.002Z</time></trkpt><trkpt lat="43.441334215151166" lon="10.956050103630288"><ele>599.6666666666666</ele><time>2026-04-18T09:17:21.002Z</time></trkpt><trkpt lat="43.44123182548645" lon="10.956214861279177"><ele>599.0</ele><time>2026-04-18T09:17:22.002Z</time></trkpt><trkpt lat="43.441127364853216" lon="10.956388567820706"><ele>599.0</ele><time>2026-04-18T09:17:23.002Z</time></trkpt><trkpt lat="43.441014995131944" lon="10.95656659044105"><ele>599.0</ele><time>2026-04-18T09:17:24.002Z</time></trkpt><trkpt lat="43.44090838855774" lon="10.956751900403887"><ele>599.0</ele><time>2026-04-18T09:17:25.002Z</time></trkpt><trkpt lat="43.44079497689756" lon="10.956924715292637"><ele>600.0</ele><time>2026-04-18T09:17:26.002Z</time></trkpt><trkpt lat="43.44068192841812" lon="10.957104839297864"><ele>601.0</ele><time>2026-04-18T09:17:27.002Z</time></trkpt><trkpt lat="43.44055388291638" lon="10.957269428805036"><ele>602.0</ele><time>2026-04-18T09:17:28.002Z</time></trkpt><trkpt lat="43.44045105652048" lon="10.957451899457112"><ele>600.6666666666666</ele><time>2026-04-18T09:17:29.002Z</time></trkpt><trkpt lat="43.440345871448855" lon="10.957627005360306"><ele>599.3333333333334</ele><time>2026-04-18T09:17:30.002Z</time></trkpt><trkpt lat="43.440239027079855" lon="10.957808054782667"><ele>598.0</ele><time>2026-04-18T09:17:31.002Z</time></trkpt><trkpt lat="43.44013139785648" lon="10.95798853210193"><ele>598.0</ele><time>2026-04-18T09:17:32.002Z</time></trkpt><trkpt lat="43.440017764846445" lon="10.958175240253953"><ele>598.0</ele><time>2026-04-18T09:17:33.002Z</time></trkpt><trkpt lat="43.43990571636228" lon="10.958361806411581"><ele>598.0</ele><time>2026-04-18T09:17:34.002Z</time></trkpt><trkpt lat="43.43979367635594" lon="10.958552606747254"><ele>596.0</ele><time>2026-04-18T09:17:35.003Z</time></trkpt><trkpt lat="43.43968073410705" lon="10.958750463572066"><ele>594.0</ele><time>2026-04-18T09:17:36.003Z</time></trkpt><trkpt lat="43.43955502812342" lon="10.95893372684367"><ele>592.0</ele><time>2026-04-18T09:17:37.003Z</time></trkpt><trkpt lat="43.43945139170217" lon="10.959140074201839"><ele>591.3333333333334</ele><time>2026-04-18T09:17:38.003Z</time></trkpt><trkpt lat="43.439340417153566" lon="10.959314203763363"><ele>590.6666666666666</ele><time>2026-04-18T09:17:39.003Z</time></trkpt><trkpt lat="43.43923576557527" lon="10.959472949455542"><ele>590.0</ele><time>2026-04-18T09:17:40.003Z</time></trkpt><trkpt lat="43.439140066824606" lon="10.959625401740718"><ele>590.0</ele><time>2026-04-18T09:17:41.003Z</time></trkpt><trkpt lat="43.43902430927091" lon="10.959759006443939"><ele>590.0</ele><time>2026-04-18T09:17:42.003Z</time></trkpt><trkpt lat="43.438891255993816" lon="10.959893995891147"><ele>590.0</ele><time>2026-04-18T09:17:43.001Z</time></trkpt><trkpt lat="43.4387454216741" lon="10.960022210707203"><ele>590.3333333333333</ele><time>2026-04-18T09:17:44.001Z</time></trkpt><trkpt lat="43.4385911238864" lon="10.960154828247843"><ele>590.6666666666666</ele><time>2026-04-18T09:17:45.001Z</time></trkpt><trkpt lat="43.43843934032261" lon="10.960305084610118"><ele>591.0</ele><time>2026-04-18T09:17:46.001Z</time></trkpt><trkpt lat="43.43827903888948" lon="10.960441285578451"><ele>591.0</ele><time>2026-04-18T09:17:47.001Z</time></trkpt><trkpt lat="43.43811815619743" lon="10.960571509747133"><ele>591.0</ele><time>2026-04-18T09:17:48.001Z</time></trkpt><trkpt lat="43.43795662543817" lon="10.960674335732572"><ele>591.0</ele><time>2026-04-18T09:17:49.001Z</time></trkpt><trkpt lat="43.43782683689541" lon="10.96077334219072"><ele>590.5</ele><time>2026-04-18T09:17:50.001Z</time></trkpt><trkpt lat="43.437707068278065" lon="10.960846828855814"><ele>590.0</ele><time>2026-04-18T09:17:51.001Z</time></trkpt><trkpt lat="43.43758828125998" lon="10.96091453672047"><ele>589.5</ele><time>2026-04-18T09:17:52.001Z</time></trkpt><trkpt lat="43.43746477748141" lon="10.961002124306598"><ele>589.0</ele><time>2026-04-18T09:17:53.001Z</time></trkpt><trkpt lat="43.437324059958335" lon="10.961089332425589"><ele>590.3333333333334</ele><time>2026-04-18T09:17:54.001Z</time></trkpt><trkpt lat="43.437177163513645" lon="10.9611879451178"><ele>591.6666666666666</ele><time>2026-04-18T09:17:55.001Z</time></trkpt><trkpt lat="43.437059382500586" lon="10.961360309521297"><ele>593.0</ele><time>2026-04-18T09:17:56.001Z</time></trkpt><trkpt lat="43.43695887602049" lon="10.961542563323839"><ele>590.6666666666666</ele><time>2026-04-18T09:17:57.001Z</time></trkpt><trkpt lat="43.43688391792156" lon="10.961760690494927"><ele>588.3333333333334</ele><time>2026-04-18T09:17:58.001Z</time></trkpt><trkpt lat="43.43683371621798" lon="10.961994987787712"><ele>586.0</ele><time>2026-04-18T09:17:59.001Z</time></trkpt><trkpt lat="43.436800832299184" lon="10.962241137330354"><ele>586.0</ele><time>2026-04-18T09:18:00.001Z</time></trkpt><trkpt lat="43.436763408398484" lon="10.962489364988574"><ele>586.0</ele><time>2026-04-18T09:18:01.001Z</time></trkpt><trkpt lat="43.43668203213371" lon="10.962677858146911"><ele>586.0</ele><time>2026-04-18T09:18:02.001Z</time></trkpt><trkpt lat="43.436593431101144" lon="10.962824892800855"><ele>586.3333333333334</ele><time>2026-04-18T09:18:03.001Z</time></trkpt><trkpt lat="43.43647618590537" lon="10.96293543685785"><ele>586.6666666666666</ele><time>2026-04-18T09:18:04.001Z</time></trkpt><trkpt lat="43.43634097505854" lon="10.963054992924942"><ele>587.0</ele><time>2026-04-18T09:18:05.001Z</time></trkpt><trkpt lat="43.43621995405551" lon="10.963190485215579"><ele>586.6666666666666</ele><time>2026-04-18T09:18:06.001Z</time></trkpt><trkpt lat="43.43610579144789" lon="10.963317197858203"><ele>586.3333333333334</ele><time>2026-04-18T09:18:07.001Z</time></trkpt><trkpt lat="43.43599512814128" lon="10.963474563508958"><ele>586.0</ele><time>2026-04-18T09:18:08.001Z</time></trkpt><trkpt lat="43.43588321613329" lon="10.963655867143345"><ele>586.0</ele><time>2026-04-18T09:18:09.001Z</time></trkpt><trkpt lat="43.435786551608054" lon="10.963859231793359"><ele>586.0</ele><time>2026-04-18T09:18:10.001Z</time></trkpt><trkpt lat="43.435714857021594" lon="10.964083064652437"><ele>586.0</ele><time>2026-04-18T09:18:11.001Z</time></trkpt><trkpt lat="43.4356543779979" lon="10.964310282233109"><ele>584.6666666666667</ele><time>2026-04-18T09:18:12.001Z</time></trkpt><trkpt lat="43.43557540952182" lon="10.964528857670121"><ele>583.3333333333334</ele><time>2026-04-18T09:18:13.001Z</time></trkpt><trkpt lat="43.43545524273839" lon="10.964718258517056"><ele>582.0</ele><time>2026-04-18T09:18:14.001Z</time></trkpt><trkpt lat="43.4353381615197" lon="10.964917725910452"><ele>580.0</ele><time>2026-04-18T09:18:15.001Z</time></trkpt><trkpt lat="43.43524136365426" lon="10.96512699374518"><ele>578.0</ele><time>2026-04-18T09:18:16.001Z</time></trkpt><trkpt lat="43.435140230089836" lon="10.96532604227439"><ele>576.0</ele><time>2026-04-18T09:18:17.001Z</time></trkpt><trkpt lat="43.4350493671043" lon="10.96553754986595"><ele>576.0</ele><time>2026-04-18T09:18:18.001Z</time></trkpt><trkpt lat="43.43496800589758" lon="10.965743951220182"><ele>576.0</ele><time>2026-04-18T09:18:19.001Z</time></trkpt><trkpt lat="43.43484863036986" lon="10.965917609651456"><ele>576.0</ele><time>2026-04-18T09:18:20.001Z</time></trkpt><trkpt lat="43.43470507742934" lon="10.96606858952883"><ele>573.3333333333334</ele><time>2026-04-18T09:18:21.001Z</time></trkpt><trkpt lat="43.43457468327169" lon="10.966243846602076"><ele>570.6666666666667</ele><time>2026-04-18T09:18:22.001Z</time></trkpt><trkpt lat="43.43443471317538" lon="10.966406824612024"><ele>568.0</ele><time>2026-04-18T09:18:23.001Z</time></trkpt><trkpt lat="43.43434348765008" lon="10.966636613608022"><ele>566.3333333333334</ele><time>2026-04-18T09:18:24.001Z</time></trkpt><trkpt lat="43.43423277627982" lon="10.966847298518944"><ele>564.6666666666666</ele><time>2026-04-18T09:18:25.001Z</time></trkpt><trkpt lat="43.434082222547836" lon="10.967002923058267"><ele>563.0</ele><time>2026-04-18T09:18:26.001Z</time></trkpt><trkpt lat="43.433923620040574" lon="10.967134794643165"><ele>562.3333333333333</ele><time>2026-04-18T09:18:27.001Z</time></trkpt><trkpt lat="43.433756781062506" lon="10.967248589012957"><ele>561.6666666666666</ele><time>2026-04-18T09:18:28.001Z</time></trkpt><trkpt lat="43.433593291549364" lon="10.96736430257941"><ele>561.0</ele><time>2026-04-18T09:18:29.001Z</time></trkpt><trkpt lat="43.43343364656908" lon="10.967490042012724"><ele>560.6666666666666</ele><time>2026-04-18T09:18:30.001Z</time></trkpt><trkpt lat="43.433271475937815" lon="10.967611393994023"><ele>560.3333333333333</ele><time>2026-04-18T09:18:31.001Z</time></trkpt><trkpt lat="43.4331005736886" lon="10.967698741936056"><ele>560.0</ele><time>2026-04-18T09:18:32.001Z</time></trkpt><trkpt lat="43.432942625900374" lon="10.967780948669962"><ele>560.0</ele><time>2026-04-18T09:18:33.001Z</time></trkpt><trkpt lat="43.43279485176749" lon="10.967845909364918"><ele>560.0</ele><time>2026-04-18T09:18:34.001Z</time></trkpt><trkpt lat="43.43265627426982" lon="10.967920084927115"><ele>560.0</ele><time>2026-04-18T09:18:35.001Z</time></trkpt><trkpt lat="43.432531655550974" lon="10.967968192342894"><ele>560.0</ele><time>2026-04-18T09:18:36.001Z</time></trkpt><trkpt lat="43.432422987522926" lon="10.968097027866763"><ele>560.0</ele><time>2026-04-18T09:18:37.001Z</time></trkpt><trkpt lat="43.43233406059544" lon="10.968282303676311"><ele>560.0</ele><time>2026-04-18T09:18:38.001Z</time></trkpt><trkpt lat="43.432216080759595" lon="10.968409376043724"><ele>560.0</ele><time>2026-04-18T09:18:39.001Z</time></trkpt><trkpt lat="43.43210368606741" lon="10.968509861481511"><ele>560.0</ele><time>2026-04-18T09:18:40.001Z</time></trkpt><trkpt lat="43.431971859503" lon="10.968514651953381"><ele>556.6666666666666</ele><time>2026-04-18T09:18:41.001Z</time></trkpt><trkpt lat="43.43182229763423" lon="10.968490888729868"><ele>553.3333333333334</ele><time>2026-04-18T09:18:42.001Z</time></trkpt><trkpt lat="43.431666350776766" lon="10.968445821282442"><ele>550.0</ele><time>2026-04-18T09:18:43.001Z</time></trkpt><trkpt lat="43.43149751349338" lon="10.968384658379152"><ele>549.3333333333334</ele><time>2026-04-18T09:18:44.001Z</time></trkpt><trkpt lat="43.43133962748774" lon="10.968313693657983"><ele>548.6666666666666</ele><time>2026-04-18T09:18:45.001Z</time></trkpt><trkpt lat="43.43119320239235" lon="10.968211333372722"><ele>548.0</ele><time>2026-04-18T09:18:46.001Z</time></trkpt><trkpt lat="43.431039722561465" lon="10.968152261125173"><ele>548.0</ele><time>2026-04-18T09:18:47.001Z</time></trkpt><trkpt lat="43.4308980682031" lon="10.968113539773835"><ele>548.0</ele><time>2026-04-18T09:18:48.001Z</time></trkpt><trkpt lat="43.430754513920405" lon="10.968085338357056"><ele>548.0</ele><time>2026-04-18T09:18:49.001Z</time></trkpt><trkpt lat="43.43060609056001" lon="10.968086394240277"><ele>548.0</ele><time>2026-04-18T09:18:50.001Z</time></trkpt><trkpt lat="43.43046430432732" lon="10.968128996746225"><ele>544.6666666666666</ele><time>2026-04-18T09:18:51.001Z</time></trkpt><trkpt lat="43.43033209030418" lon="10.968220129102205"><ele>541.3333333333334</ele><time>2026-04-18T09:18:52.001Z</time></trkpt><trkpt lat="43.43020229159982" lon="10.968357639324783"><ele>538.0</ele><time>2026-04-18T09:18:53.001Z</time></trkpt><trkpt lat="43.430075755869765" lon="10.968509077668212"><ele>538.0</ele><time>2026-04-18T09:18:54.001Z</time></trkpt><trkpt lat="43.42993048027884" lon="10.968651404418795"><ele>538.0</ele><time>2026-04-18T09:18:55.001Z</time></trkpt><trkpt lat="43.4297869640861" lon="10.968810340058205"><ele>538.0</ele><time>2026-04-18T09:18:56.001Z</time></trkpt><trkpt lat="43.42966879098265" lon="10.969015410726199"><ele>535.6666666666667</ele><time>2026-04-18T09:18:57.001Z</time></trkpt><trkpt lat="43.42955232795902" lon="10.969224543191515"><ele>533.3333333333334</ele><time>2026-04-18T09:18:58.001Z</time></trkpt><trkpt lat="43.42945739167495" lon="10.969446980273652"><ele>531.0</ele><time>2026-04-18T09:18:59.001Z</time></trkpt><trkpt lat="43.429366881811575" lon="10.96966379115655"><ele>531.0</ele><time>2026-04-18T09:19:00.002Z</time></trkpt><trkpt lat="43.429259291257885" lon="10.969844342520151"><ele>531.0</ele><time>2026-04-18T09:19:01.002Z</time></trkpt><trkpt lat="43.429182523229024" lon="10.970029160274422"><ele>531.0</ele><time>2026-04-18T09:19:02.002Z</time></trkpt><trkpt lat="43.4290586086841" lon="10.970137678672776"><ele>531.3333333333334</ele><time>2026-04-18T09:19:03.002Z</time></trkpt><trkpt lat="43.42893095437393" lon="10.970210055219285"><ele>531.6666666666667</ele><time>2026-04-18T09:19:04.002Z</time></trkpt><trkpt lat="43.428778379467765" lon="10.970250876251628"><ele>532.0</ele><time>2026-04-18T09:19:05.002Z</time></trkpt><trkpt lat="43.42860868305317" lon="10.97028810244054"><ele>530.3333333333334</ele><time>2026-04-18T09:19:06.002Z</time></trkpt><trkpt lat="43.42843184140235" lon="10.970324272448394"><ele>528.6666666666666</ele><time>2026-04-18T09:19:07.002Z</time></trkpt><trkpt lat="43.42827448806659" lon="10.970381173240416"><ele>527.0</ele><time>2026-04-18T09:19:08.002Z</time></trkpt><trkpt lat="43.42815568848038" lon="10.970426532670793"><ele>527.0</ele><time>2026-04-18T09:19:09.002Z</time></trkpt><trkpt lat="43.42808384433959" lon="10.970500878594695"><ele>527.0</ele><time>2026-04-18T09:19:10.002Z</time></trkpt><trkpt lat="43.42802939261135" lon="10.97059745225321"><ele>527.0</ele><time>2026-04-18T09:19:11.002Z</time></trkpt><trkpt lat="43.428029131713394" lon="10.97077462571659"><ele>527.0</ele><time>2026-04-18T09:19:12.002Z</time></trkpt><trkpt lat="43.42804550501609" lon="10.970966245353463"><ele>527.0</ele><time>2026-04-18T09:19:13.002Z</time></trkpt><trkpt lat="43.428072402587816" lon="10.97117536609004"><ele>526.0</ele><time>2026-04-18T09:19:14.002Z</time></trkpt><trkpt lat="43.42808401407745" lon="10.971396726730738"><ele>525.0</ele><time>2026-04-18T09:19:15.002Z</time></trkpt><trkpt lat="43.42807895154327" lon="10.971618585137076"><ele>524.0</ele><time>2026-04-18T09:19:16.002Z</time></trkpt><trkpt lat="43.42800235311737" lon="10.971797050272452"><ele>520.3333333333333</ele><time>2026-04-18T09:19:17.002Z</time></trkpt><trkpt lat="43.42790770797678" lon="10.971978155075213"><ele>516.6666666666666</ele><time>2026-04-18T09:19:18.002Z</time></trkpt><trkpt lat="43.42780385361013" lon="10.972179153511886"><ele>513.0</ele><time>2026-04-18T09:19:19.002Z</time></trkpt><trkpt lat="43.42769002734655" lon="10.972374126216463"><ele>512.6666666666666</ele><time>2026-04-18T09:19:20.002Z</time></trkpt><trkpt lat="43.42756633963062" lon="10.972587158830729"><ele>512.3333333333333</ele><time>2026-04-18T09:19:21.002Z</time></trkpt><trkpt lat="43.4274215710713" lon="10.972790576219133"><ele>512.0</ele><time>2026-04-18T09:19:22.002Z</time></trkpt><trkpt lat="43.427269436138566" lon="10.97300072853057"><ele>511.66666666666663</ele><time>2026-04-18T09:19:23.002Z</time></trkpt><trkpt lat="43.427114079834396" lon="10.973209908522444"><ele>511.33333333333337</ele><time>2026-04-18T09:19:24.002Z</time></trkpt><trkpt lat="43.426958442401805" lon="10.973394806969521"><ele>511.0</ele><time>2026-04-18T09:19:25.002Z</time></trkpt><trkpt lat="43.426805268243754" lon="10.97354087918826"><ele>510.6666666666667</ele><time>2026-04-18T09:19:26.002Z</time></trkpt><trkpt lat="43.42664051929852" lon="10.973630059089759"><ele>510.33333333333337</ele><time>2026-04-18T09:19:27.002Z</time></trkpt><trkpt lat="43.42647057749519" lon="10.973698419120906"><ele>510.0</ele><time>2026-04-18T09:19:28.002Z</time></trkpt><trkpt lat="43.42629008245611" lon="10.973737957147799"><ele>509.5</ele><time>2026-04-18T09:19:29.002Z</time></trkpt><trkpt lat="43.42611512997049" lon="10.97374140958153"><ele>509.0</ele><time>2026-04-18T09:19:30.002Z</time></trkpt><trkpt lat="43.42598230586125" lon="10.973719382103065"><ele>508.5</ele><time>2026-04-18T09:19:31.002Z</time></trkpt><trkpt lat="43.425898220691565" lon="10.973622424501158"><ele>508.0</ele><time>2026-04-18T09:19:32.002Z</time></trkpt><trkpt lat="43.42581745343018" lon="10.973487058813774"><ele>508.0</ele><time>2026-04-18T09:19:33.002Z</time></trkpt><trkpt lat="43.42571437539712" lon="10.973358733226261"><ele>508.0</ele><time>2026-04-18T09:19:34.002Z</time></trkpt><trkpt lat="43.425600483400274" lon="10.97327804068058"><ele>508.0</ele><time>2026-04-18T09:19:35.002Z</time></trkpt><trkpt lat="43.42544809668689" lon="10.973273344493112"><ele>508.0</ele><time>2026-04-18T09:19:36.002Z</time></trkpt><trkpt lat="43.42530393886882" lon="10.973268796478257"><ele>505.5</ele><time>2026-04-18T09:19:37.002Z</time></trkpt><trkpt lat="43.42519206459614" lon="10.973305233144593"><ele>503.0</ele><time>2026-04-18T09:19:38.002Z</time></trkpt><trkpt lat="43.42510164193218" lon="10.973393384100673"><ele>500.5</ele><time>2026-04-18T09:19:39.002Z</time></trkpt><trkpt lat="43.42503362614534" lon="10.973546989171556"><ele>498.0</ele><time>2026-04-18T09:19:40.002Z</time></trkpt><trkpt lat="43.42500664124815" lon="10.973738885278673"><ele>498.0</ele><time>2026-04-18T09:19:41.002Z</time></trkpt><trkpt lat="43.425005652733965" lon="10.973954775815246"><ele>498.0</ele><time>2026-04-18T09:19:42.002Z</time></trkpt><trkpt lat="43.42499923347193" lon="10.974187323580711"><ele>498.0</ele><time>2026-04-18T09:19:43.002Z</time></trkpt><trkpt lat="43.42493421721598" lon="10.97441126489163"><ele>496.66666666666663</ele><time>2026-04-18T09:19:44.002Z</time></trkpt><trkpt lat="43.42484850417607" lon="10.974631951410348"><ele>495.3333333333333</ele><time>2026-04-18T09:19:45.002Z</time></trkpt><trkpt lat="43.42476939454175" lon="10.974861758767728"><ele>494.0</ele><time>2026-04-18T09:19:46.002Z</time></trkpt><trkpt lat="43.424661290665405" lon="10.975038712197454"><ele>493.66666666666663</ele><time>2026-04-18T09:19:47.002Z</time></trkpt><trkpt lat="43.424543044966484" lon="10.975194570269243"><ele>493.33333333333337</ele><time>2026-04-18T09:19:48.002Z</time></trkpt><trkpt lat="43.42438764398659" lon="10.975283986872924"><ele>493.0</ele><time>2026-04-18T09:19:49Z</time></trkpt><trkpt lat="43.42420011568147" lon="10.975368138131175"><ele>493.0</ele><time>2026-04-18T09:19:50Z</time></trkpt><trkpt lat="43.424021476291585" lon="10.975450542202607"><ele>493.0</ele><time>2026-04-18T09:19:51Z</time></trkpt><trkpt lat="43.42384989618898" lon="10.975533737508005"><ele>493.0</ele><time>2026-04-18T09:19:52Z</time></trkpt><trkpt lat="43.423687432404954" lon="10.975623169524864"><ele>493.33333333333337</ele><time>2026-04-18T09:19:53Z</time></trkpt><trkpt lat="43.42353520523128" lon="10.97576082587701"><ele>493.66666666666663</ele><time>2026-04-18T09:19:54Z</time></trkpt><trkpt lat="43.423376482398105" lon="10.975891801881962"><ele>494.0</ele><time>2026-04-18T09:19:55Z</time></trkpt><trkpt lat="43.423215596925665" lon="10.976025365260666"><ele>494.66666666666663</ele><time>2026-04-18T09:19:56Z</time></trkpt><trkpt lat="43.42305040265499" lon="10.97611769968101"><ele>495.33333333333337</ele><time>2026-04-18T09:19:57Z</time></trkpt><trkpt lat="43.42291150824027" lon="10.976211943479875"><ele>496.0</ele><time>2026-04-18T09:19:58Z</time></trkpt><trkpt lat="43.42277296139481" lon="10.97626400802919"><ele>496.0</ele><time>2026-04-18T09:19:59Z</time></trkpt><trkpt lat="43.42263985967541" lon="10.976291873864852"><ele>496.0</ele><time>2026-04-18T09:20:00Z</time></trkpt><trkpt lat="43.42249358042759" lon="10.976275525199416"><ele>496.0</ele><time>2026-04-18T09:20:01Z</time></trkpt><trkpt lat="43.422350398762035" lon="10.97620533762532"><ele>496.0</ele><time>2026-04-18T09:20:02Z</time></trkpt><trkpt lat="43.42223961849558" lon="10.976067524141499"><ele>498.75</ele><time>2026-04-18T09:20:03Z</time></trkpt><trkpt lat="43.42212008555046" lon="10.975940822871223"><ele>501.5</ele><time>2026-04-18T09:20:04Z</time></trkpt><trkpt lat="43.42200735992338" lon="10.975825678764851"><ele>504.25</ele><time>2026-04-18T09:20:05Z</time></trkpt><trkpt lat="43.42189612683151" lon="10.975746335683475"><ele>507.0</ele><time>2026-04-18T09:20:06Z</time></trkpt><trkpt lat="43.42175475736539" lon="10.975769424967574"><ele>507.0</ele><time>2026-04-18T09:20:07Z</time></trkpt><trkpt lat="43.42162675727155" lon="10.975835574007705"><ele>507.0</ele><time>2026-04-18T09:20:08Z</time></trkpt><trkpt lat="43.4214877280627" lon="10.975854508899115"><ele>507.0</ele><time>2026-04-18T09:20:09Z</time></trkpt><trkpt lat="43.421347362329676" lon="10.97588516057668"><ele>507.0</ele><time>2026-04-18T09:20:10Z</time></trkpt><trkpt lat="43.42120221150438" lon="10.97589705723649"><ele>508.25</ele><time>2026-04-18T09:20:11Z</time></trkpt><trkpt lat="43.421065088206255" lon="10.975873507625089"><ele>509.5</ele><time>2026-04-18T09:20:12Z</time></trkpt><trkpt lat="43.42092721758241" lon="10.975816114610977"><ele>510.75</ele><time>2026-04-18T09:20:13Z</time></trkpt><trkpt lat="43.42077346214027" lon="10.975760496572391"><ele>512.0</ele><time>2026-04-18T09:20:14Z</time></trkpt><trkpt lat="43.420608117210236" lon="10.975713634187965"><ele>513.6666666666666</ele><time>2026-04-18T09:20:15Z</time></trkpt><trkpt lat="43.42043725603664" lon="10.975702717267817"><ele>515.3333333333334</ele><time>2026-04-18T09:20:16Z</time></trkpt><trkpt lat="43.42028177775752" lon="10.975710325732164"><ele>517.0</ele><time>2026-04-18T09:20:17Z</time></trkpt><trkpt lat="43.42013900569629" lon="10.975722211543975"><ele>517.0</ele><time>2026-04-18T09:20:18Z</time></trkpt><trkpt lat="43.41998622411727" lon="10.975757440446937"><ele>517.0</ele><time>2026-04-18T09:20:19Z</time></trkpt><trkpt lat="43.419844670502094" lon="10.975828054387463"><ele>517.0</ele><time>2026-04-18T09:20:20Z</time></trkpt><trkpt lat="43.41971060818524" lon="10.975892815828235"><ele>517.0</ele><time>2026-04-18T09:20:21Z</time></trkpt><trkpt lat="43.41957154224365" lon="10.975938392672733"><ele>517.4</ele><time>2026-04-18T09:20:22.001Z</time></trkpt><trkpt lat="43.4194473633487" lon="10.97600235891974"><ele>517.8000000000001</ele><time>2026-04-18T09:20:23.001Z</time></trkpt><trkpt lat="43.419347048837" lon="10.976051932297041"><ele>518.2</ele><time>2026-04-18T09:20:24.001Z</time></trkpt><trkpt lat="43.41925526267004" lon="10.976096824869012"><ele>518.6</ele><time>2026-04-18T09:20:25.001Z</time></trkpt><trkpt lat="43.41917507048479" lon="10.976136047028207"><ele>519.0</ele><time>2026-04-18T09:20:26.001Z</time></trkpt><trkpt lat="43.41911709434099" lon="10.976189002700206"><ele>519.0</ele><time>2026-04-18T09:20:27.001Z</time></trkpt><trkpt lat="43.4190329403743" lon="10.976211885259014"><ele>519.0</ele><time>2026-04-18T09:20:29.001Z</time></trkpt><trkpt lat="43.418970272479854" lon="10.976109088706963"><ele>519.0</ele><time>2026-04-18T09:20:33.001Z</time></trkpt><trkpt lat="43.41886391395328" lon="10.975994995535368"><ele>519.0</ele><time>2026-04-18T09:20:35.001Z</time></trkpt><trkpt lat="43.41877611651862" lon="10.97594995482493"><ele>519.0</ele><time>2026-04-18T09:20:36.001Z</time></trkpt><trkpt lat="43.418689040348596" lon="10.975889220836295"><ele>517.6666666666666</ele><time>2026-04-18T09:20:37.001Z</time></trkpt><trkpt lat="43.41862057435636" lon="10.975807705576653"><ele>516.3333333333334</ele><time>2026-04-18T09:20:38.001Z</time></trkpt><trkpt lat="43.41855865171512" lon="10.975723731471197"><ele>515.0</ele><time>2026-04-18T09:20:39.001Z</time></trkpt><trkpt lat="43.418488764367524" lon="10.975639093769948"><ele>513.6666666666667</ele><time>2026-04-18T09:20:40.001Z</time></trkpt><trkpt lat="43.418420294143466" lon="10.975574527449796"><ele>512.3333333333334</ele><time>2026-04-18T09:20:41.001Z</time></trkpt><trkpt lat="43.418355101392734" lon="10.975496998392295"><ele>511.0</ele><time>2026-04-18T09:20:42.001Z</time></trkpt><trkpt lat="43.41825821336007" lon="10.975569167864213"><ele>511.0</ele><time>2026-04-18T09:20:43.001Z</time></trkpt><trkpt lat="43.41818189662792" lon="10.97553247513922"><ele>511.0</ele><time>2026-04-18T09:20:44.001Z</time></trkpt><trkpt lat="43.418098356311795" lon="10.975491112491426"><ele>511.0</ele><time>2026-04-18T09:20:45.001Z</time></trkpt><trkpt lat="43.418000156883565" lon="10.97547807452313"><ele>511.0</ele><time>2026-04-18T09:20:46.001Z</time></trkpt><trkpt lat="43.41790960661833" lon="10.975455988883374"><ele>511.0</ele><time>2026-04-18T09:20:47.001Z</time></trkpt><trkpt lat="43.417820151651135" lon="10.975433935572994"><ele>511.20000000000005</ele><time>2026-04-18T09:20:48.001Z</time></trkpt><trkpt lat="43.41772682595552" lon="10.975447178749874"><ele>511.40000000000003</ele><time>2026-04-18T09:20:49.001Z</time></trkpt><trkpt lat="43.417638278421606" lon="10.975420717999624"><ele>511.6</ele><time>2026-04-18T09:20:50.001Z</time></trkpt><trkpt lat="43.41754121141302" lon="10.975417733055263"><ele>511.8</ele><time>2026-04-18T09:20:51.001Z</time></trkpt><trkpt lat="43.417450599583574" lon="10.975421007396813"><ele>512.0</ele><time>2026-04-18T09:20:52.001Z</time></trkpt><trkpt lat="43.417354516790944" lon="10.975408362398317"><ele>512.0</ele><time>2026-04-18T09:20:54.001Z</time></trkpt><trkpt lat="43.417292886570166" lon="10.975433694732107"><ele>512.0</ele><time>2026-04-18T09:20:56.001Z</time></trkpt><trkpt lat="43.41732985885423" lon="10.975278049023695"><ele>512.0</ele><time>2026-04-18T09:21:00.001Z</time></trkpt><trkpt lat="43.41739930123651" lon="10.975192448910855"><ele>512.0</ele><time>2026-04-18T09:21:01.001Z</time></trkpt><trkpt lat="43.41746866026294" lon="10.975075485934006"><ele>512.0</ele><time>2026-04-18T09:21:02.001Z</time></trkpt><trkpt lat="43.417572326668015" lon="10.974958533360283"><ele>509.20000000000005</ele><time>2026-04-18T09:21:03.001Z</time></trkpt><trkpt lat="43.41765460353604" lon="10.974867357942436"><ele>506.40000000000003</ele><time>2026-04-18T09:21:04.001Z</time></trkpt><trkpt lat="43.417701704043765" lon="10.974766916383102"><ele>503.59999999999997</ele><time>2026-04-18T09:21:05.001Z</time></trkpt><trkpt lat="43.417750402286124" lon="10.974691201137233"><ele>500.79999999999995</ele><time>2026-04-18T09:21:06.001Z</time></trkpt><trkpt lat="43.41777108877694" lon="10.974561770898854"><ele>498.0</ele><time>2026-04-18T09:21:07.001Z</time></trkpt><trkpt lat="43.41771365303286" lon="10.974411059259115"><ele>498.0</ele><time>2026-04-18T09:21:08.001Z</time></trkpt><trkpt lat="43.41765055160387" lon="10.97426277982791"><ele>498.0</ele><time>2026-04-18T09:21:09.001Z</time></trkpt><trkpt lat="43.417559773214776" lon="10.974086910046776"><ele>498.0</ele><time>2026-04-18T09:21:10.001Z</time></trkpt><trkpt lat="43.41747991496112" lon="10.97391904040692"><ele>498.0</ele><time>2026-04-18T09:21:11.001Z</time></trkpt><trkpt lat="43.41739426937592" lon="10.973733152882247"><ele>495.0</ele><time>2026-04-18T09:21:12.001Z</time></trkpt><trkpt lat="43.41732047303845" lon="10.97357298282046"><ele>492.0</ele><time>2026-04-18T09:21:13.001Z</time></trkpt><trkpt lat="43.41725316607865" lon="10.973424591819988"><ele>489.0</ele><time>2026-04-18T09:21:14.002Z</time></trkpt><trkpt lat="43.41719109863388" lon="10.973272722353007"><ele>486.0</ele><time>2026-04-18T09:21:15.002Z</time></trkpt><trkpt lat="43.41711978111995" lon="10.97312205194314"><ele>483.5</ele><time>2026-04-18T09:21:16.002Z</time></trkpt><trkpt lat="43.417062683582145" lon="10.972936700279291"><ele>481.0</ele><time>2026-04-18T09:21:17.002Z</time></trkpt><trkpt lat="43.41700796131416" lon="10.972756536604887"><ele>478.5</ele><time>2026-04-18T09:21:18.002Z</time></trkpt><trkpt lat="43.41696097393887" lon="10.97257775165481"><ele>476.0</ele><time>2026-04-18T09:21:19.002Z</time></trkpt><trkpt lat="43.416913494400696" lon="10.972393938732493"><ele>475.75</ele><time>2026-04-18T09:21:20.002Z</time></trkpt><trkpt lat="43.416869662631825" lon="10.97222424767177"><ele>475.5</ele><time>2026-04-18T09:21:21.002Z</time></trkpt><trkpt lat="43.41682680222144" lon="10.972058317591832"><ele>475.25</ele><time>2026-04-18T09:21:22.002Z</time></trkpt><trkpt lat="43.4167650212671" lon="10.971882719743531"><ele>475.0</ele><time>2026-04-18T09:21:23.002Z</time></trkpt><trkpt lat="43.41671944489859" lon="10.971686522032998"><ele>475.75</ele><time>2026-04-18T09:21:24.002Z</time></trkpt><trkpt lat="43.416649950773255" lon="10.971509218501968"><ele>476.5</ele><time>2026-04-18T09:21:25.002Z</time></trkpt><trkpt lat="43.416562279818365" lon="10.971336355463709"><ele>477.25</ele><time>2026-04-18T09:21:26.002Z</time></trkpt><trkpt lat="43.416494889147245" lon="10.971154505139966"><ele>478.0</ele><time>2026-04-18T09:21:27.002Z</time></trkpt><trkpt lat="43.41642023893641" lon="10.97099597399859"><ele>478.0</ele><time>2026-04-18T09:21:28.002Z</time></trkpt><trkpt lat="43.41633475283088" lon="10.970830505700876"><ele>478.0</ele><time>2026-04-18T09:21:29.002Z</time></trkpt><trkpt lat="43.41624134316152" lon="10.970656932441752"><ele>478.0</ele><time>2026-04-18T09:21:30.002Z</time></trkpt><trkpt lat="43.41613752086566" lon="10.970468909514947"><ele>478.6666666666667</ele><time>2026-04-18T09:21:31.002Z</time></trkpt><trkpt lat="43.416033173936896" lon="10.970281312655695"><ele>479.33333333333337</ele><time>2026-04-18T09:21:32.002Z</time></trkpt><trkpt lat="43.41594087779352" lon="10.970115380773446"><ele>480.0</ele><time>2026-04-18T09:21:33.002Z</time></trkpt><trkpt lat="43.41585045093798" lon="10.969952809558285"><ele>480.0</ele><time>2026-04-18T09:21:34.002Z</time></trkpt><trkpt lat="43.415758511117595" lon="10.969787080878016"><ele>480.0</ele><time>2026-04-18T09:21:35.002Z</time></trkpt><trkpt lat="43.415675745079" lon="10.96963041841532"><ele>480.0</ele><time>2026-04-18T09:21:36.002Z</time></trkpt><trkpt lat="43.41560513978995" lon="10.9694859259489"><ele>480.0</ele><time>2026-04-18T09:21:37.002Z</time></trkpt><trkpt lat="43.415555213910636" lon="10.969344501322738"><ele>480.0</ele><time>2026-04-18T09:21:38.002Z</time></trkpt><trkpt lat="43.41551621909547" lon="10.969205618381107"><ele>480.0</ele><time>2026-04-18T09:21:39.002Z</time></trkpt><trkpt lat="43.41550044717398" lon="10.969065555123912"><ele>480.0</ele><time>2026-04-18T09:21:40.002Z</time></trkpt><trkpt lat="43.4155051937415" lon="10.968893316675336"><ele>480.0</ele><time>2026-04-18T09:21:41.002Z</time></trkpt><trkpt lat="43.41550903121424" lon="10.968692620818654"><ele>478.66666666666663</ele><time>2026-04-18T09:21:42.002Z</time></trkpt><trkpt lat="43.415517522269546" lon="10.968489592176699"><ele>477.3333333333333</ele><time>2026-04-18T09:21:43.002Z</time></trkpt><trkpt lat="43.41553018371519" lon="10.968271458662734"><ele>476.0</ele><time>2026-04-18T09:21:44.002Z</time></trkpt><trkpt lat="43.415545010782594" lon="10.968040379201003"><ele>476.0</ele><time>2026-04-18T09:21:45.002Z</time></trkpt><trkpt lat="43.4155562847368" lon="10.967809134391569"><ele>476.0</ele><time>2026-04-18T09:21:46.002Z</time></trkpt><trkpt lat="43.41557688912834" lon="10.967588928439058"><ele>476.0</ele><time>2026-04-18T09:21:47.002Z</time></trkpt><trkpt lat="43.41560124701727" lon="10.967365094505293"><ele>478.0</ele><time>2026-04-18T09:21:48.002Z</time></trkpt><trkpt lat="43.415618122754054" lon="10.96716288288609"><ele>480.0</ele><time>2026-04-18T09:21:49.002Z</time></trkpt><trkpt lat="43.415659732756055" lon="10.96698133059388"><ele>482.0</ele><time>2026-04-18T09:21:50.002Z</time></trkpt><trkpt lat="43.41568023560859" lon="10.96679629267401"><ele>484.0</ele><time>2026-04-18T09:21:51.002Z</time></trkpt><trkpt lat="43.41569463547674" lon="10.966629015238366"><ele>485.75</ele><time>2026-04-18T09:21:52.002Z</time></trkpt><trkpt lat="43.41573088237651" lon="10.96648904255259"><ele>487.5</ele><time>2026-04-18T09:21:53.002Z</time></trkpt><trkpt lat="43.41574406442265" lon="10.966339814118985"><ele>489.25</ele><time>2026-04-18T09:21:54.002Z</time></trkpt><trkpt lat="43.415712274596814" lon="10.966160527170906"><ele>491.0</ele><time>2026-04-18T09:21:55Z</time></trkpt><trkpt lat="43.41566598441939" lon="10.965992908923134"><ele>491.75</ele><time>2026-04-18T09:21:56Z</time></trkpt><trkpt lat="43.415646606626424" lon="10.96579705916433"><ele>492.5</ele><time>2026-04-18T09:21:57Z</time></trkpt><trkpt lat="43.41561187011761" lon="10.965604800697248"><ele>493.25</ele><time>2026-04-18T09:21:58Z</time></trkpt><trkpt lat="43.41560478147006" lon="10.965447818077203"><ele>494.0</ele><time>2026-04-18T09:21:59Z</time></trkpt><trkpt lat="43.41561450806285" lon="10.96527613480253"><ele>494.0</ele><time>2026-04-18T09:22:00Z</time></trkpt><trkpt lat="43.41563201965521" lon="10.965107414135552"><ele>494.0</ele><time>2026-04-18T09:22:01Z</time></trkpt><trkpt lat="43.41566563269696" lon="10.964973460874475"><ele>494.0</ele><time>2026-04-18T09:22:02Z</time></trkpt><trkpt lat="43.41570174383581" lon="10.964864242496406"><ele>494.0</ele><time>2026-04-18T09:22:03Z</time></trkpt><trkpt lat="43.41572393168695" lon="10.9647114574848"><ele>494.0</ele><time>2026-04-18T09:22:05Z</time></trkpt><trkpt lat="43.415720966542864" lon="10.964577983152711"><ele>493.6</ele><time>2026-04-18T09:22:07Z</time></trkpt><trkpt lat="43.41560842815123" lon="10.964405515718296"><ele>493.2</ele><time>2026-04-18T09:22:09Z</time></trkpt><trkpt lat="43.41555107611604" lon="10.964306659522975"><ele>492.80000000000007</ele><time>2026-04-18T09:22:10Z</time></trkpt><trkpt lat="43.415508208792055" lon="10.964198898629856"><ele>492.40000000000003</ele><time>2026-04-18T09:22:11Z</time></trkpt><trkpt lat="43.41545957056368" lon="10.964121335195143"><ele>492.0</ele><time>2026-04-18T09:22:12Z</time></trkpt><trkpt lat="43.415413168752" lon="10.964056727929536"><ele>492.0</ele><time>2026-04-18T09:22:13Z</time></trkpt><trkpt lat="43.415321848154235" lon="10.963969483862474"><ele>492.0</ele><time>2026-04-18T09:22:15Z</time></trkpt><trkpt lat="43.415222177415174" lon="10.96389564743317"><ele>492.0</ele><time>2026-04-18T09:22:17Z</time></trkpt><trkpt lat="43.41515388225452" lon="10.963871215256615"><ele>492.0</ele><time>2026-04-18T09:22:18Z</time></trkpt><trkpt lat="43.41509474706471" lon="10.9638396636153"><ele>492.0</ele><time>2026-04-18T09:22:19Z</time></trkpt><trkpt lat="43.41503525430452" lon="10.963793830989992"><ele>492.0</ele><time>2026-04-18T09:22:20Z</time></trkpt><trkpt lat="43.4149774972452" lon="10.963730727988818"><ele>492.0</ele><time>2026-04-18T09:22:21Z</time></trkpt><trkpt lat="43.414904836306945" lon="10.963684308674344"><ele>492.0</ele><time>2026-04-18T09:22:22Z</time></trkpt><trkpt lat="43.414843775348544" lon="10.96360905300053"><ele>492.0</ele><time>2026-04-18T09:22:23Z</time></trkpt><trkpt lat="43.41476388800301" lon="10.963561261797446"><ele>492.0</ele><time>2026-04-18T09:22:24Z</time></trkpt><trkpt lat="43.41467063247416" lon="10.963532113562005"><ele>492.0</ele><time>2026-04-18T09:22:25Z</time></trkpt><trkpt lat="43.41458016084525" lon="10.963512673396025"><ele>492.0</ele><time>2026-04-18T09:22:26Z</time></trkpt><trkpt lat="43.4144906338279" lon="10.963494923669654"><ele>489.6</ele><time>2026-04-18T09:22:27Z</time></trkpt><trkpt lat="43.41439904415767" lon="10.963491271272968"><ele>487.20000000000005</ele><time>2026-04-18T09:22:28Z</time></trkpt><trkpt lat="43.41431091456426" lon="10.963458676141174"><ele>484.8</ele><time>2026-04-18T09:22:29Z</time></trkpt><trkpt lat="43.41422789985825" lon="10.963408054857991"><ele>482.4</ele><time>2026-04-18T09:22:30Z</time></trkpt><trkpt lat="43.41416350259783" lon="10.96335930459372"><ele>480.0</ele><time>2026-04-18T09:22:31Z</time></trkpt><trkpt lat="43.41411091060077" lon="10.963229146724569"><ele>480.0</ele><time>2026-04-18T09:22:33Z</time></trkpt><trkpt lat="43.41406455541361" lon="10.963133438962611"><ele>480.0</ele><time>2026-04-18T09:22:34Z</time></trkpt><trkpt lat="43.41402905719209" lon="10.963052590027964"><ele>480.0</ele><time>2026-04-18T09:22:35Z</time></trkpt><trkpt lat="43.41397884686657" lon="10.96290995728678"><ele>480.0</ele><time>2026-04-18T09:22:37.001Z</time></trkpt><trkpt lat="43.413915707886005" lon="10.96281321085971"><ele>480.0</ele><time>2026-04-18T09:22:39.001Z</time></trkpt><trkpt lat="43.41385423584526" lon="10.962774336625937"><ele>480.0</ele><time>2026-04-18T09:22:40.001Z</time></trkpt><trkpt lat="43.413768487577656" lon="10.962804530103156"><ele>477.6</ele><time>2026-04-18T09:22:41.001Z</time></trkpt><trkpt lat="43.41370419085753" lon="10.962963173666562"><ele>475.2</ele><time>2026-04-18T09:22:42.001Z</time></trkpt><trkpt lat="43.413627958579745" lon="10.963048558027264"><ele>472.79999999999995</ele><time>2026-04-18T09:22:43.001Z</time></trkpt><trkpt lat="43.413535078523196" lon="10.963065029755471"><ele>470.4</ele><time>2026-04-18T09:22:44.001Z</time></trkpt><trkpt lat="43.413447030404285" lon="10.963104955791295"><ele>468.0</ele><time>2026-04-18T09:22:45.001Z</time></trkpt><trkpt lat="43.41336264283931" lon="10.963125361955832"><ele>468.0</ele><time>2026-04-18T09:22:46.001Z</time></trkpt><trkpt lat="43.41329094891368" lon="10.963123416490783"><ele>467.99999999999994</ele><time>2026-04-18T09:22:47.001Z</time></trkpt><trkpt lat="43.4132283915077" lon="10.963104657827415"><ele>467.99999999999994</ele><time>2026-04-18T09:22:48.001Z</time></trkpt><trkpt lat="43.413125887885805" lon="10.9629759014696"><ele>468.0</ele><time>2026-04-18T09:22:50.001Z</time></trkpt><trkpt lat="43.413044014863026" lon="10.96287251587526"><ele>468.0</ele><time>2026-04-18T09:22:51.001Z</time></trkpt><trkpt lat="43.41296400534428" lon="10.96275877748954"><ele>464.79999999999995</ele><time>2026-04-18T09:22:52.001Z</time></trkpt><trkpt lat="43.41287987957798" lon="10.962638921961489"><ele>461.59999999999997</ele><time>2026-04-18T09:22:53.001Z</time></trkpt><trkpt lat="43.41280063492615" lon="10.962539060577068"><ele>458.40000000000003</ele><time>2026-04-18T09:22:54.001Z</time></trkpt><trkpt lat="43.41273683991309" lon="10.96246556282552"><ele>455.20000000000005</ele><time>2026-04-18T09:22:55.001Z</time></trkpt><trkpt lat="43.41269154239869" lon="10.962325889597315"><ele>452.0</ele><time>2026-04-18T09:22:57.001Z</time></trkpt><trkpt lat="43.412674052263846" lon="10.962181832487378"><ele>451.6</ele><time>2026-04-18T09:22:59.001Z</time></trkpt><trkpt lat="43.41269455571085" lon="10.962057090432857"><ele>451.20000000000005</ele><time>2026-04-18T09:23:00.001Z</time></trkpt><trkpt lat="43.41271620689332" lon="10.96188657762466"><ele>450.8</ele><time>2026-04-18T09:23:01.001Z</time></trkpt><trkpt lat="43.412763528473405" lon="10.961742704522411"><ele>450.4</ele><time>2026-04-18T09:23:02.001Z</time></trkpt><trkpt lat="43.41278782614977" lon="10.961614261313416"><ele>450.0</ele><time>2026-04-18T09:23:03.001Z</time></trkpt><trkpt lat="43.4127994006911" lon="10.961486957388665"><ele>449.0</ele><time>2026-04-18T09:23:04.001Z</time></trkpt><trkpt lat="43.41281580725575" lon="10.96136826588944"><ele>448.0</ele><time>2026-04-18T09:23:05.001Z</time></trkpt><trkpt lat="43.41282767967834" lon="10.961241193668654"><ele>447.0</ele><time>2026-04-18T09:23:06.001Z</time></trkpt><trkpt lat="43.41283011775369" lon="10.961118884860708"><ele>446.0</ele><time>2026-04-18T09:23:07.001Z</time></trkpt><trkpt lat="43.41281977399702" lon="10.960989313115448"><ele>445.0</ele><time>2026-04-18T09:23:08.001Z</time></trkpt><trkpt lat="43.41281016101638" lon="10.960860884487088"><ele>442.4</ele><time>2026-04-18T09:23:09.001Z</time></trkpt><trkpt lat="43.41276101088465" lon="10.960745060342065"><ele>439.8</ele><time>2026-04-18T09:23:10.001Z</time></trkpt><trkpt lat="43.41274553507171" lon="10.960620855625082"><ele>437.20000000000005</ele><time>2026-04-18T09:23:11.001Z</time></trkpt><trkpt lat="43.41273819143542" lon="10.960485994374014"><ele>434.6</ele><time>2026-04-18T09:23:12.001Z</time></trkpt><trkpt lat="43.41276030065625" lon="10.960347479585945"><ele>432.0</ele><time>2026-04-18T09:23:13.001Z</time></trkpt><trkpt lat="43.41277562175493" lon="10.960182683100966"><ele>430.0</ele><time>2026-04-18T09:23:14.001Z</time></trkpt><trkpt lat="43.41279646957443" lon="10.96002524122393"><ele>428.00000000000006</ele><time>2026-04-18T09:23:15.001Z</time></trkpt><trkpt lat="43.412819458470764" lon="10.959878835842549"><ele>426.0</ele><time>2026-04-18T09:23:16.001Z</time></trkpt><trkpt lat="43.412849947020966" lon="10.959747142258548"><ele>424.0</ele><time>2026-04-18T09:23:17.001Z</time></trkpt><trkpt lat="43.41288465229966" lon="10.959616226103714"><ele>422.0</ele><time>2026-04-18T09:23:18.001Z</time></trkpt><trkpt lat="43.41292121736501" lon="10.9594739464888"><ele>421.99999999999994</ele><time>2026-04-18T09:23:19.001Z</time></trkpt><trkpt lat="43.41294963287745" lon="10.959339236213761"><ele>422.0</ele><time>2026-04-18T09:23:20.001Z</time></trkpt><trkpt lat="43.412962080446604" lon="10.959216399977878"><ele>422.0</ele><time>2026-04-18T09:23:21.001Z</time></trkpt><trkpt lat="43.41295998392311" lon="10.959100197292516"><ele>422.0</ele><time>2026-04-18T09:23:22.001Z</time></trkpt><trkpt lat="43.41295602459845" lon="10.958986365021046"><ele>421.99999999999994</ele><time>2026-04-18T09:23:23.001Z</time></trkpt><trkpt lat="43.41293207709538" lon="10.958878337596287"><ele>422.0</ele><time>2026-04-18T09:23:24.001Z</time></trkpt><trkpt lat="43.41289383152855" lon="10.958751218046862"><ele>419.5</ele><time>2026-04-18T09:23:25.001Z</time></trkpt><trkpt lat="43.41287063404599" lon="10.95859961230316"><ele>417.0</ele><time>2026-04-18T09:23:26.002Z</time></trkpt><trkpt lat="43.41282958302546" lon="10.958424123222546"><ele>414.5</ele><time>2026-04-18T09:23:27.002Z</time></trkpt><trkpt lat="43.41278722275397" lon="10.958248158535465"><ele>412.0</ele><time>2026-04-18T09:23:28.002Z</time></trkpt><trkpt lat="43.41274552066509" lon="10.958078712881665"><ele>410.0</ele><time>2026-04-18T09:23:29.002Z</time></trkpt><trkpt lat="43.41270213894438" lon="10.957913569313822"><ele>408.0</ele><time>2026-04-18T09:23:30.002Z</time></trkpt><trkpt lat="43.412659296317266" lon="10.957753909656024"><ele>406.0</ele><time>2026-04-18T09:23:31.002Z</time></trkpt><trkpt lat="43.41261578099642" lon="10.957595497544352"><ele>404.0</ele><time>2026-04-18T09:23:32.002Z</time></trkpt><trkpt lat="43.41257286392906" lon="10.957439263649077"><ele>402.0</ele><time>2026-04-18T09:23:33.002Z</time></trkpt><trkpt lat="43.412531096698274" lon="10.957287511484372"><ele>400.0</ele><time>2026-04-18T09:23:34.002Z</time></trkpt><trkpt lat="43.41249102205389" lon="10.957142008207468"><ele>398.0</ele><time>2026-04-18T09:23:35.002Z</time></trkpt><trkpt lat="43.41245154726666" lon="10.95699868344198"><ele>396.0</ele><time>2026-04-18T09:23:36.002Z</time></trkpt><trkpt lat="43.41239970511317" lon="10.956873338442566"><ele>394.0</ele><time>2026-04-18T09:23:37.002Z</time></trkpt><trkpt lat="43.412382783158165" lon="10.95675596173686"><ele>393.0</ele><time>2026-04-18T09:23:38.002Z</time></trkpt><trkpt lat="43.41234339407379" lon="10.956672268050873"><ele>392.0</ele><time>2026-04-18T09:23:39.002Z</time></trkpt><trkpt lat="43.41233285272166" lon="10.956512231180337"><ele>391.0</ele><time>2026-04-18T09:23:41.002Z</time></trkpt><trkpt lat="43.41231187140839" lon="10.956425646733374"><ele>390.0</ele><time>2026-04-18T09:23:42.002Z</time></trkpt><trkpt lat="43.41226659901585" lon="10.956238822945771"><ele>389.0</ele><time>2026-04-18T09:23:44.002Z</time></trkpt><trkpt lat="43.41224150555875" lon="10.956135116768271"><ele>388.99999999999994</ele><time>2026-04-18T09:23:45.002Z</time></trkpt><trkpt lat="43.41221899146912" lon="10.956034003910677"><ele>389.0</ele><time>2026-04-18T09:23:46.002Z</time></trkpt><trkpt lat="43.41219370405437" lon="10.955908257081132"><ele>389.0</ele><time>2026-04-18T09:23:47.002Z</time></trkpt><trkpt lat="43.41217259973938" lon="10.955796635270893"><ele>389.0</ele><time>2026-04-18T09:23:48.002Z</time></trkpt><trkpt lat="43.412122166324934" lon="10.955702412868632"><ele>388.99999999999994</ele><time>2026-04-18T09:23:49.002Z</time></trkpt><trkpt lat="43.412131440263096" lon="10.955582355122072"><ele>389.0</ele><time>2026-04-18T09:23:51.002Z</time></trkpt><trkpt lat="43.412128138525404" lon="10.955437909016128"><ele>389.0</ele><time>2026-04-18T09:23:53.002Z</time></trkpt><trkpt lat="43.412127005416934" lon="10.955338352034946"><ele>389.0</ele><time>2026-04-18T09:23:54.002Z</time></trkpt><trkpt lat="43.4121160269637" lon="10.955193159760862"><ele>389.0</ele><time>2026-04-18T09:23:55.002Z</time></trkpt><trkpt lat="43.41210908866212" lon="10.955038643885999"><ele>389.0</ele><time>2026-04-18T09:23:56.002Z</time></trkpt><trkpt lat="43.41210572682982" lon="10.954885415121627"><ele>389.0</ele><time>2026-04-18T09:23:57.002Z</time></trkpt><trkpt lat="43.412065419050165" lon="10.954743275925226"><ele>390.79999999999995</ele><time>2026-04-18T09:23:58.002Z</time></trkpt><trkpt lat="43.4119998554814" lon="10.954602952654158"><ele>392.59999999999997</ele><time>2026-04-18T09:23:59.002Z</time></trkpt><trkpt lat="43.411954571034215" lon="10.954459241433272"><ele>394.4</ele><time>2026-04-18T09:24:00.002Z</time></trkpt><trkpt lat="43.41193548590789" lon="10.954332541735958"><ele>396.2</ele><time>2026-04-18T09:24:00.999Z</time></trkpt><trkpt lat="43.41191055666301" lon="10.954185976736518"><ele>398.0</ele><time>2026-04-18T09:24:01.999Z</time></trkpt><trkpt lat="43.41190319808094" lon="10.953993415389222"><ele>398.66666666666663</ele><time>2026-04-18T09:24:02.999Z</time></trkpt><trkpt lat="43.411888173687316" lon="10.953787126085672"><ele>399.33333333333337</ele><time>2026-04-18T09:24:03.999Z</time></trkpt><trkpt lat="43.41187611744395" lon="10.953578986803889"><ele>400.0</ele><time>2026-04-18T09:24:04.999Z</time></trkpt><trkpt lat="43.41186846200242" lon="10.953351115140858"><ele>402.0</ele><time>2026-04-18T09:24:05.999Z</time></trkpt><trkpt lat="43.41184915044902" lon="10.953106924147143"><ele>404.0</ele><time>2026-04-18T09:24:06.999Z</time></trkpt><trkpt lat="43.411834091884764" lon="10.952888169908888"><ele>406.0</ele><time>2026-04-18T09:24:07.999Z</time></trkpt><trkpt lat="43.411818771722025" lon="10.952685877590152"><ele>407.5</ele><time>2026-04-18T09:24:08.999Z</time></trkpt><trkpt lat="43.41181075930848" lon="10.952498739051245"><ele>409.0</ele><time>2026-04-18T09:24:09.999Z</time></trkpt><trkpt lat="43.41179928373693" lon="10.952336527711662"><ele>410.5</ele><time>2026-04-18T09:24:10.999Z</time></trkpt><trkpt lat="43.41179414244102" lon="10.952190146740053"><ele>412.0</ele><time>2026-04-18T09:24:11.999Z</time></trkpt><trkpt lat="43.411781600425506" lon="10.95202635756002"><ele>412.0</ele><time>2026-04-18T09:24:12.999Z</time></trkpt><trkpt lat="43.41176874899649" lon="10.951848666667827"><ele>412.0</ele><time>2026-04-18T09:24:13.999Z</time></trkpt><trkpt lat="43.41175274566797" lon="10.951650860789957"><ele>412.0</ele><time>2026-04-18T09:24:14.999Z</time></trkpt><trkpt lat="43.411737942185574" lon="10.951447942941117"><ele>412.0</ele><time>2026-04-18T09:24:15.999Z</time></trkpt><trkpt lat="43.41172196227211" lon="10.951232675968733"><ele>413.0</ele><time>2026-04-18T09:24:16.999Z</time></trkpt><trkpt lat="43.4117093301124" lon="10.951027813007725"><ele>414.0</ele><time>2026-04-18T09:24:17.999Z</time></trkpt><trkpt lat="43.41169585072907" lon="10.950835309473595"><ele>415.0</ele><time>2026-04-18T09:24:18.999Z</time></trkpt><trkpt lat="43.411678268747245" lon="10.95064589543436"><ele>416.0</ele><time>2026-04-18T09:24:19.999Z</time></trkpt><trkpt lat="43.41166263079655" lon="10.950470012944265"><ele>417.0</ele><time>2026-04-18T09:24:20.999Z</time></trkpt><trkpt lat="43.4116380262924" lon="10.950283820434"><ele>418.0</ele><time>2026-04-18T09:24:21.999Z</time></trkpt><trkpt lat="43.41160679797258" lon="10.950108513151743"><ele>419.0</ele><time>2026-04-18T09:24:22.999Z</time></trkpt><trkpt lat="43.41157538631311" lon="10.949950965911349"><ele>420.0</ele><time>2026-04-18T09:24:24Z</time></trkpt><trkpt lat="43.411545684832234" lon="10.949798171390494"><ele>420.0</ele><time>2026-04-18T09:24:25Z</time></trkpt><trkpt lat="43.411523421405384" lon="10.949669966249287"><ele>420.0</ele><time>2026-04-18T09:24:26Z</time></trkpt><trkpt lat="43.41149634625897" lon="10.949555302166525"><ele>420.0</ele><time>2026-04-18T09:24:27Z</time></trkpt><trkpt lat="43.411446073357915" lon="10.949436405667795"><ele>420.0</ele><time>2026-04-18T09:24:28Z</time></trkpt><trkpt lat="43.411380303405736" lon="10.949320587325998"><ele>420.0</ele><time>2026-04-18T09:24:29Z</time></trkpt><trkpt lat="43.411322195812744" lon="10.949203468880635"><ele>420.0</ele><time>2026-04-18T09:24:30Z</time></trkpt><trkpt lat="43.41125845091874" lon="10.949131147785645"><ele>420.0</ele><time>2026-04-18T09:24:31Z</time></trkpt><trkpt lat="43.41118229935597" lon="10.949065719300046"><ele>420.0</ele><time>2026-04-18T09:24:32Z</time></trkpt><trkpt lat="43.41109021634999" lon="10.949003055274067"><ele>420.0</ele><time>2026-04-18T09:24:33Z</time></trkpt><trkpt lat="43.411028372919176" lon="10.948929926116666"><ele>420.0</ele><time>2026-04-18T09:24:34Z</time></trkpt><trkpt lat="43.41096219908947" lon="10.948851004009581"><ele>420.0</ele><time>2026-04-18T09:24:35Z</time></trkpt><trkpt lat="43.41092167752035" lon="10.948724844909584"><ele>420.0</ele><time>2026-04-18T09:24:36Z</time></trkpt><trkpt lat="43.41088815030422" lon="10.94857105312369"><ele>420.0</ele><time>2026-04-18T09:24:37Z</time></trkpt><trkpt lat="43.41087180408478" lon="10.94840266181389"><ele>420.0</ele><time>2026-04-18T09:24:38Z</time></trkpt><trkpt lat="43.41087308117244" lon="10.948217660781527"><ele>420.0</ele><time>2026-04-18T09:24:39Z</time></trkpt><trkpt lat="43.410860033880454" lon="10.948035281825478"><ele>419.5</ele><time>2026-04-18T09:24:40Z</time></trkpt><trkpt lat="43.410862717425935" lon="10.947851454843029"><ele>419.0</ele><time>2026-04-18T09:24:41Z</time></trkpt><trkpt lat="43.4108701530439" lon="10.94767685053122"><ele>418.5</ele><time>2026-04-18T09:24:42Z</time></trkpt><trkpt lat="43.41090109454674" lon="10.947493798590774"><ele>418.0</ele><time>2026-04-18T09:24:43Z</time></trkpt><trkpt lat="43.41093543177497" lon="10.947297320492874"><ele>419.0</ele><time>2026-04-18T09:24:44Z</time></trkpt><trkpt lat="43.410963272778346" lon="10.94713266131025"><ele>420.0</ele><time>2026-04-18T09:24:45Z</time></trkpt><trkpt lat="43.41098808658264" lon="10.946962502517488"><ele>421.0</ele><time>2026-04-18T09:24:46Z</time></trkpt><trkpt lat="43.41099360967412" lon="10.946799295995964"><ele>422.0</ele><time>2026-04-18T09:24:47Z</time></trkpt><trkpt lat="43.41100118774594" lon="10.94661480312567"><ele>423.0</ele><time>2026-04-18T09:24:48Z</time></trkpt><trkpt lat="43.41101043338163" lon="10.946434300049491"><ele>424.0</ele><time>2026-04-18T09:24:49Z</time></trkpt><trkpt lat="43.411009925894156" lon="10.946268186942973"><ele>425.0</ele><time>2026-04-18T09:24:50Z</time></trkpt><trkpt lat="43.41102122605213" lon="10.946105098555085"><ele>426.0</ele><time>2026-04-18T09:24:51Z</time></trkpt><trkpt lat="43.41102011603921" lon="10.945949182333726"><ele>426.25</ele><time>2026-04-18T09:24:52Z</time></trkpt><trkpt lat="43.41102107859681" lon="10.945767794919558"><ele>426.5</ele><time>2026-04-18T09:24:53Z</time></trkpt><trkpt lat="43.411004222938914" lon="10.945584630541168"><ele>426.75</ele><time>2026-04-18T09:24:54Z</time></trkpt><trkpt lat="43.41098305109323" lon="10.945426365934445"><ele>427.0</ele><time>2026-04-18T09:24:55Z</time></trkpt><trkpt lat="43.41096130136323" lon="10.945277071374944"><ele>427.0</ele><time>2026-04-18T09:24:56Z</time></trkpt><trkpt lat="43.41094654238332" lon="10.945134070782734"><ele>427.00000000000006</ele><time>2026-04-18T09:24:57.001Z</time></trkpt><trkpt lat="43.41093916810915" lon="10.945000696023142"><ele>427.00000000000006</ele><time>2026-04-18T09:24:58.001Z</time></trkpt><trkpt lat="43.41092045295874" lon="10.94487033014795"><ele>427.0</ele><time>2026-04-18T09:24:59.001Z</time></trkpt><trkpt lat="43.41090613522419" lon="10.944747504628381"><ele>427.0</ele><time>2026-04-18T09:25:00.001Z</time></trkpt><trkpt lat="43.41089912673585" lon="10.944645474666498"><ele>426.83333333333337</ele><time>2026-04-18T09:25:01.001Z</time></trkpt><trkpt lat="43.410882357018835" lon="10.94453498246393"><ele>426.6666666666667</ele><time>2026-04-18T09:25:02.001Z</time></trkpt><trkpt lat="43.41087970864602" lon="10.944422256095553"><ele>426.5</ele><time>2026-04-18T09:25:03.001Z</time></trkpt><trkpt lat="43.41087404597907" lon="10.944320757088956"><ele>426.33333333333337</ele><time>2026-04-18T09:25:04.001Z</time></trkpt><trkpt lat="43.410871317194825" lon="10.94422252456115"><ele>426.1666666666667</ele><time>2026-04-18T09:25:05.001Z</time></trkpt><trkpt lat="43.410864939478664" lon="10.944120335763326"><ele>426.0</ele><time>2026-04-18T09:25:06.001Z</time></trkpt><trkpt lat="43.41086407317963" lon="10.944016278591324"><ele>425.5</ele><time>2026-04-18T09:25:07.001Z</time></trkpt><trkpt lat="43.41085952414901" lon="10.943905872870564"><ele>425.0</ele><time>2026-04-18T09:25:08.001Z</time></trkpt><trkpt lat="43.410843348326495" lon="10.943799622193993"><ele>424.5</ele><time>2026-04-18T09:25:09.001Z</time></trkpt><trkpt lat="43.4108332623732" lon="10.943706883083324"><ele>424.0</ele><time>2026-04-18T09:25:10.001Z</time></trkpt><trkpt lat="43.410823868177744" lon="10.943601243782052"><ele>423.5</ele><time>2026-04-18T09:25:11.001Z</time></trkpt><trkpt lat="43.41081892208152" lon="10.94347615480521"><ele>423.0</ele><time>2026-04-18T09:25:12.001Z</time></trkpt><trkpt lat="43.410814343969044" lon="10.943333102207006"><ele>423.0</ele><time>2026-04-18T09:25:13.001Z</time></trkpt><trkpt lat="43.41081131187325" lon="10.943179765023707"><ele>423.0</ele><time>2026-04-18T09:25:14.001Z</time></trkpt><trkpt lat="43.41079671244505" lon="10.943041076564962"><ele>423.0</ele><time>2026-04-18T09:25:15.001Z</time></trkpt><trkpt lat="43.41077803549494" lon="10.942873226460396"><ele>423.0</ele><time>2026-04-18T09:25:16.001Z</time></trkpt><trkpt lat="43.41076027327281" lon="10.942712856449177"><ele>423.0</ele><time>2026-04-18T09:25:17.001Z</time></trkpt><trkpt lat="43.41072963493845" lon="10.942568265067527"><ele>423.0</ele><time>2026-04-18T09:25:18.001Z</time></trkpt><trkpt lat="43.41068615456024" lon="10.94240144994245"><ele>423.0</ele><time>2026-04-18T09:25:19.001Z</time></trkpt><trkpt lat="43.41064005426329" lon="10.942249506239657"><ele>423.0</ele><time>2026-04-18T09:25:20.001Z</time></trkpt><trkpt lat="43.410603560930205" lon="10.942060745363444"><ele>421.75</ele><time>2026-04-18T09:25:21.001Z</time></trkpt><trkpt lat="43.41055200115277" lon="10.941874811825436"><ele>420.5</ele><time>2026-04-18T09:25:22.001Z</time></trkpt><trkpt lat="43.41050610248216" lon="10.941721363573018"><ele>419.25</ele><time>2026-04-18T09:25:23.001Z</time></trkpt><trkpt lat="43.410455387049964" lon="10.941559490203193"><ele>418.0</ele><time>2026-04-18T09:25:24.001Z</time></trkpt><trkpt lat="43.41040795867639" lon="10.941408109041303"><ele>415.4</ele><time>2026-04-18T09:25:25.001Z</time></trkpt><trkpt lat="43.41035973185884" lon="10.941272409765796"><ele>412.79999999999995</ele><time>2026-04-18T09:25:26.001Z</time></trkpt><trkpt lat="43.41033032083981" lon="10.941144183950648"><ele>410.2</ele><time>2026-04-18T09:25:27.001Z</time></trkpt><trkpt lat="43.41030129266239" lon="10.941021776514692"><ele>407.6</ele><time>2026-04-18T09:25:28.001Z</time></trkpt><trkpt lat="43.41027462711592" lon="10.940914344685552"><ele>405.0</ele><time>2026-04-18T09:25:29.001Z</time></trkpt><trkpt lat="43.41026559477483" lon="10.940773353082635"><ele>404.6</ele><time>2026-04-18T09:25:31.001Z</time></trkpt><trkpt lat="43.41035026944751" lon="10.940655196384384"><ele>404.2</ele><time>2026-04-18T09:25:33.001Z</time></trkpt><trkpt lat="43.410449842073476" lon="10.940682461043991"><ele>403.79999999999995</ele><time>2026-04-18T09:25:34.001Z</time></trkpt><trkpt lat="43.41053740387164" lon="10.94063054779152"><ele>403.4</ele><time>2026-04-18T09:25:35.001Z</time></trkpt><trkpt lat="43.410596317721286" lon="10.940573557844738"><ele>403.0</ele><time>2026-04-18T09:25:36.001Z</time></trkpt><trkpt lat="43.41068208319657" lon="10.940494274734677"><ele>403.0</ele><time>2026-04-18T09:25:38.002Z</time></trkpt><trkpt lat="43.41070096845758" lon="10.940401562212237"><ele>403.0</ele><time>2026-04-18T09:25:39.002Z</time></trkpt><trkpt lat="43.410697110583335" lon="10.940265837889418"><ele>403.0</ele><time>2026-04-18T09:25:40.002Z</time></trkpt><trkpt lat="43.41067011342609" lon="10.940090410921377"><ele>403.0</ele><time>2026-04-18T09:25:41.002Z</time></trkpt><trkpt lat="43.41064350050441" lon="10.939887510774911"><ele>403.0</ele><time>2026-04-18T09:25:42.002Z</time></trkpt><trkpt lat="43.41063417664152" lon="10.939686751942194"><ele>401.79999999999995</ele><time>2026-04-18T09:25:43.002Z</time></trkpt><trkpt lat="43.410621059519684" lon="10.939510249872326"><ele>400.6</ele><time>2026-04-18T09:25:44.002Z</time></trkpt><trkpt lat="43.41061851850156" lon="10.939355687453018"><ele>399.4</ele><time>2026-04-18T09:25:45.002Z</time></trkpt><trkpt lat="43.41062885608124" lon="10.939216706143796"><ele>398.20000000000005</ele><time>2026-04-18T09:25:46.002Z</time></trkpt><trkpt lat="43.410650001112785" lon="10.9391011088614"><ele>397.0</ele><time>2026-04-18T09:25:47.002Z</time></trkpt><trkpt lat="43.410644017875555" lon="10.938988986537575"><ele>396.0</ele><time>2026-04-18T09:25:48.002Z</time></trkpt><trkpt lat="43.41064500767575" lon="10.93888359220984"><ele>395.0</ele><time>2026-04-18T09:25:49.002Z</time></trkpt><trkpt lat="43.41063121169181" lon="10.9387653315973"><ele>394.0</ele><time>2026-04-18T09:25:50.002Z</time></trkpt><trkpt lat="43.41059201300106" lon="10.938619096027438"><ele>393.0</ele><time>2026-04-18T09:25:51.002Z</time></trkpt><trkpt lat="43.41053523389346" lon="10.938448249186045"><ele>392.0</ele><time>2026-04-18T09:25:52.002Z</time></trkpt><trkpt lat="43.41047942518117" lon="10.938305890900912"><ele>391.16666666666663</ele><time>2026-04-18T09:25:53.002Z</time></trkpt><trkpt lat="43.41044833922062" lon="10.938202253230676"><ele>390.3333333333333</ele><time>2026-04-18T09:25:54.002Z</time></trkpt><trkpt lat="43.410403896449715" lon="10.938127684167236"><ele>389.5</ele><time>2026-04-18T09:25:55.002Z</time></trkpt><trkpt lat="43.41034173367079" lon="10.938076976645073"><ele>388.66666666666663</ele><time>2026-04-18T09:25:56.002Z</time></trkpt><trkpt lat="43.410265930905766" lon="10.938044044266809"><ele>387.8333333333333</ele><time>2026-04-18T09:25:57.002Z</time></trkpt><trkpt lat="43.41017174143848" lon="10.938010147807898"><ele>387.0</ele><time>2026-04-18T09:25:58.002Z</time></trkpt><trkpt lat="43.41007012499866" lon="10.93799237409172"><ele>387.0</ele><time>2026-04-18T09:25:59.002Z</time></trkpt><trkpt lat="43.40998337945196" lon="10.937947625039042"><ele>387.0</ele><time>2026-04-18T09:26:00.002Z</time></trkpt><trkpt lat="43.40991287853777" lon="10.93790158890624"><ele>387.0</ele><time>2026-04-18T09:26:01.002Z</time></trkpt><trkpt lat="43.40982754258548" lon="10.937813727179648"><ele>387.0</ele><time>2026-04-18T09:26:03.002Z</time></trkpt><trkpt lat="43.409795521237506" lon="10.93773443936575"><ele>387.0</ele><time>2026-04-18T09:26:04.002Z</time></trkpt><trkpt lat="43.40980104684803" lon="10.937623886124847"><ele>387.0</ele><time>2026-04-18T09:26:05.002Z</time></trkpt><trkpt lat="43.40980669162709" lon="10.937497908609188"><ele>386.20000000000005</ele><time>2026-04-18T09:26:06.002Z</time></trkpt><trkpt lat="43.409799288648486" lon="10.937348059405545"><ele>385.4</ele><time>2026-04-18T09:26:07Z</time></trkpt><trkpt lat="43.40979629357492" lon="10.937174754230126"><ele>384.6</ele><time>2026-04-18T09:26:08Z</time></trkpt><trkpt lat="43.409816352291244" lon="10.937010472319391"><ele>383.79999999999995</ele><time>2026-04-18T09:26:09Z</time></trkpt><trkpt lat="43.40982587793711" lon="10.936888242513167"><ele>383.0</ele><time>2026-04-18T09:26:10Z</time></trkpt><trkpt lat="43.40983690195311" lon="10.936777486507198"><ele>381.83333333333337</ele><time>2026-04-18T09:26:11Z</time></trkpt><trkpt lat="43.40984468555635" lon="10.936665584024054"><ele>380.6666666666667</ele><time>2026-04-18T09:26:12Z</time></trkpt><trkpt lat="43.40983308586975" lon="10.936565598627823"><ele>379.5</ele><time>2026-04-18T09:26:13Z</time></trkpt><trkpt lat="43.40981945326323" lon="10.936458842488303"><ele>378.3333333333333</ele><time>2026-04-18T09:26:14Z</time></trkpt><trkpt lat="43.409778931247125" lon="10.936362583414166"><ele>377.16666666666663</ele><time>2026-04-18T09:26:15Z</time></trkpt><trkpt lat="43.40971405631159" lon="10.936262668679177"><ele>376.0</ele><time>2026-04-18T09:26:16Z</time></trkpt><trkpt lat="43.40961487555999" lon="10.936147624126303"><ele>375.75</ele><time>2026-04-18T09:26:17Z</time></trkpt><trkpt lat="43.4095221818331" lon="10.936024667468706"><ele>375.5</ele><time>2026-04-18T09:26:18Z</time></trkpt><trkpt lat="43.409420608897186" lon="10.935918811614938"><ele>375.25</ele><time>2026-04-18T09:26:19Z</time></trkpt><trkpt lat="43.40932067038697" lon="10.935817969913076"><ele>375.0</ele><time>2026-04-18T09:26:20Z</time></trkpt><trkpt lat="43.40922054113239" lon="10.935734805192924"><ele>374.8</ele><time>2026-04-18T09:26:21Z</time></trkpt><trkpt lat="43.409144853087575" lon="10.935626552374536"><ele>374.6</ele><time>2026-04-18T09:26:22Z</time></trkpt><trkpt lat="43.409050279788005" lon="10.935531467150117"><ele>374.4</ele><time>2026-04-18T09:26:23Z</time></trkpt><trkpt lat="43.40895890391833" lon="10.93544316981816"><ele>374.2</ele><time>2026-04-18T09:26:24Z</time></trkpt><trkpt lat="43.4088707287188" lon="10.93535667590801"><ele>374.0</ele><time>2026-04-18T09:26:25Z</time></trkpt><trkpt lat="43.408829333631935" lon="10.935246868611273"><ele>372.6</ele><time>2026-04-18T09:26:26Z</time></trkpt><trkpt lat="43.408782124458135" lon="10.935145250529663"><ele>371.2</ele><time>2026-04-18T09:26:27Z</time></trkpt><trkpt lat="43.40873974720026" lon="10.935025146174317"><ele>369.8</ele><time>2026-04-18T09:26:28Z</time></trkpt><trkpt lat="43.408700797885196" lon="10.934877194211534"><ele>368.40000000000003</ele><time>2026-04-18T09:26:29Z</time></trkpt><trkpt lat="43.40868349822617" lon="10.934707929921236"><ele>367.0</ele><time>2026-04-18T09:26:30Z</time></trkpt><trkpt lat="43.408673357219726" lon="10.934558810189234"><ele>367.0</ele><time>2026-04-18T09:26:31Z</time></trkpt><trkpt lat="43.40865294959067" lon="10.934341700911272"><ele>367.0</ele><time>2026-04-18T09:26:32Z</time></trkpt><trkpt lat="43.40860968317797" lon="10.93413350916752"><ele>367.0</ele><time>2026-04-18T09:26:33Z</time></trkpt><trkpt lat="43.40859812099763" lon="10.933915120592207"><ele>367.0</ele><time>2026-04-18T09:26:34Z</time></trkpt><trkpt lat="43.40855687018494" lon="10.933695121697072"><ele>367.0</ele><time>2026-04-18T09:26:35Z</time></trkpt><trkpt lat="43.40852643337632" lon="10.933473928501453"><ele>367.0</ele><time>2026-04-18T09:26:36Z</time></trkpt><trkpt lat="43.4085009271867" lon="10.933295000125971"><ele>367.0</ele><time>2026-04-18T09:26:37Z</time></trkpt><trkpt lat="43.40847602876163" lon="10.933141433009832"><ele>367.0</ele><time>2026-04-18T09:26:38Z</time></trkpt><trkpt lat="43.40843810661532" lon="10.93297686065067"><ele>367.0</ele><time>2026-04-18T09:26:39Z</time></trkpt><trkpt lat="43.40837719494673" lon="10.932797209284164"><ele>367.0</ele><time>2026-04-18T09:26:40Z</time></trkpt><trkpt lat="43.408293962667074" lon="10.932639295200907"><ele>366.5</ele><time>2026-04-18T09:26:41Z</time></trkpt><trkpt lat="43.40823217289253" lon="10.932447514030207"><ele>366.0</ele><time>2026-04-18T09:26:42Z</time></trkpt><trkpt lat="43.40817307670887" lon="10.932289525862494"><ele>365.5</ele><time>2026-04-18T09:26:43Z</time></trkpt><trkpt lat="43.408116103473134" lon="10.932137212876418"><ele>365.0</ele><time>2026-04-18T09:26:44Z</time></trkpt><trkpt lat="43.40804917465255" lon="10.931997508896703"><ele>365.0</ele><time>2026-04-18T09:26:45Z</time></trkpt><trkpt lat="43.40801004140235" lon="10.931825620261922"><ele>365.0</ele><time>2026-04-18T09:26:46Z</time></trkpt><trkpt lat="43.407960198922076" lon="10.931670334709953"><ele>365.0</ele><time>2026-04-18T09:26:47.001Z</time></trkpt><trkpt lat="43.407913920566926" lon="10.931547258951294"><ele>365.0</ele><time>2026-04-18T09:26:48.001Z</time></trkpt><trkpt lat="43.40785493764384" lon="10.931417593156592"><ele>365.25</ele><time>2026-04-18T09:26:49.001Z</time></trkpt><trkpt lat="43.407770616133064" lon="10.931285846754058"><ele>365.5</ele><time>2026-04-18T09:26:50.001Z</time></trkpt><trkpt lat="43.407693131629365" lon="10.931147651936975"><ele>365.75</ele><time>2026-04-18T09:26:51.001Z</time></trkpt><trkpt lat="43.40761933674628" lon="10.930999934329089"><ele>366.0</ele><time>2026-04-18T09:26:52.001Z</time></trkpt><trkpt lat="43.407549593823866" lon="10.930857687407801"><ele>367.0</ele><time>2026-04-18T09:26:53.001Z</time></trkpt><trkpt lat="43.4074813593996" lon="10.930720887397326"><ele>368.0</ele><time>2026-04-18T09:26:54.001Z</time></trkpt><trkpt lat="43.40741734905446" lon="10.93060083658533"><ele>369.0</ele><time>2026-04-18T09:26:55.001Z</time></trkpt><trkpt lat="43.40737292096668" lon="10.930500677789167"><ele>370.0</ele><time>2026-04-18T09:26:56.001Z</time></trkpt><trkpt lat="43.40734743191395" lon="10.930409553072245"><ele>371.0</ele><time>2026-04-18T09:26:57.001Z</time></trkpt><trkpt lat="43.4073369772788" lon="10.930306165953587"><ele>371.0</ele><time>2026-04-18T09:26:58.001Z</time></trkpt><trkpt lat="43.407340881244686" lon="10.930115169372627"><ele>371.0</ele><time>2026-04-18T09:26:59.001Z</time></trkpt><trkpt lat="43.40736575057764" lon="10.929907042433928"><ele>371.0</ele><time>2026-04-18T09:27:00.001Z</time></trkpt><trkpt lat="43.40736754111561" lon="10.929708278094978"><ele>371.0</ele><time>2026-04-18T09:27:01.001Z</time></trkpt><trkpt lat="43.40735750728812" lon="10.929475198060787"><ele>371.0</ele><time>2026-04-18T09:27:02.001Z</time></trkpt><trkpt lat="43.40735029193234" lon="10.929247950731176"><ele>371.0</ele><time>2026-04-18T09:27:03.001Z</time></trkpt><trkpt lat="43.407343114341685" lon="10.929063503886377"><ele>371.0</ele><time>2026-04-18T09:27:04.001Z</time></trkpt><trkpt lat="43.407339186895996" lon="10.928897792374949"><ele>371.0</ele><time>2026-04-18T09:27:05.001Z</time></trkpt><trkpt lat="43.40731156015198" lon="10.928738187768216"><ele>370.6</ele><time>2026-04-18T09:27:06.001Z</time></trkpt><trkpt lat="43.4072830918505" lon="10.928585867477267"><ele>370.20000000000005</ele><time>2026-04-18T09:27:07.001Z</time></trkpt><trkpt lat="43.40724480894396" lon="10.92845391533609"><ele>369.79999999999995</ele><time>2026-04-18T09:27:08.001Z</time></trkpt><trkpt lat="43.40720523299646" lon="10.92831890321186"><ele>369.4</ele><time>2026-04-18T09:27:09.001Z</time></trkpt><trkpt lat="43.407101869444965" lon="10.928222797998798"><ele>369.0</ele><time>2026-04-18T09:27:10.001Z</time></trkpt><trkpt lat="43.407000352485134" lon="10.928108156384736"><ele>368.25</ele><time>2026-04-18T09:27:11.001Z</time></trkpt><trkpt lat="43.406894040372244" lon="10.927983437772314"><ele>367.5</ele><time>2026-04-18T09:27:12.001Z</time></trkpt><trkpt lat="43.40679164791197" lon="10.9278553930396"><ele>366.75</ele><time>2026-04-18T09:27:13.001Z</time></trkpt><trkpt lat="43.40670208024919" lon="10.927771813837808"><ele>366.0</ele><time>2026-04-18T09:27:14.001Z</time></trkpt><trkpt lat="43.406643018650556" lon="10.927679095325155"><ele>368.5</ele><time>2026-04-18T09:27:15.001Z</time></trkpt><trkpt lat="43.40661880602047" lon="10.92755206853042"><ele>371.0</ele><time>2026-04-18T09:27:16.001Z</time></trkpt><trkpt lat="43.406585935582065" lon="10.927398669435942"><ele>373.5</ele><time>2026-04-18T09:27:17.001Z</time></trkpt><trkpt lat="43.40654163679207" lon="10.927215840101383"><ele>376.0</ele><time>2026-04-18T09:27:18.001Z</time></trkpt><trkpt lat="43.406470146401105" lon="10.9270332082535"><ele>376.0</ele><time>2026-04-18T09:27:19.001Z</time></trkpt><trkpt lat="43.40640217148835" lon="10.926863107929565"><ele>376.0</ele><time>2026-04-18T09:27:20.001Z</time></trkpt><trkpt lat="43.406335784560675" lon="10.926720920902131"><ele>376.0</ele><time>2026-04-18T09:27:21.001Z</time></trkpt><trkpt lat="43.406254128019036" lon="10.926594682204437"><ele>376.0</ele><time>2026-04-18T09:27:22.001Z</time></trkpt><trkpt lat="43.40614756993528" lon="10.92647271176198"><ele>376.5</ele><time>2026-04-18T09:27:23.001Z</time></trkpt><trkpt lat="43.40605005411744" lon="10.926343456141515"><ele>377.0</ele><time>2026-04-18T09:27:24.001Z</time></trkpt><trkpt lat="43.40595586779673" lon="10.926234561480195"><ele>377.5</ele><time>2026-04-18T09:27:25.001Z</time></trkpt><trkpt lat="43.4058747572299" lon="10.926133375295452"><ele>378.0</ele><time>2026-04-18T09:27:26.001Z</time></trkpt><trkpt lat="43.4058096943003" lon="10.926051679182363"><ele>378.0</ele><time>2026-04-18T09:27:27.001Z</time></trkpt><trkpt lat="43.40575322018444" lon="10.925978084582843"><ele>378.0</ele><time>2026-04-18T09:27:28.002Z</time></trkpt><trkpt lat="43.405682909000795" lon="10.925891419615633"><ele>378.0</ele><time>2026-04-18T09:27:29.002Z</time></trkpt><trkpt lat="43.40561098259954" lon="10.925800858695002"><ele>378.0</ele><time>2026-04-18T09:27:30.002Z</time></trkpt><trkpt lat="43.40555176645571" lon="10.925684645377954"><ele>378.0</ele><time>2026-04-18T09:27:31.002Z</time></trkpt><trkpt lat="43.40547236072528" lon="10.925571373760198"><ele>377.25</ele><time>2026-04-18T09:27:32.002Z</time></trkpt><trkpt lat="43.40538659421952" lon="10.925447781282696"><ele>376.5</ele><time>2026-04-18T09:27:33.002Z</time></trkpt><trkpt lat="43.40527686499675" lon="10.925307534375742"><ele>375.75</ele><time>2026-04-18T09:27:34.002Z</time></trkpt><trkpt lat="43.40513412197936" lon="10.925189197146684"><ele>375.0</ele><time>2026-04-18T09:27:35.002Z</time></trkpt><trkpt lat="43.40500008054641" lon="10.9250718960819"><ele>375.3333333333333</ele><time>2026-04-18T09:27:36.002Z</time></trkpt><trkpt lat="43.40488336332933" lon="10.924945566491093"><ele>375.66666666666663</ele><time>2026-04-18T09:27:37.002Z</time></trkpt><trkpt lat="43.40474828718925" lon="10.924824215819271"><ele>376.0</ele><time>2026-04-18T09:27:38.002Z</time></trkpt><trkpt lat="43.404602282837594" lon="10.924688819566805"><ele>376.0</ele><time>2026-04-18T09:27:39.002Z</time></trkpt><trkpt lat="43.40444534768624" lon="10.924539166996473"><ele>376.0</ele><time>2026-04-18T09:27:40.002Z</time></trkpt><trkpt lat="43.40428669009023" lon="10.92437865337798"><ele>376.0</ele><time>2026-04-18T09:27:41.002Z</time></trkpt><trkpt lat="43.40415299062878" lon="10.924232413372607"><ele>375.25</ele><time>2026-04-18T09:27:42.002Z</time></trkpt><trkpt lat="43.40403463523076" lon="10.924099016942263"><ele>374.5</ele><time>2026-04-18T09:27:43.002Z</time></trkpt><trkpt lat="43.403923612771614" lon="10.923969328075076"><ele>373.75</ele><time>2026-04-18T09:27:44.002Z</time></trkpt><trkpt lat="43.403828613492294" lon="10.923847883438478"><ele>373.0</ele><time>2026-04-18T09:27:45.002Z</time></trkpt><trkpt lat="43.40373603892453" lon="10.923718529456421"><ele>373.0</ele><time>2026-04-18T09:27:46.002Z</time></trkpt><trkpt lat="43.40364524777075" lon="10.923575908499474"><ele>373.0</ele><time>2026-04-18T09:27:47.002Z</time></trkpt><trkpt lat="43.40358325664251" lon="10.923426038351753"><ele>373.0</ele><time>2026-04-18T09:27:48.002Z</time></trkpt><trkpt lat="43.40354929380327" lon="10.923267580900264"><ele>373.0</ele><time>2026-04-18T09:27:49.002Z</time></trkpt><trkpt lat="43.40350709663158" lon="10.923085608498866"><ele>374.0</ele><time>2026-04-18T09:27:50.002Z</time></trkpt><trkpt lat="43.40345867385634" lon="10.922885184943953"><ele>375.0</ele><time>2026-04-18T09:27:51.002Z</time></trkpt><trkpt lat="43.40339424055325" lon="10.92267208728416"><ele>376.0</ele><time>2026-04-18T09:27:52.002Z</time></trkpt><trkpt lat="43.40333073341182" lon="10.922461887062354"><ele>376.0</ele><time>2026-04-18T09:27:53.002Z</time></trkpt><trkpt lat="43.40327666083966" lon="10.92226765770985"><ele>376.0</ele><time>2026-04-18T09:27:54.002Z</time></trkpt><trkpt lat="43.40322812991788" lon="10.922081895762027"><ele>376.0</ele><time>2026-04-18T09:27:55.002Z</time></trkpt><trkpt lat="43.40318738800646" lon="10.921908597568684"><ele>376.0</ele><time>2026-04-18T09:27:56.002Z</time></trkpt><trkpt lat="43.403153206190574" lon="10.921756542818857"><ele>375.20000000000005</ele><time>2026-04-18T09:27:57.002Z</time></trkpt><trkpt lat="43.40312205948064" lon="10.921613423417158"><ele>374.40000000000003</ele><time>2026-04-18T09:27:58.002Z</time></trkpt><trkpt lat="43.40309473562759" lon="10.921486038292928"><ele>373.6</ele><time>2026-04-18T09:27:59.002Z</time></trkpt><trkpt lat="43.40307600837125" lon="10.92134779212982"><ele>372.8</ele><time>2026-04-18T09:28:00.002Z</time></trkpt><trkpt lat="43.40307525057478" lon="10.92120656645764"><ele>372.0</ele><time>2026-04-18T09:28:01.002Z</time></trkpt><trkpt lat="43.40309584341881" lon="10.92105765687331"><ele>371.0</ele><time>2026-04-18T09:28:02.002Z</time></trkpt><trkpt lat="43.40311785037137" lon="10.920877334906784"><ele>370.0</ele><time>2026-04-18T09:28:03.002Z</time></trkpt><trkpt lat="43.40320251118331" lon="10.920718791194625"><ele>369.0</ele><time>2026-04-18T09:28:04.002Z</time></trkpt><trkpt lat="43.403284185180944" lon="10.920524681723212"><ele>368.0</ele><time>2026-04-18T09:28:05.002Z</time></trkpt><trkpt lat="43.40334947630353" lon="10.920359892991438"><ele>368.0</ele><time>2026-04-18T09:28:06.002Z</time></trkpt><trkpt lat="43.40341241212606" lon="10.920193768641942"><ele>368.0</ele><time>2026-04-18T09:28:07.002Z</time></trkpt><trkpt lat="43.40346826497429" lon="10.920034885981934"><ele>368.0</ele><time>2026-04-18T09:28:08.002Z</time></trkpt><trkpt lat="43.40351239991562" lon="10.919848374001496"><ele>368.0</ele><time>2026-04-18T09:28:09.002Z</time></trkpt><trkpt lat="43.40357056087886" lon="10.9196616372486"><ele>367.33333333333337</ele><time>2026-04-18T09:28:10.003Z</time></trkpt><trkpt lat="43.40362730957057" lon="10.919467570161368"><ele>366.6666666666667</ele><time>2026-04-18T09:28:11.003Z</time></trkpt><trkpt lat="43.40367759800018" lon="10.919250196728953"><ele>366.0</ele><time>2026-04-18T09:28:12.003Z</time></trkpt><trkpt lat="43.403718203485546" lon="10.919049212637061"><ele>365.0</ele><time>2026-04-18T09:28:13Z</time></trkpt><trkpt lat="43.403751226908796" lon="10.918866838937342"><ele>364.0</ele><time>2026-04-18T09:28:14Z</time></trkpt><trkpt lat="43.403767709348614" lon="10.91870990039367"><ele>363.0</ele><time>2026-04-18T09:28:15Z</time></trkpt><trkpt lat="43.403771864603605" lon="10.918569950989532"><ele>362.0</ele><time>2026-04-18T09:28:16Z</time></trkpt><trkpt lat="43.40377360866412" lon="10.918424033835658"><ele>360.5</ele><time>2026-04-18T09:28:17Z</time></trkpt><trkpt lat="43.40372980944351" lon="10.918275396732637"><ele>359.0</ele><time>2026-04-18T09:28:18Z</time></trkpt><trkpt lat="43.40368750922954" lon="10.918139237743222"><ele>357.5</ele><time>2026-04-18T09:28:19Z</time></trkpt><trkpt lat="43.403634000866965" lon="10.917997757633525"><ele>356.0</ele><time>2026-04-18T09:28:20Z</time></trkpt><trkpt lat="43.40354700431107" lon="10.917848090498348"><ele>356.0</ele><time>2026-04-18T09:28:21Z</time></trkpt><trkpt lat="43.40347478844687" lon="10.917706997360192"><ele>356.0</ele><time>2026-04-18T09:28:22Z</time></trkpt><trkpt lat="43.4034242454663" lon="10.917577854805462"><ele>356.0</ele><time>2026-04-18T09:28:23Z</time></trkpt><trkpt lat="43.40338826545037" lon="10.917446652732137"><ele>356.0</ele><time>2026-04-18T09:28:24Z</time></trkpt><trkpt lat="43.403361500030464" lon="10.917282700788421"><ele>354.6</ele><time>2026-04-18T09:28:25Z</time></trkpt><trkpt lat="43.40334087276152" lon="10.91712119832536"><ele>353.20000000000005</ele><time>2026-04-18T09:28:26Z</time></trkpt><trkpt lat="43.40330096981247" lon="10.91699979664366"><ele>351.79999999999995</ele><time>2026-04-18T09:28:27Z</time></trkpt><trkpt lat="43.403268932087194" lon="10.916887208177744"><ele>350.4</ele><time>2026-04-18T09:28:28Z</time></trkpt><trkpt lat="43.403208329108324" lon="10.916768259113494"><ele>349.0</ele><time>2026-04-18T09:28:29Z</time></trkpt><trkpt lat="43.40313653544095" lon="10.916666919336771"><ele>348.75</ele><time>2026-04-18T09:28:30Z</time></trkpt><trkpt lat="43.40304805339057" lon="10.916558906672526"><ele>348.5</ele><time>2026-04-18T09:28:31Z</time></trkpt><trkpt lat="43.40295136843841" lon="10.916440374116819"><ele>348.25</ele><time>2026-04-18T09:28:32Z</time></trkpt><trkpt lat="43.40284437234314" lon="10.916292369938102"><ele>348.0</ele><time>2026-04-18T09:28:33Z</time></trkpt><trkpt lat="43.402724723991994" lon="10.916165981941027"><ele>348.0</ele><time>2026-04-18T09:28:34Z</time></trkpt><trkpt lat="43.402616448608946" lon="10.916058207017464"><ele>348.0</ele><time>2026-04-18T09:28:35Z</time></trkpt><trkpt lat="43.40249563302385" lon="10.915965642239069"><ele>348.0</ele><time>2026-04-18T09:28:36Z</time></trkpt><trkpt lat="43.402410307097064" lon="10.915861851762106"><ele>348.0</ele><time>2026-04-18T09:28:37Z</time></trkpt><trkpt lat="43.40233446165414" lon="10.915793037607019"><ele>346.0</ele><time>2026-04-18T09:28:38Z</time></trkpt><trkpt lat="43.40226885882068" lon="10.91573092477505"><ele>344.0</ele><time>2026-04-18T09:28:39Z</time></trkpt><trkpt lat="43.40219915795548" lon="10.915637877011983"><ele>342.0</ele><time>2026-04-18T09:28:41Z</time></trkpt><trkpt lat="43.40223847217327" lon="10.915500020660385"><ele>340.0</ele><time>2026-04-18T09:28:44Z</time></trkpt><trkpt lat="43.402332343756456" lon="10.915498991704666"><ele>338.0</ele><time>2026-04-18T09:28:45Z</time></trkpt><trkpt lat="43.40244065036789" lon="10.91544769045832"><ele>338.0</ele><time>2026-04-18T09:28:46Z</time></trkpt><trkpt lat="43.40253354074613" lon="10.91537432292602"><ele>338.0</ele><time>2026-04-18T09:28:47Z</time></trkpt><trkpt lat="43.40261615196641" lon="10.915312094884712"><ele>338.0</ele><time>2026-04-18T09:28:48Z</time></trkpt><trkpt lat="43.402697893044994" lon="10.91524407164628"><ele>338.0</ele><time>2026-04-18T09:28:49Z</time></trkpt><trkpt lat="43.40274644262343" lon="10.915081987685124"><ele>338.0</ele><time>2026-04-18T09:28:50Z</time></trkpt><trkpt lat="43.40278623675515" lon="10.914898604053946"><ele>334.6666666666667</ele><time>2026-04-18T09:28:51.001Z</time></trkpt><trkpt lat="43.40284795159346" lon="10.914685065483003"><ele>331.3333333333333</ele><time>2026-04-18T09:28:52.001Z</time></trkpt><trkpt lat="43.402897512790744" lon="10.914448915228242"><ele>328.0</ele><time>2026-04-18T09:28:53.001Z</time></trkpt><trkpt lat="43.40294352586578" lon="10.9141982786961"><ele>326.0</ele><time>2026-04-18T09:28:54.001Z</time></trkpt><trkpt lat="43.40298174553533" lon="10.913951788857148"><ele>324.0</ele><time>2026-04-18T09:28:55.001Z</time></trkpt><trkpt lat="43.40301033069974" lon="10.913710979181303"><ele>322.0</ele><time>2026-04-18T09:28:56.001Z</time></trkpt><trkpt lat="43.40302898452999" lon="10.91346663752673"><ele>321.3333333333333</ele><time>2026-04-18T09:28:57.001Z</time></trkpt><trkpt lat="43.403030973995406" lon="10.9132206039742"><ele>320.6666666666667</ele><time>2026-04-18T09:28:58.001Z</time></trkpt><trkpt lat="43.40301212782111" lon="10.912975813305092"><ele>320.0</ele><time>2026-04-18T09:28:59.001Z</time></trkpt><trkpt lat="43.40298792260217" lon="10.912715228955891"><ele>321.0</ele><time>2026-04-18T09:29:00.001Z</time></trkpt><trkpt lat="43.40295646923859" lon="10.91245203727571"><ele>322.0</ele><time>2026-04-18T09:29:01.001Z</time></trkpt><trkpt lat="43.40292542475698" lon="10.912180540029516"><ele>323.0</ele><time>2026-04-18T09:29:02.001Z</time></trkpt><trkpt lat="43.402893843138514" lon="10.911904345535762"><ele>325.0</ele><time>2026-04-18T09:29:03.001Z</time></trkpt><trkpt lat="43.4028639429313" lon="10.911642994620253"><ele>327.0</ele><time>2026-04-18T09:29:04.001Z</time></trkpt><trkpt lat="43.40283486041051" lon="10.911395363225406"><ele>329.0</ele><time>2026-04-18T09:29:05.001Z</time></trkpt><trkpt lat="43.40280575891346" lon="10.911149433718"><ele>329.0</ele><time>2026-04-18T09:29:06.001Z</time></trkpt><trkpt lat="43.40277405987795" lon="10.910928339218009"><ele>329.0</ele><time>2026-04-18T09:29:07.001Z</time></trkpt><trkpt lat="43.40273764096965" lon="10.910715167682778"><ele>329.0</ele><time>2026-04-18T09:29:08.001Z</time></trkpt><trkpt lat="43.40268443158367" lon="10.910535773284414"><ele>331.0</ele><time>2026-04-18T09:29:09.001Z</time></trkpt><trkpt lat="43.402594979988905" lon="10.910362607309644"><ele>333.0</ele><time>2026-04-18T09:29:10.001Z</time></trkpt><trkpt lat="43.4025368693468" lon="10.910178498842015"><ele>335.0</ele><time>2026-04-18T09:29:11.001Z</time></trkpt><trkpt lat="43.402466630171915" lon="10.909992186310397"><ele>337.6666666666667</ele><time>2026-04-18T09:29:12.001Z</time></trkpt><trkpt lat="43.402394829631554" lon="10.909800524629075"><ele>340.3333333333333</ele><time>2026-04-18T09:29:13.001Z</time></trkpt><trkpt lat="43.402318915150154" lon="10.909597574277218"><ele>343.0</ele><time>2026-04-18T09:29:14.001Z</time></trkpt><trkpt lat="43.40224360548032" lon="10.909395637472077"><ele>343.75</ele><time>2026-04-18T09:29:15.001Z</time></trkpt><trkpt lat="43.40217006533033" lon="10.909192167432858"><ele>344.5</ele><time>2026-04-18T09:29:16.001Z</time></trkpt><trkpt lat="43.40210395513853" lon="10.909014440412212"><ele>345.25</ele><time>2026-04-18T09:29:17.001Z</time></trkpt><trkpt lat="43.40204317863136" lon="10.90885437297122"><ele>346.0</ele><time>2026-04-18T09:29:18.001Z</time></trkpt><trkpt lat="43.40198876669202" lon="10.9087156905327"><ele>346.0</ele><time>2026-04-18T09:29:19.001Z</time></trkpt><trkpt lat="43.401919998613295" lon="10.908605657427973"><ele>346.0</ele><time>2026-04-18T09:29:20.001Z</time></trkpt><trkpt lat="43.401866754534986" lon="10.908524310979459"><ele>346.0</ele><time>2026-04-18T09:29:21.001Z</time></trkpt><trkpt lat="43.40173907905807" lon="10.908488978063183"><ele>346.0</ele><time>2026-04-18T09:29:23.001Z</time></trkpt><trkpt lat="43.40164128540272" lon="10.9084925867679"><ele>346.0</ele><time>2026-04-18T09:29:24.001Z</time></trkpt><trkpt lat="43.40150634191418" lon="10.908513058180226"><ele>346.0</ele><time>2026-04-18T09:29:25.001Z</time></trkpt><trkpt lat="43.40134293335323" lon="10.908524626065496"><ele>346.0</ele><time>2026-04-18T09:29:26.001Z</time></trkpt><trkpt lat="43.40117487595184" lon="10.908537776538466"><ele>346.0</ele><time>2026-04-18T09:29:27.001Z</time></trkpt><trkpt lat="43.400995043693776" lon="10.908548954286045"><ele>346.0</ele><time>2026-04-18T09:29:28.001Z</time></trkpt><trkpt lat="43.40083063969652" lon="10.90858983605413"><ele>346.0</ele><time>2026-04-18T09:29:29.001Z</time></trkpt><trkpt lat="43.400698267044405" lon="10.908594374273264"><ele>346.0</ele><time>2026-04-18T09:29:30.001Z</time></trkpt><trkpt lat="43.40057207641538" lon="10.908593540411127"><ele>346.0</ele><time>2026-04-18T09:29:31.001Z</time></trkpt><trkpt lat="43.400472232673934" lon="10.908631793804604"><ele>346.3333333333333</ele><time>2026-04-18T09:29:32.002Z</time></trkpt><trkpt lat="43.400381875629535" lon="10.908633615811784"><ele>346.66666666666663</ele><time>2026-04-18T09:29:33.002Z</time></trkpt><trkpt lat="43.4003042698192" lon="10.908648251716944"><ele>347.0</ele><time>2026-04-18T09:29:34.002Z</time></trkpt><trkpt lat="43.400235579637204" lon="10.90861956512238"><ele>347.3333333333333</ele><time>2026-04-18T09:29:35.002Z</time></trkpt><trkpt lat="43.400155925918455" lon="10.908533786000893"><ele>347.6666666666667</ele><time>2026-04-18T09:29:37.002Z</time></trkpt><trkpt lat="43.400163174551956" lon="10.90844707099049"><ele>348.0</ele><time>2026-04-18T09:29:38.002Z</time></trkpt><trkpt lat="43.40013430892049" lon="10.908340468881633"><ele>348.59999999999997</ele><time>2026-04-18T09:29:39.002Z</time></trkpt><trkpt lat="43.400099825589294" lon="10.908238990005481"><ele>349.2</ele><time>2026-04-18T09:29:40.002Z</time></trkpt><trkpt lat="43.40004023860249" lon="10.908145831882955"><ele>349.8</ele><time>2026-04-18T09:29:41.002Z</time></trkpt><trkpt lat="43.39998669922791" lon="10.908045825503198"><ele>350.4</ele><time>2026-04-18T09:29:42.002Z</time></trkpt><trkpt lat="43.3999515182947" lon="10.907919719456059"><ele>351.0</ele><time>2026-04-18T09:29:43.002Z</time></trkpt><trkpt lat="43.39996195189074" lon="10.907778439505423"><ele>351.0</ele><time>2026-04-18T09:29:44.002Z</time></trkpt><trkpt lat="43.40000478790658" lon="10.907658149627755"><ele>351.0</ele><time>2026-04-18T09:29:45.002Z</time></trkpt><trkpt lat="43.4000345298837" lon="10.90750193170019"><ele>351.0</ele><time>2026-04-18T09:29:46.002Z</time></trkpt><trkpt lat="43.40007829635086" lon="10.90730054985761"><ele>351.0</ele><time>2026-04-18T09:29:47.002Z</time></trkpt><trkpt lat="43.40012821403822" lon="10.907088110688976"><ele>349.25</ele><time>2026-04-18T09:29:48.002Z</time></trkpt><trkpt lat="43.40017742824675" lon="10.90689916920469"><ele>347.5</ele><time>2026-04-18T09:29:49.002Z</time></trkpt><trkpt lat="43.400205377128" lon="10.906738733009561"><ele>345.75</ele><time>2026-04-18T09:29:50.002Z</time></trkpt><trkpt lat="43.400231892922825" lon="10.906598393391773"><ele>344.0</ele><time>2026-04-18T09:29:51.002Z</time></trkpt><trkpt lat="43.400255422852254" lon="10.90645996240065"><ele>343.4</ele><time>2026-04-18T09:29:52.002Z</time></trkpt><trkpt lat="43.40026602337497" lon="10.906320238576019"><ele>342.79999999999995</ele><time>2026-04-18T09:29:53.002Z</time></trkpt><trkpt lat="43.400254905918395" lon="10.906170473057866"><ele>342.20000000000005</ele><time>2026-04-18T09:29:54.002Z</time></trkpt><trkpt lat="43.400220447798105" lon="10.90603881000512"><ele>341.6</ele><time>2026-04-18T09:29:55.002Z</time></trkpt><trkpt lat="43.400187587435774" lon="10.905881095361991"><ele>341.0</ele><time>2026-04-18T09:29:56.002Z</time></trkpt><trkpt lat="43.400107389963345" lon="10.905711101173901"><ele>341.0</ele><time>2026-04-18T09:29:57.002Z</time></trkpt><trkpt lat="43.40000580381024" lon="10.905550082864153"><ele>341.0</ele><time>2026-04-18T09:29:58.002Z</time></trkpt><trkpt lat="43.39993850928885" lon="10.90538929804362"><ele>341.0</ele><time>2026-04-18T09:29:59.002Z</time></trkpt><trkpt lat="43.399884593624705" lon="10.90524677546378"><ele>341.0</ele><time>2026-04-18T09:30:00.002Z</time></trkpt><trkpt lat="43.39984415751794" lon="10.90511516477892"><ele>342.5</ele><time>2026-04-18T09:30:01.002Z</time></trkpt><trkpt lat="43.399820150341476" lon="10.905021008249838"><ele>344.0</ele><time>2026-04-18T09:30:02.002Z</time></trkpt><trkpt lat="43.39977739130132" lon="10.904909767893574"><ele>345.5</ele><time>2026-04-18T09:30:04.002Z</time></trkpt><trkpt lat="43.39970841110714" lon="10.904919607093651"><ele>347.0</ele><time>2026-04-18T09:30:06.002Z</time></trkpt><trkpt lat="43.399628003329624" lon="10.905059708070548"><ele>348.5</ele><time>2026-04-18T09:30:08.002Z</time></trkpt><trkpt lat="43.39962085563174" lon="10.905165376073311"><ele>350.0</ele><time>2026-04-18T09:30:09.002Z</time></trkpt><trkpt lat="43.399660200482316" lon="10.905286572969983"><ele>348.5</ele><time>2026-04-18T09:30:10.002Z</time></trkpt><trkpt lat="43.39968359185854" lon="10.905397911049956"><ele>347.0</ele><time>2026-04-18T09:30:11.002Z</time></trkpt><trkpt lat="43.399703120241135" lon="10.905484382559239"><ele>345.5</ele><time>2026-04-18T09:30:12.002Z</time></trkpt><trkpt lat="43.399719673473285" lon="10.905580493453064"><ele>344.0</ele><time>2026-04-18T09:30:14.003Z</time></trkpt><trkpt lat="43.399618712123626" lon="10.905597127632436"><ele>342.5</ele><time>2026-04-18T09:30:16.003Z</time></trkpt><trkpt lat="43.39954868561164" lon="10.905555514985947"><ele>341.0</ele><time>2026-04-18T09:30:17.003Z</time></trkpt><trkpt lat="43.399483802148694" lon="10.90547148165408"><ele>336.0</ele><time>2026-04-18T09:30:18.003Z</time></trkpt><trkpt lat="43.39942720693367" lon="10.905355293991875"><ele>331.0</ele><time>2026-04-18T09:30:19Z</time></trkpt><trkpt lat="43.39940676954662" lon="10.905194338061076"><ele>326.0</ele><time>2026-04-18T09:30:19.999Z</time></trkpt><trkpt lat="43.39935652150505" lon="10.905051921633879"><ele>321.0</ele><time>2026-04-18T09:30:21Z</time></trkpt><trkpt lat="43.39932694832732" lon="10.90493701642295"><ele>316.0</ele><time>2026-04-18T09:30:22Z</time></trkpt><trkpt lat="43.3992944987019" lon="10.904848324417209"><ele>316.0</ele><time>2026-04-18T09:30:23Z</time></trkpt><trkpt lat="43.39926579533479" lon="10.904770931413742"><ele>316.0</ele><time>2026-04-18T09:30:24Z</time></trkpt><trkpt lat="43.399276481784" lon="10.90459338036268"><ele>316.0</ele><time>2026-04-18T09:30:26Z</time></trkpt><trkpt lat="43.39933639343085" lon="10.904507011274678"><ele>316.0</ele><time>2026-04-18T09:30:27Z</time></trkpt><trkpt lat="43.39941284047068" lon="10.904438832082029"><ele>316.0</ele><time>2026-04-18T09:30:28Z</time></trkpt><trkpt lat="43.39949721024221" lon="10.904326578138503"><ele>315.16666666666663</ele><time>2026-04-18T09:30:29Z</time></trkpt><trkpt lat="43.399545130601624" lon="10.904224627698982"><ele>314.3333333333333</ele><time>2026-04-18T09:30:30Z</time></trkpt><trkpt lat="43.399569355785765" lon="10.904135971470842"><ele>313.5</ele><time>2026-04-18T09:30:31Z</time></trkpt><trkpt lat="43.39952669667577" lon="10.90401831614526"><ele>312.6666666666667</ele><time>2026-04-18T09:30:33Z</time></trkpt><trkpt lat="43.39943872640117" lon="10.903985176943166"><ele>311.83333333333337</ele><time>2026-04-18T09:30:35Z</time></trkpt><trkpt lat="43.399375459994026" lon="10.904015332066916"><ele>311.0</ele><time>2026-04-18T09:30:36Z</time></trkpt><trkpt lat="43.399305228348176" lon="10.904085159684906"><ele>311.0</ele><time>2026-04-18T09:30:37Z</time></trkpt><trkpt lat="43.399210099868576" lon="10.904192072104289"><ele>311.0</ele><time>2026-04-18T09:30:38Z</time></trkpt><trkpt lat="43.399114738415165" lon="10.904310247276701"><ele>311.0</ele><time>2026-04-18T09:30:39Z</time></trkpt><trkpt lat="43.39903271526932" lon="10.904407748951927"><ele>311.0</ele><time>2026-04-18T09:30:40Z</time></trkpt><trkpt lat="43.398979243226" lon="10.904499752257047"><ele>311.0</ele><time>2026-04-18T09:30:41Z</time></trkpt><trkpt lat="43.398941619495524" lon="10.90460190226209"><ele>312.25</ele><time>2026-04-18T09:30:42Z</time></trkpt><trkpt lat="43.39889820810508" lon="10.904744738671864"><ele>313.5</ele><time>2026-04-18T09:30:43Z</time></trkpt><trkpt lat="43.39884647239511" lon="10.904932773831117"><ele>314.75</ele><time>2026-04-18T09:30:44Z</time></trkpt><trkpt lat="43.3987611445999" lon="10.90511424825662"><ele>316.0</ele><time>2026-04-18T09:30:45Z</time></trkpt><trkpt lat="43.39868789152198" lon="10.905276868612358"><ele>312.2</ele><time>2026-04-18T09:30:46Z</time></trkpt><trkpt lat="43.39862956122554" lon="10.905412473556588"><ele>308.40000000000003</ele><time>2026-04-18T09:30:47Z</time></trkpt><trkpt lat="43.39858095588042" lon="10.90552547043267"><ele>304.6</ele><time>2026-04-18T09:30:48Z</time></trkpt><trkpt lat="43.39854313971413" lon="10.905609644767246"><ele>300.8</ele><time>2026-04-18T09:30:49Z</time></trkpt><trkpt lat="43.398460067729296" lon="10.905706223842545"><ele>297.0</ele><time>2026-04-18T09:30:51Z</time></trkpt><trkpt lat="43.3983844420971" lon="10.905689826956202"><ele>297.0</ele><time>2026-04-18T09:30:52Z</time></trkpt><trkpt lat="43.39831837002548" lon="10.905615595464802"><ele>297.0</ele><time>2026-04-18T09:30:53Z</time></trkpt><trkpt lat="43.39828470597838" lon="10.905485309016811"><ele>297.0</ele><time>2026-04-18T09:30:54Z</time></trkpt><trkpt lat="43.39825504702271" lon="10.905334016231066"><ele>297.0</ele><time>2026-04-18T09:30:55Z</time></trkpt><trkpt lat="43.39822140710883" lon="10.90515454603318"><ele>297.0</ele><time>2026-04-18T09:30:56Z</time></trkpt><trkpt lat="43.398192903241224" lon="10.904987422754088"><ele>296.4</ele><time>2026-04-18T09:30:57Z</time></trkpt><trkpt lat="43.398171219881235" lon="10.904854166285423"><ele>295.79999999999995</ele><time>2026-04-18T09:30:58Z</time></trkpt><trkpt lat="43.398159018453306" lon="10.904751247053303"><ele>295.2</ele><time>2026-04-18T09:30:59Z</time></trkpt><trkpt lat="43.39818186278386" lon="10.904642783024771"><ele>294.59999999999997</ele><time>2026-04-18T09:31:00Z</time></trkpt><trkpt lat="43.39823095495743" lon="10.90449388452396"><ele>294.0</ele><time>2026-04-18T09:31:01Z</time></trkpt><trkpt lat="43.39827805910033" lon="10.904328857992356"><ele>293.2</ele><time>2026-04-18T09:31:02.001Z</time></trkpt><trkpt lat="43.39831017568604" lon="10.904214536539829"><ele>292.4</ele><time>2026-04-18T09:31:03.001Z</time></trkpt><trkpt lat="43.3983119716377" lon="10.904086085916541"><ele>291.6</ele><time>2026-04-18T09:31:05.001Z</time></trkpt><trkpt lat="43.398235887968966" lon="10.904070603854857"><ele>290.8</ele><time>2026-04-18T09:31:08.001Z</time></trkpt><trkpt lat="43.39816230110648" lon="10.904070248686336"><ele>290.0</ele><time>2026-04-18T09:31:10.001Z</time></trkpt><trkpt lat="43.39804586650591" lon="10.904048360178804"><ele>285.6666666666667</ele><time>2026-04-18T09:31:12.001Z</time></trkpt><trkpt lat="43.39794225212467" lon="10.904383453054045"><ele>281.3333333333333</ele><time>2026-04-18T09:31:13.001Z</time></trkpt><trkpt lat="43.39788801717028" lon="10.904513661935098"><ele>277.0</ele><time>2026-04-18T09:31:14.001Z</time></trkpt><trkpt lat="43.39782719639475" lon="10.904660825676332"><ele>277.0</ele><time>2026-04-18T09:31:15.001Z</time></trkpt><trkpt lat="43.39776008878078" lon="10.904848453795523"><ele>277.0</ele><time>2026-04-18T09:31:16.001Z</time></trkpt><trkpt lat="43.39769203373308" lon="10.90503383047241"><ele>277.0</ele><time>2026-04-18T09:31:17.001Z</time></trkpt><trkpt lat="43.39762818327056" lon="10.905202000595095"><ele>277.0</ele><time>2026-04-18T09:31:18.001Z</time></trkpt><trkpt lat="43.39757140475917" lon="10.905360989785605"><ele>277.16666666666663</ele><time>2026-04-18T09:31:19.001Z</time></trkpt><trkpt lat="43.39750974462324" lon="10.905496156512147"><ele>277.3333333333333</ele><time>2026-04-18T09:31:20.001Z</time></trkpt><trkpt lat="43.397458588522206" lon="10.90561685354169"><ele>277.5</ele><time>2026-04-18T09:31:21.001Z</time></trkpt><trkpt lat="43.3974194413446" lon="10.905732616210406"><ele>277.6666666666667</ele><time>2026-04-18T09:31:22.001Z</time></trkpt><trkpt lat="43.39740152689824" lon="10.905828525622995"><ele>277.83333333333337</ele><time>2026-04-18T09:31:23.001Z</time></trkpt><trkpt lat="43.3973850146802" lon="10.905912238381093"><ele>278.0</ele><time>2026-04-18T09:31:24.001Z</time></trkpt><trkpt lat="43.39731922221655" lon="10.905943587864384"><ele>278.5</ele><time>2026-04-18T09:31:26.001Z</time></trkpt><trkpt lat="43.39721682166839" lon="10.905841316164734"><ele>279.0</ele><time>2026-04-18T09:31:28.001Z</time></trkpt><trkpt lat="43.39716722420422" lon="10.905720978713578"><ele>279.5</ele><time>2026-04-18T09:31:29.001Z</time></trkpt><trkpt lat="43.39711124540693" lon="10.90557981641319"><ele>280.0</ele><time>2026-04-18T09:31:30.001Z</time></trkpt><trkpt lat="43.3970638621279" lon="10.90544452415378"><ele>277.3333333333333</ele><time>2026-04-18T09:31:31.001Z</time></trkpt><trkpt lat="43.39703791088225" lon="10.905325080667792"><ele>274.66666666666663</ele><time>2026-04-18T09:31:32.001Z</time></trkpt><trkpt lat="43.39698425595345" lon="10.905223313845061"><ele>272.0</ele><time>2026-04-18T09:31:34.001Z</time></trkpt><trkpt lat="43.3969066100345" lon="10.905204576645534"><ele>269.3333333333333</ele><time>2026-04-18T09:31:36.001Z</time></trkpt><trkpt lat="43.39683309924747" lon="10.905310921331537"><ele>266.6666666666667</ele><time>2026-04-18T09:31:38.001Z</time></trkpt><trkpt lat="43.396797511050096" lon="10.905405337428025"><ele>264.0</ele><time>2026-04-18T09:31:39.001Z</time></trkpt><trkpt lat="43.39675362149318" lon="10.905523208167942"><ele>264.0</ele><time>2026-04-18T09:31:40.002Z</time></trkpt><trkpt lat="43.3966998347174" lon="10.90564727387376"><ele>264.0</ele><time>2026-04-18T09:31:41.002Z</time></trkpt><trkpt lat="43.39664619501643" lon="10.905732020761445"><ele>264.0</ele><time>2026-04-18T09:31:42.002Z</time></trkpt><trkpt lat="43.39651245823703" lon="10.905775014625071"><ele>264.0</ele><time>2026-04-18T09:31:44.002Z</time></trkpt><trkpt lat="43.396434060336546" lon="10.90573171823315"><ele>264.0</ele><time>2026-04-18T09:31:45.002Z</time></trkpt><trkpt lat="43.39638581513069" lon="10.905659218928484"><ele>264.0</ele><time>2026-04-18T09:31:46.002Z</time></trkpt><trkpt lat="43.39635577177029" lon="10.905571864624584"><ele>264.0</ele><time>2026-04-18T09:31:47.002Z</time></trkpt><trkpt lat="43.396356956016284" lon="10.90544958316605"><ele>264.0</ele><time>2026-04-18T09:31:48.002Z</time></trkpt><trkpt lat="43.3963924832827" lon="10.90532074622101"><ele>264.0</ele><time>2026-04-18T09:31:49.002Z</time></trkpt><trkpt lat="43.396428634921804" lon="10.905170758807884"><ele>264.0</ele><time>2026-04-18T09:31:50.002Z</time></trkpt><trkpt lat="43.39647077856096" lon="10.905011853836905"><ele>264.2</ele><time>2026-04-18T09:31:51.002Z</time></trkpt><trkpt lat="43.396512303890155" lon="10.904873420783797"><ele>264.4</ele><time>2026-04-18T09:31:52.002Z</time></trkpt><trkpt lat="43.39653176841894" lon="10.904759209290754"><ele>264.6</ele><time>2026-04-18T09:31:53.002Z</time></trkpt><trkpt lat="43.39652418212759" lon="10.904630089191448"><ele>264.8</ele><time>2026-04-18T09:31:54.002Z</time></trkpt><trkpt lat="43.39649868446729" lon="10.904480661192531"><ele>265.0</ele><time>2026-04-18T09:31:55.002Z</time></trkpt><trkpt lat="43.396455812493386" lon="10.904314545071534"><ele>264.2</ele><time>2026-04-18T09:31:56.002Z</time></trkpt><trkpt lat="43.396407106660384" lon="10.904136832264731"><ele>263.4</ele><time>2026-04-18T09:31:57.002Z</time></trkpt><trkpt lat="43.39636890293491" lon="10.903989111563432"><ele>262.6</ele><time>2026-04-18T09:31:58.002Z</time></trkpt><trkpt lat="43.39633495214581" lon="10.903855160068074"><ele>261.8</ele><time>2026-04-18T09:31:59.002Z</time></trkpt><trkpt lat="43.39630625117584" lon="10.903734811346846"><ele>261.0</ele><time>2026-04-18T09:32:00.002Z</time></trkpt><trkpt lat="43.39629801409111" lon="10.903604935265776"><ele>258.40000000000003</ele><time>2026-04-18T09:32:01.002Z</time></trkpt><trkpt lat="43.396312577379454" lon="10.90347348569827"><ele>255.8</ele><time>2026-04-18T09:32:02.002Z</time></trkpt><trkpt lat="43.396327944211095" lon="10.903322440076636"><ele>253.20000000000002</ele><time>2026-04-18T09:32:03.002Z</time></trkpt><trkpt lat="43.39633389773478" lon="10.903184806437167"><ele>250.60000000000002</ele><time>2026-04-18T09:32:04.002Z</time></trkpt><trkpt lat="43.396344695415955" lon="10.903066462400421"><ele>248.0</ele><time>2026-04-18T09:32:05.002Z</time></trkpt><trkpt lat="43.39636361049253" lon="10.902978474156082"><ele>248.0</ele><time>2026-04-18T09:32:06.002Z</time></trkpt><trkpt lat="43.39640940603527" lon="10.902900916402382"><ele>248.0</ele><time>2026-04-18T09:32:07.002Z</time></trkpt><trkpt lat="43.39648767594488" lon="10.902844878369656"><ele>248.0</ele><time>2026-04-18T09:32:08.002Z</time></trkpt><trkpt lat="43.396579061751524" lon="10.902804519667875"><ele>248.0</ele><time>2026-04-18T09:32:09.002Z</time></trkpt><trkpt lat="43.396650367862264" lon="10.902754546842637"><ele>248.0</ele><time>2026-04-18T09:32:10.002Z</time></trkpt><trkpt lat="43.39667602920386" lon="10.902592427193916"><ele>246.66666666666669</ele><time>2026-04-18T09:32:12.002Z</time></trkpt><trkpt lat="43.39663639961458" lon="10.902506471106804"><ele>245.33333333333334</ele><time>2026-04-18T09:32:13.002Z</time></trkpt><trkpt lat="43.39657509227564" lon="10.902463189207777"><ele>244.0</ele><time>2026-04-18T09:32:14.002Z</time></trkpt><trkpt lat="43.396504016620305" lon="10.90244270691133"><ele>242.66666666666669</ele><time>2026-04-18T09:32:15.002Z</time></trkpt><trkpt lat="43.39641338627764" lon="10.902447341787182"><ele>241.33333333333334</ele><time>2026-04-18T09:32:16.002Z</time></trkpt><trkpt lat="43.396312855191816" lon="10.902471073223234"><ele>240.0</ele><time>2026-04-18T09:32:17.002Z</time></trkpt><trkpt lat="43.39622549747529" lon="10.902516761066803"><ele>239.0</ele><time>2026-04-18T09:32:18.002Z</time></trkpt><trkpt lat="43.39615314098546" lon="10.902585811051345"><ele>238.0</ele><time>2026-04-18T09:32:19.003Z</time></trkpt><trkpt lat="43.39608865081751" lon="10.902688012689117"><ele>237.0</ele><time>2026-04-18T09:32:20.003Z</time></trkpt><trkpt lat="43.39602281027932" lon="10.902812551676307"><ele>236.0</ele><time>2026-04-18T09:32:21.003Z</time></trkpt><trkpt lat="43.395967258708744" lon="10.902921595902187"><ele>235.0</ele><time>2026-04-18T09:32:22.003Z</time></trkpt><trkpt lat="43.39590974560256" lon="10.903012104202197"><ele>235.0</ele><time>2026-04-18T09:32:23.003Z</time></trkpt><trkpt lat="43.39584310076552" lon="10.903089346116317"><ele>235.0</ele><time>2026-04-18T09:32:24.003Z</time></trkpt><trkpt lat="43.395791832430966" lon="10.903189318707502"><ele>235.0</ele><time>2026-04-18T09:32:24.999Z</time></trkpt><trkpt lat="43.395757667780835" lon="10.903295673088579"><ele>235.0</ele><time>2026-04-18T09:32:25.999Z</time></trkpt><trkpt lat="43.39575608447071" lon="10.903442963091758"><ele>235.0</ele><time>2026-04-18T09:32:26.999Z</time></trkpt><trkpt lat="43.395759628657025" lon="10.903569240503538"><ele>235.83333333333331</ele><time>2026-04-18T09:32:27.999Z</time></trkpt><trkpt lat="43.395762136161245" lon="10.903689688292449"><ele>236.66666666666666</ele><time>2026-04-18T09:32:28.999Z</time></trkpt><trkpt lat="43.3957454020006" lon="10.903837404766866"><ele>237.5</ele><time>2026-04-18T09:32:30.999Z</time></trkpt><trkpt lat="43.395661118028876" lon="10.90390875610864"><ele>238.33333333333331</ele><time>2026-04-18T09:32:32.999Z</time></trkpt><trkpt lat="43.3956024183611" lon="10.903867922804315"><ele>239.16666666666666</ele><time>2026-04-18T09:32:33.999Z</time></trkpt><trkpt lat="43.39556125460315" lon="10.903775969659875"><ele>240.0</ele><time>2026-04-18T09:32:34.999Z</time></trkpt><trkpt lat="43.39554113768311" lon="10.903651008459667"><ele>240.0</ele><time>2026-04-18T09:32:35.999Z</time></trkpt><trkpt lat="43.39553198141925" lon="10.90349054684838"><ele>240.0</ele><time>2026-04-18T09:32:36.999Z</time></trkpt><trkpt lat="43.39551734457875" lon="10.903311499162605"><ele>240.0</ele><time>2026-04-18T09:32:37.999Z</time></trkpt><trkpt lat="43.3955005758259" lon="10.903134017473215"><ele>240.0</ele><time>2026-04-18T09:32:38.999Z</time></trkpt><trkpt lat="43.3954975886864" lon="10.902980266928466"><ele>239.0</ele><time>2026-04-18T09:32:39.999Z</time></trkpt><trkpt lat="43.39550205859716" lon="10.902826850334264"><ele>238.0</ele><time>2026-04-18T09:32:40.999Z</time></trkpt><trkpt lat="43.39550554353447" lon="10.902702984624627"><ele>237.0</ele><time>2026-04-18T09:32:41.999Z</time></trkpt><trkpt lat="43.395489158342116" lon="10.902618817694165"><ele>236.0</ele><time>2026-04-18T09:32:43Z</time></trkpt><trkpt lat="43.395376986963484" lon="10.90252811497643"><ele>235.0</ele><time>2026-04-18T09:32:45Z</time></trkpt><trkpt lat="43.39527744996055" lon="10.902536769927815"><ele>234.4</ele><time>2026-04-18T09:32:46Z</time></trkpt><trkpt lat="43.395164836243325" lon="10.90256880907641"><ele>233.8</ele><time>2026-04-18T09:32:47Z</time></trkpt><trkpt lat="43.39504420967189" lon="10.902596833190815"><ele>233.2</ele><time>2026-04-18T09:32:48Z</time></trkpt><trkpt lat="43.39494771966279" lon="10.902586037393066"><ele>232.6</ele><time>2026-04-18T09:32:49Z</time></trkpt><trkpt lat="43.39484771800289" lon="10.902541878606744"><ele>232.0</ele><time>2026-04-18T09:32:50Z</time></trkpt><trkpt lat="43.394775853759725" lon="10.902484462468554"><ele>231.39999999999998</ele><time>2026-04-18T09:32:51Z</time></trkpt><trkpt lat="43.39476679796642" lon="10.902325965529537"><ele>230.79999999999998</ele><time>2026-04-18T09:32:53Z</time></trkpt><trkpt lat="43.39481252785345" lon="10.902235466411508"><ele>230.2</ele><time>2026-04-18T09:32:54Z</time></trkpt><trkpt lat="43.394889103228046" lon="10.902128996826585"><ele>229.6</ele><time>2026-04-18T09:32:55Z</time></trkpt><trkpt lat="43.39497337329105" lon="10.901986350016553"><ele>229.0</ele><time>2026-04-18T09:32:56Z</time></trkpt><trkpt lat="43.39504744547937" lon="10.90182711418089"><ele>229.25</ele><time>2026-04-18T09:32:57Z</time></trkpt><trkpt lat="43.395120830531894" lon="10.901650722598434"><ele>229.5</ele><time>2026-04-18T09:32:58Z</time></trkpt><trkpt lat="43.39517738509588" lon="10.901486712517192"><ele>229.75</ele><time>2026-04-18T09:32:59Z</time></trkpt><trkpt lat="43.395218452180856" lon="10.901358732605303"><ele>230.0</ele><time>2026-04-18T09:33:00Z</time></trkpt><trkpt lat="43.395227671923855" lon="10.901218181925616"><ele>230.0</ele><time>2026-04-18T09:33:01Z</time></trkpt><trkpt lat="43.395214060858414" lon="10.901044350745966"><ele>230.0</ele><time>2026-04-18T09:33:02Z</time></trkpt><trkpt lat="43.39518687219808" lon="10.900871574541084"><ele>230.0</ele><time>2026-04-18T09:33:03Z</time></trkpt><trkpt lat="43.395173685641154" lon="10.900738234588816"><ele>230.0</ele><time>2026-04-18T09:33:04Z</time></trkpt><trkpt lat="43.395190449151166" lon="10.900632034741161"><ele>230.0</ele><time>2026-04-18T09:33:05Z</time></trkpt><trkpt lat="43.395228439112714" lon="10.900510831530283"><ele>231.75</ele><time>2026-04-18T09:33:06Z</time></trkpt><trkpt lat="43.395269169839345" lon="10.900358458632125"><ele>233.5</ele><time>2026-04-18T09:33:07Z</time></trkpt><trkpt lat="43.39530735056712" lon="10.900187396569002"><ele>235.25</ele><time>2026-04-18T09:33:08Z</time></trkpt><trkpt lat="43.395333520302145" lon="10.900008282170266"><ele>237.0</ele><time>2026-04-18T09:33:09Z</time></trkpt><trkpt lat="43.39536143271933" lon="10.899816419359905"><ele>237.8</ele><time>2026-04-18T09:33:10Z</time></trkpt><trkpt lat="43.39538922223247" lon="10.899633471629532"><ele>238.6</ele><time>2026-04-18T09:33:11.001Z</time></trkpt><trkpt lat="43.39541424955628" lon="10.899478836924484"><ele>239.40000000000003</ele><time>2026-04-18T09:33:12.001Z</time></trkpt><trkpt lat="43.39545492758231" lon="10.899356582836273"><ele>240.20000000000002</ele><time>2026-04-18T09:33:13.001Z</time></trkpt><trkpt lat="43.39551895187695" lon="10.899261124373016"><ele>241.0</ele><time>2026-04-18T09:33:14.001Z</time></trkpt><trkpt lat="43.39560759424633" lon="10.8991650233256"><ele>241.0</ele><time>2026-04-18T09:33:15.001Z</time></trkpt><trkpt lat="43.39570273419883" lon="10.89905809045135"><ele>241.0</ele><time>2026-04-18T09:33:16.001Z</time></trkpt><trkpt lat="43.39577921949323" lon="10.898915463058477"><ele>241.0</ele><time>2026-04-18T09:33:17.001Z</time></trkpt><trkpt lat="43.39585174373506" lon="10.898796955941993"><ele>241.0</ele><time>2026-04-18T09:33:18.001Z</time></trkpt><trkpt lat="43.395928487599114" lon="10.898698826313108"><ele>241.0</ele><time>2026-04-18T09:33:19.001Z</time></trkpt><trkpt lat="43.39599219029982" lon="10.898593259082439"><ele>241.00000000000003</ele><time>2026-04-18T09:33:20.001Z</time></trkpt><trkpt lat="43.39602953305285" lon="10.898465638823108"><ele>241.00000000000003</ele><time>2026-04-18T09:33:21.001Z</time></trkpt><trkpt lat="43.39606220605274" lon="10.898320172657721"><ele>241.0</ele><time>2026-04-18T09:33:22.001Z</time></trkpt><trkpt lat="43.39609097122531" lon="10.898189538936034"><ele>241.0</ele><time>2026-04-18T09:33:23.001Z</time></trkpt><trkpt lat="43.3961457831956" lon="10.898092785399855"><ele>241.25</ele><time>2026-04-18T09:33:24.001Z</time></trkpt><trkpt lat="43.3962277662719" lon="10.898015163252392"><ele>241.5</ele><time>2026-04-18T09:33:25.001Z</time></trkpt><trkpt lat="43.39633447521917" lon="10.89795902242116"><ele>241.75</ele><time>2026-04-18T09:33:26.001Z</time></trkpt><trkpt lat="43.396450448034685" lon="10.897887613719007"><ele>242.0</ele><time>2026-04-18T09:33:27.001Z</time></trkpt><trkpt lat="43.39656040232964" lon="10.897785125953057"><ele>242.0</ele><time>2026-04-18T09:33:28.001Z</time></trkpt><trkpt lat="43.39666577108179" lon="10.897670044540435"><ele>242.0</ele><time>2026-04-18T09:33:29.001Z</time></trkpt><trkpt lat="43.396738219218705" lon="10.897568854267249"><ele>242.0</ele><time>2026-04-18T09:33:30.001Z</time></trkpt><trkpt lat="43.396784995807344" lon="10.89746792704312"><ele>242.0</ele><time>2026-04-18T09:33:31.001Z</time></trkpt><trkpt lat="43.39681426585705" lon="10.897353407171302"><ele>242.0</ele><time>2026-04-18T09:33:32.001Z</time></trkpt><trkpt lat="43.396831096095596" lon="10.89719976485837"><ele>245.5</ele><time>2026-04-18T09:33:33.001Z</time></trkpt><trkpt lat="43.396855172396506" lon="10.897042561882618"><ele>249.0</ele><time>2026-04-18T09:33:34.001Z</time></trkpt><trkpt lat="43.39690565953126" lon="10.8968988156825"><ele>252.5</ele><time>2026-04-18T09:33:35.001Z</time></trkpt><trkpt lat="43.39696954347794" lon="10.896760689214071"><ele>256.0</ele><time>2026-04-18T09:33:36.001Z</time></trkpt><trkpt lat="43.39701746954077" lon="10.896626349431124"><ele>255.5</ele><time>2026-04-18T09:33:37.001Z</time></trkpt><trkpt lat="43.397046742946635" lon="10.896473960836767"><ele>255.0</ele><time>2026-04-18T09:33:38.001Z</time></trkpt><trkpt lat="43.39708015743451" lon="10.89631360456096"><ele>254.5</ele><time>2026-04-18T09:33:39.001Z</time></trkpt><trkpt lat="43.39713008197684" lon="10.896173349696177"><ele>254.0</ele><time>2026-04-18T09:33:40.001Z</time></trkpt><trkpt lat="43.39719720198023" lon="10.896049238482936"><ele>254.0</ele><time>2026-04-18T09:33:41.001Z</time></trkpt><trkpt lat="43.3972508685645" lon="10.89592297535132"><ele>254.0</ele><time>2026-04-18T09:33:42.001Z</time></trkpt><trkpt lat="43.39727403495809" lon="10.895780718588163"><ele>254.0</ele><time>2026-04-18T09:33:43.001Z</time></trkpt><trkpt lat="43.397287562570895" lon="10.895620578624168"><ele>254.0</ele><time>2026-04-18T09:33:44.001Z</time></trkpt><trkpt lat="43.397308790930516" lon="10.895456631318586"><ele>255.39999999999998</ele><time>2026-04-18T09:33:45.002Z</time></trkpt><trkpt lat="43.39735319240447" lon="10.895299901890892"><ele>256.79999999999995</ele><time>2026-04-18T09:33:46.002Z</time></trkpt><trkpt lat="43.39741803330021" lon="10.895184647123184"><ele>258.20000000000005</ele><time>2026-04-18T09:33:47.002Z</time></trkpt><trkpt lat="43.397486049569146" lon="10.89508632418872"><ele>259.6</ele><time>2026-04-18T09:33:48.002Z</time></trkpt><trkpt lat="43.39754517477339" lon="10.894976462689952"><ele>261.0</ele><time>2026-04-18T09:33:49.002Z</time></trkpt><trkpt lat="43.39761234629613" lon="10.894872158195748"><ele>260.25</ele><time>2026-04-18T09:33:50.002Z</time></trkpt><trkpt lat="43.397710340540726" lon="10.894783254665585"><ele>259.5</ele><time>2026-04-18T09:33:51.002Z</time></trkpt><trkpt lat="43.39781705340549" lon="10.894713869496426"><ele>258.75</ele><time>2026-04-18T09:33:52.002Z</time></trkpt><trkpt lat="43.39792424795864" lon="10.89464553435914"><ele>258.0</ele><time>2026-04-18T09:33:53.002Z</time></trkpt><trkpt lat="43.39802690632012" lon="10.894561411731901"><ele>258.0</ele><time>2026-04-18T09:33:54.002Z</time></trkpt><trkpt lat="43.398131050655316" lon="10.894452189118178"><ele>258.0</ele><time>2026-04-18T09:33:55.002Z</time></trkpt><trkpt lat="43.39822691096712" lon="10.894327644567783"><ele>258.0</ele><time>2026-04-18T09:33:56.002Z</time></trkpt><trkpt lat="43.39830793420674" lon="10.894185944982938"><ele>258.0</ele><time>2026-04-18T09:33:57.002Z</time></trkpt><trkpt lat="43.39837013562903" lon="10.894040031134244"><ele>262.0</ele><time>2026-04-18T09:33:58.002Z</time></trkpt><trkpt lat="43.39844928061234" lon="10.893914402784926"><ele>266.0</ele><time>2026-04-18T09:33:59.002Z</time></trkpt><trkpt lat="43.398553325035486" lon="10.893787896522001"><ele>270.0</ele><time>2026-04-18T09:34:00.002Z</time></trkpt><trkpt lat="43.398667137171415" lon="10.893649764873018"><ele>274.0</ele><time>2026-04-18T09:34:01.002Z</time></trkpt><trkpt lat="43.39877066268673" lon="10.893513060212015"><ele>275.2</ele><time>2026-04-18T09:34:02.002Z</time></trkpt><trkpt lat="43.39885868672884" lon="10.893398882373889"><ele>276.4</ele><time>2026-04-18T09:34:03.002Z</time></trkpt><trkpt lat="43.3989453355683" lon="10.893325126656647"><ele>277.6</ele><time>2026-04-18T09:34:04.002Z</time></trkpt><trkpt lat="43.39903575810803" lon="10.89327382055956"><ele>278.8</ele><time>2026-04-18T09:34:05.002Z</time></trkpt><trkpt lat="43.39914005144405" lon="10.893232846104063"><ele>280.0</ele><time>2026-04-18T09:34:06.002Z</time></trkpt><trkpt lat="43.39923682482871" lon="10.893207339562023"><ele>280.0</ele><time>2026-04-18T09:34:07.002Z</time></trkpt><trkpt lat="43.39932708399196" lon="10.893197852986704"><ele>280.0</ele><time>2026-04-18T09:34:08.002Z</time></trkpt><trkpt lat="43.39940603974579" lon="10.893213060083532"><ele>280.0</ele><time>2026-04-18T09:34:09.002Z</time></trkpt><trkpt lat="43.399471186949555" lon="10.89323239173432"><ele>280.0</ele><time>2026-04-18T09:34:10.002Z</time></trkpt><trkpt lat="43.39957241022618" lon="10.893149764633982"><ele>280.0</ele><time>2026-04-18T09:34:12.002Z</time></trkpt><trkpt lat="43.39962098404319" lon="10.893049278932294"><ele>280.0</ele><time>2026-04-18T09:34:13.002Z</time></trkpt><trkpt lat="43.39966075611795" lon="10.892937479527912"><ele>280.0</ele><time>2026-04-18T09:34:14.002Z</time></trkpt><trkpt lat="43.39968395678818" lon="10.892830844525552"><ele>280.0</ele><time>2026-04-18T09:34:15.002Z</time></trkpt><trkpt lat="43.399690408747105" lon="10.892732562110105"><ele>280.0</ele><time>2026-04-18T09:34:17.002Z</time></trkpt><trkpt lat="43.399626354276435" lon="10.892717488719736"><ele>280.0</ele><time>2026-04-18T09:34:19.002Z</time></trkpt><trkpt lat="43.399568495136066" lon="10.892760717800519"><ele>280.0</ele><time>2026-04-18T09:34:20.002Z</time></trkpt><trkpt lat="43.39950120427372" lon="10.892886128368762"><ele>280.0</ele><time>2026-04-18T09:34:21.003Z</time></trkpt><trkpt lat="43.399419114322654" lon="10.892989597440872"><ele>280.0</ele><time>2026-04-18T09:34:22.003Z</time></trkpt><trkpt lat="43.399295152027946" lon="10.893017701927096"><ele>280.0</ele><time>2026-04-18T09:34:23.003Z</time></trkpt><trkpt lat="43.3991686021919" lon="10.893005559827982"><ele>280.0</ele><time>2026-04-18T09:34:24.003Z</time></trkpt><trkpt lat="43.3990310240684" lon="10.89300831495216"><ele>280.0</ele><time>2026-04-18T09:34:25.003Z</time></trkpt><trkpt lat="43.39888956359439" lon="10.893021969087485"><ele>283.5</ele><time>2026-04-18T09:34:26.003Z</time></trkpt><trkpt lat="43.39874673959244" lon="10.893041579701226"><ele>287.0</ele><time>2026-04-18T09:34:27.003Z</time></trkpt><trkpt lat="43.39860795357796" lon="10.893065556817202"><ele>290.5</ele><time>2026-04-18T09:34:28.003Z</time></trkpt><trkpt lat="43.39847293881148" lon="10.893116221174292"><ele>294.0</ele><time>2026-04-18T09:34:29.003Z</time></trkpt><trkpt lat="43.39833378692445" lon="10.893181428770063"><ele>294.0</ele><time>2026-04-18T09:34:30.003Z</time></trkpt><trkpt lat="43.39818957025279" lon="10.893252960406041"><ele>294.0</ele><time>2026-04-18T09:34:30.999Z</time></trkpt><trkpt lat="43.398044586164055" lon="10.893300899957909"><ele>294.0</ele><time>2026-04-18T09:34:31.999Z</time></trkpt><trkpt lat="43.39789719631514" lon="10.893328573830104"><ele>297.0</ele><time>2026-04-18T09:34:32.999Z</time></trkpt><trkpt lat="43.397737723758574" lon="10.89333543648049"><ele>300.0</ele><time>2026-04-18T09:34:33.999Z</time></trkpt><trkpt lat="43.39757642124998" lon="10.893332502429729"><ele>303.0</ele><time>2026-04-18T09:34:34.999Z</time></trkpt><trkpt lat="43.39741954449519" lon="10.893313955813756"><ele>303.0</ele><time>2026-04-18T09:34:35.999Z</time></trkpt><trkpt lat="43.39725483160925" lon="10.89330595027283"><ele>303.0</ele><time>2026-04-18T09:34:36.999Z</time></trkpt><trkpt lat="43.397097469435906" lon="10.8933245603276"><ele>303.0</ele><time>2026-04-18T09:34:37.999Z</time></trkpt><trkpt lat="43.396946807662935" lon="10.89336751666875"><ele>301.0</ele><time>2026-04-18T09:34:38.999Z</time></trkpt><trkpt lat="43.39679592955611" lon="10.89344502601133"><ele>299.0</ele><time>2026-04-18T09:34:39.999Z</time></trkpt><trkpt lat="43.39664198798977" lon="10.893528416018132"><ele>297.0</ele><time>2026-04-18T09:34:40.999Z</time></trkpt><trkpt lat="43.39648450663209" lon="10.89361929669459"><ele>301.6666666666667</ele><time>2026-04-18T09:34:42Z</time></trkpt><trkpt lat="43.396324178831335" lon="10.89372236604923"><ele>306.33333333333337</ele><time>2026-04-18T09:34:43Z</time></trkpt><trkpt lat="43.39615930095922" lon="10.893836965156442"><ele>311.0</ele><time>2026-04-18T09:34:44Z</time></trkpt><trkpt lat="43.39599426900172" lon="10.893937074177284"><ele>311.0</ele><time>2026-04-18T09:34:45Z</time></trkpt><trkpt lat="43.39582328225942" lon="10.894033593483442"><ele>311.0</ele><time>2026-04-18T09:34:46Z</time></trkpt><trkpt lat="43.39564362950325" lon="10.894138055108348"><ele>311.0</ele><time>2026-04-18T09:34:47Z</time></trkpt><trkpt lat="43.395464911107474" lon="10.894245647239371"><ele>312.6666666666667</ele><time>2026-04-18T09:34:48Z</time></trkpt><trkpt lat="43.39529168339778" lon="10.894362464001988"><ele>314.3333333333333</ele><time>2026-04-18T09:34:49Z</time></trkpt><trkpt lat="43.39512622726302" lon="10.89447895122491"><ele>316.0</ele><time>2026-04-18T09:34:50Z</time></trkpt><trkpt lat="43.39497726407864" lon="10.894603755541594"><ele>316.0</ele><time>2026-04-18T09:34:51Z</time></trkpt><trkpt lat="43.394841533165575" lon="10.894743312366431"><ele>316.0</ele><time>2026-04-18T09:34:52Z</time></trkpt><trkpt lat="43.394712611151334" lon="10.89488884958945"><ele>316.0</ele><time>2026-04-18T09:34:53Z</time></trkpt><trkpt lat="43.39458408648069" lon="10.895034261307863"><ele>318.66666666666663</ele><time>2026-04-18T09:34:54Z</time></trkpt><trkpt lat="43.394445811625125" lon="10.895173427132073"><ele>321.3333333333333</ele><time>2026-04-18T09:34:55Z</time></trkpt><trkpt lat="43.3943003670187" lon="10.895308433736876"><ele>324.0</ele><time>2026-04-18T09:34:56Z</time></trkpt><trkpt lat="43.394145804969675" lon="10.895431672288984"><ele>324.0</ele><time>2026-04-18T09:34:57Z</time></trkpt><trkpt lat="43.39398283261831" lon="10.895547742324428"><ele>324.0</ele><time>2026-04-18T09:34:58Z</time></trkpt><trkpt lat="43.39381333573951" lon="10.895659907345065"><ele>324.0</ele><time>2026-04-18T09:34:59Z</time></trkpt><trkpt lat="43.39363950150856" lon="10.89575283772471"><ele>327.0</ele><time>2026-04-18T09:35:00Z</time></trkpt><trkpt lat="43.39346325206228" lon="10.895816755655192"><ele>330.0</ele><time>2026-04-18T09:35:01Z</time></trkpt><trkpt lat="43.393290725012065" lon="10.895857871326815"><ele>333.0</ele><time>2026-04-18T09:35:02Z</time></trkpt><trkpt lat="43.39311953559083" lon="10.895883232495608"><ele>333.0</ele><time>2026-04-18T09:35:03Z</time></trkpt><trkpt lat="43.392956949916154" lon="10.895893400183192"><ele>333.0</ele><time>2026-04-18T09:35:04Z</time></trkpt><trkpt lat="43.39281869698365" lon="10.895895157335275"><ele>333.0</ele><time>2026-04-18T09:35:05Z</time></trkpt><trkpt lat="43.3927160593112" lon="10.895878875988647"><ele>333.0</ele><time>2026-04-18T09:35:06Z</time></trkpt><trkpt lat="43.39263289366087" lon="10.895850753504453"><ele>333.0</ele><time>2026-04-18T09:35:07Z</time></trkpt><trkpt lat="43.392565245030596" lon="10.895805126528424"><ele>333.0</ele><time>2026-04-18T09:35:08Z</time></trkpt><trkpt lat="43.39249434532647" lon="10.89574967992651"><ele>333.0</ele><time>2026-04-18T09:35:10Z</time></trkpt><trkpt lat="43.39242522749569" lon="10.895729391360199"><ele>333.0</ele><time>2026-04-18T09:35:27.001Z</time></trkpt><trkpt lat="43.39235079732264" lon="10.895849373565376"><ele>333.0</ele><time>2026-04-18T09:35:29.001Z</time></trkpt><trkpt lat="43.39232505093824" lon="10.895975090197732"><ele>333.0</ele><time>2026-04-18T09:35:30.001Z</time></trkpt><trkpt lat="43.39228074603995" lon="10.896115304025868"><ele>332.0</ele><time>2026-04-18T09:35:31.001Z</time></trkpt><trkpt lat="43.39221930856411" lon="10.896273639489012"><ele>331.0</ele><time>2026-04-18T09:35:32.001Z</time></trkpt><trkpt lat="43.39216280907125" lon="10.89643785233707"><ele>330.0</ele><time>2026-04-18T09:35:33.001Z</time></trkpt><trkpt lat="43.39210076213083" lon="10.896606046091309"><ele>329.0</ele><time>2026-04-18T09:35:34.001Z</time></trkpt><trkpt lat="43.392017441568555" lon="10.896766068966226"><ele>328.5</ele><time>2026-04-18T09:35:35.001Z</time></trkpt><trkpt lat="43.39191953193275" lon="10.896926142875802"><ele>328.0</ele><time>2026-04-18T09:35:36.001Z</time></trkpt><trkpt lat="43.391830026745126" lon="10.897074685396737"><ele>327.5</ele><time>2026-04-18T09:35:37.001Z</time></trkpt><trkpt lat="43.391736870438756" lon="10.897220866721051"><ele>327.0</ele><time>2026-04-18T09:35:38.001Z</time></trkpt><trkpt lat="43.39163945909649" lon="10.897364662625757"><ele>327.0</ele><time>2026-04-18T09:35:39.001Z</time></trkpt><trkpt lat="43.391542726805" lon="10.897502902847839"><ele>327.0</ele><time>2026-04-18T09:35:40.001Z</time></trkpt><trkpt lat="43.3914468304721" lon="10.897639263261995"><ele>327.0</ele><time>2026-04-18T09:35:41.001Z</time></trkpt><trkpt lat="43.39134496644676" lon="10.89777448384428"><ele>327.0</ele><time>2026-04-18T09:35:42.001Z</time></trkpt><trkpt lat="43.39124594086363" lon="10.897909897395676"><ele>328.3333333333333</ele><time>2026-04-18T09:35:43.001Z</time></trkpt><trkpt lat="43.39114067855053" lon="10.898051534641157"><ele>329.66666666666663</ele><time>2026-04-18T09:35:44.002Z</time></trkpt><trkpt lat="43.39102387343253" lon="10.89819437049505"><ele>331.0</ele><time>2026-04-18T09:35:45.002Z</time></trkpt><trkpt lat="43.39090063271578" lon="10.898327657752423"><ele>332.25</ele><time>2026-04-18T09:35:46.002Z</time></trkpt><trkpt lat="43.390788680104386" lon="10.898434562476742"><ele>333.5</ele><time>2026-04-18T09:35:47.002Z</time></trkpt><trkpt lat="43.390687114702466" lon="10.898536718228417"><ele>334.75</ele><time>2026-04-18T09:35:48.002Z</time></trkpt><trkpt lat="43.39058520346869" lon="10.898654923715466"><ele>336.0</ele><time>2026-04-18T09:35:49.002Z</time></trkpt><trkpt lat="43.39048821966535" lon="10.898783305638053"><ele>336.75</ele><time>2026-04-18T09:35:50.002Z</time></trkpt><trkpt lat="43.39039622708879" lon="10.898910648052896"><ele>337.5</ele><time>2026-04-18T09:35:51.002Z</time></trkpt><trkpt lat="43.39030814918199" lon="10.89904024162406"><ele>338.25</ele><time>2026-04-18T09:35:52.002Z</time></trkpt><trkpt lat="43.39022079189107" lon="10.8991807444337"><ele>339.0</ele><time>2026-04-18T09:35:53.002Z</time></trkpt><trkpt lat="43.390129098570455" lon="10.899321360734628"><ele>339.0</ele><time>2026-04-18T09:35:54.002Z</time></trkpt><trkpt lat="43.39004327585546" lon="10.899460183822919"><ele>339.0</ele><time>2026-04-18T09:35:55.002Z</time></trkpt><trkpt lat="43.38995750578793" lon="10.899596346148213"><ele>339.0</ele><time>2026-04-18T09:35:56.002Z</time></trkpt><trkpt lat="43.38987088291051" lon="10.89973202573662"><ele>339.0</ele><time>2026-04-18T09:35:57.002Z</time></trkpt><trkpt lat="43.38978474483947" lon="10.899867590369842"><ele>339.0</ele><time>2026-04-18T09:35:58.002Z</time></trkpt><trkpt lat="43.38968245953604" lon="10.899998457441576"><ele>339.0</ele><time>2026-04-18T09:35:59.002Z</time></trkpt><trkpt lat="43.38958095435765" lon="10.900130120835362"><ele>339.0</ele><time>2026-04-18T09:36:00.002Z</time></trkpt><trkpt lat="43.389482717682704" lon="10.9002701618446"><ele>339.0</ele><time>2026-04-18T09:36:01.002Z</time></trkpt><trkpt lat="43.389376782777795" lon="10.900403820168787"><ele>339.75</ele><time>2026-04-18T09:36:02.002Z</time></trkpt><trkpt lat="43.389275016995484" lon="10.900549356143552"><ele>340.5</ele><time>2026-04-18T09:36:03.002Z</time></trkpt><trkpt lat="43.38917212672814" lon="10.900694066739453"><ele>341.25</ele><time>2026-04-18T09:36:04.002Z</time></trkpt><trkpt lat="43.38906824418464" lon="10.90083791532244"><ele>342.0</ele><time>2026-04-18T09:36:05.002Z</time></trkpt><trkpt lat="43.38896655127443" lon="10.900980767030386"><ele>342.0</ele><time>2026-04-18T09:36:06.002Z</time></trkpt><trkpt lat="43.38886258057736" lon="10.901120733272776"><ele>342.0</ele><time>2026-04-18T09:36:07.002Z</time></trkpt><trkpt lat="43.38876018241118" lon="10.901265392533865"><ele>342.0</ele><time>2026-04-18T09:36:08.002Z</time></trkpt><trkpt lat="43.38865652797284" lon="10.901414206687443"><ele>342.0</ele><time>2026-04-18T09:36:09.002Z</time></trkpt><trkpt lat="43.38855313430846" lon="10.901560477319448"><ele>343.75</ele><time>2026-04-18T09:36:10.002Z</time></trkpt><trkpt lat="43.38845443172964" lon="10.901713100316424"><ele>345.5</ele><time>2026-04-18T09:36:11.002Z</time></trkpt><trkpt lat="43.38835691725358" lon="10.901861971428897"><ele>347.25</ele><time>2026-04-18T09:36:12.002Z</time></trkpt><trkpt lat="43.38825191091827" lon="10.90199942480443"><ele>349.0</ele><time>2026-04-18T09:36:13.002Z</time></trkpt><trkpt lat="43.38814252307855" lon="10.902119264196061"><ele>349.0</ele><time>2026-04-18T09:36:14.002Z</time></trkpt><trkpt lat="43.38804151406237" lon="10.902225748357408"><ele>349.0</ele><time>2026-04-18T09:36:15.002Z</time></trkpt><trkpt lat="43.38794558277387" lon="10.902329577522408"><ele>349.0</ele><time>2026-04-18T09:36:16.002Z</time></trkpt><trkpt lat="43.387843552910226" lon="10.90243660713453"><ele>349.0</ele><time>2026-04-18T09:36:17.002Z</time></trkpt><trkpt lat="43.38774580055461" lon="10.902531850302132"><ele>350.4</ele><time>2026-04-18T09:36:18.003Z</time></trkpt><trkpt lat="43.38764625118199" lon="10.902623392228008"><ele>351.79999999999995</ele><time>2026-04-18T09:36:19.003Z</time></trkpt><trkpt lat="43.38755290817908" lon="10.902712352484388"><ele>353.20000000000005</ele><time>2026-04-18T09:36:20.003Z</time></trkpt><trkpt lat="43.38746513177154" lon="10.90278568165985"><ele>354.6</ele><time>2026-04-18T09:36:21.003Z</time></trkpt><trkpt lat="43.38737694848893" lon="10.902835193371052"><ele>356.0</ele><time>2026-04-18T09:36:22.003Z</time></trkpt><trkpt lat="43.38728272827076" lon="10.902880342695735"><ele>356.0</ele><time>2026-04-18T09:36:23.003Z</time></trkpt><trkpt lat="43.38717807737" lon="10.902923749348604"><ele>356.0</ele><time>2026-04-18T09:36:24.003Z</time></trkpt><trkpt lat="43.38706268966544" lon="10.902967755645616"><ele>356.0</ele><time>2026-04-18T09:36:25.003Z</time></trkpt><trkpt lat="43.38694605921806" lon="10.903013529619566"><ele>356.0</ele><time>2026-04-18T09:36:26.003Z</time></trkpt><trkpt lat="43.38682684337271" lon="10.903037233573741"><ele>357.8</ele><time>2026-04-18T09:36:27.003Z</time></trkpt><trkpt lat="43.386715285192885" lon="10.903038924124024"><ele>359.6</ele><time>2026-04-18T09:36:28.003Z</time></trkpt><trkpt lat="43.38661445693212" lon="10.903038302303928"><ele>361.4</ele><time>2026-04-18T09:36:29.003Z</time></trkpt><trkpt lat="43.38651986076205" lon="10.90306721735501"><ele>363.2</ele><time>2026-04-18T09:36:30.003Z</time></trkpt><trkpt lat="43.38644238010341" lon="10.903144312524349"><ele>365.0</ele><time>2026-04-18T09:36:31.003Z</time></trkpt><trkpt lat="43.38639491013261" lon="10.903276138099551"><ele>365.5</ele><time>2026-04-18T09:36:32.003Z</time></trkpt><trkpt lat="43.386389499459206" lon="10.903434804222377"><ele>366.0</ele><time>2026-04-18T09:36:33.003Z</time></trkpt><trkpt lat="43.38639846781407" lon="10.903594750400423"><ele>366.5</ele><time>2026-04-18T09:36:34.003Z</time></trkpt><trkpt lat="43.38641464429799" lon="10.90376207405558"><ele>367.0</ele><time>2026-04-18T09:36:35.003Z</time></trkpt><trkpt lat="43.38642992514538" lon="10.90394477630425"><ele>367.0</ele><time>2026-04-18T09:36:36.003Z</time></trkpt><trkpt lat="43.386453738850385" lon="10.904124592318489"><ele>367.0</ele><time>2026-04-18T09:36:37Z</time></trkpt><trkpt lat="43.38646284990925" lon="10.904287018074278"><ele>367.0</ele><time>2026-04-18T09:36:38Z</time></trkpt><trkpt lat="43.38644588351415" lon="10.904448486634786"><ele>367.0</ele><time>2026-04-18T09:36:39Z</time></trkpt><trkpt lat="43.386407115239294" lon="10.904609654438183"><ele>369.75</ele><time>2026-04-18T09:36:40Z</time></trkpt><trkpt lat="43.38633021901882" lon="10.904727799831333"><ele>372.5</ele><time>2026-04-18T09:36:41Z</time></trkpt><trkpt lat="43.386238478322596" lon="10.904826116440265"><ele>375.25</ele><time>2026-04-18T09:36:42Z</time></trkpt><trkpt lat="43.386153193350104" lon="10.904936513309547"><ele>378.0</ele><time>2026-04-18T09:36:43Z</time></trkpt><trkpt lat="43.38610344448261" lon="10.905080701249684"><ele>379.5</ele><time>2026-04-18T09:36:44Z</time></trkpt><trkpt lat="43.386091770177195" lon="10.905250956065759"><ele>381.0</ele><time>2026-04-18T09:36:45Z</time></trkpt><trkpt lat="43.386118107686" lon="10.905427850415078"><ele>382.5</ele><time>2026-04-18T09:36:46Z</time></trkpt><trkpt lat="43.38615294593372" lon="10.9055970442299"><ele>384.0</ele><time>2026-04-18T09:36:47Z</time></trkpt><trkpt lat="43.386156656034224" lon="10.905765870345366"><ele>385.5</ele><time>2026-04-18T09:36:48Z</time></trkpt><trkpt lat="43.386185085185396" lon="10.905927626764582"><ele>387.0</ele><time>2026-04-18T09:36:49Z</time></trkpt><trkpt lat="43.386188660754335" lon="10.906082132550642"><ele>388.5</ele><time>2026-04-18T09:36:50Z</time></trkpt><trkpt lat="43.386175582622165" lon="10.906336389655614"><ele>390.0</ele><time>2026-04-18T09:36:52Z</time></trkpt><trkpt lat="43.38614544661604" lon="10.906452992816606"><ele>390.0</ele><time>2026-04-18T09:36:53Z</time></trkpt><trkpt lat="43.38608443610621" lon="10.906525894645656"><ele>390.0</ele><time>2026-04-18T09:36:54Z</time></trkpt><trkpt lat="43.38600505728292" lon="10.906577068267621"><ele>390.0</ele><time>2026-04-18T09:36:55Z</time></trkpt><trkpt lat="43.38591398459661" lon="10.906607726565062"><ele>390.0</ele><time>2026-04-18T09:36:56Z</time></trkpt><trkpt lat="43.38582027174383" lon="10.906619309033381"><ele>390.0</ele><time>2026-04-18T09:36:57Z</time></trkpt><trkpt lat="43.385721569815914" lon="10.906584202511509"><ele>390.0</ele><time>2026-04-18T09:36:58Z</time></trkpt><trkpt lat="43.385623352509334" lon="10.906511805367057"><ele>390.0</ele><time>2026-04-18T09:36:59Z</time></trkpt><trkpt lat="43.38554871727457" lon="10.906406216966547"><ele>390.0</ele><time>2026-04-18T09:37:00Z</time></trkpt><trkpt lat="43.385485318998185" lon="10.906270728838924"><ele>390.0</ele><time>2026-04-18T09:37:01Z</time></trkpt><trkpt lat="43.38541776119802" lon="10.906115654284786"><ele>391.75</ele><time>2026-04-18T09:37:02Z</time></trkpt><trkpt lat="43.38534401864668" lon="10.905976602204749"><ele>393.5</ele><time>2026-04-18T09:37:03Z</time></trkpt><trkpt lat="43.38526845877188" lon="10.905863071819605"><ele>395.25</ele><time>2026-04-18T09:37:04Z</time></trkpt><trkpt lat="43.38517113829873" lon="10.905777377625203"><ele>397.0</ele><time>2026-04-18T09:37:05Z</time></trkpt><trkpt lat="43.38506648309571" lon="10.90570392964544"><ele>397.0</ele><time>2026-04-18T09:37:06Z</time></trkpt><trkpt lat="43.38496193049209" lon="10.90560775300484"><ele>397.0</ele><time>2026-04-18T09:37:07Z</time></trkpt><trkpt lat="43.38486267626275" lon="10.905526190240808"><ele>397.0</ele><time>2026-04-18T09:37:08Z</time></trkpt><trkpt lat="43.38478252283298" lon="10.905443135426259"><ele>397.0</ele><time>2026-04-18T09:37:09.001Z</time></trkpt><trkpt lat="43.38471926018405" lon="10.905338949378296"><ele>397.0</ele><time>2026-04-18T09:37:10.001Z</time></trkpt><trkpt lat="43.384648608207016" lon="10.905219105398311"><ele>398.0</ele><time>2026-04-18T09:37:11.001Z</time></trkpt><trkpt lat="43.384606807667" lon="10.905090845639837"><ele>399.0</ele><time>2026-04-18T09:37:12.001Z</time></trkpt><trkpt lat="43.38453898318083" lon="10.904984436827364"><ele>400.0</ele><time>2026-04-18T09:37:13.001Z</time></trkpt><trkpt lat="43.3844544709616" lon="10.904905009437083"><ele>401.0</ele><time>2026-04-18T09:37:14.001Z</time></trkpt><trkpt lat="43.38435143974521" lon="10.904872067286348"><ele>402.0</ele><time>2026-04-18T09:37:15.001Z</time></trkpt><trkpt lat="43.38423836214028" lon="10.9048810476339"><ele>402.0</ele><time>2026-04-18T09:37:16.001Z</time></trkpt><trkpt lat="43.38412247171329" lon="10.904925406455574"><ele>402.0</ele><time>2026-04-18T09:37:17.001Z</time></trkpt><trkpt lat="43.38401692432024" lon="10.905025163612269"><ele>402.0</ele><time>2026-04-18T09:37:18.001Z</time></trkpt><trkpt lat="43.38390403638372" lon="10.905106906731653"><ele>402.0</ele><time>2026-04-18T09:37:19.001Z</time></trkpt><trkpt lat="43.383789452700576" lon="10.905191429635247"><ele>407.0</ele><time>2026-04-18T09:37:20.001Z</time></trkpt><trkpt lat="43.38367210617634" lon="10.905264343374455"><ele>412.0</ele><time>2026-04-18T09:37:21.001Z</time></trkpt><trkpt lat="43.383564410757415" lon="10.905334447295147"><ele>417.0</ele><time>2026-04-18T09:37:22.001Z</time></trkpt><trkpt lat="43.383447388350405" lon="10.905393931026635"><ele>422.0</ele><time>2026-04-18T09:37:23.001Z</time></trkpt><trkpt lat="43.38331994907005" lon="10.905449517791476"><ele>422.0</ele><time>2026-04-18T09:37:24.001Z</time></trkpt><trkpt lat="43.38318879488549" lon="10.90549341133502"><ele>422.0</ele><time>2026-04-18T09:37:25.001Z</time></trkpt><trkpt lat="43.383048974654734" lon="10.905551689948306"><ele>422.0</ele><time>2026-04-18T09:37:26.001Z</time></trkpt><trkpt lat="43.38290867333963" lon="10.905621082085595"><ele>422.0</ele><time>2026-04-18T09:37:27.001Z</time></trkpt><trkpt lat="43.38277197487003" lon="10.905655552711126"><ele>421.5</ele><time>2026-04-18T09:37:28.001Z</time></trkpt><trkpt lat="43.38264707239206" lon="10.905677966561504"><ele>421.0</ele><time>2026-04-18T09:37:29.001Z</time></trkpt><trkpt lat="43.38253371463978" lon="10.905700863852896"><ele>420.5</ele><time>2026-04-18T09:37:30.001Z</time></trkpt><trkpt lat="43.382413706170695" lon="10.905760832029216"><ele>420.0</ele><time>2026-04-18T09:37:31.001Z</time></trkpt><trkpt lat="43.382297316922724" lon="10.905856783452368"><ele>422.5</ele><time>2026-04-18T09:37:32.001Z</time></trkpt><trkpt lat="43.38220346898398" lon="10.905962101307528"><ele>425.0</ele><time>2026-04-18T09:37:33.001Z</time></trkpt><trkpt lat="43.38212746274025" lon="10.90608209672018"><ele>427.5</ele><time>2026-04-18T09:37:34.001Z</time></trkpt><trkpt lat="43.38208373274176" lon="10.906216012470916"><ele>430.0</ele><time>2026-04-18T09:37:35.001Z</time></trkpt><trkpt lat="43.38206581780257" lon="10.9063771052268"><ele>426.5</ele><time>2026-04-18T09:37:36.001Z</time></trkpt><trkpt lat="43.3820624402845" lon="10.906559353663473"><ele>423.0</ele><time>2026-04-18T09:37:37.001Z</time></trkpt><trkpt lat="43.38205328609003" lon="10.906742885009246"><ele>419.5</ele><time>2026-04-18T09:37:38.001Z</time></trkpt><trkpt lat="43.3820371680015" lon="10.906908491136338"><ele>416.0</ele><time>2026-04-18T09:37:39.001Z</time></trkpt><trkpt lat="43.38200975770245" lon="10.907071485464641"><ele>416.0</ele><time>2026-04-18T09:37:40.001Z</time></trkpt><trkpt lat="43.381968461310564" lon="10.907236975591998"><ele>416.0</ele><time>2026-04-18T09:37:41.001Z</time></trkpt><trkpt lat="43.38191125701284" lon="10.907390527747578"><ele>416.0</ele><time>2026-04-18T09:37:42.002Z</time></trkpt><trkpt lat="43.38184717227285" lon="10.907526685601722"><ele>416.0</ele><time>2026-04-18T09:37:43.002Z</time></trkpt><trkpt lat="43.381780956772594" lon="10.90764808662944"><ele>419.0</ele><time>2026-04-18T09:37:44.002Z</time></trkpt><trkpt lat="43.38169988909987" lon="10.907763292318881"><ele>422.0</ele><time>2026-04-18T09:37:45.002Z</time></trkpt><trkpt lat="43.38161009475397" lon="10.907864046853922"><ele>425.0</ele><time>2026-04-18T09:37:46.002Z</time></trkpt><trkpt lat="43.38151158674777" lon="10.90794657430517"><ele>428.0</ele><time>2026-04-18T09:37:47.002Z</time></trkpt><trkpt lat="43.38140772113409" lon="10.908010122226745"><ele>423.25</ele><time>2026-04-18T09:37:48.002Z</time></trkpt><trkpt lat="43.38129265237964" lon="10.90802937923185"><ele>418.5</ele><time>2026-04-18T09:37:49.002Z</time></trkpt><trkpt lat="43.38118280059147" lon="10.908075354843909"><ele>413.75</ele><time>2026-04-18T09:37:50.002Z</time></trkpt><trkpt lat="43.38108041680212" lon="10.90814992190496"><ele>409.0</ele><time>2026-04-18T09:37:51.002Z</time></trkpt><trkpt lat="43.38099940481024" lon="10.908284306409138"><ele>409.0</ele><time>2026-04-18T09:37:52.002Z</time></trkpt><trkpt lat="43.380929574582744" lon="10.908411906264151"><ele>409.0</ele><time>2026-04-18T09:37:53.002Z</time></trkpt><trkpt lat="43.38088324668691" lon="10.908547219884762"><ele>409.0</ele><time>2026-04-18T09:37:54.002Z</time></trkpt><trkpt lat="43.38087637264205" lon="10.90870331727295"><ele>409.0</ele><time>2026-04-18T09:37:55.002Z</time></trkpt><trkpt lat="43.38088200376821" lon="10.908865746514307"><ele>409.0</ele><time>2026-04-18T09:37:56.002Z</time></trkpt><trkpt lat="43.38085408500072" lon="10.909019254239356"><ele>409.0</ele><time>2026-04-18T09:37:57.002Z</time></trkpt><trkpt lat="43.38082538880049" lon="10.909171716736124"><ele>409.0</ele><time>2026-04-18T09:37:58.002Z</time></trkpt><trkpt lat="43.38073846439548" lon="10.909303940521564"><ele>409.0</ele><time>2026-04-18T09:37:59.002Z</time></trkpt><trkpt lat="43.380675338128924" lon="10.9094501745261"><ele>407.6</ele><time>2026-04-18T09:38:00.002Z</time></trkpt><trkpt lat="43.38064324902324" lon="10.909586478305926"><ele>406.2</ele><time>2026-04-18T09:38:01.002Z</time></trkpt><trkpt lat="43.380630836979904" lon="10.909704690110592"><ele>404.8</ele><time>2026-04-18T09:38:02.002Z</time></trkpt><trkpt lat="43.3806574561116" lon="10.909829336428421"><ele>403.40000000000003</ele><time>2026-04-18T09:38:03.002Z</time></trkpt><trkpt lat="43.38070870754779" lon="10.909934769062927"><ele>402.0</ele><time>2026-04-18T09:38:04.002Z</time></trkpt><trkpt lat="43.38077384496595" lon="10.910017594728203"><ele>399.0</ele><time>2026-04-18T09:38:05.002Z</time></trkpt><trkpt lat="43.380796266070085" lon="10.91010587714114"><ele>396.0</ele><time>2026-04-18T09:38:06.002Z</time></trkpt><trkpt lat="43.38077774605021" lon="10.910201642900205"><ele>393.0</ele><time>2026-04-18T09:38:07.002Z</time></trkpt><trkpt lat="43.380736707084715" lon="10.910296599010254"><ele>390.0</ele><time>2026-04-18T09:38:08.002Z</time></trkpt><trkpt lat="43.380594110563564" lon="10.910291987642928"><ele>387.0</ele><time>2026-04-18T09:38:09.002Z</time></trkpt><trkpt lat="43.38049470975233" lon="10.910332622521313"><ele>386.0</ele><time>2026-04-18T09:38:10.002Z</time></trkpt><trkpt lat="43.38041600523501" lon="10.910296918445777"><ele>385.0</ele><time>2026-04-18T09:38:11.002Z</time></trkpt><trkpt lat="43.380364451823915" lon="10.91022524367957"><ele>384.0</ele><time>2026-04-18T09:38:12.002Z</time></trkpt><trkpt lat="43.38034913358043" lon="10.9100969638264"><ele>383.0</ele><time>2026-04-18T09:38:13.002Z</time></trkpt><trkpt lat="43.38032439302211" lon="10.910000317943032"><ele>382.0</ele><time>2026-04-18T09:38:14.002Z</time></trkpt><trkpt lat="43.38020340060892" lon="10.91002123526807"><ele>381.0</ele><time>2026-04-18T09:38:16.003Z</time></trkpt><trkpt lat="43.38016451262482" lon="10.910112108047638"><ele>380.1666666666667</ele><time>2026-04-18T09:38:17.003Z</time></trkpt><trkpt lat="43.38016093373338" lon="10.910230038052147"><ele>379.3333333333333</ele><time>2026-04-18T09:38:18.003Z</time></trkpt><trkpt lat="43.38016919766514" lon="10.91035006259655"><ele>378.5</ele><time>2026-04-18T09:38:19.003Z</time></trkpt><trkpt lat="43.380167403179236" lon="10.910455124508642"><ele>377.66666666666663</ele><time>2026-04-18T09:38:20.003Z</time></trkpt><trkpt lat="43.38016572291235" lon="10.910546484576702"><ele>376.8333333333333</ele><time>2026-04-18T09:38:21.003Z</time></trkpt><trkpt lat="43.38015991073981" lon="10.910636368750797"><ele>376.0</ele><time>2026-04-18T09:38:22.003Z</time></trkpt><trkpt lat="43.38011305799858" lon="10.91072003091295"><ele>376.0</ele><time>2026-04-18T09:38:23.003Z</time></trkpt><trkpt lat="43.38002216003415" lon="10.91074454069592"><ele>376.0</ele><time>2026-04-18T09:38:24.003Z</time></trkpt><trkpt lat="43.37993986530766" lon="10.910742371510228"><ele>376.0</ele><time>2026-04-18T09:38:25.003Z</time></trkpt><trkpt lat="43.37986170732078" lon="10.910721875387559"><ele>376.0</ele><time>2026-04-18T09:38:26.003Z</time></trkpt><trkpt lat="43.379797316845526" lon="10.910672797282547"><ele>376.0</ele><time>2026-04-18T09:38:27.003Z</time></trkpt><trkpt lat="43.379753088108245" lon="10.910584652349726"><ele>376.0</ele><time>2026-04-18T09:38:28.003Z</time></trkpt><trkpt lat="43.37974146562274" lon="10.910475110202796"><ele>376.0</ele><time>2026-04-18T09:38:29.003Z</time></trkpt><trkpt lat="43.37975335064618" lon="10.910368021487882"><ele>376.0</ele><time>2026-04-18T09:38:30.003Z</time></trkpt><trkpt lat="43.3797352050863" lon="10.910263739457935"><ele>376.0</ele><time>2026-04-18T09:38:31.003Z</time></trkpt><trkpt lat="43.379726701296626" lon="10.910161403438988"><ele>376.0</ele><time>2026-04-18T09:38:32.003Z</time></trkpt><trkpt lat="43.37968801047685" lon="10.910084557631162"><ele>376.0</ele><time>2026-04-18T09:38:33.003Z</time></trkpt><trkpt lat="43.37961955163325" lon="10.910029265303717"><ele>376.0</ele><time>2026-04-18T09:38:34.003Z</time></trkpt><trkpt lat="43.37952650781497" lon="10.910023706796729"><ele>373.5</ele><time>2026-04-18T09:38:35.003Z</time></trkpt><trkpt lat="43.3794325423162" lon="10.91005231639582"><ele>371.0</ele><time>2026-04-18T09:38:36.003Z</time></trkpt><trkpt lat="43.37935543031547" lon="10.910114949450731"><ele>368.5</ele><time>2026-04-18T09:38:37.003Z</time></trkpt><trkpt lat="43.37929080567652" lon="10.91020978407406"><ele>366.0</ele><time>2026-04-18T09:38:38.003Z</time></trkpt><trkpt lat="43.37925284922093" lon="10.910304721212981"><ele>363.5</ele><time>2026-04-18T09:38:39.003Z</time></trkpt><trkpt lat="43.379238122060784" lon="10.910419195226213"><ele>361.0</ele><time>2026-04-18T09:38:40.003Z</time></trkpt><trkpt lat="43.37923311795712" lon="10.910534309291615"><ele>361.0</ele><time>2026-04-18T09:38:41.003Z</time></trkpt><trkpt lat="43.37923006450591" lon="10.91064190338608"><ele>361.0</ele><time>2026-04-18T09:38:42.003Z</time></trkpt><trkpt lat="43.37923316560982" lon="10.910756699609069"><ele>361.0</ele><time>2026-04-18T09:38:43Z</time></trkpt><trkpt lat="43.379251568558054" lon="10.910863779712543"><ele>361.0</ele><time>2026-04-18T09:38:44Z</time></trkpt><trkpt lat="43.37928447157369" lon="10.910959755188943"><ele>361.0</ele><time>2026-04-18T09:38:45Z</time></trkpt><trkpt lat="43.37932019816143" lon="10.91105851929895"><ele>361.0</ele><time>2026-04-18T09:38:46Z</time></trkpt><trkpt lat="43.37935364331034" lon="10.911156292050851"><ele>360.16666666666663</ele><time>2026-04-18T09:38:47Z</time></trkpt><trkpt lat="43.379380690518566" lon="10.91124780537419"><ele>359.3333333333333</ele><time>2026-04-18T09:38:48Z</time></trkpt><trkpt lat="43.37940444879698" lon="10.911339163897182"><ele>358.5</ele><time>2026-04-18T09:38:49Z</time></trkpt><trkpt lat="43.3794209539087" lon="10.911435282985082"><ele>357.6666666666667</ele><time>2026-04-18T09:38:50Z</time></trkpt><trkpt lat="43.379424692712824" lon="10.911537259449076"><ele>356.83333333333337</ele><time>2026-04-18T09:38:51Z</time></trkpt><trkpt lat="43.37939622016451" lon="10.911638865662345"><ele>356.0</ele><time>2026-04-18T09:38:52Z</time></trkpt><trkpt lat="43.3793361040156" lon="10.911745363125956"><ele>354.20000000000005</ele><time>2026-04-18T09:38:53Z</time></trkpt><trkpt lat="43.37925209372572" lon="10.911830559312559"><ele>352.40000000000003</ele><time>2026-04-18T09:38:54Z</time></trkpt><trkpt lat="43.37915496472463" lon="10.911866949489369"><ele>350.6</ele><time>2026-04-18T09:38:55Z</time></trkpt><trkpt lat="43.379056163710246" lon="10.911887992517856"><ele>348.8</ele><time>2026-04-18T09:38:56Z</time></trkpt><trkpt lat="43.378957664646684" lon="10.911915009288883"><ele>347.0</ele><time>2026-04-18T09:38:57Z</time></trkpt><trkpt lat="43.378868033841144" lon="10.911949945919055"><ele>346.0</ele><time>2026-04-18T09:38:58Z</time></trkpt><trkpt lat="43.37877270189134" lon="10.911982437338043"><ele>345.0</ele><time>2026-04-18T09:38:59Z</time></trkpt><trkpt lat="43.37868089596521" lon="10.912008228751906"><ele>344.0</ele><time>2026-04-18T09:39:00Z</time></trkpt><trkpt lat="43.37859373465386" lon="10.912044641409842"><ele>343.0</ele><time>2026-04-18T09:39:01Z</time></trkpt><trkpt lat="43.37851252548523" lon="10.912100837353853"><ele>342.0</ele><time>2026-04-18T09:39:02Z</time></trkpt><trkpt lat="43.378432149535016" lon="10.912166767220231"><ele>342.0</ele><time>2026-04-18T09:39:03Z</time></trkpt><trkpt lat="43.378354791347085" lon="10.912256772790796"><ele>342.0</ele><time>2026-04-18T09:39:04Z</time></trkpt><trkpt lat="43.37828217961063" lon="10.912349821951308"><ele>342.0</ele><time>2026-04-18T09:39:05Z</time></trkpt><trkpt lat="43.37820999193435" lon="10.912437878283129"><ele>342.0</ele><time>2026-04-18T09:39:06Z</time></trkpt><trkpt lat="43.378144731899376" lon="10.912524086365776"><ele>342.0</ele><time>2026-04-18T09:39:07Z</time></trkpt><trkpt lat="43.37806058323588" lon="10.912592437015812"><ele>339.40000000000003</ele><time>2026-04-18T09:39:08Z</time></trkpt><trkpt lat="43.37798690006573" lon="10.91267159624492"><ele>336.8</ele><time>2026-04-18T09:39:09Z</time></trkpt><trkpt lat="43.3779111443739" lon="10.912757555159487"><ele>334.2</ele><time>2026-04-18T09:39:10Z</time></trkpt><trkpt lat="43.37781830996639" lon="10.912812086734922"><ele>331.6</ele><time>2026-04-18T09:39:11Z</time></trkpt><trkpt lat="43.37772443737206" lon="10.912856421816072"><ele>329.0</ele><time>2026-04-18T09:39:12Z</time></trkpt><trkpt lat="43.37762257045575" lon="10.912875985298312"><ele>329.0</ele><time>2026-04-18T09:39:13.001Z</time></trkpt><trkpt lat="43.37752930604272" lon="10.912893377145911"><ele>329.0</ele><time>2026-04-18T09:39:14.001Z</time></trkpt><trkpt lat="43.37743713953347" lon="10.912902285033253"><ele>329.0</ele><time>2026-04-18T09:39:15.001Z</time></trkpt><trkpt lat="43.37733740819679" lon="10.912896495218472"><ele>329.0</ele><time>2026-04-18T09:39:16.001Z</time></trkpt><trkpt lat="43.377241936415814" lon="10.912878932716522"><ele>329.0</ele><time>2026-04-18T09:39:17.001Z</time></trkpt><trkpt lat="43.37715034607841" lon="10.912845015466495"><ele>329.0</ele><time>2026-04-18T09:39:18.001Z</time></trkpt><trkpt lat="43.37706688085195" lon="10.912789894796655"><ele>329.0</ele><time>2026-04-18T09:39:19.001Z</time></trkpt><trkpt lat="43.376994047625196" lon="10.91270218920206"><ele>329.0</ele><time>2026-04-18T09:39:20.001Z</time></trkpt><trkpt lat="43.37690543529003" lon="10.9126128001835"><ele>329.0</ele><time>2026-04-18T09:39:21.001Z</time></trkpt><trkpt lat="43.376815479607195" lon="10.912517182456018"><ele>329.0</ele><time>2026-04-18T09:39:22.001Z</time></trkpt><trkpt lat="43.37672605630472" lon="10.912427918825355"><ele>329.6</ele><time>2026-04-18T09:39:23.001Z</time></trkpt><trkpt lat="43.376625559074036" lon="10.912366023991932"><ele>330.2</ele><time>2026-04-18T09:39:24.001Z</time></trkpt><trkpt lat="43.376521287674834" lon="10.912317194174182"><ele>330.8</ele><time>2026-04-18T09:39:25.001Z</time></trkpt><trkpt lat="43.37641813366438" lon="10.912272023683755"><ele>331.40000000000003</ele><time>2026-04-18T09:39:26.001Z</time></trkpt><trkpt lat="43.37632394618374" lon="10.912212092513363"><ele>332.0</ele><time>2026-04-18T09:39:27.001Z</time></trkpt><trkpt lat="43.376229915652395" lon="10.912130284127262"><ele>333.0</ele><time>2026-04-18T09:39:28.001Z</time></trkpt><trkpt lat="43.37613130829349" lon="10.912040935927674"><ele>334.0</ele><time>2026-04-18T09:39:29.001Z</time></trkpt><trkpt lat="43.376034328800536" lon="10.911958405360966"><ele>335.0</ele><time>2026-04-18T09:39:30.001Z</time></trkpt><trkpt lat="43.375949332027005" lon="10.911858105919382"><ele>336.0</ele><time>2026-04-18T09:39:31.001Z</time></trkpt><trkpt lat="43.37586336813978" lon="10.911752789177823"><ele>333.5</ele><time>2026-04-18T09:39:32.001Z</time></trkpt><trkpt lat="43.375774207692096" lon="10.911634613280457"><ele>331.0</ele><time>2026-04-18T09:39:33.001Z</time></trkpt><trkpt lat="43.375686587700415" lon="10.911515522660356"><ele>328.5</ele><time>2026-04-18T09:39:34.001Z</time></trkpt><trkpt lat="43.375599336652314" lon="10.911401550376926"><ele>326.0</ele><time>2026-04-18T09:39:35.001Z</time></trkpt><trkpt lat="43.37552871120792" lon="10.911274129716547"><ele>327.0</ele><time>2026-04-18T09:39:36.001Z</time></trkpt><trkpt lat="43.37545040110762" lon="10.911156980910059"><ele>328.0</ele><time>2026-04-18T09:39:37.001Z</time></trkpt><trkpt lat="43.3753681899403" lon="10.911050076198118"><ele>329.0</ele><time>2026-04-18T09:39:38.001Z</time></trkpt><trkpt lat="43.37527573521077" lon="10.910973047958084"><ele>330.0</ele><time>2026-04-18T09:39:39.001Z</time></trkpt><trkpt lat="43.375185681132834" lon="10.910893329137618"><ele>331.0</ele><time>2026-04-18T09:39:40.001Z</time></trkpt><trkpt lat="43.37510949541621" lon="10.910790636423172"><ele>327.5</ele><time>2026-04-18T09:39:41.001Z</time></trkpt><trkpt lat="43.375037729919676" lon="10.910684608969532"><ele>324.0</ele><time>2026-04-18T09:39:42.001Z</time></trkpt><trkpt lat="43.3749590723652" lon="10.910560606332051"><ele>320.5</ele><time>2026-04-18T09:39:43.001Z</time></trkpt><trkpt lat="43.37491277266395" lon="10.910398534462555"><ele>317.0</ele><time>2026-04-18T09:39:44.001Z</time></trkpt><trkpt lat="43.374848269735374" lon="10.91024895530242"><ele>317.0</ele><time>2026-04-18T09:39:45.001Z</time></trkpt><trkpt lat="43.37479862702424" lon="10.910102362274122"><ele>317.0</ele><time>2026-04-18T09:39:46.001Z</time></trkpt><trkpt lat="43.37474819659954" lon="10.909965888278691"><ele>317.0</ele><time>2026-04-18T09:39:47.001Z</time></trkpt><trkpt lat="43.37469524607106" lon="10.909824152260441"><ele>317.0</ele><time>2026-04-18T09:39:48.001Z</time></trkpt><trkpt lat="43.37463941126449" lon="10.90968444319254"><ele>313.5</ele><time>2026-04-18T09:39:49.001Z</time></trkpt><trkpt lat="43.374548274617624" lon="10.909565341898851"><ele>310.0</ele><time>2026-04-18T09:39:50.001Z</time></trkpt><trkpt lat="43.37446208080938" lon="10.909459493326073"><ele>306.5</ele><time>2026-04-18T09:39:51.001Z</time></trkpt><trkpt lat="43.37438536236956" lon="10.909330760304933"><ele>303.0</ele><time>2026-04-18T09:39:52.002Z</time></trkpt><trkpt lat="43.37428853171035" lon="10.909224903559785"><ele>303.0</ele><time>2026-04-18T09:39:53.002Z</time></trkpt><trkpt lat="43.37420018476196" lon="10.909129464718466"><ele>303.0</ele><time>2026-04-18T09:39:54.002Z</time></trkpt><trkpt lat="43.37412373936415" lon="10.909025588046166"><ele>303.0</ele><time>2026-04-18T09:39:55.002Z</time></trkpt><trkpt lat="43.374043483400484" lon="10.908915334631091"><ele>303.0</ele><time>2026-04-18T09:39:56.002Z</time></trkpt><trkpt lat="43.37395983682214" lon="10.908806838232167"><ele>303.0</ele><time>2026-04-18T09:39:57.002Z</time></trkpt><trkpt lat="43.37386642352772" lon="10.908704264441031"><ele>303.25</ele><time>2026-04-18T09:39:58.002Z</time></trkpt><trkpt lat="43.37377012789622" lon="10.908612164247069"><ele>303.5</ele><time>2026-04-18T09:39:59.002Z</time></trkpt><trkpt lat="43.37365826085272" lon="10.908531253994983"><ele>303.75</ele><time>2026-04-18T09:40:00.002Z</time></trkpt><trkpt lat="43.37354552451344" lon="10.908472899757927"><ele>304.0</ele><time>2026-04-18T09:40:01.002Z</time></trkpt><trkpt lat="43.37343619562919" lon="10.908407556027123"><ele>304.0</ele><time>2026-04-18T09:40:02.002Z</time></trkpt><trkpt lat="43.37332636239062" lon="10.908341496923539"><ele>304.0</ele><time>2026-04-18T09:40:03.002Z</time></trkpt><trkpt lat="43.37321982731738" lon="10.908266190336857"><ele>304.0</ele><time>2026-04-18T09:40:04.002Z</time></trkpt><trkpt lat="43.37311046424076" lon="10.908205227046627"><ele>304.0</ele><time>2026-04-18T09:40:05.002Z</time></trkpt><trkpt lat="43.37301408944886" lon="10.908135007305134"><ele>304.0</ele><time>2026-04-18T09:40:06.002Z</time></trkpt><trkpt lat="43.37291280216249" lon="10.908067984605742"><ele>304.0</ele><time>2026-04-18T09:40:07.002Z</time></trkpt><trkpt lat="43.3728112923964" lon="10.908001927003953"><ele>304.0</ele><time>2026-04-18T09:40:08.002Z</time></trkpt><trkpt lat="43.37270349768341" lon="10.907942156916222"><ele>304.0</ele><time>2026-04-18T09:40:09.002Z</time></trkpt><trkpt lat="43.37259000875064" lon="10.907885528042723"><ele>304.0</ele><time>2026-04-18T09:40:10.002Z</time></trkpt><trkpt lat="43.37247724497203" lon="10.907826151388582"><ele>304.0</ele><time>2026-04-18T09:40:11.002Z</time></trkpt><trkpt lat="43.37236048354569" lon="10.90777019560745"><ele>304.0</ele><time>2026-04-18T09:40:12.002Z</time></trkpt><trkpt lat="43.37224163270717" lon="10.907713735269068"><ele>304.0</ele><time>2026-04-18T09:40:13.002Z</time></trkpt><trkpt lat="43.37212843508592" lon="10.907662026938501"><ele>304.0</ele><time>2026-04-18T09:40:14.002Z</time></trkpt><trkpt lat="43.372015187214615" lon="10.907611333467322"><ele>304.0</ele><time>2026-04-18T09:40:15.002Z</time></trkpt><trkpt lat="43.37190196209516" lon="10.90755712076157"><ele>304.0</ele><time>2026-04-18T09:40:16.002Z</time></trkpt><trkpt lat="43.371787570871" lon="10.907497196743876"><ele>304.0</ele><time>2026-04-18T09:40:17.002Z</time></trkpt><trkpt lat="43.37167639692937" lon="10.907438779628722"><ele>303.8</ele><time>2026-04-18T09:40:18.002Z</time></trkpt><trkpt lat="43.371569652884034" lon="10.907390244961125"><ele>303.59999999999997</ele><time>2026-04-18T09:40:19.002Z</time></trkpt><trkpt lat="43.371466505355166" lon="10.907342381267295"><ele>303.4</ele><time>2026-04-18T09:40:20.002Z</time></trkpt><trkpt lat="43.371368599903825" lon="10.907293489782319"><ele>303.2</ele><time>2026-04-18T09:40:21.002Z</time></trkpt><trkpt lat="43.37128270278608" lon="10.907241634943484"><ele>303.0</ele><time>2026-04-18T09:40:22.002Z</time></trkpt><trkpt lat="43.3711899424364" lon="10.907207830857704"><ele>303.0</ele><time>2026-04-18T09:40:23.002Z</time></trkpt><trkpt lat="43.371104481847645" lon="10.907184378483676"><ele>303.0</ele><time>2026-04-18T09:40:24.002Z</time></trkpt><trkpt lat="43.37102623005364" lon="10.907152778486157"><ele>303.0</ele><time>2026-04-18T09:40:25.002Z</time></trkpt><trkpt lat="43.370956206942694" lon="10.907121541365283"><ele>303.0</ele><time>2026-04-18T09:40:26.002Z</time></trkpt><trkpt lat="43.37089088240779" lon="10.907091924651057"><ele>303.0</ele><time>2026-04-18T09:40:27.002Z</time></trkpt><trkpt lat="43.37083696922922" lon="10.907040643285516"><ele>303.0</ele><time>2026-04-18T09:40:28.003Z</time></trkpt><trkpt lat="43.370698665738885" lon="10.907109278160018"><ele>303.0</ele><time>2026-04-18T09:40:30.003Z</time></trkpt><trkpt lat="43.37062125952025" lon="10.907118016486443"><ele>303.0</ele><time>2026-04-18T09:40:31.003Z</time></trkpt><trkpt lat="43.370542831064725" lon="10.907138100682399"><ele>303.0</ele><time>2026-04-18T09:40:32.003Z</time></trkpt><trkpt lat="43.37046472163896" lon="10.90715492926765"><ele>303.0</ele><time>2026-04-18T09:40:33.003Z</time></trkpt><trkpt lat="43.370395395347494" lon="10.907161224797775"><ele>303.0</ele><time>2026-04-18T09:40:34.003Z</time></trkpt><trkpt lat="43.370315563156616" lon="10.90717491586045"><ele>303.0</ele><time>2026-04-18T09:40:35.003Z</time></trkpt><trkpt lat="43.37021992060666" lon="10.907193019167023"><ele>302.0</ele><time>2026-04-18T09:40:36.003Z</time></trkpt><trkpt lat="43.370119811323825" lon="10.90718391093194"><ele>301.0</ele><time>2026-04-18T09:40:37.003Z</time></trkpt><trkpt lat="43.370021737453726" lon="10.907193148545586"><ele>300.0</ele><time>2026-04-18T09:40:38.003Z</time></trkpt><trkpt lat="43.369915621986465" lon="10.90723914937567"><ele>299.0</ele><time>2026-04-18T09:40:39.003Z</time></trkpt><trkpt lat="43.36981413883401" lon="10.907297836629217"><ele>298.0</ele><time>2026-04-18T09:40:40.003Z</time></trkpt><trkpt lat="43.36970426252902" lon="10.907335706088663"><ele>298.3333333333333</ele><time>2026-04-18T09:40:41.003Z</time></trkpt><trkpt lat="43.369609129851476" lon="10.907377630713274"><ele>298.66666666666663</ele><time>2026-04-18T09:40:42.003Z</time></trkpt><trkpt lat="43.36953411128787" lon="10.907430684968496"><ele>299.0</ele><time>2026-04-18T09:40:43.003Z</time></trkpt><trkpt lat="43.36947231437414" lon="10.907453315677868"><ele>299.3333333333333</ele><time>2026-04-18T09:40:44.003Z</time></trkpt><trkpt lat="43.36940535558486" lon="10.907470067065118"><ele>299.6666666666667</ele><time>2026-04-18T09:40:45.003Z</time></trkpt><trkpt lat="43.36934051414891" lon="10.907496761544863"><ele>300.0</ele><time>2026-04-18T09:40:46.003Z</time></trkpt><trkpt lat="43.369270122354614" lon="10.90753413411142"><ele>300.0</ele><time>2026-04-18T09:40:47.003Z</time></trkpt><trkpt lat="43.3691965014766" lon="10.907562682775032"><ele>300.0</ele><time>2026-04-18T09:40:48.003Z</time></trkpt><trkpt lat="43.36910433912384" lon="10.90759006207241"><ele>300.0</ele><time>2026-04-18T09:40:49Z</time></trkpt><trkpt lat="43.36900669503156" lon="10.907603416886328"><ele>300.0</ele><time>2026-04-18T09:40:50Z</time></trkpt><trkpt lat="43.368912902667056" lon="10.907607589342994"><ele>300.0</ele><time>2026-04-18T09:40:51Z</time></trkpt><trkpt lat="43.368825559197006" lon="10.907579383586766"><ele>298.2857142857143</ele><time>2026-04-18T09:40:52Z</time></trkpt><trkpt lat="43.368740037944015" lon="10.907545694972889"><ele>296.57142857142856</ele><time>2026-04-18T09:40:53Z</time></trkpt><trkpt lat="43.368678864682174" lon="10.907493227193536"><ele>294.8571428571429</ele><time>2026-04-18T09:40:54Z</time></trkpt><trkpt lat="43.368615479307365" lon="10.90745746857023"><ele>293.1428571428571</ele><time>2026-04-18T09:40:55Z</time></trkpt><trkpt lat="43.368551667474705" lon="10.907420177436634"><ele>291.42857142857144</ele><time>2026-04-18T09:40:56Z</time></trkpt><trkpt lat="43.36849237144028" lon="10.907378220441815"><ele>289.7142857142857</ele><time>2026-04-18T09:40:57Z</time></trkpt><trkpt lat="43.368433363017736" lon="10.907331103746646"><ele>288.0</ele><time>2026-04-18T09:40:58Z</time></trkpt><trkpt lat="43.36837062418163" lon="10.907280870109663"><ele>288.0</ele><time>2026-04-18T09:40:59Z</time></trkpt><trkpt lat="43.368311734824694" lon="10.907231667169476"><ele>288.0</ele><time>2026-04-18T09:41:00Z</time></trkpt><trkpt lat="43.36823591859776" lon="10.907191420446331"><ele>288.0</ele><time>2026-04-18T09:41:01Z</time></trkpt><trkpt lat="43.36813832954267" lon="10.907143384196715"><ele>288.0</ele><time>2026-04-18T09:41:03Z</time></trkpt><trkpt lat="43.36807472158378" lon="10.90711838512437"><ele>288.0</ele><time>2026-04-18T09:41:13Z</time></trkpt><trkpt lat="43.36801079331925" lon="10.907108024063806"><ele>288.0</ele><time>2026-04-18T09:41:15Z</time></trkpt><trkpt lat="43.36792059771721" lon="10.907095157612789"><ele>286.0</ele><time>2026-04-18T09:41:17Z</time></trkpt><trkpt lat="43.36785718542818" lon="10.90708162328316"><ele>284.0</ele><time>2026-04-18T09:41:18Z</time></trkpt><trkpt lat="43.367781430708035" lon="10.90707475879014"><ele>282.0</ele><time>2026-04-18T09:41:19Z</time></trkpt><trkpt lat="43.367706273258804" lon="10.907081666914648"><ele>280.0</ele><time>2026-04-18T09:41:20.001Z</time></trkpt><trkpt lat="43.36762503602719" lon="10.907088414735929"><ele>278.0</ele><time>2026-04-18T09:41:21.001Z</time></trkpt><trkpt lat="43.36754400688832" lon="10.90708644827515"><ele>276.0</ele><time>2026-04-18T09:41:22.001Z</time></trkpt><trkpt lat="43.36746938454588" lon="10.907064898009017"><ele>276.0</ele><time>2026-04-18T09:41:23.001Z</time></trkpt><trkpt lat="43.367396403419285" lon="10.907025653970072"><ele>276.0</ele><time>2026-04-18T09:41:24.001Z</time></trkpt><trkpt lat="43.36731696933243" lon="10.906979084855708"><ele>276.0</ele><time>2026-04-18T09:41:25.001Z</time></trkpt><trkpt lat="43.367247914909306" lon="10.906904437594608"><ele>276.0</ele><time>2026-04-18T09:41:26.001Z</time></trkpt><trkpt lat="43.36716398327423" lon="10.906844830684275"><ele>276.0</ele><time>2026-04-18T09:41:27.001Z</time></trkpt><trkpt lat="43.3670872381921" lon="10.906794011663672"><ele>276.0</ele><time>2026-04-18T09:41:28.001Z</time></trkpt><trkpt lat="43.3670098699567" lon="10.90674190304311"><ele>276.0</ele><time>2026-04-18T09:41:29.001Z</time></trkpt><trkpt lat="43.36693665407809" lon="10.906700344422628"><ele>276.0</ele><time>2026-04-18T09:41:30.001Z</time></trkpt><trkpt lat="43.36686460795838" lon="10.90663709702277"><ele>276.0</ele><time>2026-04-18T09:41:31.001Z</time></trkpt><trkpt lat="43.36678314802101" lon="10.906574551620213"><ele>276.0</ele><time>2026-04-18T09:41:32.001Z</time></trkpt><trkpt lat="43.366708710764236" lon="10.906508343668797"><ele>276.0</ele><time>2026-04-18T09:41:33.001Z</time></trkpt><trkpt lat="43.36664135765693" lon="10.906434308626201"><ele>276.0</ele><time>2026-04-18T09:41:34.001Z</time></trkpt><trkpt lat="43.36657196759374" lon="10.906364511812162"><ele>276.0</ele><time>2026-04-18T09:41:35.001Z</time></trkpt><trkpt lat="43.36650436780468" lon="10.906291980545877"><ele>276.0</ele><time>2026-04-18T09:41:36.001Z</time></trkpt><trkpt lat="43.366446535105304" lon="10.906220839450631"><ele>276.0</ele><time>2026-04-18T09:41:37.001Z</time></trkpt><trkpt lat="43.366374031204195" lon="10.9061479955676"><ele>276.0</ele><time>2026-04-18T09:41:38.001Z</time></trkpt><trkpt lat="43.366302022423966" lon="10.906072884900844"><ele>276.0</ele><time>2026-04-18T09:41:39.001Z</time></trkpt><trkpt lat="43.36623298561993" lon="10.906001270922198"><ele>276.0</ele><time>2026-04-18T09:41:40.001Z</time></trkpt><trkpt lat="43.36617033436921" lon="10.905928664490697"><ele>276.1666666666667</ele><time>2026-04-18T09:41:41.001Z</time></trkpt><trkpt lat="43.36610474256893" lon="10.905859302857081"><ele>276.3333333333333</ele><time>2026-04-18T09:41:42.001Z</time></trkpt><trkpt lat="43.36603176972102" lon="10.905803161122506"><ele>276.5</ele><time>2026-04-18T09:41:43.001Z</time></trkpt><trkpt lat="43.36595219543555" lon="10.90577489256103"><ele>276.66666666666663</ele><time>2026-04-18T09:41:44.001Z</time></trkpt><trkpt lat="43.36586179676726" lon="10.905760789173382"><ele>276.8333333333333</ele><time>2026-04-18T09:41:45.001Z</time></trkpt><trkpt lat="43.36576976666363" lon="10.905758926309629"><ele>277.0</ele><time>2026-04-18T09:41:46.001Z</time></trkpt><trkpt lat="43.36567114037789" lon="10.905757690267016"><ele>277.0</ele><time>2026-04-18T09:41:47.001Z</time></trkpt><trkpt lat="43.36556198257078" lon="10.905762157315033"><ele>277.0</ele><time>2026-04-18T09:41:48.001Z</time></trkpt><trkpt lat="43.36544976651471" lon="10.905767777803545"><ele>277.0</ele><time>2026-04-18T09:41:49.001Z</time></trkpt><trkpt lat="43.36534416795626" lon="10.905774485724455"><ele>277.0</ele><time>2026-04-18T09:41:50.001Z</time></trkpt><trkpt lat="43.36524251837731" lon="10.905773965676127"><ele>277.0</ele><time>2026-04-18T09:41:51.001Z</time></trkpt><trkpt lat="43.36514454787149" lon="10.905769738638401"><ele>276.8</ele><time>2026-04-18T09:41:52.001Z</time></trkpt><trkpt lat="43.36504741223336" lon="10.905766538957048"><ele>276.6</ele><time>2026-04-18T09:41:53.001Z</time></trkpt><trkpt lat="43.36494678224502" lon="10.905750246704219"><ele>276.40000000000003</ele><time>2026-04-18T09:41:54.001Z</time></trkpt><trkpt lat="43.36486931363479" lon="10.905712212924666"><ele>276.2</ele><time>2026-04-18T09:41:55.001Z</time></trkpt><trkpt lat="43.364773536142664" lon="10.905654856933076"><ele>276.0</ele><time>2026-04-18T09:41:56.001Z</time></trkpt><trkpt lat="43.36467979260902" lon="10.905595580163569"><ele>277.8</ele><time>2026-04-18T09:41:57.001Z</time></trkpt><trkpt lat="43.36457890080866" lon="10.90554110236676"><ele>279.6</ele><time>2026-04-18T09:41:58.001Z</time></trkpt><trkpt lat="43.36447898101899" lon="10.905484292882644"><ele>281.4</ele><time>2026-04-18T09:41:59.001Z</time></trkpt><trkpt lat="43.36438074499351" lon="10.905421190942132"><ele>283.2</ele><time>2026-04-18T09:42:00.001Z</time></trkpt><trkpt lat="43.36428185407581" lon="10.905353774548367"><ele>285.0</ele><time>2026-04-18T09:42:01.002Z</time></trkpt><trkpt lat="43.36418439395445" lon="10.905291014429901"><ele>285.0</ele><time>2026-04-18T09:42:02.002Z</time></trkpt><trkpt lat="43.364086449200244" lon="10.905228257801689"><ele>285.0</ele><time>2026-04-18T09:42:03.002Z</time></trkpt><trkpt lat="43.36398510964646" lon="10.905170833869612"><ele>285.0</ele><time>2026-04-18T09:42:04.002Z</time></trkpt><trkpt lat="43.36388116170584" lon="10.905121192030371"><ele>285.0</ele><time>2026-04-18T09:42:05.002Z</time></trkpt><trkpt lat="43.36379087933819" lon="10.905058815008461"><ele>285.0</ele><time>2026-04-18T09:42:06.002Z</time></trkpt><trkpt lat="43.36369664125833" lon="10.904999302732831"><ele>285.6</ele><time>2026-04-18T09:42:07.002Z</time></trkpt><trkpt lat="43.363607388113785" lon="10.904939913502421"><ele>286.2</ele><time>2026-04-18T09:42:08.002Z</time></trkpt><trkpt lat="43.36352875240054" lon="10.904858875909342"><ele>286.8</ele><time>2026-04-18T09:42:09.002Z</time></trkpt><trkpt lat="43.36342841607005" lon="10.904795526129622"><ele>287.4</ele><time>2026-04-18T09:42:10.002Z</time></trkpt><trkpt lat="43.36333308158434" lon="10.904722524409538"><ele>288.0</ele><time>2026-04-18T09:42:11.002Z</time></trkpt><trkpt lat="43.36322665333061" lon="10.904667059935699"><ele>288.0</ele><time>2026-04-18T09:42:12.002Z</time></trkpt><trkpt lat="43.36311059959064" lon="10.904633298465201"><ele>288.0</ele><time>2026-04-18T09:42:13.002Z</time></trkpt><trkpt lat="43.36298796527685" lon="10.904612420863875"><ele>288.0</ele><time>2026-04-18T09:42:14.002Z</time></trkpt><trkpt lat="43.36286760553691" lon="10.904584667297575"><ele>288.0</ele><time>2026-04-18T09:42:15.002Z</time></trkpt><trkpt lat="43.36275254057401" lon="10.904548222418379"><ele>288.0</ele><time>2026-04-18T09:42:16.002Z</time></trkpt><trkpt lat="43.36264096769039" lon="10.90451286410036"><ele>288.0</ele><time>2026-04-18T09:42:17.002Z</time></trkpt><trkpt lat="43.36253397177613" lon="10.904482841989928"><ele>288.0</ele><time>2026-04-18T09:42:18.002Z</time></trkpt><trkpt lat="43.36242270330812" lon="10.904459488708062"><ele>288.0</ele><time>2026-04-18T09:42:19.002Z</time></trkpt><trkpt lat="43.362312508453975" lon="10.904447476340001"><ele>288.0</ele><time>2026-04-18T09:42:20.002Z</time></trkpt><trkpt lat="43.36220946320328" lon="10.904443468233634"><ele>286.6</ele><time>2026-04-18T09:42:21.002Z</time></trkpt><trkpt lat="43.36211494236039" lon="10.904437189736923"><ele>285.20000000000005</ele><time>2026-04-18T09:42:22.002Z</time></trkpt><trkpt lat="43.362020431711215" lon="10.904415705600657"><ele>283.8</ele><time>2026-04-18T09:42:23.002Z</time></trkpt><trkpt lat="43.36191783287131" lon="10.904377952603127"><ele>282.40000000000003</ele><time>2026-04-18T09:42:24.002Z</time></trkpt><trkpt lat="43.36181570123302" lon="10.904334586317603"><ele>281.0</ele><time>2026-04-18T09:42:25.002Z</time></trkpt><trkpt lat="43.361710777156205" lon="10.90429198935928"><ele>281.0</ele><time>2026-04-18T09:42:26.002Z</time></trkpt><trkpt lat="43.361606233252026" lon="10.904254618404304"><ele>281.0</ele><time>2026-04-18T09:42:27.002Z</time></trkpt><trkpt lat="43.36150825998304" lon="10.904216175876309"><ele>281.0</ele><time>2026-04-18T09:42:28.002Z</time></trkpt><trkpt lat="43.36141880983949" lon="10.904180615824966"><ele>281.0</ele><time>2026-04-18T09:42:29.002Z</time></trkpt><trkpt lat="43.3613305294214" lon="10.90414278331953"><ele>281.0</ele><time>2026-04-18T09:42:30.002Z</time></trkpt><trkpt lat="43.361250328438715" lon="10.904112898361404"><ele>280.83333333333337</ele><time>2026-04-18T09:42:31.002Z</time></trkpt><trkpt lat="43.36117594692596" lon="10.904085134132844"><ele>280.6666666666667</ele><time>2026-04-18T09:42:32.002Z</time></trkpt><trkpt lat="43.36110602324303" lon="10.904060728009732"><ele>280.5</ele><time>2026-04-18T09:42:33.002Z</time></trkpt><trkpt lat="43.36104013223621" lon="10.90403799056367"><ele>280.3333333333333</ele><time>2026-04-18T09:42:34.002Z</time></trkpt><trkpt lat="43.360978886033934" lon="10.904015848592849"><ele>280.16666666666663</ele><time>2026-04-18T09:42:35.002Z</time></trkpt><trkpt lat="43.36086398769905" lon="10.903982787746552"><ele>280.0</ele><time>2026-04-18T09:42:37.002Z</time></trkpt><trkpt lat="43.36076699945725" lon="10.903960564284874"><ele>280.0</ele><time>2026-04-18T09:42:39.003Z</time></trkpt><trkpt lat="43.360692852714635" lon="10.903951056654506"><ele>280.0</ele><time>2026-04-18T09:42:43.003Z</time></trkpt><trkpt lat="43.3606025914431" lon="10.903929003075522"><ele>280.0</ele><time>2026-04-18T09:43:07Z</time></trkpt><trkpt lat="43.36046564202581" lon="10.903901940452203"><ele>280.0</ele><time>2026-04-18T09:43:09Z</time></trkpt><trkpt lat="43.36037673670384" lon="10.903904209374975"><ele>280.0</ele><time>2026-04-18T09:43:10Z</time></trkpt><trkpt lat="43.360300413682296" lon="10.903921293142087"><ele>279.5</ele><time>2026-04-18T09:43:11Z</time></trkpt><trkpt lat="43.36022539782052" lon="10.903948205027048"><ele>279.0</ele><time>2026-04-18T09:43:12Z</time></trkpt><trkpt lat="43.36013978304431" lon="10.903986937600248"><ele>278.5</ele><time>2026-04-18T09:43:13Z</time></trkpt><trkpt lat="43.360049939584066" lon="10.904027791574972"><ele>278.0</ele><time>2026-04-18T09:43:14Z</time></trkpt><trkpt lat="43.359968153281045" lon="10.904067733046926"><ele>277.5</ele><time>2026-04-18T09:43:15Z</time></trkpt><trkpt lat="43.359884838886266" lon="10.904114475343738"><ele>277.0</ele><time>2026-04-18T09:43:16Z</time></trkpt><trkpt lat="43.35979875710283" lon="10.904166138056365"><ele>277.0</ele><time>2026-04-18T09:43:17Z</time></trkpt><trkpt lat="43.35971445094753" lon="10.904212792059074"><ele>277.0</ele><time>2026-04-18T09:43:18Z</time></trkpt><trkpt lat="43.35962969662628" lon="10.904249387710376"><ele>277.0</ele><time>2026-04-18T09:43:19.001Z</time></trkpt><trkpt lat="43.35954739322194" lon="10.904284774683553"><ele>277.0</ele><time>2026-04-18T09:43:20.001Z</time></trkpt><trkpt lat="43.35947118705247" lon="10.904320133800514"><ele>277.0</ele><time>2026-04-18T09:43:21.001Z</time></trkpt><trkpt lat="43.35939975353233" lon="10.904358748267803"><ele>277.0</ele><time>2026-04-18T09:43:22.001Z</time></trkpt><trkpt lat="43.35933244010109" lon="10.90439048082062"><ele>276.4</ele><time>2026-04-18T09:43:23.001Z</time></trkpt><trkpt lat="43.35926785811751" lon="10.904433277479537"><ele>275.79999999999995</ele><time>2026-04-18T09:43:24.001Z</time></trkpt><trkpt lat="43.359194226179476" lon="10.904495130271037"><ele>275.2</ele><time>2026-04-18T09:43:25.001Z</time></trkpt><trkpt lat="43.359130531307336" lon="10.9045869217183"><ele>274.59999999999997</ele><time>2026-04-18T09:43:26.001Z</time></trkpt><trkpt lat="43.3590546286732" lon="10.904681617880659"><ele>274.0</ele><time>2026-04-18T09:43:27.001Z</time></trkpt><trkpt lat="43.35897695298877" lon="10.904764480203607"><ele>274.0</ele><time>2026-04-18T09:43:28.001Z</time></trkpt><trkpt lat="43.35889135761425" lon="10.90483378976306"><ele>274.0</ele><time>2026-04-18T09:43:29.001Z</time></trkpt><trkpt lat="43.3587992247845" lon="10.904882260654027"><ele>274.0</ele><time>2026-04-18T09:43:30.001Z</time></trkpt><trkpt lat="43.35870074464579" lon="10.904901311109029"><ele>274.0</ele><time>2026-04-18T09:43:31.001Z</time></trkpt><trkpt lat="43.35859485479841" lon="10.904914450674312"><ele>274.0</ele><time>2026-04-18T09:43:32.001Z</time></trkpt><trkpt lat="43.35848733951262" lon="10.904901091717429"><ele>274.0</ele><time>2026-04-18T09:43:33.001Z</time></trkpt><trkpt lat="43.35838960820949" lon="10.904893331774437"><ele>274.0</ele><time>2026-04-18T09:43:34.001Z</time></trkpt><trkpt lat="43.35828693525061" lon="10.904864908756442"><ele>274.0</ele><time>2026-04-18T09:43:35.001Z</time></trkpt><trkpt lat="43.358176531387564" lon="10.904840069720645"><ele>274.0</ele><time>2026-04-18T09:43:36.001Z</time></trkpt><trkpt lat="43.35807066531931" lon="10.904769000896387"><ele>274.0</ele><time>2026-04-18T09:43:37.001Z</time></trkpt><trkpt lat="43.357974679958375" lon="10.904703649221052"><ele>274.0</ele><time>2026-04-18T09:43:38.001Z</time></trkpt><trkpt lat="43.357896367254526" lon="10.904614135187485"><ele>274.0</ele><time>2026-04-18T09:43:39.001Z</time></trkpt><trkpt lat="43.357805384934615" lon="10.904554802763403"><ele>274.0</ele><time>2026-04-18T09:43:40.001Z</time></trkpt><trkpt lat="43.35771329736264" lon="10.904473793888872"><ele>274.0</ele><time>2026-04-18T09:43:41.001Z</time></trkpt><trkpt lat="43.35762486174496" lon="10.904390042674049"><ele>274.0</ele><time>2026-04-18T09:43:42.001Z</time></trkpt><trkpt lat="43.357520181063514" lon="10.904345309311434"><ele>274.0</ele><time>2026-04-18T09:43:43.001Z</time></trkpt><trkpt lat="43.357439723670566" lon="10.904325041311791"><ele>274.0</ele><time>2026-04-18T09:43:44.001Z</time></trkpt><trkpt lat="43.35735742024452" lon="10.904321592300542"><ele>274.0</ele><time>2026-04-18T09:43:45.001Z</time></trkpt><trkpt lat="43.35727040839216" lon="10.904325371654586"><ele>274.0</ele><time>2026-04-18T09:43:46.001Z</time></trkpt><trkpt lat="43.35718462847537" lon="10.90432636387469"><ele>274.0</ele><time>2026-04-18T09:43:47.001Z</time></trkpt><trkpt lat="43.35708221139379" lon="10.904336489298023"><ele>274.0</ele><time>2026-04-18T09:43:48.001Z</time></trkpt><trkpt lat="43.35697101054203" lon="10.904331529765521"><ele>272.75</ele><time>2026-04-18T09:43:49.001Z</time></trkpt><trkpt lat="43.356858508955284" lon="10.904341822832155"><ele>271.5</ele><time>2026-04-18T09:43:50.001Z</time></trkpt><trkpt lat="43.35674620670717" lon="10.904340436598655"><ele>270.25</ele><time>2026-04-18T09:43:51.001Z</time></trkpt><trkpt lat="43.35663182490634" lon="10.904349611017572"><ele>269.0</ele><time>2026-04-18T09:43:52.001Z</time></trkpt><trkpt lat="43.35651803683814" lon="10.90435669839583"><ele>269.0</ele><time>2026-04-18T09:43:53.001Z</time></trkpt><trkpt lat="43.35641113799119" lon="10.904366199702766"><ele>269.0</ele><time>2026-04-18T09:43:54.001Z</time></trkpt><trkpt lat="43.356310330670446" lon="10.904375107199865"><ele>269.0</ele><time>2026-04-18T09:43:55.001Z</time></trkpt><trkpt lat="43.35619845301084" lon="10.90434694234457"><ele>269.0</ele><time>2026-04-18T09:43:56.001Z</time></trkpt><trkpt lat="43.35608761082751" lon="10.90431245135282"><ele>269.0</ele><time>2026-04-18T09:43:57.001Z</time></trkpt><trkpt lat="43.35597427639022" lon="10.904280128508653"><ele>269.5</ele><time>2026-04-18T09:43:58.001Z</time></trkpt><trkpt lat="43.3558542987589" lon="10.904248567081547"><ele>270.0</ele><time>2026-04-18T09:43:59.001Z</time></trkpt><trkpt lat="43.35573951936728" lon="10.904213346267229"><ele>270.5</ele><time>2026-04-18T09:44:00.001Z</time></trkpt><trkpt lat="43.35563385070419" lon="10.904179811698734"><ele>271.0</ele><time>2026-04-18T09:44:01.002Z</time></trkpt><trkpt lat="43.355530384471386" lon="10.90413622067859"><ele>272.6</ele><time>2026-04-18T09:44:02.002Z</time></trkpt><trkpt lat="43.35543011986465" lon="10.904089596929964"><ele>274.20000000000005</ele><time>2026-04-18T09:44:03.002Z</time></trkpt><trkpt lat="43.35533027669555" lon="10.904040903424953"><ele>275.79999999999995</ele><time>2026-04-18T09:44:04.002Z</time></trkpt><trkpt lat="43.355233418188384" lon="10.903981263665566"><ele>277.4</ele><time>2026-04-18T09:44:05.002Z</time></trkpt><trkpt lat="43.35513500883321" lon="10.903915638026584"><ele>279.0</ele><time>2026-04-18T09:44:06.002Z</time></trkpt><trkpt lat="43.3550390136721" lon="10.903827455899707"><ele>279.0</ele><time>2026-04-18T09:44:07.002Z</time></trkpt><trkpt lat="43.35495558933087" lon="10.903731036875648"><ele>279.0</ele><time>2026-04-18T09:44:08.002Z</time></trkpt><trkpt lat="43.35486692155149" lon="10.903623726868393"><ele>279.0</ele><time>2026-04-18T09:44:09.002Z</time></trkpt><trkpt lat="43.35477118727484" lon="10.903516090381977"><ele>279.0</ele><time>2026-04-18T09:44:10.002Z</time></trkpt><trkpt lat="43.35467186149965" lon="10.903407305353554"><ele>279.75</ele><time>2026-04-18T09:44:11.002Z</time></trkpt><trkpt lat="43.35457196201244" lon="10.90329962309956"><ele>280.5</ele><time>2026-04-18T09:44:12.002Z</time></trkpt><trkpt lat="43.35447474767213" lon="10.903193116474332"><ele>281.25</ele><time>2026-04-18T09:44:13.002Z</time></trkpt><trkpt lat="43.354376108799414" lon="10.903087011568015"><ele>282.0</ele><time>2026-04-18T09:44:14.002Z</time></trkpt><trkpt lat="43.35428132050373" lon="10.902977503497421"><ele>282.0</ele><time>2026-04-18T09:44:15.002Z</time></trkpt><trkpt lat="43.35418581868638" lon="10.90286629702158"><ele>282.0</ele><time>2026-04-18T09:44:16.002Z</time></trkpt><trkpt lat="43.354098595" lon="10.902765112978846"><ele>282.0</ele><time>2026-04-18T09:44:17.002Z</time></trkpt><trkpt lat="43.354016097825415" lon="10.902672371169123"><ele>282.0</ele><time>2026-04-18T09:44:18.002Z</time></trkpt><trkpt lat="43.353945901533194" lon="10.90259402033181"><ele>282.0</ele><time>2026-04-18T09:44:19.002Z</time></trkpt><trkpt lat="43.35388971360457" lon="10.902521333931233"><ele>280.3333333333333</ele><time>2026-04-18T09:44:20.002Z</time></trkpt><trkpt lat="43.35381800861028" lon="10.90247945287144"><ele>278.6666666666667</ele><time>2026-04-18T09:44:21.002Z</time></trkpt><trkpt lat="43.353752167160316" lon="10.90244548964826"><ele>277.0</ele><time>2026-04-18T09:44:22.002Z</time></trkpt><trkpt lat="43.353685182798564" lon="10.902433951389488"><ele>275.33333333333337</ele><time>2026-04-18T09:44:23.002Z</time></trkpt><trkpt lat="43.35356779240159" lon="10.902430906938159"><ele>273.6666666666667</ele><time>2026-04-18T09:44:25.002Z</time></trkpt><trkpt lat="43.35349770290116" lon="10.902453639955924"><ele>272.0</ele><time>2026-04-18T09:44:26.002Z</time></trkpt><trkpt lat="43.353417873567615" lon="10.9024657013167"><ele>272.0</ele><time>2026-04-18T09:44:27.002Z</time></trkpt><trkpt lat="43.353343509270076" lon="10.902471622495511"><ele>272.0</ele><time>2026-04-18T09:44:28.002Z</time></trkpt><trkpt lat="43.35326575010213" lon="10.90249111059023"><ele>272.0</ele><time>2026-04-18T09:44:29.002Z</time></trkpt><trkpt lat="43.35319777814196" lon="10.902518657743778"><ele>272.0</ele><time>2026-04-18T09:44:30.002Z</time></trkpt><trkpt lat="43.35308958020799" lon="10.90258184620287"><ele>272.0</ele><time>2026-04-18T09:44:32.002Z</time></trkpt><trkpt lat="43.3530086023685" lon="10.902649446425665"><ele>272.0</ele><time>2026-04-18T09:44:34.002Z</time></trkpt><trkpt lat="43.352933079839495" lon="10.902704929170012"><ele>269.5</ele><time>2026-04-18T09:44:36.002Z</time></trkpt><trkpt lat="43.35284940789706" lon="10.902657956919917"><ele>267.0</ele><time>2026-04-18T09:44:38.002Z</time></trkpt><trkpt lat="43.352813419425935" lon="10.902576512083789"><ele>264.5</ele><time>2026-04-18T09:44:39.002Z</time></trkpt><trkpt lat="43.35281937298887" lon="10.902458805810893"><ele>262.0</ele><time>2026-04-18T09:44:40.002Z</time></trkpt><trkpt lat="43.35283914839229" lon="10.902343736026857"><ele>259.5</ele><time>2026-04-18T09:44:41.003Z</time></trkpt><trkpt lat="43.35284394843525" lon="10.902210461617319"><ele>257.0</ele><time>2026-04-18T09:44:42.003Z</time></trkpt><trkpt lat="43.35286658378898" lon="10.902070873609754"><ele>256.8</ele><time>2026-04-18T09:44:43.003Z</time></trkpt><trkpt lat="43.35290592106966" lon="10.901931962954459"><ele>256.6</ele><time>2026-04-18T09:44:44.003Z</time></trkpt><trkpt lat="43.352921267782335" lon="10.901788128332385"><ele>256.40000000000003</ele><time>2026-04-18T09:44:45.003Z</time></trkpt><trkpt lat="43.35294179734074" lon="10.901642803049198"><ele>256.2</ele><time>2026-04-18T09:44:46.003Z</time></trkpt><trkpt lat="43.35296226012014" lon="10.901481824142637"><ele>256.0</ele><time>2026-04-18T09:44:47.003Z</time></trkpt><trkpt lat="43.35298012273083" lon="10.901328086761614"><ele>254.8</ele><time>2026-04-18T09:44:48.003Z</time></trkpt><trkpt lat="43.35299894856884" lon="10.901181098569648"><ele>253.60000000000002</ele><time>2026-04-18T09:44:49.003Z</time></trkpt><trkpt lat="43.3530132127389" lon="10.901042427980743"><ele>252.4</ele><time>2026-04-18T09:44:50.003Z</time></trkpt><trkpt lat="43.35302496646877" lon="10.90090085378817"><ele>251.2</ele><time>2026-04-18T09:44:51.003Z</time></trkpt><trkpt lat="43.35304090278665" lon="10.9007636006306"><ele>250.0</ele><time>2026-04-18T09:44:52.003Z</time></trkpt><trkpt lat="43.35305271365799" lon="10.900635137212"><ele>250.0</ele><time>2026-04-18T09:44:53.003Z</time></trkpt><trkpt lat="43.35306472412534" lon="10.900509285562043"><ele>250.0</ele><time>2026-04-18T09:44:54.003Z</time></trkpt><trkpt lat="43.353076510562694" lon="10.900377851856064"><ele>250.0</ele><time>2026-04-18T09:44:55.003Z</time></trkpt><trkpt lat="43.353092697467574" lon="10.900244327912683"><ele>250.0</ele><time>2026-04-18T09:44:56.003Z</time></trkpt><trkpt lat="43.35311345739179" lon="10.900114618991028"><ele>250.0</ele><time>2026-04-18T09:44:57.003Z</time></trkpt><trkpt lat="43.353141728548906" lon="10.899981488129978"><ele>248.8</ele><time>2026-04-18T09:44:58.003Z</time></trkpt><trkpt lat="43.35316975348043" lon="10.899848261156661"><ele>247.6</ele><time>2026-04-18T09:44:59.003Z</time></trkpt><trkpt lat="43.35320057232298" lon="10.899710748119386"><ele>246.39999999999998</ele><time>2026-04-18T09:45:00.003Z</time></trkpt><trkpt lat="43.35322998258999" lon="10.899573043696078"><ele>245.2</ele><time>2026-04-18T09:45:01Z</time></trkpt><trkpt lat="43.353277926080835" lon="10.899437531733541"><ele>244.0</ele><time>2026-04-18T09:45:02Z</time></trkpt><trkpt lat="43.35329941307759" lon="10.899291460110572"><ele>242.6</ele><time>2026-04-18T09:45:03Z</time></trkpt><trkpt lat="43.35334215771145" lon="10.89916067064038"><ele>241.2</ele><time>2026-04-18T09:45:04Z</time></trkpt><trkpt lat="43.353371244630026" lon="10.899041249477865"><ele>239.79999999999998</ele><time>2026-04-18T09:45:05Z</time></trkpt><trkpt lat="43.35340113303104" lon="10.898943714286192"><ele>238.39999999999998</ele><time>2026-04-18T09:45:06Z</time></trkpt><trkpt lat="43.35343239362912" lon="10.898832959901506"><ele>237.0</ele><time>2026-04-18T09:45:07Z</time></trkpt><trkpt lat="43.353462706856604" lon="10.898713032089725"><ele>237.0</ele><time>2026-04-18T09:45:08Z</time></trkpt><trkpt lat="43.35348503683902" lon="10.898577734769638"><ele>237.0</ele><time>2026-04-18T09:45:09Z</time></trkpt><trkpt lat="43.35349856447556" lon="10.898434257000504"><ele>237.0</ele><time>2026-04-18T09:45:10Z</time></trkpt><trkpt lat="43.353490897309115" lon="10.89828404539175"><ele>237.0</ele><time>2026-04-18T09:45:11Z</time></trkpt><trkpt lat="43.3534754124567" lon="10.89813403819893"><ele>237.0</ele><time>2026-04-18T09:45:12Z</time></trkpt><trkpt lat="43.35343644633807" lon="10.897996622468899"><ele>235.75</ele><time>2026-04-18T09:45:13Z</time></trkpt><trkpt lat="43.353380254967405" lon="10.89785900493811"><ele>234.5</ele><time>2026-04-18T09:45:14Z</time></trkpt><trkpt lat="43.353312052246885" lon="10.897711049300762"><ele>233.25</ele><time>2026-04-18T09:45:15Z</time></trkpt><trkpt lat="43.353238684347076" lon="10.897562009307427"><ele>232.0</ele><time>2026-04-18T09:45:16Z</time></trkpt><trkpt lat="43.353169285627274" lon="10.897404903987871"><ele>231.0</ele><time>2026-04-18T09:45:17Z</time></trkpt><trkpt lat="43.35310562905071" lon="10.897246934140012"><ele>230.0</ele><time>2026-04-18T09:45:18Z</time></trkpt><trkpt lat="43.35304787774341" lon="10.897093607431815"><ele>229.0</ele><time>2026-04-18T09:45:19Z</time></trkpt><trkpt lat="43.352996285677825" lon="10.896942384419757"><ele>228.0</ele><time>2026-04-18T09:45:20Z</time></trkpt><trkpt lat="43.352944570663574" lon="10.896785209318136"><ele>226.75</ele><time>2026-04-18T09:45:21Z</time></trkpt><trkpt lat="43.35288757111966" lon="10.896632834323444"><ele>225.5</ele><time>2026-04-18T09:45:22Z</time></trkpt><trkpt lat="43.35281918752049" lon="10.896482085102882"><ele>224.25</ele><time>2026-04-18T09:45:23Z</time></trkpt><trkpt lat="43.352745112249394" lon="10.896324710155984"><ele>223.0</ele><time>2026-04-18T09:45:24Z</time></trkpt><trkpt lat="43.3526683579206" lon="10.89615372670193"><ele>223.0</ele><time>2026-04-18T09:45:25Z</time></trkpt><trkpt lat="43.35257101045537" lon="10.895995201574408"><ele>223.0</ele><time>2026-04-18T09:45:26.001Z</time></trkpt><trkpt lat="43.352483308340084" lon="10.895830596944872"><ele>223.0</ele><time>2026-04-18T09:45:27.001Z</time></trkpt><trkpt lat="43.35240005331922" lon="10.895680086345608"><ele>223.0</ele><time>2026-04-18T09:45:28.001Z</time></trkpt><trkpt lat="43.352320345135986" lon="10.895532096372165"><ele>222.75</ele><time>2026-04-18T09:45:29.001Z</time></trkpt><trkpt lat="43.35224293242353" lon="10.895383170125465"><ele>222.5</ele><time>2026-04-18T09:45:30.001Z</time></trkpt><trkpt lat="43.3521839920787" lon="10.895232176457904"><ele>222.25</ele><time>2026-04-18T09:45:31.001Z</time></trkpt><trkpt lat="43.35211203673102" lon="10.895104864621405"><ele>222.0</ele><time>2026-04-18T09:45:32.001Z</time></trkpt><trkpt lat="43.35203722983942" lon="10.894985845074164"><ele>222.0</ele><time>2026-04-18T09:45:33.001Z</time></trkpt><trkpt lat="43.35194937777076" lon="10.894869012054109"><ele>222.0</ele><time>2026-04-18T09:45:34.001Z</time></trkpt><trkpt lat="43.35185203801052" lon="10.894762550720957"><ele>222.0</ele><time>2026-04-18T09:45:35.001Z</time></trkpt><trkpt lat="43.35173952019579" lon="10.89467474594523"><ele>222.0</ele><time>2026-04-18T09:45:36.001Z</time></trkpt><trkpt lat="43.35162911118699" lon="10.894576520459877"><ele>222.0</ele><time>2026-04-18T09:45:37.001Z</time></trkpt><trkpt lat="43.35151217900056" lon="10.894494020970697"><ele>222.0</ele><time>2026-04-18T09:45:38.001Z</time></trkpt><trkpt lat="43.351411363263374" lon="10.89439288444075"><ele>222.0</ele><time>2026-04-18T09:45:39.001Z</time></trkpt><trkpt lat="43.351311533268074" lon="10.894318730172367"><ele>222.0</ele><time>2026-04-18T09:45:40.001Z</time></trkpt><trkpt lat="43.351201962418635" lon="10.89427607338176"><ele>222.6</ele><time>2026-04-18T09:45:41.001Z</time></trkpt><trkpt lat="43.35109702823537" lon="10.89423086590872"><ele>223.2</ele><time>2026-04-18T09:45:42.001Z</time></trkpt><trkpt lat="43.35099180295125" lon="10.894201891550967"><ele>223.8</ele><time>2026-04-18T09:45:43.001Z</time></trkpt><trkpt lat="43.350885894485224" lon="10.89417285541268"><ele>224.4</ele><time>2026-04-18T09:45:44.001Z</time></trkpt><trkpt lat="43.350777797424065" lon="10.894149562989426"><ele>225.0</ele><time>2026-04-18T09:45:45.001Z</time></trkpt><trkpt lat="43.350673351038026" lon="10.894135469401238"><ele>225.0</ele><time>2026-04-18T09:45:46.001Z</time></trkpt><trkpt lat="43.35057537343512" lon="10.894140558595844"><ele>225.0</ele><time>2026-04-18T09:45:47.001Z</time></trkpt><trkpt lat="43.35047676313395" lon="10.894167448387567"><ele>225.0</ele><time>2026-04-18T09:45:48.001Z</time></trkpt><trkpt lat="43.35037695813934" lon="10.894212398426516"><ele>225.0</ele><time>2026-04-18T09:45:49.001Z</time></trkpt><trkpt lat="43.35028072690042" lon="10.894284129773487"><ele>225.0</ele><time>2026-04-18T09:45:50.001Z</time></trkpt><trkpt lat="43.350184952838006" lon="10.894387492796714"><ele>222.75</ele><time>2026-04-18T09:45:51.001Z</time></trkpt><trkpt lat="43.35008448571442" lon="10.894507156817793"><ele>220.5</ele><time>2026-04-18T09:45:52.001Z</time></trkpt><trkpt lat="43.349981946290676" lon="10.894641173081935"><ele>218.25</ele><time>2026-04-18T09:45:53.001Z</time></trkpt><trkpt lat="43.3498820034565" lon="10.894769428104643"><ele>216.0</ele><time>2026-04-18T09:45:54.001Z</time></trkpt><trkpt lat="43.349800195664024" lon="10.894882516565746"><ele>216.0</ele><time>2026-04-18T09:45:55.001Z</time></trkpt><trkpt lat="43.34972255197244" lon="10.894969614364365"><ele>216.00000000000003</ele><time>2026-04-18T09:45:56.001Z</time></trkpt><trkpt lat="43.34963266393557" lon="10.895022990089426"><ele>216.00000000000003</ele><time>2026-04-18T09:45:57.001Z</time></trkpt><trkpt lat="43.349529385823494" lon="10.895053780934246"><ele>216.0</ele><time>2026-04-18T09:45:58.001Z</time></trkpt><trkpt lat="43.34941581105834" lon="10.895048581992375"><ele>216.0</ele><time>2026-04-18T09:45:59.001Z</time></trkpt><trkpt lat="43.34929500844543" lon="10.89502242072707"><ele>216.5</ele><time>2026-04-18T09:46:00.001Z</time></trkpt><trkpt lat="43.349176971972284" lon="10.894989852150118"><ele>217.0</ele><time>2026-04-18T09:46:01.001Z</time></trkpt><trkpt lat="43.34905491002869" lon="10.894983931035625"><ele>217.5</ele><time>2026-04-18T09:46:02.001Z</time></trkpt><trkpt lat="43.348934376461266" lon="10.89498935582254"><ele>218.0</ele><time>2026-04-18T09:46:03.001Z</time></trkpt><trkpt lat="43.34881507890887" lon="10.895000900507295"><ele>218.0</ele><time>2026-04-18T09:46:04.001Z</time></trkpt><trkpt lat="43.34868560641272" lon="10.89502072650268"><ele>218.0</ele><time>2026-04-18T09:46:05.001Z</time></trkpt><trkpt lat="43.348552101933585" lon="10.895055220859573"><ele>218.0</ele><time>2026-04-18T09:46:06.001Z</time></trkpt><trkpt lat="43.34842432501657" lon="10.89510378562148"><ele>218.0</ele><time>2026-04-18T09:46:07.001Z</time></trkpt><trkpt lat="43.348309152338864" lon="10.895152864258797"><ele>219.25</ele><time>2026-04-18T09:46:08.001Z</time></trkpt><trkpt lat="43.34819208357895" lon="10.895198179588084"><ele>220.5</ele><time>2026-04-18T09:46:09.002Z</time></trkpt><trkpt lat="43.34806993269285" lon="10.895219050102185"><ele>221.75</ele><time>2026-04-18T09:46:10.002Z</time></trkpt><trkpt lat="43.347946896690125" lon="10.895214068652677"><ele>223.0</ele><time>2026-04-18T09:46:11.002Z</time></trkpt><trkpt lat="43.34782237746723" lon="10.895181951214608"><ele>220.75</ele><time>2026-04-18T09:46:12.002Z</time></trkpt><trkpt lat="43.3476989121442" lon="10.895126757548713"><ele>218.5</ele><time>2026-04-18T09:46:13.002Z</time></trkpt><trkpt lat="43.3475660401361" lon="10.89507041004914"><ele>216.25</ele><time>2026-04-18T09:46:14.002Z</time></trkpt><trkpt lat="43.34743479255016" lon="10.895010473569194"><ele>214.0</ele><time>2026-04-18T09:46:15.002Z</time></trkpt><trkpt lat="43.34729329365704" lon="10.894951458106945"><ele>214.0</ele><time>2026-04-18T09:46:16.002Z</time></trkpt><trkpt lat="43.347158412119896" lon="10.89489200304212"><ele>214.0</ele><time>2026-04-18T09:46:17.002Z</time></trkpt><trkpt lat="43.3470300367017" lon="10.894836580840822"><ele>214.0</ele><time>2026-04-18T09:46:18.002Z</time></trkpt><trkpt lat="43.34691265661628" lon="10.894782660021471"><ele>214.0</ele><time>2026-04-18T09:46:19.002Z</time></trkpt><trkpt lat="43.346805182369444" lon="10.894720147066423"><ele>214.0</ele><time>2026-04-18T09:46:20.002Z</time></trkpt><trkpt lat="43.34669219300532" lon="10.894675610499005"><ele>213.99999999999997</ele><time>2026-04-18T09:46:21.002Z</time></trkpt><trkpt lat="43.34659125255139" lon="10.894631531795003"><ele>213.99999999999997</ele><time>2026-04-18T09:46:22.002Z</time></trkpt><trkpt lat="43.3465071277935" lon="10.894596582981128"><ele>214.0</ele><time>2026-04-18T09:46:23.002Z</time></trkpt><trkpt lat="43.34644774979346" lon="10.894561294261901"><ele>214.0</ele><time>2026-04-18T09:46:24.002Z</time></trkpt><trkpt lat="43.34642703034565" lon="10.894397244229786"><ele>214.0</ele><time>2026-04-18T09:46:26.002Z</time></trkpt><trkpt lat="43.3463790605539" lon="10.894314785397576"><ele>213.99999999999997</ele><time>2026-04-18T09:46:27.002Z</time></trkpt><trkpt lat="43.34632948527114" lon="10.894213610615694"><ele>213.99999999999997</ele><time>2026-04-18T09:46:28.002Z</time></trkpt><trkpt lat="43.34628133125805" lon="10.894103198914168"><ele>214.0</ele><time>2026-04-18T09:46:29.002Z</time></trkpt><trkpt lat="43.34622514060214" lon="10.893973446115048"><ele>214.0</ele><time>2026-04-18T09:46:30.002Z</time></trkpt><trkpt lat="43.346155357756" lon="10.893849441304033"><ele>216.6</ele><time>2026-04-18T09:46:31.002Z</time></trkpt><trkpt lat="43.34610802280868" lon="10.893714845250097"><ele>219.2</ele><time>2026-04-18T09:46:32.002Z</time></trkpt><trkpt lat="43.34603697030891" lon="10.893601570712415"><ele>221.79999999999998</ele><time>2026-04-18T09:46:33.002Z</time></trkpt><trkpt lat="43.345976341628095" lon="10.893483037708384"><ele>224.39999999999998</ele><time>2026-04-18T09:46:34.002Z</time></trkpt><trkpt lat="43.34592376800076" lon="10.893366902023882"><ele>227.0</ele><time>2026-04-18T09:46:35.002Z</time></trkpt><trkpt lat="43.34585294673241" lon="10.893238202615246"><ele>227.0</ele><time>2026-04-18T09:46:36.002Z</time></trkpt><trkpt lat="43.345781150599954" lon="10.893077219442572"><ele>227.0</ele><time>2026-04-18T09:46:37.002Z</time></trkpt><trkpt lat="43.34570793358149" lon="10.892919955250449"><ele>227.0</ele><time>2026-04-18T09:46:38.002Z</time></trkpt><trkpt lat="43.34562333321556" lon="10.892768710308262"><ele>227.0</ele><time>2026-04-18T09:46:39.002Z</time></trkpt><trkpt lat="43.345550242529065" lon="10.892602992709062"><ele>229.0</ele><time>2026-04-18T09:46:40.002Z</time></trkpt><trkpt lat="43.34549992239284" lon="10.892439892955553"><ele>231.0</ele><time>2026-04-18T09:46:41.002Z</time></trkpt><trkpt lat="43.34544512969163" lon="10.892287887157794"><ele>233.0</ele><time>2026-04-18T09:46:42.002Z</time></trkpt><trkpt lat="43.345380972597745" lon="10.89212162952288"><ele>235.0</ele><time>2026-04-18T09:46:43.002Z</time></trkpt><trkpt lat="43.34531185441219" lon="10.891998362826303"><ele>235.0</ele><time>2026-04-18T09:46:44.002Z</time></trkpt><trkpt lat="43.34525026097091" lon="10.891884070116939"><ele>235.0</ele><time>2026-04-18T09:46:45.002Z</time></trkpt><trkpt lat="43.345197251685455" lon="10.891776592537921"><ele>235.0</ele><time>2026-04-18T09:46:46.002Z</time></trkpt><trkpt lat="43.345121385589046" lon="10.89168279683885"><ele>235.0</ele><time>2026-04-18T09:46:47.002Z</time></trkpt><trkpt lat="43.34505144058247" lon="10.891596743930409"><ele>235.0</ele><time>2026-04-18T09:46:48.002Z</time></trkpt><trkpt lat="43.344983150663246" lon="10.891505260012995"><ele>233.33333333333331</ele><time>2026-04-18T09:46:49.002Z</time></trkpt><trkpt lat="43.344918600918106" lon="10.891412086577867"><ele>231.66666666666666</ele><time>2026-04-18T09:46:50.003Z</time></trkpt><trkpt lat="43.34486336497502" lon="10.891327549233468"><ele>230.0</ele><time>2026-04-18T09:46:51.003Z</time></trkpt><trkpt lat="43.344816978926424" lon="10.891247836722162"><ele>228.33333333333331</ele><time>2026-04-18T09:46:52.003Z</time></trkpt><trkpt lat="43.344777310172255" lon="10.891173349850204"><ele>226.66666666666666</ele><time>2026-04-18T09:46:53.003Z</time></trkpt><trkpt lat="43.34471889419018" lon="10.891036248779265"><ele>225.0</ele><time>2026-04-18T09:46:55.003Z</time></trkpt><trkpt lat="43.34474903784504" lon="10.890913321342852"><ele>223.5</ele><time>2026-04-18T09:46:57.003Z</time></trkpt><trkpt lat="43.34481837994638" lon="10.890897898448673"><ele>222.0</ele><time>2026-04-18T09:46:58.003Z</time></trkpt><trkpt lat="43.34488642480666" lon="10.890895783683856"><ele>220.5</ele><time>2026-04-18T09:46:59.003Z</time></trkpt><trkpt lat="43.34496603118627" lon="10.890865422993222"><ele>219.0</ele><time>2026-04-18T09:47:00.003Z</time></trkpt><trkpt lat="43.34504575876736" lon="10.890828180564494"><ele>217.5</ele><time>2026-04-18T09:47:01.003Z</time></trkpt><trkpt lat="43.345138583274995" lon="10.890765723671924"><ele>216.0</ele><time>2026-04-18T09:47:02.003Z</time></trkpt><trkpt lat="43.34521759304278" lon="10.890679058048823"><ele>216.0</ele><time>2026-04-18T09:47:03.003Z</time></trkpt><trkpt lat="43.34527672457477" lon="10.890543640760102"><ele>216.00000000000003</ele><time>2026-04-18T09:47:04.003Z</time></trkpt><trkpt lat="43.34531810937679" lon="10.89042277150787"><ele>216.00000000000003</ele><time>2026-04-18T09:47:05.003Z</time></trkpt><trkpt lat="43.34532140169536" lon="10.890269444630182"><ele>216.0</ele><time>2026-04-18T09:47:06.003Z</time></trkpt><trkpt lat="43.34533096570843" lon="10.890131007639377"><ele>216.0</ele><time>2026-04-18T09:47:07Z</time></trkpt><trkpt lat="43.34532960254081" lon="10.889979644037094"><ele>214.75</ele><time>2026-04-18T09:47:08Z</time></trkpt><trkpt lat="43.34531998560469" lon="10.8898217019111"><ele>213.5</ele><time>2026-04-18T09:47:09Z</time></trkpt><trkpt lat="43.34531983710926" lon="10.889638837320677"><ele>212.25</ele><time>2026-04-18T09:47:10Z</time></trkpt><trkpt lat="43.34531636885152" lon="10.889451715232731"><ele>211.0</ele><time>2026-04-18T09:47:11Z</time></trkpt><trkpt lat="43.34531732119905" lon="10.889257628111793"><ele>209.60000000000002</ele><time>2026-04-18T09:47:12Z</time></trkpt><trkpt lat="43.34532766344643" lon="10.889075025617482"><ele>208.2</ele><time>2026-04-18T09:47:13Z</time></trkpt><trkpt lat="43.3453537447411" lon="10.888923813653596"><ele>206.8</ele><time>2026-04-18T09:47:14Z</time></trkpt><trkpt lat="43.345398240735975" lon="10.888796755238562"><ele>205.39999999999998</ele><time>2026-04-18T09:47:15Z</time></trkpt><trkpt lat="43.34545306519849" lon="10.888683670352597"><ele>204.0</ele><time>2026-04-18T09:47:16Z</time></trkpt><trkpt lat="43.34552111401226" lon="10.8885567908451"><ele>204.39999999999998</ele><time>2026-04-18T09:47:17Z</time></trkpt><trkpt lat="43.34557369007612" lon="10.888422087336819"><ele>204.8</ele><time>2026-04-18T09:47:18Z</time></trkpt><trkpt lat="43.345621323171265" lon="10.88831019507157"><ele>205.2</ele><time>2026-04-18T09:47:19Z</time></trkpt><trkpt lat="43.3456516914567" lon="10.888177716676243"><ele>205.60000000000002</ele><time>2026-04-18T09:47:20Z</time></trkpt><trkpt lat="43.34569970380926" lon="10.888035551520414"><ele>206.0</ele><time>2026-04-18T09:47:21Z</time></trkpt><trkpt lat="43.34571974593291" lon="10.887879107861677"><ele>206.0</ele><time>2026-04-18T09:47:22Z</time></trkpt><trkpt lat="43.34572564477185" lon="10.887716994717314"><ele>206.0</ele><time>2026-04-18T09:47:23Z</time></trkpt><trkpt lat="43.34572495421128" lon="10.887543838373992"><ele>206.0</ele><time>2026-04-18T09:47:24Z</time></trkpt><trkpt lat="43.34571536555861" lon="10.887357930250037"><ele>206.0</ele><time>2026-04-18T09:47:25Z</time></trkpt><trkpt lat="43.3457071316797" lon="10.887176429082702"><ele>206.5</ele><time>2026-04-18T09:47:26Z</time></trkpt><trkpt lat="43.34570646505619" lon="10.887012244743707"><ele>207.0</ele><time>2026-04-18T09:47:27Z</time></trkpt><trkpt lat="43.34571303021178" lon="10.886850798294535"><ele>207.5</ele><time>2026-04-18T09:47:28Z</time></trkpt><trkpt lat="43.345711420898326" lon="10.886687289119282"><ele>208.0</ele><time>2026-04-18T09:47:29Z</time></trkpt><trkpt lat="43.34573179852057" lon="10.886524357356315"><ele>208.4</ele><time>2026-04-18T09:47:30Z</time></trkpt><trkpt lat="43.34574614819665" lon="10.886361724438224"><ele>208.8</ele><time>2026-04-18T09:47:31Z</time></trkpt><trkpt lat="43.34573506558335" lon="10.886199361484763"><ele>209.2</ele><time>2026-04-18T09:47:32Z</time></trkpt><trkpt lat="43.345741778363326" lon="10.886046814882416"><ele>209.6</ele><time>2026-04-18T09:47:33Z</time></trkpt><trkpt lat="43.345746557594445" lon="10.885911070014041"><ele>210.0</ele><time>2026-04-18T09:47:34Z</time></trkpt><trkpt lat="43.34572883875275" lon="10.8857606323398"><ele>210.6</ele><time>2026-04-18T09:47:35Z</time></trkpt><trkpt lat="43.34570811494054" lon="10.885602186452417"><ele>211.2</ele><time>2026-04-18T09:47:36Z</time></trkpt><trkpt lat="43.34568364827985" lon="10.885447189688279"><ele>211.8</ele><time>2026-04-18T09:47:37Z</time></trkpt><trkpt lat="43.345654201764425" lon="10.885313316417772"><ele>212.4</ele><time>2026-04-18T09:47:38Z</time></trkpt><trkpt lat="43.34565629488486" lon="10.885185822184559"><ele>213.0</ele><time>2026-04-18T09:47:39Z</time></trkpt><trkpt lat="43.34565003457895" lon="10.885066602835797"><ele>213.66666666666666</ele><time>2026-04-18T09:47:40Z</time></trkpt><trkpt lat="43.34564596971214" lon="10.8849472120859"><ele>214.33333333333331</ele><time>2026-04-18T09:47:41Z</time></trkpt><trkpt lat="43.345656452226294" lon="10.88483500128419"><ele>215.0</ele><time>2026-04-18T09:47:42Z</time></trkpt><trkpt lat="43.34567042895749" lon="10.884719448382324"><ele>215.66666666666666</ele><time>2026-04-18T09:47:43Z</time></trkpt><trkpt lat="43.345722015732605" lon="10.88462348331389"><ele>216.33333333333331</ele><time>2026-04-18T09:47:44Z</time></trkpt><trkpt lat="43.34576026269218" lon="10.884515090320171"><ele>217.0</ele><time>2026-04-18T09:47:45Z</time></trkpt><trkpt lat="43.34581375115734" lon="10.88440539852457"><ele>217.0</ele><time>2026-04-18T09:47:46Z</time></trkpt><trkpt lat="43.345866178872726" lon="10.884303191520013"><ele>217.0</ele><time>2026-04-18T09:47:47Z</time></trkpt><trkpt lat="43.34590226688063" lon="10.884223167348901"><ele>217.0</ele><time>2026-04-18T09:47:48Z</time></trkpt><trkpt lat="43.345879862626674" lon="10.884046852826652"><ele>217.0</ele><time>2026-04-18T09:47:50.001Z</time></trkpt><trkpt lat="43.34586592236187" lon="10.88394170237608"><ele>217.0</ele><time>2026-04-18T09:47:51.001Z</time></trkpt><trkpt lat="43.34585585194219" lon="10.883821613028793"><ele>217.83333333333331</ele><time>2026-04-18T09:47:52.001Z</time></trkpt><trkpt lat="43.345812375282065" lon="10.88370658186554"><ele>218.66666666666666</ele><time>2026-04-18T09:47:53.001Z</time></trkpt><trkpt lat="43.34578850195582" lon="10.883573746476287"><ele>219.5</ele><time>2026-04-18T09:47:54.001Z</time></trkpt><trkpt lat="43.34575826927223" lon="10.883451010814776"><ele>220.33333333333331</ele><time>2026-04-18T09:47:55.001Z</time></trkpt><trkpt lat="43.345737959213764" lon="10.88335488001867"><ele>221.16666666666666</ele><time>2026-04-18T09:47:56.001Z</time></trkpt><trkpt lat="43.34573929294002" lon="10.883240424097252"><ele>222.0</ele><time>2026-04-18T09:47:57.001Z</time></trkpt><trkpt lat="43.34574690711656" lon="10.88312340324463"><ele>223.33333333333334</ele><time>2026-04-18T09:47:58.001Z</time></trkpt><trkpt lat="43.345756144096015" lon="10.883018474013276"><ele>224.66666666666669</ele><time>2026-04-18T09:47:59.001Z</time></trkpt><trkpt lat="43.34580799308555" lon="10.882922382003628"><ele>226.0</ele><time>2026-04-18T09:48:00.001Z</time></trkpt><trkpt lat="43.345849868201014" lon="10.882809877209606"><ele>227.33333333333334</ele><time>2026-04-18T09:48:01.001Z</time></trkpt><trkpt lat="43.3458948481606" lon="10.88269987967427"><ele>228.66666666666669</ele><time>2026-04-18T09:48:02.001Z</time></trkpt><trkpt lat="43.34593826821745" lon="10.882610790009842"><ele>230.0</ele><time>2026-04-18T09:48:03.001Z</time></trkpt><trkpt lat="43.34599739515046" lon="10.88254560178383"><ele>231.6</ele><time>2026-04-18T09:48:04.001Z</time></trkpt><trkpt lat="43.34603652636235" lon="10.882465158449849"><ele>233.2</ele><time>2026-04-18T09:48:05.001Z</time></trkpt><trkpt lat="43.34610187882513" lon="10.882322720423968"><ele>234.8</ele><time>2026-04-18T09:48:07.001Z</time></trkpt><trkpt lat="43.3460942547458" lon="10.882140884984862"><ele>236.4</ele><time>2026-04-18T09:48:09.001Z</time></trkpt><trkpt lat="43.3460754765965" lon="10.8820400748524"><ele>238.0</ele><time>2026-04-18T09:48:10.001Z</time></trkpt><trkpt lat="43.34608724150843" lon="10.881918724016547"><ele>237.99999999999997</ele><time>2026-04-18T09:48:11.001Z</time></trkpt><trkpt lat="43.34609270761243" lon="10.881791152972848"><ele>238.0</ele><time>2026-04-18T09:48:12.001Z</time></trkpt><trkpt lat="43.34611147736436" lon="10.881670387242208"><ele>238.0</ele><time>2026-04-18T09:48:13.001Z</time></trkpt><trkpt lat="43.34611925110139" lon="10.881546297966679"><ele>238.0</ele><time>2026-04-18T09:48:14.001Z</time></trkpt><trkpt lat="43.346109390489026" lon="10.88143229985105"><ele>237.99999999999997</ele><time>2026-04-18T09:48:15.001Z</time></trkpt><trkpt lat="43.34607982807567" lon="10.881334248242041"><ele>238.0</ele><time>2026-04-18T09:48:16.001Z</time></trkpt><trkpt lat="43.34604205679666" lon="10.881229356173037"><ele>238.99999999999997</ele><time>2026-04-18T09:48:17.001Z</time></trkpt><trkpt lat="43.346040423362055" lon="10.881116620547159"><ele>240.0</ele><time>2026-04-18T09:48:18.001Z</time></trkpt><trkpt lat="43.34605776704515" lon="10.881010708959174"><ele>241.0</ele><time>2026-04-18T09:48:19.001Z</time></trkpt><trkpt lat="43.346066940504485" lon="10.880895746566823"><ele>242.0</ele><time>2026-04-18T09:48:20.001Z</time></trkpt><trkpt lat="43.34608127617008" lon="10.880788410831952"><ele>242.99999999999997</ele><time>2026-04-18T09:48:21.001Z</time></trkpt><trkpt lat="43.346087262177136" lon="10.880695151700092"><ele>244.0</ele><time>2026-04-18T09:48:22.001Z</time></trkpt><trkpt lat="43.34601886774113" lon="10.880576130680994"><ele>244.66666666666666</ele><time>2026-04-18T09:48:24.001Z</time></trkpt><trkpt lat="43.345954117811196" lon="10.880527216234901"><ele>245.33333333333331</ele><time>2026-04-18T09:48:25.001Z</time></trkpt><trkpt lat="43.34586956460177" lon="10.880522602104348"><ele>246.0</ele><time>2026-04-18T09:48:26.001Z</time></trkpt><trkpt lat="43.345795422278044" lon="10.880489493310062"><ele>246.66666666666669</ele><time>2026-04-18T09:48:27.002Z</time></trkpt><trkpt lat="43.34572228233636" lon="10.88044091469867"><ele>247.33333333333334</ele><time>2026-04-18T09:48:28.002Z</time></trkpt><trkpt lat="43.345635103644646" lon="10.880360487611993"><ele>248.0</ele><time>2026-04-18T09:48:29.002Z</time></trkpt><trkpt lat="43.345558605979434" lon="10.880241443979703"><ele>249.0</ele><time>2026-04-18T09:48:30.002Z</time></trkpt><trkpt lat="43.345478377053944" lon="10.880147705633759"><ele>250.0</ele><time>2026-04-18T09:48:31.002Z</time></trkpt><trkpt lat="43.34537792955304" lon="10.880108047453547"><ele>251.0</ele><time>2026-04-18T09:48:32.002Z</time></trkpt><trkpt lat="43.34528719332805" lon="10.880057267986212"><ele>252.0</ele><time>2026-04-18T09:48:33.002Z</time></trkpt><trkpt lat="43.34519130557956" lon="10.880002628580925"><ele>253.0</ele><time>2026-04-18T09:48:34.002Z</time></trkpt><trkpt lat="43.345112158984065" lon="10.879931747559473"><ele>252.99999999999997</ele><time>2026-04-18T09:48:35.002Z</time></trkpt><trkpt lat="43.345027748167944" lon="10.879876797001081"><ele>253.0</ele><time>2026-04-18T09:48:36.002Z</time></trkpt><trkpt lat="43.344946473179895" lon="10.879795480644976"><ele>253.0</ele><time>2026-04-18T09:48:37.002Z</time></trkpt><trkpt lat="43.34486893204629" lon="10.879720923821026"><ele>253.0</ele><time>2026-04-18T09:48:38.002Z</time></trkpt><trkpt lat="43.34479949062995" lon="10.879656293685322"><ele>252.99999999999997</ele><time>2026-04-18T09:48:39.002Z</time></trkpt><trkpt lat="43.34473691568722" lon="10.879607349730476"><ele>253.0</ele><time>2026-04-18T09:48:40.002Z</time></trkpt><trkpt lat="43.344666392800335" lon="10.879551141681675"><ele>253.60000000000002</ele><time>2026-04-18T09:48:41.002Z</time></trkpt><trkpt lat="43.34459900871969" lon="10.879456678826042"><ele>254.20000000000002</ele><time>2026-04-18T09:48:42.002Z</time></trkpt><trkpt lat="43.34452000419203" lon="10.879370751181499"><ele>254.8</ele><time>2026-04-18T09:48:43.002Z</time></trkpt><trkpt lat="43.344469072291346" lon="10.879261525822287"><ele>255.4</ele><time>2026-04-18T09:48:44.002Z</time></trkpt><trkpt lat="43.344410938832404" lon="10.879149659361964"><ele>256.0</ele><time>2026-04-18T09:48:45.002Z</time></trkpt><trkpt lat="43.34435206780616" lon="10.87907522957282"><ele>256.0</ele><time>2026-04-18T09:48:46.002Z</time></trkpt><trkpt lat="43.34427865400019" lon="10.879032837740718"><ele>256.0</ele><time>2026-04-18T09:48:47.002Z</time></trkpt><trkpt lat="43.344205868085595" lon="10.878990604169266"><ele>256.0</ele><time>2026-04-18T09:48:48.002Z</time></trkpt><trkpt lat="43.344126295237665" lon="10.878944902294775"><ele>256.0</ele><time>2026-04-18T09:48:49.002Z</time></trkpt><trkpt lat="43.344024163875574" lon="10.878913303039552"><ele>256.0</ele><time>2026-04-18T09:48:50.002Z</time></trkpt><trkpt lat="43.34392089730974" lon="10.878864780043356"><ele>258.75</ele><time>2026-04-18T09:48:51.002Z</time></trkpt><trkpt lat="43.3438076679903" lon="10.878810383231018"><ele>261.5</ele><time>2026-04-18T09:48:52.002Z</time></trkpt><trkpt lat="43.34369438434119" lon="10.878745041373396"><ele>264.25</ele><time>2026-04-18T09:48:53.002Z</time></trkpt><trkpt lat="43.343575303310686" lon="10.878684855887691"><ele>267.0</ele><time>2026-04-18T09:48:54.002Z</time></trkpt><trkpt lat="43.34345185706991" lon="10.878623237395018"><ele>267.0</ele><time>2026-04-18T09:48:55.002Z</time></trkpt><trkpt lat="43.343336515391236" lon="10.878543430507726"><ele>267.0</ele><time>2026-04-18T09:48:56.002Z</time></trkpt><trkpt lat="43.34322928559063" lon="10.878469092165883"><ele>267.0</ele><time>2026-04-18T09:48:57.002Z</time></trkpt><trkpt lat="43.34312594166761" lon="10.87838199282183"><ele>267.0</ele><time>2026-04-18T09:48:58.002Z</time></trkpt><trkpt lat="43.34300734280899" lon="10.878307766086817"><ele>266.0</ele><time>2026-04-18T09:48:59.002Z</time></trkpt><trkpt lat="43.34289536817697" lon="10.878219004413161"><ele>265.0</ele><time>2026-04-18T09:49:00.002Z</time></trkpt><trkpt lat="43.34279545741386" lon="10.87813810365519"><ele>264.0</ele><time>2026-04-18T09:49:01.002Z</time></trkpt><trkpt lat="43.34269196622448" lon="10.878092145928498"><ele>263.0</ele><time>2026-04-18T09:49:02.002Z</time></trkpt><trkpt lat="43.342593050167686" lon="10.87805089982924"><ele>263.0</ele><time>2026-04-18T09:49:03.002Z</time></trkpt><trkpt lat="43.342496997786874" lon="10.878002952150542"><ele>263.0</ele><time>2026-04-18T09:49:04.002Z</time></trkpt><trkpt lat="43.34241643846768" lon="10.877972310301109"><ele>263.0</ele><time>2026-04-18T09:49:05.002Z</time></trkpt><trkpt lat="43.34235213067738" lon="10.877945394704579"><ele>263.0</ele><time>2026-04-18T09:49:06.003Z</time></trkpt><trkpt lat="43.34228338363818" lon="10.877922986810862"><ele>263.0</ele><time>2026-04-18T09:49:07.003Z</time></trkpt><trkpt lat="43.3422109876312" lon="10.877873100576736"><ele>263.0</ele><time>2026-04-18T09:49:08.003Z</time></trkpt><trkpt lat="43.342141802915165" lon="10.877839184216825"><ele>261.6</ele><time>2026-04-18T09:49:09.003Z</time></trkpt><trkpt lat="43.34207116174779" lon="10.877804553872648"><ele>260.20000000000005</ele><time>2026-04-18T09:49:10.003Z</time></trkpt><trkpt lat="43.34203461899103" lon="10.877722209396987"><ele>258.8</ele><time>2026-04-18T09:49:11.003Z</time></trkpt><trkpt lat="43.34207379347146" lon="10.877561938296807"><ele>257.40000000000003</ele><time>2026-04-18T09:49:12.999Z</time></trkpt><trkpt lat="43.342135334952694" lon="10.877434324456631"><ele>256.0</ele><time>2026-04-18T09:49:13.999Z</time></trkpt><trkpt lat="43.34209151303077" lon="10.877313272871085"><ele>256.0</ele><time>2026-04-18T09:49:14.999Z</time></trkpt><trkpt lat="43.3419910660797" lon="10.877161614389243"><ele>256.0</ele><time>2026-04-18T09:49:15.999Z</time></trkpt><trkpt lat="43.34191826931803" lon="10.877067034744051"><ele>256.0</ele><time>2026-04-18T09:49:18.999Z</time></trkpt><trkpt lat="43.341885180901215" lon="10.876952782578728"><ele>256.0</ele><time>2026-04-18T09:52:12.001Z</time></trkpt><trkpt lat="43.34186880468856" lon="10.876821434304382"><ele>256.0</ele><time>2026-04-18T09:52:14.001Z</time></trkpt><trkpt lat="43.34186089392266" lon="10.876692712059215"><ele>258.25</ele><time>2026-04-18T09:52:16.001Z</time></trkpt><trkpt lat="43.341837305181045" lon="10.876582611012164"><ele>260.5</ele><time>2026-04-18T09:52:18.002Z</time></trkpt><trkpt lat="43.341838743002526" lon="10.876494711430514"><ele>262.75</ele><time>2026-04-18T09:52:20.002Z</time></trkpt><trkpt lat="43.341877145797696" lon="10.876416824962723"><ele>265.0</ele><time>2026-04-18T09:52:23.002Z</time></trkpt><trkpt lat="43.341904334113856" lon="10.87592778830825"><ele>267.25</ele><time>2026-04-18T09:52:26.002Z</time></trkpt><trkpt lat="43.34185770029213" lon="10.875868186648159"><ele>269.5</ele><time>2026-04-18T09:52:27.002Z</time></trkpt><trkpt lat="43.3418076977715" lon="10.875805081022657"><ele>271.75</ele><time>2026-04-18T09:52:28.002Z</time></trkpt><trkpt lat="43.34173550355491" lon="10.875740357963155"><ele>274.0</ele><time>2026-04-18T09:52:30.002Z</time></trkpt><trkpt lat="43.34111108507381" lon="10.875930295598964"><ele>270.5</ele><time>2026-04-18T09:52:31.002Z</time></trkpt><trkpt lat="43.34103174450035" lon="10.875912268796496"><ele>267.0</ele><time>2026-04-18T09:52:33.002Z</time></trkpt><trkpt lat="43.34091789841862" lon="10.875861713693896"><ele>263.5</ele><time>2026-04-18T09:52:35.002Z</time></trkpt><trkpt lat="43.34084227597102" lon="10.875841450162822"><ele>260.0</ele><time>2026-04-18T09:52:36.002Z</time></trkpt><trkpt lat="43.34076577222662" lon="10.87582910630835"><ele>256.5</ele><time>2026-04-18T09:52:37.002Z</time></trkpt><trkpt lat="43.3406905954598" lon="10.875808051008606"><ele>253.0</ele><time>2026-04-18T09:52:38.002Z</time></trkpt><trkpt lat="43.34062882360057" lon="10.875788330418418"><ele>252.99999999999997</ele><time>2026-04-18T09:52:39.002Z</time></trkpt><trkpt lat="43.340568500358934" lon="10.875742866728967"><ele>253.0</ele><time>2026-04-18T09:52:40.002Z</time></trkpt><trkpt lat="43.340507857052984" lon="10.875689764836443"><ele>253.0</ele><time>2026-04-18T09:52:41.002Z</time></trkpt><trkpt lat="43.34043968684134" lon="10.875666160201066"><ele>253.0</ele><time>2026-04-18T09:52:42.002Z</time></trkpt><trkpt lat="43.340312752784996" lon="10.87569261606378"><ele>252.99999999999997</ele><time>2026-04-18T09:52:44.002Z</time></trkpt><trkpt lat="43.34024605919533" lon="10.875739679757421"><ele>253.0</ele><time>2026-04-18T09:52:45.002Z</time></trkpt><trkpt lat="43.34018839276634" lon="10.87577886256632"><ele>251.66666666666666</ele><time>2026-04-18T09:52:46.002Z</time></trkpt><trkpt lat="43.340118569669094" lon="10.875809210108828"><ele>250.33333333333331</ele><time>2026-04-18T09:52:47.002Z</time></trkpt><trkpt lat="43.340046821708945" lon="10.875804478790432"><ele>249.0</ele><time>2026-04-18T09:52:48.002Z</time></trkpt><trkpt lat="43.33998466443646" lon="10.875769584179563"><ele>247.66666666666669</ele><time>2026-04-18T09:52:49.002Z</time></trkpt><trkpt lat="43.33994506186563" lon="10.875656705931137"><ele>246.33333333333334</ele><time>2026-04-18T09:52:51.002Z</time></trkpt><trkpt lat="43.340013697873474" lon="10.875513792830262"><ele>245.0</ele><time>2026-04-18T09:52:53.002Z</time></trkpt><trkpt lat="43.340065814340036" lon="10.875445128109957"><ele>245.0</ele><time>2026-04-18T09:52:54.003Z</time></trkpt><trkpt lat="43.340158199707645" lon="10.87536359660347"><ele>245.0</ele><time>2026-04-18T09:52:56.003Z</time></trkpt><trkpt lat="43.34023916473684" lon="10.875240437661803"><ele>245.0</ele><time>2026-04-18T09:52:58.003Z</time></trkpt><trkpt lat="43.34027360187961" lon="10.875106480268686"><ele>245.0</ele><time>2026-04-18T09:53:00.003Z</time></trkpt><trkpt lat="43.340289279978165" lon="10.874964148993806"><ele>245.0</ele><time>2026-04-18T09:53:02.003Z</time></trkpt><trkpt lat="43.340309546589516" lon="10.874823534279566"><ele>243.83333333333334</ele><time>2026-04-18T09:53:04.003Z</time></trkpt><trkpt lat="43.34030948880868" lon="10.874654616426687"><ele>242.66666666666669</ele><time>2026-04-18T09:53:06.003Z</time></trkpt><trkpt lat="43.34032771705038" lon="10.874568349863537"><ele>241.5</ele><time>2026-04-18T09:53:07.003Z</time></trkpt><trkpt lat="43.34034595993374" lon="10.874482024584811"><ele>240.33333333333331</ele><time>2026-04-18T09:53:08.003Z</time></trkpt><trkpt lat="43.34033922839581" lon="10.874303765917222"><ele>239.16666666666666</ele><time>2026-04-18T09:53:10.003Z</time></trkpt><trkpt lat="43.34031675898911" lon="10.874219728747075"><ele>238.0</ele><time>2026-04-18T09:53:11.003Z</time></trkpt><trkpt lat="43.34028217357839" lon="10.874057038498389"><ele>237.83333333333331</ele><time>2026-04-18T09:53:13.003Z</time></trkpt><trkpt lat="43.340229606623154" lon="10.873932457423555"><ele>237.66666666666666</ele><time>2026-04-18T09:53:15.003Z</time></trkpt><trkpt lat="43.340205156566626" lon="10.87380632538222"><ele>237.5</ele><time>2026-04-18T09:53:17.003Z</time></trkpt><trkpt lat="43.3401990528631" lon="10.873689369798429"><ele>237.33333333333331</ele><time>2026-04-18T09:53:19.003Z</time></trkpt><trkpt lat="43.34016053646037" lon="10.873567033691767"><ele>237.16666666666666</ele><time>2026-04-18T09:53:21.003Z</time></trkpt><trkpt lat="43.3401291755936" lon="10.873487186115462"><ele>237.0</ele><time>2026-04-18T09:53:22.003Z</time></trkpt><trkpt lat="43.340088895039" lon="10.87341601751031"><ele>237.0</ele><time>2026-04-18T09:53:23.003Z</time></trkpt><trkpt lat="43.34002002355658" lon="10.873273149260207"><ele>237.0</ele><time>2026-04-18T09:53:25Z</time></trkpt><trkpt lat="43.33996056463524" lon="10.873135997698824"><ele>237.0</ele><time>2026-04-18T09:53:27Z</time></trkpt><trkpt lat="43.33987728872151" lon="10.873036085213208"><ele>237.0</ele><time>2026-04-18T09:53:29Z</time></trkpt><trkpt lat="43.33981929971737" lon="10.872948719470337"><ele>237.0</ele><time>2026-04-18T09:53:31Z</time></trkpt><trkpt lat="43.33981037551024" lon="10.872855669741133"><ele>237.0</ele><time>2026-04-18T09:53:40Z</time></trkpt><trkpt lat="43.3398032716941" lon="10.87275496363781"><ele>237.0</ele><time>2026-04-18T09:53:42Z</time></trkpt><trkpt lat="43.33982734931428" lon="10.87267397317086"><ele>237.0</ele><time>2026-04-18T09:53:45Z</time></trkpt><trkpt lat="43.339863021196365" lon="10.872567259758634"><ele>237.0</ele><time>2026-04-18T09:53:52Z</time></trkpt><trkpt lat="43.339891964345824" lon="10.872465600628408"><ele>237.0</ele><time>2026-04-18T09:53:55Z</time></trkpt><trkpt lat="43.33991093488836" lon="10.872344740603669"><ele>237.0</ele><time>2026-04-18T09:53:58Z</time></trkpt><trkpt lat="43.33992170758393" lon="10.87225872797848"><ele>237.66666666666666</ele><time>2026-04-18T09:54:15.001Z</time></trkpt><trkpt lat="43.33992726560951" lon="10.872165911633303"><ele>238.33333333333331</ele><time>2026-04-18T09:54:24.001Z</time></trkpt><trkpt lat="43.33989126906383" lon="10.872055838552813"><ele>239.0</ele><time>2026-04-18T09:54:27.001Z</time></trkpt><trkpt lat="43.339877743168955" lon="10.87195366007653"><ele>239.66666666666666</ele><time>2026-04-18T09:54:30.001Z</time></trkpt><trkpt lat="43.33988018604712" lon="10.871850582731813"><ele>240.33333333333331</ele><time>2026-04-18T09:54:33.001Z</time></trkpt><trkpt lat="43.33982231348625" lon="10.871784711142409"><ele>241.0</ele><time>2026-04-18T09:54:35.001Z</time></trkpt><trkpt lat="43.33976465428125" lon="10.871644548733437"><ele>241.33333333333331</ele><time>2026-04-18T09:54:37.001Z</time></trkpt><trkpt lat="43.33975340998347" lon="10.871502006904674"><ele>241.66666666666666</ele><time>2026-04-18T09:54:39.001Z</time></trkpt><trkpt lat="43.339754937430165" lon="10.871398590758323"><ele>242.0</ele><time>2026-04-18T09:54:41.002Z</time></trkpt><trkpt lat="43.33975245799589" lon="10.871283782252084"><ele>242.33333333333331</ele><time>2026-04-18T09:54:43.002Z</time></trkpt><trkpt lat="43.33974364237861" lon="10.871148440762099"><ele>242.66666666666666</ele><time>2026-04-18T09:54:45.002Z</time></trkpt><trkpt lat="43.33972493554584" lon="10.871058034856974"><ele>243.0</ele><time>2026-04-18T09:54:46.002Z</time></trkpt><trkpt lat="43.33967282093634" lon="10.870926363543534"><ele>236.8</ele><time>2026-04-18T09:54:48.002Z</time></trkpt><trkpt lat="43.33960873319661" lon="10.870808005398503"><ele>230.60000000000002</ele><time>2026-04-18T09:54:50.002Z</time></trkpt><trkpt lat="43.339546544940156" lon="10.870724895145175"><ele>224.39999999999998</ele><time>2026-04-18T09:54:52.002Z</time></trkpt><trkpt lat="43.33948869774279" lon="10.870646430856812"><ele>218.2</ele><time>2026-04-18T09:54:54.002Z</time></trkpt><trkpt lat="43.339445592600725" lon="10.870522928699218"><ele>212.0</ele><time>2026-04-18T09:54:56.002Z</time></trkpt><trkpt lat="43.33940341658927" lon="10.870380874104152"><ele>212.00000000000003</ele><time>2026-04-18T09:54:58.002Z</time></trkpt><trkpt lat="43.339381911145246" lon="10.87024680828563"><ele>212.0</ele><time>2026-04-18T09:55:00.002Z</time></trkpt><trkpt lat="43.339378155360514" lon="10.87015427158989"><ele>212.0</ele><time>2026-04-18T09:55:01.002Z</time></trkpt><trkpt lat="43.33933909715101" lon="10.870004432040343"><ele>212.0</ele><time>2026-04-18T09:55:03.002Z</time></trkpt><trkpt lat="43.33929274608444" lon="10.869922737114344"><ele>212.00000000000003</ele><time>2026-04-18T09:55:04.002Z</time></trkpt><trkpt lat="43.339236730535866" lon="10.86984584202791"><ele>212.0</ele><time>2026-04-18T09:55:05.002Z</time></trkpt><trkpt lat="43.339194534331256" lon="10.869766573668166"><ele>213.39999999999998</ele><time>2026-04-18T09:55:06.002Z</time></trkpt><trkpt lat="43.33916041790572" lon="10.869691905230157"><ele>214.79999999999998</ele><time>2026-04-18T09:55:07.002Z</time></trkpt><trkpt lat="43.33911962712846" lon="10.86953785775745"><ele>216.2</ele><time>2026-04-18T09:55:09.002Z</time></trkpt><trkpt lat="43.33912409039882" lon="10.869383812006202"><ele>217.6</ele><time>2026-04-18T09:55:11.002Z</time></trkpt><trkpt lat="43.3391666509298" lon="10.869250767941471"><ele>219.0</ele><time>2026-04-18T09:55:13.002Z</time></trkpt><trkpt lat="43.339183700181096" lon="10.86915813678755"><ele>219.16666666666666</ele><time>2026-04-18T09:55:14.002Z</time></trkpt><trkpt lat="43.33919992814856" lon="10.869069804039185"><ele>219.33333333333331</ele><time>2026-04-18T09:55:15.002Z</time></trkpt><trkpt lat="43.33920589272315" lon="10.868978558434668"><ele>219.5</ele><time>2026-04-18T09:55:16.003Z</time></trkpt><trkpt lat="43.33922298514488" lon="10.868813490803282"><ele>219.66666666666666</ele><time>2026-04-18T09:55:18.003Z</time></trkpt><trkpt lat="43.339213336270056" lon="10.868671309086428"><ele>219.83333333333331</ele><time>2026-04-18T09:55:20.003Z</time></trkpt><trkpt lat="43.3392109247527" lon="10.868583765267461"><ele>220.0</ele><time>2026-04-18T09:55:22.003Z</time></trkpt><trkpt lat="43.339216130401844" lon="10.868453527293378"><ele>218.99999999999997</ele><time>2026-04-18T09:55:24.003Z</time></trkpt><trkpt lat="43.3392164616849" lon="10.868334409981125"><ele>218.0</ele><time>2026-04-18T09:55:26.003Z</time></trkpt><trkpt lat="43.33920987372048" lon="10.86824103013782"><ele>217.0</ele><time>2026-04-18T09:55:28.003Z</time></trkpt><trkpt lat="43.339213379224205" lon="10.868131301545871"><ele>216.0</ele><time>2026-04-18T09:55:30.003Z</time></trkpt><trkpt lat="43.33920281631913" lon="10.868003128253024"><ele>214.99999999999997</ele><time>2026-04-18T09:55:31.998Z</time></trkpt><trkpt lat="43.339192201269896" lon="10.86788615671188"><ele>214.0</ele><time>2026-04-18T09:55:33.998Z</time></trkpt><trkpt lat="43.339184448977285" lon="10.867791058592102"><ele>213.99999999999997</ele><time>2026-04-18T09:55:35.998Z</time></trkpt><trkpt lat="43.33918933177979" lon="10.867699431825418"><ele>214.0</ele><time>2026-04-18T09:55:37.998Z</time></trkpt><trkpt lat="43.33921342400324" lon="10.867586638388584"><ele>214.0</ele><time>2026-04-18T09:55:40.998Z</time></trkpt><trkpt lat="43.339165162663214" lon="10.867485407642874"><ele>214.0</ele><time>2026-04-18T09:55:42.998Z</time></trkpt><trkpt lat="43.33912830272602" lon="10.867356050153662"><ele>213.99999999999997</ele><time>2026-04-18T09:55:44.998Z</time></trkpt><trkpt lat="43.339080147099054" lon="10.867253233706064"><ele>214.0</ele><time>2026-04-18T09:55:46.999Z</time></trkpt><trkpt lat="43.339021036984704" lon="10.86717456609123"><ele>213.66666666666666</ele><time>2026-04-18T09:55:48.999Z</time></trkpt><trkpt lat="43.33893805787026" lon="10.867191579163231"><ele>213.33333333333331</ele><time>2026-04-18T09:55:50.999Z</time></trkpt><trkpt lat="43.33888182737472" lon="10.867239551494093"><ele>213.0</ele><time>2026-04-18T09:55:52.999Z</time></trkpt><trkpt lat="43.338798293006924" lon="10.867190764224583"><ele>212.66666666666669</ele><time>2026-04-18T09:55:54.999Z</time></trkpt><trkpt lat="43.33873301846352" lon="10.867191557586992"><ele>212.33333333333334</ele><time>2026-04-18T09:55:56.999Z</time></trkpt><trkpt lat="43.33863165711896" lon="10.867195951463229"><ele>212.0</ele><time>2026-04-18T09:55:58.999Z</time></trkpt><trkpt lat="43.33855345925198" lon="10.867181897313548"><ele>208.83333333333334</ele><time>2026-04-18T09:56:00.999Z</time></trkpt><trkpt lat="43.33849492491933" lon="10.86711682248296"><ele>205.66666666666669</ele><time>2026-04-18T09:56:03Z</time></trkpt><trkpt lat="43.338423359490335" lon="10.867074459561772"><ele>202.5</ele><time>2026-04-18T09:56:05Z</time></trkpt><trkpt lat="43.338320164835125" lon="10.86709928354912"><ele>199.33333333333331</ele><time>2026-04-18T09:56:07Z</time></trkpt><trkpt lat="43.338244895855766" lon="10.867112030772521"><ele>196.16666666666666</ele><time>2026-04-18T09:56:09Z</time></trkpt><trkpt lat="43.33814674506225" lon="10.86706073050146"><ele>193.0</ele><time>2026-04-18T09:56:11Z</time></trkpt><trkpt lat="43.33810313740081" lon="10.86699207969341"><ele>192.99999999999997</ele><time>2026-04-18T09:56:13Z</time></trkpt><trkpt lat="43.33808986979342" lon="10.866887683917465"><ele>193.0</ele><time>2026-04-18T09:56:15Z</time></trkpt><trkpt lat="43.33811319699619" lon="10.866778944511998"><ele>193.0</ele><time>2026-04-18T09:56:17Z</time></trkpt><trkpt lat="43.338153745821444" lon="10.866669514209587"><ele>193.0</ele><time>2026-04-18T09:56:19Z</time></trkpt><trkpt lat="43.33815503901493" lon="10.866552007425655"><ele>192.99999999999997</ele><time>2026-04-18T09:56:21Z</time></trkpt><trkpt lat="43.33814421448489" lon="10.866434411247559"><ele>193.0</ele><time>2026-04-18T09:56:23Z</time></trkpt><trkpt lat="43.33811148930195" lon="10.866317614092807"><ele>193.0</ele><time>2026-04-18T09:56:25Z</time></trkpt><trkpt lat="43.338057558925456" lon="10.866222045854709"><ele>193.0</ele><time>2026-04-18T09:56:27Z</time></trkpt><trkpt lat="43.33798656919832" lon="10.866132261610964"><ele>193.0</ele><time>2026-04-18T09:56:29.001Z</time></trkpt><trkpt lat="43.33792774649381" lon="10.866037115989348"><ele>193.0</ele><time>2026-04-18T09:56:31.001Z</time></trkpt><trkpt lat="43.33784134929324" lon="10.865977801176376"><ele>193.0</ele><time>2026-04-18T09:56:33.001Z</time></trkpt><trkpt lat="43.337728241664024" lon="10.86589599088814"><ele>192.99999999999997</ele><time>2026-04-18T09:56:35.001Z</time></trkpt><trkpt lat="43.33767167187869" lon="10.865855925114412"><ele>193.0</ele><time>2026-04-18T09:56:36.001Z</time></trkpt><trkpt lat="43.337580137625885" lon="10.865816049470272"><ele>193.0</ele><time>2026-04-18T09:56:38.001Z</time></trkpt><trkpt lat="43.337535190103445" lon="10.865704256006095"><ele>193.0</ele><time>2026-04-18T09:56:40.001Z</time></trkpt><trkpt lat="43.33755231146159" lon="10.865572220635064"><ele>192.99999999999997</ele><time>2026-04-18T09:56:42.001Z</time></trkpt><trkpt lat="43.33762621943401" lon="10.865489148189619"><ele>193.0</ele><time>2026-04-18T09:56:44.001Z</time></trkpt><trkpt lat="43.3377168643816" lon="10.865446246651137"><ele>193.00000000000003</ele><time>2026-04-18T09:56:46.001Z</time></trkpt><trkpt lat="43.33777637293496" lon="10.865365310930724"><ele>193.0</ele><time>2026-04-18T09:56:48.001Z</time></trkpt><trkpt lat="43.33781022012346" lon="10.865281029545553"><ele>193.0</ele><time>2026-04-18T09:56:50.001Z</time></trkpt><trkpt lat="43.337827735144344" lon="10.86518804152251"><ele>193.0</ele><time>2026-04-18T09:56:53.001Z</time></trkpt><trkpt lat="43.337855197652466" lon="10.865108097665221"><ele>193.0</ele><time>2026-04-18T09:57:07.002Z</time></trkpt><trkpt lat="43.33787772027118" lon="10.865009593562664"><ele>193.00000000000003</ele><time>2026-04-18T09:57:22.002Z</time></trkpt><trkpt lat="43.33790258492724" lon="10.864926010648722"><ele>193.0</ele><time>2026-04-18T10:03:05.002Z</time></trkpt><trkpt lat="43.33796495737102" lon="10.8649057611957"><ele>191.99999999999997</ele><time>2026-04-18T10:04:46.001Z</time></trkpt><trkpt lat="43.33800117145413" lon="10.86482862757232"><ele>191.0</ele><time>2026-04-18T10:05:06.001Z</time></trkpt><trkpt lat="43.33798427892729" lon="10.864730681025378"><ele>190.0</ele><time>2026-04-18T10:05:11.002Z</time></trkpt><trkpt lat="43.33795349327568" lon="10.864629779032228"><ele>189.0</ele><time>2026-04-18T10:05:16.002Z</time></trkpt><trkpt lat="43.33791629711281" lon="10.864533296785323"><ele>188.0</ele><time>2026-04-18T10:05:19.002Z</time></trkpt><trkpt lat="43.33788536409742" lon="10.864445637758479"><ele>187.0</ele><time>2026-04-18T10:05:21.002Z</time></trkpt><trkpt lat="43.33779227451922" lon="10.864246175362048"><ele>186.0</ele><time>2026-04-18T10:08:58.001Z</time></trkpt><trkpt lat="43.33777306969203" lon="10.864118720490247"><ele>185.0</ele><time>2026-04-18T10:09:00.001Z</time></trkpt><trkpt lat="43.33776256802289" lon="10.863951757259178"><ele>184.0</ele><time>2026-04-18T10:09:02.001Z</time></trkpt><trkpt lat="43.33777579385249" lon="10.863833018487485"><ele>183.0</ele><time>2026-04-18T10:09:03.001Z</time></trkpt><trkpt lat="43.33778906082225" lon="10.863738678782322"><ele>182.0</ele><time>2026-04-18T10:09:04.002Z</time></trkpt><trkpt lat="43.337780199830036" lon="10.863594017494467"><ele>182.0</ele><time>2026-04-18T10:09:06.002Z</time></trkpt><trkpt lat="43.33772087887221" lon="10.863510099561854"><ele>182.0</ele><time>2026-04-18T10:09:08.002Z</time></trkpt><trkpt lat="43.33767497097785" lon="10.86341049137511"><ele>182.0</ele><time>2026-04-18T10:09:11.002Z</time></trkpt><trkpt lat="43.33768921801827" lon="10.863305452773943"><ele>182.0</ele><time>2026-04-18T10:09:13.002Z</time></trkpt><trkpt lat="43.33769117547931" lon="10.863192458536536"><ele>182.0</ele><time>2026-04-18T10:09:16.002Z</time></trkpt><trkpt lat="43.33767077075856" lon="10.86309824229076"><ele>182.0</ele><time>2026-04-18T10:09:24.002Z</time></trkpt><trkpt lat="43.337617169014585" lon="10.863031364864185"><ele>181.83333333333331</ele><time>2026-04-18T10:09:27.002Z</time></trkpt><trkpt lat="43.3375693688089" lon="10.862945666130232"><ele>181.66666666666666</ele><time>2026-04-18T10:09:29.002Z</time></trkpt><trkpt lat="43.337541523420654" lon="10.862860090756746"><ele>181.5</ele><time>2026-04-18T10:09:31.002Z</time></trkpt><trkpt lat="43.33749932949864" lon="10.86275719671052"><ele>181.33333333333334</ele><time>2026-04-18T10:09:33.002Z</time></trkpt><trkpt lat="43.337456894526795" lon="10.86268105969595"><ele>181.16666666666669</ele><time>2026-04-18T10:09:36.002Z</time></trkpt><trkpt lat="43.33741340905163" lon="10.862585346178054"><ele>181.0</ele><time>2026-04-18T10:09:40.003Z</time></trkpt><trkpt lat="43.337384278348075" lon="10.862467653828242"><ele>180.5</ele><time>2026-04-18T10:09:43.003Z</time></trkpt><trkpt lat="43.3373569560287" lon="10.862386097904459"><ele>180.0</ele><time>2026-04-18T10:09:47.003Z</time></trkpt><trkpt lat="43.33730786843991" lon="10.862265535632442"><ele>179.5</ele><time>2026-04-18T10:09:50.003Z</time></trkpt><trkpt lat="43.33728455970844" lon="10.86217603565764"><ele>179.0</ele><time>2026-04-18T10:09:52.003Z</time></trkpt><trkpt lat="43.3372819708639" lon="10.862084020598793"><ele>178.5</ele><time>2026-04-18T10:09:54.003Z</time></trkpt><trkpt lat="43.33726069556971" lon="10.861962349847524"><ele>178.0</ele><time>2026-04-18T10:09:57.003Z</time></trkpt><trkpt lat="43.33723958755686" lon="10.861857072396488"><ele>174.42857142857142</ele><time>2026-04-18T10:10:00.003Z</time></trkpt><trkpt lat="43.33721148376741" lon="10.861768560012894"><ele>170.85714285714286</ele><time>2026-04-18T10:10:03.003Z</time></trkpt><trkpt lat="43.33718847978519" lon="10.861687020745682"><ele>167.28571428571428</ele><time>2026-04-18T10:10:11.003Z</time></trkpt><trkpt lat="43.3371596072231" lon="10.861582842162713"><ele>163.71428571428572</ele><time>2026-04-18T10:10:17Z</time></trkpt><trkpt lat="43.33716082146705" lon="10.861491977239398"><ele>160.14285714285714</ele><time>2026-04-18T10:10:21Z</time></trkpt><trkpt lat="43.33714490310992" lon="10.861384797640017"><ele>156.57142857142856</ele><time>2026-04-18T10:10:25Z</time></trkpt><trkpt lat="43.33711229140257" lon="10.861289920825472"><ele>153.0</ele><time>2026-04-18T10:10:29Z</time></trkpt><trkpt lat="43.33709661302258" lon="10.861186585737697"><ele>153.0</ele><time>2026-04-18T10:10:32Z</time></trkpt><trkpt lat="43.3370746129979" lon="10.861068014888506"><ele>153.0</ele><time>2026-04-18T10:10:35Z</time></trkpt><trkpt lat="43.337089867914045" lon="10.860945411490503"><ele>153.0</ele><time>2026-04-18T10:10:37Z</time></trkpt><trkpt lat="43.337099018524285" lon="10.860838178640472"><ele>153.0</ele><time>2026-04-18T10:10:39.001Z</time></trkpt><trkpt lat="43.33712632086514" lon="10.860696929121907"><ele>153.0</ele><time>2026-04-18T10:10:41.001Z</time></trkpt><trkpt lat="43.33714444431378" lon="10.860552311970403"><ele>152.66666666666666</ele><time>2026-04-18T10:10:43.001Z</time></trkpt><trkpt lat="43.337120535407244" lon="10.860444893521645"><ele>152.33333333333334</ele><time>2026-04-18T10:10:45.001Z</time></trkpt><trkpt lat="43.337117154658614" lon="10.860349259320763"><ele>152.0</ele><time>2026-04-18T10:10:47.001Z</time></trkpt><trkpt lat="43.33711298016137" lon="10.86023940257926"><ele>151.66666666666669</ele><time>2026-04-18T10:10:49.001Z</time></trkpt><trkpt lat="43.33711753097349" lon="10.860149943377927"><ele>151.33333333333334</ele><time>2026-04-18T10:10:51.001Z</time></trkpt><trkpt lat="43.337134549334166" lon="10.860032866174357"><ele>151.0</ele><time>2026-04-18T10:10:53.001Z</time></trkpt><trkpt lat="43.33716446209775" lon="10.859946678712273"><ele>150.0</ele><time>2026-04-18T10:10:55.001Z</time></trkpt><trkpt lat="43.33714955721381" lon="10.859849316794719"><ele>149.0</ele><time>2026-04-18T10:10:57.001Z</time></trkpt><trkpt lat="43.33710215235502" lon="10.859779415708822"><ele>148.0</ele><time>2026-04-18T10:10:59.001Z</time></trkpt><trkpt lat="43.3370675780439" lon="10.859669107909408"><ele>147.0</ele><time>2026-04-18T10:11:01.001Z</time></trkpt><trkpt lat="43.337082773825976" lon="10.859532708394775"><ele>146.0</ele><time>2026-04-18T10:11:03.001Z</time></trkpt><trkpt lat="43.33708723893434" lon="10.85941862570127"><ele>145.0</ele><time>2026-04-18T10:11:05.001Z</time></trkpt><trkpt lat="43.337081182168724" lon="10.859309506480475"><ele>144.66666666666669</ele><time>2026-04-18T10:11:07.001Z</time></trkpt><trkpt lat="43.33706084490599" lon="10.859194213493401"><ele>144.33333333333334</ele><time>2026-04-18T10:11:10.001Z</time></trkpt><trkpt lat="43.33702294565786" lon="10.859112897011242"><ele>144.0</ele><time>2026-04-18T10:12:53Z</time></trkpt><trkpt lat="43.336994861668074" lon="10.859025934546795"><ele>143.66666666666666</ele><time>2026-04-18T10:13:02.001Z</time></trkpt><trkpt lat="43.33699701959585" lon="10.858919921401545"><ele>143.33333333333331</ele><time>2026-04-18T10:13:11.001Z</time></trkpt><trkpt lat="43.33698320762336" lon="10.858824470074177"><ele>143.0</ele><time>2026-04-18T10:13:14.001Z</time></trkpt><trkpt lat="43.336951391897664" lon="10.858724092727243"><ele>143.0</ele><time>2026-04-18T10:13:19.001Z</time></trkpt><trkpt lat="43.33692084538567" lon="10.858634061747884"><ele>143.0</ele><time>2026-04-18T10:13:22.001Z</time></trkpt><trkpt lat="43.336902306675086" lon="10.85853226107944"><ele>143.0</ele><time>2026-04-18T10:13:25.001Z</time></trkpt><trkpt lat="43.3368918687571" lon="10.858438983695123"><ele>143.0</ele><time>2026-04-18T10:13:28.002Z</time></trkpt><trkpt lat="43.33687793575055" lon="10.858336602078616"><ele>143.0</ele><time>2026-04-18T10:13:30.002Z</time></trkpt><trkpt lat="43.336868150143985" lon="10.85823112822107"><ele>143.0</ele><time>2026-04-18T10:13:32.002Z</time></trkpt><trkpt lat="43.33686239698549" lon="10.858098963276872"><ele>142.5</ele><time>2026-04-18T10:13:34.002Z</time></trkpt><trkpt lat="43.336868553931204" lon="10.857999477881476"><ele>142.0</ele><time>2026-04-18T10:13:36.002Z</time></trkpt><trkpt lat="43.33682753315432" lon="10.857904888830008"><ele>141.5</ele><time>2026-04-18T10:13:38.002Z</time></trkpt><trkpt lat="43.33678182781969" lon="10.857836805095333"><ele>141.0</ele><time>2026-04-18T10:13:40.002Z</time></trkpt><trkpt lat="43.336754610727695" lon="10.85775261009899"><ele>140.5</ele><time>2026-04-18T10:13:42.002Z</time></trkpt><trkpt lat="43.33672649556541" lon="10.857639918148175"><ele>140.0</ele><time>2026-04-18T10:13:50.002Z</time></trkpt><trkpt lat="43.3366540064352" lon="10.857539536709353"><ele>139.83333333333331</ele><time>2026-04-18T10:13:53.002Z</time></trkpt><trkpt lat="43.33660034389199" lon="10.857463624621776"><ele>139.66666666666666</ele><time>2026-04-18T10:13:55.002Z</time></trkpt><trkpt lat="43.336578788684584" lon="10.85733647469242"><ele>139.5</ele><time>2026-04-18T10:13:57.002Z</time></trkpt><trkpt lat="43.33660314944708" lon="10.857251694168706"><ele>139.33333333333334</ele><time>2026-04-18T10:13:59.002Z</time></trkpt><trkpt lat="43.33668275581763" lon="10.857178364843197"><ele>139.16666666666669</ele><time>2026-04-18T10:14:52Z</time></trkpt><trkpt lat="43.33675682768222" lon="10.85711357095247"><ele>139.0</ele><time>2026-04-18T10:14:54Z</time></trkpt><trkpt lat="43.33681399284092" lon="10.857025286495741"><ele>139.0</ele><time>2026-04-18T10:14:56Z</time></trkpt><trkpt lat="43.336860381659875" lon="10.856937041008484"><ele>139.0</ele><time>2026-04-18T10:14:59Z</time></trkpt><trkpt lat="43.33687268945156" lon="10.856838049611165"><ele>139.0</ele><time>2026-04-18T10:15:01Z</time></trkpt><trkpt lat="43.33688428553337" lon="10.856740207103668"><ele>139.0</ele><time>2026-04-18T10:15:03Z</time></trkpt><trkpt lat="43.33692937021049" lon="10.856650915011908"><ele>139.0</ele><time>2026-04-18T10:15:06.001Z</time></trkpt><trkpt lat="43.33694592268967" lon="10.85655732339756"><ele>139.0</ele><time>2026-04-18T10:15:09.001Z</time></trkpt><trkpt lat="43.33697568590962" lon="10.856435560076315"><ele>137.85714285714286</ele><time>2026-04-18T10:15:12.001Z</time></trkpt><trkpt lat="43.33699994239768" lon="10.856348958296996"><ele>136.71428571428572</ele><time>2026-04-18T10:15:14.001Z</time></trkpt><trkpt lat="43.337019148341994" lon="10.856262617686316"><ele>135.57142857142858</ele><time>2026-04-18T10:15:16.001Z</time></trkpt><trkpt lat="43.337053210346504" lon="10.856179622269806"><ele>134.42857142857144</ele><time>2026-04-18T10:15:20.001Z</time></trkpt><trkpt lat="43.33707221033999" lon="10.85606840250909"><ele>133.2857142857143</ele><time>2026-04-18T10:15:24.001Z</time></trkpt><trkpt lat="43.33707716215369" lon="10.855979658835498"><ele>132.14285714285714</ele><time>2026-04-18T10:15:27.001Z</time></trkpt><trkpt lat="43.33708010473662" lon="10.855878442697128"><ele>131.0</ele><time>2026-04-18T10:15:31.001Z</time></trkpt><trkpt lat="43.337095849434405" lon="10.85579339511065"><ele>132.57142857142858</ele><time>2026-04-18T10:15:49.002Z</time></trkpt><trkpt lat="43.3371231125621" lon="10.855714890217767"><ele>134.14285714285717</ele><time>2026-04-18T10:15:51.002Z</time></trkpt><trkpt lat="43.33714669023824" lon="10.85563143027082"><ele>135.71428571428572</ele><time>2026-04-18T10:15:53.002Z</time></trkpt><trkpt lat="43.33717015927062" lon="10.855549354384783"><ele>137.28571428571428</ele><time>2026-04-18T10:15:55.002Z</time></trkpt><trkpt lat="43.33722019082101" lon="10.855472135099907"><ele>138.85714285714283</ele><time>2026-04-18T10:15:58.002Z</time></trkpt><trkpt lat="43.33725986033808" lon="10.855372346623907"><ele>140.42857142857142</ele><time>2026-04-18T10:16:01.002Z</time></trkpt><trkpt lat="43.33731170902775" lon="10.855286365600822"><ele>142.0</ele><time>2026-04-18T10:16:18.003Z</time></trkpt><trkpt lat="43.33737021333525" lon="10.85522340615215"><ele>139.28571428571428</ele><time>2026-04-18T10:17:46.002Z</time></trkpt><trkpt lat="43.33738230867325" lon="10.85511136256026"><ele>136.57142857142856</ele><time>2026-04-18T10:17:57.002Z</time></trkpt><trkpt lat="43.3374472356613" lon="10.85510321236487"><ele>133.85714285714286</ele><time>2026-04-18T10:18:10.003Z</time></trkpt><trkpt lat="43.33750403098677" lon="10.855065133680034"><ele>131.14285714285714</ele><time>2026-04-18T10:18:12.003Z</time></trkpt><trkpt lat="43.33756709023385" lon="10.855001831905223"><ele>128.42857142857144</ele><time>2026-04-18T10:18:26.003Z</time></trkpt><trkpt lat="43.337638796589495" lon="10.854966301704186"><ele>125.71428571428572</ele><time>2026-04-18T10:18:28.003Z</time></trkpt><trkpt lat="43.33770046740146" lon="10.854913377172458"><ele>123.00000000000001</ele><time>2026-04-18T10:18:30.003Z</time></trkpt><trkpt lat="43.33775926865314" lon="10.85482109781994"><ele>123.0</ele><time>2026-04-18T10:18:32.003Z</time></trkpt><trkpt lat="43.33781170969524" lon="10.854742069548566"><ele>123.00000000000001</ele><time>2026-04-18T10:18:34.003Z</time></trkpt><trkpt lat="43.33784232475999" lon="10.854587335177067"><ele>123.00000000000001</ele><time>2026-04-18T10:18:36.003Z</time></trkpt><trkpt lat="43.3378483418023" lon="10.854440865957315"><ele>123.0</ele><time>2026-04-18T10:18:38Z</time></trkpt><trkpt lat="43.33786959890504" lon="10.854321072972176"><ele>123.0</ele><time>2026-04-18T10:18:40Z</time></trkpt><trkpt lat="43.337903422891806" lon="10.854199620720859"><ele>123.83333333333333</ele><time>2026-04-18T10:18:42Z</time></trkpt><trkpt lat="43.33793239744256" lon="10.854110342524148"><ele>124.66666666666666</ele><time>2026-04-18T10:18:44Z</time></trkpt><trkpt lat="43.33799731795444" lon="10.854014812634222"><ele>125.5</ele><time>2026-04-18T10:18:46Z</time></trkpt><trkpt lat="43.33805509270806" lon="10.853913902388856"><ele>126.33333333333333</ele><time>2026-04-18T10:18:48Z</time></trkpt><trkpt lat="43.338094647937304" lon="10.853814729373752"><ele>127.16666666666666</ele><time>2026-04-18T10:18:50Z</time></trkpt><trkpt lat="43.33811423189445" lon="10.853723038845324"><ele>128.0</ele><time>2026-04-18T10:18:52Z</time></trkpt><trkpt lat="43.33806353807236" lon="10.853637871035748"><ele>126.0</ele><time>2026-04-18T10:18:55Z</time></trkpt><trkpt lat="43.338034621623606" lon="10.853528412990912"><ele>124.00000000000001</ele><time>2026-04-18T10:19:11.001Z</time></trkpt><trkpt lat="43.33806692703854" lon="10.853398643772096"><ele>122.00000000000001</ele><time>2026-04-18T10:19:13.001Z</time></trkpt><trkpt lat="43.33808590068943" lon="10.853238793142115"><ele>120.0</ele><time>2026-04-18T10:19:15.001Z</time></trkpt><trkpt lat="43.33811033278984" lon="10.85310572219475"><ele>118.0</ele><time>2026-04-18T10:19:17.001Z</time></trkpt><trkpt lat="43.338130983420335" lon="10.85299479218659"><ele>118.00000000000001</ele><time>2026-04-18T10:19:19.001Z</time></trkpt><trkpt lat="43.338157463720805" lon="10.85286238348886"><ele>118.0</ele><time>2026-04-18T10:19:21.001Z</time></trkpt><trkpt lat="43.33817664253582" lon="10.852764771327628"><ele>118.0</ele><time>2026-04-18T10:19:22.001Z</time></trkpt><trkpt lat="43.33820115505116" lon="10.852676097823085"><ele>118.0</ele><time>2026-04-18T10:19:23.001Z</time></trkpt><trkpt lat="43.3382373708446" lon="10.852594177280364"><ele>118.00000000000001</ele><time>2026-04-18T10:19:24.001Z</time></trkpt><trkpt lat="43.33828382720469" lon="10.85251753285657"><ele>118.0</ele><time>2026-04-18T10:19:25.001Z</time></trkpt><trkpt lat="43.33832021430529" lon="10.852418887967877"><ele>115.60000000000001</ele><time>2026-04-18T10:19:26.001Z</time></trkpt><trkpt lat="43.33835635308737" lon="10.852281842327866"><ele>113.20000000000002</ele><time>2026-04-18T10:19:28.001Z</time></trkpt><trkpt lat="43.338411144312595" lon="10.85217321152259"><ele>110.8</ele><time>2026-04-18T10:19:30.001Z</time></trkpt><trkpt lat="43.3384900197125" lon="10.852081799996297"><ele>108.4</ele><time>2026-04-18T10:19:32.001Z</time></trkpt><trkpt lat="43.3385732464087" lon="10.852029412576126"><ele>106.0</ele><time>2026-04-18T10:19:34.001Z</time></trkpt><trkpt lat="43.3386660461049" lon="10.85199168026641"><ele>106.0</ele><time>2026-04-18T10:19:36.001Z</time></trkpt><trkpt lat="43.33875802676108" lon="10.851910700072159"><ele>106.0</ele><time>2026-04-18T10:19:38.001Z</time></trkpt><trkpt lat="43.33886053372544" lon="10.851825975787618"><ele>106.0</ele><time>2026-04-18T10:19:40.001Z</time></trkpt><trkpt lat="43.338927754790404" lon="10.851789877386647"><ele>106.0</ele><time>2026-04-18T10:19:41.001Z</time></trkpt><trkpt lat="43.339015983051596" lon="10.851762766974403"><ele>106.0</ele><time>2026-04-18T10:19:43.001Z</time></trkpt><trkpt lat="43.33911454919983" lon="10.851783711574758"><ele>104.16666666666667</ele><time>2026-04-18T10:19:45.002Z</time></trkpt><trkpt lat="43.33919341288702" lon="10.851751857199833"><ele>102.33333333333334</ele><time>2026-04-18T10:19:47.002Z</time></trkpt><trkpt lat="43.33922081986732" lon="10.85164693496796"><ele>100.5</ele><time>2026-04-18T10:19:49.002Z</time></trkpt><trkpt lat="43.3391269865439" lon="10.851512202670218"><ele>98.66666666666667</ele><time>2026-04-18T10:19:51.002Z</time></trkpt><trkpt lat="43.33906301558894" lon="10.851452474181427"><ele>96.83333333333334</ele><time>2026-04-18T10:19:52.002Z</time></trkpt><trkpt lat="43.33900120470904" lon="10.85143401546262"><ele>95.0</ele><time>2026-04-18T10:19:53.002Z</time></trkpt><trkpt lat="43.338930145188414" lon="10.851429753277852"><ele>95.0</ele><time>2026-04-18T10:19:54.002Z</time></trkpt><trkpt lat="43.3388138724755" lon="10.851433155987841"><ele>95.0</ele><time>2026-04-18T10:19:56.002Z</time></trkpt><trkpt lat="43.33874076803473" lon="10.85142703101796"><ele>95.0</ele><time>2026-04-18T10:19:57.002Z</time></trkpt><trkpt lat="43.33864932832316" lon="10.851418230937568"><ele>95.0</ele><time>2026-04-18T10:19:58.002Z</time></trkpt><trkpt lat="43.33857155506976" lon="10.851399303955894"><ele>95.0</ele><time>2026-04-18T10:19:59.002Z</time></trkpt><trkpt lat="43.338506520097354" lon="10.85139051447855"><ele>95.0</ele><time>2026-04-18T10:20:00.002Z</time></trkpt><trkpt lat="43.33842235998295" lon="10.85137157030288"><ele>95.0</ele><time>2026-04-18T10:20:02.002Z</time></trkpt><trkpt lat="43.33836232948139" lon="10.851338202608137"><ele>95.0</ele><time>2026-04-18T10:20:04.002Z</time></trkpt><trkpt lat="43.338272895510976" lon="10.851318651217271"><ele>95.0</ele><time>2026-04-18T10:20:10.002Z</time></trkpt><trkpt lat="43.338204000168886" lon="10.851286046164466"><ele>95.0</ele><time>2026-04-18T10:20:11.002Z</time></trkpt><trkpt lat="43.338125720811256" lon="10.851240632992386"><ele>95.0</ele><time>2026-04-18T10:20:12.002Z</time></trkpt><trkpt lat="43.33806239674859" lon="10.851225219218803"><ele>95.0</ele><time>2026-04-18T10:20:13.002Z</time></trkpt><trkpt lat="43.337997364542154" lon="10.851207452863651"><ele>95.0</ele><time>2026-04-18T10:20:14.002Z</time></trkpt><trkpt lat="43.33790735427705" lon="10.851193578075566"><ele>94.0</ele><time>2026-04-18T10:20:15.002Z</time></trkpt><trkpt lat="43.33779263203962" lon="10.851180405478653"><ele>93.0</ele><time>2026-04-18T10:20:16.002Z</time></trkpt><trkpt lat="43.33768028974428" lon="10.851166982813094"><ele>92.0</ele><time>2026-04-18T10:20:17.002Z</time></trkpt><trkpt lat="43.337602062323924" lon="10.851143888903517"><ele>91.0</ele><time>2026-04-18T10:20:18.002Z</time></trkpt><trkpt lat="43.33751397790544" lon="10.85111206308614"><ele>90.0</ele><time>2026-04-18T10:20:20.002Z</time></trkpt><trkpt lat="43.33744498444124" lon="10.85108486232888"><ele>90.0</ele><time>2026-04-18T10:20:22.003Z</time></trkpt><trkpt lat="43.3373855915061" lon="10.851044394901697"><ele>90.0</ele><time>2026-04-18T10:20:32.003Z</time></trkpt><trkpt lat="43.33739267015921" lon="10.850928843349392"><ele>90.0</ele><time>2026-04-18T10:20:34.003Z</time></trkpt><trkpt lat="43.33746913284156" lon="10.850820853435717"><ele>90.0</ele><time>2026-04-18T10:20:35.003Z</time></trkpt><trkpt lat="43.33751539943068" lon="10.850711724119886"><ele>90.0</ele><time>2026-04-18T10:20:36.003Z</time></trkpt><trkpt lat="43.33757193582183" lon="10.850585303413224"><ele>88.5</ele><time>2026-04-18T10:20:37.003Z</time></trkpt><trkpt lat="43.33762724584614" lon="10.85045698707276"><ele>87.0</ele><time>2026-04-18T10:20:38.003Z</time></trkpt><trkpt lat="43.33769383125406" lon="10.850313712283302"><ele>85.5</ele><time>2026-04-18T10:20:39.003Z</time></trkpt><trkpt lat="43.33775257091554" lon="10.8501695681193"><ele>84.0</ele><time>2026-04-18T10:20:40.003Z</time></trkpt><trkpt lat="43.337815805943166" lon="10.850021371644884"><ele>83.75</ele><time>2026-04-18T10:20:41.003Z</time></trkpt><trkpt lat="43.3378890679086" lon="10.849853712088965"><ele>83.5</ele><time>2026-04-18T10:20:42.003Z</time></trkpt><trkpt lat="43.33796353897314" lon="10.849682020299085"><ele>83.25</ele><time>2026-04-18T10:20:42.999Z</time></trkpt><trkpt lat="43.338044049217906" lon="10.84949043016936"><ele>83.0</ele><time>2026-04-18T10:20:43.999Z</time></trkpt><trkpt lat="43.33813443637307" lon="10.849280667906202"><ele>83.66666666666667</ele><time>2026-04-18T10:20:44.999Z</time></trkpt><trkpt lat="43.338219695930825" lon="10.849068441302608"><ele>84.33333333333333</ele><time>2026-04-18T10:20:45.999Z</time></trkpt><trkpt lat="43.338304928590915" lon="10.848871102176224"><ele>85.0</ele><time>2026-04-18T10:20:46.999Z</time></trkpt><trkpt lat="43.338382524997904" lon="10.848673322872214"><ele>85.0</ele><time>2026-04-18T10:20:47.999Z</time></trkpt><trkpt lat="43.33846707760571" lon="10.848484820574868"><ele>85.0</ele><time>2026-04-18T10:20:48.999Z</time></trkpt><trkpt lat="43.33855253483093" lon="10.848298520762869"><ele>85.0</ele><time>2026-04-18T10:20:49.999Z</time></trkpt><trkpt lat="43.33863615781856" lon="10.848112473608012"><ele>84.33333333333333</ele><time>2026-04-18T10:20:50.999Z</time></trkpt><trkpt lat="43.338721231847124" lon="10.847915940026889"><ele>83.66666666666667</ele><time>2026-04-18T10:20:51.999Z</time></trkpt><trkpt lat="43.33881157778114" lon="10.84770207076849"><ele>83.0</ele><time>2026-04-18T10:20:52.999Z</time></trkpt><trkpt lat="43.338905489885576" lon="10.847492003885328"><ele>85.0</ele><time>2026-04-18T10:20:53.999Z</time></trkpt><trkpt lat="43.33900776222963" lon="10.847287283005679"><ele>87.0</ele><time>2026-04-18T10:20:54.999Z</time></trkpt><trkpt lat="43.33911744431781" lon="10.847073624527699"><ele>89.0</ele><time>2026-04-18T10:20:55.999Z</time></trkpt><trkpt lat="43.339236452946324" lon="10.84686274100744"><ele>87.66666666666667</ele><time>2026-04-18T10:20:56.999Z</time></trkpt><trkpt lat="43.339351784255456" lon="10.846682126812707"><ele>86.33333333333333</ele><time>2026-04-18T10:20:57.999Z</time></trkpt><trkpt lat="43.33946389941873" lon="10.846498999633733"><ele>85.0</ele><time>2026-04-18T10:20:58.999Z</time></trkpt><trkpt lat="43.33957848936072" lon="10.846319804690065"><ele>85.0</ele><time>2026-04-18T10:21:00Z</time></trkpt><trkpt lat="43.33968941298145" lon="10.846137101936675"><ele>85.0</ele><time>2026-04-18T10:21:01Z</time></trkpt><trkpt lat="43.33979141960103" lon="10.845957004855066"><ele>85.0</ele><time>2026-04-18T10:21:02Z</time></trkpt><trkpt lat="43.339880644865175" lon="10.84580579654597"><ele>85.25</ele><time>2026-04-18T10:21:03Z</time></trkpt><trkpt lat="43.339964429251836" lon="10.845678759273452"><ele>85.5</ele><time>2026-04-18T10:21:04Z</time></trkpt><trkpt lat="43.34007064395164" lon="10.84555500494013"><ele>85.75</ele><time>2026-04-18T10:21:05Z</time></trkpt><trkpt lat="43.34019702536216" lon="10.845438505627646"><ele>86.0</ele><time>2026-04-18T10:21:06Z</time></trkpt><trkpt lat="43.34034229715413" lon="10.845330344421502"><ele>86.0</ele><time>2026-04-18T10:21:07Z</time></trkpt><trkpt lat="43.34049275528561" lon="10.845212397715228"><ele>86.0</ele><time>2026-04-18T10:21:08Z</time></trkpt><trkpt lat="43.340639610697906" lon="10.845092726645959"><ele>86.0</ele><time>2026-04-18T10:21:09Z</time></trkpt><trkpt lat="43.34079670359582" lon="10.844975944054967"><ele>85.33333333333334</ele><time>2026-04-18T10:21:10Z</time></trkpt><trkpt lat="43.340960488756934" lon="10.844855758644252"><ele>84.66666666666667</ele><time>2026-04-18T10:21:11Z</time></trkpt><trkpt lat="43.34112892020028" lon="10.844725462274353"><ele>84.0</ele><time>2026-04-18T10:21:12Z</time></trkpt><trkpt lat="43.341300171680686" lon="10.844595304017208"><ele>83.33333333333333</ele><time>2026-04-18T10:21:13Z</time></trkpt><trkpt lat="43.341466137601024" lon="10.844474560213927"><ele>82.66666666666666</ele><time>2026-04-18T10:21:14Z</time></trkpt><trkpt lat="43.34162155168078" lon="10.844358651421091"><ele>82.0</ele><time>2026-04-18T10:21:15Z</time></trkpt><trkpt lat="43.3417595133263" lon="10.844252345880431"><ele>82.0</ele><time>2026-04-18T10:21:16Z</time></trkpt><trkpt lat="43.34188507788877" lon="10.844153483156763"><ele>82.0</ele><time>2026-04-18T10:21:17Z</time></trkpt><trkpt lat="43.34199787948691" lon="10.844073068032412"><ele>82.0</ele><time>2026-04-18T10:21:18Z</time></trkpt><trkpt lat="43.34210645234432" lon="10.843991149834034"><ele>82.0</ele><time>2026-04-18T10:21:19Z</time></trkpt><trkpt lat="43.342198238291104" lon="10.843922608546952"><ele>82.0</ele><time>2026-04-18T10:21:20Z</time></trkpt><trkpt lat="43.34227378738294" lon="10.843869045096488"><ele>86.0</ele><time>2026-04-18T10:21:21.001Z</time></trkpt><trkpt lat="43.342331589774275" lon="10.843818932675749"><ele>86.0</ele><time>2026-04-18T10:21:22.001Z</time></trkpt><trkpt lat="43.342391235209575" lon="10.843754983648038"><ele>86.0</ele><time>2026-04-18T10:21:24.001Z</time></trkpt><trkpt lat="43.34243313995695" lon="10.843687128020445"><ele>86.0</ele><time>2026-04-18T10:22:31.003Z</time></trkpt></trkseg><trkseg><trkpt lat="43.342461591548414" lon="10.843593150599837"><ele>86.0</ele><time>2026-04-18T10:35:52.001Z</time></trkpt><trkpt lat="43.34250237350732" lon="10.843499499080076"><ele>86.0</ele><time>2026-04-18T10:35:54.001Z</time></trkpt><trkpt lat="43.3425617917714" lon="10.843394461279974"><ele>86.0</ele><time>2026-04-18T10:35:56.001Z</time></trkpt><trkpt lat="43.34260028152591" lon="10.843323903550939"><ele>86.0</ele><time>2026-04-18T10:35:57.001Z</time></trkpt><trkpt lat="43.34263700167014" lon="10.843250412243561"><ele>86.0</ele><time>2026-04-18T10:35:58.001Z</time></trkpt><trkpt lat="43.34271138241434" lon="10.843118714140912"><ele>86.0</ele><time>2026-04-18T10:36:00.001Z</time></trkpt><trkpt lat="43.34276801409284" lon="10.842983246852151"><ele>85.4</ele><time>2026-04-18T10:36:02.001Z</time></trkpt><trkpt lat="43.342801911026946" lon="10.842908946591097"><ele>84.8</ele><time>2026-04-18T10:36:03.001Z</time></trkpt><trkpt lat="43.342839947810965" lon="10.842835315681237"><ele>84.2</ele><time>2026-04-18T10:36:04.001Z</time></trkpt><trkpt lat="43.34289932202343" lon="10.842716686863238"><ele>83.60000000000001</ele><time>2026-04-18T10:36:06.001Z</time></trkpt><trkpt lat="43.34279390785559" lon="10.842863021615088"><ele>83.0</ele><time>2026-04-18T10:36:12.001Z</time></trkpt><trkpt lat="43.342739352183486" lon="10.842961942332655"><ele>83.0</ele><time>2026-04-18T10:36:13.001Z</time></trkpt><trkpt lat="43.34268264168467" lon="10.84309147146133"><ele>83.0</ele><time>2026-04-18T10:36:14.001Z</time></trkpt><trkpt lat="43.34262151934727" lon="10.84322433916358"><ele>83.0</ele><time>2026-04-18T10:36:15.001Z</time></trkpt><trkpt lat="43.34255579410847" lon="10.84336478102489"><ele>83.0</ele><time>2026-04-18T10:36:16.001Z</time></trkpt><trkpt lat="43.34249768898959" lon="10.843483113752283"><ele>83.5</ele><time>2026-04-18T10:36:17.001Z</time></trkpt><trkpt lat="43.342445658820175" lon="10.843581448708802"><ele>84.0</ele><time>2026-04-18T10:36:18.001Z</time></trkpt><trkpt lat="43.34240411450226" lon="10.843648727426041"><ele>84.5</ele><time>2026-04-18T10:36:19.001Z</time></trkpt><trkpt lat="43.34235435918341" lon="10.843711465448804"><ele>85.0</ele><time>2026-04-18T10:36:21.001Z</time></trkpt><trkpt lat="43.34240265283713" lon="10.843774109803633"><ele>85.5</ele><time>2026-04-18T10:36:24.001Z</time></trkpt><trkpt lat="43.34246755175473" lon="10.843613117416414"><ele>86.0</ele><time>2026-04-18T10:36:39.001Z</time></trkpt><trkpt lat="43.34250995877027" lon="10.84352576554089"><ele>85.4</ele><time>2026-04-18T10:36:40.001Z</time></trkpt><trkpt lat="43.34256132063789" lon="10.843423673151085"><ele>84.8</ele><time>2026-04-18T10:36:41.001Z</time></trkpt><trkpt lat="43.34261692467647" lon="10.843311492784569"><ele>84.2</ele><time>2026-04-18T10:36:42.001Z</time></trkpt><trkpt lat="43.342668110642244" lon="10.843199634105586"><ele>83.60000000000001</ele><time>2026-04-18T10:36:43.001Z</time></trkpt><trkpt lat="43.34272384008748" lon="10.843085377293875"><ele>83.0</ele><time>2026-04-18T10:36:44.001Z</time></trkpt><trkpt lat="43.34278647619533" lon="10.842959379888176"><ele>83.0</ele><time>2026-04-18T10:36:45.001Z</time></trkpt><trkpt lat="43.34284222414764" lon="10.842826841805504"><ele>83.0</ele><time>2026-04-18T10:36:46.001Z</time></trkpt><trkpt lat="43.34290344070657" lon="10.842687191587498"><ele>83.0</ele><time>2026-04-18T10:36:47.001Z</time></trkpt><trkpt lat="43.342968599995906" lon="10.842548488744523"><ele>83.0</ele><time>2026-04-18T10:36:48.001Z</time></trkpt><trkpt lat="43.34303612979026" lon="10.842406951992572"><ele>84.0</ele><time>2026-04-18T10:36:49.001Z</time></trkpt><trkpt lat="43.34310601638852" lon="10.842265258887169"><ele>85.0</ele><time>2026-04-18T10:36:50.001Z</time></trkpt><trkpt lat="43.34317706323908" lon="10.842123928909787"><ele>86.0</ele><time>2026-04-18T10:36:51.001Z</time></trkpt><trkpt lat="43.34324833547862" lon="10.841981934076307"><ele>87.0</ele><time>2026-04-18T10:36:52.001Z</time></trkpt><trkpt lat="43.343318581558044" lon="10.841838814292059"><ele>85.75</ele><time>2026-04-18T10:36:53.001Z</time></trkpt><trkpt lat="43.343388693578824" lon="10.841692232796422"><ele>84.5</ele><time>2026-04-18T10:36:54.001Z</time></trkpt><trkpt lat="43.34346006789616" lon="10.84154628439431"><ele>83.25</ele><time>2026-04-18T10:36:55.001Z</time></trkpt><trkpt lat="43.343530985540795" lon="10.841399572005823"><ele>82.0</ele><time>2026-04-18T10:36:56.001Z</time></trkpt><trkpt lat="43.34360430622644" lon="10.841250828781465"><ele>82.0</ele><time>2026-04-18T10:36:57.001Z</time></trkpt><trkpt lat="43.34367727865162" lon="10.841100340430074"><ele>82.0</ele><time>2026-04-18T10:36:58.001Z</time></trkpt><trkpt lat="43.34374604241143" lon="10.840956399319627"><ele>82.0</ele><time>2026-04-18T10:36:59.001Z</time></trkpt><trkpt lat="43.3438149369019" lon="10.840818437015306"><ele>82.0</ele><time>2026-04-18T10:37:00.001Z</time></trkpt><trkpt lat="43.343880407377526" lon="10.84067852872691"><ele>81.75</ele><time>2026-04-18T10:37:01.001Z</time></trkpt><trkpt lat="43.34394857988266" lon="10.840535398506947"><ele>81.5</ele><time>2026-04-18T10:37:02.001Z</time></trkpt><trkpt lat="43.34401915115671" lon="10.840389276427427"><ele>81.25</ele><time>2026-04-18T10:37:03.001Z</time></trkpt><trkpt lat="43.34408945335494" lon="10.840244836895755"><ele>81.0</ele><time>2026-04-18T10:37:04.001Z</time></trkpt><trkpt lat="43.34415947528972" lon="10.840100861986206"><ele>81.0</ele><time>2026-04-18T10:37:05.001Z</time></trkpt><trkpt lat="43.34422935885962" lon="10.839963136430484"><ele>81.0</ele><time>2026-04-18T10:37:06.001Z</time></trkpt><trkpt lat="43.344295699660094" lon="10.83982362999496"><ele>81.0</ele><time>2026-04-18T10:37:07.001Z</time></trkpt><trkpt lat="43.34436324755238" lon="10.839686483227466"><ele>81.0</ele><time>2026-04-18T10:37:08.001Z</time></trkpt><trkpt lat="43.344430254236066" lon="10.83955079571527"><ele>81.0</ele><time>2026-04-18T10:37:09.001Z</time></trkpt><trkpt lat="43.34450558966675" lon="10.839421690733781"><ele>81.0</ele><time>2026-04-18T10:37:10.001Z</time></trkpt><trkpt lat="43.344588624635556" lon="10.839298247692696"><ele>81.0</ele><time>2026-04-18T10:37:11.001Z</time></trkpt><trkpt lat="43.34468457598665" lon="10.839186652237306"><ele>81.0</ele><time>2026-04-18T10:37:12.002Z</time></trkpt><trkpt lat="43.34479393797879" lon="10.8391025682949"><ele>81.5</ele><time>2026-04-18T10:37:13.002Z</time></trkpt><trkpt lat="43.344913830626126" lon="10.839025430767625"><ele>82.0</ele><time>2026-04-18T10:37:14.002Z</time></trkpt><trkpt lat="43.345034711533856" lon="10.838960324528815"><ele>82.5</ele><time>2026-04-18T10:37:15.002Z</time></trkpt><trkpt lat="43.345159064411305" lon="10.838888043123264"><ele>83.0</ele><time>2026-04-18T10:37:16.002Z</time></trkpt><trkpt lat="43.345279796672706" lon="10.838792476015147"><ele>83.0</ele><time>2026-04-18T10:37:17.002Z</time></trkpt><trkpt lat="43.345392799690515" lon="10.838688500867447"><ele>83.0</ele><time>2026-04-18T10:37:18.002Z</time></trkpt><trkpt lat="43.345499804700644" lon="10.838575937079586"><ele>83.0</ele><time>2026-04-18T10:37:19.002Z</time></trkpt><trkpt lat="43.345602839266085" lon="10.838456798379033"><ele>83.0</ele><time>2026-04-18T10:37:20.002Z</time></trkpt><trkpt lat="43.34571020898432" lon="10.838355164967664"><ele>82.5</ele><time>2026-04-18T10:37:21.002Z</time></trkpt><trkpt lat="43.34581411532649" lon="10.838253864758679"><ele>82.0</ele><time>2026-04-18T10:37:22.002Z</time></trkpt><trkpt lat="43.345908499160565" lon="10.838131760620747"><ele>81.5</ele><time>2026-04-18T10:37:23.002Z</time></trkpt><trkpt lat="43.34599708383159" lon="10.837988060183502"><ele>81.0</ele><time>2026-04-18T10:37:24.002Z</time></trkpt><trkpt lat="43.34607367267822" lon="10.837833797083446"><ele>81.0</ele><time>2026-04-18T10:37:25.002Z</time></trkpt><trkpt lat="43.346140232499096" lon="10.837664119863415"><ele>81.0</ele><time>2026-04-18T10:37:26.002Z</time></trkpt><trkpt lat="43.34619459213224" lon="10.83748302074937"><ele>81.0</ele><time>2026-04-18T10:37:27.002Z</time></trkpt><trkpt lat="43.34624058322961" lon="10.837298110569273"><ele>81.0</ele><time>2026-04-18T10:37:28.002Z</time></trkpt><trkpt lat="43.346288833325495" lon="10.837108595975401"><ele>79.66666666666667</ele><time>2026-04-18T10:37:29.002Z</time></trkpt><trkpt lat="43.346335299900154" lon="10.836908695122194"><ele>78.33333333333334</ele><time>2026-04-18T10:37:30.002Z</time></trkpt><trkpt lat="43.346383367386395" lon="10.83670860710044"><ele>77.0</ele><time>2026-04-18T10:37:30.999Z</time></trkpt><trkpt lat="43.346431093559985" lon="10.836508765478959"><ele>78.66666666666667</ele><time>2026-04-18T10:37:31.999Z</time></trkpt><trkpt lat="43.34647667433457" lon="10.836314142052878"><ele>80.33333333333333</ele><time>2026-04-18T10:37:32.999Z</time></trkpt><trkpt lat="43.34652416613463" lon="10.83612332050905"><ele>82.0</ele><time>2026-04-18T10:37:33.999Z</time></trkpt><trkpt lat="43.34657812748746" lon="10.835923832293828"><ele>82.0</ele><time>2026-04-18T10:37:34.999Z</time></trkpt><trkpt lat="43.34663879370589" lon="10.835719643136098"><ele>82.0</ele><time>2026-04-18T10:37:35.999Z</time></trkpt><trkpt lat="43.34670509207314" lon="10.83550522238651"><ele>82.0</ele><time>2026-04-18T10:37:36.999Z</time></trkpt><trkpt lat="43.34677356495965" lon="10.83528916720428"><ele>80.0</ele><time>2026-04-18T10:37:37.999Z</time></trkpt><trkpt lat="43.34684010269762" lon="10.835063211202538"><ele>78.0</ele><time>2026-04-18T10:37:38.999Z</time></trkpt><trkpt lat="43.346909709314005" lon="10.834830491983489"><ele>76.0</ele><time>2026-04-18T10:37:39.999Z</time></trkpt><trkpt lat="43.3469757063613" lon="10.834594356660707"><ele>76.0</ele><time>2026-04-18T10:37:40.999Z</time></trkpt><trkpt lat="43.347038740530685" lon="10.834353878737952"><ele>76.0</ele><time>2026-04-18T10:37:41.999Z</time></trkpt><trkpt lat="43.347104894465666" lon="10.834116042532548"><ele>76.0</ele><time>2026-04-18T10:37:42.999Z</time></trkpt><trkpt lat="43.34717000234298" lon="10.83387846235466"><ele>77.33333333333333</ele><time>2026-04-18T10:37:43.999Z</time></trkpt><trkpt lat="43.34723178748451" lon="10.833642443617682"><ele>78.66666666666667</ele><time>2026-04-18T10:37:44.999Z</time></trkpt><trkpt lat="43.34729335590491" lon="10.83340845623202"><ele>80.0</ele><time>2026-04-18T10:37:45.999Z</time></trkpt><trkpt lat="43.34735595522367" lon="10.833184511035938"><ele>80.0</ele><time>2026-04-18T10:37:46.999Z</time></trkpt><trkpt lat="43.34741194519349" lon="10.832985817222134"><ele>80.0</ele><time>2026-04-18T10:37:47.999Z</time></trkpt><trkpt lat="43.34746195005621" lon="10.83279770423514"><ele>80.0</ele><time>2026-04-18T10:37:48.999Z</time></trkpt><trkpt lat="43.34751533128988" lon="10.83262759570041"><ele>80.0</ele><time>2026-04-18T10:37:49.999Z</time></trkpt><trkpt lat="43.34757773788254" lon="10.832455289781816"><ele>80.0</ele><time>2026-04-18T10:37:50.999Z</time></trkpt><trkpt lat="43.34764977701263" lon="10.832283172839281"><ele>80.0</ele><time>2026-04-18T10:37:52Z</time></trkpt><trkpt lat="43.34773303889609" lon="10.832120770865622"><ele>80.0</ele><time>2026-04-18T10:37:53Z</time></trkpt><trkpt lat="43.347828690663235" lon="10.831963022921542"><ele>80.0</ele><time>2026-04-18T10:37:54Z</time></trkpt><trkpt lat="43.34792660940221" lon="10.831807024865912"><ele>78.66666666666667</ele><time>2026-04-18T10:37:55Z</time></trkpt><trkpt lat="43.34803056422908" lon="10.831645111065885"><ele>77.33333333333333</ele><time>2026-04-18T10:37:56Z</time></trkpt><trkpt lat="43.3481353616001" lon="10.831481111086099"><ele>76.0</ele><time>2026-04-18T10:37:57Z</time></trkpt><trkpt lat="43.34823997028372" lon="10.831317715992384"><ele>79.0</ele><time>2026-04-18T10:37:58Z</time></trkpt><trkpt lat="43.348345601512186" lon="10.831167653510288"><ele>82.0</ele><time>2026-04-18T10:37:59Z</time></trkpt><trkpt lat="43.34844798792509" lon="10.831012894845156"><ele>85.0</ele><time>2026-04-18T10:38:00Z</time></trkpt><trkpt lat="43.34854922997615" lon="10.830861551910857"><ele>85.0</ele><time>2026-04-18T10:38:01Z</time></trkpt><trkpt lat="43.34865394613183" lon="10.830708959642166"><ele>85.0</ele><time>2026-04-18T10:38:02Z</time></trkpt><trkpt lat="43.3487595027821" lon="10.830549483074998"><ele>85.0</ele><time>2026-04-18T10:38:03Z</time></trkpt><trkpt lat="43.34886587341861" lon="10.83038524390231"><ele>89.33333333333333</ele><time>2026-04-18T10:38:04Z</time></trkpt><trkpt lat="43.34897261711357" lon="10.830215125987293"><ele>93.66666666666666</ele><time>2026-04-18T10:38:05Z</time></trkpt><trkpt lat="43.349076852544414" lon="10.830046797757259"><ele>98.0</ele><time>2026-04-18T10:38:06Z</time></trkpt><trkpt lat="43.34917174845245" lon="10.829862047868913"><ele>98.0</ele><time>2026-04-18T10:38:07Z</time></trkpt><trkpt lat="43.34925883482351" lon="10.829677258885132"><ele>98.0</ele><time>2026-04-18T10:38:08Z</time></trkpt><trkpt lat="43.34936146329441" lon="10.82949897971979"><ele>98.0</ele><time>2026-04-18T10:38:09Z</time></trkpt><trkpt lat="43.349474702055446" lon="10.829343146431512"><ele>96.33333333333333</ele><time>2026-04-18T10:38:10Z</time></trkpt><trkpt lat="43.34959825375995" lon="10.829196112049903"><ele>94.66666666666666</ele><time>2026-04-18T10:38:11Z</time></trkpt><trkpt lat="43.349728669366584" lon="10.82905438761587"><ele>93.0</ele><time>2026-04-18T10:38:12Z</time></trkpt><trkpt lat="43.349863149759535" lon="10.828922560726548"><ele>98.0</ele><time>2026-04-18T10:38:13Z</time></trkpt><trkpt lat="43.34999505969341" lon="10.828784656345857"><ele>103.0</ele><time>2026-04-18T10:38:14Z</time></trkpt><trkpt lat="43.35012607196112" lon="10.828637654864794"><ele>108.0</ele><time>2026-04-18T10:38:15Z</time></trkpt><trkpt lat="43.35025675664824" lon="10.828486267671895"><ele>106.33333333333334</ele><time>2026-04-18T10:38:16Z</time></trkpt><trkpt lat="43.35037963430194" lon="10.828334673633464"><ele>104.66666666666667</ele><time>2026-04-18T10:38:17Z</time></trkpt><trkpt lat="43.35049195326113" lon="10.828171727984648"><ele>103.0</ele><time>2026-04-18T10:38:18Z</time></trkpt><trkpt lat="43.350592635739595" lon="10.827989029637841"><ele>107.0</ele><time>2026-04-18T10:38:19Z</time></trkpt><trkpt lat="43.350680815666415" lon="10.827794407250842"><ele>111.0</ele><time>2026-04-18T10:38:20Z</time></trkpt><trkpt lat="43.35075734828311" lon="10.827587990093"><ele>115.0</ele><time>2026-04-18T10:38:21Z</time></trkpt><trkpt lat="43.350835591017514" lon="10.827382120955136"><ele>116.33333333333334</ele><time>2026-04-18T10:38:22Z</time></trkpt><trkpt lat="43.35092817704633" lon="10.827183883546162"><ele>117.66666666666666</ele><time>2026-04-18T10:38:23Z</time></trkpt><trkpt lat="43.351039723808185" lon="10.827005643608011"><ele>119.0</ele><time>2026-04-18T10:38:24Z</time></trkpt><trkpt lat="43.351168749934395" lon="10.826852685798116"><ele>118.33333333333333</ele><time>2026-04-18T10:38:25Z</time></trkpt><trkpt lat="43.35130713604306" lon="10.826716165156364"><ele>117.66666666666666</ele><time>2026-04-18T10:38:26Z</time></trkpt><trkpt lat="43.35144030863148" lon="10.826569022510142"><ele>117.0</ele><time>2026-04-18T10:38:27Z</time></trkpt><trkpt lat="43.35155640312" lon="10.826391658630778"><ele>119.66666666666666</ele><time>2026-04-18T10:38:28Z</time></trkpt><trkpt lat="43.35165087120109" lon="10.826192349829268"><ele>122.33333333333333</ele><time>2026-04-18T10:38:29Z</time></trkpt><trkpt lat="43.35171470537861" lon="10.825983764412873"><ele>125.0</ele><time>2026-04-18T10:38:30Z</time></trkpt><trkpt lat="43.3517638485171" lon="10.82576895050469"><ele>125.0</ele><time>2026-04-18T10:38:31Z</time></trkpt><trkpt lat="43.35182662337633" lon="10.82555918943951"><ele>125.0</ele><time>2026-04-18T10:38:32Z</time></trkpt><trkpt lat="43.35191556856471" lon="10.825371958723869"><ele>125.0</ele><time>2026-04-18T10:38:33Z</time></trkpt><trkpt lat="43.35202407164764" lon="10.82522509140459"><ele>125.25</ele><time>2026-04-18T10:38:34Z</time></trkpt><trkpt lat="43.35214387368728" lon="10.825115755786447"><ele>125.5</ele><time>2026-04-18T10:38:35Z</time></trkpt><trkpt lat="43.352283423540726" lon="10.825058673847487"><ele>125.75</ele><time>2026-04-18T10:38:36Z</time></trkpt><trkpt lat="43.352433508918374" lon="10.825014094917773"><ele>126.0</ele><time>2026-04-18T10:38:37Z</time></trkpt><trkpt lat="43.35259399092597" lon="10.824958419837763"><ele>128.33333333333334</ele><time>2026-04-18T10:38:38Z</time></trkpt><trkpt lat="43.352741338203295" lon="10.824870480855544"><ele>130.66666666666669</ele><time>2026-04-18T10:38:39Z</time></trkpt><trkpt lat="43.352863164321406" lon="10.824742773197416"><ele>133.0</ele><time>2026-04-18T10:38:40Z</time></trkpt><trkpt lat="43.35298017817919" lon="10.82459879253673"><ele>134.0</ele><time>2026-04-18T10:38:41Z</time></trkpt><trkpt lat="43.353072842600106" lon="10.824431835701034"><ele>135.0</ele><time>2026-04-18T10:38:42Z</time></trkpt><trkpt lat="43.35313318730158" lon="10.82424293191523"><ele>136.0</ele><time>2026-04-18T10:38:43Z</time></trkpt><trkpt lat="43.35316371196805" lon="10.824032355239758"><ele>136.0</ele><time>2026-04-18T10:38:44Z</time></trkpt><trkpt lat="43.35316516831199" lon="10.823809219916509"><ele>136.0</ele><time>2026-04-18T10:38:45Z</time></trkpt><trkpt lat="43.35315098984113" lon="10.823577981743917"><ele>136.0</ele><time>2026-04-18T10:38:46Z</time></trkpt><trkpt lat="43.35313442104386" lon="10.823376097287614"><ele>135.25</ele><time>2026-04-18T10:38:47Z</time></trkpt><trkpt lat="43.35312502466674" lon="10.823194614917684"><ele>134.5</ele><time>2026-04-18T10:38:48Z</time></trkpt><trkpt lat="43.35312525129704" lon="10.822998856181913"><ele>133.75</ele><time>2026-04-18T10:38:49Z</time></trkpt><trkpt lat="43.35315098594945" lon="10.822802762094573"><ele>133.0</ele><time>2026-04-18T10:38:50Z</time></trkpt><trkpt lat="43.35320302920291" lon="10.822611352854928"><ele>132.33333333333334</ele><time>2026-04-18T10:38:51Z</time></trkpt><trkpt lat="43.35327227423323" lon="10.822416496571178"><ele>131.66666666666666</ele><time>2026-04-18T10:38:52Z</time></trkpt><trkpt lat="43.35334517527674" lon="10.82222009266493"><ele>131.0</ele><time>2026-04-18T10:38:53Z</time></trkpt><trkpt lat="43.3534271590007" lon="10.822025099525549"><ele>131.0</ele><time>2026-04-18T10:38:54Z</time></trkpt><trkpt lat="43.35350112584515" lon="10.8218254102394"><ele>131.0</ele><time>2026-04-18T10:38:55.001Z</time></trkpt><trkpt lat="43.353555190450415" lon="10.8216130007382"><ele>131.0</ele><time>2026-04-18T10:38:56.001Z</time></trkpt><trkpt lat="43.353581843098304" lon="10.821393675579461"><ele>130.33333333333331</ele><time>2026-04-18T10:38:57.001Z</time></trkpt><trkpt lat="43.353585747262194" lon="10.821170502983163"><ele>129.66666666666666</ele><time>2026-04-18T10:38:58.001Z</time></trkpt><trkpt lat="43.353566155446075" lon="10.820940563773394"><ele>129.0</ele><time>2026-04-18T10:38:59.001Z</time></trkpt><trkpt lat="43.35352219378193" lon="10.820715496540727"><ele>128.66666666666666</ele><time>2026-04-18T10:39:00.001Z</time></trkpt><trkpt lat="43.35347603136742" lon="10.820496682160893"><ele>128.33333333333331</ele><time>2026-04-18T10:39:01.001Z</time></trkpt><trkpt lat="43.35343986510146" lon="10.82028737467637"><ele>128.0</ele><time>2026-04-18T10:39:02.001Z</time></trkpt><trkpt lat="43.35340914505083" lon="10.820089603649482"><ele>128.25</ele><time>2026-04-18T10:39:03.001Z</time></trkpt><trkpt lat="43.353387454387786" lon="10.819890464463523"><ele>128.5</ele><time>2026-04-18T10:39:04.001Z</time></trkpt><trkpt lat="43.353387126900664" lon="10.819693918733797"><ele>128.75</ele><time>2026-04-18T10:39:05.001Z</time></trkpt><trkpt lat="43.353405960983224" lon="10.81949324600364"><ele>129.0</ele><time>2026-04-18T10:39:06.001Z</time></trkpt><trkpt lat="43.35344732767334" lon="10.819280507453488"><ele>129.0</ele><time>2026-04-18T10:39:07.001Z</time></trkpt><trkpt lat="43.353506428105675" lon="10.819066206816544"><ele>129.0</ele><time>2026-04-18T10:39:08.001Z</time></trkpt><trkpt lat="43.353581285037286" lon="10.818863876567832"><ele>129.0</ele><time>2026-04-18T10:39:09.001Z</time></trkpt><trkpt lat="43.353657295094976" lon="10.818668266121334"><ele>129.0</ele><time>2026-04-18T10:39:10.001Z</time></trkpt><trkpt lat="43.353717785635574" lon="10.818489035804754"><ele>129.0</ele><time>2026-04-18T10:39:11.001Z</time></trkpt><trkpt lat="43.35377882190355" lon="10.818328810575052"><ele>129.0</ele><time>2026-04-18T10:39:12.001Z</time></trkpt><trkpt lat="43.35386234286466" lon="10.818193010242164"><ele>129.0</ele><time>2026-04-18T10:39:13.001Z</time></trkpt><trkpt lat="43.35396957791069" lon="10.818081775005552"><ele>128.0</ele><time>2026-04-18T10:39:14.001Z</time></trkpt><trkpt lat="43.35409750482836" lon="10.81801259314847"><ele>127.0</ele><time>2026-04-18T10:39:15.001Z</time></trkpt><trkpt lat="43.35423735836798" lon="10.817994773299578"><ele>126.0</ele><time>2026-04-18T10:39:16.001Z</time></trkpt><trkpt lat="43.35436656488438" lon="10.817931620152457"><ele>125.0</ele><time>2026-04-18T10:39:17.001Z</time></trkpt><trkpt lat="43.35448575156279" lon="10.817866410653346"><ele>125.0</ele><time>2026-04-18T10:39:18.001Z</time></trkpt><trkpt lat="43.35460301605774" lon="10.817764638917172"><ele>125.0</ele><time>2026-04-18T10:39:19.001Z</time></trkpt><trkpt lat="43.35471844021414" lon="10.817638562403"><ele>125.0</ele><time>2026-04-18T10:39:20.001Z</time></trkpt><trkpt lat="43.354823820538684" lon="10.81748719293613"><ele>125.0</ele><time>2026-04-18T10:39:21.001Z</time></trkpt><trkpt lat="43.35491447394424" lon="10.817311940256493"><ele>124.33333333333333</ele><time>2026-04-18T10:39:22.001Z</time></trkpt><trkpt lat="43.35498718287468" lon="10.817108963327959"><ele>123.66666666666666</ele><time>2026-04-18T10:39:23.001Z</time></trkpt><trkpt lat="43.35504611456903" lon="10.816886862727227"><ele>123.0</ele><time>2026-04-18T10:39:24.001Z</time></trkpt><trkpt lat="43.355103675804195" lon="10.816670925131424"><ele>124.0</ele><time>2026-04-18T10:39:25.001Z</time></trkpt><trkpt lat="43.35515787024997" lon="10.816473022204944"><ele>125.0</ele><time>2026-04-18T10:39:26.001Z</time></trkpt><trkpt lat="43.35520647932441" lon="10.816287520593745"><ele>126.0</ele><time>2026-04-18T10:39:27.001Z</time></trkpt><trkpt lat="43.355256440049764" lon="10.816103970811412"><ele>127.0</ele><time>2026-04-18T10:39:28.001Z</time></trkpt><trkpt lat="43.355303940612224" lon="10.815927148450559"><ele>128.0</ele><time>2026-04-18T10:39:29.001Z</time></trkpt><trkpt lat="43.35535170838768" lon="10.81576216943405"><ele>129.0</ele><time>2026-04-18T10:39:30.001Z</time></trkpt><trkpt lat="43.355394793530664" lon="10.815608185108545"><ele>130.0</ele><time>2026-04-18T10:39:31.001Z</time></trkpt><trkpt lat="43.35543129517857" lon="10.815461009479954"><ele>131.0</ele><time>2026-04-18T10:39:32.001Z</time></trkpt><trkpt lat="43.35546866710495" lon="10.8153081732412"><ele>131.0</ele><time>2026-04-18T10:39:33.001Z</time></trkpt><trkpt lat="43.35550184429878" lon="10.815160762735616"><ele>131.0</ele><time>2026-04-18T10:39:34.001Z</time></trkpt><trkpt lat="43.35553414956505" lon="10.815015098097314"><ele>131.0</ele><time>2026-04-18T10:39:35.001Z</time></trkpt><trkpt lat="43.355573411775595" lon="10.814859855112807"><ele>131.0</ele><time>2026-04-18T10:39:36.001Z</time></trkpt><trkpt lat="43.35561792834594" lon="10.814703079476555"><ele>128.75</ele><time>2026-04-18T10:39:36.998Z</time></trkpt><trkpt lat="43.355678494027394" lon="10.814570971389733"><ele>126.5</ele><time>2026-04-18T10:39:37.998Z</time></trkpt><trkpt lat="43.35576895651031" lon="10.814456560787859"><ele>124.25</ele><time>2026-04-18T10:39:38.998Z</time></trkpt><trkpt lat="43.35589186487981" lon="10.814356116984179"><ele>122.0</ele><time>2026-04-18T10:39:39.998Z</time></trkpt><trkpt lat="43.35601914153994" lon="10.81428661451414"><ele>122.0</ele><time>2026-04-18T10:39:40.998Z</time></trkpt><trkpt lat="43.356139608620055" lon="10.814234302512169"><ele>122.0</ele><time>2026-04-18T10:39:41.998Z</time></trkpt><trkpt lat="43.35625234192542" lon="10.814174344236978"><ele>122.0</ele><time>2026-04-18T10:39:42.998Z</time></trkpt><trkpt lat="43.35636370628372" lon="10.814102567329552"><ele>122.0</ele><time>2026-04-18T10:39:43.998Z</time></trkpt><trkpt lat="43.35648177409309" lon="10.814014099052113"><ele>118.33333333333333</ele><time>2026-04-18T10:39:44.998Z</time></trkpt><trkpt lat="43.35660148397478" lon="10.813902476956054"><ele>114.66666666666666</ele><time>2026-04-18T10:39:45.998Z</time></trkpt><trkpt lat="43.356716844887636" lon="10.813756983413777"><ele>111.0</ele><time>2026-04-18T10:39:46.998Z</time></trkpt><trkpt lat="43.35682961357341" lon="10.81358333564219"><ele>111.66666666666666</ele><time>2026-04-18T10:39:47.998Z</time></trkpt><trkpt lat="43.356931255804355" lon="10.813414820760764"><ele>112.33333333333333</ele><time>2026-04-18T10:39:48.998Z</time></trkpt><trkpt lat="43.35703081599023" lon="10.81325662323472"><ele>113.0</ele><time>2026-04-18T10:39:49.998Z</time></trkpt><trkpt lat="43.35713236671824" lon="10.81311298260479"><ele>110.75</ele><time>2026-04-18T10:39:50.998Z</time></trkpt><trkpt lat="43.35722674705409" lon="10.812972034237541"><ele>108.5</ele><time>2026-04-18T10:39:51.998Z</time></trkpt><trkpt lat="43.35731445903749" lon="10.812841567679092"><ele>106.25</ele><time>2026-04-18T10:39:52.998Z</time></trkpt><trkpt lat="43.357396123609114" lon="10.81273820200346"><ele>104.0</ele><time>2026-04-18T10:39:53.998Z</time></trkpt><trkpt lat="43.357489672294534" lon="10.812668234721745"><ele>105.0</ele><time>2026-04-18T10:39:54.999Z</time></trkpt><trkpt lat="43.35760465996281" lon="10.812633613875159"><ele>106.0</ele><time>2026-04-18T10:39:55.999Z</time></trkpt><trkpt lat="43.35773976110381" lon="10.812632818599797"><ele>107.0</ele><time>2026-04-18T10:39:56.999Z</time></trkpt><trkpt lat="43.357879861918704" lon="10.81264368437611"><ele>108.0</ele><time>2026-04-18T10:39:57.999Z</time></trkpt><trkpt lat="43.35800750421643" lon="10.812652261862231"><ele>105.0</ele><time>2026-04-18T10:39:58.999Z</time></trkpt><trkpt lat="43.35811571875522" lon="10.812682673289164"><ele>102.00000000000001</ele><time>2026-04-18T10:39:59.999Z</time></trkpt><trkpt lat="43.358200799729815" lon="10.812737907217882"><ele>99.0</ele><time>2026-04-18T10:40:00.999Z</time></trkpt><trkpt lat="43.35825731848749" lon="10.812820207596506"><ele>96.0</ele><time>2026-04-18T10:40:01.999Z</time></trkpt><trkpt lat="43.358281954671675" lon="10.812916486959187"><ele>93.0</ele><time>2026-04-18T10:40:02.999Z</time></trkpt><trkpt lat="43.35827551403017" lon="10.813039734346999"><ele>93.0</ele><time>2026-04-18T10:40:03.999Z</time></trkpt><trkpt lat="43.3582183924954" lon="10.81316712560428"><ele>93.0</ele><time>2026-04-18T10:40:04.999Z</time></trkpt><trkpt lat="43.35813886316013" lon="10.813301595750062"><ele>93.0</ele><time>2026-04-18T10:40:05.999Z</time></trkpt><trkpt lat="43.35804730240677" lon="10.813439716637628"><ele>93.0</ele><time>2026-04-18T10:40:06.999Z</time></trkpt><trkpt lat="43.35794997753212" lon="10.813597216732767"><ele>93.25</ele><time>2026-04-18T10:40:07.999Z</time></trkpt><trkpt lat="43.3578493348137" lon="10.813759433454079"><ele>93.5</ele><time>2026-04-18T10:40:08.999Z</time></trkpt><trkpt lat="43.35774803048499" lon="10.81390365785113"><ele>93.75</ele><time>2026-04-18T10:40:09.999Z</time></trkpt><trkpt lat="43.357654410079014" lon="10.814039554690787"><ele>94.0</ele><time>2026-04-18T10:40:10.999Z</time></trkpt><trkpt lat="43.35756779003708" lon="10.814157071834051"><ele>94.0</ele><time>2026-04-18T10:40:11.999Z</time></trkpt><trkpt lat="43.357494918349204" lon="10.814262095025112"><ele>94.0</ele><time>2026-04-18T10:40:12.999Z</time></trkpt><trkpt lat="43.35743554958255" lon="10.814362036275968"><ele>94.0</ele><time>2026-04-18T10:40:13.999Z</time></trkpt><trkpt lat="43.357391744207874" lon="10.814452681556604"><ele>94.0</ele><time>2026-04-18T10:40:14.999Z</time></trkpt><trkpt lat="43.357374536382146" lon="10.814552282917477"><ele>94.0</ele><time>2026-04-18T10:40:15.999Z</time></trkpt><trkpt lat="43.35739872848897" lon="10.814654418555595"><ele>94.0</ele><time>2026-04-18T10:40:16.999Z</time></trkpt><trkpt lat="43.357462677762335" lon="10.814720253896462"><ele>92.25</ele><time>2026-04-18T10:40:17.999Z</time></trkpt><trkpt lat="43.35755677372325" lon="10.814731920805091"><ele>90.5</ele><time>2026-04-18T10:40:18.999Z</time></trkpt><trkpt lat="43.357669584393804" lon="10.814692622335208"><ele>88.75</ele><time>2026-04-18T10:40:19.999Z</time></trkpt><trkpt lat="43.35779462086556" lon="10.81463299623446"><ele>87.0</ele><time>2026-04-18T10:40:20.999Z</time></trkpt><trkpt lat="43.357932041469574" lon="10.81457518568008"><ele>84.66666666666667</ele><time>2026-04-18T10:40:22Z</time></trkpt><trkpt lat="43.35808163123181" lon="10.814515834228093"><ele>82.33333333333334</ele><time>2026-04-18T10:40:23Z</time></trkpt><trkpt lat="43.35823226652455" lon="10.814465830044703"><ele>80.0</ele><time>2026-04-18T10:40:24Z</time></trkpt><trkpt lat="43.35837572840659" lon="10.814424369351249"><ele>80.0</ele><time>2026-04-18T10:40:25Z</time></trkpt><trkpt lat="43.358511567107875" lon="10.81438164261411"><ele>80.0</ele><time>2026-04-18T10:40:26Z</time></trkpt><trkpt lat="43.35863447466123" lon="10.814322637047663"><ele>80.0</ele><time>2026-04-18T10:40:27Z</time></trkpt><trkpt lat="43.358753757608596" lon="10.81426024850721"><ele>80.0</ele><time>2026-04-18T10:40:28Z</time></trkpt><trkpt lat="43.35887290521018" lon="10.81418540829705"><ele>78.66666666666667</ele><time>2026-04-18T10:40:29Z</time></trkpt><trkpt lat="43.35898262024711" lon="10.814051544682327"><ele>77.33333333333333</ele><time>2026-04-18T10:40:30Z</time></trkpt><trkpt lat="43.359088182951915" lon="10.813882957675283"><ele>76.0</ele><time>2026-04-18T10:40:31Z</time></trkpt><trkpt lat="43.359196107884244" lon="10.813726506649681"><ele>76.0</ele><time>2026-04-18T10:40:32Z</time></trkpt><trkpt lat="43.359301324867324" lon="10.813583502711573"><ele>76.0</ele><time>2026-04-18T10:40:33Z</time></trkpt><trkpt lat="43.35939710036634" lon="10.813454028387902"><ele>76.0</ele><time>2026-04-18T10:40:34Z</time></trkpt><trkpt lat="43.35948290534163" lon="10.813341908231193"><ele>76.0</ele><time>2026-04-18T10:40:35Z</time></trkpt><trkpt lat="43.35954854727368" lon="10.813246182601267"><ele>75.66666666666666</ele><time>2026-04-18T10:40:36Z</time></trkpt><trkpt lat="43.35961059694815" lon="10.813169689909342"><ele>75.33333333333333</ele><time>2026-04-18T10:40:37Z</time></trkpt><trkpt lat="43.35966145885604" lon="10.81310956904073"><ele>75.0</ele><time>2026-04-18T10:40:38Z</time></trkpt><trkpt lat="43.359740804171096" lon="10.812992722391746"><ele>74.66666666666667</ele><time>2026-04-18T10:40:40Z</time></trkpt><trkpt lat="43.359790438093356" lon="10.812878912227188"><ele>74.33333333333334</ele><time>2026-04-18T10:40:42Z</time></trkpt><trkpt lat="43.35984378334564" lon="10.812810380266754"><ele>74.0</ele><time>2026-04-18T10:40:46Z</time></trkpt><trkpt lat="43.35989505946721" lon="10.812746859388133"><ele>74.0</ele><time>2026-04-18T10:40:52Z</time></trkpt><trkpt lat="43.35996591262956" lon="10.812709790224973"><ele>74.0</ele><time>2026-04-18T10:41:38.001Z</time></trkpt><trkpt lat="43.360026454356486" lon="10.812627687587899"><ele>74.0</ele><time>2026-04-18T10:41:41.001Z</time></trkpt><trkpt lat="43.36011087145304" lon="10.812539057375647"><ele>74.0</ele><time>2026-04-18T10:41:42.998Z</time></trkpt><trkpt lat="43.360170710447626" lon="10.812427139463441"><ele>74.0</ele><time>2026-04-18T10:41:44.998Z</time></trkpt><trkpt lat="43.36023010485192" lon="10.812355004996316"><ele>74.0</ele><time>2026-04-18T10:41:46.998Z</time></trkpt><trkpt lat="43.36032430258053" lon="10.812322315006762"><ele>73.83333333333334</ele><time>2026-04-18T10:41:49.998Z</time></trkpt><trkpt lat="43.36039855872784" lon="10.812263081577266"><ele>73.66666666666667</ele><time>2026-04-18T10:41:52.998Z</time></trkpt><trkpt lat="43.36048700588676" lon="10.812283484274847"><ele>73.5</ele><time>2026-04-18T10:41:54.999Z</time></trkpt><trkpt lat="43.36057277830901" lon="10.812323993478154"><ele>73.33333333333333</ele><time>2026-04-18T10:41:57.999Z</time></trkpt><trkpt lat="43.36061378847688" lon="10.81239189544848"><ele>73.16666666666666</ele><time>2026-04-18T10:42:01.999Z</time></trkpt><trkpt lat="43.36053784462766" lon="10.81237751604372"><ele>73.0</ele><time>2026-04-18T10:42:06.999Z</time></trkpt><trkpt lat="43.360459735939784" lon="10.812348248085133"><ele>73.0</ele><time>2026-04-18T10:42:11.999Z</time></trkpt><trkpt lat="43.360594347901575" lon="10.812398688379886"><ele>73.0</ele><time>2026-04-18T10:42:22Z</time></trkpt><trkpt lat="43.36070380395643" lon="10.81238050462744"><ele>73.0</ele><time>2026-04-18T10:42:25Z</time></trkpt><trkpt lat="43.36077421205323" lon="10.8123793758571"><ele>73.0</ele><time>2026-04-18T10:42:26Z</time></trkpt><trkpt lat="43.3609200356803" lon="10.812379451869573"><ele>73.0</ele><time>2026-04-18T10:42:27Z</time></trkpt><trkpt lat="43.36103048169477" lon="10.812347246821483"><ele>73.0</ele><time>2026-04-18T10:42:28Z</time></trkpt><trkpt lat="43.36112658247194" lon="10.812294925282979"><ele>73.0</ele><time>2026-04-18T10:42:29Z</time></trkpt><trkpt lat="43.3611968888196" lon="10.812255792240682"><ele>73.0</ele><time>2026-04-18T10:42:30Z</time></trkpt><trkpt lat="43.361269605389815" lon="10.81222119065349"><ele>73.0</ele><time>2026-04-18T10:42:32Z</time></trkpt><trkpt lat="43.36125545760634" lon="10.812069719194527"><ele>73.0</ele><time>2026-04-18T10:42:45Z</time></trkpt><trkpt lat="43.361313753537054" lon="10.8122012443308"><ele>73.0</ele><time>2026-04-18T10:42:56.001Z</time></trkpt><trkpt lat="43.36140239115403" lon="10.812320253545305"><ele>73.0</ele><time>2026-04-18T10:42:57.001Z</time></trkpt><trkpt lat="43.361482967723845" lon="10.812383992581381"><ele>73.0</ele><time>2026-04-18T10:42:58.001Z</time></trkpt><trkpt lat="43.36156924660843" lon="10.812446393299155"><ele>73.0</ele><time>2026-04-18T10:42:59.001Z</time></trkpt><trkpt lat="43.36167371729314" lon="10.812512116747447"><ele>73.6</ele><time>2026-04-18T10:43:00.001Z</time></trkpt><trkpt lat="43.36177569218142" lon="10.81256184953915"><ele>74.19999999999999</ele><time>2026-04-18T10:43:01.001Z</time></trkpt><trkpt lat="43.36188599548226" lon="10.812577804750658"><ele>74.8</ele><time>2026-04-18T10:43:02.001Z</time></trkpt><trkpt lat="43.36198707592767" lon="10.812609584900377"><ele>75.39999999999999</ele><time>2026-04-18T10:43:03.001Z</time></trkpt><trkpt lat="43.36207248858793" lon="10.812631885148727"><ele>76.0</ele><time>2026-04-18T10:43:04.001Z</time></trkpt><trkpt lat="43.36215418463207" lon="10.812644660577183"><ele>75.5</ele><time>2026-04-18T10:43:05.001Z</time></trkpt><trkpt lat="43.3622323605466" lon="10.81266576777427"><ele>75.0</ele><time>2026-04-18T10:43:06.001Z</time></trkpt><trkpt lat="43.36229243986891" lon="10.812694929294532"><ele>74.5</ele><time>2026-04-18T10:43:07.001Z</time></trkpt><trkpt lat="43.36237761494436" lon="10.812779191827923"><ele>74.0</ele><time>2026-04-18T10:43:09.001Z</time></trkpt><trkpt lat="43.36244077748472" lon="10.812767174577473"><ele>73.5</ele><time>2026-04-18T10:43:12.001Z</time></trkpt><trkpt lat="43.36252260228804" lon="10.81276849684145"><ele>73.0</ele><time>2026-04-18T10:47:50.003Z</time></trkpt><trkpt lat="43.36257962049812" lon="10.812731613286289"><ele>73.0</ele><time>2026-04-18T10:48:05.002Z</time></trkpt><trkpt lat="43.3625254279645" lon="10.812677246896799"><ele>73.0</ele><time>2026-04-18T10:48:08.001Z</time></trkpt><trkpt lat="43.36246189569788" lon="10.812676220273637"><ele>73.0</ele><time>2026-04-18T10:48:09.001Z</time></trkpt><trkpt lat="43.36237926960782" lon="10.812673835662435"><ele>73.0</ele><time>2026-04-18T10:48:10.001Z</time></trkpt><trkpt lat="43.36221693855553" lon="10.812627260998566"><ele>73.0</ele><time>2026-04-18T10:48:11.001Z</time></trkpt><trkpt lat="43.36212030283186" lon="10.81260573068657"><ele>73.5</ele><time>2026-04-18T10:48:12.001Z</time></trkpt><trkpt lat="43.36203365369905" lon="10.81258822275283"><ele>74.0</ele><time>2026-04-18T10:48:13.001Z</time></trkpt><trkpt lat="43.36195483266833" lon="10.812572755829445"><ele>74.5</ele><time>2026-04-18T10:48:14.001Z</time></trkpt><trkpt lat="43.36188017873044" lon="10.812553874908176"><ele>75.0</ele><time>2026-04-18T10:48:15.001Z</time></trkpt><trkpt lat="43.36179701338215" lon="10.812530781195463"><ele>75.5</ele><time>2026-04-18T10:48:16.001Z</time></trkpt><trkpt lat="43.361705692726076" lon="10.812486049053744"><ele>76.0</ele><time>2026-04-18T10:48:17.001Z</time></trkpt><trkpt lat="43.36161934793539" lon="10.812435310859188"><ele>76.0</ele><time>2026-04-18T10:48:18.001Z</time></trkpt><trkpt lat="43.36153797550923" lon="10.812383290759074"><ele>76.0</ele><time>2026-04-18T10:48:19.001Z</time></trkpt><trkpt lat="43.36145371153504" lon="10.81231805312963"><ele>76.0</ele><time>2026-04-18T10:48:20.001Z</time></trkpt><trkpt lat="43.36137235116238" lon="10.812245333677103"><ele>76.0</ele><time>2026-04-18T10:48:21.001Z</time></trkpt><trkpt lat="43.36129196090321" lon="10.812167806060133"><ele>76.0</ele><time>2026-04-18T10:48:22.001Z</time></trkpt><trkpt lat="43.361212451922185" lon="10.81208717398082"><ele>75.8</ele><time>2026-04-18T10:48:23.001Z</time></trkpt><trkpt lat="43.36115716803804" lon="10.811983462608065"><ele>75.6</ele><time>2026-04-18T10:48:24.001Z</time></trkpt><trkpt lat="43.361096402624305" lon="10.811889778228759"><ele>75.4</ele><time>2026-04-18T10:48:25.001Z</time></trkpt><trkpt lat="43.36102817786282" lon="10.811779175366977"><ele>75.2</ele><time>2026-04-18T10:48:26.001Z</time></trkpt><trkpt lat="43.360945447507504" lon="10.811654770217167"><ele>75.0</ele><time>2026-04-18T10:48:27.001Z</time></trkpt><trkpt lat="43.360868162850075" lon="10.811509464090477"><ele>75.0</ele><time>2026-04-18T10:48:28.001Z</time></trkpt><trkpt lat="43.36078912917236" lon="10.811361772504533"><ele>75.0</ele><time>2026-04-18T10:48:29.001Z</time></trkpt><trkpt lat="43.360711106092374" lon="10.811208196147168"><ele>75.0</ele><time>2026-04-18T10:48:30.001Z</time></trkpt><trkpt lat="43.36064114326721" lon="10.81104359037215"><ele>75.0</ele><time>2026-04-18T10:48:31.001Z</time></trkpt><trkpt lat="43.360578863857285" lon="10.81086208215267"><ele>73.66666666666667</ele><time>2026-04-18T10:48:32.001Z</time></trkpt><trkpt lat="43.36051624321725" lon="10.810667879503937"><ele>72.33333333333334</ele><time>2026-04-18T10:48:33.001Z</time></trkpt><trkpt lat="43.360454092272775" lon="10.81046384104789"><ele>71.0</ele><time>2026-04-18T10:48:34.001Z</time></trkpt><trkpt lat="43.36038773105527" lon="10.810253290295528"><ele>71.33333333333334</ele><time>2026-04-18T10:48:35.001Z</time></trkpt><trkpt lat="43.36032131214125" lon="10.810040118888743"><ele>71.66666666666667</ele><time>2026-04-18T10:48:36.001Z</time></trkpt><trkpt lat="43.36025279657384" lon="10.80982054717416"><ele>72.0</ele><time>2026-04-18T10:48:37.001Z</time></trkpt><trkpt lat="43.36018504717289" lon="10.809596623806287"><ele>72.0</ele><time>2026-04-18T10:48:38.001Z</time></trkpt><trkpt lat="43.36011454307985" lon="10.809371766674412"><ele>72.0</ele><time>2026-04-18T10:48:39.001Z</time></trkpt><trkpt lat="43.360037026669495" lon="10.80914810868345"><ele>72.0</ele><time>2026-04-18T10:48:40.001Z</time></trkpt><trkpt lat="43.35996230794526" lon="10.808926725625808"><ele>72.66666666666667</ele><time>2026-04-18T10:48:41.001Z</time></trkpt><trkpt lat="43.35989320678282" lon="10.808709383124052"><ele>73.33333333333334</ele><time>2026-04-18T10:48:42.001Z</time></trkpt><trkpt lat="43.359825959393284" lon="10.808494735544533"><ele>74.0</ele><time>2026-04-18T10:48:43.001Z</time></trkpt><trkpt lat="43.35976150290684" lon="10.80828421774987"><ele>75.33333333333334</ele><time>2026-04-18T10:48:44.001Z</time></trkpt><trkpt lat="43.35970084328444" lon="10.808080341360421"><ele>76.66666666666667</ele><time>2026-04-18T10:48:45.001Z</time></trkpt><trkpt lat="43.35964077248268" lon="10.807877299527574"><ele>78.0</ele><time>2026-04-18T10:48:46.001Z</time></trkpt><trkpt lat="43.35957589461818" lon="10.80766685424329"><ele>75.33333333333333</ele><time>2026-04-18T10:48:47.001Z</time></trkpt><trkpt lat="43.35951029233561" lon="10.807456061974651"><ele>72.66666666666666</ele><time>2026-04-18T10:48:48.001Z</time></trkpt><trkpt lat="43.35944650682584" lon="10.807247076768023"><ele>70.0</ele><time>2026-04-18T10:48:49.001Z</time></trkpt><trkpt lat="43.35938283367966" lon="10.807041541179684"><ele>70.0</ele><time>2026-04-18T10:48:50.001Z</time></trkpt><trkpt lat="43.3593178543883" lon="10.806851193542203"><ele>70.0</ele><time>2026-04-18T10:48:51.001Z</time></trkpt><trkpt lat="43.35927338266035" lon="10.806663191174351"><ele>70.0</ele><time>2026-04-18T10:48:52.001Z</time></trkpt><trkpt lat="43.35921425838521" lon="10.806499207405771"><ele>70.0</ele><time>2026-04-18T10:48:53.001Z</time></trkpt><trkpt lat="43.35920136332957" lon="10.806337999464747"><ele>69.75</ele><time>2026-04-18T10:48:54.001Z</time></trkpt><trkpt lat="43.35920717938017" lon="10.806185250869108"><ele>69.5</ele><time>2026-04-18T10:48:55.001Z</time></trkpt><trkpt lat="43.35922493726795" lon="10.806038492937779"><ele>69.25</ele><time>2026-04-18T10:48:56.001Z</time></trkpt><trkpt lat="43.35924789062126" lon="10.805875779905856"><ele>69.0</ele><time>2026-04-18T10:48:57.001Z</time></trkpt><trkpt lat="43.35927334109566" lon="10.805688137159654"><ele>69.0</ele><time>2026-04-18T10:48:58.002Z</time></trkpt><trkpt lat="43.359298570914625" lon="10.805487251107708"><ele>69.0</ele><time>2026-04-18T10:48:59.002Z</time></trkpt><trkpt lat="43.35931794311645" lon="10.805291154722438"><ele>69.0</ele><time>2026-04-18T10:49:00.002Z</time></trkpt><trkpt lat="43.3593427290973" lon="10.805110378729708"><ele>69.0</ele><time>2026-04-18T10:49:01.002Z</time></trkpt><trkpt lat="43.359364692230976" lon="10.804924737596235"><ele>68.5</ele><time>2026-04-18T10:49:02.002Z</time></trkpt><trkpt lat="43.359383969641215" lon="10.804736461208517"><ele>68.0</ele><time>2026-04-18T10:49:03.002Z</time></trkpt><trkpt lat="43.35940505176352" lon="10.804544054440152"><ele>67.5</ele><time>2026-04-18T10:49:04.002Z</time></trkpt><trkpt lat="43.35942908935844" lon="10.804350945356484"><ele>67.0</ele><time>2026-04-18T10:49:05.002Z</time></trkpt><trkpt lat="43.3594523559237" lon="10.804151222129653"><ele>66.33333333333333</ele><time>2026-04-18T10:49:06.002Z</time></trkpt><trkpt lat="43.35946001176809" lon="10.803941826969506"><ele>65.66666666666667</ele><time>2026-04-18T10:49:07.002Z</time></trkpt><trkpt lat="43.35944910086503" lon="10.803732272369926"><ele>65.0</ele><time>2026-04-18T10:49:08.002Z</time></trkpt><trkpt lat="43.359421043507496" lon="10.803518622563693"><ele>65.33333333333334</ele><time>2026-04-18T10:49:09.002Z</time></trkpt><trkpt lat="43.35938802031941" lon="10.80330318362277"><ele>65.66666666666667</ele><time>2026-04-18T10:49:10.002Z</time></trkpt><trkpt lat="43.35934743885488" lon="10.803092869628525"><ele>66.0</ele><time>2026-04-18T10:49:11.002Z</time></trkpt><trkpt lat="43.35929153670251" lon="10.802889952710377"><ele>66.0</ele><time>2026-04-18T10:49:12.002Z</time></trkpt><trkpt lat="43.3592139449303" lon="10.802694339186155"><ele>66.0</ele><time>2026-04-18T10:49:13.002Z</time></trkpt><trkpt lat="43.35912101464336" lon="10.802512580104876"><ele>66.0</ele><time>2026-04-18T10:49:14.002Z</time></trkpt><trkpt lat="43.35901763322949" lon="10.802343132703644"><ele>65.66666666666667</ele><time>2026-04-18T10:49:15.002Z</time></trkpt><trkpt lat="43.35891353785136" lon="10.802181343390943"><ele>65.33333333333334</ele><time>2026-04-18T10:49:16.002Z</time></trkpt><trkpt lat="43.35880612461124" lon="10.802023080520078"><ele>65.0</ele><time>2026-04-18T10:49:17.002Z</time></trkpt><trkpt lat="43.35869575409189" lon="10.801865852702532"><ele>65.5</ele><time>2026-04-18T10:49:18.002Z</time></trkpt><trkpt lat="43.35859290702678" lon="10.801709007330938"><ele>66.0</ele><time>2026-04-18T10:49:19.002Z</time></trkpt><trkpt lat="43.358506135036826" lon="10.801554548355726"><ele>66.5</ele><time>2026-04-18T10:49:20.002Z</time></trkpt><trkpt lat="43.35842076891302" lon="10.801398935029873"><ele>67.0</ele><time>2026-04-18T10:49:21.002Z</time></trkpt><trkpt lat="43.358335667452614" lon="10.801230626310502"><ele>67.0</ele><time>2026-04-18T10:49:22.002Z</time></trkpt><trkpt lat="43.3582544802481" lon="10.801049398264054"><ele>67.0</ele><time>2026-04-18T10:49:23.002Z</time></trkpt><trkpt lat="43.35818402227991" lon="10.800855514543825"><ele>67.0</ele><time>2026-04-18T10:49:24.002Z</time></trkpt><trkpt lat="43.35811777608018" lon="10.800657893594058"><ele>66.33333333333333</ele><time>2026-04-18T10:49:25.002Z</time></trkpt><trkpt lat="43.3580524633505" lon="10.800458442085892"><ele>65.66666666666667</ele><time>2026-04-18T10:49:26.002Z</time></trkpt><trkpt lat="43.357986404315376" lon="10.800258178064395"><ele>65.0</ele><time>2026-04-18T10:49:27.002Z</time></trkpt><trkpt lat="43.357917893857966" lon="10.800059982806797"><ele>65.0</ele><time>2026-04-18T10:49:28.002Z</time></trkpt><trkpt lat="43.3578529008854" lon="10.79986249740433"><ele>65.0</ele><time>2026-04-18T10:49:29.002Z</time></trkpt><trkpt lat="43.35778787283753" lon="10.799661508005403"><ele>65.0</ele><time>2026-04-18T10:49:30.002Z</time></trkpt><trkpt lat="43.357715049047016" lon="10.799463100296807"><ele>65.66666666666667</ele><time>2026-04-18T10:49:31.002Z</time></trkpt><trkpt lat="43.357622557115704" lon="10.799273387191906"><ele>66.33333333333333</ele><time>2026-04-18T10:49:32.002Z</time></trkpt><trkpt lat="43.357518332948615" lon="10.799085452855065"><ele>67.0</ele><time>2026-04-18T10:49:33.002Z</time></trkpt><trkpt lat="43.35740567687419" lon="10.79890441641179"><ele>67.0</ele><time>2026-04-18T10:49:34.002Z</time></trkpt><trkpt lat="43.35728735246608" lon="10.798736814350969"><ele>67.0</ele><time>2026-04-18T10:49:35.002Z</time></trkpt><trkpt lat="43.35716815542173" lon="10.798561008245645"><ele>67.0</ele><time>2026-04-18T10:49:36.002Z</time></trkpt><trkpt lat="43.35705787188403" lon="10.798379185171026"><ele>66.33333333333333</ele><time>2026-04-18T10:49:37.002Z</time></trkpt><trkpt lat="43.35695374773922" lon="10.798192706643338"><ele>65.66666666666667</ele><time>2026-04-18T10:49:38.002Z</time></trkpt><trkpt lat="43.35685505395887" lon="10.79799965233559"><ele>65.0</ele><time>2026-04-18T10:49:39.002Z</time></trkpt><trkpt lat="43.35676216281775" lon="10.797794293047328"><ele>66.66666666666667</ele><time>2026-04-18T10:49:40.002Z</time></trkpt><trkpt lat="43.35667428152181" lon="10.79757646088568"><ele>68.33333333333333</ele><time>2026-04-18T10:49:41.002Z</time></trkpt><trkpt lat="43.35659223196158" lon="10.797345742493139"><ele>70.0</ele><time>2026-04-18T10:49:42.002Z</time></trkpt><trkpt lat="43.35652428755921" lon="10.797100505091446"><ele>70.0</ele><time>2026-04-18T10:49:43.002Z</time></trkpt><trkpt lat="43.356462674730025" lon="10.796852241596664"><ele>70.0</ele><time>2026-04-18T10:49:44.002Z</time></trkpt><trkpt lat="43.356413453488" lon="10.79659899962597"><ele>70.0</ele><time>2026-04-18T10:49:45.002Z</time></trkpt><trkpt lat="43.35637736215536" lon="10.79633962159316"><ele>67.33333333333333</ele><time>2026-04-18T10:49:46.002Z</time></trkpt><trkpt lat="43.3563527606068" lon="10.796079010394914"><ele>64.66666666666667</ele><time>2026-04-18T10:49:47.002Z</time></trkpt><trkpt lat="43.35633946157159" lon="10.795817915984218"><ele>62.0</ele><time>2026-04-18T10:49:48.002Z</time></trkpt><trkpt lat="43.35633519412227" lon="10.795557044923562"><ele>62.0</ele><time>2026-04-18T10:49:49.002Z</time></trkpt><trkpt lat="43.35634269164996" lon="10.795290411376543"><ele>62.0</ele><time>2026-04-18T10:49:50.003Z</time></trkpt><trkpt lat="43.356364068475465" lon="10.79501580001003"><ele>62.0</ele><time>2026-04-18T10:49:51.003Z</time></trkpt><trkpt lat="43.3563920232768" lon="10.794741627803983"><ele>62.333333333333336</ele><time>2026-04-18T10:49:52.003Z</time></trkpt><trkpt lat="43.35642926523597" lon="10.794466041184622"><ele>62.66666666666667</ele><time>2026-04-18T10:49:53.003Z</time></trkpt><trkpt lat="43.35648146166503" lon="10.794197075526776"><ele>63.0</ele><time>2026-04-18T10:49:54.003Z</time></trkpt><trkpt lat="43.35654238286376" lon="10.793929889577791"><ele>62.33333333333333</ele><time>2026-04-18T10:49:55.003Z</time></trkpt><trkpt lat="43.356601778209644" lon="10.793666096985465"><ele>61.666666666666664</ele><time>2026-04-18T10:49:56.003Z</time></trkpt><trkpt lat="43.35665457591513" lon="10.793405064312315"><ele>61.0</ele><time>2026-04-18T10:49:57.003Z</time></trkpt><trkpt lat="43.356710203584925" lon="10.79314652342436"><ele>60.666666666666664</ele><time>2026-04-18T10:49:58.003Z</time></trkpt><trkpt lat="43.356770030547516" lon="10.792890543530941"><ele>60.33333333333333</ele><time>2026-04-18T10:49:59.003Z</time></trkpt><trkpt lat="43.35683192129669" lon="10.79263830244916"><ele>60.0</ele><time>2026-04-18T10:50:00.003Z</time></trkpt><trkpt lat="43.35689123693276" lon="10.792377981472402"><ele>60.0</ele><time>2026-04-18T10:50:01.003Z</time></trkpt><trkpt lat="43.35694687726894" lon="10.792109626915913"><ele>60.0</ele><time>2026-04-18T10:50:02.003Z</time></trkpt><trkpt lat="43.35699915884133" lon="10.791833674005757"><ele>60.0</ele><time>2026-04-18T10:50:03.003Z</time></trkpt><trkpt lat="43.35704874729963" lon="10.791558005761317"><ele>60.0</ele><time>2026-04-18T10:50:04.003Z</time></trkpt><trkpt lat="43.35709692834096" lon="10.791281913374275"><ele>60.0</ele><time>2026-04-18T10:50:05.003Z</time></trkpt><trkpt lat="43.35713897495076" lon="10.791009355545274"><ele>60.0</ele><time>2026-04-18T10:50:06.003Z</time></trkpt><trkpt lat="43.35717980047513" lon="10.790741957923393"><ele>60.33333333333333</ele><time>2026-04-18T10:50:07Z</time></trkpt><trkpt lat="43.3572154097699" lon="10.790474437061274"><ele>60.666666666666664</ele><time>2026-04-18T10:50:08Z</time></trkpt><trkpt lat="43.35724203379409" lon="10.790207915449745"><ele>61.0</ele><time>2026-04-18T10:50:09Z</time></trkpt><trkpt lat="43.35725996421366" lon="10.789944159912427"><ele>61.666666666666664</ele><time>2026-04-18T10:50:10Z</time></trkpt><trkpt lat="43.357275877676805" lon="10.789684199004194"><ele>62.33333333333333</ele><time>2026-04-18T10:50:11Z</time></trkpt><trkpt lat="43.35728555636528" lon="10.789425757950044"><ele>63.0</ele><time>2026-04-18T10:50:12Z</time></trkpt><trkpt lat="43.35729039086985" lon="10.789169195180062"><ele>64.0</ele><time>2026-04-18T10:50:13Z</time></trkpt><trkpt lat="43.35729264166179" lon="10.788913701766285"><ele>65.0</ele><time>2026-04-18T10:50:14Z</time></trkpt><trkpt lat="43.35729041095107" lon="10.788658077553215"><ele>66.0</ele><time>2026-04-18T10:50:15Z</time></trkpt><trkpt lat="43.357282435053506" lon="10.78840468556213"><ele>66.0</ele><time>2026-04-18T10:50:16Z</time></trkpt><trkpt lat="43.35726945458316" lon="10.788157762262935"><ele>66.0</ele><time>2026-04-18T10:50:17Z</time></trkpt><trkpt lat="43.35725389953749" lon="10.787909167778222"><ele>66.0</ele><time>2026-04-18T10:50:18Z</time></trkpt><trkpt lat="43.357234369037286" lon="10.78765867903134"><ele>65.0</ele><time>2026-04-18T10:50:19Z</time></trkpt><trkpt lat="43.357212442052194" lon="10.787405395645342"><ele>64.0</ele><time>2026-04-18T10:50:20Z</time></trkpt><trkpt lat="43.357186706641414" lon="10.787150734247664"><ele>63.0</ele><time>2026-04-18T10:50:21Z</time></trkpt><trkpt lat="43.357153988642516" lon="10.786889932509872"><ele>62.0</ele><time>2026-04-18T10:50:22Z</time></trkpt><trkpt lat="43.35712179485064" lon="10.78662750305725"><ele>61.0</ele><time>2026-04-18T10:50:23Z</time></trkpt><trkpt lat="43.357090460105546" lon="10.786367067187689"><ele>60.0</ele><time>2026-04-18T10:50:24Z</time></trkpt><trkpt lat="43.35705328581346" lon="10.786107066762682"><ele>60.33333333333333</ele><time>2026-04-18T10:50:25Z</time></trkpt><trkpt lat="43.35701328403362" lon="10.785848718184885"><ele>60.666666666666664</ele><time>2026-04-18T10:50:26Z</time></trkpt><trkpt lat="43.35697383157964" lon="10.785587132300439"><ele>61.0</ele><time>2026-04-18T10:50:27Z</time></trkpt><trkpt lat="43.35692970450835" lon="10.785329160549395"><ele>60.666666666666664</ele><time>2026-04-18T10:50:28Z</time></trkpt><trkpt lat="43.356885238730506" lon="10.785068230208571"><ele>60.33333333333333</ele><time>2026-04-18T10:50:29Z</time></trkpt><trkpt lat="43.35684028343784" lon="10.784807436461191"><ele>60.0</ele><time>2026-04-18T10:50:30Z</time></trkpt><trkpt lat="43.35680135835194" lon="10.784549341155001"><ele>60.0</ele><time>2026-04-18T10:50:31Z</time></trkpt><trkpt lat="43.35676384187078" lon="10.784296478168507"><ele>60.0</ele><time>2026-04-18T10:50:32Z</time></trkpt><trkpt lat="43.3567265682853" lon="10.784052935205633"><ele>60.0</ele><time>2026-04-18T10:50:33Z</time></trkpt><trkpt lat="43.35668886827623" lon="10.783812487355831"><ele>60.0</ele><time>2026-04-18T10:50:34Z</time></trkpt><trkpt lat="43.35664896407351" lon="10.783575202422174"><ele>60.0</ele><time>2026-04-18T10:50:35Z</time></trkpt><trkpt lat="43.35661215215034" lon="10.783336109213108"><ele>60.0</ele><time>2026-04-18T10:50:36Z</time></trkpt><trkpt lat="43.35657842704483" lon="10.78309517137513"><ele>59.66666666666667</ele><time>2026-04-18T10:50:37Z</time></trkpt><trkpt lat="43.35654507026923" lon="10.782850056778216"><ele>59.333333333333336</ele><time>2026-04-18T10:50:38Z</time></trkpt><trkpt lat="43.356518814830125" lon="10.782598203215354"><ele>59.0</ele><time>2026-04-18T10:50:39Z</time></trkpt><trkpt lat="43.3565007199857" lon="10.782342891887934"><ele>59.0</ele><time>2026-04-18T10:50:40Z</time></trkpt><trkpt lat="43.35648996664916" lon="10.782083414041185"><ele>59.0</ele><time>2026-04-18T10:50:41Z</time></trkpt><trkpt lat="43.356475448802705" lon="10.781823691832562"><ele>59.0</ele><time>2026-04-18T10:50:42Z</time></trkpt><trkpt lat="43.35646347568874" lon="10.78156148000501"><ele>59.0</ele><time>2026-04-18T10:50:43Z</time></trkpt><trkpt lat="43.3564567835683" lon="10.781300863327731"><ele>59.0</ele><time>2026-04-18T10:50:44Z</time></trkpt><trkpt lat="43.356449189525605" lon="10.781038334807896"><ele>59.0</ele><time>2026-04-18T10:50:45Z</time></trkpt><trkpt lat="43.35644207363211" lon="10.780777890670079"><ele>59.333333333333336</ele><time>2026-04-18T10:50:46Z</time></trkpt><trkpt lat="43.35643519394599" lon="10.780515840811415"><ele>59.66666666666667</ele><time>2026-04-18T10:50:47Z</time></trkpt><trkpt lat="43.356426692633825" lon="10.780251231781921"><ele>60.0</ele><time>2026-04-18T10:50:48Z</time></trkpt><trkpt lat="43.356418604263546" lon="10.779986401193812"><ele>60.0</ele><time>2026-04-18T10:50:49Z</time></trkpt><trkpt lat="43.35641268615661" lon="10.77972187052764"><ele>60.0</ele><time>2026-04-18T10:50:50Z</time></trkpt><trkpt lat="43.35640793595296" lon="10.77946044587288"><ele>60.0</ele><time>2026-04-18T10:50:51Z</time></trkpt><trkpt lat="43.35639652384097" lon="10.779197164293661"><ele>59.33333333333333</ele><time>2026-04-18T10:50:52Z</time></trkpt><trkpt lat="43.35637338991699" lon="10.778934897044007"><ele>58.666666666666664</ele><time>2026-04-18T10:50:53Z</time></trkpt><trkpt lat="43.35633677601052" lon="10.778675234846142"><ele>58.0</ele><time>2026-04-18T10:50:54Z</time></trkpt><trkpt lat="43.35628343961165" lon="10.778420253037286"><ele>58.0</ele><time>2026-04-18T10:50:55Z</time></trkpt><trkpt lat="43.3562187348192" lon="10.778176901832119"><ele>58.0</ele><time>2026-04-18T10:50:56Z</time></trkpt><trkpt lat="43.356142023684974" lon="10.777941623343546"><ele>58.0</ele><time>2026-04-18T10:50:57.001Z</time></trkpt><trkpt lat="43.356048745881864" lon="10.777718634387258"><ele>59.33333333333333</ele><time>2026-04-18T10:50:58.001Z</time></trkpt><trkpt lat="43.3559425802684" lon="10.777508439774376"><ele>60.66666666666667</ele><time>2026-04-18T10:50:59.001Z</time></trkpt><trkpt lat="43.35582680499621" lon="10.777310829098043"><ele>62.0</ele><time>2026-04-18T10:51:00.001Z</time></trkpt><trkpt lat="43.35569676677315" lon="10.77713098428067"><ele>62.0</ele><time>2026-04-18T10:51:01.001Z</time></trkpt><trkpt lat="43.355557483978025" lon="10.776967444238878"><ele>62.0</ele><time>2026-04-18T10:51:02.001Z</time></trkpt><trkpt lat="43.35542260051693" lon="10.776798228848584"><ele>62.0</ele><time>2026-04-18T10:51:03.001Z</time></trkpt><trkpt lat="43.355263817024806" lon="10.776669845541804"><ele>61.0</ele><time>2026-04-18T10:51:04.001Z</time></trkpt><trkpt lat="43.3550976644368" lon="10.776564785170708"><ele>60.0</ele><time>2026-04-18T10:51:05.001Z</time></trkpt><trkpt lat="43.35493342125419" lon="10.77646281970192"><ele>59.0</ele><time>2026-04-18T10:51:06.001Z</time></trkpt><trkpt lat="43.35477778590524" lon="10.776366197828645"><ele>58.5</ele><time>2026-04-18T10:51:07.001Z</time></trkpt><trkpt lat="43.354636045836514" lon="10.776278202766782"><ele>58.0</ele><time>2026-04-18T10:51:08.001Z</time></trkpt><trkpt lat="43.35450251123869" lon="10.77619530170776"><ele>57.5</ele><time>2026-04-18T10:51:09.001Z</time></trkpt><trkpt lat="43.354378763806324" lon="10.776119338654961"><ele>57.0</ele><time>2026-04-18T10:51:10.001Z</time></trkpt><trkpt lat="43.35425796551556" lon="10.776047463214121"><ele>56.75</ele><time>2026-04-18T10:51:11.001Z</time></trkpt><trkpt lat="43.35412510388068" lon="10.775988050390506"><ele>56.5</ele><time>2026-04-18T10:51:12.001Z</time></trkpt><trkpt lat="43.35399306548304" lon="10.775894774925108"><ele>56.25</ele><time>2026-04-18T10:51:13.001Z</time></trkpt><trkpt lat="43.35386171426425" lon="10.77578537448404"><ele>56.0</ele><time>2026-04-18T10:51:14.001Z</time></trkpt><trkpt lat="43.35373558639788" lon="10.775658678431302"><ele>56.0</ele><time>2026-04-18T10:51:15.001Z</time></trkpt><trkpt lat="43.35361717940864" lon="10.775513840149364"><ele>56.0</ele><time>2026-04-18T10:51:16.001Z</time></trkpt><trkpt lat="43.35352361768097" lon="10.77533523969374"><ele>56.0</ele><time>2026-04-18T10:51:17.001Z</time></trkpt><trkpt lat="43.35340564324329" lon="10.775172253838928"><ele>56.333333333333336</ele><time>2026-04-18T10:51:18.001Z</time></trkpt><trkpt lat="43.35329890104795" lon="10.774986354684767"><ele>56.66666666666667</ele><time>2026-04-18T10:51:19.001Z</time></trkpt><trkpt lat="43.35319270178361" lon="10.774806181106559"><ele>57.0</ele><time>2026-04-18T10:51:20.001Z</time></trkpt><trkpt lat="43.35309906635855" lon="10.774643513653842"><ele>57.0</ele><time>2026-04-18T10:51:21.001Z</time></trkpt><trkpt lat="43.3530093783609" lon="10.77449040662225"><ele>57.0</ele><time>2026-04-18T10:51:22.001Z</time></trkpt><trkpt lat="43.352913958957814" lon="10.774333576388797"><ele>57.0</ele><time>2026-04-18T10:51:23.001Z</time></trkpt><trkpt lat="43.35281195764211" lon="10.774165408517161"><ele>56.66666666666667</ele><time>2026-04-18T10:51:24.001Z</time></trkpt><trkpt lat="43.3527052147433" lon="10.773980111418599"><ele>56.333333333333336</ele><time>2026-04-18T10:51:25.001Z</time></trkpt><trkpt lat="43.35259523133646" lon="10.773790547546433"><ele>56.0</ele><time>2026-04-18T10:51:26.001Z</time></trkpt><trkpt lat="43.3524800619495" lon="10.77359222587955"><ele>56.333333333333336</ele><time>2026-04-18T10:51:27.001Z</time></trkpt><trkpt lat="43.352365126491634" lon="10.77338934452052"><ele>56.66666666666667</ele><time>2026-04-18T10:51:28.001Z</time></trkpt><trkpt lat="43.35224721968868" lon="10.773179878401308"><ele>57.0</ele><time>2026-04-18T10:51:29.001Z</time></trkpt><trkpt lat="43.352125105883395" lon="10.772969990482641"><ele>56.33333333333333</ele><time>2026-04-18T10:51:30.001Z</time></trkpt><trkpt lat="43.35200769578774" lon="10.772760686751736"><ele>55.666666666666664</ele><time>2026-04-18T10:51:31.001Z</time></trkpt><trkpt lat="43.35189196366469" lon="10.772558103185496"><ele>55.0</ele><time>2026-04-18T10:51:32.001Z</time></trkpt><trkpt lat="43.351775086091386" lon="10.77236423837627"><ele>55.0</ele><time>2026-04-18T10:51:33.001Z</time></trkpt><trkpt lat="43.351661578867365" lon="10.772173287774832"><ele>55.0</ele><time>2026-04-18T10:51:34.001Z</time></trkpt><trkpt lat="43.35155410967492" lon="10.771978765916419"><ele>55.0</ele><time>2026-04-18T10:51:35.001Z</time></trkpt><trkpt lat="43.35144403899373" lon="10.771787905625992"><ele>54.666666666666664</ele><time>2026-04-18T10:51:36.001Z</time></trkpt><trkpt lat="43.351330594069985" lon="10.771601713209472"><ele>54.33333333333333</ele><time>2026-04-18T10:51:37.001Z</time></trkpt><trkpt lat="43.351220005212106" lon="10.771413988982042"><ele>54.0</ele><time>2026-04-18T10:51:38.001Z</time></trkpt><trkpt lat="43.351112030072976" lon="10.771223910283501"><ele>54.0</ele><time>2026-04-18T10:51:39.001Z</time></trkpt><trkpt lat="43.351002919402795" lon="10.77103731423327"><ele>54.0</ele><time>2026-04-18T10:51:40.001Z</time></trkpt><trkpt lat="43.35089163070554" lon="10.770847813471569"><ele>54.0</ele><time>2026-04-18T10:51:41.001Z</time></trkpt><trkpt lat="43.35078271951756" lon="10.770647675645074"><ele>54.66666666666667</ele><time>2026-04-18T10:51:42.001Z</time></trkpt><trkpt lat="43.35067010591274" lon="10.770434885987804"><ele>55.333333333333336</ele><time>2026-04-18T10:51:43.002Z</time></trkpt><trkpt lat="43.35055729257114" lon="10.77021315113415"><ele>56.0</ele><time>2026-04-18T10:51:44.002Z</time></trkpt><trkpt lat="43.35044437833909" lon="10.769986277036084"><ele>56.0</ele><time>2026-04-18T10:51:45.002Z</time></trkpt><trkpt lat="43.35032938339947" lon="10.769756064802722"><ele>56.0</ele><time>2026-04-18T10:51:46.002Z</time></trkpt><trkpt lat="43.35021290350136" lon="10.76952252565587"><ele>56.0</ele><time>2026-04-18T10:51:47.002Z</time></trkpt><trkpt lat="43.35009409342064" lon="10.769290279323778"><ele>56.0</ele><time>2026-04-18T10:51:48.002Z</time></trkpt><trkpt lat="43.349979369521385" lon="10.769064773307274"><ele>56.0</ele><time>2026-04-18T10:51:49.002Z</time></trkpt><trkpt lat="43.34987143276901" lon="10.768841291966"><ele>56.0</ele><time>2026-04-18T10:51:50.002Z</time></trkpt><trkpt lat="43.34976926258422" lon="10.768619748465383"><ele>55.66666666666667</ele><time>2026-04-18T10:51:51.002Z</time></trkpt><trkpt lat="43.34967493775874" lon="10.768396337403273"><ele>55.33333333333333</ele><time>2026-04-18T10:51:52.002Z</time></trkpt><trkpt lat="43.34960371033045" lon="10.768156441661038"><ele>55.0</ele><time>2026-04-18T10:51:53.002Z</time></trkpt><trkpt lat="43.349554423556405" lon="10.767910707624853"><ele>55.0</ele><time>2026-04-18T10:51:54.002Z</time></trkpt><trkpt lat="43.34951895741236" lon="10.767664338376498"><ele>55.0</ele><time>2026-04-18T10:51:55.002Z</time></trkpt><trkpt lat="43.34949585981384" lon="10.767417673640741"><ele>55.0</ele><time>2026-04-18T10:51:56.002Z</time></trkpt><trkpt lat="43.3494847590713" lon="10.767174989281843"><ele>55.0</ele><time>2026-04-18T10:51:57.002Z</time></trkpt><trkpt lat="43.34949546603208" lon="10.7669633155505"><ele>55.0</ele><time>2026-04-18T10:51:58.002Z</time></trkpt><trkpt lat="43.34950879428069" lon="10.76676670797194"><ele>55.0</ele><time>2026-04-18T10:51:59.002Z</time></trkpt><trkpt lat="43.349497403889416" lon="10.766569504537436"><ele>55.0</ele><time>2026-04-18T10:52:00.002Z</time></trkpt><trkpt lat="43.3494457450336" lon="10.766381072285284"><ele>55.33333333333333</ele><time>2026-04-18T10:52:01.002Z</time></trkpt><trkpt lat="43.3493652033167" lon="10.76619711207945"><ele>55.66666666666667</ele><time>2026-04-18T10:52:02.002Z</time></trkpt><trkpt lat="43.349256704453474" lon="10.76602800644331"><ele>56.0</ele><time>2026-04-18T10:52:03.002Z</time></trkpt><trkpt lat="43.34913373022224" lon="10.765860414905466"><ele>56.0</ele><time>2026-04-18T10:52:04.002Z</time></trkpt><trkpt lat="43.34901216071928" lon="10.76567969230543"><ele>56.0</ele><time>2026-04-18T10:52:05.002Z</time></trkpt><trkpt lat="43.3488947391775" lon="10.765484856830941"><ele>56.0</ele><time>2026-04-18T10:52:06.002Z</time></trkpt><trkpt lat="43.348778996536495" lon="10.765279013701015"><ele>57.333333333333336</ele><time>2026-04-18T10:52:07.002Z</time></trkpt><trkpt lat="43.34867019685672" lon="10.765071605374656"><ele>58.66666666666667</ele><time>2026-04-18T10:52:08.002Z</time></trkpt><trkpt lat="43.348574342360415" lon="10.764839002372343"><ele>60.0</ele><time>2026-04-18T10:52:09.002Z</time></trkpt><trkpt lat="43.3484885894803" lon="10.764601324702681"><ele>61.66666666666667</ele><time>2026-04-18T10:52:10.002Z</time></trkpt><trkpt lat="43.348409169801855" lon="10.764361190341894"><ele>63.333333333333336</ele><time>2026-04-18T10:52:11.002Z</time></trkpt><trkpt lat="43.34832834980253" lon="10.764117354145768"><ele>65.0</ele><time>2026-04-18T10:52:12.002Z</time></trkpt><trkpt lat="43.348244346126535" lon="10.7638659559615"><ele>65.0</ele><time>2026-04-18T10:52:12.999Z</time></trkpt><trkpt lat="43.348158195006924" lon="10.76361074066676"><ele>65.0</ele><time>2026-04-18T10:52:13.999Z</time></trkpt><trkpt lat="43.34809059067349" lon="10.76335205955656"><ele>65.0</ele><time>2026-04-18T10:52:14.999Z</time></trkpt><trkpt lat="43.34799733634695" lon="10.763111738953599"><ele>63.0</ele><time>2026-04-18T10:52:15.999Z</time></trkpt><trkpt lat="43.347922718397776" lon="10.762861842558403"><ele>61.0</ele><time>2026-04-18T10:52:16.999Z</time></trkpt><trkpt lat="43.34785162945669" lon="10.762601119649725"><ele>59.0</ele><time>2026-04-18T10:52:17.999Z</time></trkpt><trkpt lat="43.347787556412776" lon="10.762333987751084"><ele>59.0</ele><time>2026-04-18T10:52:18.999Z</time></trkpt><trkpt lat="43.347735769428816" lon="10.762060453604375"><ele>59.0</ele><time>2026-04-18T10:52:19.999Z</time></trkpt><trkpt lat="43.34769684179502" lon="10.761785273295553"><ele>59.0</ele><time>2026-04-18T10:52:20.999Z</time></trkpt><trkpt lat="43.34766632114914" lon="10.761509044644786"><ele>59.0</ele><time>2026-04-18T10:52:21.999Z</time></trkpt><trkpt lat="43.34763551383758" lon="10.761233470108392"><ele>59.0</ele><time>2026-04-18T10:52:22.999Z</time></trkpt><trkpt lat="43.34760526593082" lon="10.760959320883753"><ele>59.0</ele><time>2026-04-18T10:52:23.999Z</time></trkpt><trkpt lat="43.347572626178454" lon="10.760688222853267"><ele>58.66666666666667</ele><time>2026-04-18T10:52:24.999Z</time></trkpt><trkpt lat="43.347538785842765" lon="10.760417886135894"><ele>58.33333333333333</ele><time>2026-04-18T10:52:25.999Z</time></trkpt><trkpt lat="43.347504617191156" lon="10.760148781642807"><ele>58.0</ele><time>2026-04-18T10:52:26.999Z</time></trkpt><trkpt lat="43.34744911991413" lon="10.759887840625902"><ele>57.666666666666664</ele><time>2026-04-18T10:52:27.999Z</time></trkpt><trkpt lat="43.347371989594606" lon="10.759632862492523"><ele>57.33333333333333</ele><time>2026-04-18T10:52:28.999Z</time></trkpt><trkpt lat="43.347281029969686" lon="10.759381622729725"><ele>57.0</ele><time>2026-04-18T10:52:29.999Z</time></trkpt><trkpt lat="43.34717546309981" lon="10.75913852281775"><ele>57.0</ele><time>2026-04-18T10:52:30.999Z</time></trkpt><trkpt lat="43.34705882160698" lon="10.75890735387378"><ele>57.0</ele><time>2026-04-18T10:52:32Z</time></trkpt><trkpt lat="43.346937757978715" lon="10.758680522507214"><ele>57.0</ele><time>2026-04-18T10:52:33Z</time></trkpt><trkpt lat="43.346816364325555" lon="10.75846109369774"><ele>58.33333333333333</ele><time>2026-04-18T10:52:34Z</time></trkpt><trkpt lat="43.34669761000593" lon="10.758243937057959"><ele>59.666666666666664</ele><time>2026-04-18T10:52:35Z</time></trkpt><trkpt lat="43.34657999001486" lon="10.758029979681355"><ele>61.0</ele><time>2026-04-18T10:52:36Z</time></trkpt><trkpt lat="43.34646412430654" lon="10.757813949491476"><ele>59.666666666666664</ele><time>2026-04-18T10:52:37Z</time></trkpt><trkpt lat="43.34634643374585" lon="10.75759324589236"><ele>58.33333333333333</ele><time>2026-04-18T10:52:38Z</time></trkpt><trkpt lat="43.34622408205578" lon="10.75737283325221"><ele>57.0</ele><time>2026-04-18T10:52:39Z</time></trkpt><trkpt lat="43.34609698323841" lon="10.757158729153005"><ele>57.0</ele><time>2026-04-18T10:52:40Z</time></trkpt><trkpt lat="43.345978809337865" lon="10.75693391274488"><ele>57.0</ele><time>2026-04-18T10:52:41Z</time></trkpt><trkpt lat="43.34584064171765" lon="10.756734634910618"><ele>57.0</ele><time>2026-04-18T10:52:42Z</time></trkpt><trkpt lat="43.34570452861189" lon="10.756557084828437"><ele>57.0</ele><time>2026-04-18T10:52:43Z</time></trkpt><trkpt lat="43.345581196785936" lon="10.756399784722753"><ele>57.0</ele><time>2026-04-18T10:52:44Z</time></trkpt><trkpt lat="43.34547535028894" lon="10.756267623990485"><ele>57.0</ele><time>2026-04-18T10:52:45Z</time></trkpt><trkpt lat="43.34537910335134" lon="10.756147449771392"><ele>57.0</ele><time>2026-04-18T10:52:46Z</time></trkpt><trkpt lat="43.34529816679197" lon="10.756045584555645"><ele>56.833333333333336</ele><time>2026-04-18T10:52:47Z</time></trkpt><trkpt lat="43.345224953585756" lon="10.755968729478075"><ele>56.66666666666667</ele><time>2026-04-18T10:52:48Z</time></trkpt><trkpt lat="43.345193395472855" lon="10.75586708039286"><ele>56.5</ele><time>2026-04-18T10:52:49Z</time></trkpt><trkpt lat="43.345193967678945" lon="10.755760296584834"><ele>56.333333333333336</ele><time>2026-04-18T10:52:50Z</time></trkpt><trkpt lat="43.345231478069316" lon="10.75566249843973"><ele>56.16666666666667</ele><time>2026-04-18T10:52:51Z</time></trkpt><trkpt lat="43.34527084108711" lon="10.755548822560415"><ele>56.0</ele><time>2026-04-18T10:52:52Z</time></trkpt><trkpt lat="43.34527858090905" lon="10.755433166798241"><ele>56.0</ele><time>2026-04-18T10:52:53Z</time></trkpt><trkpt lat="43.345259273058886" lon="10.755328038834826"><ele>55.99999999999999</ele><time>2026-04-18T10:52:54Z</time></trkpt><trkpt lat="43.34520230449958" lon="10.755247032506377"><ele>55.99999999999999</ele><time>2026-04-18T10:52:55Z</time></trkpt><trkpt lat="43.34511062854213" lon="10.755169992933434"><ele>56.0</ele><time>2026-04-18T10:52:56Z</time></trkpt><trkpt lat="43.34500772661684" lon="10.755079092146213"><ele>56.0</ele><time>2026-04-18T10:52:57Z</time></trkpt><trkpt lat="43.344916338439596" lon="10.754946032322595"><ele>56.0</ele><time>2026-04-18T10:52:58Z</time></trkpt><trkpt lat="43.3448575444664" lon="10.754779236794395"><ele>56.0</ele><time>2026-04-18T10:52:59Z</time></trkpt><trkpt lat="43.34483022636616" lon="10.75460858920353"><ele>56.0</ele><time>2026-04-18T10:53:00Z</time></trkpt><trkpt lat="43.34479723130708" lon="10.754456000516788"><ele>56.0</ele><time>2026-04-18T10:53:01Z</time></trkpt><trkpt lat="43.34475968549877" lon="10.754315983051939"><ele>56.199999999999996</ele><time>2026-04-18T10:53:02.001Z</time></trkpt><trkpt lat="43.34472518143997" lon="10.75418319932202"><ele>56.39999999999999</ele><time>2026-04-18T10:53:03.001Z</time></trkpt><trkpt lat="43.34468769374009" lon="10.754060550408848"><ele>56.6</ele><time>2026-04-18T10:53:04.001Z</time></trkpt><trkpt lat="43.34465085586653" lon="10.753955476503272"><ele>56.8</ele><time>2026-04-18T10:53:05.001Z</time></trkpt><trkpt lat="43.3446185634727" lon="10.753864534572752"><ele>57.0</ele><time>2026-04-18T10:53:06.001Z</time></trkpt><trkpt lat="43.34456159675578" lon="10.753735884858154"><ele>55.0</ele><time>2026-04-18T10:53:08.001Z</time></trkpt><trkpt lat="43.34452685304087" lon="10.753649725399725"><ele>55.0</ele><time>2026-04-18T10:53:10.001Z</time></trkpt><trkpt lat="43.34452897561439" lon="10.753543885987797"><ele>55.0</ele><time>2026-04-18T10:53:13.001Z</time></trkpt><trkpt lat="43.34455375433083" lon="10.753425460556949"><ele>57.0</ele><time>2026-04-18T10:53:16.001Z</time></trkpt><trkpt lat="43.344493628870396" lon="10.753392395169701"><ele>57.0</ele><time>2026-04-18T10:53:18.001Z</time></trkpt><trkpt lat="43.34445758933733" lon="10.753313737490839"><ele>57.0</ele><time>2026-04-18T10:53:23.001Z</time></trkpt></trkseg><trkseg><trkpt lat="43.49391859496127" lon="10.736477105921939"><ele>70.0</ele><time>2026-04-18T13:03:28.997Z</time></trkpt><trkpt lat="43.49392510957208" lon="10.736386062510588"><ele>70.0</ele><time>2026-04-18T13:03:33.998Z</time></trkpt><trkpt lat="43.49385779513351" lon="10.736456228836118"><ele>70.0</ele><time>2026-04-18T13:03:35.998Z</time></trkpt><trkpt lat="43.493714397429336" lon="10.736497432262778"><ele>70.0</ele><time>2026-04-18T13:03:36.998Z</time></trkpt><trkpt lat="43.493613996733764" lon="10.736603851461313"><ele>70.0</ele><time>2026-04-18T13:03:37.998Z</time></trkpt><trkpt lat="43.493510429050716" lon="10.736710960473347"><ele>69.66666666666666</ele><time>2026-04-18T13:03:38.998Z</time></trkpt><trkpt lat="43.49339006082474" lon="10.73681930283891"><ele>69.33333333333333</ele><time>2026-04-18T13:03:39.998Z</time></trkpt><trkpt lat="43.49325561666391" lon="10.736933291221884"><ele>69.0</ele><time>2026-04-18T13:03:40.998Z</time></trkpt><trkpt lat="43.49311741355573" lon="10.73705079094058"><ele>69.0</ele><time>2026-04-18T13:03:41.998Z</time></trkpt><trkpt lat="43.49297376767311" lon="10.737185690330008"><ele>69.0</ele><time>2026-04-18T13:03:42.998Z</time></trkpt><trkpt lat="43.4928262703307" lon="10.737335569140718"><ele>69.0</ele><time>2026-04-18T13:03:43.998Z</time></trkpt><trkpt lat="43.49268734255669" lon="10.73749328291443"><ele>69.0</ele><time>2026-04-18T13:03:44.998Z</time></trkpt><trkpt lat="43.49256221671154" lon="10.737660774005759"><ele>69.0</ele><time>2026-04-18T13:03:45.998Z</time></trkpt><trkpt lat="43.49244690318459" lon="10.737819289582438"><ele>69.0</ele><time>2026-04-18T13:03:46.998Z</time></trkpt><trkpt lat="43.492339297411064" lon="10.737973351713107"><ele>69.0</ele><time>2026-04-18T13:03:47.999Z</time></trkpt><trkpt lat="43.492232057313956" lon="10.738132420430036"><ele>69.0</ele><time>2026-04-18T13:03:48.999Z</time></trkpt><trkpt lat="43.49212773925289" lon="10.738313362354928"><ele>69.0</ele><time>2026-04-18T13:03:49.999Z</time></trkpt><trkpt lat="43.49202503508279" lon="10.738505488013741"><ele>69.33333333333333</ele><time>2026-04-18T13:03:50.999Z</time></trkpt><trkpt lat="43.491926501778984" lon="10.738700010629923"><ele>69.66666666666666</ele><time>2026-04-18T13:03:51.999Z</time></trkpt><trkpt lat="43.49183598774075" lon="10.738892697555864"><ele>70.0</ele><time>2026-04-18T13:03:52.999Z</time></trkpt><trkpt lat="43.49175904884433" lon="10.739069678010356"><ele>70.0</ele><time>2026-04-18T13:03:53.999Z</time></trkpt><trkpt lat="43.49168524274613" lon="10.73923100644711"><ele>70.0</ele><time>2026-04-18T13:03:54.999Z</time></trkpt><trkpt lat="43.491612459334064" lon="10.739379781181592"><ele>70.0</ele><time>2026-04-18T13:03:55.999Z</time></trkpt><trkpt lat="43.4915403242007" lon="10.739528917245968"><ele>70.0</ele><time>2026-04-18T13:03:56.999Z</time></trkpt><trkpt lat="43.49146637965259" lon="10.7396832112192"><ele>69.6</ele><time>2026-04-18T13:03:57.999Z</time></trkpt><trkpt lat="43.491395423922086" lon="10.739816416835456"><ele>69.2</ele><time>2026-04-18T13:03:58.999Z</time></trkpt><trkpt lat="43.49133062733375" lon="10.739925166298557"><ele>68.8</ele><time>2026-04-18T13:03:59.999Z</time></trkpt><trkpt lat="43.49127416348854" lon="10.740019830958381"><ele>68.4</ele><time>2026-04-18T13:04:00.999Z</time></trkpt><trkpt lat="43.49122284320028" lon="10.740105560821512"><ele>68.0</ele><time>2026-04-18T13:04:01.999Z</time></trkpt><trkpt lat="43.49117816366666" lon="10.740176887264274"><ele>68.5</ele><time>2026-04-18T13:04:02.999Z</time></trkpt><trkpt lat="43.49110980713501" lon="10.740270236835052"><ele>69.0</ele><time>2026-04-18T13:04:04.999Z</time></trkpt><trkpt lat="43.49105814434345" lon="10.740325199309318"><ele>69.5</ele><time>2026-04-18T13:04:09.999Z</time></trkpt><trkpt lat="43.49090863834573" lon="10.74015005979438"><ele>70.0</ele><time>2026-04-18T13:04:12.999Z</time></trkpt><trkpt lat="43.51002317146522" lon="10.618532538959322"><ele>279.0</ele><time>2026-04-18T13:28:21Z</time></trkpt><trkpt lat="43.50729073008887" lon="10.618775170826748"><ele>309.0</ele><time>2026-04-18T13:29:13Z</time></trkpt><trkpt lat="43.5047581545685" lon="10.62007752581207"><ele>320.0</ele><time>2026-04-18T13:29:54Z</time></trkpt><trkpt lat="43.50449141754039" lon="10.619175815646074"><ele>320.0</ele><time>2026-04-18T17:19:43.057Z</time></trkpt><trkpt lat="43.50356709940659" lon="10.619110581383948"><ele>313.0</ele><time>2026-04-18T17:22:17Z</time></trkpt><trkpt lat="43.5026630861528" lon="10.619156183623328"><ele>313.0</ele><time>2026-04-18T17:24:01Z</time></trkpt><trkpt lat="43.502548963206266" lon="10.618761254825527"><ele>313.0</ele><time>2026-04-18T17:38:13.997Z</time></trkpt></trkseg><trkseg><trkpt lat="43.50481867174241" lon="10.620208212436768"><ele>313.7</ele><time>2026-04-19T06:44:52Z</time></trkpt></trkseg></trk></gpx>